<?xml version="1.0" encoding="UTF-8" standalone="no" ?>
<gpx xmlns="http://www.topografix.com/GPX/1/1" xmlns:xsi="http://www.w3.org/2001/XMLSchema-instance" xsi:schemaLocation="http://www.topografix.com/GPX/1/1 http://www.topografix.com/GPX/1/1/gpx.xsd" version="1.1" creator="VisuGPX - https://www.visugpx.com">
  <metadata>
    <name>2017-03-27 Bike ride-Amberieux en Dombes O via Monthieux</name>
    <desc><![CDATA[2017-03-27 Bike ride-Amberieux en Dombes O via Monthieux]]></desc>
  </metadata>
  <wpt lat="45.92468" lon="4.73715">
    <ele>174</ele>
    <name><![CDATA[2017-03-27 10:29 (Start)]]></name>
  </wpt>
  <wpt lat="45.92455" lon="4.73707">
    <ele>174</ele>
    <name><![CDATA[2017-03-27 10:29 (End)]]></name>
    <desc><![CDATA[Created by Google My Tracks on Android  Name: 2017-03-27 10:29 Activity type: biking Description: - Total distance: 46.48 km (28.9 mi) Total time: 2:42:27 Moving time: 2:32:03 Average speed: 17.17 km/h (10.7 mi/h) Average moving speed: 18.34 km/h (11.4 mi/h) Max speed: 43.45 km/h (27.0 mi/h) Average pace: 3:30 min/km (5:37 min/mi) Average moving pace: 3:16 min/km (5:16 min/mi) Fastest pace: 1:23 min/km (2:13 min/mi) Max elevation: 314 m (1029 ft) Min elevation: 165 m (542 ft) Elevation gain: 668 m (2191 ft) Max grade: 13 % Min grade: -35 % Recorded: 27/03/2017 10:29]]></desc>
  </wpt>
  <trk>
    <name><![CDATA[2017-03-27 10:29]]></name>
    <trkseg>
      <trkpt lat="45.92468" lon="4.73715">
        <ele>174</ele>
        <time>2017-03-27T08:29:53.715Z</time>
      </trkpt>
      <trkpt lat="45.92465" lon="4.73705">
        <ele>174</ele>
        <time>2017-03-27T08:31:06Z</time>
      </trkpt>
      <trkpt lat="45.92466" lon="4.73702">
        <ele>174</ele>
        <time>2017-03-27T08:31:07Z</time>
      </trkpt>
      <trkpt lat="45.92469" lon="4.73692">
        <ele>174</ele>
        <time>2017-03-27T08:31:10Z</time>
      </trkpt>
      <trkpt lat="45.92469" lon="4.73688">
        <ele>174</ele>
        <time>2017-03-27T08:31:11Z</time>
      </trkpt>
      <trkpt lat="45.92471" lon="4.73678">
        <ele>174</ele>
        <time>2017-03-27T08:31:13Z</time>
      </trkpt>
      <trkpt lat="45.92471" lon="4.73673">
        <ele>174</ele>
        <time>2017-03-27T08:31:14Z</time>
      </trkpt>
      <trkpt lat="45.92471" lon="4.73662">
        <ele>174</ele>
        <time>2017-03-27T08:31:16Z</time>
      </trkpt>
      <trkpt lat="45.92472" lon="4.73657">
        <ele>174</ele>
        <time>2017-03-27T08:31:17Z</time>
      </trkpt>
      <trkpt lat="45.92476" lon="4.73647">
        <ele>174</ele>
        <time>2017-03-27T08:31:19Z</time>
      </trkpt>
      <trkpt lat="45.92479" lon="4.73644">
        <ele>174</ele>
        <time>2017-03-27T08:31:20Z</time>
      </trkpt>
      <trkpt lat="45.92486" lon="4.73644">
        <ele>174</ele>
        <time>2017-03-27T08:31:22Z</time>
      </trkpt>
      <trkpt lat="45.9249" lon="4.73644">
        <ele>174</ele>
        <time>2017-03-27T08:31:23Z</time>
      </trkpt>
      <trkpt lat="45.92498" lon="4.73645">
        <ele>174</ele>
        <time>2017-03-27T08:31:25Z</time>
      </trkpt>
      <trkpt lat="45.92503" lon="4.73644">
        <ele>174</ele>
        <time>2017-03-27T08:31:26Z</time>
      </trkpt>
      <trkpt lat="45.92508" lon="4.73644">
        <ele>174</ele>
        <time>2017-03-27T08:31:27Z</time>
      </trkpt>
      <trkpt lat="45.92513" lon="4.73644">
        <ele>174</ele>
        <time>2017-03-27T08:31:28Z</time>
      </trkpt>
      <trkpt lat="45.92518" lon="4.73644">
        <ele>174</ele>
        <time>2017-03-27T08:31:29Z</time>
      </trkpt>
      <trkpt lat="45.92522" lon="4.73644">
        <ele>173</ele>
        <time>2017-03-27T08:31:30Z</time>
      </trkpt>
      <trkpt lat="45.92527" lon="4.73645">
        <ele>173</ele>
        <time>2017-03-27T08:31:31Z</time>
      </trkpt>
      <trkpt lat="45.92532" lon="4.73645">
        <ele>173</ele>
        <time>2017-03-27T08:31:32Z</time>
      </trkpt>
      <trkpt lat="45.92537" lon="4.73644">
        <ele>173</ele>
        <time>2017-03-27T08:31:33Z</time>
      </trkpt>
      <trkpt lat="45.92542" lon="4.73642">
        <ele>173</ele>
        <time>2017-03-27T08:31:34Z</time>
      </trkpt>
      <trkpt lat="45.9255" lon="4.73639">
        <ele>173</ele>
        <time>2017-03-27T08:31:36Z</time>
      </trkpt>
      <trkpt lat="45.92555" lon="4.73638">
        <ele>173</ele>
        <time>2017-03-27T08:31:37Z</time>
      </trkpt>
      <trkpt lat="45.92563" lon="4.73636">
        <ele>173</ele>
        <time>2017-03-27T08:31:39Z</time>
      </trkpt>
      <trkpt lat="45.92567" lon="4.73635">
        <ele>173</ele>
        <time>2017-03-27T08:31:40Z</time>
      </trkpt>
      <trkpt lat="45.92575" lon="4.73634">
        <ele>173</ele>
        <time>2017-03-27T08:31:42Z</time>
      </trkpt>
      <trkpt lat="45.92578" lon="4.73632">
        <ele>173</ele>
        <time>2017-03-27T08:31:43Z</time>
      </trkpt>
      <trkpt lat="45.92584" lon="4.73631">
        <ele>172</ele>
        <time>2017-03-27T08:31:44Z</time>
      </trkpt>
      <trkpt lat="45.92589" lon="4.7363">
        <ele>172</ele>
        <time>2017-03-27T08:31:45Z</time>
      </trkpt>
      <trkpt lat="45.92593" lon="4.73628">
        <ele>172</ele>
        <time>2017-03-27T08:31:46Z</time>
      </trkpt>
      <trkpt lat="45.92598" lon="4.73626">
        <ele>173</ele>
        <time>2017-03-27T08:31:47Z</time>
      </trkpt>
      <trkpt lat="45.92603" lon="4.73626">
        <ele>173</ele>
        <time>2017-03-27T08:31:48Z</time>
      </trkpt>
      <trkpt lat="45.92607" lon="4.73625">
        <ele>173</ele>
        <time>2017-03-27T08:31:49Z</time>
      </trkpt>
      <trkpt lat="45.92612" lon="4.73626">
        <ele>173</ele>
        <time>2017-03-27T08:31:50Z</time>
      </trkpt>
      <trkpt lat="45.92618" lon="4.73631">
        <ele>173</ele>
        <time>2017-03-27T08:31:51Z</time>
      </trkpt>
      <trkpt lat="45.92622" lon="4.73634">
        <ele>173</ele>
        <time>2017-03-27T08:31:52Z</time>
      </trkpt>
      <trkpt lat="45.92627" lon="4.73639">
        <ele>173</ele>
        <time>2017-03-27T08:31:53Z</time>
      </trkpt>
      <trkpt lat="45.92632" lon="4.73645">
        <ele>173</ele>
        <time>2017-03-27T08:31:54Z</time>
      </trkpt>
      <trkpt lat="45.92635" lon="4.73652">
        <ele>173</ele>
        <time>2017-03-27T08:31:55Z</time>
      </trkpt>
      <trkpt lat="45.92638" lon="4.73659">
        <ele>173</ele>
        <time>2017-03-27T08:31:56Z</time>
      </trkpt>
      <trkpt lat="45.92641" lon="4.73665">
        <ele>173</ele>
        <time>2017-03-27T08:31:57Z</time>
      </trkpt>
      <trkpt lat="45.92645" lon="4.7367">
        <ele>173</ele>
        <time>2017-03-27T08:31:58Z</time>
      </trkpt>
      <trkpt lat="45.92648" lon="4.73676">
        <ele>173</ele>
        <time>2017-03-27T08:31:59Z</time>
      </trkpt>
      <trkpt lat="45.92652" lon="4.73681">
        <ele>173</ele>
        <time>2017-03-27T08:32:00Z</time>
      </trkpt>
      <trkpt lat="45.92655" lon="4.73685">
        <ele>173</ele>
        <time>2017-03-27T08:32:01Z</time>
      </trkpt>
      <trkpt lat="45.92659" lon="4.7369">
        <ele>173</ele>
        <time>2017-03-27T08:32:02Z</time>
      </trkpt>
      <trkpt lat="45.92664" lon="4.73694">
        <ele>173</ele>
        <time>2017-03-27T08:32:03Z</time>
      </trkpt>
      <trkpt lat="45.92668" lon="4.73697">
        <ele>174</ele>
        <time>2017-03-27T08:32:04Z</time>
      </trkpt>
      <trkpt lat="45.92673" lon="4.73701">
        <ele>174</ele>
        <time>2017-03-27T08:32:05Z</time>
      </trkpt>
      <trkpt lat="45.92677" lon="4.73704">
        <ele>173</ele>
        <time>2017-03-27T08:32:06Z</time>
      </trkpt>
      <trkpt lat="45.92682" lon="4.73706">
        <ele>173</ele>
        <time>2017-03-27T08:32:07Z</time>
      </trkpt>
      <trkpt lat="45.92687" lon="4.73708">
        <ele>173</ele>
        <time>2017-03-27T08:32:08Z</time>
      </trkpt>
      <trkpt lat="45.92692" lon="4.7371">
        <ele>173</ele>
        <time>2017-03-27T08:32:09Z</time>
      </trkpt>
      <trkpt lat="45.92698" lon="4.73711">
        <ele>173</ele>
        <time>2017-03-27T08:32:10Z</time>
      </trkpt>
      <trkpt lat="45.92703" lon="4.73713">
        <ele>173</ele>
        <time>2017-03-27T08:32:11Z</time>
      </trkpt>
      <trkpt lat="45.92708" lon="4.73714">
        <ele>173</ele>
        <time>2017-03-27T08:32:12Z</time>
      </trkpt>
      <trkpt lat="45.92713" lon="4.73715">
        <ele>173</ele>
        <time>2017-03-27T08:32:13Z</time>
      </trkpt>
      <trkpt lat="45.92719" lon="4.73716">
        <ele>173</ele>
        <time>2017-03-27T08:32:14Z</time>
      </trkpt>
      <trkpt lat="45.92724" lon="4.73717">
        <ele>173</ele>
        <time>2017-03-27T08:32:15Z</time>
      </trkpt>
      <trkpt lat="45.92728" lon="4.73718">
        <ele>173</ele>
        <time>2017-03-27T08:32:16Z</time>
      </trkpt>
      <trkpt lat="45.92734" lon="4.7372">
        <ele>173</ele>
        <time>2017-03-27T08:32:17Z</time>
      </trkpt>
      <trkpt lat="45.92739" lon="4.73721">
        <ele>173</ele>
        <time>2017-03-27T08:32:18Z</time>
      </trkpt>
      <trkpt lat="45.92745" lon="4.73722">
        <ele>173</ele>
        <time>2017-03-27T08:32:19Z</time>
      </trkpt>
      <trkpt lat="45.9275" lon="4.73724">
        <ele>173</ele>
        <time>2017-03-27T08:32:20Z</time>
      </trkpt>
      <trkpt lat="45.92754" lon="4.73725">
        <ele>172</ele>
        <time>2017-03-27T08:32:21Z</time>
      </trkpt>
      <trkpt lat="45.92763" lon="4.73727">
        <ele>172</ele>
        <time>2017-03-27T08:32:23Z</time>
      </trkpt>
      <trkpt lat="45.92767" lon="4.73729">
        <ele>172</ele>
        <time>2017-03-27T08:32:24Z</time>
      </trkpt>
      <trkpt lat="45.92774" lon="4.73735">
        <ele>172</ele>
        <time>2017-03-27T08:32:26Z</time>
      </trkpt>
      <trkpt lat="45.92777" lon="4.73736">
        <ele>172</ele>
        <time>2017-03-27T08:32:27Z</time>
      </trkpt>
      <trkpt lat="45.92783" lon="4.7373">
        <ele>172</ele>
        <time>2017-03-27T08:32:29Z</time>
      </trkpt>
      <trkpt lat="45.92786" lon="4.73725">
        <ele>172</ele>
        <time>2017-03-27T08:32:30Z</time>
      </trkpt>
      <trkpt lat="45.92787" lon="4.73718">
        <ele>172</ele>
        <time>2017-03-27T08:32:31Z</time>
      </trkpt>
      <trkpt lat="45.92788" lon="4.7371">
        <ele>172</ele>
        <time>2017-03-27T08:32:32Z</time>
      </trkpt>
      <trkpt lat="45.92789" lon="4.73702">
        <ele>172</ele>
        <time>2017-03-27T08:32:33Z</time>
      </trkpt>
      <trkpt lat="45.9279" lon="4.73695">
        <ele>172</ele>
        <time>2017-03-27T08:32:34Z</time>
      </trkpt>
      <trkpt lat="45.92791" lon="4.73687">
        <ele>172</ele>
        <time>2017-03-27T08:32:35Z</time>
      </trkpt>
      <trkpt lat="45.92793" lon="4.7368">
        <ele>172</ele>
        <time>2017-03-27T08:32:36Z</time>
      </trkpt>
      <trkpt lat="45.92795" lon="4.73673">
        <ele>172</ele>
        <time>2017-03-27T08:32:37Z</time>
      </trkpt>
      <trkpt lat="45.92797" lon="4.73666">
        <ele>172</ele>
        <time>2017-03-27T08:32:38Z</time>
      </trkpt>
      <trkpt lat="45.928" lon="4.73659">
        <ele>172</ele>
        <time>2017-03-27T08:32:39Z</time>
      </trkpt>
      <trkpt lat="45.92802" lon="4.73652">
        <ele>172</ele>
        <time>2017-03-27T08:32:40Z</time>
      </trkpt>
      <trkpt lat="45.92804" lon="4.73645">
        <ele>172</ele>
        <time>2017-03-27T08:32:41Z</time>
      </trkpt>
      <trkpt lat="45.92806" lon="4.73639">
        <ele>172</ele>
        <time>2017-03-27T08:32:42Z</time>
      </trkpt>
      <trkpt lat="45.92812" lon="4.73629">
        <ele>172</ele>
        <time>2017-03-27T08:32:44Z</time>
      </trkpt>
      <trkpt lat="45.92814" lon="4.73625">
        <ele>172</ele>
        <time>2017-03-27T08:32:45Z</time>
      </trkpt>
      <trkpt lat="45.92818" lon="4.73613">
        <ele>172</ele>
        <time>2017-03-27T08:32:47Z</time>
      </trkpt>
      <trkpt lat="45.92819" lon="4.73606">
        <ele>171</ele>
        <time>2017-03-27T08:32:48Z</time>
      </trkpt>
      <trkpt lat="45.92819" lon="4.73599">
        <ele>171</ele>
        <time>2017-03-27T08:32:49Z</time>
      </trkpt>
      <trkpt lat="45.9282" lon="4.73592">
        <ele>171</ele>
        <time>2017-03-27T08:32:50Z</time>
      </trkpt>
      <trkpt lat="45.9282" lon="4.73585">
        <ele>171</ele>
        <time>2017-03-27T08:32:51Z</time>
      </trkpt>
      <trkpt lat="45.9282" lon="4.73578">
        <ele>171</ele>
        <time>2017-03-27T08:32:52Z</time>
      </trkpt>
      <trkpt lat="45.92821" lon="4.7357">
        <ele>171</ele>
        <time>2017-03-27T08:32:53Z</time>
      </trkpt>
      <trkpt lat="45.92821" lon="4.73563">
        <ele>171</ele>
        <time>2017-03-27T08:32:54Z</time>
      </trkpt>
      <trkpt lat="45.92823" lon="4.73557">
        <ele>171</ele>
        <time>2017-03-27T08:32:55Z</time>
      </trkpt>
      <trkpt lat="45.92823" lon="4.73549">
        <ele>171</ele>
        <time>2017-03-27T08:32:56Z</time>
      </trkpt>
      <trkpt lat="45.92824" lon="4.73542">
        <ele>171</ele>
        <time>2017-03-27T08:32:57Z</time>
      </trkpt>
      <trkpt lat="45.92825" lon="4.73535">
        <ele>172</ele>
        <time>2017-03-27T08:32:58Z</time>
      </trkpt>
      <trkpt lat="45.92826" lon="4.73527">
        <ele>172</ele>
        <time>2017-03-27T08:32:59Z</time>
      </trkpt>
      <trkpt lat="45.92826" lon="4.7352">
        <ele>172</ele>
        <time>2017-03-27T08:33:00Z</time>
      </trkpt>
      <trkpt lat="45.92827" lon="4.73512">
        <ele>172</ele>
        <time>2017-03-27T08:33:01Z</time>
      </trkpt>
      <trkpt lat="45.92827" lon="4.73505">
        <ele>172</ele>
        <time>2017-03-27T08:33:02Z</time>
      </trkpt>
      <trkpt lat="45.92828" lon="4.73497">
        <ele>172</ele>
        <time>2017-03-27T08:33:03Z</time>
      </trkpt>
      <trkpt lat="45.92829" lon="4.7349">
        <ele>172</ele>
        <time>2017-03-27T08:33:04Z</time>
      </trkpt>
      <trkpt lat="45.9283" lon="4.73483">
        <ele>172</ele>
        <time>2017-03-27T08:33:05Z</time>
      </trkpt>
      <trkpt lat="45.92831" lon="4.73475">
        <ele>172</ele>
        <time>2017-03-27T08:33:06Z</time>
      </trkpt>
      <trkpt lat="45.92832" lon="4.73467">
        <ele>172</ele>
        <time>2017-03-27T08:33:07Z</time>
      </trkpt>
      <trkpt lat="45.92832" lon="4.7346">
        <ele>172</ele>
        <time>2017-03-27T08:33:08Z</time>
      </trkpt>
      <trkpt lat="45.92833" lon="4.73452">
        <ele>172</ele>
        <time>2017-03-27T08:33:09Z</time>
      </trkpt>
      <trkpt lat="45.92834" lon="4.73444">
        <ele>172</ele>
        <time>2017-03-27T08:33:10Z</time>
      </trkpt>
      <trkpt lat="45.92834" lon="4.73436">
        <ele>172</ele>
        <time>2017-03-27T08:33:11Z</time>
      </trkpt>
      <trkpt lat="45.92835" lon="4.73428">
        <ele>172</ele>
        <time>2017-03-27T08:33:12Z</time>
      </trkpt>
      <trkpt lat="45.92836" lon="4.7342">
        <ele>172</ele>
        <time>2017-03-27T08:33:13Z</time>
      </trkpt>
      <trkpt lat="45.92838" lon="4.73412">
        <ele>172</ele>
        <time>2017-03-27T08:33:14Z</time>
      </trkpt>
      <trkpt lat="45.92839" lon="4.73404">
        <ele>172</ele>
        <time>2017-03-27T08:33:15Z</time>
      </trkpt>
      <trkpt lat="45.92839" lon="4.73396">
        <ele>172</ele>
        <time>2017-03-27T08:33:16Z</time>
      </trkpt>
      <trkpt lat="45.92841" lon="4.73388">
        <ele>172</ele>
        <time>2017-03-27T08:33:17Z</time>
      </trkpt>
      <trkpt lat="45.92842" lon="4.7338">
        <ele>172</ele>
        <time>2017-03-27T08:33:18Z</time>
      </trkpt>
      <trkpt lat="45.92843" lon="4.73372">
        <ele>171</ele>
        <time>2017-03-27T08:33:19Z</time>
      </trkpt>
      <trkpt lat="45.92845" lon="4.73365">
        <ele>171</ele>
        <time>2017-03-27T08:33:20Z</time>
      </trkpt>
      <trkpt lat="45.92846" lon="4.73357">
        <ele>171</ele>
        <time>2017-03-27T08:33:21Z</time>
      </trkpt>
      <trkpt lat="45.92847" lon="4.73349">
        <ele>171</ele>
        <time>2017-03-27T08:33:22Z</time>
      </trkpt>
      <trkpt lat="45.92848" lon="4.73342">
        <ele>171</ele>
        <time>2017-03-27T08:33:23Z</time>
      </trkpt>
      <trkpt lat="45.92849" lon="4.73334">
        <ele>171</ele>
        <time>2017-03-27T08:33:24Z</time>
      </trkpt>
      <trkpt lat="45.9285" lon="4.73325">
        <ele>171</ele>
        <time>2017-03-27T08:33:25Z</time>
      </trkpt>
      <trkpt lat="45.9285" lon="4.73318">
        <ele>171</ele>
        <time>2017-03-27T08:33:26Z</time>
      </trkpt>
      <trkpt lat="45.92851" lon="4.7331">
        <ele>171</ele>
        <time>2017-03-27T08:33:27Z</time>
      </trkpt>
      <trkpt lat="45.92851" lon="4.73302">
        <ele>171</ele>
        <time>2017-03-27T08:33:28Z</time>
      </trkpt>
      <trkpt lat="45.92852" lon="4.73294">
        <ele>171</ele>
        <time>2017-03-27T08:33:29Z</time>
      </trkpt>
      <trkpt lat="45.92853" lon="4.73286">
        <ele>171</ele>
        <time>2017-03-27T08:33:30Z</time>
      </trkpt>
      <trkpt lat="45.92854" lon="4.73277">
        <ele>171</ele>
        <time>2017-03-27T08:33:31Z</time>
      </trkpt>
      <trkpt lat="45.92855" lon="4.73269">
        <ele>171</ele>
        <time>2017-03-27T08:33:32Z</time>
      </trkpt>
      <trkpt lat="45.92856" lon="4.73261">
        <ele>171</ele>
        <time>2017-03-27T08:33:33Z</time>
      </trkpt>
      <trkpt lat="45.92857" lon="4.73252">
        <ele>171</ele>
        <time>2017-03-27T08:33:34Z</time>
      </trkpt>
      <trkpt lat="45.92859" lon="4.73244">
        <ele>171</ele>
        <time>2017-03-27T08:33:35Z</time>
      </trkpt>
      <trkpt lat="45.9286" lon="4.73236">
        <ele>171</ele>
        <time>2017-03-27T08:33:36Z</time>
      </trkpt>
      <trkpt lat="45.92862" lon="4.73227">
        <ele>171</ele>
        <time>2017-03-27T08:33:37Z</time>
      </trkpt>
      <trkpt lat="45.92863" lon="4.73218">
        <ele>171</ele>
        <time>2017-03-27T08:33:38Z</time>
      </trkpt>
      <trkpt lat="45.92864" lon="4.73209">
        <ele>171</ele>
        <time>2017-03-27T08:33:39Z</time>
      </trkpt>
      <trkpt lat="45.92864" lon="4.73201">
        <ele>171</ele>
        <time>2017-03-27T08:33:40Z</time>
      </trkpt>
      <trkpt lat="45.92865" lon="4.73192">
        <ele>171</ele>
        <time>2017-03-27T08:33:41Z</time>
      </trkpt>
      <trkpt lat="45.92866" lon="4.73184">
        <ele>171</ele>
        <time>2017-03-27T08:33:42Z</time>
      </trkpt>
      <trkpt lat="45.92867" lon="4.73175">
        <ele>171</ele>
        <time>2017-03-27T08:33:43Z</time>
      </trkpt>
      <trkpt lat="45.92868" lon="4.73167">
        <ele>171</ele>
        <time>2017-03-27T08:33:44Z</time>
      </trkpt>
      <trkpt lat="45.92869" lon="4.73159">
        <ele>171</ele>
        <time>2017-03-27T08:33:45Z</time>
      </trkpt>
      <trkpt lat="45.92871" lon="4.7315">
        <ele>171</ele>
        <time>2017-03-27T08:33:46Z</time>
      </trkpt>
      <trkpt lat="45.92871" lon="4.73142">
        <ele>171</ele>
        <time>2017-03-27T08:33:47Z</time>
      </trkpt>
      <trkpt lat="45.92873" lon="4.73134">
        <ele>171</ele>
        <time>2017-03-27T08:33:48Z</time>
      </trkpt>
      <trkpt lat="45.92874" lon="4.73125">
        <ele>171</ele>
        <time>2017-03-27T08:33:49Z</time>
      </trkpt>
      <trkpt lat="45.92876" lon="4.73117">
        <ele>172</ele>
        <time>2017-03-27T08:33:50Z</time>
      </trkpt>
      <trkpt lat="45.92878" lon="4.73109">
        <ele>172</ele>
        <time>2017-03-27T08:33:51Z</time>
      </trkpt>
      <trkpt lat="45.9288" lon="4.73101">
        <ele>172</ele>
        <time>2017-03-27T08:33:52Z</time>
      </trkpt>
      <trkpt lat="45.92883" lon="4.73094">
        <ele>172</ele>
        <time>2017-03-27T08:33:53Z</time>
      </trkpt>
      <trkpt lat="45.92885" lon="4.73087">
        <ele>172</ele>
        <time>2017-03-27T08:33:54Z</time>
      </trkpt>
      <trkpt lat="45.92888" lon="4.7308">
        <ele>172</ele>
        <time>2017-03-27T08:33:55Z</time>
      </trkpt>
      <trkpt lat="45.92891" lon="4.73073">
        <ele>172</ele>
        <time>2017-03-27T08:33:56Z</time>
      </trkpt>
      <trkpt lat="45.92894" lon="4.73065">
        <ele>172</ele>
        <time>2017-03-27T08:33:57Z</time>
      </trkpt>
      <trkpt lat="45.92898" lon="4.73059">
        <ele>172</ele>
        <time>2017-03-27T08:33:58Z</time>
      </trkpt>
      <trkpt lat="45.92902" lon="4.73053">
        <ele>172</ele>
        <time>2017-03-27T08:33:59Z</time>
      </trkpt>
      <trkpt lat="45.92906" lon="4.73047">
        <ele>172</ele>
        <time>2017-03-27T08:34:00Z</time>
      </trkpt>
      <trkpt lat="45.9291" lon="4.73042">
        <ele>172</ele>
        <time>2017-03-27T08:34:01Z</time>
      </trkpt>
      <trkpt lat="45.92914" lon="4.73036">
        <ele>172</ele>
        <time>2017-03-27T08:34:02Z</time>
      </trkpt>
      <trkpt lat="45.92918" lon="4.7303">
        <ele>172</ele>
        <time>2017-03-27T08:34:03Z</time>
      </trkpt>
      <trkpt lat="45.92923" lon="4.73024">
        <ele>171</ele>
        <time>2017-03-27T08:34:04Z</time>
      </trkpt>
      <trkpt lat="45.92927" lon="4.73019">
        <ele>171</ele>
        <time>2017-03-27T08:34:05Z</time>
      </trkpt>
      <trkpt lat="45.92932" lon="4.73013">
        <ele>171</ele>
        <time>2017-03-27T08:34:06Z</time>
      </trkpt>
      <trkpt lat="45.92937" lon="4.73007">
        <ele>171</ele>
        <time>2017-03-27T08:34:07Z</time>
      </trkpt>
      <trkpt lat="45.92941" lon="4.73002">
        <ele>171</ele>
        <time>2017-03-27T08:34:08Z</time>
      </trkpt>
      <trkpt lat="45.92946" lon="4.72997">
        <ele>171</ele>
        <time>2017-03-27T08:34:09Z</time>
      </trkpt>
      <trkpt lat="45.9295" lon="4.72992">
        <ele>171</ele>
        <time>2017-03-27T08:34:10Z</time>
      </trkpt>
      <trkpt lat="45.92954" lon="4.72988">
        <ele>171</ele>
        <time>2017-03-27T08:34:11Z</time>
      </trkpt>
      <trkpt lat="45.92958" lon="4.72983">
        <ele>171</ele>
        <time>2017-03-27T08:34:12Z</time>
      </trkpt>
      <trkpt lat="45.92962" lon="4.72978">
        <ele>171</ele>
        <time>2017-03-27T08:34:13Z</time>
      </trkpt>
      <trkpt lat="45.92966" lon="4.72973">
        <ele>171</ele>
        <time>2017-03-27T08:34:14Z</time>
      </trkpt>
      <trkpt lat="45.9297" lon="4.72968">
        <ele>171</ele>
        <time>2017-03-27T08:34:15Z</time>
      </trkpt>
      <trkpt lat="45.92974" lon="4.72963">
        <ele>171</ele>
        <time>2017-03-27T08:34:16Z</time>
      </trkpt>
      <trkpt lat="45.92978" lon="4.72958">
        <ele>171</ele>
        <time>2017-03-27T08:34:17Z</time>
      </trkpt>
      <trkpt lat="45.92983" lon="4.72952">
        <ele>171</ele>
        <time>2017-03-27T08:34:18Z</time>
      </trkpt>
      <trkpt lat="45.92987" lon="4.72947">
        <ele>171</ele>
        <time>2017-03-27T08:34:19Z</time>
      </trkpt>
      <trkpt lat="45.92991" lon="4.72942">
        <ele>171</ele>
        <time>2017-03-27T08:34:20Z</time>
      </trkpt>
      <trkpt lat="45.92995" lon="4.72936">
        <ele>171</ele>
        <time>2017-03-27T08:34:21Z</time>
      </trkpt>
      <trkpt lat="45.92999" lon="4.72931">
        <ele>171</ele>
        <time>2017-03-27T08:34:22Z</time>
      </trkpt>
      <trkpt lat="45.93004" lon="4.72925">
        <ele>170</ele>
        <time>2017-03-27T08:34:23Z</time>
      </trkpt>
      <trkpt lat="45.93008" lon="4.72919">
        <ele>170</ele>
        <time>2017-03-27T08:34:24Z</time>
      </trkpt>
      <trkpt lat="45.93013" lon="4.72913">
        <ele>171</ele>
        <time>2017-03-27T08:34:25Z</time>
      </trkpt>
      <trkpt lat="45.93017" lon="4.72908">
        <ele>171</ele>
        <time>2017-03-27T08:34:26Z</time>
      </trkpt>
      <trkpt lat="45.93022" lon="4.72902">
        <ele>172</ele>
        <time>2017-03-27T08:34:27Z</time>
      </trkpt>
      <trkpt lat="45.93027" lon="4.72896">
        <ele>172</ele>
        <time>2017-03-27T08:34:28Z</time>
      </trkpt>
      <trkpt lat="45.93032" lon="4.72891">
        <ele>172</ele>
        <time>2017-03-27T08:34:29Z</time>
      </trkpt>
      <trkpt lat="45.93037" lon="4.72885">
        <ele>172</ele>
        <time>2017-03-27T08:34:30Z</time>
      </trkpt>
      <trkpt lat="45.93042" lon="4.7288">
        <ele>172</ele>
        <time>2017-03-27T08:34:31Z</time>
      </trkpt>
      <trkpt lat="45.93047" lon="4.72874">
        <ele>172</ele>
        <time>2017-03-27T08:34:32Z</time>
      </trkpt>
      <trkpt lat="45.93051" lon="4.72869">
        <ele>172</ele>
        <time>2017-03-27T08:34:33Z</time>
      </trkpt>
      <trkpt lat="45.93056" lon="4.72864">
        <ele>172</ele>
        <time>2017-03-27T08:34:34Z</time>
      </trkpt>
      <trkpt lat="45.9306" lon="4.72858">
        <ele>172</ele>
        <time>2017-03-27T08:34:35Z</time>
      </trkpt>
      <trkpt lat="45.93064" lon="4.72852">
        <ele>172</ele>
        <time>2017-03-27T08:34:36Z</time>
      </trkpt>
      <trkpt lat="45.93068" lon="4.72848">
        <ele>172</ele>
        <time>2017-03-27T08:34:37Z</time>
      </trkpt>
      <trkpt lat="45.93072" lon="4.72843">
        <ele>173</ele>
        <time>2017-03-27T08:34:38Z</time>
      </trkpt>
      <trkpt lat="45.93076" lon="4.72838">
        <ele>173</ele>
        <time>2017-03-27T08:34:39Z</time>
      </trkpt>
      <trkpt lat="45.93081" lon="4.72835">
        <ele>173</ele>
        <time>2017-03-27T08:34:40Z</time>
      </trkpt>
      <trkpt lat="45.93086" lon="4.72831">
        <ele>173</ele>
        <time>2017-03-27T08:34:41Z</time>
      </trkpt>
      <trkpt lat="45.9309" lon="4.72826">
        <ele>172</ele>
        <time>2017-03-27T08:34:42Z</time>
      </trkpt>
      <trkpt lat="45.93094" lon="4.72821">
        <ele>172</ele>
        <time>2017-03-27T08:34:43Z</time>
      </trkpt>
      <trkpt lat="45.93098" lon="4.72817">
        <ele>172</ele>
        <time>2017-03-27T08:34:44Z</time>
      </trkpt>
      <trkpt lat="45.93103" lon="4.72812">
        <ele>172</ele>
        <time>2017-03-27T08:34:45Z</time>
      </trkpt>
      <trkpt lat="45.93108" lon="4.72807">
        <ele>171</ele>
        <time>2017-03-27T08:34:46Z</time>
      </trkpt>
      <trkpt lat="45.93112" lon="4.72801">
        <ele>171</ele>
        <time>2017-03-27T08:34:47Z</time>
      </trkpt>
      <trkpt lat="45.93117" lon="4.72795">
        <ele>171</ele>
        <time>2017-03-27T08:34:48Z</time>
      </trkpt>
      <trkpt lat="45.93121" lon="4.7279">
        <ele>171</ele>
        <time>2017-03-27T08:34:49Z</time>
      </trkpt>
      <trkpt lat="45.93126" lon="4.72785">
        <ele>171</ele>
        <time>2017-03-27T08:34:50Z</time>
      </trkpt>
      <trkpt lat="45.9313" lon="4.7278">
        <ele>171</ele>
        <time>2017-03-27T08:34:51Z</time>
      </trkpt>
      <trkpt lat="45.93134" lon="4.72775">
        <ele>171</ele>
        <time>2017-03-27T08:34:52Z</time>
      </trkpt>
      <trkpt lat="45.93139" lon="4.7277">
        <ele>171</ele>
        <time>2017-03-27T08:34:53Z</time>
      </trkpt>
      <trkpt lat="45.93143" lon="4.72764">
        <ele>171</ele>
        <time>2017-03-27T08:34:54Z</time>
      </trkpt>
      <trkpt lat="45.93148" lon="4.72759">
        <ele>170</ele>
        <time>2017-03-27T08:34:55Z</time>
      </trkpt>
      <trkpt lat="45.93153" lon="4.72754">
        <ele>170</ele>
        <time>2017-03-27T08:34:56Z</time>
      </trkpt>
      <trkpt lat="45.93157" lon="4.72749">
        <ele>170</ele>
        <time>2017-03-27T08:34:57Z</time>
      </trkpt>
      <trkpt lat="45.93161" lon="4.72744">
        <ele>170</ele>
        <time>2017-03-27T08:34:58Z</time>
      </trkpt>
      <trkpt lat="45.93166" lon="4.72738">
        <ele>170</ele>
        <time>2017-03-27T08:34:59Z</time>
      </trkpt>
      <trkpt lat="45.9317" lon="4.72732">
        <ele>170</ele>
        <time>2017-03-27T08:35:00Z</time>
      </trkpt>
      <trkpt lat="45.93174" lon="4.72727">
        <ele>170</ele>
        <time>2017-03-27T08:35:01Z</time>
      </trkpt>
      <trkpt lat="45.93178" lon="4.72722">
        <ele>170</ele>
        <time>2017-03-27T08:35:02Z</time>
      </trkpt>
      <trkpt lat="45.93182" lon="4.72716">
        <ele>169</ele>
        <time>2017-03-27T08:35:03Z</time>
      </trkpt>
      <trkpt lat="45.93187" lon="4.72711">
        <ele>169</ele>
        <time>2017-03-27T08:35:04Z</time>
      </trkpt>
      <trkpt lat="45.93191" lon="4.72707">
        <ele>169</ele>
        <time>2017-03-27T08:35:05Z</time>
      </trkpt>
      <trkpt lat="45.93195" lon="4.72702">
        <ele>169</ele>
        <time>2017-03-27T08:35:06Z</time>
      </trkpt>
      <trkpt lat="45.93199" lon="4.72698">
        <ele>169</ele>
        <time>2017-03-27T08:35:07Z</time>
      </trkpt>
      <trkpt lat="45.93202" lon="4.72693">
        <ele>169</ele>
        <time>2017-03-27T08:35:08Z</time>
      </trkpt>
      <trkpt lat="45.93205" lon="4.72688">
        <ele>169</ele>
        <time>2017-03-27T08:35:09Z</time>
      </trkpt>
      <trkpt lat="45.93209" lon="4.72684">
        <ele>169</ele>
        <time>2017-03-27T08:35:10Z</time>
      </trkpt>
      <trkpt lat="45.93213" lon="4.72679">
        <ele>169</ele>
        <time>2017-03-27T08:35:11Z</time>
      </trkpt>
      <trkpt lat="45.93217" lon="4.72675">
        <ele>169</ele>
        <time>2017-03-27T08:35:12Z</time>
      </trkpt>
      <trkpt lat="45.93222" lon="4.7267">
        <ele>169</ele>
        <time>2017-03-27T08:35:13Z</time>
      </trkpt>
      <trkpt lat="45.93226" lon="4.72665">
        <ele>170</ele>
        <time>2017-03-27T08:35:14Z</time>
      </trkpt>
      <trkpt lat="45.93231" lon="4.72659">
        <ele>169</ele>
        <time>2017-03-27T08:35:15Z</time>
      </trkpt>
      <trkpt lat="45.93235" lon="4.72654">
        <ele>169</ele>
        <time>2017-03-27T08:35:16Z</time>
      </trkpt>
      <trkpt lat="45.9324" lon="4.72649">
        <ele>169</ele>
        <time>2017-03-27T08:35:17Z</time>
      </trkpt>
      <trkpt lat="45.93244" lon="4.72644">
        <ele>170</ele>
        <time>2017-03-27T08:35:18Z</time>
      </trkpt>
      <trkpt lat="45.93248" lon="4.72638">
        <ele>170</ele>
        <time>2017-03-27T08:35:19Z</time>
      </trkpt>
      <trkpt lat="45.93253" lon="4.72632">
        <ele>170</ele>
        <time>2017-03-27T08:35:20Z</time>
      </trkpt>
      <trkpt lat="45.93258" lon="4.72627">
        <ele>170</ele>
        <time>2017-03-27T08:35:21Z</time>
      </trkpt>
      <trkpt lat="45.93263" lon="4.72622">
        <ele>170</ele>
        <time>2017-03-27T08:35:22Z</time>
      </trkpt>
      <trkpt lat="45.93267" lon="4.72617">
        <ele>170</ele>
        <time>2017-03-27T08:35:23Z</time>
      </trkpt>
      <trkpt lat="45.93272" lon="4.72612">
        <ele>170</ele>
        <time>2017-03-27T08:35:24Z</time>
      </trkpt>
      <trkpt lat="45.93276" lon="4.72607">
        <ele>170</ele>
        <time>2017-03-27T08:35:25Z</time>
      </trkpt>
      <trkpt lat="45.93281" lon="4.72602">
        <ele>170</ele>
        <time>2017-03-27T08:35:26Z</time>
      </trkpt>
      <trkpt lat="45.93285" lon="4.72596">
        <ele>170</ele>
        <time>2017-03-27T08:35:27Z</time>
      </trkpt>
      <trkpt lat="45.9329" lon="4.72591">
        <ele>170</ele>
        <time>2017-03-27T08:35:28Z</time>
      </trkpt>
      <trkpt lat="45.93294" lon="4.72586">
        <ele>170</ele>
        <time>2017-03-27T08:35:29Z</time>
      </trkpt>
      <trkpt lat="45.93298" lon="4.72581">
        <ele>171</ele>
        <time>2017-03-27T08:35:30Z</time>
      </trkpt>
      <trkpt lat="45.93303" lon="4.72576">
        <ele>171</ele>
        <time>2017-03-27T08:35:31Z</time>
      </trkpt>
      <trkpt lat="45.93308" lon="4.72571">
        <ele>171</ele>
        <time>2017-03-27T08:35:32Z</time>
      </trkpt>
      <trkpt lat="45.93312" lon="4.72565">
        <ele>171</ele>
        <time>2017-03-27T08:35:33Z</time>
      </trkpt>
      <trkpt lat="45.93317" lon="4.7256">
        <ele>171</ele>
        <time>2017-03-27T08:35:34Z</time>
      </trkpt>
      <trkpt lat="45.93321" lon="4.72554">
        <ele>172</ele>
        <time>2017-03-27T08:35:35Z</time>
      </trkpt>
      <trkpt lat="45.93326" lon="4.72549">
        <ele>172</ele>
        <time>2017-03-27T08:35:36Z</time>
      </trkpt>
      <trkpt lat="45.9333" lon="4.72543">
        <ele>172</ele>
        <time>2017-03-27T08:35:37Z</time>
      </trkpt>
      <trkpt lat="45.93334" lon="4.72538">
        <ele>171</ele>
        <time>2017-03-27T08:35:38Z</time>
      </trkpt>
      <trkpt lat="45.93339" lon="4.72533">
        <ele>172</ele>
        <time>2017-03-27T08:35:39Z</time>
      </trkpt>
      <trkpt lat="45.93343" lon="4.72527">
        <ele>172</ele>
        <time>2017-03-27T08:35:40Z</time>
      </trkpt>
      <trkpt lat="45.93348" lon="4.72522">
        <ele>172</ele>
        <time>2017-03-27T08:35:41Z</time>
      </trkpt>
      <trkpt lat="45.93352" lon="4.72517">
        <ele>172</ele>
        <time>2017-03-27T08:35:42Z</time>
      </trkpt>
      <trkpt lat="45.93357" lon="4.72511">
        <ele>172</ele>
        <time>2017-03-27T08:35:43Z</time>
      </trkpt>
      <trkpt lat="45.93361" lon="4.72506">
        <ele>172</ele>
        <time>2017-03-27T08:35:44Z</time>
      </trkpt>
      <trkpt lat="45.93366" lon="4.72501">
        <ele>172</ele>
        <time>2017-03-27T08:35:45Z</time>
      </trkpt>
      <trkpt lat="45.9337" lon="4.72496">
        <ele>173</ele>
        <time>2017-03-27T08:35:46Z</time>
      </trkpt>
      <trkpt lat="45.93374" lon="4.72492">
        <ele>173</ele>
        <time>2017-03-27T08:35:47Z</time>
      </trkpt>
      <trkpt lat="45.93378" lon="4.72487">
        <ele>173</ele>
        <time>2017-03-27T08:35:48Z</time>
      </trkpt>
      <trkpt lat="45.93382" lon="4.72483">
        <ele>173</ele>
        <time>2017-03-27T08:35:49Z</time>
      </trkpt>
      <trkpt lat="45.93386" lon="4.72478">
        <ele>173</ele>
        <time>2017-03-27T08:35:50Z</time>
      </trkpt>
      <trkpt lat="45.93389" lon="4.72473">
        <ele>173</ele>
        <time>2017-03-27T08:35:51Z</time>
      </trkpt>
      <trkpt lat="45.93393" lon="4.72468">
        <ele>173</ele>
        <time>2017-03-27T08:35:52Z</time>
      </trkpt>
      <trkpt lat="45.93397" lon="4.72457">
        <ele>173</ele>
        <time>2017-03-27T08:35:54Z</time>
      </trkpt>
      <trkpt lat="45.93398" lon="4.72451">
        <ele>173</ele>
        <time>2017-03-27T08:35:55Z</time>
      </trkpt>
      <trkpt lat="45.934" lon="4.72444">
        <ele>173</ele>
        <time>2017-03-27T08:35:56Z</time>
      </trkpt>
      <trkpt lat="45.93402" lon="4.72438">
        <ele>173</ele>
        <time>2017-03-27T08:35:57Z</time>
      </trkpt>
      <trkpt lat="45.93405" lon="4.72432">
        <ele>173</ele>
        <time>2017-03-27T08:35:58Z</time>
      </trkpt>
      <trkpt lat="45.93408" lon="4.72427">
        <ele>174</ele>
        <time>2017-03-27T08:35:59Z</time>
      </trkpt>
      <trkpt lat="45.93412" lon="4.72422">
        <ele>174</ele>
        <time>2017-03-27T08:36:00Z</time>
      </trkpt>
      <trkpt lat="45.93417" lon="4.72418">
        <ele>174</ele>
        <time>2017-03-27T08:36:01Z</time>
      </trkpt>
      <trkpt lat="45.93422" lon="4.72415">
        <ele>174</ele>
        <time>2017-03-27T08:36:02Z</time>
      </trkpt>
      <trkpt lat="45.93426" lon="4.72413">
        <ele>174</ele>
        <time>2017-03-27T08:36:03Z</time>
      </trkpt>
      <trkpt lat="45.93431" lon="4.7241">
        <ele>174</ele>
        <time>2017-03-27T08:36:04Z</time>
      </trkpt>
      <trkpt lat="45.93437" lon="4.72408">
        <ele>174</ele>
        <time>2017-03-27T08:36:05Z</time>
      </trkpt>
      <trkpt lat="45.93442" lon="4.72404">
        <ele>173</ele>
        <time>2017-03-27T08:36:06Z</time>
      </trkpt>
      <trkpt lat="45.93447" lon="4.72401">
        <ele>173</ele>
        <time>2017-03-27T08:36:07Z</time>
      </trkpt>
      <trkpt lat="45.93452" lon="4.72397">
        <ele>173</ele>
        <time>2017-03-27T08:36:08Z</time>
      </trkpt>
      <trkpt lat="45.93457" lon="4.72393">
        <ele>173</ele>
        <time>2017-03-27T08:36:09Z</time>
      </trkpt>
      <trkpt lat="45.93461" lon="4.72388">
        <ele>173</ele>
        <time>2017-03-27T08:36:10Z</time>
      </trkpt>
      <trkpt lat="45.93466" lon="4.72383">
        <ele>173</ele>
        <time>2017-03-27T08:36:11Z</time>
      </trkpt>
      <trkpt lat="45.9347" lon="4.72377">
        <ele>173</ele>
        <time>2017-03-27T08:36:12Z</time>
      </trkpt>
      <trkpt lat="45.93473" lon="4.72371">
        <ele>173</ele>
        <time>2017-03-27T08:36:13Z</time>
      </trkpt>
      <trkpt lat="45.93477" lon="4.72365">
        <ele>173</ele>
        <time>2017-03-27T08:36:14Z</time>
      </trkpt>
      <trkpt lat="45.93481" lon="4.7236">
        <ele>173</ele>
        <time>2017-03-27T08:36:15Z</time>
      </trkpt>
      <trkpt lat="45.93485" lon="4.72355">
        <ele>173</ele>
        <time>2017-03-27T08:36:16Z</time>
      </trkpt>
      <trkpt lat="45.9349" lon="4.7235">
        <ele>173</ele>
        <time>2017-03-27T08:36:17Z</time>
      </trkpt>
      <trkpt lat="45.93494" lon="4.72344">
        <ele>173</ele>
        <time>2017-03-27T08:36:18Z</time>
      </trkpt>
      <trkpt lat="45.93498" lon="4.72339">
        <ele>173</ele>
        <time>2017-03-27T08:36:19Z</time>
      </trkpt>
      <trkpt lat="45.93503" lon="4.72334">
        <ele>173</ele>
        <time>2017-03-27T08:36:20Z</time>
      </trkpt>
      <trkpt lat="45.93507" lon="4.72329">
        <ele>173</ele>
        <time>2017-03-27T08:36:21Z</time>
      </trkpt>
      <trkpt lat="45.9351" lon="4.72324">
        <ele>173</ele>
        <time>2017-03-27T08:36:22Z</time>
      </trkpt>
      <trkpt lat="45.93514" lon="4.72318">
        <ele>173</ele>
        <time>2017-03-27T08:36:23Z</time>
      </trkpt>
      <trkpt lat="45.93517" lon="4.72312">
        <ele>173</ele>
        <time>2017-03-27T08:36:24Z</time>
      </trkpt>
      <trkpt lat="45.9352" lon="4.72307">
        <ele>173</ele>
        <time>2017-03-27T08:36:25Z</time>
      </trkpt>
      <trkpt lat="45.93523" lon="4.72301">
        <ele>172</ele>
        <time>2017-03-27T08:36:26Z</time>
      </trkpt>
      <trkpt lat="45.93525" lon="4.72296">
        <ele>172</ele>
        <time>2017-03-27T08:36:27Z</time>
      </trkpt>
      <trkpt lat="45.9353" lon="4.72286">
        <ele>172</ele>
        <time>2017-03-27T08:36:29Z</time>
      </trkpt>
      <trkpt lat="45.93532" lon="4.72281">
        <ele>172</ele>
        <time>2017-03-27T08:36:30Z</time>
      </trkpt>
      <trkpt lat="45.93536" lon="4.72271">
        <ele>172</ele>
        <time>2017-03-27T08:36:33Z</time>
      </trkpt>
      <trkpt lat="45.93537" lon="4.72269">
        <ele>172</ele>
        <time>2017-03-27T08:36:34Z</time>
      </trkpt>
      <trkpt lat="45.93542" lon="4.72259">
        <ele>172</ele>
        <time>2017-03-27T08:36:38Z</time>
      </trkpt>
      <trkpt lat="45.93542" lon="4.72258">
        <ele>172</ele>
        <time>2017-03-27T08:36:39Z</time>
      </trkpt>
      <trkpt lat="45.93542" lon="4.72257">
        <ele>172</ele>
        <time>2017-03-27T08:37:37Z</time>
      </trkpt>
      <trkpt lat="45.93544" lon="4.72255">
        <ele>172</ele>
        <time>2017-03-27T08:37:38Z</time>
      </trkpt>
      <trkpt lat="45.93548" lon="4.72245">
        <ele>172</ele>
        <time>2017-03-27T08:37:42Z</time>
      </trkpt>
      <trkpt lat="45.9355" lon="4.72242">
        <ele>172</ele>
        <time>2017-03-27T08:37:43Z</time>
      </trkpt>
      <trkpt lat="45.93555" lon="4.72233">
        <ele>173</ele>
        <time>2017-03-27T08:37:46Z</time>
      </trkpt>
      <trkpt lat="45.93558" lon="4.72231">
        <ele>173</ele>
        <time>2017-03-27T08:37:47Z</time>
      </trkpt>
      <trkpt lat="45.93566" lon="4.7223">
        <ele>173</ele>
        <time>2017-03-27T08:37:49Z</time>
      </trkpt>
      <trkpt lat="45.9357" lon="4.72232">
        <ele>173</ele>
        <time>2017-03-27T08:37:50Z</time>
      </trkpt>
      <trkpt lat="45.93577" lon="4.72238">
        <ele>173</ele>
        <time>2017-03-27T08:37:52Z</time>
      </trkpt>
      <trkpt lat="45.93581" lon="4.72242">
        <ele>173</ele>
        <time>2017-03-27T08:37:53Z</time>
      </trkpt>
      <trkpt lat="45.93588" lon="4.72248">
        <ele>173</ele>
        <time>2017-03-27T08:37:55Z</time>
      </trkpt>
      <trkpt lat="45.93592" lon="4.72251">
        <ele>173</ele>
        <time>2017-03-27T08:37:56Z</time>
      </trkpt>
      <trkpt lat="45.93599" lon="4.72258">
        <ele>173</ele>
        <time>2017-03-27T08:37:58Z</time>
      </trkpt>
      <trkpt lat="45.93602" lon="4.72262">
        <ele>173</ele>
        <time>2017-03-27T08:37:59Z</time>
      </trkpt>
      <trkpt lat="45.93607" lon="4.72265">
        <ele>173</ele>
        <time>2017-03-27T08:38:00Z</time>
      </trkpt>
      <trkpt lat="45.93611" lon="4.72269">
        <ele>172</ele>
        <time>2017-03-27T08:38:01Z</time>
      </trkpt>
      <trkpt lat="45.93615" lon="4.72273">
        <ele>172</ele>
        <time>2017-03-27T08:38:02Z</time>
      </trkpt>
      <trkpt lat="45.9362" lon="4.72277">
        <ele>172</ele>
        <time>2017-03-27T08:38:03Z</time>
      </trkpt>
      <trkpt lat="45.93624" lon="4.72282">
        <ele>172</ele>
        <time>2017-03-27T08:38:04Z</time>
      </trkpt>
      <trkpt lat="45.93628" lon="4.72287">
        <ele>172</ele>
        <time>2017-03-27T08:38:05Z</time>
      </trkpt>
      <trkpt lat="45.93632" lon="4.72291">
        <ele>172</ele>
        <time>2017-03-27T08:38:06Z</time>
      </trkpt>
      <trkpt lat="45.93636" lon="4.72296">
        <ele>172</ele>
        <time>2017-03-27T08:38:07Z</time>
      </trkpt>
      <trkpt lat="45.93641" lon="4.723">
        <ele>172</ele>
        <time>2017-03-27T08:38:08Z</time>
      </trkpt>
      <trkpt lat="45.93647" lon="4.72304">
        <ele>172</ele>
        <time>2017-03-27T08:38:09Z</time>
      </trkpt>
      <trkpt lat="45.93651" lon="4.72308">
        <ele>172</ele>
        <time>2017-03-27T08:38:10Z</time>
      </trkpt>
      <trkpt lat="45.93656" lon="4.72313">
        <ele>172</ele>
        <time>2017-03-27T08:38:11Z</time>
      </trkpt>
      <trkpt lat="45.93661" lon="4.72318">
        <ele>172</ele>
        <time>2017-03-27T08:38:12Z</time>
      </trkpt>
      <trkpt lat="45.93666" lon="4.72323">
        <ele>171</ele>
        <time>2017-03-27T08:38:13Z</time>
      </trkpt>
      <trkpt lat="45.93671" lon="4.72327">
        <ele>171</ele>
        <time>2017-03-27T08:38:14Z</time>
      </trkpt>
      <trkpt lat="45.93675" lon="4.72331">
        <ele>171</ele>
        <time>2017-03-27T08:38:15Z</time>
      </trkpt>
      <trkpt lat="45.9368" lon="4.72335">
        <ele>171</ele>
        <time>2017-03-27T08:38:16Z</time>
      </trkpt>
      <trkpt lat="45.93684" lon="4.7234">
        <ele>171</ele>
        <time>2017-03-27T08:38:17Z</time>
      </trkpt>
      <trkpt lat="45.93688" lon="4.72344">
        <ele>171</ele>
        <time>2017-03-27T08:38:18Z</time>
      </trkpt>
      <trkpt lat="45.93692" lon="4.72348">
        <ele>171</ele>
        <time>2017-03-27T08:38:19Z</time>
      </trkpt>
      <trkpt lat="45.93696" lon="4.72351">
        <ele>171</ele>
        <time>2017-03-27T08:38:20Z</time>
      </trkpt>
      <trkpt lat="45.93701" lon="4.72355">
        <ele>171</ele>
        <time>2017-03-27T08:38:21Z</time>
      </trkpt>
      <trkpt lat="45.93705" lon="4.7236">
        <ele>171</ele>
        <time>2017-03-27T08:38:22Z</time>
      </trkpt>
      <trkpt lat="45.93708" lon="4.72365">
        <ele>171</ele>
        <time>2017-03-27T08:38:23Z</time>
      </trkpt>
      <trkpt lat="45.93712" lon="4.7237">
        <ele>172</ele>
        <time>2017-03-27T08:38:24Z</time>
      </trkpt>
      <trkpt lat="45.93716" lon="4.72375">
        <ele>171</ele>
        <time>2017-03-27T08:38:25Z</time>
      </trkpt>
      <trkpt lat="45.9372" lon="4.7238">
        <ele>171</ele>
        <time>2017-03-27T08:38:26Z</time>
      </trkpt>
      <trkpt lat="45.93724" lon="4.72384">
        <ele>171</ele>
        <time>2017-03-27T08:38:27Z</time>
      </trkpt>
      <trkpt lat="45.93728" lon="4.72389">
        <ele>171</ele>
        <time>2017-03-27T08:38:28Z</time>
      </trkpt>
      <trkpt lat="45.93733" lon="4.72394">
        <ele>171</ele>
        <time>2017-03-27T08:38:29Z</time>
      </trkpt>
      <trkpt lat="45.93738" lon="4.72398">
        <ele>171</ele>
        <time>2017-03-27T08:38:30Z</time>
      </trkpt>
      <trkpt lat="45.93742" lon="4.72402">
        <ele>171</ele>
        <time>2017-03-27T08:38:31Z</time>
      </trkpt>
      <trkpt lat="45.93747" lon="4.72407">
        <ele>171</ele>
        <time>2017-03-27T08:38:32Z</time>
      </trkpt>
      <trkpt lat="45.93752" lon="4.72411">
        <ele>171</ele>
        <time>2017-03-27T08:38:33Z</time>
      </trkpt>
      <trkpt lat="45.93757" lon="4.72416">
        <ele>171</ele>
        <time>2017-03-27T08:38:34Z</time>
      </trkpt>
      <trkpt lat="45.93761" lon="4.7242">
        <ele>171</ele>
        <time>2017-03-27T08:38:35Z</time>
      </trkpt>
      <trkpt lat="45.93766" lon="4.72425">
        <ele>171</ele>
        <time>2017-03-27T08:38:36Z</time>
      </trkpt>
      <trkpt lat="45.93771" lon="4.7243">
        <ele>171</ele>
        <time>2017-03-27T08:38:37Z</time>
      </trkpt>
      <trkpt lat="45.93776" lon="4.72434">
        <ele>171</ele>
        <time>2017-03-27T08:38:38Z</time>
      </trkpt>
      <trkpt lat="45.93781" lon="4.72439">
        <ele>172</ele>
        <time>2017-03-27T08:38:39Z</time>
      </trkpt>
      <trkpt lat="45.93787" lon="4.72444">
        <ele>172</ele>
        <time>2017-03-27T08:38:40Z</time>
      </trkpt>
      <trkpt lat="45.93792" lon="4.72448">
        <ele>172</ele>
        <time>2017-03-27T08:38:41Z</time>
      </trkpt>
      <trkpt lat="45.93797" lon="4.72453">
        <ele>172</ele>
        <time>2017-03-27T08:38:42Z</time>
      </trkpt>
      <trkpt lat="45.93801" lon="4.72458">
        <ele>172</ele>
        <time>2017-03-27T08:38:43Z</time>
      </trkpt>
      <trkpt lat="45.93805" lon="4.72462">
        <ele>172</ele>
        <time>2017-03-27T08:38:44Z</time>
      </trkpt>
      <trkpt lat="45.9381" lon="4.72468">
        <ele>172</ele>
        <time>2017-03-27T08:38:45Z</time>
      </trkpt>
      <trkpt lat="45.93815" lon="4.72473">
        <ele>172</ele>
        <time>2017-03-27T08:38:46Z</time>
      </trkpt>
      <trkpt lat="45.93819" lon="4.72477">
        <ele>172</ele>
        <time>2017-03-27T08:38:47Z</time>
      </trkpt>
      <trkpt lat="45.93823" lon="4.72481">
        <ele>173</ele>
        <time>2017-03-27T08:38:48Z</time>
      </trkpt>
      <trkpt lat="45.93827" lon="4.72485">
        <ele>173</ele>
        <time>2017-03-27T08:38:49Z</time>
      </trkpt>
      <trkpt lat="45.93831" lon="4.72488">
        <ele>173</ele>
        <time>2017-03-27T08:38:50Z</time>
      </trkpt>
      <trkpt lat="45.93835" lon="4.72492">
        <ele>173</ele>
        <time>2017-03-27T08:38:51Z</time>
      </trkpt>
      <trkpt lat="45.93842" lon="4.725">
        <ele>173</ele>
        <time>2017-03-27T08:38:53Z</time>
      </trkpt>
      <trkpt lat="45.93845" lon="4.72503">
        <ele>174</ele>
        <time>2017-03-27T08:38:54Z</time>
      </trkpt>
      <trkpt lat="45.93848" lon="4.72509">
        <ele>174</ele>
        <time>2017-03-27T08:38:55Z</time>
      </trkpt>
      <trkpt lat="45.93856" lon="4.72517">
        <ele>173</ele>
        <time>2017-03-27T08:38:56Z</time>
      </trkpt>
      <trkpt lat="45.93865" lon="4.72521">
        <ele>173</ele>
        <time>2017-03-27T08:38:57Z</time>
      </trkpt>
      <trkpt lat="45.93871" lon="4.72523">
        <ele>173</ele>
        <time>2017-03-27T08:38:58Z</time>
      </trkpt>
      <trkpt lat="45.93877" lon="4.72522">
        <ele>173</ele>
        <time>2017-03-27T08:38:59Z</time>
      </trkpt>
      <trkpt lat="45.93881" lon="4.72519">
        <ele>173</ele>
        <time>2017-03-27T08:39:00Z</time>
      </trkpt>
      <trkpt lat="45.93886" lon="4.72514">
        <ele>173</ele>
        <time>2017-03-27T08:39:01Z</time>
      </trkpt>
      <trkpt lat="45.9389" lon="4.72509">
        <ele>173</ele>
        <time>2017-03-27T08:39:02Z</time>
      </trkpt>
      <trkpt lat="45.93894" lon="4.72503">
        <ele>172</ele>
        <time>2017-03-27T08:39:03Z</time>
      </trkpt>
      <trkpt lat="45.93898" lon="4.72498">
        <ele>172</ele>
        <time>2017-03-27T08:39:04Z</time>
      </trkpt>
      <trkpt lat="45.93902" lon="4.72493">
        <ele>172</ele>
        <time>2017-03-27T08:39:05Z</time>
      </trkpt>
      <trkpt lat="45.93905" lon="4.72487">
        <ele>172</ele>
        <time>2017-03-27T08:39:06Z</time>
      </trkpt>
      <trkpt lat="45.93909" lon="4.72482">
        <ele>172</ele>
        <time>2017-03-27T08:39:07Z</time>
      </trkpt>
      <trkpt lat="45.93913" lon="4.72476">
        <ele>172</ele>
        <time>2017-03-27T08:39:08Z</time>
      </trkpt>
      <trkpt lat="45.93918" lon="4.7247">
        <ele>171</ele>
        <time>2017-03-27T08:39:09Z</time>
      </trkpt>
      <trkpt lat="45.93922" lon="4.72464">
        <ele>171</ele>
        <time>2017-03-27T08:39:10Z</time>
      </trkpt>
      <trkpt lat="45.93927" lon="4.72459">
        <ele>171</ele>
        <time>2017-03-27T08:39:11Z</time>
      </trkpt>
      <trkpt lat="45.93931" lon="4.72453">
        <ele>171</ele>
        <time>2017-03-27T08:39:12Z</time>
      </trkpt>
      <trkpt lat="45.93936" lon="4.72447">
        <ele>171</ele>
        <time>2017-03-27T08:39:13Z</time>
      </trkpt>
      <trkpt lat="45.93941" lon="4.72442">
        <ele>171</ele>
        <time>2017-03-27T08:39:14Z</time>
      </trkpt>
      <trkpt lat="45.93946" lon="4.72436">
        <ele>171</ele>
        <time>2017-03-27T08:39:15Z</time>
      </trkpt>
      <trkpt lat="45.93951" lon="4.7243">
        <ele>171</ele>
        <time>2017-03-27T08:39:16Z</time>
      </trkpt>
      <trkpt lat="45.93956" lon="4.72424">
        <ele>171</ele>
        <time>2017-03-27T08:39:17Z</time>
      </trkpt>
      <trkpt lat="45.9396" lon="4.72418">
        <ele>171</ele>
        <time>2017-03-27T08:39:18Z</time>
      </trkpt>
      <trkpt lat="45.93965" lon="4.72412">
        <ele>171</ele>
        <time>2017-03-27T08:39:19Z</time>
      </trkpt>
      <trkpt lat="45.93971" lon="4.72407">
        <ele>171</ele>
        <time>2017-03-27T08:39:20Z</time>
      </trkpt>
      <trkpt lat="45.93975" lon="4.72402">
        <ele>171</ele>
        <time>2017-03-27T08:39:21Z</time>
      </trkpt>
      <trkpt lat="45.9398" lon="4.72396">
        <ele>171</ele>
        <time>2017-03-27T08:39:22Z</time>
      </trkpt>
      <trkpt lat="45.93985" lon="4.7239">
        <ele>171</ele>
        <time>2017-03-27T08:39:23Z</time>
      </trkpt>
      <trkpt lat="45.93989" lon="4.72385">
        <ele>171</ele>
        <time>2017-03-27T08:39:24Z</time>
      </trkpt>
      <trkpt lat="45.93994" lon="4.72379">
        <ele>171</ele>
        <time>2017-03-27T08:39:25Z</time>
      </trkpt>
      <trkpt lat="45.93998" lon="4.72374">
        <ele>171</ele>
        <time>2017-03-27T08:39:26Z</time>
      </trkpt>
      <trkpt lat="45.94001" lon="4.72369">
        <ele>171</ele>
        <time>2017-03-27T08:39:27Z</time>
      </trkpt>
      <trkpt lat="45.94005" lon="4.72364">
        <ele>171</ele>
        <time>2017-03-27T08:39:28Z</time>
      </trkpt>
      <trkpt lat="45.94009" lon="4.72359">
        <ele>171</ele>
        <time>2017-03-27T08:39:29Z</time>
      </trkpt>
      <trkpt lat="45.94013" lon="4.72354">
        <ele>171</ele>
        <time>2017-03-27T08:39:30Z</time>
      </trkpt>
      <trkpt lat="45.94018" lon="4.72348">
        <ele>171</ele>
        <time>2017-03-27T08:39:31Z</time>
      </trkpt>
      <trkpt lat="45.94022" lon="4.72343">
        <ele>171</ele>
        <time>2017-03-27T08:39:32Z</time>
      </trkpt>
      <trkpt lat="45.94026" lon="4.72337">
        <ele>171</ele>
        <time>2017-03-27T08:39:33Z</time>
      </trkpt>
      <trkpt lat="45.9403" lon="4.72332">
        <ele>171</ele>
        <time>2017-03-27T08:39:34Z</time>
      </trkpt>
      <trkpt lat="45.94035" lon="4.72327">
        <ele>171</ele>
        <time>2017-03-27T08:39:35Z</time>
      </trkpt>
      <trkpt lat="45.94039" lon="4.72321">
        <ele>171</ele>
        <time>2017-03-27T08:39:36Z</time>
      </trkpt>
      <trkpt lat="45.94043" lon="4.72316">
        <ele>171</ele>
        <time>2017-03-27T08:39:37Z</time>
      </trkpt>
      <trkpt lat="45.94047" lon="4.72311">
        <ele>171</ele>
        <time>2017-03-27T08:39:38Z</time>
      </trkpt>
      <trkpt lat="45.94051" lon="4.72306">
        <ele>171</ele>
        <time>2017-03-27T08:39:39Z</time>
      </trkpt>
      <trkpt lat="45.94055" lon="4.72301">
        <ele>171</ele>
        <time>2017-03-27T08:39:40Z</time>
      </trkpt>
      <trkpt lat="45.94059" lon="4.72296">
        <ele>171</ele>
        <time>2017-03-27T08:39:41Z</time>
      </trkpt>
      <trkpt lat="45.94063" lon="4.72291">
        <ele>171</ele>
        <time>2017-03-27T08:39:42Z</time>
      </trkpt>
      <trkpt lat="45.94067" lon="4.72287">
        <ele>171</ele>
        <time>2017-03-27T08:39:43Z</time>
      </trkpt>
      <trkpt lat="45.94072" lon="4.72283">
        <ele>171</ele>
        <time>2017-03-27T08:39:44Z</time>
      </trkpt>
      <trkpt lat="45.94076" lon="4.7228">
        <ele>171</ele>
        <time>2017-03-27T08:39:45Z</time>
      </trkpt>
      <trkpt lat="45.9408" lon="4.72277">
        <ele>171</ele>
        <time>2017-03-27T08:39:46Z</time>
      </trkpt>
      <trkpt lat="45.94085" lon="4.72275">
        <ele>171</ele>
        <time>2017-03-27T08:39:47Z</time>
      </trkpt>
      <trkpt lat="45.9409" lon="4.72273">
        <ele>171</ele>
        <time>2017-03-27T08:39:48Z</time>
      </trkpt>
      <trkpt lat="45.94095" lon="4.72272">
        <ele>171</ele>
        <time>2017-03-27T08:39:49Z</time>
      </trkpt>
      <trkpt lat="45.941" lon="4.72272">
        <ele>171</ele>
        <time>2017-03-27T08:39:50Z</time>
      </trkpt>
      <trkpt lat="45.94106" lon="4.72273">
        <ele>171</ele>
        <time>2017-03-27T08:39:51Z</time>
      </trkpt>
      <trkpt lat="45.94111" lon="4.72274">
        <ele>171</ele>
        <time>2017-03-27T08:39:52Z</time>
      </trkpt>
      <trkpt lat="45.94116" lon="4.72276">
        <ele>171</ele>
        <time>2017-03-27T08:39:53Z</time>
      </trkpt>
      <trkpt lat="45.94122" lon="4.72277">
        <ele>171</ele>
        <time>2017-03-27T08:39:54Z</time>
      </trkpt>
      <trkpt lat="45.94127" lon="4.7228">
        <ele>171</ele>
        <time>2017-03-27T08:39:55Z</time>
      </trkpt>
      <trkpt lat="45.94132" lon="4.72283">
        <ele>171</ele>
        <time>2017-03-27T08:39:56Z</time>
      </trkpt>
      <trkpt lat="45.94137" lon="4.72285">
        <ele>171</ele>
        <time>2017-03-27T08:39:57Z</time>
      </trkpt>
      <trkpt lat="45.94143" lon="4.72288">
        <ele>171</ele>
        <time>2017-03-27T08:39:58Z</time>
      </trkpt>
      <trkpt lat="45.94148" lon="4.72289">
        <ele>171</ele>
        <time>2017-03-27T08:39:59Z</time>
      </trkpt>
      <trkpt lat="45.94154" lon="4.72291">
        <ele>171</ele>
        <time>2017-03-27T08:40:00Z</time>
      </trkpt>
      <trkpt lat="45.94159" lon="4.72292">
        <ele>171</ele>
        <time>2017-03-27T08:40:01Z</time>
      </trkpt>
      <trkpt lat="45.94165" lon="4.72293">
        <ele>171</ele>
        <time>2017-03-27T08:40:02Z</time>
      </trkpt>
      <trkpt lat="45.9417" lon="4.72294">
        <ele>171</ele>
        <time>2017-03-27T08:40:03Z</time>
      </trkpt>
      <trkpt lat="45.94175" lon="4.72294">
        <ele>171</ele>
        <time>2017-03-27T08:40:04Z</time>
      </trkpt>
      <trkpt lat="45.9418" lon="4.72295">
        <ele>171</ele>
        <time>2017-03-27T08:40:05Z</time>
      </trkpt>
      <trkpt lat="45.94185" lon="4.72295">
        <ele>171</ele>
        <time>2017-03-27T08:40:06Z</time>
      </trkpt>
      <trkpt lat="45.9419" lon="4.72295">
        <ele>171</ele>
        <time>2017-03-27T08:40:07Z</time>
      </trkpt>
      <trkpt lat="45.94195" lon="4.72295">
        <ele>171</ele>
        <time>2017-03-27T08:40:08Z</time>
      </trkpt>
      <trkpt lat="45.94201" lon="4.72295">
        <ele>171</ele>
        <time>2017-03-27T08:40:09Z</time>
      </trkpt>
      <trkpt lat="45.94206" lon="4.72295">
        <ele>171</ele>
        <time>2017-03-27T08:40:10Z</time>
      </trkpt>
      <trkpt lat="45.94211" lon="4.72295">
        <ele>171</ele>
        <time>2017-03-27T08:40:11Z</time>
      </trkpt>
      <trkpt lat="45.94217" lon="4.72294">
        <ele>171</ele>
        <time>2017-03-27T08:40:12Z</time>
      </trkpt>
      <trkpt lat="45.94223" lon="4.72293">
        <ele>171</ele>
        <time>2017-03-27T08:40:13Z</time>
      </trkpt>
      <trkpt lat="45.94228" lon="4.72291">
        <ele>171</ele>
        <time>2017-03-27T08:40:14Z</time>
      </trkpt>
      <trkpt lat="45.94233" lon="4.72289">
        <ele>171</ele>
        <time>2017-03-27T08:40:15Z</time>
      </trkpt>
      <trkpt lat="45.94239" lon="4.72287">
        <ele>171</ele>
        <time>2017-03-27T08:40:16Z</time>
      </trkpt>
      <trkpt lat="45.94244" lon="4.72286">
        <ele>171</ele>
        <time>2017-03-27T08:40:17Z</time>
      </trkpt>
      <trkpt lat="45.94249" lon="4.72283">
        <ele>171</ele>
        <time>2017-03-27T08:40:18Z</time>
      </trkpt>
      <trkpt lat="45.94253" lon="4.72281">
        <ele>171</ele>
        <time>2017-03-27T08:40:19Z</time>
      </trkpt>
      <trkpt lat="45.94258" lon="4.72278">
        <ele>171</ele>
        <time>2017-03-27T08:40:20Z</time>
      </trkpt>
      <trkpt lat="45.94262" lon="4.72276">
        <ele>171</ele>
        <time>2017-03-27T08:40:21Z</time>
      </trkpt>
      <trkpt lat="45.94267" lon="4.72276">
        <ele>171</ele>
        <time>2017-03-27T08:40:22Z</time>
      </trkpt>
      <trkpt lat="45.94272" lon="4.72277">
        <ele>171</ele>
        <time>2017-03-27T08:40:23Z</time>
      </trkpt>
      <trkpt lat="45.94279" lon="4.72282">
        <ele>171</ele>
        <time>2017-03-27T08:40:25Z</time>
      </trkpt>
      <trkpt lat="45.94281" lon="4.72288">
        <ele>171</ele>
        <time>2017-03-27T08:40:26Z</time>
      </trkpt>
      <trkpt lat="45.94282" lon="4.72295">
        <ele>171</ele>
        <time>2017-03-27T08:40:27Z</time>
      </trkpt>
      <trkpt lat="45.94285" lon="4.72301">
        <ele>171</ele>
        <time>2017-03-27T08:40:28Z</time>
      </trkpt>
      <trkpt lat="45.94288" lon="4.72307">
        <ele>171</ele>
        <time>2017-03-27T08:40:29Z</time>
      </trkpt>
      <trkpt lat="45.9429" lon="4.72314">
        <ele>171</ele>
        <time>2017-03-27T08:40:30Z</time>
      </trkpt>
      <trkpt lat="45.94293" lon="4.7232">
        <ele>171</ele>
        <time>2017-03-27T08:40:31Z</time>
      </trkpt>
      <trkpt lat="45.94295" lon="4.72326">
        <ele>171</ele>
        <time>2017-03-27T08:40:32Z</time>
      </trkpt>
      <trkpt lat="45.94298" lon="4.72332">
        <ele>171</ele>
        <time>2017-03-27T08:40:33Z</time>
      </trkpt>
      <trkpt lat="45.94302" lon="4.72339">
        <ele>172</ele>
        <time>2017-03-27T08:40:34Z</time>
      </trkpt>
      <trkpt lat="45.94305" lon="4.72345">
        <ele>172</ele>
        <time>2017-03-27T08:40:35Z</time>
      </trkpt>
      <trkpt lat="45.94308" lon="4.72351">
        <ele>172</ele>
        <time>2017-03-27T08:40:36Z</time>
      </trkpt>
      <trkpt lat="45.94311" lon="4.72358">
        <ele>172</ele>
        <time>2017-03-27T08:40:37Z</time>
      </trkpt>
      <trkpt lat="45.94313" lon="4.72364">
        <ele>172</ele>
        <time>2017-03-27T08:40:38Z</time>
      </trkpt>
      <trkpt lat="45.94316" lon="4.7237">
        <ele>172</ele>
        <time>2017-03-27T08:40:39Z</time>
      </trkpt>
      <trkpt lat="45.94319" lon="4.72376">
        <ele>172</ele>
        <time>2017-03-27T08:40:40Z</time>
      </trkpt>
      <trkpt lat="45.94323" lon="4.72382">
        <ele>172</ele>
        <time>2017-03-27T08:40:41Z</time>
      </trkpt>
      <trkpt lat="45.94326" lon="4.72387">
        <ele>172</ele>
        <time>2017-03-27T08:40:42Z</time>
      </trkpt>
      <trkpt lat="45.94328" lon="4.72393">
        <ele>172</ele>
        <time>2017-03-27T08:40:43Z</time>
      </trkpt>
      <trkpt lat="45.94331" lon="4.72399">
        <ele>172</ele>
        <time>2017-03-27T08:40:44Z</time>
      </trkpt>
      <trkpt lat="45.94334" lon="4.72405">
        <ele>173</ele>
        <time>2017-03-27T08:40:45Z</time>
      </trkpt>
      <trkpt lat="45.94338" lon="4.72412">
        <ele>173</ele>
        <time>2017-03-27T08:40:46Z</time>
      </trkpt>
      <trkpt lat="45.94341" lon="4.72419">
        <ele>173</ele>
        <time>2017-03-27T08:40:47Z</time>
      </trkpt>
      <trkpt lat="45.94344" lon="4.72425">
        <ele>173</ele>
        <time>2017-03-27T08:40:48Z</time>
      </trkpt>
      <trkpt lat="45.94347" lon="4.72432">
        <ele>173</ele>
        <time>2017-03-27T08:40:49Z</time>
      </trkpt>
      <trkpt lat="45.94349" lon="4.72439">
        <ele>173</ele>
        <time>2017-03-27T08:40:50Z</time>
      </trkpt>
      <trkpt lat="45.94352" lon="4.72445">
        <ele>173</ele>
        <time>2017-03-27T08:40:51Z</time>
      </trkpt>
      <trkpt lat="45.94355" lon="4.72452">
        <ele>173</ele>
        <time>2017-03-27T08:40:52Z</time>
      </trkpt>
      <trkpt lat="45.94358" lon="4.72459">
        <ele>173</ele>
        <time>2017-03-27T08:40:53Z</time>
      </trkpt>
      <trkpt lat="45.94361" lon="4.72466">
        <ele>173</ele>
        <time>2017-03-27T08:40:54Z</time>
      </trkpt>
      <trkpt lat="45.94364" lon="4.72473">
        <ele>173</ele>
        <time>2017-03-27T08:40:55Z</time>
      </trkpt>
      <trkpt lat="45.94367" lon="4.7248">
        <ele>173</ele>
        <time>2017-03-27T08:40:56Z</time>
      </trkpt>
      <trkpt lat="45.9437" lon="4.72487">
        <ele>173</ele>
        <time>2017-03-27T08:40:57Z</time>
      </trkpt>
      <trkpt lat="45.94372" lon="4.72494">
        <ele>173</ele>
        <time>2017-03-27T08:40:58Z</time>
      </trkpt>
      <trkpt lat="45.94375" lon="4.72501">
        <ele>173</ele>
        <time>2017-03-27T08:40:59Z</time>
      </trkpt>
      <trkpt lat="45.94377" lon="4.72508">
        <ele>174</ele>
        <time>2017-03-27T08:41:00Z</time>
      </trkpt>
      <trkpt lat="45.94379" lon="4.72515">
        <ele>174</ele>
        <time>2017-03-27T08:41:01Z</time>
      </trkpt>
      <trkpt lat="45.94381" lon="4.72522">
        <ele>174</ele>
        <time>2017-03-27T08:41:02Z</time>
      </trkpt>
      <trkpt lat="45.94383" lon="4.72529">
        <ele>174</ele>
        <time>2017-03-27T08:41:03Z</time>
      </trkpt>
      <trkpt lat="45.94385" lon="4.72536">
        <ele>174</ele>
        <time>2017-03-27T08:41:04Z</time>
      </trkpt>
      <trkpt lat="45.94387" lon="4.72542">
        <ele>173</ele>
        <time>2017-03-27T08:41:05Z</time>
      </trkpt>
      <trkpt lat="45.94388" lon="4.72549">
        <ele>173</ele>
        <time>2017-03-27T08:41:06Z</time>
      </trkpt>
      <trkpt lat="45.94389" lon="4.72556">
        <ele>173</ele>
        <time>2017-03-27T08:41:07Z</time>
      </trkpt>
      <trkpt lat="45.9439" lon="4.72564">
        <ele>173</ele>
        <time>2017-03-27T08:41:08Z</time>
      </trkpt>
      <trkpt lat="45.94392" lon="4.72571">
        <ele>173</ele>
        <time>2017-03-27T08:41:09Z</time>
      </trkpt>
      <trkpt lat="45.94393" lon="4.72579">
        <ele>173</ele>
        <time>2017-03-27T08:41:10Z</time>
      </trkpt>
      <trkpt lat="45.94394" lon="4.72587">
        <ele>173</ele>
        <time>2017-03-27T08:41:11Z</time>
      </trkpt>
      <trkpt lat="45.94395" lon="4.72595">
        <ele>173</ele>
        <time>2017-03-27T08:41:12Z</time>
      </trkpt>
      <trkpt lat="45.94395" lon="4.72603">
        <ele>173</ele>
        <time>2017-03-27T08:41:13Z</time>
      </trkpt>
      <trkpt lat="45.94396" lon="4.72611">
        <ele>173</ele>
        <time>2017-03-27T08:41:14Z</time>
      </trkpt>
      <trkpt lat="45.94397" lon="4.72619">
        <ele>173</ele>
        <time>2017-03-27T08:41:15Z</time>
      </trkpt>
      <trkpt lat="45.94398" lon="4.72626">
        <ele>174</ele>
        <time>2017-03-27T08:41:16Z</time>
      </trkpt>
      <trkpt lat="45.94399" lon="4.72634">
        <ele>174</ele>
        <time>2017-03-27T08:41:17Z</time>
      </trkpt>
      <trkpt lat="45.944" lon="4.72642">
        <ele>174</ele>
        <time>2017-03-27T08:41:18Z</time>
      </trkpt>
      <trkpt lat="45.94401" lon="4.72649">
        <ele>174</ele>
        <time>2017-03-27T08:41:19Z</time>
      </trkpt>
      <trkpt lat="45.94402" lon="4.72656">
        <ele>174</ele>
        <time>2017-03-27T08:41:20Z</time>
      </trkpt>
      <trkpt lat="45.94403" lon="4.72664">
        <ele>174</ele>
        <time>2017-03-27T08:41:21Z</time>
      </trkpt>
      <trkpt lat="45.94403" lon="4.72672">
        <ele>173</ele>
        <time>2017-03-27T08:41:22Z</time>
      </trkpt>
      <trkpt lat="45.94404" lon="4.7268">
        <ele>173</ele>
        <time>2017-03-27T08:41:23Z</time>
      </trkpt>
      <trkpt lat="45.94405" lon="4.72687">
        <ele>173</ele>
        <time>2017-03-27T08:41:24Z</time>
      </trkpt>
      <trkpt lat="45.94406" lon="4.72695">
        <ele>173</ele>
        <time>2017-03-27T08:41:25Z</time>
      </trkpt>
      <trkpt lat="45.94407" lon="4.72703">
        <ele>172</ele>
        <time>2017-03-27T08:41:26Z</time>
      </trkpt>
      <trkpt lat="45.94408" lon="4.72711">
        <ele>172</ele>
        <time>2017-03-27T08:41:27Z</time>
      </trkpt>
      <trkpt lat="45.94409" lon="4.72719">
        <ele>172</ele>
        <time>2017-03-27T08:41:28Z</time>
      </trkpt>
      <trkpt lat="45.9441" lon="4.72727">
        <ele>172</ele>
        <time>2017-03-27T08:41:29Z</time>
      </trkpt>
      <trkpt lat="45.94411" lon="4.72735">
        <ele>172</ele>
        <time>2017-03-27T08:41:30Z</time>
      </trkpt>
      <trkpt lat="45.94412" lon="4.72743">
        <ele>171</ele>
        <time>2017-03-27T08:41:31Z</time>
      </trkpt>
      <trkpt lat="45.94413" lon="4.72751">
        <ele>171</ele>
        <time>2017-03-27T08:41:32Z</time>
      </trkpt>
      <trkpt lat="45.94415" lon="4.72759">
        <ele>170</ele>
        <time>2017-03-27T08:41:33Z</time>
      </trkpt>
      <trkpt lat="45.94416" lon="4.72766">
        <ele>170</ele>
        <time>2017-03-27T08:41:34Z</time>
      </trkpt>
      <trkpt lat="45.94416" lon="4.72773">
        <ele>169</ele>
        <time>2017-03-27T08:41:35Z</time>
      </trkpt>
      <trkpt lat="45.94417" lon="4.72781">
        <ele>168</ele>
        <time>2017-03-27T08:41:36Z</time>
      </trkpt>
      <trkpt lat="45.94417" lon="4.72788">
        <ele>168</ele>
        <time>2017-03-27T08:41:37Z</time>
      </trkpt>
      <trkpt lat="45.94418" lon="4.72795">
        <ele>168</ele>
        <time>2017-03-27T08:41:38Z</time>
      </trkpt>
      <trkpt lat="45.9442" lon="4.72802">
        <ele>167</ele>
        <time>2017-03-27T08:41:39Z</time>
      </trkpt>
      <trkpt lat="45.94421" lon="4.72808">
        <ele>167</ele>
        <time>2017-03-27T08:41:40Z</time>
      </trkpt>
      <trkpt lat="45.94422" lon="4.72815">
        <ele>167</ele>
        <time>2017-03-27T08:41:41Z</time>
      </trkpt>
      <trkpt lat="45.94423" lon="4.72821">
        <ele>167</ele>
        <time>2017-03-27T08:41:42Z</time>
      </trkpt>
      <trkpt lat="45.94424" lon="4.72828">
        <ele>166</ele>
        <time>2017-03-27T08:41:43Z</time>
      </trkpt>
      <trkpt lat="45.94425" lon="4.72835">
        <ele>166</ele>
        <time>2017-03-27T08:41:44Z</time>
      </trkpt>
      <trkpt lat="45.94426" lon="4.72841">
        <ele>166</ele>
        <time>2017-03-27T08:41:45Z</time>
      </trkpt>
      <trkpt lat="45.94426" lon="4.72848">
        <ele>166</ele>
        <time>2017-03-27T08:41:46Z</time>
      </trkpt>
      <trkpt lat="45.94429" lon="4.7286">
        <ele>166</ele>
        <time>2017-03-27T08:41:48Z</time>
      </trkpt>
      <trkpt lat="45.9443" lon="4.72865">
        <ele>166</ele>
        <time>2017-03-27T08:41:49Z</time>
      </trkpt>
      <trkpt lat="45.94431" lon="4.72878">
        <ele>166</ele>
        <time>2017-03-27T08:41:51Z</time>
      </trkpt>
      <trkpt lat="45.94432" lon="4.72884">
        <ele>166</ele>
        <time>2017-03-27T08:41:52Z</time>
      </trkpt>
      <trkpt lat="45.94434" lon="4.72896">
        <ele>166</ele>
        <time>2017-03-27T08:41:54Z</time>
      </trkpt>
      <trkpt lat="45.94435" lon="4.72902">
        <ele>166</ele>
        <time>2017-03-27T08:41:55Z</time>
      </trkpt>
      <trkpt lat="45.94436" lon="4.72915">
        <ele>166</ele>
        <time>2017-03-27T08:41:57Z</time>
      </trkpt>
      <trkpt lat="45.94437" lon="4.72921">
        <ele>167</ele>
        <time>2017-03-27T08:41:58Z</time>
      </trkpt>
      <trkpt lat="45.94438" lon="4.72928">
        <ele>167</ele>
        <time>2017-03-27T08:41:59Z</time>
      </trkpt>
      <trkpt lat="45.94439" lon="4.72935">
        <ele>167</ele>
        <time>2017-03-27T08:42:00Z</time>
      </trkpt>
      <trkpt lat="45.9444" lon="4.72942">
        <ele>167</ele>
        <time>2017-03-27T08:42:01Z</time>
      </trkpt>
      <trkpt lat="45.94441" lon="4.7295">
        <ele>167</ele>
        <time>2017-03-27T08:42:02Z</time>
      </trkpt>
      <trkpt lat="45.94442" lon="4.72958">
        <ele>167</ele>
        <time>2017-03-27T08:42:03Z</time>
      </trkpt>
      <trkpt lat="45.94444" lon="4.72967">
        <ele>167</ele>
        <time>2017-03-27T08:42:04Z</time>
      </trkpt>
      <trkpt lat="45.94445" lon="4.72976">
        <ele>167</ele>
        <time>2017-03-27T08:42:05Z</time>
      </trkpt>
      <trkpt lat="45.94447" lon="4.72985">
        <ele>167</ele>
        <time>2017-03-27T08:42:06Z</time>
      </trkpt>
      <trkpt lat="45.94448" lon="4.72994">
        <ele>167</ele>
        <time>2017-03-27T08:42:07Z</time>
      </trkpt>
      <trkpt lat="45.94449" lon="4.73004">
        <ele>169</ele>
        <time>2017-03-27T08:42:08Z</time>
      </trkpt>
      <trkpt lat="45.9445" lon="4.73014">
        <ele>169</ele>
        <time>2017-03-27T08:42:09Z</time>
      </trkpt>
      <trkpt lat="45.94452" lon="4.73024">
        <ele>169</ele>
        <time>2017-03-27T08:42:10Z</time>
      </trkpt>
      <trkpt lat="45.94453" lon="4.73035">
        <ele>169</ele>
        <time>2017-03-27T08:42:11Z</time>
      </trkpt>
      <trkpt lat="45.94454" lon="4.73046">
        <ele>169</ele>
        <time>2017-03-27T08:42:12Z</time>
      </trkpt>
      <trkpt lat="45.94455" lon="4.73057">
        <ele>170</ele>
        <time>2017-03-27T08:42:13Z</time>
      </trkpt>
      <trkpt lat="45.94457" lon="4.73067">
        <ele>170</ele>
        <time>2017-03-27T08:42:14Z</time>
      </trkpt>
      <trkpt lat="45.94458" lon="4.73078">
        <ele>170</ele>
        <time>2017-03-27T08:42:15Z</time>
      </trkpt>
      <trkpt lat="45.94459" lon="4.73089">
        <ele>171</ele>
        <time>2017-03-27T08:42:16Z</time>
      </trkpt>
      <trkpt lat="45.9446" lon="4.73099">
        <ele>171</ele>
        <time>2017-03-27T08:42:17Z</time>
      </trkpt>
      <trkpt lat="45.94462" lon="4.73109">
        <ele>172</ele>
        <time>2017-03-27T08:42:18Z</time>
      </trkpt>
      <trkpt lat="45.94463" lon="4.73119">
        <ele>172</ele>
        <time>2017-03-27T08:42:19Z</time>
      </trkpt>
      <trkpt lat="45.94465" lon="4.73128">
        <ele>172</ele>
        <time>2017-03-27T08:42:20Z</time>
      </trkpt>
      <trkpt lat="45.94466" lon="4.73137">
        <ele>172</ele>
        <time>2017-03-27T08:42:21Z</time>
      </trkpt>
      <trkpt lat="45.94467" lon="4.73146">
        <ele>172</ele>
        <time>2017-03-27T08:42:22Z</time>
      </trkpt>
      <trkpt lat="45.94468" lon="4.73154">
        <ele>172</ele>
        <time>2017-03-27T08:42:23Z</time>
      </trkpt>
      <trkpt lat="45.9447" lon="4.73162">
        <ele>172</ele>
        <time>2017-03-27T08:42:24Z</time>
      </trkpt>
      <trkpt lat="45.94471" lon="4.7317">
        <ele>174</ele>
        <time>2017-03-27T08:42:25Z</time>
      </trkpt>
      <trkpt lat="45.94472" lon="4.73178">
        <ele>174</ele>
        <time>2017-03-27T08:42:26Z</time>
      </trkpt>
      <trkpt lat="45.94473" lon="4.73185">
        <ele>174</ele>
        <time>2017-03-27T08:42:27Z</time>
      </trkpt>
      <trkpt lat="45.94474" lon="4.73193">
        <ele>174</ele>
        <time>2017-03-27T08:42:28Z</time>
      </trkpt>
      <trkpt lat="45.94474" lon="4.732">
        <ele>174</ele>
        <time>2017-03-27T08:42:29Z</time>
      </trkpt>
      <trkpt lat="45.94475" lon="4.73207">
        <ele>175</ele>
        <time>2017-03-27T08:42:30Z</time>
      </trkpt>
      <trkpt lat="45.94477" lon="4.73214">
        <ele>175</ele>
        <time>2017-03-27T08:42:31Z</time>
      </trkpt>
      <trkpt lat="45.94478" lon="4.73221">
        <ele>175</ele>
        <time>2017-03-27T08:42:32Z</time>
      </trkpt>
      <trkpt lat="45.94479" lon="4.73228">
        <ele>175</ele>
        <time>2017-03-27T08:42:33Z</time>
      </trkpt>
      <trkpt lat="45.9448" lon="4.73234">
        <ele>175</ele>
        <time>2017-03-27T08:42:34Z</time>
      </trkpt>
      <trkpt lat="45.94481" lon="4.7324">
        <ele>175</ele>
        <time>2017-03-27T08:42:35Z</time>
      </trkpt>
      <trkpt lat="45.94482" lon="4.73247">
        <ele>175</ele>
        <time>2017-03-27T08:42:36Z</time>
      </trkpt>
      <trkpt lat="45.94484" lon="4.73259">
        <ele>176</ele>
        <time>2017-03-27T08:42:38Z</time>
      </trkpt>
      <trkpt lat="45.94486" lon="4.73265">
        <ele>177</ele>
        <time>2017-03-27T08:42:39Z</time>
      </trkpt>
      <trkpt lat="45.94489" lon="4.73276">
        <ele>177</ele>
        <time>2017-03-27T08:42:41Z</time>
      </trkpt>
      <trkpt lat="45.94489" lon="4.73283">
        <ele>177</ele>
        <time>2017-03-27T08:42:42Z</time>
      </trkpt>
      <trkpt lat="45.9449" lon="4.7329">
        <ele>177</ele>
        <time>2017-03-27T08:42:43Z</time>
      </trkpt>
      <trkpt lat="45.9449" lon="4.73297">
        <ele>177</ele>
        <time>2017-03-27T08:42:44Z</time>
      </trkpt>
      <trkpt lat="45.94491" lon="4.7331">
        <ele>177</ele>
        <time>2017-03-27T08:42:46Z</time>
      </trkpt>
      <trkpt lat="45.94492" lon="4.73317">
        <ele>177</ele>
        <time>2017-03-27T08:42:47Z</time>
      </trkpt>
      <trkpt lat="45.94492" lon="4.73323">
        <ele>177</ele>
        <time>2017-03-27T08:42:48Z</time>
      </trkpt>
      <trkpt lat="45.94493" lon="4.7333">
        <ele>177</ele>
        <time>2017-03-27T08:42:49Z</time>
      </trkpt>
      <trkpt lat="45.94493" lon="4.73337">
        <ele>178</ele>
        <time>2017-03-27T08:42:50Z</time>
      </trkpt>
      <trkpt lat="45.94493" lon="4.73343">
        <ele>178</ele>
        <time>2017-03-27T08:42:51Z</time>
      </trkpt>
      <trkpt lat="45.94493" lon="4.7335">
        <ele>178</ele>
        <time>2017-03-27T08:42:52Z</time>
      </trkpt>
      <trkpt lat="45.94493" lon="4.73356">
        <ele>178</ele>
        <time>2017-03-27T08:42:53Z</time>
      </trkpt>
      <trkpt lat="45.94494" lon="4.73369">
        <ele>179</ele>
        <time>2017-03-27T08:42:55Z</time>
      </trkpt>
      <trkpt lat="45.94495" lon="4.73375">
        <ele>179</ele>
        <time>2017-03-27T08:42:56Z</time>
      </trkpt>
      <trkpt lat="45.94497" lon="4.73387">
        <ele>179</ele>
        <time>2017-03-27T08:42:58Z</time>
      </trkpt>
      <trkpt lat="45.94497" lon="4.73392">
        <ele>179</ele>
        <time>2017-03-27T08:42:59Z</time>
      </trkpt>
      <trkpt lat="45.94498" lon="4.73403">
        <ele>180</ele>
        <time>2017-03-27T08:43:01Z</time>
      </trkpt>
      <trkpt lat="45.94498" lon="4.73409">
        <ele>180</ele>
        <time>2017-03-27T08:43:02Z</time>
      </trkpt>
      <trkpt lat="45.94499" lon="4.7342">
        <ele>180</ele>
        <time>2017-03-27T08:43:04Z</time>
      </trkpt>
      <trkpt lat="45.945" lon="4.73426">
        <ele>181</ele>
        <time>2017-03-27T08:43:05Z</time>
      </trkpt>
      <trkpt lat="45.945" lon="4.73437">
        <ele>181</ele>
        <time>2017-03-27T08:43:07Z</time>
      </trkpt>
      <trkpt lat="45.945" lon="4.73442">
        <ele>181</ele>
        <time>2017-03-27T08:43:08Z</time>
      </trkpt>
      <trkpt lat="45.94501" lon="4.73454">
        <ele>181</ele>
        <time>2017-03-27T08:43:10Z</time>
      </trkpt>
      <trkpt lat="45.94502" lon="4.73459">
        <ele>181</ele>
        <time>2017-03-27T08:43:11Z</time>
      </trkpt>
      <trkpt lat="45.94502" lon="4.7347">
        <ele>182</ele>
        <time>2017-03-27T08:43:13Z</time>
      </trkpt>
      <trkpt lat="45.94502" lon="4.73475">
        <ele>182</ele>
        <time>2017-03-27T08:43:14Z</time>
      </trkpt>
      <trkpt lat="45.94501" lon="4.73486">
        <ele>182</ele>
        <time>2017-03-27T08:43:16Z</time>
      </trkpt>
      <trkpt lat="45.94501" lon="4.73492">
        <ele>182</ele>
        <time>2017-03-27T08:43:17Z</time>
      </trkpt>
      <trkpt lat="45.945" lon="4.73504">
        <ele>183</ele>
        <time>2017-03-27T08:43:19Z</time>
      </trkpt>
      <trkpt lat="45.945" lon="4.7351">
        <ele>184</ele>
        <time>2017-03-27T08:43:20Z</time>
      </trkpt>
      <trkpt lat="45.94499" lon="4.73521">
        <ele>184</ele>
        <time>2017-03-27T08:43:22Z</time>
      </trkpt>
      <trkpt lat="45.94499" lon="4.73526">
        <ele>184</ele>
        <time>2017-03-27T08:43:23Z</time>
      </trkpt>
      <trkpt lat="45.94499" lon="4.73538">
        <ele>184</ele>
        <time>2017-03-27T08:43:25Z</time>
      </trkpt>
      <trkpt lat="45.94499" lon="4.73544">
        <ele>185</ele>
        <time>2017-03-27T08:43:26Z</time>
      </trkpt>
      <trkpt lat="45.94499" lon="4.73556">
        <ele>185</ele>
        <time>2017-03-27T08:43:28Z</time>
      </trkpt>
      <trkpt lat="45.94499" lon="4.73562">
        <ele>185</ele>
        <time>2017-03-27T08:43:29Z</time>
      </trkpt>
      <trkpt lat="45.94499" lon="4.73574">
        <ele>185</ele>
        <time>2017-03-27T08:43:31Z</time>
      </trkpt>
      <trkpt lat="45.94498" lon="4.73581">
        <ele>185</ele>
        <time>2017-03-27T08:43:32Z</time>
      </trkpt>
      <trkpt lat="45.94497" lon="4.73593">
        <ele>185</ele>
        <time>2017-03-27T08:43:34Z</time>
      </trkpt>
      <trkpt lat="45.94496" lon="4.73599">
        <ele>185</ele>
        <time>2017-03-27T08:43:35Z</time>
      </trkpt>
      <trkpt lat="45.94495" lon="4.73606">
        <ele>186</ele>
        <time>2017-03-27T08:43:36Z</time>
      </trkpt>
      <trkpt lat="45.94494" lon="4.73612">
        <ele>186</ele>
        <time>2017-03-27T08:43:37Z</time>
      </trkpt>
      <trkpt lat="45.94493" lon="4.73619">
        <ele>186</ele>
        <time>2017-03-27T08:43:38Z</time>
      </trkpt>
      <trkpt lat="45.94492" lon="4.73626">
        <ele>186</ele>
        <time>2017-03-27T08:43:39Z</time>
      </trkpt>
      <trkpt lat="45.9449" lon="4.73633">
        <ele>186</ele>
        <time>2017-03-27T08:43:40Z</time>
      </trkpt>
      <trkpt lat="45.9449" lon="4.7364">
        <ele>186</ele>
        <time>2017-03-27T08:43:41Z</time>
      </trkpt>
      <trkpt lat="45.94489" lon="4.73647">
        <ele>186</ele>
        <time>2017-03-27T08:43:42Z</time>
      </trkpt>
      <trkpt lat="45.94489" lon="4.73654">
        <ele>185</ele>
        <time>2017-03-27T08:43:43Z</time>
      </trkpt>
      <trkpt lat="45.94488" lon="4.73661">
        <ele>185</ele>
        <time>2017-03-27T08:43:44Z</time>
      </trkpt>
      <trkpt lat="45.94487" lon="4.73668">
        <ele>185</ele>
        <time>2017-03-27T08:43:45Z</time>
      </trkpt>
      <trkpt lat="45.94486" lon="4.73675">
        <ele>186</ele>
        <time>2017-03-27T08:43:46Z</time>
      </trkpt>
      <trkpt lat="45.94485" lon="4.73682">
        <ele>186</ele>
        <time>2017-03-27T08:43:47Z</time>
      </trkpt>
      <trkpt lat="45.94484" lon="4.73689">
        <ele>186</ele>
        <time>2017-03-27T08:43:48Z</time>
      </trkpt>
      <trkpt lat="45.94483" lon="4.73695">
        <ele>186</ele>
        <time>2017-03-27T08:43:49Z</time>
      </trkpt>
      <trkpt lat="45.94482" lon="4.73702">
        <ele>186</ele>
        <time>2017-03-27T08:43:50Z</time>
      </trkpt>
      <trkpt lat="45.9448" lon="4.73709">
        <ele>186</ele>
        <time>2017-03-27T08:43:51Z</time>
      </trkpt>
      <trkpt lat="45.94479" lon="4.73716">
        <ele>186</ele>
        <time>2017-03-27T08:43:52Z</time>
      </trkpt>
      <trkpt lat="45.94477" lon="4.73724">
        <ele>186</ele>
        <time>2017-03-27T08:43:53Z</time>
      </trkpt>
      <trkpt lat="45.94477" lon="4.73732">
        <ele>186</ele>
        <time>2017-03-27T08:43:54Z</time>
      </trkpt>
      <trkpt lat="45.94476" lon="4.73739">
        <ele>186</ele>
        <time>2017-03-27T08:43:55Z</time>
      </trkpt>
      <trkpt lat="45.94475" lon="4.73746">
        <ele>186</ele>
        <time>2017-03-27T08:43:56Z</time>
      </trkpt>
      <trkpt lat="45.94474" lon="4.73753">
        <ele>186</ele>
        <time>2017-03-27T08:43:57Z</time>
      </trkpt>
      <trkpt lat="45.94474" lon="4.7376">
        <ele>186</ele>
        <time>2017-03-27T08:43:58Z</time>
      </trkpt>
      <trkpt lat="45.94475" lon="4.73766">
        <ele>186</ele>
        <time>2017-03-27T08:43:59Z</time>
      </trkpt>
      <trkpt lat="45.94479" lon="4.73772">
        <ele>186</ele>
        <time>2017-03-27T08:44:00Z</time>
      </trkpt>
      <trkpt lat="45.94483" lon="4.73776">
        <ele>186</ele>
        <time>2017-03-27T08:44:01Z</time>
      </trkpt>
      <trkpt lat="45.94488" lon="4.73779">
        <ele>186</ele>
        <time>2017-03-27T08:44:02Z</time>
      </trkpt>
      <trkpt lat="45.94492" lon="4.73782">
        <ele>186</ele>
        <time>2017-03-27T08:44:03Z</time>
      </trkpt>
      <trkpt lat="45.94497" lon="4.73786">
        <ele>186</ele>
        <time>2017-03-27T08:44:04Z</time>
      </trkpt>
      <trkpt lat="45.94501" lon="4.73789">
        <ele>186</ele>
        <time>2017-03-27T08:44:05Z</time>
      </trkpt>
      <trkpt lat="45.94506" lon="4.73793">
        <ele>186</ele>
        <time>2017-03-27T08:44:06Z</time>
      </trkpt>
      <trkpt lat="45.9451" lon="4.73797">
        <ele>186</ele>
        <time>2017-03-27T08:44:07Z</time>
      </trkpt>
      <trkpt lat="45.94515" lon="4.73801">
        <ele>186</ele>
        <time>2017-03-27T08:44:08Z</time>
      </trkpt>
      <trkpt lat="45.94519" lon="4.73805">
        <ele>186</ele>
        <time>2017-03-27T08:44:09Z</time>
      </trkpt>
      <trkpt lat="45.94526" lon="4.73812">
        <ele>186</ele>
        <time>2017-03-27T08:44:11Z</time>
      </trkpt>
      <trkpt lat="45.9453" lon="4.73816">
        <ele>186</ele>
        <time>2017-03-27T08:44:12Z</time>
      </trkpt>
      <trkpt lat="45.94533" lon="4.7382">
        <ele>186</ele>
        <time>2017-03-27T08:44:13Z</time>
      </trkpt>
      <trkpt lat="45.94537" lon="4.73823">
        <ele>186</ele>
        <time>2017-03-27T08:44:14Z</time>
      </trkpt>
      <trkpt lat="45.94541" lon="4.73827">
        <ele>186</ele>
        <time>2017-03-27T08:44:15Z</time>
      </trkpt>
      <trkpt lat="45.94545" lon="4.73831">
        <ele>186</ele>
        <time>2017-03-27T08:44:16Z</time>
      </trkpt>
      <trkpt lat="45.94548" lon="4.73834">
        <ele>186</ele>
        <time>2017-03-27T08:44:17Z</time>
      </trkpt>
      <trkpt lat="45.94552" lon="4.73838">
        <ele>186</ele>
        <time>2017-03-27T08:44:18Z</time>
      </trkpt>
      <trkpt lat="45.94556" lon="4.73842">
        <ele>186</ele>
        <time>2017-03-27T08:44:19Z</time>
      </trkpt>
      <trkpt lat="45.9456" lon="4.73846">
        <ele>186</ele>
        <time>2017-03-27T08:44:20Z</time>
      </trkpt>
      <trkpt lat="45.94564" lon="4.73851">
        <ele>186</ele>
        <time>2017-03-27T08:44:21Z</time>
      </trkpt>
      <trkpt lat="45.94569" lon="4.73855">
        <ele>186</ele>
        <time>2017-03-27T08:44:22Z</time>
      </trkpt>
      <trkpt lat="45.94573" lon="4.73859">
        <ele>186</ele>
        <time>2017-03-27T08:44:23Z</time>
      </trkpt>
      <trkpt lat="45.94577" lon="4.73864">
        <ele>186</ele>
        <time>2017-03-27T08:44:24Z</time>
      </trkpt>
      <trkpt lat="45.94582" lon="4.73868">
        <ele>186</ele>
        <time>2017-03-27T08:44:25Z</time>
      </trkpt>
      <trkpt lat="45.94586" lon="4.73872">
        <ele>187</ele>
        <time>2017-03-27T08:44:26Z</time>
      </trkpt>
      <trkpt lat="45.94589" lon="4.73877">
        <ele>187</ele>
        <time>2017-03-27T08:44:27Z</time>
      </trkpt>
      <trkpt lat="45.94592" lon="4.73881">
        <ele>187</ele>
        <time>2017-03-27T08:44:28Z</time>
      </trkpt>
      <trkpt lat="45.94596" lon="4.73885">
        <ele>187</ele>
        <time>2017-03-27T08:44:29Z</time>
      </trkpt>
      <trkpt lat="45.94599" lon="4.73889">
        <ele>187</ele>
        <time>2017-03-27T08:44:30Z</time>
      </trkpt>
      <trkpt lat="45.94603" lon="4.73894">
        <ele>187</ele>
        <time>2017-03-27T08:44:31Z</time>
      </trkpt>
      <trkpt lat="45.94607" lon="4.73898">
        <ele>187</ele>
        <time>2017-03-27T08:44:32Z</time>
      </trkpt>
      <trkpt lat="45.9461" lon="4.73903">
        <ele>187</ele>
        <time>2017-03-27T08:44:33Z</time>
      </trkpt>
      <trkpt lat="45.94614" lon="4.73908">
        <ele>187</ele>
        <time>2017-03-27T08:44:34Z</time>
      </trkpt>
      <trkpt lat="45.94617" lon="4.73912">
        <ele>187</ele>
        <time>2017-03-27T08:44:35Z</time>
      </trkpt>
      <trkpt lat="45.94621" lon="4.73917">
        <ele>187</ele>
        <time>2017-03-27T08:44:36Z</time>
      </trkpt>
      <trkpt lat="45.94625" lon="4.73922">
        <ele>187</ele>
        <time>2017-03-27T08:44:37Z</time>
      </trkpt>
      <trkpt lat="45.94628" lon="4.73926">
        <ele>187</ele>
        <time>2017-03-27T08:44:38Z</time>
      </trkpt>
      <trkpt lat="45.94632" lon="4.73931">
        <ele>187</ele>
        <time>2017-03-27T08:44:39Z</time>
      </trkpt>
      <trkpt lat="45.94635" lon="4.73935">
        <ele>187</ele>
        <time>2017-03-27T08:44:40Z</time>
      </trkpt>
      <trkpt lat="45.94639" lon="4.73939">
        <ele>187</ele>
        <time>2017-03-27T08:44:41Z</time>
      </trkpt>
      <trkpt lat="45.94642" lon="4.73944">
        <ele>187</ele>
        <time>2017-03-27T08:44:42Z</time>
      </trkpt>
      <trkpt lat="45.94646" lon="4.73948">
        <ele>187</ele>
        <time>2017-03-27T08:44:43Z</time>
      </trkpt>
      <trkpt lat="45.94649" lon="4.73953">
        <ele>187</ele>
        <time>2017-03-27T08:44:44Z</time>
      </trkpt>
      <trkpt lat="45.94653" lon="4.73957">
        <ele>187</ele>
        <time>2017-03-27T08:44:45Z</time>
      </trkpt>
      <trkpt lat="45.94657" lon="4.73962">
        <ele>187</ele>
        <time>2017-03-27T08:44:46Z</time>
      </trkpt>
      <trkpt lat="45.9466" lon="4.73967">
        <ele>187</ele>
        <time>2017-03-27T08:44:47Z</time>
      </trkpt>
      <trkpt lat="45.94664" lon="4.73972">
        <ele>187</ele>
        <time>2017-03-27T08:44:48Z</time>
      </trkpt>
      <trkpt lat="45.94668" lon="4.73977">
        <ele>187</ele>
        <time>2017-03-27T08:44:49Z</time>
      </trkpt>
      <trkpt lat="45.94672" lon="4.73982">
        <ele>187</ele>
        <time>2017-03-27T08:44:50Z</time>
      </trkpt>
      <trkpt lat="45.94675" lon="4.73987">
        <ele>187</ele>
        <time>2017-03-27T08:44:51Z</time>
      </trkpt>
      <trkpt lat="45.94679" lon="4.73992">
        <ele>187</ele>
        <time>2017-03-27T08:44:52Z</time>
      </trkpt>
      <trkpt lat="45.94683" lon="4.73997">
        <ele>187</ele>
        <time>2017-03-27T08:44:53Z</time>
      </trkpt>
      <trkpt lat="45.94686" lon="4.74002">
        <ele>187</ele>
        <time>2017-03-27T08:44:54Z</time>
      </trkpt>
      <trkpt lat="45.9469" lon="4.74007">
        <ele>187</ele>
        <time>2017-03-27T08:44:55Z</time>
      </trkpt>
      <trkpt lat="45.94694" lon="4.74012">
        <ele>187</ele>
        <time>2017-03-27T08:44:56Z</time>
      </trkpt>
      <trkpt lat="45.94698" lon="4.74018">
        <ele>187</ele>
        <time>2017-03-27T08:44:57Z</time>
      </trkpt>
      <trkpt lat="45.94702" lon="4.74023">
        <ele>187</ele>
        <time>2017-03-27T08:44:58Z</time>
      </trkpt>
      <trkpt lat="45.94705" lon="4.74027">
        <ele>187</ele>
        <time>2017-03-27T08:44:59Z</time>
      </trkpt>
      <trkpt lat="45.94708" lon="4.74032">
        <ele>187</ele>
        <time>2017-03-27T08:45:00Z</time>
      </trkpt>
      <trkpt lat="45.94712" lon="4.74036">
        <ele>187</ele>
        <time>2017-03-27T08:45:01Z</time>
      </trkpt>
      <trkpt lat="45.94715" lon="4.74041">
        <ele>187</ele>
        <time>2017-03-27T08:45:02Z</time>
      </trkpt>
      <trkpt lat="45.94718" lon="4.74045">
        <ele>187</ele>
        <time>2017-03-27T08:45:03Z</time>
      </trkpt>
      <trkpt lat="45.94722" lon="4.7405">
        <ele>187</ele>
        <time>2017-03-27T08:45:04Z</time>
      </trkpt>
      <trkpt lat="45.94725" lon="4.74055">
        <ele>188</ele>
        <time>2017-03-27T08:45:05Z</time>
      </trkpt>
      <trkpt lat="45.94729" lon="4.74059">
        <ele>188</ele>
        <time>2017-03-27T08:45:06Z</time>
      </trkpt>
      <trkpt lat="45.94733" lon="4.74064">
        <ele>188</ele>
        <time>2017-03-27T08:45:07Z</time>
      </trkpt>
      <trkpt lat="45.94736" lon="4.74068">
        <ele>188</ele>
        <time>2017-03-27T08:45:08Z</time>
      </trkpt>
      <trkpt lat="45.9474" lon="4.74074">
        <ele>188</ele>
        <time>2017-03-27T08:45:09Z</time>
      </trkpt>
      <trkpt lat="45.94743" lon="4.74079">
        <ele>188</ele>
        <time>2017-03-27T08:45:10Z</time>
      </trkpt>
      <trkpt lat="45.94747" lon="4.74084">
        <ele>189</ele>
        <time>2017-03-27T08:45:11Z</time>
      </trkpt>
      <trkpt lat="45.94751" lon="4.74089">
        <ele>189</ele>
        <time>2017-03-27T08:45:12Z</time>
      </trkpt>
      <trkpt lat="45.94754" lon="4.74093">
        <ele>189</ele>
        <time>2017-03-27T08:45:13Z</time>
      </trkpt>
      <trkpt lat="45.94758" lon="4.74098">
        <ele>189</ele>
        <time>2017-03-27T08:45:14Z</time>
      </trkpt>
      <trkpt lat="45.94762" lon="4.74103">
        <ele>189</ele>
        <time>2017-03-27T08:45:15Z</time>
      </trkpt>
      <trkpt lat="45.94765" lon="4.74107">
        <ele>189</ele>
        <time>2017-03-27T08:45:16Z</time>
      </trkpt>
      <trkpt lat="45.94768" lon="4.74112">
        <ele>189</ele>
        <time>2017-03-27T08:45:17Z</time>
      </trkpt>
      <trkpt lat="45.94772" lon="4.74117">
        <ele>189</ele>
        <time>2017-03-27T08:45:18Z</time>
      </trkpt>
      <trkpt lat="45.94775" lon="4.74122">
        <ele>189</ele>
        <time>2017-03-27T08:45:19Z</time>
      </trkpt>
      <trkpt lat="45.94779" lon="4.74127">
        <ele>189</ele>
        <time>2017-03-27T08:45:20Z</time>
      </trkpt>
      <trkpt lat="45.94782" lon="4.74133">
        <ele>189</ele>
        <time>2017-03-27T08:45:21Z</time>
      </trkpt>
      <trkpt lat="45.94786" lon="4.74138">
        <ele>189</ele>
        <time>2017-03-27T08:45:22Z</time>
      </trkpt>
      <trkpt lat="45.94789" lon="4.74143">
        <ele>189</ele>
        <time>2017-03-27T08:45:23Z</time>
      </trkpt>
      <trkpt lat="45.94792" lon="4.74149">
        <ele>189</ele>
        <time>2017-03-27T08:45:24Z</time>
      </trkpt>
      <trkpt lat="45.94795" lon="4.74155">
        <ele>189</ele>
        <time>2017-03-27T08:45:25Z</time>
      </trkpt>
      <trkpt lat="45.94799" lon="4.74161">
        <ele>189</ele>
        <time>2017-03-27T08:45:26Z</time>
      </trkpt>
      <trkpt lat="45.94802" lon="4.74167">
        <ele>189</ele>
        <time>2017-03-27T08:45:27Z</time>
      </trkpt>
      <trkpt lat="45.94806" lon="4.74173">
        <ele>189</ele>
        <time>2017-03-27T08:45:28Z</time>
      </trkpt>
      <trkpt lat="45.94809" lon="4.74178">
        <ele>189</ele>
        <time>2017-03-27T08:45:29Z</time>
      </trkpt>
      <trkpt lat="45.94812" lon="4.74184">
        <ele>189</ele>
        <time>2017-03-27T08:45:30Z</time>
      </trkpt>
      <trkpt lat="45.94815" lon="4.74189">
        <ele>189</ele>
        <time>2017-03-27T08:45:31Z</time>
      </trkpt>
      <trkpt lat="45.94819" lon="4.74195">
        <ele>189</ele>
        <time>2017-03-27T08:45:32Z</time>
      </trkpt>
      <trkpt lat="45.94822" lon="4.742">
        <ele>189</ele>
        <time>2017-03-27T08:45:33Z</time>
      </trkpt>
      <trkpt lat="45.94825" lon="4.74205">
        <ele>189</ele>
        <time>2017-03-27T08:45:34Z</time>
      </trkpt>
      <trkpt lat="45.94828" lon="4.74211">
        <ele>189</ele>
        <time>2017-03-27T08:45:35Z</time>
      </trkpt>
      <trkpt lat="45.94831" lon="4.74217">
        <ele>188</ele>
        <time>2017-03-27T08:45:36Z</time>
      </trkpt>
      <trkpt lat="45.94834" lon="4.74222">
        <ele>190</ele>
        <time>2017-03-27T08:45:37Z</time>
      </trkpt>
      <trkpt lat="45.94837" lon="4.74228">
        <ele>190</ele>
        <time>2017-03-27T08:45:38Z</time>
      </trkpt>
      <trkpt lat="45.94841" lon="4.74234">
        <ele>190</ele>
        <time>2017-03-27T08:45:39Z</time>
      </trkpt>
      <trkpt lat="45.94843" lon="4.7424">
        <ele>190</ele>
        <time>2017-03-27T08:45:40Z</time>
      </trkpt>
      <trkpt lat="45.94846" lon="4.74246">
        <ele>190</ele>
        <time>2017-03-27T08:45:41Z</time>
      </trkpt>
      <trkpt lat="45.9485" lon="4.74251">
        <ele>190</ele>
        <time>2017-03-27T08:45:42Z</time>
      </trkpt>
      <trkpt lat="45.94854" lon="4.74256">
        <ele>190</ele>
        <time>2017-03-27T08:45:43Z</time>
      </trkpt>
      <trkpt lat="45.94857" lon="4.74262">
        <ele>190</ele>
        <time>2017-03-27T08:45:44Z</time>
      </trkpt>
      <trkpt lat="45.9486" lon="4.74268">
        <ele>190</ele>
        <time>2017-03-27T08:45:45Z</time>
      </trkpt>
      <trkpt lat="45.94863" lon="4.74274">
        <ele>190</ele>
        <time>2017-03-27T08:45:46Z</time>
      </trkpt>
      <trkpt lat="45.94866" lon="4.74279">
        <ele>191</ele>
        <time>2017-03-27T08:45:47Z</time>
      </trkpt>
      <trkpt lat="45.94869" lon="4.74285">
        <ele>191</ele>
        <time>2017-03-27T08:45:48Z</time>
      </trkpt>
      <trkpt lat="45.94872" lon="4.74291">
        <ele>191</ele>
        <time>2017-03-27T08:45:49Z</time>
      </trkpt>
      <trkpt lat="45.94875" lon="4.74297">
        <ele>191</ele>
        <time>2017-03-27T08:45:50Z</time>
      </trkpt>
      <trkpt lat="45.94877" lon="4.74303">
        <ele>191</ele>
        <time>2017-03-27T08:45:51Z</time>
      </trkpt>
      <trkpt lat="45.9488" lon="4.74308">
        <ele>191</ele>
        <time>2017-03-27T08:45:52Z</time>
      </trkpt>
      <trkpt lat="45.94882" lon="4.74314">
        <ele>191</ele>
        <time>2017-03-27T08:45:53Z</time>
      </trkpt>
      <trkpt lat="45.94884" lon="4.7432">
        <ele>191</ele>
        <time>2017-03-27T08:45:54Z</time>
      </trkpt>
      <trkpt lat="45.94889" lon="4.7433">
        <ele>191</ele>
        <time>2017-03-27T08:45:56Z</time>
      </trkpt>
      <trkpt lat="45.94893" lon="4.74335">
        <ele>191</ele>
        <time>2017-03-27T08:45:57Z</time>
      </trkpt>
      <trkpt lat="45.94895" lon="4.74341">
        <ele>191</ele>
        <time>2017-03-27T08:45:58Z</time>
      </trkpt>
      <trkpt lat="45.94898" lon="4.74348">
        <ele>191</ele>
        <time>2017-03-27T08:45:59Z</time>
      </trkpt>
      <trkpt lat="45.94901" lon="4.74354">
        <ele>191</ele>
        <time>2017-03-27T08:46:00Z</time>
      </trkpt>
      <trkpt lat="45.94904" lon="4.7436">
        <ele>191</ele>
        <time>2017-03-27T08:46:01Z</time>
      </trkpt>
      <trkpt lat="45.94908" lon="4.74367">
        <ele>191</ele>
        <time>2017-03-27T08:46:02Z</time>
      </trkpt>
      <trkpt lat="45.94911" lon="4.74373">
        <ele>191</ele>
        <time>2017-03-27T08:46:03Z</time>
      </trkpt>
      <trkpt lat="45.94914" lon="4.74379">
        <ele>191</ele>
        <time>2017-03-27T08:46:04Z</time>
      </trkpt>
      <trkpt lat="45.94917" lon="4.74385">
        <ele>191</ele>
        <time>2017-03-27T08:46:05Z</time>
      </trkpt>
      <trkpt lat="45.94919" lon="4.7439">
        <ele>192</ele>
        <time>2017-03-27T08:46:06Z</time>
      </trkpt>
      <trkpt lat="45.94923" lon="4.74395">
        <ele>192</ele>
        <time>2017-03-27T08:46:07Z</time>
      </trkpt>
      <trkpt lat="45.94925" lon="4.74401">
        <ele>192</ele>
        <time>2017-03-27T08:46:08Z</time>
      </trkpt>
      <trkpt lat="45.94928" lon="4.74406">
        <ele>192</ele>
        <time>2017-03-27T08:46:09Z</time>
      </trkpt>
      <trkpt lat="45.94931" lon="4.74412">
        <ele>192</ele>
        <time>2017-03-27T08:46:10Z</time>
      </trkpt>
      <trkpt lat="45.94934" lon="4.74418">
        <ele>192</ele>
        <time>2017-03-27T08:46:11Z</time>
      </trkpt>
      <trkpt lat="45.94936" lon="4.74423">
        <ele>192</ele>
        <time>2017-03-27T08:46:12Z</time>
      </trkpt>
      <trkpt lat="45.94939" lon="4.74428">
        <ele>192</ele>
        <time>2017-03-27T08:46:13Z</time>
      </trkpt>
      <trkpt lat="45.94942" lon="4.74433">
        <ele>192</ele>
        <time>2017-03-27T08:46:14Z</time>
      </trkpt>
      <trkpt lat="45.94945" lon="4.74439">
        <ele>192</ele>
        <time>2017-03-27T08:46:15Z</time>
      </trkpt>
      <trkpt lat="45.94948" lon="4.74444">
        <ele>192</ele>
        <time>2017-03-27T08:46:16Z</time>
      </trkpt>
      <trkpt lat="45.94951" lon="4.7445">
        <ele>192</ele>
        <time>2017-03-27T08:46:17Z</time>
      </trkpt>
      <trkpt lat="45.94954" lon="4.74455">
        <ele>192</ele>
        <time>2017-03-27T08:46:18Z</time>
      </trkpt>
      <trkpt lat="45.94956" lon="4.74461">
        <ele>193</ele>
        <time>2017-03-27T08:46:19Z</time>
      </trkpt>
      <trkpt lat="45.94959" lon="4.74467">
        <ele>193</ele>
        <time>2017-03-27T08:46:20Z</time>
      </trkpt>
      <trkpt lat="45.94962" lon="4.74473">
        <ele>193</ele>
        <time>2017-03-27T08:46:21Z</time>
      </trkpt>
      <trkpt lat="45.94964" lon="4.74478">
        <ele>193</ele>
        <time>2017-03-27T08:46:22Z</time>
      </trkpt>
      <trkpt lat="45.94967" lon="4.74484">
        <ele>193</ele>
        <time>2017-03-27T08:46:23Z</time>
      </trkpt>
      <trkpt lat="45.9497" lon="4.7449">
        <ele>193</ele>
        <time>2017-03-27T08:46:24Z</time>
      </trkpt>
      <trkpt lat="45.94973" lon="4.74496">
        <ele>193</ele>
        <time>2017-03-27T08:46:25Z</time>
      </trkpt>
      <trkpt lat="45.94976" lon="4.74502">
        <ele>193</ele>
        <time>2017-03-27T08:46:26Z</time>
      </trkpt>
      <trkpt lat="45.94978" lon="4.74508">
        <ele>193</ele>
        <time>2017-03-27T08:46:27Z</time>
      </trkpt>
      <trkpt lat="45.94981" lon="4.74514">
        <ele>193</ele>
        <time>2017-03-27T08:46:28Z</time>
      </trkpt>
      <trkpt lat="45.94984" lon="4.74519">
        <ele>193</ele>
        <time>2017-03-27T08:46:29Z</time>
      </trkpt>
      <trkpt lat="45.94987" lon="4.74525">
        <ele>193</ele>
        <time>2017-03-27T08:46:30Z</time>
      </trkpt>
      <trkpt lat="45.9499" lon="4.74531">
        <ele>193</ele>
        <time>2017-03-27T08:46:31Z</time>
      </trkpt>
      <trkpt lat="45.94993" lon="4.74537">
        <ele>193</ele>
        <time>2017-03-27T08:46:32Z</time>
      </trkpt>
      <trkpt lat="45.94996" lon="4.74542">
        <ele>193</ele>
        <time>2017-03-27T08:46:33Z</time>
      </trkpt>
      <trkpt lat="45.94998" lon="4.74548">
        <ele>193</ele>
        <time>2017-03-27T08:46:34Z</time>
      </trkpt>
      <trkpt lat="45.95001" lon="4.74553">
        <ele>194</ele>
        <time>2017-03-27T08:46:35Z</time>
      </trkpt>
      <trkpt lat="45.95004" lon="4.74558">
        <ele>194</ele>
        <time>2017-03-27T08:46:36Z</time>
      </trkpt>
      <trkpt lat="45.95007" lon="4.74563">
        <ele>194</ele>
        <time>2017-03-27T08:46:37Z</time>
      </trkpt>
      <trkpt lat="45.9501" lon="4.74568">
        <ele>194</ele>
        <time>2017-03-27T08:46:38Z</time>
      </trkpt>
      <trkpt lat="45.95014" lon="4.74574">
        <ele>194</ele>
        <time>2017-03-27T08:46:39Z</time>
      </trkpt>
      <trkpt lat="45.95017" lon="4.74579">
        <ele>194</ele>
        <time>2017-03-27T08:46:40Z</time>
      </trkpt>
      <trkpt lat="45.9502" lon="4.74585">
        <ele>194</ele>
        <time>2017-03-27T08:46:41Z</time>
      </trkpt>
      <trkpt lat="45.95023" lon="4.74591">
        <ele>194</ele>
        <time>2017-03-27T08:46:42Z</time>
      </trkpt>
      <trkpt lat="45.95026" lon="4.74596">
        <ele>194</ele>
        <time>2017-03-27T08:46:43Z</time>
      </trkpt>
      <trkpt lat="45.95029" lon="4.74602">
        <ele>194</ele>
        <time>2017-03-27T08:46:44Z</time>
      </trkpt>
      <trkpt lat="45.95033" lon="4.74608">
        <ele>194</ele>
        <time>2017-03-27T08:46:45Z</time>
      </trkpt>
      <trkpt lat="45.95036" lon="4.74614">
        <ele>194</ele>
        <time>2017-03-27T08:46:46Z</time>
      </trkpt>
      <trkpt lat="45.95039" lon="4.7462">
        <ele>194</ele>
        <time>2017-03-27T08:46:47Z</time>
      </trkpt>
      <trkpt lat="45.95042" lon="4.74626">
        <ele>194</ele>
        <time>2017-03-27T08:46:48Z</time>
      </trkpt>
      <trkpt lat="45.95045" lon="4.74632">
        <ele>194</ele>
        <time>2017-03-27T08:46:49Z</time>
      </trkpt>
      <trkpt lat="45.95049" lon="4.74638">
        <ele>194</ele>
        <time>2017-03-27T08:46:50Z</time>
      </trkpt>
      <trkpt lat="45.95053" lon="4.74644">
        <ele>194</ele>
        <time>2017-03-27T08:46:51Z</time>
      </trkpt>
      <trkpt lat="45.95057" lon="4.7465">
        <ele>194</ele>
        <time>2017-03-27T08:46:52Z</time>
      </trkpt>
      <trkpt lat="45.9506" lon="4.74657">
        <ele>194</ele>
        <time>2017-03-27T08:46:53Z</time>
      </trkpt>
      <trkpt lat="45.95063" lon="4.74663">
        <ele>195</ele>
        <time>2017-03-27T08:46:54Z</time>
      </trkpt>
      <trkpt lat="45.95067" lon="4.74669">
        <ele>194</ele>
        <time>2017-03-27T08:46:55Z</time>
      </trkpt>
      <trkpt lat="45.95071" lon="4.74676">
        <ele>194</ele>
        <time>2017-03-27T08:46:56Z</time>
      </trkpt>
      <trkpt lat="45.95074" lon="4.74682">
        <ele>194</ele>
        <time>2017-03-27T08:46:57Z</time>
      </trkpt>
      <trkpt lat="45.95078" lon="4.74689">
        <ele>194</ele>
        <time>2017-03-27T08:46:58Z</time>
      </trkpt>
      <trkpt lat="45.95081" lon="4.74695">
        <ele>194</ele>
        <time>2017-03-27T08:46:59Z</time>
      </trkpt>
      <trkpt lat="45.95084" lon="4.74701">
        <ele>194</ele>
        <time>2017-03-27T08:47:00Z</time>
      </trkpt>
      <trkpt lat="45.95087" lon="4.74707">
        <ele>194</ele>
        <time>2017-03-27T08:47:01Z</time>
      </trkpt>
      <trkpt lat="45.95091" lon="4.74712">
        <ele>194</ele>
        <time>2017-03-27T08:47:02Z</time>
      </trkpt>
      <trkpt lat="45.95094" lon="4.74718">
        <ele>194</ele>
        <time>2017-03-27T08:47:03Z</time>
      </trkpt>
      <trkpt lat="45.95097" lon="4.74723">
        <ele>194</ele>
        <time>2017-03-27T08:47:04Z</time>
      </trkpt>
      <trkpt lat="45.951" lon="4.7473">
        <ele>194</ele>
        <time>2017-03-27T08:47:05Z</time>
      </trkpt>
      <trkpt lat="45.95104" lon="4.74736">
        <ele>194</ele>
        <time>2017-03-27T08:47:06Z</time>
      </trkpt>
      <trkpt lat="45.95108" lon="4.74742">
        <ele>194</ele>
        <time>2017-03-27T08:47:07Z</time>
      </trkpt>
      <trkpt lat="45.95111" lon="4.74747">
        <ele>194</ele>
        <time>2017-03-27T08:47:08Z</time>
      </trkpt>
      <trkpt lat="45.95115" lon="4.74753">
        <ele>194</ele>
        <time>2017-03-27T08:47:09Z</time>
      </trkpt>
      <trkpt lat="45.95118" lon="4.74758">
        <ele>194</ele>
        <time>2017-03-27T08:47:10Z</time>
      </trkpt>
      <trkpt lat="45.95122" lon="4.74764">
        <ele>194</ele>
        <time>2017-03-27T08:47:11Z</time>
      </trkpt>
      <trkpt lat="45.95125" lon="4.74769">
        <ele>194</ele>
        <time>2017-03-27T08:47:12Z</time>
      </trkpt>
      <trkpt lat="45.95128" lon="4.74774">
        <ele>194</ele>
        <time>2017-03-27T08:47:13Z</time>
      </trkpt>
      <trkpt lat="45.95132" lon="4.74779">
        <ele>194</ele>
        <time>2017-03-27T08:47:14Z</time>
      </trkpt>
      <trkpt lat="45.95135" lon="4.74785">
        <ele>194</ele>
        <time>2017-03-27T08:47:15Z</time>
      </trkpt>
      <trkpt lat="45.95138" lon="4.7479">
        <ele>194</ele>
        <time>2017-03-27T08:47:16Z</time>
      </trkpt>
      <trkpt lat="45.95142" lon="4.74795">
        <ele>194</ele>
        <time>2017-03-27T08:47:17Z</time>
      </trkpt>
      <trkpt lat="45.95145" lon="4.74801">
        <ele>194</ele>
        <time>2017-03-27T08:47:18Z</time>
      </trkpt>
      <trkpt lat="45.95149" lon="4.74806">
        <ele>194</ele>
        <time>2017-03-27T08:47:19Z</time>
      </trkpt>
      <trkpt lat="45.95152" lon="4.74812">
        <ele>194</ele>
        <time>2017-03-27T08:47:20Z</time>
      </trkpt>
      <trkpt lat="45.95156" lon="4.74817">
        <ele>194</ele>
        <time>2017-03-27T08:47:21Z</time>
      </trkpt>
      <trkpt lat="45.95159" lon="4.74822">
        <ele>194</ele>
        <time>2017-03-27T08:47:22Z</time>
      </trkpt>
      <trkpt lat="45.95162" lon="4.74828">
        <ele>194</ele>
        <time>2017-03-27T08:47:23Z</time>
      </trkpt>
      <trkpt lat="45.95165" lon="4.74833">
        <ele>194</ele>
        <time>2017-03-27T08:47:24Z</time>
      </trkpt>
      <trkpt lat="45.95169" lon="4.74839">
        <ele>194</ele>
        <time>2017-03-27T08:47:25Z</time>
      </trkpt>
      <trkpt lat="45.95172" lon="4.74845">
        <ele>194</ele>
        <time>2017-03-27T08:47:26Z</time>
      </trkpt>
      <trkpt lat="45.95175" lon="4.7485">
        <ele>194</ele>
        <time>2017-03-27T08:47:27Z</time>
      </trkpt>
      <trkpt lat="45.95179" lon="4.74855">
        <ele>194</ele>
        <time>2017-03-27T08:47:28Z</time>
      </trkpt>
      <trkpt lat="45.95182" lon="4.74861">
        <ele>194</ele>
        <time>2017-03-27T08:47:29Z</time>
      </trkpt>
      <trkpt lat="45.95187" lon="4.74867">
        <ele>194</ele>
        <time>2017-03-27T08:47:30Z</time>
      </trkpt>
      <trkpt lat="45.95191" lon="4.74873">
        <ele>194</ele>
        <time>2017-03-27T08:47:31Z</time>
      </trkpt>
      <trkpt lat="45.95195" lon="4.74879">
        <ele>194</ele>
        <time>2017-03-27T08:47:32Z</time>
      </trkpt>
      <trkpt lat="45.95198" lon="4.74885">
        <ele>194</ele>
        <time>2017-03-27T08:47:33Z</time>
      </trkpt>
      <trkpt lat="45.95201" lon="4.7489">
        <ele>194</ele>
        <time>2017-03-27T08:47:34Z</time>
      </trkpt>
      <trkpt lat="45.95206" lon="4.74896">
        <ele>194</ele>
        <time>2017-03-27T08:47:35Z</time>
      </trkpt>
      <trkpt lat="45.95209" lon="4.74902">
        <ele>193</ele>
        <time>2017-03-27T08:47:36Z</time>
      </trkpt>
      <trkpt lat="45.95213" lon="4.74907">
        <ele>193</ele>
        <time>2017-03-27T08:47:37Z</time>
      </trkpt>
      <trkpt lat="45.95217" lon="4.74912">
        <ele>193</ele>
        <time>2017-03-27T08:47:38Z</time>
      </trkpt>
      <trkpt lat="45.9522" lon="4.74917">
        <ele>192</ele>
        <time>2017-03-27T08:47:39Z</time>
      </trkpt>
      <trkpt lat="45.95224" lon="4.74923">
        <ele>192</ele>
        <time>2017-03-27T08:47:40Z</time>
      </trkpt>
      <trkpt lat="45.95227" lon="4.74928">
        <ele>192</ele>
        <time>2017-03-27T08:47:41Z</time>
      </trkpt>
      <trkpt lat="45.95231" lon="4.74933">
        <ele>192</ele>
        <time>2017-03-27T08:47:42Z</time>
      </trkpt>
      <trkpt lat="45.95234" lon="4.74939">
        <ele>192</ele>
        <time>2017-03-27T08:47:43Z</time>
      </trkpt>
      <trkpt lat="45.95238" lon="4.74945">
        <ele>192</ele>
        <time>2017-03-27T08:47:44Z</time>
      </trkpt>
      <trkpt lat="45.95241" lon="4.74951">
        <ele>192</ele>
        <time>2017-03-27T08:47:45Z</time>
      </trkpt>
      <trkpt lat="45.95245" lon="4.74957">
        <ele>192</ele>
        <time>2017-03-27T08:47:46Z</time>
      </trkpt>
      <trkpt lat="45.95248" lon="4.74963">
        <ele>191</ele>
        <time>2017-03-27T08:47:47Z</time>
      </trkpt>
      <trkpt lat="45.95252" lon="4.74968">
        <ele>192</ele>
        <time>2017-03-27T08:47:48Z</time>
      </trkpt>
      <trkpt lat="45.95255" lon="4.74974">
        <ele>192</ele>
        <time>2017-03-27T08:47:49Z</time>
      </trkpt>
      <trkpt lat="45.95259" lon="4.74979">
        <ele>192</ele>
        <time>2017-03-27T08:47:50Z</time>
      </trkpt>
      <trkpt lat="45.95262" lon="4.74985">
        <ele>192</ele>
        <time>2017-03-27T08:47:51Z</time>
      </trkpt>
      <trkpt lat="45.95266" lon="4.7499">
        <ele>192</ele>
        <time>2017-03-27T08:47:52Z</time>
      </trkpt>
      <trkpt lat="45.95269" lon="4.74996">
        <ele>192</ele>
        <time>2017-03-27T08:47:53Z</time>
      </trkpt>
      <trkpt lat="45.95273" lon="4.75002">
        <ele>191</ele>
        <time>2017-03-27T08:47:54Z</time>
      </trkpt>
      <trkpt lat="45.95277" lon="4.75008">
        <ele>191</ele>
        <time>2017-03-27T08:47:55Z</time>
      </trkpt>
      <trkpt lat="45.9528" lon="4.75014">
        <ele>191</ele>
        <time>2017-03-27T08:47:56Z</time>
      </trkpt>
      <trkpt lat="45.95284" lon="4.7502">
        <ele>191</ele>
        <time>2017-03-27T08:47:57Z</time>
      </trkpt>
      <trkpt lat="45.95288" lon="4.75026">
        <ele>191</ele>
        <time>2017-03-27T08:47:58Z</time>
      </trkpt>
      <trkpt lat="45.95292" lon="4.75032">
        <ele>191</ele>
        <time>2017-03-27T08:47:59Z</time>
      </trkpt>
      <trkpt lat="45.95296" lon="4.75038">
        <ele>191</ele>
        <time>2017-03-27T08:48:00Z</time>
      </trkpt>
      <trkpt lat="45.953" lon="4.75043">
        <ele>191</ele>
        <time>2017-03-27T08:48:01Z</time>
      </trkpt>
      <trkpt lat="45.95303" lon="4.75049">
        <ele>191</ele>
        <time>2017-03-27T08:48:02Z</time>
      </trkpt>
      <trkpt lat="45.95306" lon="4.75055">
        <ele>192</ele>
        <time>2017-03-27T08:48:03Z</time>
      </trkpt>
      <trkpt lat="45.9531" lon="4.75061">
        <ele>192</ele>
        <time>2017-03-27T08:48:04Z</time>
      </trkpt>
      <trkpt lat="45.95313" lon="4.75066">
        <ele>192</ele>
        <time>2017-03-27T08:48:05Z</time>
      </trkpt>
      <trkpt lat="45.95317" lon="4.75072">
        <ele>192</ele>
        <time>2017-03-27T08:48:06Z</time>
      </trkpt>
      <trkpt lat="45.95321" lon="4.75078">
        <ele>192</ele>
        <time>2017-03-27T08:48:07Z</time>
      </trkpt>
      <trkpt lat="45.95325" lon="4.75083">
        <ele>192</ele>
        <time>2017-03-27T08:48:08Z</time>
      </trkpt>
      <trkpt lat="45.95328" lon="4.7509">
        <ele>192</ele>
        <time>2017-03-27T08:48:09Z</time>
      </trkpt>
      <trkpt lat="45.95332" lon="4.75096">
        <ele>191</ele>
        <time>2017-03-27T08:48:10Z</time>
      </trkpt>
      <trkpt lat="45.95336" lon="4.75103">
        <ele>192</ele>
        <time>2017-03-27T08:48:11Z</time>
      </trkpt>
      <trkpt lat="45.9534" lon="4.7511">
        <ele>192</ele>
        <time>2017-03-27T08:48:12Z</time>
      </trkpt>
      <trkpt lat="45.95344" lon="4.75116">
        <ele>192</ele>
        <time>2017-03-27T08:48:13Z</time>
      </trkpt>
      <trkpt lat="45.95349" lon="4.75123">
        <ele>191</ele>
        <time>2017-03-27T08:48:14Z</time>
      </trkpt>
      <trkpt lat="45.95353" lon="4.75129">
        <ele>191</ele>
        <time>2017-03-27T08:48:15Z</time>
      </trkpt>
      <trkpt lat="45.95357" lon="4.75136">
        <ele>191</ele>
        <time>2017-03-27T08:48:16Z</time>
      </trkpt>
      <trkpt lat="45.95361" lon="4.75143">
        <ele>191</ele>
        <time>2017-03-27T08:48:17Z</time>
      </trkpt>
      <trkpt lat="45.95366" lon="4.7515">
        <ele>191</ele>
        <time>2017-03-27T08:48:18Z</time>
      </trkpt>
      <trkpt lat="45.9537" lon="4.75156">
        <ele>191</ele>
        <time>2017-03-27T08:48:19Z</time>
      </trkpt>
      <trkpt lat="45.95375" lon="4.75163">
        <ele>191</ele>
        <time>2017-03-27T08:48:20Z</time>
      </trkpt>
      <trkpt lat="45.9538" lon="4.75169">
        <ele>189</ele>
        <time>2017-03-27T08:48:21Z</time>
      </trkpt>
      <trkpt lat="45.95384" lon="4.75176">
        <ele>189</ele>
        <time>2017-03-27T08:48:22Z</time>
      </trkpt>
      <trkpt lat="45.95388" lon="4.75182">
        <ele>189</ele>
        <time>2017-03-27T08:48:23Z</time>
      </trkpt>
      <trkpt lat="45.95392" lon="4.75189">
        <ele>189</ele>
        <time>2017-03-27T08:48:24Z</time>
      </trkpt>
      <trkpt lat="45.95396" lon="4.75196">
        <ele>189</ele>
        <time>2017-03-27T08:48:25Z</time>
      </trkpt>
      <trkpt lat="45.954" lon="4.75203">
        <ele>189</ele>
        <time>2017-03-27T08:48:26Z</time>
      </trkpt>
      <trkpt lat="45.95403" lon="4.7521">
        <ele>189</ele>
        <time>2017-03-27T08:48:27Z</time>
      </trkpt>
      <trkpt lat="45.95407" lon="4.75217">
        <ele>189</ele>
        <time>2017-03-27T08:48:28Z</time>
      </trkpt>
      <trkpt lat="45.95411" lon="4.75223">
        <ele>189</ele>
        <time>2017-03-27T08:48:29Z</time>
      </trkpt>
      <trkpt lat="45.95414" lon="4.7523">
        <ele>189</ele>
        <time>2017-03-27T08:48:30Z</time>
      </trkpt>
      <trkpt lat="45.95418" lon="4.75237">
        <ele>190</ele>
        <time>2017-03-27T08:48:31Z</time>
      </trkpt>
      <trkpt lat="45.95421" lon="4.75244">
        <ele>190</ele>
        <time>2017-03-27T08:48:32Z</time>
      </trkpt>
      <trkpt lat="45.95425" lon="4.7525">
        <ele>189</ele>
        <time>2017-03-27T08:48:33Z</time>
      </trkpt>
      <trkpt lat="45.95429" lon="4.75257">
        <ele>189</ele>
        <time>2017-03-27T08:48:34Z</time>
      </trkpt>
      <trkpt lat="45.95432" lon="4.75264">
        <ele>189</ele>
        <time>2017-03-27T08:48:35Z</time>
      </trkpt>
      <trkpt lat="45.95436" lon="4.75271">
        <ele>189</ele>
        <time>2017-03-27T08:48:36Z</time>
      </trkpt>
      <trkpt lat="45.95439" lon="4.75278">
        <ele>188</ele>
        <time>2017-03-27T08:48:37Z</time>
      </trkpt>
      <trkpt lat="45.95443" lon="4.75285">
        <ele>188</ele>
        <time>2017-03-27T08:48:38Z</time>
      </trkpt>
      <trkpt lat="45.95447" lon="4.75292">
        <ele>188</ele>
        <time>2017-03-27T08:48:39Z</time>
      </trkpt>
      <trkpt lat="45.95451" lon="4.75299">
        <ele>188</ele>
        <time>2017-03-27T08:48:40Z</time>
      </trkpt>
      <trkpt lat="45.95454" lon="4.75306">
        <ele>188</ele>
        <time>2017-03-27T08:48:41Z</time>
      </trkpt>
      <trkpt lat="45.95458" lon="4.75313">
        <ele>188</ele>
        <time>2017-03-27T08:48:42Z</time>
      </trkpt>
      <trkpt lat="45.95461" lon="4.7532">
        <ele>188</ele>
        <time>2017-03-27T08:48:43Z</time>
      </trkpt>
      <trkpt lat="45.95465" lon="4.75327">
        <ele>188</ele>
        <time>2017-03-27T08:48:44Z</time>
      </trkpt>
      <trkpt lat="45.95469" lon="4.75334">
        <ele>186</ele>
        <time>2017-03-27T08:48:45Z</time>
      </trkpt>
      <trkpt lat="45.95473" lon="4.75342">
        <ele>186</ele>
        <time>2017-03-27T08:48:46Z</time>
      </trkpt>
      <trkpt lat="45.95477" lon="4.75349">
        <ele>186</ele>
        <time>2017-03-27T08:48:47Z</time>
      </trkpt>
      <trkpt lat="45.95481" lon="4.75355">
        <ele>186</ele>
        <time>2017-03-27T08:48:48Z</time>
      </trkpt>
      <trkpt lat="45.95485" lon="4.75362">
        <ele>186</ele>
        <time>2017-03-27T08:48:49Z</time>
      </trkpt>
      <trkpt lat="45.95488" lon="4.7537">
        <ele>185</ele>
        <time>2017-03-27T08:48:50Z</time>
      </trkpt>
      <trkpt lat="45.95491" lon="4.75378">
        <ele>185</ele>
        <time>2017-03-27T08:48:51Z</time>
      </trkpt>
      <trkpt lat="45.95494" lon="4.75386">
        <ele>185</ele>
        <time>2017-03-27T08:48:52Z</time>
      </trkpt>
      <trkpt lat="45.95497" lon="4.75394">
        <ele>185</ele>
        <time>2017-03-27T08:48:53Z</time>
      </trkpt>
      <trkpt lat="45.955" lon="4.75402">
        <ele>185</ele>
        <time>2017-03-27T08:48:54Z</time>
      </trkpt>
      <trkpt lat="45.95503" lon="4.7541">
        <ele>186</ele>
        <time>2017-03-27T08:48:55Z</time>
      </trkpt>
      <trkpt lat="45.95505" lon="4.75419">
        <ele>186</ele>
        <time>2017-03-27T08:48:56Z</time>
      </trkpt>
      <trkpt lat="45.95507" lon="4.75428">
        <ele>186</ele>
        <time>2017-03-27T08:48:57Z</time>
      </trkpt>
      <trkpt lat="45.95509" lon="4.75438">
        <ele>186</ele>
        <time>2017-03-27T08:48:58Z</time>
      </trkpt>
      <trkpt lat="45.95509" lon="4.75448">
        <ele>187</ele>
        <time>2017-03-27T08:48:59Z</time>
      </trkpt>
      <trkpt lat="45.95509" lon="4.75458">
        <ele>187</ele>
        <time>2017-03-27T08:49:00Z</time>
      </trkpt>
      <trkpt lat="45.95509" lon="4.75467">
        <ele>186</ele>
        <time>2017-03-27T08:49:01Z</time>
      </trkpt>
      <trkpt lat="45.95509" lon="4.75477">
        <ele>186</ele>
        <time>2017-03-27T08:49:02Z</time>
      </trkpt>
      <trkpt lat="45.95512" lon="4.75486">
        <ele>186</ele>
        <time>2017-03-27T08:49:03Z</time>
      </trkpt>
      <trkpt lat="45.95516" lon="4.75494">
        <ele>186</ele>
        <time>2017-03-27T08:49:04Z</time>
      </trkpt>
      <trkpt lat="45.95521" lon="4.75498">
        <ele>186</ele>
        <time>2017-03-27T08:49:05Z</time>
      </trkpt>
      <trkpt lat="45.95527" lon="4.75501">
        <ele>185</ele>
        <time>2017-03-27T08:49:06Z</time>
      </trkpt>
      <trkpt lat="45.95532" lon="4.75505">
        <ele>185</ele>
        <time>2017-03-27T08:49:07Z</time>
      </trkpt>
      <trkpt lat="45.95537" lon="4.7551">
        <ele>186</ele>
        <time>2017-03-27T08:49:08Z</time>
      </trkpt>
      <trkpt lat="45.95541" lon="4.75515">
        <ele>186</ele>
        <time>2017-03-27T08:49:09Z</time>
      </trkpt>
      <trkpt lat="45.95546" lon="4.7552">
        <ele>186</ele>
        <time>2017-03-27T08:49:10Z</time>
      </trkpt>
      <trkpt lat="45.95551" lon="4.75525">
        <ele>186</ele>
        <time>2017-03-27T08:49:11Z</time>
      </trkpt>
      <trkpt lat="45.95556" lon="4.7553">
        <ele>186</ele>
        <time>2017-03-27T08:49:12Z</time>
      </trkpt>
      <trkpt lat="45.9556" lon="4.75535">
        <ele>186</ele>
        <time>2017-03-27T08:49:13Z</time>
      </trkpt>
      <trkpt lat="45.95565" lon="4.75539">
        <ele>186</ele>
        <time>2017-03-27T08:49:14Z</time>
      </trkpt>
      <trkpt lat="45.9557" lon="4.75544">
        <ele>186</ele>
        <time>2017-03-27T08:49:15Z</time>
      </trkpt>
      <trkpt lat="45.95575" lon="4.75549">
        <ele>186</ele>
        <time>2017-03-27T08:49:16Z</time>
      </trkpt>
      <trkpt lat="45.9558" lon="4.75555">
        <ele>186</ele>
        <time>2017-03-27T08:49:17Z</time>
      </trkpt>
      <trkpt lat="45.95584" lon="4.75561">
        <ele>188</ele>
        <time>2017-03-27T08:49:18Z</time>
      </trkpt>
      <trkpt lat="45.95588" lon="4.75567">
        <ele>188</ele>
        <time>2017-03-27T08:49:19Z</time>
      </trkpt>
      <trkpt lat="45.95592" lon="4.75574">
        <ele>187</ele>
        <time>2017-03-27T08:49:20Z</time>
      </trkpt>
      <trkpt lat="45.95596" lon="4.75582">
        <ele>187</ele>
        <time>2017-03-27T08:49:21Z</time>
      </trkpt>
      <trkpt lat="45.95599" lon="4.75589">
        <ele>187</ele>
        <time>2017-03-27T08:49:22Z</time>
      </trkpt>
      <trkpt lat="45.95602" lon="4.75597">
        <ele>187</ele>
        <time>2017-03-27T08:49:23Z</time>
      </trkpt>
      <trkpt lat="45.95606" lon="4.75604">
        <ele>187</ele>
        <time>2017-03-27T08:49:24Z</time>
      </trkpt>
      <trkpt lat="45.95608" lon="4.75612">
        <ele>188</ele>
        <time>2017-03-27T08:49:25Z</time>
      </trkpt>
      <trkpt lat="45.9561" lon="4.75619">
        <ele>188</ele>
        <time>2017-03-27T08:49:26Z</time>
      </trkpt>
      <trkpt lat="45.95612" lon="4.75626">
        <ele>188</ele>
        <time>2017-03-27T08:49:27Z</time>
      </trkpt>
      <trkpt lat="45.95614" lon="4.75633">
        <ele>188</ele>
        <time>2017-03-27T08:49:28Z</time>
      </trkpt>
      <trkpt lat="45.95616" lon="4.7564">
        <ele>188</ele>
        <time>2017-03-27T08:49:29Z</time>
      </trkpt>
      <trkpt lat="45.95617" lon="4.75648">
        <ele>188</ele>
        <time>2017-03-27T08:49:30Z</time>
      </trkpt>
      <trkpt lat="45.95618" lon="4.75655">
        <ele>188</ele>
        <time>2017-03-27T08:49:31Z</time>
      </trkpt>
      <trkpt lat="45.9562" lon="4.75663">
        <ele>188</ele>
        <time>2017-03-27T08:49:32Z</time>
      </trkpt>
      <trkpt lat="45.95621" lon="4.75671">
        <ele>187</ele>
        <time>2017-03-27T08:49:33Z</time>
      </trkpt>
      <trkpt lat="45.95622" lon="4.75678">
        <ele>187</ele>
        <time>2017-03-27T08:49:34Z</time>
      </trkpt>
      <trkpt lat="45.95623" lon="4.75687">
        <ele>187</ele>
        <time>2017-03-27T08:49:35Z</time>
      </trkpt>
      <trkpt lat="45.95624" lon="4.75695">
        <ele>187</ele>
        <time>2017-03-27T08:49:36Z</time>
      </trkpt>
      <trkpt lat="45.95625" lon="4.75703">
        <ele>187</ele>
        <time>2017-03-27T08:49:37Z</time>
      </trkpt>
      <trkpt lat="45.95626" lon="4.75711">
        <ele>187</ele>
        <time>2017-03-27T08:49:38Z</time>
      </trkpt>
      <trkpt lat="45.95628" lon="4.7572">
        <ele>187</ele>
        <time>2017-03-27T08:49:39Z</time>
      </trkpt>
      <trkpt lat="45.95629" lon="4.75728">
        <ele>187</ele>
        <time>2017-03-27T08:49:40Z</time>
      </trkpt>
      <trkpt lat="45.9563" lon="4.75736">
        <ele>187</ele>
        <time>2017-03-27T08:49:41Z</time>
      </trkpt>
      <trkpt lat="45.95631" lon="4.75743">
        <ele>187</ele>
        <time>2017-03-27T08:49:42Z</time>
      </trkpt>
      <trkpt lat="45.95632" lon="4.75751">
        <ele>186</ele>
        <time>2017-03-27T08:49:43Z</time>
      </trkpt>
      <trkpt lat="45.95633" lon="4.75759">
        <ele>186</ele>
        <time>2017-03-27T08:49:44Z</time>
      </trkpt>
      <trkpt lat="45.95634" lon="4.75766">
        <ele>186</ele>
        <time>2017-03-27T08:49:45Z</time>
      </trkpt>
      <trkpt lat="45.95635" lon="4.75774">
        <ele>186</ele>
        <time>2017-03-27T08:49:46Z</time>
      </trkpt>
      <trkpt lat="45.95637" lon="4.75782">
        <ele>185</ele>
        <time>2017-03-27T08:49:47Z</time>
      </trkpt>
      <trkpt lat="45.95638" lon="4.7579">
        <ele>185</ele>
        <time>2017-03-27T08:49:48Z</time>
      </trkpt>
      <trkpt lat="45.95639" lon="4.75798">
        <ele>185</ele>
        <time>2017-03-27T08:49:49Z</time>
      </trkpt>
      <trkpt lat="45.95641" lon="4.75806">
        <ele>185</ele>
        <time>2017-03-27T08:49:50Z</time>
      </trkpt>
      <trkpt lat="45.95642" lon="4.75814">
        <ele>185</ele>
        <time>2017-03-27T08:49:51Z</time>
      </trkpt>
      <trkpt lat="45.95644" lon="4.75822">
        <ele>185</ele>
        <time>2017-03-27T08:49:52Z</time>
      </trkpt>
      <trkpt lat="45.95646" lon="4.7583">
        <ele>185</ele>
        <time>2017-03-27T08:49:53Z</time>
      </trkpt>
      <trkpt lat="45.95648" lon="4.75839">
        <ele>185</ele>
        <time>2017-03-27T08:49:54Z</time>
      </trkpt>
      <trkpt lat="45.9565" lon="4.75847">
        <ele>185</ele>
        <time>2017-03-27T08:49:55Z</time>
      </trkpt>
      <trkpt lat="45.95652" lon="4.75855">
        <ele>184</ele>
        <time>2017-03-27T08:49:56Z</time>
      </trkpt>
      <trkpt lat="45.95655" lon="4.75863">
        <ele>184</ele>
        <time>2017-03-27T08:49:57Z</time>
      </trkpt>
      <trkpt lat="45.95657" lon="4.75871">
        <ele>184</ele>
        <time>2017-03-27T08:49:58Z</time>
      </trkpt>
      <trkpt lat="45.9566" lon="4.75878">
        <ele>184</ele>
        <time>2017-03-27T08:49:59Z</time>
      </trkpt>
      <trkpt lat="45.95661" lon="4.75886">
        <ele>184</ele>
        <time>2017-03-27T08:50:00Z</time>
      </trkpt>
      <trkpt lat="45.95663" lon="4.75893">
        <ele>184</ele>
        <time>2017-03-27T08:50:01Z</time>
      </trkpt>
      <trkpt lat="45.95666" lon="4.759">
        <ele>184</ele>
        <time>2017-03-27T08:50:02Z</time>
      </trkpt>
      <trkpt lat="45.95668" lon="4.75908">
        <ele>185</ele>
        <time>2017-03-27T08:50:03Z</time>
      </trkpt>
      <trkpt lat="45.95671" lon="4.75915">
        <ele>184</ele>
        <time>2017-03-27T08:50:04Z</time>
      </trkpt>
      <trkpt lat="45.95674" lon="4.75922">
        <ele>184</ele>
        <time>2017-03-27T08:50:05Z</time>
      </trkpt>
      <trkpt lat="45.95677" lon="4.75929">
        <ele>185</ele>
        <time>2017-03-27T08:50:06Z</time>
      </trkpt>
      <trkpt lat="45.9568" lon="4.75936">
        <ele>185</ele>
        <time>2017-03-27T08:50:07Z</time>
      </trkpt>
      <trkpt lat="45.95683" lon="4.75943">
        <ele>185</ele>
        <time>2017-03-27T08:50:08Z</time>
      </trkpt>
      <trkpt lat="45.95686" lon="4.7595">
        <ele>185</ele>
        <time>2017-03-27T08:50:09Z</time>
      </trkpt>
      <trkpt lat="45.95689" lon="4.75957">
        <ele>185</ele>
        <time>2017-03-27T08:50:10Z</time>
      </trkpt>
      <trkpt lat="45.95693" lon="4.75964">
        <ele>185</ele>
        <time>2017-03-27T08:50:11Z</time>
      </trkpt>
      <trkpt lat="45.95696" lon="4.75971">
        <ele>185</ele>
        <time>2017-03-27T08:50:12Z</time>
      </trkpt>
      <trkpt lat="45.95699" lon="4.75978">
        <ele>185</ele>
        <time>2017-03-27T08:50:13Z</time>
      </trkpt>
      <trkpt lat="45.95702" lon="4.75985">
        <ele>185</ele>
        <time>2017-03-27T08:50:14Z</time>
      </trkpt>
      <trkpt lat="45.95706" lon="4.75991">
        <ele>185</ele>
        <time>2017-03-27T08:50:15Z</time>
      </trkpt>
      <trkpt lat="45.95709" lon="4.75998">
        <ele>185</ele>
        <time>2017-03-27T08:50:16Z</time>
      </trkpt>
      <trkpt lat="45.95711" lon="4.76004">
        <ele>184</ele>
        <time>2017-03-27T08:50:17Z</time>
      </trkpt>
      <trkpt lat="45.95714" lon="4.76011">
        <ele>184</ele>
        <time>2017-03-27T08:50:18Z</time>
      </trkpt>
      <trkpt lat="45.95717" lon="4.76017">
        <ele>184</ele>
        <time>2017-03-27T08:50:19Z</time>
      </trkpt>
      <trkpt lat="45.9572" lon="4.76023">
        <ele>184</ele>
        <time>2017-03-27T08:50:20Z</time>
      </trkpt>
      <trkpt lat="45.95723" lon="4.7603">
        <ele>184</ele>
        <time>2017-03-27T08:50:21Z</time>
      </trkpt>
      <trkpt lat="45.95726" lon="4.76036">
        <ele>184</ele>
        <time>2017-03-27T08:50:22Z</time>
      </trkpt>
      <trkpt lat="45.95729" lon="4.76043">
        <ele>184</ele>
        <time>2017-03-27T08:50:23Z</time>
      </trkpt>
      <trkpt lat="45.95732" lon="4.7605">
        <ele>184</ele>
        <time>2017-03-27T08:50:24Z</time>
      </trkpt>
      <trkpt lat="45.95735" lon="4.76056">
        <ele>184</ele>
        <time>2017-03-27T08:50:25Z</time>
      </trkpt>
      <trkpt lat="45.95738" lon="4.76061">
        <ele>184</ele>
        <time>2017-03-27T08:50:26Z</time>
      </trkpt>
      <trkpt lat="45.9574" lon="4.76067">
        <ele>185</ele>
        <time>2017-03-27T08:50:27Z</time>
      </trkpt>
      <trkpt lat="45.95743" lon="4.76073">
        <ele>185</ele>
        <time>2017-03-27T08:50:28Z</time>
      </trkpt>
      <trkpt lat="45.95745" lon="4.76079">
        <ele>185</ele>
        <time>2017-03-27T08:50:29Z</time>
      </trkpt>
      <trkpt lat="45.95747" lon="4.76085">
        <ele>185</ele>
        <time>2017-03-27T08:50:30Z</time>
      </trkpt>
      <trkpt lat="45.95749" lon="4.76091">
        <ele>185</ele>
        <time>2017-03-27T08:50:31Z</time>
      </trkpt>
      <trkpt lat="45.95751" lon="4.76098">
        <ele>186</ele>
        <time>2017-03-27T08:50:32Z</time>
      </trkpt>
      <trkpt lat="45.95753" lon="4.76104">
        <ele>186</ele>
        <time>2017-03-27T08:50:33Z</time>
      </trkpt>
      <trkpt lat="45.95754" lon="4.76111">
        <ele>186</ele>
        <time>2017-03-27T08:50:34Z</time>
      </trkpt>
      <trkpt lat="45.95755" lon="4.76118">
        <ele>186</ele>
        <time>2017-03-27T08:50:35Z</time>
      </trkpt>
      <trkpt lat="45.95756" lon="4.76125">
        <ele>186</ele>
        <time>2017-03-27T08:50:36Z</time>
      </trkpt>
      <trkpt lat="45.95757" lon="4.76132">
        <ele>186</ele>
        <time>2017-03-27T08:50:37Z</time>
      </trkpt>
      <trkpt lat="45.95758" lon="4.76139">
        <ele>186</ele>
        <time>2017-03-27T08:50:38Z</time>
      </trkpt>
      <trkpt lat="45.95759" lon="4.76147">
        <ele>186</ele>
        <time>2017-03-27T08:50:39Z</time>
      </trkpt>
      <trkpt lat="45.95759" lon="4.76154">
        <ele>186</ele>
        <time>2017-03-27T08:50:40Z</time>
      </trkpt>
      <trkpt lat="45.9576" lon="4.76161">
        <ele>186</ele>
        <time>2017-03-27T08:50:41Z</time>
      </trkpt>
      <trkpt lat="45.9576" lon="4.76168">
        <ele>185</ele>
        <time>2017-03-27T08:50:42Z</time>
      </trkpt>
      <trkpt lat="45.95761" lon="4.76175">
        <ele>185</ele>
        <time>2017-03-27T08:50:43Z</time>
      </trkpt>
      <trkpt lat="45.95761" lon="4.76182">
        <ele>186</ele>
        <time>2017-03-27T08:50:44Z</time>
      </trkpt>
      <trkpt lat="45.95762" lon="4.76189">
        <ele>186</ele>
        <time>2017-03-27T08:50:45Z</time>
      </trkpt>
      <trkpt lat="45.95762" lon="4.76197">
        <ele>186</ele>
        <time>2017-03-27T08:50:46Z</time>
      </trkpt>
      <trkpt lat="45.95762" lon="4.76204">
        <ele>186</ele>
        <time>2017-03-27T08:50:47Z</time>
      </trkpt>
      <trkpt lat="45.95762" lon="4.76212">
        <ele>186</ele>
        <time>2017-03-27T08:50:48Z</time>
      </trkpt>
      <trkpt lat="45.95762" lon="4.7622">
        <ele>186</ele>
        <time>2017-03-27T08:50:49Z</time>
      </trkpt>
      <trkpt lat="45.95763" lon="4.76227">
        <ele>186</ele>
        <time>2017-03-27T08:50:50Z</time>
      </trkpt>
      <trkpt lat="45.95763" lon="4.76234">
        <ele>186</ele>
        <time>2017-03-27T08:50:51Z</time>
      </trkpt>
      <trkpt lat="45.95763" lon="4.76241">
        <ele>185</ele>
        <time>2017-03-27T08:50:52Z</time>
      </trkpt>
      <trkpt lat="45.95763" lon="4.76248">
        <ele>185</ele>
        <time>2017-03-27T08:50:53Z</time>
      </trkpt>
      <trkpt lat="45.95764" lon="4.76254">
        <ele>185</ele>
        <time>2017-03-27T08:50:54Z</time>
      </trkpt>
      <trkpt lat="45.95764" lon="4.76261">
        <ele>185</ele>
        <time>2017-03-27T08:50:55Z</time>
      </trkpt>
      <trkpt lat="45.95765" lon="4.76273">
        <ele>185</ele>
        <time>2017-03-27T08:50:57Z</time>
      </trkpt>
      <trkpt lat="45.95765" lon="4.7628">
        <ele>186</ele>
        <time>2017-03-27T08:50:58Z</time>
      </trkpt>
      <trkpt lat="45.95766" lon="4.76292">
        <ele>186</ele>
        <time>2017-03-27T08:51:00Z</time>
      </trkpt>
      <trkpt lat="45.95766" lon="4.76299">
        <ele>186</ele>
        <time>2017-03-27T08:51:01Z</time>
      </trkpt>
      <trkpt lat="45.95766" lon="4.76305">
        <ele>185</ele>
        <time>2017-03-27T08:51:02Z</time>
      </trkpt>
      <trkpt lat="45.95767" lon="4.76312">
        <ele>185</ele>
        <time>2017-03-27T08:51:03Z</time>
      </trkpt>
      <trkpt lat="45.95767" lon="4.76319">
        <ele>185</ele>
        <time>2017-03-27T08:51:04Z</time>
      </trkpt>
      <trkpt lat="45.95767" lon="4.76325">
        <ele>185</ele>
        <time>2017-03-27T08:51:05Z</time>
      </trkpt>
      <trkpt lat="45.95768" lon="4.76333">
        <ele>185</ele>
        <time>2017-03-27T08:51:06Z</time>
      </trkpt>
      <trkpt lat="45.95768" lon="4.7634">
        <ele>186</ele>
        <time>2017-03-27T08:51:07Z</time>
      </trkpt>
      <trkpt lat="45.95769" lon="4.76352">
        <ele>186</ele>
        <time>2017-03-27T08:51:09Z</time>
      </trkpt>
      <trkpt lat="45.95769" lon="4.76357">
        <ele>186</ele>
        <time>2017-03-27T08:51:10Z</time>
      </trkpt>
      <trkpt lat="45.9577" lon="4.76367">
        <ele>186</ele>
        <time>2017-03-27T08:51:12Z</time>
      </trkpt>
      <trkpt lat="45.95771" lon="4.76371">
        <ele>186</ele>
        <time>2017-03-27T08:51:13Z</time>
      </trkpt>
      <trkpt lat="45.95771" lon="4.76374">
        <ele>186</ele>
        <time>2017-03-27T08:51:22Z</time>
      </trkpt>
      <trkpt lat="45.95772" lon="4.76375">
        <ele>186</ele>
        <time>2017-03-27T08:51:23Z</time>
      </trkpt>
      <trkpt lat="45.95772" lon="4.76376">
        <ele>186</ele>
        <time>2017-03-27T08:51:24Z</time>
      </trkpt>
      <trkpt lat="45.95772" lon="4.76377">
        <ele>186</ele>
        <time>2017-03-27T08:51:25Z</time>
      </trkpt>
      <trkpt lat="45.95771" lon="4.76389">
        <ele>186</ele>
        <time>2017-03-27T08:52:29Z</time>
      </trkpt>
      <trkpt lat="45.95771" lon="4.76391">
        <ele>186</ele>
        <time>2017-03-27T08:52:30Z</time>
      </trkpt>
      <trkpt lat="45.95774" lon="4.76403">
        <ele>186</ele>
        <time>2017-03-27T08:54:11Z</time>
      </trkpt>
      <trkpt lat="45.95774" lon="4.76406">
        <ele>186</ele>
        <time>2017-03-27T08:54:12Z</time>
      </trkpt>
      <trkpt lat="45.95774" lon="4.76416">
        <ele>186</ele>
        <time>2017-03-27T08:54:15Z</time>
      </trkpt>
      <trkpt lat="45.95775" lon="4.76421">
        <ele>186</ele>
        <time>2017-03-27T08:54:16Z</time>
      </trkpt>
      <trkpt lat="45.95776" lon="4.7643">
        <ele>186</ele>
        <time>2017-03-27T08:54:18Z</time>
      </trkpt>
      <trkpt lat="45.95777" lon="4.76436">
        <ele>186</ele>
        <time>2017-03-27T08:54:19Z</time>
      </trkpt>
      <trkpt lat="45.95778" lon="4.76448">
        <ele>186</ele>
        <time>2017-03-27T08:54:21Z</time>
      </trkpt>
      <trkpt lat="45.95779" lon="4.76455">
        <ele>186</ele>
        <time>2017-03-27T08:54:22Z</time>
      </trkpt>
      <trkpt lat="45.9578" lon="4.76462">
        <ele>186</ele>
        <time>2017-03-27T08:54:23Z</time>
      </trkpt>
      <trkpt lat="45.95781" lon="4.7647">
        <ele>186</ele>
        <time>2017-03-27T08:54:24Z</time>
      </trkpt>
      <trkpt lat="45.95782" lon="4.76477">
        <ele>186</ele>
        <time>2017-03-27T08:54:25Z</time>
      </trkpt>
      <trkpt lat="45.95783" lon="4.76485">
        <ele>186</ele>
        <time>2017-03-27T08:54:26Z</time>
      </trkpt>
      <trkpt lat="45.95784" lon="4.76492">
        <ele>186</ele>
        <time>2017-03-27T08:54:27Z</time>
      </trkpt>
      <trkpt lat="45.95785" lon="4.76499">
        <ele>186</ele>
        <time>2017-03-27T08:54:28Z</time>
      </trkpt>
      <trkpt lat="45.95786" lon="4.76506">
        <ele>187</ele>
        <time>2017-03-27T08:54:29Z</time>
      </trkpt>
      <trkpt lat="45.95788" lon="4.76513">
        <ele>187</ele>
        <time>2017-03-27T08:54:30Z</time>
      </trkpt>
      <trkpt lat="45.95789" lon="4.7652">
        <ele>187</ele>
        <time>2017-03-27T08:54:31Z</time>
      </trkpt>
      <trkpt lat="45.9579" lon="4.76526">
        <ele>187</ele>
        <time>2017-03-27T08:54:32Z</time>
      </trkpt>
      <trkpt lat="45.95791" lon="4.76533">
        <ele>187</ele>
        <time>2017-03-27T08:54:33Z</time>
      </trkpt>
      <trkpt lat="45.95792" lon="4.7654">
        <ele>187</ele>
        <time>2017-03-27T08:54:34Z</time>
      </trkpt>
      <trkpt lat="45.95793" lon="4.76547">
        <ele>187</ele>
        <time>2017-03-27T08:54:35Z</time>
      </trkpt>
      <trkpt lat="45.95794" lon="4.76554">
        <ele>187</ele>
        <time>2017-03-27T08:54:36Z</time>
      </trkpt>
      <trkpt lat="45.95795" lon="4.76561">
        <ele>187</ele>
        <time>2017-03-27T08:54:37Z</time>
      </trkpt>
      <trkpt lat="45.95796" lon="4.76568">
        <ele>187</ele>
        <time>2017-03-27T08:54:38Z</time>
      </trkpt>
      <trkpt lat="45.95797" lon="4.76575">
        <ele>187</ele>
        <time>2017-03-27T08:54:39Z</time>
      </trkpt>
      <trkpt lat="45.95798" lon="4.76582">
        <ele>187</ele>
        <time>2017-03-27T08:54:40Z</time>
      </trkpt>
      <trkpt lat="45.95799" lon="4.7659">
        <ele>187</ele>
        <time>2017-03-27T08:54:41Z</time>
      </trkpt>
      <trkpt lat="45.958" lon="4.76596">
        <ele>187</ele>
        <time>2017-03-27T08:54:42Z</time>
      </trkpt>
      <trkpt lat="45.95801" lon="4.76603">
        <ele>187</ele>
        <time>2017-03-27T08:54:43Z</time>
      </trkpt>
      <trkpt lat="45.95802" lon="4.76609">
        <ele>188</ele>
        <time>2017-03-27T08:54:44Z</time>
      </trkpt>
      <trkpt lat="45.95803" lon="4.76616">
        <ele>188</ele>
        <time>2017-03-27T08:54:45Z</time>
      </trkpt>
      <trkpt lat="45.95804" lon="4.76623">
        <ele>188</ele>
        <time>2017-03-27T08:54:46Z</time>
      </trkpt>
      <trkpt lat="45.95805" lon="4.7663">
        <ele>188</ele>
        <time>2017-03-27T08:54:47Z</time>
      </trkpt>
      <trkpt lat="45.95806" lon="4.76636">
        <ele>188</ele>
        <time>2017-03-27T08:54:48Z</time>
      </trkpt>
      <trkpt lat="45.95807" lon="4.76643">
        <ele>188</ele>
        <time>2017-03-27T08:54:49Z</time>
      </trkpt>
      <trkpt lat="45.95809" lon="4.7665">
        <ele>188</ele>
        <time>2017-03-27T08:54:50Z</time>
      </trkpt>
      <trkpt lat="45.9581" lon="4.76656">
        <ele>188</ele>
        <time>2017-03-27T08:54:51Z</time>
      </trkpt>
      <trkpt lat="45.95811" lon="4.76663">
        <ele>188</ele>
        <time>2017-03-27T08:54:52Z</time>
      </trkpt>
      <trkpt lat="45.95812" lon="4.76669">
        <ele>189</ele>
        <time>2017-03-27T08:54:53Z</time>
      </trkpt>
      <trkpt lat="45.95813" lon="4.76676">
        <ele>189</ele>
        <time>2017-03-27T08:54:54Z</time>
      </trkpt>
      <trkpt lat="45.95814" lon="4.76682">
        <ele>189</ele>
        <time>2017-03-27T08:54:55Z</time>
      </trkpt>
      <trkpt lat="45.95815" lon="4.76689">
        <ele>189</ele>
        <time>2017-03-27T08:54:56Z</time>
      </trkpt>
      <trkpt lat="45.95816" lon="4.76695">
        <ele>189</ele>
        <time>2017-03-27T08:54:57Z</time>
      </trkpt>
      <trkpt lat="45.95817" lon="4.76702">
        <ele>189</ele>
        <time>2017-03-27T08:54:58Z</time>
      </trkpt>
      <trkpt lat="45.95818" lon="4.76708">
        <ele>189</ele>
        <time>2017-03-27T08:54:59Z</time>
      </trkpt>
      <trkpt lat="45.9582" lon="4.76715">
        <ele>189</ele>
        <time>2017-03-27T08:55:00Z</time>
      </trkpt>
      <trkpt lat="45.95821" lon="4.76722">
        <ele>189</ele>
        <time>2017-03-27T08:55:01Z</time>
      </trkpt>
      <trkpt lat="45.95822" lon="4.76729">
        <ele>190</ele>
        <time>2017-03-27T08:55:02Z</time>
      </trkpt>
      <trkpt lat="45.95823" lon="4.76736">
        <ele>190</ele>
        <time>2017-03-27T08:55:03Z</time>
      </trkpt>
      <trkpt lat="45.95824" lon="4.76743">
        <ele>190</ele>
        <time>2017-03-27T08:55:04Z</time>
      </trkpt>
      <trkpt lat="45.95825" lon="4.76749">
        <ele>190</ele>
        <time>2017-03-27T08:55:05Z</time>
      </trkpt>
      <trkpt lat="45.95826" lon="4.76756">
        <ele>191</ele>
        <time>2017-03-27T08:55:06Z</time>
      </trkpt>
      <trkpt lat="45.95827" lon="4.76763">
        <ele>190</ele>
        <time>2017-03-27T08:55:07Z</time>
      </trkpt>
      <trkpt lat="45.95828" lon="4.76769">
        <ele>190</ele>
        <time>2017-03-27T08:55:08Z</time>
      </trkpt>
      <trkpt lat="45.95829" lon="4.76775">
        <ele>190</ele>
        <time>2017-03-27T08:55:09Z</time>
      </trkpt>
      <trkpt lat="45.9583" lon="4.76782">
        <ele>190</ele>
        <time>2017-03-27T08:55:10Z</time>
      </trkpt>
      <trkpt lat="45.9583" lon="4.76789">
        <ele>190</ele>
        <time>2017-03-27T08:55:11Z</time>
      </trkpt>
      <trkpt lat="45.9583" lon="4.76795">
        <ele>190</ele>
        <time>2017-03-27T08:55:12Z</time>
      </trkpt>
      <trkpt lat="45.9583" lon="4.76802">
        <ele>190</ele>
        <time>2017-03-27T08:55:13Z</time>
      </trkpt>
      <trkpt lat="45.9583" lon="4.7681">
        <ele>190</ele>
        <time>2017-03-27T08:55:14Z</time>
      </trkpt>
      <trkpt lat="45.9583" lon="4.76817">
        <ele>190</ele>
        <time>2017-03-27T08:55:15Z</time>
      </trkpt>
      <trkpt lat="45.95829" lon="4.76824">
        <ele>190</ele>
        <time>2017-03-27T08:55:16Z</time>
      </trkpt>
      <trkpt lat="45.95827" lon="4.76831">
        <ele>190</ele>
        <time>2017-03-27T08:55:17Z</time>
      </trkpt>
      <trkpt lat="45.95826" lon="4.76839">
        <ele>190</ele>
        <time>2017-03-27T08:55:18Z</time>
      </trkpt>
      <trkpt lat="45.95824" lon="4.76846">
        <ele>190</ele>
        <time>2017-03-27T08:55:19Z</time>
      </trkpt>
      <trkpt lat="45.95822" lon="4.76853">
        <ele>189</ele>
        <time>2017-03-27T08:55:20Z</time>
      </trkpt>
      <trkpt lat="45.9582" lon="4.76861">
        <ele>189</ele>
        <time>2017-03-27T08:55:21Z</time>
      </trkpt>
      <trkpt lat="45.95818" lon="4.76869">
        <ele>189</ele>
        <time>2017-03-27T08:55:22Z</time>
      </trkpt>
      <trkpt lat="45.95817" lon="4.76876">
        <ele>189</ele>
        <time>2017-03-27T08:55:23Z</time>
      </trkpt>
      <trkpt lat="45.95816" lon="4.76884">
        <ele>189</ele>
        <time>2017-03-27T08:55:24Z</time>
      </trkpt>
      <trkpt lat="45.95814" lon="4.76892">
        <ele>189</ele>
        <time>2017-03-27T08:55:25Z</time>
      </trkpt>
      <trkpt lat="45.95813" lon="4.76899">
        <ele>189</ele>
        <time>2017-03-27T08:55:26Z</time>
      </trkpt>
      <trkpt lat="45.95811" lon="4.76907">
        <ele>189</ele>
        <time>2017-03-27T08:55:27Z</time>
      </trkpt>
      <trkpt lat="45.9581" lon="4.76914">
        <ele>189</ele>
        <time>2017-03-27T08:55:28Z</time>
      </trkpt>
      <trkpt lat="45.95808" lon="4.76921">
        <ele>189</ele>
        <time>2017-03-27T08:55:29Z</time>
      </trkpt>
      <trkpt lat="45.95806" lon="4.76929">
        <ele>189</ele>
        <time>2017-03-27T08:55:30Z</time>
      </trkpt>
      <trkpt lat="45.95805" lon="4.76936">
        <ele>189</ele>
        <time>2017-03-27T08:55:31Z</time>
      </trkpt>
      <trkpt lat="45.95804" lon="4.76943">
        <ele>189</ele>
        <time>2017-03-27T08:55:32Z</time>
      </trkpt>
      <trkpt lat="45.95803" lon="4.7695">
        <ele>189</ele>
        <time>2017-03-27T08:55:33Z</time>
      </trkpt>
      <trkpt lat="45.95802" lon="4.76956">
        <ele>189</ele>
        <time>2017-03-27T08:55:34Z</time>
      </trkpt>
      <trkpt lat="45.95801" lon="4.76963">
        <ele>189</ele>
        <time>2017-03-27T08:55:35Z</time>
      </trkpt>
      <trkpt lat="45.95801" lon="4.7697">
        <ele>189</ele>
        <time>2017-03-27T08:55:36Z</time>
      </trkpt>
      <trkpt lat="45.958" lon="4.76977">
        <ele>189</ele>
        <time>2017-03-27T08:55:37Z</time>
      </trkpt>
      <trkpt lat="45.95799" lon="4.76984">
        <ele>189</ele>
        <time>2017-03-27T08:55:38Z</time>
      </trkpt>
      <trkpt lat="45.95799" lon="4.76992">
        <ele>189</ele>
        <time>2017-03-27T08:55:39Z</time>
      </trkpt>
      <trkpt lat="45.95799" lon="4.76999">
        <ele>189</ele>
        <time>2017-03-27T08:55:40Z</time>
      </trkpt>
      <trkpt lat="45.958" lon="4.77006">
        <ele>190</ele>
        <time>2017-03-27T08:55:41Z</time>
      </trkpt>
      <trkpt lat="45.95801" lon="4.77013">
        <ele>190</ele>
        <time>2017-03-27T08:55:42Z</time>
      </trkpt>
      <trkpt lat="45.95803" lon="4.7702">
        <ele>190</ele>
        <time>2017-03-27T08:55:43Z</time>
      </trkpt>
      <trkpt lat="45.95805" lon="4.77027">
        <ele>190</ele>
        <time>2017-03-27T08:55:44Z</time>
      </trkpt>
      <trkpt lat="45.95808" lon="4.77033">
        <ele>190</ele>
        <time>2017-03-27T08:55:45Z</time>
      </trkpt>
      <trkpt lat="45.95811" lon="4.77039">
        <ele>190</ele>
        <time>2017-03-27T08:55:46Z</time>
      </trkpt>
      <trkpt lat="45.95813" lon="4.77045">
        <ele>190</ele>
        <time>2017-03-27T08:55:47Z</time>
      </trkpt>
      <trkpt lat="45.95816" lon="4.77051">
        <ele>190</ele>
        <time>2017-03-27T08:55:48Z</time>
      </trkpt>
      <trkpt lat="45.95819" lon="4.77058">
        <ele>190</ele>
        <time>2017-03-27T08:55:49Z</time>
      </trkpt>
      <trkpt lat="45.95822" lon="4.77064">
        <ele>191</ele>
        <time>2017-03-27T08:55:50Z</time>
      </trkpt>
      <trkpt lat="45.95825" lon="4.77071">
        <ele>191</ele>
        <time>2017-03-27T08:55:51Z</time>
      </trkpt>
      <trkpt lat="45.95828" lon="4.77078">
        <ele>191</ele>
        <time>2017-03-27T08:55:52Z</time>
      </trkpt>
      <trkpt lat="45.95831" lon="4.77085">
        <ele>192</ele>
        <time>2017-03-27T08:55:53Z</time>
      </trkpt>
      <trkpt lat="45.95833" lon="4.77092">
        <ele>191</ele>
        <time>2017-03-27T08:55:54Z</time>
      </trkpt>
      <trkpt lat="45.95836" lon="4.77099">
        <ele>193</ele>
        <time>2017-03-27T08:55:55Z</time>
      </trkpt>
      <trkpt lat="45.95838" lon="4.77105">
        <ele>193</ele>
        <time>2017-03-27T08:55:56Z</time>
      </trkpt>
      <trkpt lat="45.9584" lon="4.77111">
        <ele>193</ele>
        <time>2017-03-27T08:55:57Z</time>
      </trkpt>
      <trkpt lat="45.95842" lon="4.77118">
        <ele>193</ele>
        <time>2017-03-27T08:55:58Z</time>
      </trkpt>
      <trkpt lat="45.95844" lon="4.77124">
        <ele>193</ele>
        <time>2017-03-27T08:55:59Z</time>
      </trkpt>
      <trkpt lat="45.95845" lon="4.7713">
        <ele>193</ele>
        <time>2017-03-27T08:56:00Z</time>
      </trkpt>
      <trkpt lat="45.95847" lon="4.77137">
        <ele>193</ele>
        <time>2017-03-27T08:56:01Z</time>
      </trkpt>
      <trkpt lat="45.95849" lon="4.77144">
        <ele>192</ele>
        <time>2017-03-27T08:56:02Z</time>
      </trkpt>
      <trkpt lat="45.9585" lon="4.77151">
        <ele>192</ele>
        <time>2017-03-27T08:56:03Z</time>
      </trkpt>
      <trkpt lat="45.95852" lon="4.77157">
        <ele>192</ele>
        <time>2017-03-27T08:56:04Z</time>
      </trkpt>
      <trkpt lat="45.95854" lon="4.77164">
        <ele>192</ele>
        <time>2017-03-27T08:56:05Z</time>
      </trkpt>
      <trkpt lat="45.95856" lon="4.77171">
        <ele>192</ele>
        <time>2017-03-27T08:56:06Z</time>
      </trkpt>
      <trkpt lat="45.95857" lon="4.77177">
        <ele>192</ele>
        <time>2017-03-27T08:56:07Z</time>
      </trkpt>
      <trkpt lat="45.95859" lon="4.77183">
        <ele>192</ele>
        <time>2017-03-27T08:56:08Z</time>
      </trkpt>
      <trkpt lat="45.95861" lon="4.77189">
        <ele>192</ele>
        <time>2017-03-27T08:56:09Z</time>
      </trkpt>
      <trkpt lat="45.95862" lon="4.77196">
        <ele>192</ele>
        <time>2017-03-27T08:56:10Z</time>
      </trkpt>
      <trkpt lat="45.95864" lon="4.77202">
        <ele>193</ele>
        <time>2017-03-27T08:56:11Z</time>
      </trkpt>
      <trkpt lat="45.95865" lon="4.77208">
        <ele>193</ele>
        <time>2017-03-27T08:56:12Z</time>
      </trkpt>
      <trkpt lat="45.95867" lon="4.77215">
        <ele>193</ele>
        <time>2017-03-27T08:56:13Z</time>
      </trkpt>
      <trkpt lat="45.95868" lon="4.77221">
        <ele>193</ele>
        <time>2017-03-27T08:56:14Z</time>
      </trkpt>
      <trkpt lat="45.9587" lon="4.77228">
        <ele>193</ele>
        <time>2017-03-27T08:56:15Z</time>
      </trkpt>
      <trkpt lat="45.95871" lon="4.77235">
        <ele>193</ele>
        <time>2017-03-27T08:56:16Z</time>
      </trkpt>
      <trkpt lat="45.95872" lon="4.77241">
        <ele>193</ele>
        <time>2017-03-27T08:56:17Z</time>
      </trkpt>
      <trkpt lat="45.95873" lon="4.77248">
        <ele>193</ele>
        <time>2017-03-27T08:56:18Z</time>
      </trkpt>
      <trkpt lat="45.95875" lon="4.77254">
        <ele>193</ele>
        <time>2017-03-27T08:56:19Z</time>
      </trkpt>
      <trkpt lat="45.95876" lon="4.77261">
        <ele>193</ele>
        <time>2017-03-27T08:56:20Z</time>
      </trkpt>
      <trkpt lat="45.95877" lon="4.77267">
        <ele>193</ele>
        <time>2017-03-27T08:56:21Z</time>
      </trkpt>
      <trkpt lat="45.95879" lon="4.77273">
        <ele>193</ele>
        <time>2017-03-27T08:56:22Z</time>
      </trkpt>
      <trkpt lat="45.95882" lon="4.77285">
        <ele>193</ele>
        <time>2017-03-27T08:56:24Z</time>
      </trkpt>
      <trkpt lat="45.95883" lon="4.77291">
        <ele>193</ele>
        <time>2017-03-27T08:56:25Z</time>
      </trkpt>
      <trkpt lat="45.95887" lon="4.77303">
        <ele>193</ele>
        <time>2017-03-27T08:56:27Z</time>
      </trkpt>
      <trkpt lat="45.95889" lon="4.77309">
        <ele>193</ele>
        <time>2017-03-27T08:56:28Z</time>
      </trkpt>
      <trkpt lat="45.95893" lon="4.7732">
        <ele>193</ele>
        <time>2017-03-27T08:56:30Z</time>
      </trkpt>
      <trkpt lat="45.95895" lon="4.77326">
        <ele>193</ele>
        <time>2017-03-27T08:56:31Z</time>
      </trkpt>
      <trkpt lat="45.95899" lon="4.77337">
        <ele>193</ele>
        <time>2017-03-27T08:56:33Z</time>
      </trkpt>
      <trkpt lat="45.95901" lon="4.77343">
        <ele>193</ele>
        <time>2017-03-27T08:56:34Z</time>
      </trkpt>
      <trkpt lat="45.95905" lon="4.77354">
        <ele>193</ele>
        <time>2017-03-27T08:56:36Z</time>
      </trkpt>
      <trkpt lat="45.95907" lon="4.77359">
        <ele>193</ele>
        <time>2017-03-27T08:56:37Z</time>
      </trkpt>
      <trkpt lat="45.9591" lon="4.7737">
        <ele>193</ele>
        <time>2017-03-27T08:56:39Z</time>
      </trkpt>
      <trkpt lat="45.95912" lon="4.77376">
        <ele>193</ele>
        <time>2017-03-27T08:56:40Z</time>
      </trkpt>
      <trkpt lat="45.95914" lon="4.77383">
        <ele>193</ele>
        <time>2017-03-27T08:56:41Z</time>
      </trkpt>
      <trkpt lat="45.95917" lon="4.77388">
        <ele>193</ele>
        <time>2017-03-27T08:56:42Z</time>
      </trkpt>
      <trkpt lat="45.95919" lon="4.77394">
        <ele>196</ele>
        <time>2017-03-27T08:56:43Z</time>
      </trkpt>
      <trkpt lat="45.9592" lon="4.774">
        <ele>196</ele>
        <time>2017-03-27T08:56:44Z</time>
      </trkpt>
      <trkpt lat="45.95922" lon="4.77408">
        <ele>195</ele>
        <time>2017-03-27T08:56:45Z</time>
      </trkpt>
      <trkpt lat="45.95925" lon="4.77414">
        <ele>195</ele>
        <time>2017-03-27T08:56:46Z</time>
      </trkpt>
      <trkpt lat="45.95927" lon="4.7742">
        <ele>195</ele>
        <time>2017-03-27T08:56:47Z</time>
      </trkpt>
      <trkpt lat="45.9593" lon="4.77426">
        <ele>195</ele>
        <time>2017-03-27T08:56:48Z</time>
      </trkpt>
      <trkpt lat="45.95932" lon="4.77432">
        <ele>195</ele>
        <time>2017-03-27T08:56:49Z</time>
      </trkpt>
      <trkpt lat="45.95934" lon="4.77438">
        <ele>195</ele>
        <time>2017-03-27T08:56:50Z</time>
      </trkpt>
      <trkpt lat="45.95936" lon="4.77444">
        <ele>195</ele>
        <time>2017-03-27T08:56:51Z</time>
      </trkpt>
      <trkpt lat="45.95937" lon="4.7745">
        <ele>195</ele>
        <time>2017-03-27T08:56:52Z</time>
      </trkpt>
      <trkpt lat="45.95941" lon="4.77461">
        <ele>195</ele>
        <time>2017-03-27T08:56:54Z</time>
      </trkpt>
      <trkpt lat="45.95943" lon="4.77467">
        <ele>195</ele>
        <time>2017-03-27T08:56:55Z</time>
      </trkpt>
      <trkpt lat="45.95947" lon="4.77477">
        <ele>195</ele>
        <time>2017-03-27T08:56:57Z</time>
      </trkpt>
      <trkpt lat="45.95949" lon="4.77483">
        <ele>195</ele>
        <time>2017-03-27T08:56:58Z</time>
      </trkpt>
      <trkpt lat="45.95953" lon="4.77494">
        <ele>196</ele>
        <time>2017-03-27T08:57:00Z</time>
      </trkpt>
      <trkpt lat="45.95956" lon="4.775">
        <ele>196</ele>
        <time>2017-03-27T08:57:01Z</time>
      </trkpt>
      <trkpt lat="45.9596" lon="4.7751">
        <ele>195</ele>
        <time>2017-03-27T08:57:03Z</time>
      </trkpt>
      <trkpt lat="45.95963" lon="4.77515">
        <ele>195</ele>
        <time>2017-03-27T08:57:04Z</time>
      </trkpt>
      <trkpt lat="45.95967" lon="4.77525">
        <ele>195</ele>
        <time>2017-03-27T08:57:06Z</time>
      </trkpt>
      <trkpt lat="45.95969" lon="4.7753">
        <ele>195</ele>
        <time>2017-03-27T08:57:07Z</time>
      </trkpt>
      <trkpt lat="45.95973" lon="4.77539">
        <ele>195</ele>
        <time>2017-03-27T08:57:09Z</time>
      </trkpt>
      <trkpt lat="45.95975" lon="4.77543">
        <ele>195</ele>
        <time>2017-03-27T08:57:10Z</time>
      </trkpt>
      <trkpt lat="45.9598" lon="4.77552">
        <ele>196</ele>
        <time>2017-03-27T08:57:12Z</time>
      </trkpt>
      <trkpt lat="45.95982" lon="4.77557">
        <ele>196</ele>
        <time>2017-03-27T08:57:13Z</time>
      </trkpt>
      <trkpt lat="45.95985" lon="4.77563">
        <ele>196</ele>
        <time>2017-03-27T08:57:14Z</time>
      </trkpt>
      <trkpt lat="45.95987" lon="4.77568">
        <ele>196</ele>
        <time>2017-03-27T08:57:15Z</time>
      </trkpt>
      <trkpt lat="45.95989" lon="4.77574">
        <ele>196</ele>
        <time>2017-03-27T08:57:16Z</time>
      </trkpt>
      <trkpt lat="45.95991" lon="4.77581">
        <ele>196</ele>
        <time>2017-03-27T08:57:17Z</time>
      </trkpt>
      <trkpt lat="45.95992" lon="4.77592">
        <ele>196</ele>
        <time>2017-03-27T08:57:19Z</time>
      </trkpt>
      <trkpt lat="45.95993" lon="4.77597">
        <ele>195</ele>
        <time>2017-03-27T08:57:20Z</time>
      </trkpt>
      <trkpt lat="45.95998" lon="4.77604">
        <ele>195</ele>
        <time>2017-03-27T08:57:23Z</time>
      </trkpt>
      <trkpt lat="45.96001" lon="4.77604">
        <ele>198</ele>
        <time>2017-03-27T08:57:24Z</time>
      </trkpt>
      <trkpt lat="45.96008" lon="4.77606">
        <ele>199</ele>
        <time>2017-03-27T08:57:27Z</time>
      </trkpt>
      <trkpt lat="45.96011" lon="4.77609">
        <ele>199</ele>
        <time>2017-03-27T08:57:28Z</time>
      </trkpt>
      <trkpt lat="45.96017" lon="4.77616">
        <ele>199</ele>
        <time>2017-03-27T08:57:30Z</time>
      </trkpt>
      <trkpt lat="45.9602" lon="4.7762">
        <ele>199</ele>
        <time>2017-03-27T08:57:31Z</time>
      </trkpt>
      <trkpt lat="45.96026" lon="4.77629">
        <ele>199</ele>
        <time>2017-03-27T08:57:33Z</time>
      </trkpt>
      <trkpt lat="45.96029" lon="4.77632">
        <ele>199</ele>
        <time>2017-03-27T08:57:34Z</time>
      </trkpt>
      <trkpt lat="45.96036" lon="4.77639">
        <ele>199</ele>
        <time>2017-03-27T08:57:36Z</time>
      </trkpt>
      <trkpt lat="45.96039" lon="4.77642">
        <ele>199</ele>
        <time>2017-03-27T08:57:37Z</time>
      </trkpt>
      <trkpt lat="45.96045" lon="4.7765">
        <ele>199</ele>
        <time>2017-03-27T08:57:39Z</time>
      </trkpt>
      <trkpt lat="45.96048" lon="4.77654">
        <ele>200</ele>
        <time>2017-03-27T08:57:40Z</time>
      </trkpt>
      <trkpt lat="45.96054" lon="4.77662">
        <ele>200</ele>
        <time>2017-03-27T08:57:42Z</time>
      </trkpt>
      <trkpt lat="45.96057" lon="4.77666">
        <ele>200</ele>
        <time>2017-03-27T08:57:43Z</time>
      </trkpt>
      <trkpt lat="45.96063" lon="4.77675">
        <ele>198</ele>
        <time>2017-03-27T08:57:45Z</time>
      </trkpt>
      <trkpt lat="45.96066" lon="4.77679">
        <ele>198</ele>
        <time>2017-03-27T08:57:46Z</time>
      </trkpt>
      <trkpt lat="45.96073" lon="4.77688">
        <ele>198</ele>
        <time>2017-03-27T08:57:48Z</time>
      </trkpt>
      <trkpt lat="45.96076" lon="4.77693">
        <ele>197</ele>
        <time>2017-03-27T08:57:49Z</time>
      </trkpt>
      <trkpt lat="45.96078" lon="4.77698">
        <ele>197</ele>
        <time>2017-03-27T08:57:50Z</time>
      </trkpt>
      <trkpt lat="45.96081" lon="4.77703">
        <ele>197</ele>
        <time>2017-03-27T08:57:51Z</time>
      </trkpt>
      <trkpt lat="45.96084" lon="4.77708">
        <ele>200</ele>
        <time>2017-03-27T08:57:52Z</time>
      </trkpt>
      <trkpt lat="45.96087" lon="4.77713">
        <ele>199</ele>
        <time>2017-03-27T08:57:53Z</time>
      </trkpt>
      <trkpt lat="45.96093" lon="4.77723">
        <ele>199</ele>
        <time>2017-03-27T08:57:55Z</time>
      </trkpt>
      <trkpt lat="45.96096" lon="4.77727">
        <ele>199</ele>
        <time>2017-03-27T08:57:56Z</time>
      </trkpt>
      <trkpt lat="45.96099" lon="4.77732">
        <ele>199</ele>
        <time>2017-03-27T08:57:57Z</time>
      </trkpt>
      <trkpt lat="45.96102" lon="4.77737">
        <ele>198</ele>
        <time>2017-03-27T08:57:58Z</time>
      </trkpt>
      <trkpt lat="45.96105" lon="4.77743">
        <ele>198</ele>
        <time>2017-03-27T08:57:59Z</time>
      </trkpt>
      <trkpt lat="45.96108" lon="4.77748">
        <ele>199</ele>
        <time>2017-03-27T08:58:00Z</time>
      </trkpt>
      <trkpt lat="45.96111" lon="4.77754">
        <ele>197</ele>
        <time>2017-03-27T08:58:01Z</time>
      </trkpt>
      <trkpt lat="45.96114" lon="4.77759">
        <ele>197</ele>
        <time>2017-03-27T08:58:02Z</time>
      </trkpt>
      <trkpt lat="45.96117" lon="4.77764">
        <ele>197</ele>
        <time>2017-03-27T08:58:03Z</time>
      </trkpt>
      <trkpt lat="45.9612" lon="4.77769">
        <ele>197</ele>
        <time>2017-03-27T08:58:04Z</time>
      </trkpt>
      <trkpt lat="45.96126" lon="4.77778">
        <ele>197</ele>
        <time>2017-03-27T08:58:06Z</time>
      </trkpt>
      <trkpt lat="45.96129" lon="4.77783">
        <ele>198</ele>
        <time>2017-03-27T08:58:07Z</time>
      </trkpt>
      <trkpt lat="45.96134" lon="4.77793">
        <ele>198</ele>
        <time>2017-03-27T08:58:09Z</time>
      </trkpt>
      <trkpt lat="45.96137" lon="4.77797">
        <ele>198</ele>
        <time>2017-03-27T08:58:10Z</time>
      </trkpt>
      <trkpt lat="45.96143" lon="4.77807">
        <ele>198</ele>
        <time>2017-03-27T08:58:12Z</time>
      </trkpt>
      <trkpt lat="45.96146" lon="4.77812">
        <ele>198</ele>
        <time>2017-03-27T08:58:13Z</time>
      </trkpt>
      <trkpt lat="45.96149" lon="4.77817">
        <ele>198</ele>
        <time>2017-03-27T08:58:14Z</time>
      </trkpt>
      <trkpt lat="45.96152" lon="4.77823">
        <ele>198</ele>
        <time>2017-03-27T08:58:15Z</time>
      </trkpt>
      <trkpt lat="45.96155" lon="4.77829">
        <ele>198</ele>
        <time>2017-03-27T08:58:16Z</time>
      </trkpt>
      <trkpt lat="45.96158" lon="4.77834">
        <ele>197</ele>
        <time>2017-03-27T08:58:17Z</time>
      </trkpt>
      <trkpt lat="45.96161" lon="4.7784">
        <ele>197</ele>
        <time>2017-03-27T08:58:18Z</time>
      </trkpt>
      <trkpt lat="45.96165" lon="4.77846">
        <ele>197</ele>
        <time>2017-03-27T08:58:19Z</time>
      </trkpt>
      <trkpt lat="45.96168" lon="4.77852">
        <ele>201</ele>
        <time>2017-03-27T08:58:20Z</time>
      </trkpt>
      <trkpt lat="45.96172" lon="4.77858">
        <ele>201</ele>
        <time>2017-03-27T08:58:21Z</time>
      </trkpt>
      <trkpt lat="45.96175" lon="4.77863">
        <ele>201</ele>
        <time>2017-03-27T08:58:22Z</time>
      </trkpt>
      <trkpt lat="45.96178" lon="4.77868">
        <ele>201</ele>
        <time>2017-03-27T08:58:23Z</time>
      </trkpt>
      <trkpt lat="45.96181" lon="4.77873">
        <ele>201</ele>
        <time>2017-03-27T08:58:24Z</time>
      </trkpt>
      <trkpt lat="45.96184" lon="4.77879">
        <ele>201</ele>
        <time>2017-03-27T08:58:25Z</time>
      </trkpt>
      <trkpt lat="45.96187" lon="4.77884">
        <ele>201</ele>
        <time>2017-03-27T08:58:26Z</time>
      </trkpt>
      <trkpt lat="45.9619" lon="4.77889">
        <ele>201</ele>
        <time>2017-03-27T08:58:27Z</time>
      </trkpt>
      <trkpt lat="45.96193" lon="4.77894">
        <ele>201</ele>
        <time>2017-03-27T08:58:28Z</time>
      </trkpt>
      <trkpt lat="45.96196" lon="4.77899">
        <ele>201</ele>
        <time>2017-03-27T08:58:29Z</time>
      </trkpt>
      <trkpt lat="45.962" lon="4.77903">
        <ele>201</ele>
        <time>2017-03-27T08:58:30Z</time>
      </trkpt>
      <trkpt lat="45.96203" lon="4.77908">
        <ele>202</ele>
        <time>2017-03-27T08:58:31Z</time>
      </trkpt>
      <trkpt lat="45.96206" lon="4.77913">
        <ele>202</ele>
        <time>2017-03-27T08:58:32Z</time>
      </trkpt>
      <trkpt lat="45.96209" lon="4.77919">
        <ele>199</ele>
        <time>2017-03-27T08:58:33Z</time>
      </trkpt>
      <trkpt lat="45.96213" lon="4.77924">
        <ele>199</ele>
        <time>2017-03-27T08:58:34Z</time>
      </trkpt>
      <trkpt lat="45.96216" lon="4.77929">
        <ele>200</ele>
        <time>2017-03-27T08:58:35Z</time>
      </trkpt>
      <trkpt lat="45.96219" lon="4.77934">
        <ele>200</ele>
        <time>2017-03-27T08:58:36Z</time>
      </trkpt>
      <trkpt lat="45.96222" lon="4.77939">
        <ele>200</ele>
        <time>2017-03-27T08:58:37Z</time>
      </trkpt>
      <trkpt lat="45.96226" lon="4.77943">
        <ele>200</ele>
        <time>2017-03-27T08:58:38Z</time>
      </trkpt>
      <trkpt lat="45.9623" lon="4.77948">
        <ele>200</ele>
        <time>2017-03-27T08:58:39Z</time>
      </trkpt>
      <trkpt lat="45.96233" lon="4.77953">
        <ele>199</ele>
        <time>2017-03-27T08:58:40Z</time>
      </trkpt>
      <trkpt lat="45.96237" lon="4.77957">
        <ele>199</ele>
        <time>2017-03-27T08:58:41Z</time>
      </trkpt>
      <trkpt lat="45.96242" lon="4.77962">
        <ele>199</ele>
        <time>2017-03-27T08:58:42Z</time>
      </trkpt>
      <trkpt lat="45.96246" lon="4.77966">
        <ele>199</ele>
        <time>2017-03-27T08:58:43Z</time>
      </trkpt>
      <trkpt lat="45.96251" lon="4.7797">
        <ele>203</ele>
        <time>2017-03-27T08:58:44Z</time>
      </trkpt>
      <trkpt lat="45.96256" lon="4.77975">
        <ele>203</ele>
        <time>2017-03-27T08:58:45Z</time>
      </trkpt>
      <trkpt lat="45.96261" lon="4.77979">
        <ele>202</ele>
        <time>2017-03-27T08:58:46Z</time>
      </trkpt>
      <trkpt lat="45.96266" lon="4.77983">
        <ele>202</ele>
        <time>2017-03-27T08:58:47Z</time>
      </trkpt>
      <trkpt lat="45.96271" lon="4.77986">
        <ele>202</ele>
        <time>2017-03-27T08:58:48Z</time>
      </trkpt>
      <trkpt lat="45.96275" lon="4.7799">
        <ele>203</ele>
        <time>2017-03-27T08:58:49Z</time>
      </trkpt>
      <trkpt lat="45.96279" lon="4.77995">
        <ele>203</ele>
        <time>2017-03-27T08:58:50Z</time>
      </trkpt>
      <trkpt lat="45.96284" lon="4.77999">
        <ele>203</ele>
        <time>2017-03-27T08:58:51Z</time>
      </trkpt>
      <trkpt lat="45.96288" lon="4.78004">
        <ele>199</ele>
        <time>2017-03-27T08:58:52Z</time>
      </trkpt>
      <trkpt lat="45.96292" lon="4.78008">
        <ele>199</ele>
        <time>2017-03-27T08:58:53Z</time>
      </trkpt>
      <trkpt lat="45.96296" lon="4.78012">
        <ele>199</ele>
        <time>2017-03-27T08:58:54Z</time>
      </trkpt>
      <trkpt lat="45.963" lon="4.78016">
        <ele>199</ele>
        <time>2017-03-27T08:58:55Z</time>
      </trkpt>
      <trkpt lat="45.96304" lon="4.7802">
        <ele>200</ele>
        <time>2017-03-27T08:58:56Z</time>
      </trkpt>
      <trkpt lat="45.96308" lon="4.78025">
        <ele>200</ele>
        <time>2017-03-27T08:58:57Z</time>
      </trkpt>
      <trkpt lat="45.96312" lon="4.78029">
        <ele>200</ele>
        <time>2017-03-27T08:58:58Z</time>
      </trkpt>
      <trkpt lat="45.96316" lon="4.78034">
        <ele>200</ele>
        <time>2017-03-27T08:58:59Z</time>
      </trkpt>
      <trkpt lat="45.9632" lon="4.78039">
        <ele>199</ele>
        <time>2017-03-27T08:59:00Z</time>
      </trkpt>
      <trkpt lat="45.96324" lon="4.78044">
        <ele>199</ele>
        <time>2017-03-27T08:59:01Z</time>
      </trkpt>
      <trkpt lat="45.96328" lon="4.7805">
        <ele>199</ele>
        <time>2017-03-27T08:59:02Z</time>
      </trkpt>
      <trkpt lat="45.96333" lon="4.78055">
        <ele>199</ele>
        <time>2017-03-27T08:59:03Z</time>
      </trkpt>
      <trkpt lat="45.96337" lon="4.78061">
        <ele>202</ele>
        <time>2017-03-27T08:59:04Z</time>
      </trkpt>
      <trkpt lat="45.96341" lon="4.78066">
        <ele>201</ele>
        <time>2017-03-27T08:59:05Z</time>
      </trkpt>
      <trkpt lat="45.96346" lon="4.78071">
        <ele>201</ele>
        <time>2017-03-27T08:59:06Z</time>
      </trkpt>
      <trkpt lat="45.96351" lon="4.78076">
        <ele>201</ele>
        <time>2017-03-27T08:59:07Z</time>
      </trkpt>
      <trkpt lat="45.96355" lon="4.78081">
        <ele>201</ele>
        <time>2017-03-27T08:59:08Z</time>
      </trkpt>
      <trkpt lat="45.9636" lon="4.78086">
        <ele>199</ele>
        <time>2017-03-27T08:59:09Z</time>
      </trkpt>
      <trkpt lat="45.96364" lon="4.7809">
        <ele>199</ele>
        <time>2017-03-27T08:59:10Z</time>
      </trkpt>
      <trkpt lat="45.96368" lon="4.78094">
        <ele>199</ele>
        <time>2017-03-27T08:59:11Z</time>
      </trkpt>
      <trkpt lat="45.96372" lon="4.78097">
        <ele>199</ele>
        <time>2017-03-27T08:59:12Z</time>
      </trkpt>
      <trkpt lat="45.96377" lon="4.781">
        <ele>200</ele>
        <time>2017-03-27T08:59:13Z</time>
      </trkpt>
      <trkpt lat="45.96381" lon="4.78104">
        <ele>200</ele>
        <time>2017-03-27T08:59:14Z</time>
      </trkpt>
      <trkpt lat="45.96385" lon="4.78107">
        <ele>200</ele>
        <time>2017-03-27T08:59:15Z</time>
      </trkpt>
      <trkpt lat="45.9639" lon="4.78112">
        <ele>200</ele>
        <time>2017-03-27T08:59:16Z</time>
      </trkpt>
      <trkpt lat="45.96393" lon="4.78116">
        <ele>200</ele>
        <time>2017-03-27T08:59:17Z</time>
      </trkpt>
      <trkpt lat="45.96397" lon="4.78122">
        <ele>200</ele>
        <time>2017-03-27T08:59:18Z</time>
      </trkpt>
      <trkpt lat="45.96401" lon="4.78126">
        <ele>200</ele>
        <time>2017-03-27T08:59:19Z</time>
      </trkpt>
      <trkpt lat="45.96407" lon="4.78131">
        <ele>199</ele>
        <time>2017-03-27T08:59:20Z</time>
      </trkpt>
      <trkpt lat="45.96411" lon="4.78136">
        <ele>199</ele>
        <time>2017-03-27T08:59:21Z</time>
      </trkpt>
      <trkpt lat="45.96415" lon="4.78139">
        <ele>199</ele>
        <time>2017-03-27T08:59:22Z</time>
      </trkpt>
      <trkpt lat="45.96419" lon="4.78143">
        <ele>202</ele>
        <time>2017-03-27T08:59:23Z</time>
      </trkpt>
      <trkpt lat="45.96422" lon="4.78147">
        <ele>202</ele>
        <time>2017-03-27T08:59:24Z</time>
      </trkpt>
      <trkpt lat="45.96426" lon="4.78151">
        <ele>202</ele>
        <time>2017-03-27T08:59:25Z</time>
      </trkpt>
      <trkpt lat="45.9643" lon="4.78155">
        <ele>202</ele>
        <time>2017-03-27T08:59:26Z</time>
      </trkpt>
      <trkpt lat="45.96435" lon="4.78159">
        <ele>202</ele>
        <time>2017-03-27T08:59:27Z</time>
      </trkpt>
      <trkpt lat="45.96439" lon="4.78163">
        <ele>202</ele>
        <time>2017-03-27T08:59:28Z</time>
      </trkpt>
      <trkpt lat="45.96443" lon="4.78167">
        <ele>203</ele>
        <time>2017-03-27T08:59:29Z</time>
      </trkpt>
      <trkpt lat="45.96447" lon="4.78171">
        <ele>199</ele>
        <time>2017-03-27T08:59:30Z</time>
      </trkpt>
      <trkpt lat="45.96452" lon="4.78175">
        <ele>199</ele>
        <time>2017-03-27T08:59:31Z</time>
      </trkpt>
      <trkpt lat="45.96456" lon="4.78178">
        <ele>200</ele>
        <time>2017-03-27T08:59:32Z</time>
      </trkpt>
      <trkpt lat="45.9646" lon="4.78181">
        <ele>200</ele>
        <time>2017-03-27T08:59:33Z</time>
      </trkpt>
      <trkpt lat="45.96465" lon="4.78184">
        <ele>200</ele>
        <time>2017-03-27T08:59:34Z</time>
      </trkpt>
      <trkpt lat="45.96469" lon="4.78187">
        <ele>200</ele>
        <time>2017-03-27T08:59:35Z</time>
      </trkpt>
      <trkpt lat="45.96474" lon="4.7819">
        <ele>200</ele>
        <time>2017-03-27T08:59:36Z</time>
      </trkpt>
      <trkpt lat="45.96479" lon="4.78192">
        <ele>200</ele>
        <time>2017-03-27T08:59:37Z</time>
      </trkpt>
      <trkpt lat="45.96484" lon="4.78195">
        <ele>200</ele>
        <time>2017-03-27T08:59:38Z</time>
      </trkpt>
      <trkpt lat="45.96489" lon="4.78198">
        <ele>200</ele>
        <time>2017-03-27T08:59:39Z</time>
      </trkpt>
      <trkpt lat="45.96493" lon="4.78201">
        <ele>200</ele>
        <time>2017-03-27T08:59:40Z</time>
      </trkpt>
      <trkpt lat="45.96497" lon="4.78204">
        <ele>200</ele>
        <time>2017-03-27T08:59:41Z</time>
      </trkpt>
      <trkpt lat="45.96504" lon="4.78212">
        <ele>205</ele>
        <time>2017-03-27T08:59:43Z</time>
      </trkpt>
      <trkpt lat="45.96507" lon="4.78217">
        <ele>204</ele>
        <time>2017-03-27T08:59:44Z</time>
      </trkpt>
      <trkpt lat="45.96512" lon="4.78226">
        <ele>204</ele>
        <time>2017-03-27T08:59:46Z</time>
      </trkpt>
      <trkpt lat="45.96515" lon="4.7823">
        <ele>203</ele>
        <time>2017-03-27T08:59:47Z</time>
      </trkpt>
      <trkpt lat="45.9652" lon="4.7824">
        <ele>203</ele>
        <time>2017-03-27T08:59:49Z</time>
      </trkpt>
      <trkpt lat="45.96523" lon="4.78244">
        <ele>203</ele>
        <time>2017-03-27T08:59:50Z</time>
      </trkpt>
      <trkpt lat="45.96527" lon="4.7825">
        <ele>204</ele>
        <time>2017-03-27T08:59:51Z</time>
      </trkpt>
      <trkpt lat="45.96531" lon="4.78255">
        <ele>200</ele>
        <time>2017-03-27T08:59:52Z</time>
      </trkpt>
      <trkpt lat="45.96534" lon="4.7826">
        <ele>200</ele>
        <time>2017-03-27T08:59:53Z</time>
      </trkpt>
      <trkpt lat="45.96538" lon="4.78265">
        <ele>200</ele>
        <time>2017-03-27T08:59:54Z</time>
      </trkpt>
      <trkpt lat="45.96542" lon="4.7827">
        <ele>200</ele>
        <time>2017-03-27T08:59:55Z</time>
      </trkpt>
      <trkpt lat="45.96545" lon="4.78275">
        <ele>200</ele>
        <time>2017-03-27T08:59:56Z</time>
      </trkpt>
      <trkpt lat="45.9655" lon="4.78279">
        <ele>200</ele>
        <time>2017-03-27T08:59:57Z</time>
      </trkpt>
      <trkpt lat="45.96554" lon="4.78283">
        <ele>200</ele>
        <time>2017-03-27T08:59:58Z</time>
      </trkpt>
      <trkpt lat="45.96558" lon="4.78288">
        <ele>200</ele>
        <time>2017-03-27T08:59:59Z</time>
      </trkpt>
      <trkpt lat="45.96561" lon="4.78292">
        <ele>200</ele>
        <time>2017-03-27T09:00:00Z</time>
      </trkpt>
      <trkpt lat="45.96565" lon="4.78297">
        <ele>200</ele>
        <time>2017-03-27T09:00:01Z</time>
      </trkpt>
      <trkpt lat="45.96568" lon="4.78302">
        <ele>200</ele>
        <time>2017-03-27T09:00:02Z</time>
      </trkpt>
      <trkpt lat="45.96575" lon="4.7831">
        <ele>199</ele>
        <time>2017-03-27T09:00:04Z</time>
      </trkpt>
      <trkpt lat="45.96579" lon="4.78313">
        <ele>199</ele>
        <time>2017-03-27T09:00:05Z</time>
      </trkpt>
      <trkpt lat="45.96582" lon="4.78317">
        <ele>199</ele>
        <time>2017-03-27T09:00:06Z</time>
      </trkpt>
      <trkpt lat="45.96586" lon="4.78321">
        <ele>201</ele>
        <time>2017-03-27T09:00:07Z</time>
      </trkpt>
      <trkpt lat="45.9659" lon="4.78325">
        <ele>201</ele>
        <time>2017-03-27T09:00:08Z</time>
      </trkpt>
      <trkpt lat="45.96593" lon="4.78329">
        <ele>201</ele>
        <time>2017-03-27T09:00:09Z</time>
      </trkpt>
      <trkpt lat="45.96597" lon="4.78334">
        <ele>199</ele>
        <time>2017-03-27T09:00:10Z</time>
      </trkpt>
      <trkpt lat="45.96601" lon="4.78338">
        <ele>200</ele>
        <time>2017-03-27T09:00:11Z</time>
      </trkpt>
      <trkpt lat="45.96605" lon="4.78342">
        <ele>200</ele>
        <time>2017-03-27T09:00:12Z</time>
      </trkpt>
      <trkpt lat="45.9661" lon="4.78345">
        <ele>200</ele>
        <time>2017-03-27T09:00:13Z</time>
      </trkpt>
      <trkpt lat="45.96614" lon="4.78349">
        <ele>200</ele>
        <time>2017-03-27T09:00:14Z</time>
      </trkpt>
      <trkpt lat="45.96618" lon="4.78352">
        <ele>201</ele>
        <time>2017-03-27T09:00:15Z</time>
      </trkpt>
      <trkpt lat="45.96625" lon="4.78359">
        <ele>201</ele>
        <time>2017-03-27T09:00:17Z</time>
      </trkpt>
      <trkpt lat="45.96629" lon="4.78362">
        <ele>201</ele>
        <time>2017-03-27T09:00:18Z</time>
      </trkpt>
      <trkpt lat="45.96632" lon="4.78366">
        <ele>201</ele>
        <time>2017-03-27T09:00:19Z</time>
      </trkpt>
      <trkpt lat="45.96636" lon="4.7837">
        <ele>201</ele>
        <time>2017-03-27T09:00:20Z</time>
      </trkpt>
      <trkpt lat="45.9664" lon="4.78373">
        <ele>201</ele>
        <time>2017-03-27T09:00:21Z</time>
      </trkpt>
      <trkpt lat="45.96644" lon="4.78377">
        <ele>201</ele>
        <time>2017-03-27T09:00:22Z</time>
      </trkpt>
      <trkpt lat="45.96651" lon="4.78383">
        <ele>201</ele>
        <time>2017-03-27T09:00:24Z</time>
      </trkpt>
      <trkpt lat="45.96655" lon="4.78387">
        <ele>201</ele>
        <time>2017-03-27T09:00:25Z</time>
      </trkpt>
      <trkpt lat="45.96662" lon="4.78393">
        <ele>201</ele>
        <time>2017-03-27T09:00:27Z</time>
      </trkpt>
      <trkpt lat="45.96666" lon="4.78396">
        <ele>201</ele>
        <time>2017-03-27T09:00:28Z</time>
      </trkpt>
      <trkpt lat="45.96673" lon="4.78404">
        <ele>203</ele>
        <time>2017-03-27T09:00:30Z</time>
      </trkpt>
      <trkpt lat="45.96676" lon="4.78408">
        <ele>203</ele>
        <time>2017-03-27T09:00:31Z</time>
      </trkpt>
      <trkpt lat="45.9668" lon="4.78411">
        <ele>203</ele>
        <time>2017-03-27T09:00:32Z</time>
      </trkpt>
      <trkpt lat="45.96684" lon="4.78415">
        <ele>204</ele>
        <time>2017-03-27T09:00:33Z</time>
      </trkpt>
      <trkpt lat="45.9669" lon="4.78421">
        <ele>202</ele>
        <time>2017-03-27T09:00:35Z</time>
      </trkpt>
      <trkpt lat="45.96693" lon="4.78425">
        <ele>202</ele>
        <time>2017-03-27T09:00:36Z</time>
      </trkpt>
      <trkpt lat="45.96699" lon="4.78431">
        <ele>203</ele>
        <time>2017-03-27T09:00:38Z</time>
      </trkpt>
      <trkpt lat="45.96702" lon="4.78434">
        <ele>203</ele>
        <time>2017-03-27T09:00:39Z</time>
      </trkpt>
      <trkpt lat="45.96709" lon="4.78442">
        <ele>203</ele>
        <time>2017-03-27T09:00:41Z</time>
      </trkpt>
      <trkpt lat="45.96713" lon="4.78446">
        <ele>203</ele>
        <time>2017-03-27T09:00:42Z</time>
      </trkpt>
      <trkpt lat="45.96717" lon="4.7845">
        <ele>203</ele>
        <time>2017-03-27T09:00:43Z</time>
      </trkpt>
      <trkpt lat="45.96721" lon="4.78454">
        <ele>203</ele>
        <time>2017-03-27T09:00:44Z</time>
      </trkpt>
      <trkpt lat="45.96725" lon="4.78458">
        <ele>203</ele>
        <time>2017-03-27T09:00:45Z</time>
      </trkpt>
      <trkpt lat="45.9673" lon="4.78462">
        <ele>203</ele>
        <time>2017-03-27T09:00:46Z</time>
      </trkpt>
      <trkpt lat="45.96735" lon="4.78467">
        <ele>203</ele>
        <time>2017-03-27T09:00:47Z</time>
      </trkpt>
      <trkpt lat="45.96739" lon="4.78471">
        <ele>203</ele>
        <time>2017-03-27T09:00:48Z</time>
      </trkpt>
      <trkpt lat="45.96744" lon="4.78475">
        <ele>203</ele>
        <time>2017-03-27T09:00:49Z</time>
      </trkpt>
      <trkpt lat="45.96749" lon="4.78479">
        <ele>203</ele>
        <time>2017-03-27T09:00:50Z</time>
      </trkpt>
      <trkpt lat="45.96754" lon="4.78483">
        <ele>205</ele>
        <time>2017-03-27T09:00:51Z</time>
      </trkpt>
      <trkpt lat="45.96758" lon="4.78488">
        <ele>204</ele>
        <time>2017-03-27T09:00:52Z</time>
      </trkpt>
      <trkpt lat="45.96762" lon="4.78493">
        <ele>204</ele>
        <time>2017-03-27T09:00:53Z</time>
      </trkpt>
      <trkpt lat="45.96766" lon="4.78499">
        <ele>204</ele>
        <time>2017-03-27T09:00:54Z</time>
      </trkpt>
      <trkpt lat="45.96769" lon="4.78505">
        <ele>203</ele>
        <time>2017-03-27T09:00:55Z</time>
      </trkpt>
      <trkpt lat="45.96773" lon="4.78511">
        <ele>203</ele>
        <time>2017-03-27T09:00:56Z</time>
      </trkpt>
      <trkpt lat="45.96776" lon="4.78517">
        <ele>203</ele>
        <time>2017-03-27T09:00:57Z</time>
      </trkpt>
      <trkpt lat="45.96779" lon="4.78522">
        <ele>203</ele>
        <time>2017-03-27T09:00:58Z</time>
      </trkpt>
      <trkpt lat="45.96782" lon="4.78527">
        <ele>203</ele>
        <time>2017-03-27T09:00:59Z</time>
      </trkpt>
      <trkpt lat="45.96786" lon="4.78532">
        <ele>203</ele>
        <time>2017-03-27T09:01:00Z</time>
      </trkpt>
      <trkpt lat="45.9679" lon="4.78538">
        <ele>203</ele>
        <time>2017-03-27T09:01:01Z</time>
      </trkpt>
      <trkpt lat="45.96794" lon="4.78543">
        <ele>203</ele>
        <time>2017-03-27T09:01:02Z</time>
      </trkpt>
      <trkpt lat="45.96797" lon="4.78549">
        <ele>203</ele>
        <time>2017-03-27T09:01:03Z</time>
      </trkpt>
      <trkpt lat="45.96801" lon="4.78555">
        <ele>203</ele>
        <time>2017-03-27T09:01:04Z</time>
      </trkpt>
      <trkpt lat="45.96805" lon="4.78561">
        <ele>203</ele>
        <time>2017-03-27T09:01:05Z</time>
      </trkpt>
      <trkpt lat="45.96809" lon="4.78567">
        <ele>203</ele>
        <time>2017-03-27T09:01:06Z</time>
      </trkpt>
      <trkpt lat="45.96812" lon="4.78572">
        <ele>203</ele>
        <time>2017-03-27T09:01:07Z</time>
      </trkpt>
      <trkpt lat="45.96816" lon="4.78577">
        <ele>203</ele>
        <time>2017-03-27T09:01:08Z</time>
      </trkpt>
      <trkpt lat="45.96821" lon="4.78586">
        <ele>202</ele>
        <time>2017-03-27T09:01:10Z</time>
      </trkpt>
      <trkpt lat="45.96823" lon="4.78592">
        <ele>202</ele>
        <time>2017-03-27T09:01:11Z</time>
      </trkpt>
      <trkpt lat="45.96825" lon="4.78597">
        <ele>202</ele>
        <time>2017-03-27T09:01:12Z</time>
      </trkpt>
      <trkpt lat="45.96827" lon="4.78604">
        <ele>202</ele>
        <time>2017-03-27T09:01:13Z</time>
      </trkpt>
      <trkpt lat="45.96829" lon="4.7861">
        <ele>202</ele>
        <time>2017-03-27T09:01:14Z</time>
      </trkpt>
      <trkpt lat="45.96831" lon="4.78616">
        <ele>202</ele>
        <time>2017-03-27T09:01:15Z</time>
      </trkpt>
      <trkpt lat="45.96834" lon="4.78623">
        <ele>203</ele>
        <time>2017-03-27T09:01:16Z</time>
      </trkpt>
      <trkpt lat="45.96836" lon="4.78629">
        <ele>203</ele>
        <time>2017-03-27T09:01:17Z</time>
      </trkpt>
      <trkpt lat="45.96838" lon="4.78636">
        <ele>203</ele>
        <time>2017-03-27T09:01:18Z</time>
      </trkpt>
      <trkpt lat="45.96841" lon="4.78642">
        <ele>203</ele>
        <time>2017-03-27T09:01:19Z</time>
      </trkpt>
      <trkpt lat="45.96844" lon="4.78648">
        <ele>203</ele>
        <time>2017-03-27T09:01:20Z</time>
      </trkpt>
      <trkpt lat="45.96847" lon="4.78654">
        <ele>203</ele>
        <time>2017-03-27T09:01:21Z</time>
      </trkpt>
      <trkpt lat="45.9685" lon="4.7866">
        <ele>203</ele>
        <time>2017-03-27T09:01:22Z</time>
      </trkpt>
      <trkpt lat="45.96853" lon="4.78666">
        <ele>203</ele>
        <time>2017-03-27T09:01:23Z</time>
      </trkpt>
      <trkpt lat="45.96856" lon="4.78671">
        <ele>202</ele>
        <time>2017-03-27T09:01:24Z</time>
      </trkpt>
      <trkpt lat="45.96857" lon="4.78678">
        <ele>202</ele>
        <time>2017-03-27T09:01:25Z</time>
      </trkpt>
      <trkpt lat="45.9686" lon="4.78683">
        <ele>202</ele>
        <time>2017-03-27T09:01:26Z</time>
      </trkpt>
      <trkpt lat="45.96862" lon="4.78689">
        <ele>202</ele>
        <time>2017-03-27T09:01:27Z</time>
      </trkpt>
      <trkpt lat="45.96865" lon="4.78694">
        <ele>202</ele>
        <time>2017-03-27T09:01:28Z</time>
      </trkpt>
      <trkpt lat="45.96867" lon="4.787">
        <ele>202</ele>
        <time>2017-03-27T09:01:29Z</time>
      </trkpt>
      <trkpt lat="45.96869" lon="4.78706">
        <ele>202</ele>
        <time>2017-03-27T09:01:30Z</time>
      </trkpt>
      <trkpt lat="45.96871" lon="4.78711">
        <ele>202</ele>
        <time>2017-03-27T09:01:31Z</time>
      </trkpt>
      <trkpt lat="45.96874" lon="4.78717">
        <ele>202</ele>
        <time>2017-03-27T09:01:32Z</time>
      </trkpt>
      <trkpt lat="45.96876" lon="4.78723">
        <ele>202</ele>
        <time>2017-03-27T09:01:33Z</time>
      </trkpt>
      <trkpt lat="45.96879" lon="4.78729">
        <ele>202</ele>
        <time>2017-03-27T09:01:34Z</time>
      </trkpt>
      <trkpt lat="45.96882" lon="4.78735">
        <ele>202</ele>
        <time>2017-03-27T09:01:35Z</time>
      </trkpt>
      <trkpt lat="45.96885" lon="4.78741">
        <ele>202</ele>
        <time>2017-03-27T09:01:36Z</time>
      </trkpt>
      <trkpt lat="45.96887" lon="4.78747">
        <ele>202</ele>
        <time>2017-03-27T09:01:37Z</time>
      </trkpt>
      <trkpt lat="45.9689" lon="4.78753">
        <ele>201</ele>
        <time>2017-03-27T09:01:38Z</time>
      </trkpt>
      <trkpt lat="45.96894" lon="4.78758">
        <ele>201</ele>
        <time>2017-03-27T09:01:39Z</time>
      </trkpt>
      <trkpt lat="45.96897" lon="4.78764">
        <ele>201</ele>
        <time>2017-03-27T09:01:40Z</time>
      </trkpt>
      <trkpt lat="45.96899" lon="4.7877">
        <ele>201</ele>
        <time>2017-03-27T09:01:41Z</time>
      </trkpt>
      <trkpt lat="45.96902" lon="4.78775">
        <ele>201</ele>
        <time>2017-03-27T09:01:42Z</time>
      </trkpt>
      <trkpt lat="45.96904" lon="4.78781">
        <ele>201</ele>
        <time>2017-03-27T09:01:43Z</time>
      </trkpt>
      <trkpt lat="45.96907" lon="4.78787">
        <ele>201</ele>
        <time>2017-03-27T09:01:44Z</time>
      </trkpt>
      <trkpt lat="45.9691" lon="4.78793">
        <ele>201</ele>
        <time>2017-03-27T09:01:45Z</time>
      </trkpt>
      <trkpt lat="45.96913" lon="4.78799">
        <ele>201</ele>
        <time>2017-03-27T09:01:46Z</time>
      </trkpt>
      <trkpt lat="45.96916" lon="4.78804">
        <ele>200</ele>
        <time>2017-03-27T09:01:47Z</time>
      </trkpt>
      <trkpt lat="45.96919" lon="4.7881">
        <ele>202</ele>
        <time>2017-03-27T09:01:48Z</time>
      </trkpt>
      <trkpt lat="45.96923" lon="4.78816">
        <ele>202</ele>
        <time>2017-03-27T09:01:49Z</time>
      </trkpt>
      <trkpt lat="45.96926" lon="4.78821">
        <ele>202</ele>
        <time>2017-03-27T09:01:50Z</time>
      </trkpt>
      <trkpt lat="45.9693" lon="4.78826">
        <ele>202</ele>
        <time>2017-03-27T09:01:51Z</time>
      </trkpt>
      <trkpt lat="45.96933" lon="4.78831">
        <ele>202</ele>
        <time>2017-03-27T09:01:52Z</time>
      </trkpt>
      <trkpt lat="45.96937" lon="4.78836">
        <ele>202</ele>
        <time>2017-03-27T09:01:53Z</time>
      </trkpt>
      <trkpt lat="45.96941" lon="4.7884">
        <ele>202</ele>
        <time>2017-03-27T09:01:54Z</time>
      </trkpt>
      <trkpt lat="45.96946" lon="4.78845">
        <ele>202</ele>
        <time>2017-03-27T09:01:55Z</time>
      </trkpt>
      <trkpt lat="45.9695" lon="4.78849">
        <ele>202</ele>
        <time>2017-03-27T09:01:56Z</time>
      </trkpt>
      <trkpt lat="45.96954" lon="4.78854">
        <ele>203</ele>
        <time>2017-03-27T09:01:57Z</time>
      </trkpt>
      <trkpt lat="45.96958" lon="4.78859">
        <ele>203</ele>
        <time>2017-03-27T09:01:58Z</time>
      </trkpt>
      <trkpt lat="45.96962" lon="4.78863">
        <ele>203</ele>
        <time>2017-03-27T09:01:59Z</time>
      </trkpt>
      <trkpt lat="45.96966" lon="4.78868">
        <ele>203</ele>
        <time>2017-03-27T09:02:00Z</time>
      </trkpt>
      <trkpt lat="45.9697" lon="4.78872">
        <ele>203</ele>
        <time>2017-03-27T09:02:01Z</time>
      </trkpt>
      <trkpt lat="45.96974" lon="4.78877">
        <ele>203</ele>
        <time>2017-03-27T09:02:02Z</time>
      </trkpt>
      <trkpt lat="45.96977" lon="4.78882">
        <ele>203</ele>
        <time>2017-03-27T09:02:03Z</time>
      </trkpt>
      <trkpt lat="45.96981" lon="4.78886">
        <ele>203</ele>
        <time>2017-03-27T09:02:04Z</time>
      </trkpt>
      <trkpt lat="45.96985" lon="4.7889">
        <ele>203</ele>
        <time>2017-03-27T09:02:05Z</time>
      </trkpt>
      <trkpt lat="45.96989" lon="4.78895">
        <ele>203</ele>
        <time>2017-03-27T09:02:06Z</time>
      </trkpt>
      <trkpt lat="45.96992" lon="4.78899">
        <ele>203</ele>
        <time>2017-03-27T09:02:07Z</time>
      </trkpt>
      <trkpt lat="45.96996" lon="4.78903">
        <ele>204</ele>
        <time>2017-03-27T09:02:08Z</time>
      </trkpt>
      <trkpt lat="45.96999" lon="4.78908">
        <ele>204</ele>
        <time>2017-03-27T09:02:09Z</time>
      </trkpt>
      <trkpt lat="45.97003" lon="4.78912">
        <ele>205</ele>
        <time>2017-03-27T09:02:10Z</time>
      </trkpt>
      <trkpt lat="45.97006" lon="4.78917">
        <ele>204</ele>
        <time>2017-03-27T09:02:11Z</time>
      </trkpt>
      <trkpt lat="45.97009" lon="4.78922">
        <ele>204</ele>
        <time>2017-03-27T09:02:12Z</time>
      </trkpt>
      <trkpt lat="45.97013" lon="4.78926">
        <ele>205</ele>
        <time>2017-03-27T09:02:13Z</time>
      </trkpt>
      <trkpt lat="45.97016" lon="4.78931">
        <ele>205</ele>
        <time>2017-03-27T09:02:14Z</time>
      </trkpt>
      <trkpt lat="45.97019" lon="4.78935">
        <ele>205</ele>
        <time>2017-03-27T09:02:15Z</time>
      </trkpt>
      <trkpt lat="45.97023" lon="4.7894">
        <ele>205</ele>
        <time>2017-03-27T09:02:16Z</time>
      </trkpt>
      <trkpt lat="45.97026" lon="4.78945">
        <ele>205</ele>
        <time>2017-03-27T09:02:17Z</time>
      </trkpt>
      <trkpt lat="45.9703" lon="4.7895">
        <ele>205</ele>
        <time>2017-03-27T09:02:18Z</time>
      </trkpt>
      <trkpt lat="45.97033" lon="4.78956">
        <ele>205</ele>
        <time>2017-03-27T09:02:19Z</time>
      </trkpt>
      <trkpt lat="45.97036" lon="4.78961">
        <ele>205</ele>
        <time>2017-03-27T09:02:20Z</time>
      </trkpt>
      <trkpt lat="45.97039" lon="4.78967">
        <ele>205</ele>
        <time>2017-03-27T09:02:21Z</time>
      </trkpt>
      <trkpt lat="45.97042" lon="4.78973">
        <ele>205</ele>
        <time>2017-03-27T09:02:22Z</time>
      </trkpt>
      <trkpt lat="45.97045" lon="4.7898">
        <ele>205</ele>
        <time>2017-03-27T09:02:23Z</time>
      </trkpt>
      <trkpt lat="45.97047" lon="4.78986">
        <ele>205</ele>
        <time>2017-03-27T09:02:24Z</time>
      </trkpt>
      <trkpt lat="45.97048" lon="4.78992">
        <ele>205</ele>
        <time>2017-03-27T09:02:25Z</time>
      </trkpt>
      <trkpt lat="45.97051" lon="4.78999">
        <ele>205</ele>
        <time>2017-03-27T09:02:26Z</time>
      </trkpt>
      <trkpt lat="45.97054" lon="4.79004">
        <ele>203</ele>
        <time>2017-03-27T09:02:27Z</time>
      </trkpt>
      <trkpt lat="45.97057" lon="4.7901">
        <ele>203</ele>
        <time>2017-03-27T09:02:28Z</time>
      </trkpt>
      <trkpt lat="45.97059" lon="4.79016">
        <ele>204</ele>
        <time>2017-03-27T09:02:29Z</time>
      </trkpt>
      <trkpt lat="45.97062" lon="4.79022">
        <ele>204</ele>
        <time>2017-03-27T09:02:30Z</time>
      </trkpt>
      <trkpt lat="45.97064" lon="4.79028">
        <ele>203</ele>
        <time>2017-03-27T09:02:31Z</time>
      </trkpt>
      <trkpt lat="45.97065" lon="4.79037">
        <ele>203</ele>
        <time>2017-03-27T09:02:32Z</time>
      </trkpt>
      <trkpt lat="45.97067" lon="4.79044">
        <ele>203</ele>
        <time>2017-03-27T09:02:33Z</time>
      </trkpt>
      <trkpt lat="45.97069" lon="4.79051">
        <ele>203</ele>
        <time>2017-03-27T09:02:34Z</time>
      </trkpt>
      <trkpt lat="45.9707" lon="4.79057">
        <ele>203</ele>
        <time>2017-03-27T09:02:35Z</time>
      </trkpt>
      <trkpt lat="45.97071" lon="4.79063">
        <ele>203</ele>
        <time>2017-03-27T09:02:36Z</time>
      </trkpt>
      <trkpt lat="45.97072" lon="4.7907">
        <ele>204</ele>
        <time>2017-03-27T09:02:37Z</time>
      </trkpt>
      <trkpt lat="45.97073" lon="4.79077">
        <ele>204</ele>
        <time>2017-03-27T09:02:38Z</time>
      </trkpt>
      <trkpt lat="45.97075" lon="4.79083">
        <ele>204</ele>
        <time>2017-03-27T09:02:39Z</time>
      </trkpt>
      <trkpt lat="45.97077" lon="4.7909">
        <ele>204</ele>
        <time>2017-03-27T09:02:40Z</time>
      </trkpt>
      <trkpt lat="45.97078" lon="4.79096">
        <ele>204</ele>
        <time>2017-03-27T09:02:41Z</time>
      </trkpt>
      <trkpt lat="45.9708" lon="4.79103">
        <ele>204</ele>
        <time>2017-03-27T09:02:42Z</time>
      </trkpt>
      <trkpt lat="45.97082" lon="4.79108">
        <ele>204</ele>
        <time>2017-03-27T09:02:43Z</time>
      </trkpt>
      <trkpt lat="45.97084" lon="4.79114">
        <ele>206</ele>
        <time>2017-03-27T09:02:44Z</time>
      </trkpt>
      <trkpt lat="45.97087" lon="4.7912">
        <ele>206</ele>
        <time>2017-03-27T09:02:45Z</time>
      </trkpt>
      <trkpt lat="45.9709" lon="4.79126">
        <ele>206</ele>
        <time>2017-03-27T09:02:46Z</time>
      </trkpt>
      <trkpt lat="45.97093" lon="4.79131">
        <ele>206</ele>
        <time>2017-03-27T09:02:47Z</time>
      </trkpt>
      <trkpt lat="45.97096" lon="4.79136">
        <ele>206</ele>
        <time>2017-03-27T09:02:48Z</time>
      </trkpt>
      <trkpt lat="45.97099" lon="4.79142">
        <ele>206</ele>
        <time>2017-03-27T09:02:49Z</time>
      </trkpt>
      <trkpt lat="45.97103" lon="4.79148">
        <ele>206</ele>
        <time>2017-03-27T09:02:50Z</time>
      </trkpt>
      <trkpt lat="45.97106" lon="4.79154">
        <ele>206</ele>
        <time>2017-03-27T09:02:51Z</time>
      </trkpt>
      <trkpt lat="45.97109" lon="4.79159">
        <ele>206</ele>
        <time>2017-03-27T09:02:52Z</time>
      </trkpt>
      <trkpt lat="45.97112" lon="4.79165">
        <ele>206</ele>
        <time>2017-03-27T09:02:53Z</time>
      </trkpt>
      <trkpt lat="45.97114" lon="4.79172">
        <ele>206</ele>
        <time>2017-03-27T09:02:54Z</time>
      </trkpt>
      <trkpt lat="45.97117" lon="4.79178">
        <ele>206</ele>
        <time>2017-03-27T09:02:55Z</time>
      </trkpt>
      <trkpt lat="45.9712" lon="4.79185">
        <ele>206</ele>
        <time>2017-03-27T09:02:56Z</time>
      </trkpt>
      <trkpt lat="45.97122" lon="4.79192">
        <ele>206</ele>
        <time>2017-03-27T09:02:57Z</time>
      </trkpt>
      <trkpt lat="45.97124" lon="4.79199">
        <ele>206</ele>
        <time>2017-03-27T09:02:58Z</time>
      </trkpt>
      <trkpt lat="45.97127" lon="4.79206">
        <ele>206</ele>
        <time>2017-03-27T09:02:59Z</time>
      </trkpt>
      <trkpt lat="45.9713" lon="4.79212">
        <ele>206</ele>
        <time>2017-03-27T09:03:00Z</time>
      </trkpt>
      <trkpt lat="45.97133" lon="4.79218">
        <ele>205</ele>
        <time>2017-03-27T09:03:01Z</time>
      </trkpt>
      <trkpt lat="45.97136" lon="4.79224">
        <ele>205</ele>
        <time>2017-03-27T09:03:02Z</time>
      </trkpt>
      <trkpt lat="45.97138" lon="4.7923">
        <ele>205</ele>
        <time>2017-03-27T09:03:03Z</time>
      </trkpt>
      <trkpt lat="45.9714" lon="4.79235">
        <ele>205</ele>
        <time>2017-03-27T09:03:04Z</time>
      </trkpt>
      <trkpt lat="45.97142" lon="4.79242">
        <ele>205</ele>
        <time>2017-03-27T09:03:05Z</time>
      </trkpt>
      <trkpt lat="45.97145" lon="4.79248">
        <ele>205</ele>
        <time>2017-03-27T09:03:06Z</time>
      </trkpt>
      <trkpt lat="45.97147" lon="4.79254">
        <ele>204</ele>
        <time>2017-03-27T09:03:07Z</time>
      </trkpt>
      <trkpt lat="45.9715" lon="4.79261">
        <ele>204</ele>
        <time>2017-03-27T09:03:08Z</time>
      </trkpt>
      <trkpt lat="45.97153" lon="4.79267">
        <ele>204</ele>
        <time>2017-03-27T09:03:09Z</time>
      </trkpt>
      <trkpt lat="45.97156" lon="4.79274">
        <ele>204</ele>
        <time>2017-03-27T09:03:10Z</time>
      </trkpt>
      <trkpt lat="45.97159" lon="4.79281">
        <ele>204</ele>
        <time>2017-03-27T09:03:11Z</time>
      </trkpt>
      <trkpt lat="45.97161" lon="4.79288">
        <ele>204</ele>
        <time>2017-03-27T09:03:12Z</time>
      </trkpt>
      <trkpt lat="45.97164" lon="4.79295">
        <ele>204</ele>
        <time>2017-03-27T09:03:13Z</time>
      </trkpt>
      <trkpt lat="45.97166" lon="4.79302">
        <ele>204</ele>
        <time>2017-03-27T09:03:14Z</time>
      </trkpt>
      <trkpt lat="45.97169" lon="4.79307">
        <ele>207</ele>
        <time>2017-03-27T09:03:15Z</time>
      </trkpt>
      <trkpt lat="45.97171" lon="4.79313">
        <ele>207</ele>
        <time>2017-03-27T09:03:16Z</time>
      </trkpt>
      <trkpt lat="45.97173" lon="4.79319">
        <ele>207</ele>
        <time>2017-03-27T09:03:17Z</time>
      </trkpt>
      <trkpt lat="45.97175" lon="4.79325">
        <ele>206</ele>
        <time>2017-03-27T09:03:18Z</time>
      </trkpt>
      <trkpt lat="45.97178" lon="4.79331">
        <ele>206</ele>
        <time>2017-03-27T09:03:19Z</time>
      </trkpt>
      <trkpt lat="45.97181" lon="4.79336">
        <ele>206</ele>
        <time>2017-03-27T09:03:20Z</time>
      </trkpt>
      <trkpt lat="45.97183" lon="4.79342">
        <ele>207</ele>
        <time>2017-03-27T09:03:21Z</time>
      </trkpt>
      <trkpt lat="45.97186" lon="4.79348">
        <ele>207</ele>
        <time>2017-03-27T09:03:22Z</time>
      </trkpt>
      <trkpt lat="45.97188" lon="4.79354">
        <ele>207</ele>
        <time>2017-03-27T09:03:23Z</time>
      </trkpt>
      <trkpt lat="45.97191" lon="4.7936">
        <ele>207</ele>
        <time>2017-03-27T09:03:24Z</time>
      </trkpt>
      <trkpt lat="45.97193" lon="4.79366">
        <ele>207</ele>
        <time>2017-03-27T09:03:25Z</time>
      </trkpt>
      <trkpt lat="45.97196" lon="4.79372">
        <ele>207</ele>
        <time>2017-03-27T09:03:26Z</time>
      </trkpt>
      <trkpt lat="45.97199" lon="4.79378">
        <ele>207</ele>
        <time>2017-03-27T09:03:27Z</time>
      </trkpt>
      <trkpt lat="45.97201" lon="4.79383">
        <ele>207</ele>
        <time>2017-03-27T09:03:28Z</time>
      </trkpt>
      <trkpt lat="45.97203" lon="4.79389">
        <ele>208</ele>
        <time>2017-03-27T09:03:29Z</time>
      </trkpt>
      <trkpt lat="45.97205" lon="4.79395">
        <ele>208</ele>
        <time>2017-03-27T09:03:30Z</time>
      </trkpt>
      <trkpt lat="45.97207" lon="4.79401">
        <ele>208</ele>
        <time>2017-03-27T09:03:31Z</time>
      </trkpt>
      <trkpt lat="45.9721" lon="4.79407">
        <ele>208</ele>
        <time>2017-03-27T09:03:32Z</time>
      </trkpt>
      <trkpt lat="45.97212" lon="4.79413">
        <ele>208</ele>
        <time>2017-03-27T09:03:33Z</time>
      </trkpt>
      <trkpt lat="45.97217" lon="4.79423">
        <ele>208</ele>
        <time>2017-03-27T09:03:35Z</time>
      </trkpt>
      <trkpt lat="45.9722" lon="4.79428">
        <ele>208</ele>
        <time>2017-03-27T09:03:36Z</time>
      </trkpt>
      <trkpt lat="45.97224" lon="4.79437">
        <ele>209</ele>
        <time>2017-03-27T09:03:38Z</time>
      </trkpt>
      <trkpt lat="45.97226" lon="4.79443">
        <ele>209</ele>
        <time>2017-03-27T09:03:39Z</time>
      </trkpt>
      <trkpt lat="45.97228" lon="4.79449">
        <ele>209</ele>
        <time>2017-03-27T09:03:40Z</time>
      </trkpt>
      <trkpt lat="45.9723" lon="4.79455">
        <ele>209</ele>
        <time>2017-03-27T09:03:41Z</time>
      </trkpt>
      <trkpt lat="45.97231" lon="4.79461">
        <ele>209</ele>
        <time>2017-03-27T09:03:42Z</time>
      </trkpt>
      <trkpt lat="45.97233" lon="4.79468">
        <ele>209</ele>
        <time>2017-03-27T09:03:43Z</time>
      </trkpt>
      <trkpt lat="45.97235" lon="4.79474">
        <ele>209</ele>
        <time>2017-03-27T09:03:44Z</time>
      </trkpt>
      <trkpt lat="45.97237" lon="4.79481">
        <ele>209</ele>
        <time>2017-03-27T09:03:45Z</time>
      </trkpt>
      <trkpt lat="45.9724" lon="4.79487">
        <ele>210</ele>
        <time>2017-03-27T09:03:46Z</time>
      </trkpt>
      <trkpt lat="45.97242" lon="4.79494">
        <ele>210</ele>
        <time>2017-03-27T09:03:47Z</time>
      </trkpt>
      <trkpt lat="45.97243" lon="4.79501">
        <ele>210</ele>
        <time>2017-03-27T09:03:48Z</time>
      </trkpt>
      <trkpt lat="45.97244" lon="4.79508">
        <ele>210</ele>
        <time>2017-03-27T09:03:49Z</time>
      </trkpt>
      <trkpt lat="45.97246" lon="4.79514">
        <ele>210</ele>
        <time>2017-03-27T09:03:50Z</time>
      </trkpt>
      <trkpt lat="45.97247" lon="4.79521">
        <ele>210</ele>
        <time>2017-03-27T09:03:51Z</time>
      </trkpt>
      <trkpt lat="45.97248" lon="4.79527">
        <ele>210</ele>
        <time>2017-03-27T09:03:52Z</time>
      </trkpt>
      <trkpt lat="45.9725" lon="4.79534">
        <ele>210</ele>
        <time>2017-03-27T09:03:53Z</time>
      </trkpt>
      <trkpt lat="45.97251" lon="4.79541">
        <ele>214</ele>
        <time>2017-03-27T09:03:54Z</time>
      </trkpt>
      <trkpt lat="45.97252" lon="4.79548">
        <ele>214</ele>
        <time>2017-03-27T09:03:55Z</time>
      </trkpt>
      <trkpt lat="45.97253" lon="4.7956">
        <ele>213</ele>
        <time>2017-03-27T09:03:57Z</time>
      </trkpt>
      <trkpt lat="45.97254" lon="4.79567">
        <ele>213</ele>
        <time>2017-03-27T09:03:58Z</time>
      </trkpt>
      <trkpt lat="45.97255" lon="4.79574">
        <ele>212</ele>
        <time>2017-03-27T09:03:59Z</time>
      </trkpt>
      <trkpt lat="45.97257" lon="4.79581">
        <ele>211</ele>
        <time>2017-03-27T09:04:00Z</time>
      </trkpt>
      <trkpt lat="45.97256" lon="4.79587">
        <ele>211</ele>
        <time>2017-03-27T09:04:01Z</time>
      </trkpt>
      <trkpt lat="45.97255" lon="4.79594">
        <ele>212</ele>
        <time>2017-03-27T09:04:02Z</time>
      </trkpt>
      <trkpt lat="45.97257" lon="4.79603">
        <ele>213</ele>
        <time>2017-03-27T09:04:03Z</time>
      </trkpt>
      <trkpt lat="45.97258" lon="4.7961">
        <ele>213</ele>
        <time>2017-03-27T09:04:04Z</time>
      </trkpt>
      <trkpt lat="45.97258" lon="4.79617">
        <ele>213</ele>
        <time>2017-03-27T09:04:05Z</time>
      </trkpt>
      <trkpt lat="45.97258" lon="4.79623">
        <ele>213</ele>
        <time>2017-03-27T09:04:06Z</time>
      </trkpt>
      <trkpt lat="45.97258" lon="4.79635">
        <ele>213</ele>
        <time>2017-03-27T09:04:08Z</time>
      </trkpt>
      <trkpt lat="45.97259" lon="4.79641">
        <ele>212</ele>
        <time>2017-03-27T09:04:09Z</time>
      </trkpt>
      <trkpt lat="45.97258" lon="4.79652">
        <ele>211</ele>
        <time>2017-03-27T09:04:11Z</time>
      </trkpt>
      <trkpt lat="45.97256" lon="4.79658">
        <ele>210</ele>
        <time>2017-03-27T09:04:12Z</time>
      </trkpt>
      <trkpt lat="45.97255" lon="4.79664">
        <ele>209</ele>
        <time>2017-03-27T09:04:13Z</time>
      </trkpt>
      <trkpt lat="45.97253" lon="4.7967">
        <ele>209</ele>
        <time>2017-03-27T09:04:14Z</time>
      </trkpt>
      <trkpt lat="45.97251" lon="4.79677">
        <ele>210</ele>
        <time>2017-03-27T09:04:15Z</time>
      </trkpt>
      <trkpt lat="45.9725" lon="4.79684">
        <ele>208</ele>
        <time>2017-03-27T09:04:16Z</time>
      </trkpt>
      <trkpt lat="45.97249" lon="4.79692">
        <ele>208</ele>
        <time>2017-03-27T09:04:17Z</time>
      </trkpt>
      <trkpt lat="45.97248" lon="4.79699">
        <ele>208</ele>
        <time>2017-03-27T09:04:18Z</time>
      </trkpt>
      <trkpt lat="45.97247" lon="4.79706">
        <ele>208</ele>
        <time>2017-03-27T09:04:19Z</time>
      </trkpt>
      <trkpt lat="45.97246" lon="4.79713">
        <ele>209</ele>
        <time>2017-03-27T09:04:20Z</time>
      </trkpt>
      <trkpt lat="45.97244" lon="4.7972">
        <ele>209</ele>
        <time>2017-03-27T09:04:21Z</time>
      </trkpt>
      <trkpt lat="45.97244" lon="4.79728">
        <ele>209</ele>
        <time>2017-03-27T09:04:22Z</time>
      </trkpt>
      <trkpt lat="45.97243" lon="4.79735">
        <ele>209</ele>
        <time>2017-03-27T09:04:23Z</time>
      </trkpt>
      <trkpt lat="45.97242" lon="4.79742">
        <ele>209</ele>
        <time>2017-03-27T09:04:24Z</time>
      </trkpt>
      <trkpt lat="45.97241" lon="4.79749">
        <ele>209</ele>
        <time>2017-03-27T09:04:25Z</time>
      </trkpt>
      <trkpt lat="45.9724" lon="4.79756">
        <ele>209</ele>
        <time>2017-03-27T09:04:26Z</time>
      </trkpt>
      <trkpt lat="45.97239" lon="4.79763">
        <ele>209</ele>
        <time>2017-03-27T09:04:27Z</time>
      </trkpt>
      <trkpt lat="45.97238" lon="4.7977">
        <ele>210</ele>
        <time>2017-03-27T09:04:28Z</time>
      </trkpt>
      <trkpt lat="45.97237" lon="4.79778">
        <ele>210</ele>
        <time>2017-03-27T09:04:29Z</time>
      </trkpt>
      <trkpt lat="45.97237" lon="4.79785">
        <ele>210</ele>
        <time>2017-03-27T09:04:30Z</time>
      </trkpt>
      <trkpt lat="45.97236" lon="4.79793">
        <ele>210</ele>
        <time>2017-03-27T09:04:31Z</time>
      </trkpt>
      <trkpt lat="45.97236" lon="4.798">
        <ele>210</ele>
        <time>2017-03-27T09:04:32Z</time>
      </trkpt>
      <trkpt lat="45.97236" lon="4.79807">
        <ele>210</ele>
        <time>2017-03-27T09:04:33Z</time>
      </trkpt>
      <trkpt lat="45.97236" lon="4.79814">
        <ele>211</ele>
        <time>2017-03-27T09:04:34Z</time>
      </trkpt>
      <trkpt lat="45.97236" lon="4.79821">
        <ele>211</ele>
        <time>2017-03-27T09:04:35Z</time>
      </trkpt>
      <trkpt lat="45.97235" lon="4.79827">
        <ele>211</ele>
        <time>2017-03-27T09:04:36Z</time>
      </trkpt>
      <trkpt lat="45.97235" lon="4.7984">
        <ele>211</ele>
        <time>2017-03-27T09:04:38Z</time>
      </trkpt>
      <trkpt lat="45.97235" lon="4.79846">
        <ele>211</ele>
        <time>2017-03-27T09:04:39Z</time>
      </trkpt>
      <trkpt lat="45.97236" lon="4.79852">
        <ele>211</ele>
        <time>2017-03-27T09:04:40Z</time>
      </trkpt>
      <trkpt lat="45.97237" lon="4.79858">
        <ele>211</ele>
        <time>2017-03-27T09:04:41Z</time>
      </trkpt>
      <trkpt lat="45.97239" lon="4.79864">
        <ele>211</ele>
        <time>2017-03-27T09:04:42Z</time>
      </trkpt>
      <trkpt lat="45.97242" lon="4.7987">
        <ele>211</ele>
        <time>2017-03-27T09:04:43Z</time>
      </trkpt>
      <trkpt lat="45.97244" lon="4.79876">
        <ele>211</ele>
        <time>2017-03-27T09:04:44Z</time>
      </trkpt>
      <trkpt lat="45.97246" lon="4.79882">
        <ele>211</ele>
        <time>2017-03-27T09:04:45Z</time>
      </trkpt>
      <trkpt lat="45.97249" lon="4.79894">
        <ele>211</ele>
        <time>2017-03-27T09:04:48Z</time>
      </trkpt>
      <trkpt lat="45.9725" lon="4.79898">
        <ele>211</ele>
        <time>2017-03-27T09:04:49Z</time>
      </trkpt>
      <trkpt lat="45.97252" lon="4.7991">
        <ele>212</ele>
        <time>2017-03-27T09:04:55Z</time>
      </trkpt>
      <trkpt lat="45.97254" lon="4.79913">
        <ele>212</ele>
        <time>2017-03-27T09:04:56Z</time>
      </trkpt>
      <trkpt lat="45.9726" lon="4.79915">
        <ele>212</ele>
        <time>2017-03-27T09:04:58Z</time>
      </trkpt>
      <trkpt lat="45.97264" lon="4.79915">
        <ele>213</ele>
        <time>2017-03-27T09:04:59Z</time>
      </trkpt>
      <trkpt lat="45.97271" lon="4.79914">
        <ele>213</ele>
        <time>2017-03-27T09:05:01Z</time>
      </trkpt>
      <trkpt lat="45.97275" lon="4.79915">
        <ele>213</ele>
        <time>2017-03-27T09:05:02Z</time>
      </trkpt>
      <trkpt lat="45.97283" lon="4.79915">
        <ele>213</ele>
        <time>2017-03-27T09:05:04Z</time>
      </trkpt>
      <trkpt lat="45.97287" lon="4.79915">
        <ele>213</ele>
        <time>2017-03-27T09:05:05Z</time>
      </trkpt>
      <trkpt lat="45.97295" lon="4.79914">
        <ele>213</ele>
        <time>2017-03-27T09:05:07Z</time>
      </trkpt>
      <trkpt lat="45.973" lon="4.79914">
        <ele>213</ele>
        <time>2017-03-27T09:05:08Z</time>
      </trkpt>
      <trkpt lat="45.97308" lon="4.79913">
        <ele>213</ele>
        <time>2017-03-27T09:05:10Z</time>
      </trkpt>
      <trkpt lat="45.97313" lon="4.79912">
        <ele>213</ele>
        <time>2017-03-27T09:05:11Z</time>
      </trkpt>
      <trkpt lat="45.97321" lon="4.79911">
        <ele>213</ele>
        <time>2017-03-27T09:05:13Z</time>
      </trkpt>
      <trkpt lat="45.97326" lon="4.79911">
        <ele>213</ele>
        <time>2017-03-27T09:05:14Z</time>
      </trkpt>
      <trkpt lat="45.9733" lon="4.79911">
        <ele>213</ele>
        <time>2017-03-27T09:05:15Z</time>
      </trkpt>
      <trkpt lat="45.97335" lon="4.7991">
        <ele>214</ele>
        <time>2017-03-27T09:05:16Z</time>
      </trkpt>
      <trkpt lat="45.97343" lon="4.79908">
        <ele>215</ele>
        <time>2017-03-27T09:05:18Z</time>
      </trkpt>
      <trkpt lat="45.97347" lon="4.79907">
        <ele>215</ele>
        <time>2017-03-27T09:05:19Z</time>
      </trkpt>
      <trkpt lat="45.97354" lon="4.79903">
        <ele>216</ele>
        <time>2017-03-27T09:05:21Z</time>
      </trkpt>
      <trkpt lat="45.97356" lon="4.79902">
        <ele>216</ele>
        <time>2017-03-27T09:05:22Z</time>
      </trkpt>
      <trkpt lat="45.97365" lon="4.79902">
        <ele>216</ele>
        <time>2017-03-27T09:05:24Z</time>
      </trkpt>
      <trkpt lat="45.97369" lon="4.79901">
        <ele>217</ele>
        <time>2017-03-27T09:05:25Z</time>
      </trkpt>
      <trkpt lat="45.97378" lon="4.799">
        <ele>217</ele>
        <time>2017-03-27T09:05:27Z</time>
      </trkpt>
      <trkpt lat="45.97381" lon="4.799">
        <ele>217</ele>
        <time>2017-03-27T09:05:28Z</time>
      </trkpt>
      <trkpt lat="45.97389" lon="4.79898">
        <ele>217</ele>
        <time>2017-03-27T09:05:30Z</time>
      </trkpt>
      <trkpt lat="45.97395" lon="4.79898">
        <ele>217</ele>
        <time>2017-03-27T09:05:31Z</time>
      </trkpt>
      <trkpt lat="45.97404" lon="4.799">
        <ele>217</ele>
        <time>2017-03-27T09:05:33Z</time>
      </trkpt>
      <trkpt lat="45.97408" lon="4.799">
        <ele>217</ele>
        <time>2017-03-27T09:05:34Z</time>
      </trkpt>
      <trkpt lat="45.97416" lon="4.799">
        <ele>217</ele>
        <time>2017-03-27T09:05:36Z</time>
      </trkpt>
      <trkpt lat="45.97421" lon="4.79897">
        <ele>219</ele>
        <time>2017-03-27T09:05:37Z</time>
      </trkpt>
      <trkpt lat="45.97429" lon="4.79897">
        <ele>219</ele>
        <time>2017-03-27T09:05:39Z</time>
      </trkpt>
      <trkpt lat="45.97433" lon="4.79897">
        <ele>219</ele>
        <time>2017-03-27T09:05:40Z</time>
      </trkpt>
      <trkpt lat="45.97441" lon="4.79897">
        <ele>220</ele>
        <time>2017-03-27T09:05:42Z</time>
      </trkpt>
      <trkpt lat="45.97445" lon="4.79898">
        <ele>220</ele>
        <time>2017-03-27T09:05:43Z</time>
      </trkpt>
      <trkpt lat="45.97454" lon="4.79896">
        <ele>220</ele>
        <time>2017-03-27T09:05:45Z</time>
      </trkpt>
      <trkpt lat="45.97459" lon="4.79896">
        <ele>220</ele>
        <time>2017-03-27T09:05:46Z</time>
      </trkpt>
      <trkpt lat="45.97463" lon="4.79895">
        <ele>220</ele>
        <time>2017-03-27T09:05:47Z</time>
      </trkpt>
      <trkpt lat="45.97468" lon="4.79894">
        <ele>221</ele>
        <time>2017-03-27T09:05:48Z</time>
      </trkpt>
      <trkpt lat="45.97476" lon="4.79894">
        <ele>221</ele>
        <time>2017-03-27T09:05:50Z</time>
      </trkpt>
      <trkpt lat="45.9748" lon="4.79894">
        <ele>221</ele>
        <time>2017-03-27T09:05:51Z</time>
      </trkpt>
      <trkpt lat="45.97488" lon="4.79893">
        <ele>221</ele>
        <time>2017-03-27T09:05:53Z</time>
      </trkpt>
      <trkpt lat="45.97491" lon="4.79892">
        <ele>221</ele>
        <time>2017-03-27T09:05:54Z</time>
      </trkpt>
      <trkpt lat="45.97498" lon="4.7989">
        <ele>221</ele>
        <time>2017-03-27T09:05:56Z</time>
      </trkpt>
      <trkpt lat="45.97501" lon="4.7989">
        <ele>221</ele>
        <time>2017-03-27T09:05:57Z</time>
      </trkpt>
      <trkpt lat="45.97508" lon="4.79889">
        <ele>221</ele>
        <time>2017-03-27T09:05:59Z</time>
      </trkpt>
      <trkpt lat="45.97512" lon="4.79889">
        <ele>221</ele>
        <time>2017-03-27T09:06:00Z</time>
      </trkpt>
      <trkpt lat="45.97519" lon="4.79889">
        <ele>221</ele>
        <time>2017-03-27T09:06:02Z</time>
      </trkpt>
      <trkpt lat="45.97524" lon="4.79889">
        <ele>221</ele>
        <time>2017-03-27T09:06:03Z</time>
      </trkpt>
      <trkpt lat="45.97531" lon="4.79887">
        <ele>221</ele>
        <time>2017-03-27T09:06:05Z</time>
      </trkpt>
      <trkpt lat="45.97535" lon="4.79887">
        <ele>221</ele>
        <time>2017-03-27T09:06:06Z</time>
      </trkpt>
      <trkpt lat="45.97541" lon="4.79885">
        <ele>221</ele>
        <time>2017-03-27T09:06:08Z</time>
      </trkpt>
      <trkpt lat="45.97545" lon="4.79885">
        <ele>221</ele>
        <time>2017-03-27T09:06:09Z</time>
      </trkpt>
      <trkpt lat="45.97552" lon="4.79883">
        <ele>221</ele>
        <time>2017-03-27T09:06:11Z</time>
      </trkpt>
      <trkpt lat="45.97556" lon="4.79882">
        <ele>221</ele>
        <time>2017-03-27T09:06:12Z</time>
      </trkpt>
      <trkpt lat="45.97564" lon="4.7988">
        <ele>221</ele>
        <time>2017-03-27T09:06:14Z</time>
      </trkpt>
      <trkpt lat="45.97568" lon="4.79878">
        <ele>221</ele>
        <time>2017-03-27T09:06:15Z</time>
      </trkpt>
      <trkpt lat="45.97576" lon="4.79876">
        <ele>221</ele>
        <time>2017-03-27T09:06:17Z</time>
      </trkpt>
      <trkpt lat="45.9758" lon="4.79875">
        <ele>221</ele>
        <time>2017-03-27T09:06:18Z</time>
      </trkpt>
      <trkpt lat="45.97587" lon="4.79874">
        <ele>221</ele>
        <time>2017-03-27T09:06:20Z</time>
      </trkpt>
      <trkpt lat="45.97591" lon="4.79872">
        <ele>221</ele>
        <time>2017-03-27T09:06:21Z</time>
      </trkpt>
      <trkpt lat="45.97598" lon="4.7987">
        <ele>221</ele>
        <time>2017-03-27T09:06:23Z</time>
      </trkpt>
      <trkpt lat="45.97601" lon="4.79869">
        <ele>221</ele>
        <time>2017-03-27T09:06:24Z</time>
      </trkpt>
      <trkpt lat="45.97609" lon="4.79867">
        <ele>221</ele>
        <time>2017-03-27T09:06:26Z</time>
      </trkpt>
      <trkpt lat="45.97613" lon="4.79866">
        <ele>221</ele>
        <time>2017-03-27T09:06:27Z</time>
      </trkpt>
      <trkpt lat="45.9762" lon="4.79863">
        <ele>221</ele>
        <time>2017-03-27T09:06:29Z</time>
      </trkpt>
      <trkpt lat="45.97624" lon="4.79861">
        <ele>221</ele>
        <time>2017-03-27T09:06:30Z</time>
      </trkpt>
      <trkpt lat="45.97631" lon="4.79858">
        <ele>221</ele>
        <time>2017-03-27T09:06:32Z</time>
      </trkpt>
      <trkpt lat="45.97635" lon="4.79856">
        <ele>221</ele>
        <time>2017-03-27T09:06:33Z</time>
      </trkpt>
      <trkpt lat="45.9764" lon="4.79855">
        <ele>221</ele>
        <time>2017-03-27T09:06:34Z</time>
      </trkpt>
      <trkpt lat="45.97644" lon="4.79853">
        <ele>221</ele>
        <time>2017-03-27T09:06:35Z</time>
      </trkpt>
      <trkpt lat="45.97653" lon="4.7985">
        <ele>221</ele>
        <time>2017-03-27T09:06:37Z</time>
      </trkpt>
      <trkpt lat="45.97657" lon="4.79849">
        <ele>221</ele>
        <time>2017-03-27T09:06:38Z</time>
      </trkpt>
      <trkpt lat="45.97662" lon="4.79847">
        <ele>221</ele>
        <time>2017-03-27T09:06:39Z</time>
      </trkpt>
      <trkpt lat="45.97666" lon="4.79846">
        <ele>221</ele>
        <time>2017-03-27T09:06:40Z</time>
      </trkpt>
      <trkpt lat="45.97671" lon="4.79845">
        <ele>221</ele>
        <time>2017-03-27T09:06:41Z</time>
      </trkpt>
      <trkpt lat="45.97675" lon="4.79843">
        <ele>221</ele>
        <time>2017-03-27T09:06:42Z</time>
      </trkpt>
      <trkpt lat="45.9768" lon="4.79842">
        <ele>221</ele>
        <time>2017-03-27T09:06:43Z</time>
      </trkpt>
      <trkpt lat="45.97685" lon="4.79841">
        <ele>221</ele>
        <time>2017-03-27T09:06:44Z</time>
      </trkpt>
      <trkpt lat="45.97689" lon="4.7984">
        <ele>220</ele>
        <time>2017-03-27T09:06:45Z</time>
      </trkpt>
      <trkpt lat="45.97694" lon="4.79839">
        <ele>220</ele>
        <time>2017-03-27T09:06:46Z</time>
      </trkpt>
      <trkpt lat="45.97702" lon="4.79836">
        <ele>220</ele>
        <time>2017-03-27T09:06:48Z</time>
      </trkpt>
      <trkpt lat="45.97706" lon="4.79835">
        <ele>220</ele>
        <time>2017-03-27T09:06:49Z</time>
      </trkpt>
      <trkpt lat="45.9771" lon="4.79834">
        <ele>220</ele>
        <time>2017-03-27T09:06:50Z</time>
      </trkpt>
      <trkpt lat="45.97715" lon="4.79833">
        <ele>223</ele>
        <time>2017-03-27T09:06:51Z</time>
      </trkpt>
      <trkpt lat="45.9772" lon="4.79832">
        <ele>223</ele>
        <time>2017-03-27T09:06:52Z</time>
      </trkpt>
      <trkpt lat="45.97725" lon="4.7983">
        <ele>223</ele>
        <time>2017-03-27T09:06:53Z</time>
      </trkpt>
      <trkpt lat="45.9773" lon="4.7983">
        <ele>223</ele>
        <time>2017-03-27T09:06:54Z</time>
      </trkpt>
      <trkpt lat="45.97735" lon="4.79829">
        <ele>223</ele>
        <time>2017-03-27T09:06:55Z</time>
      </trkpt>
      <trkpt lat="45.9774" lon="4.79827">
        <ele>223</ele>
        <time>2017-03-27T09:06:56Z</time>
      </trkpt>
      <trkpt lat="45.97746" lon="4.79826">
        <ele>222</ele>
        <time>2017-03-27T09:06:57Z</time>
      </trkpt>
      <trkpt lat="45.97751" lon="4.79825">
        <ele>222</ele>
        <time>2017-03-27T09:06:58Z</time>
      </trkpt>
      <trkpt lat="45.97756" lon="4.79823">
        <ele>222</ele>
        <time>2017-03-27T09:06:59Z</time>
      </trkpt>
      <trkpt lat="45.97762" lon="4.79822">
        <ele>223</ele>
        <time>2017-03-27T09:07:00Z</time>
      </trkpt>
      <trkpt lat="45.97767" lon="4.79821">
        <ele>223</ele>
        <time>2017-03-27T09:07:01Z</time>
      </trkpt>
      <trkpt lat="45.97772" lon="4.7982">
        <ele>223</ele>
        <time>2017-03-27T09:07:02Z</time>
      </trkpt>
      <trkpt lat="45.97777" lon="4.79819">
        <ele>223</ele>
        <time>2017-03-27T09:07:03Z</time>
      </trkpt>
      <trkpt lat="45.97782" lon="4.79817">
        <ele>223</ele>
        <time>2017-03-27T09:07:04Z</time>
      </trkpt>
      <trkpt lat="45.97787" lon="4.79816">
        <ele>223</ele>
        <time>2017-03-27T09:07:05Z</time>
      </trkpt>
      <trkpt lat="45.97792" lon="4.79816">
        <ele>223</ele>
        <time>2017-03-27T09:07:06Z</time>
      </trkpt>
      <trkpt lat="45.97797" lon="4.79815">
        <ele>223</ele>
        <time>2017-03-27T09:07:07Z</time>
      </trkpt>
      <trkpt lat="45.97802" lon="4.79814">
        <ele>223</ele>
        <time>2017-03-27T09:07:08Z</time>
      </trkpt>
      <trkpt lat="45.97807" lon="4.79813">
        <ele>223</ele>
        <time>2017-03-27T09:07:09Z</time>
      </trkpt>
      <trkpt lat="45.97812" lon="4.79812">
        <ele>223</ele>
        <time>2017-03-27T09:07:10Z</time>
      </trkpt>
      <trkpt lat="45.97817" lon="4.79811">
        <ele>223</ele>
        <time>2017-03-27T09:07:11Z</time>
      </trkpt>
      <trkpt lat="45.97822" lon="4.7981">
        <ele>223</ele>
        <time>2017-03-27T09:07:12Z</time>
      </trkpt>
      <trkpt lat="45.97827" lon="4.7981">
        <ele>223</ele>
        <time>2017-03-27T09:07:13Z</time>
      </trkpt>
      <trkpt lat="45.97832" lon="4.79809">
        <ele>223</ele>
        <time>2017-03-27T09:07:14Z</time>
      </trkpt>
      <trkpt lat="45.97837" lon="4.79808">
        <ele>224</ele>
        <time>2017-03-27T09:07:15Z</time>
      </trkpt>
      <trkpt lat="45.97842" lon="4.79808">
        <ele>224</ele>
        <time>2017-03-27T09:07:16Z</time>
      </trkpt>
      <trkpt lat="45.97848" lon="4.79806">
        <ele>224</ele>
        <time>2017-03-27T09:07:17Z</time>
      </trkpt>
      <trkpt lat="45.97853" lon="4.79805">
        <ele>224</ele>
        <time>2017-03-27T09:07:18Z</time>
      </trkpt>
      <trkpt lat="45.97858" lon="4.79804">
        <ele>224</ele>
        <time>2017-03-27T09:07:19Z</time>
      </trkpt>
      <trkpt lat="45.97863" lon="4.79804">
        <ele>224</ele>
        <time>2017-03-27T09:07:20Z</time>
      </trkpt>
      <trkpt lat="45.97868" lon="4.79803">
        <ele>224</ele>
        <time>2017-03-27T09:07:21Z</time>
      </trkpt>
      <trkpt lat="45.97874" lon="4.79803">
        <ele>224</ele>
        <time>2017-03-27T09:07:22Z</time>
      </trkpt>
      <trkpt lat="45.97879" lon="4.79802">
        <ele>224</ele>
        <time>2017-03-27T09:07:23Z</time>
      </trkpt>
      <trkpt lat="45.97884" lon="4.79802">
        <ele>224</ele>
        <time>2017-03-27T09:07:24Z</time>
      </trkpt>
      <trkpt lat="45.9789" lon="4.79801">
        <ele>224</ele>
        <time>2017-03-27T09:07:25Z</time>
      </trkpt>
      <trkpt lat="45.97895" lon="4.79801">
        <ele>224</ele>
        <time>2017-03-27T09:07:26Z</time>
      </trkpt>
      <trkpt lat="45.979" lon="4.798">
        <ele>224</ele>
        <time>2017-03-27T09:07:27Z</time>
      </trkpt>
      <trkpt lat="45.97906" lon="4.79798">
        <ele>224</ele>
        <time>2017-03-27T09:07:28Z</time>
      </trkpt>
      <trkpt lat="45.97911" lon="4.79797">
        <ele>224</ele>
        <time>2017-03-27T09:07:29Z</time>
      </trkpt>
      <trkpt lat="45.97916" lon="4.79796">
        <ele>224</ele>
        <time>2017-03-27T09:07:30Z</time>
      </trkpt>
      <trkpt lat="45.97922" lon="4.79795">
        <ele>224</ele>
        <time>2017-03-27T09:07:31Z</time>
      </trkpt>
      <trkpt lat="45.97927" lon="4.79795">
        <ele>224</ele>
        <time>2017-03-27T09:07:32Z</time>
      </trkpt>
      <trkpt lat="45.97934" lon="4.79794">
        <ele>224</ele>
        <time>2017-03-27T09:07:33Z</time>
      </trkpt>
      <trkpt lat="45.9794" lon="4.79793">
        <ele>224</ele>
        <time>2017-03-27T09:07:34Z</time>
      </trkpt>
      <trkpt lat="45.97946" lon="4.79792">
        <ele>224</ele>
        <time>2017-03-27T09:07:35Z</time>
      </trkpt>
      <trkpt lat="45.97952" lon="4.79792">
        <ele>224</ele>
        <time>2017-03-27T09:07:36Z</time>
      </trkpt>
      <trkpt lat="45.97958" lon="4.79791">
        <ele>224</ele>
        <time>2017-03-27T09:07:37Z</time>
      </trkpt>
      <trkpt lat="45.97964" lon="4.7979">
        <ele>224</ele>
        <time>2017-03-27T09:07:38Z</time>
      </trkpt>
      <trkpt lat="45.9797" lon="4.79788">
        <ele>224</ele>
        <time>2017-03-27T09:07:39Z</time>
      </trkpt>
      <trkpt lat="45.97976" lon="4.79788">
        <ele>224</ele>
        <time>2017-03-27T09:07:40Z</time>
      </trkpt>
      <trkpt lat="45.97982" lon="4.79787">
        <ele>224</ele>
        <time>2017-03-27T09:07:41Z</time>
      </trkpt>
      <trkpt lat="45.97988" lon="4.79785">
        <ele>224</ele>
        <time>2017-03-27T09:07:42Z</time>
      </trkpt>
      <trkpt lat="45.97993" lon="4.79784">
        <ele>224</ele>
        <time>2017-03-27T09:07:43Z</time>
      </trkpt>
      <trkpt lat="45.97999" lon="4.79783">
        <ele>224</ele>
        <time>2017-03-27T09:07:44Z</time>
      </trkpt>
      <trkpt lat="45.98004" lon="4.79783">
        <ele>223</ele>
        <time>2017-03-27T09:07:45Z</time>
      </trkpt>
      <trkpt lat="45.98009" lon="4.79782">
        <ele>223</ele>
        <time>2017-03-27T09:07:46Z</time>
      </trkpt>
      <trkpt lat="45.98015" lon="4.79781">
        <ele>223</ele>
        <time>2017-03-27T09:07:47Z</time>
      </trkpt>
      <trkpt lat="45.9802" lon="4.79781">
        <ele>223</ele>
        <time>2017-03-27T09:07:48Z</time>
      </trkpt>
      <trkpt lat="45.98024" lon="4.7978">
        <ele>223</ele>
        <time>2017-03-27T09:07:49Z</time>
      </trkpt>
      <trkpt lat="45.9803" lon="4.79779">
        <ele>223</ele>
        <time>2017-03-27T09:07:50Z</time>
      </trkpt>
      <trkpt lat="45.98035" lon="4.79779">
        <ele>223</ele>
        <time>2017-03-27T09:07:51Z</time>
      </trkpt>
      <trkpt lat="45.98041" lon="4.79779">
        <ele>223</ele>
        <time>2017-03-27T09:07:52Z</time>
      </trkpt>
      <trkpt lat="45.98046" lon="4.79778">
        <ele>223</ele>
        <time>2017-03-27T09:07:53Z</time>
      </trkpt>
      <trkpt lat="45.98051" lon="4.79778">
        <ele>223</ele>
        <time>2017-03-27T09:07:54Z</time>
      </trkpt>
      <trkpt lat="45.98057" lon="4.79777">
        <ele>223</ele>
        <time>2017-03-27T09:07:55Z</time>
      </trkpt>
      <trkpt lat="45.98062" lon="4.79776">
        <ele>223</ele>
        <time>2017-03-27T09:07:56Z</time>
      </trkpt>
      <trkpt lat="45.98068" lon="4.79775">
        <ele>223</ele>
        <time>2017-03-27T09:07:57Z</time>
      </trkpt>
      <trkpt lat="45.98073" lon="4.79774">
        <ele>223</ele>
        <time>2017-03-27T09:07:58Z</time>
      </trkpt>
      <trkpt lat="45.98078" lon="4.79773">
        <ele>223</ele>
        <time>2017-03-27T09:07:59Z</time>
      </trkpt>
      <trkpt lat="45.98084" lon="4.79772">
        <ele>223</ele>
        <time>2017-03-27T09:08:00Z</time>
      </trkpt>
      <trkpt lat="45.9809" lon="4.79772">
        <ele>223</ele>
        <time>2017-03-27T09:08:01Z</time>
      </trkpt>
      <trkpt lat="45.98095" lon="4.79771">
        <ele>223</ele>
        <time>2017-03-27T09:08:02Z</time>
      </trkpt>
      <trkpt lat="45.98101" lon="4.79769">
        <ele>224</ele>
        <time>2017-03-27T09:08:03Z</time>
      </trkpt>
      <trkpt lat="45.98106" lon="4.79768">
        <ele>224</ele>
        <time>2017-03-27T09:08:04Z</time>
      </trkpt>
      <trkpt lat="45.98112" lon="4.79767">
        <ele>224</ele>
        <time>2017-03-27T09:08:05Z</time>
      </trkpt>
      <trkpt lat="45.98117" lon="4.79766">
        <ele>224</ele>
        <time>2017-03-27T09:08:06Z</time>
      </trkpt>
      <trkpt lat="45.98123" lon="4.79765">
        <ele>224</ele>
        <time>2017-03-27T09:08:07Z</time>
      </trkpt>
      <trkpt lat="45.98128" lon="4.79764">
        <ele>224</ele>
        <time>2017-03-27T09:08:08Z</time>
      </trkpt>
      <trkpt lat="45.98133" lon="4.79763">
        <ele>224</ele>
        <time>2017-03-27T09:08:09Z</time>
      </trkpt>
      <trkpt lat="45.98139" lon="4.79763">
        <ele>224</ele>
        <time>2017-03-27T09:08:10Z</time>
      </trkpt>
      <trkpt lat="45.98144" lon="4.79763">
        <ele>225</ele>
        <time>2017-03-27T09:08:11Z</time>
      </trkpt>
      <trkpt lat="45.98149" lon="4.79763">
        <ele>225</ele>
        <time>2017-03-27T09:08:12Z</time>
      </trkpt>
      <trkpt lat="45.98154" lon="4.79763">
        <ele>225</ele>
        <time>2017-03-27T09:08:13Z</time>
      </trkpt>
      <trkpt lat="45.98159" lon="4.79765">
        <ele>225</ele>
        <time>2017-03-27T09:08:14Z</time>
      </trkpt>
      <trkpt lat="45.98163" lon="4.79768">
        <ele>225</ele>
        <time>2017-03-27T09:08:15Z</time>
      </trkpt>
      <trkpt lat="45.98167" lon="4.79772">
        <ele>226</ele>
        <time>2017-03-27T09:08:16Z</time>
      </trkpt>
      <trkpt lat="45.98171" lon="4.79776">
        <ele>226</ele>
        <time>2017-03-27T09:08:17Z</time>
      </trkpt>
      <trkpt lat="45.98174" lon="4.79781">
        <ele>226</ele>
        <time>2017-03-27T09:08:18Z</time>
      </trkpt>
      <trkpt lat="45.98177" lon="4.79787">
        <ele>226</ele>
        <time>2017-03-27T09:08:19Z</time>
      </trkpt>
      <trkpt lat="45.98179" lon="4.79793">
        <ele>226</ele>
        <time>2017-03-27T09:08:20Z</time>
      </trkpt>
      <trkpt lat="45.98181" lon="4.79799">
        <ele>226</ele>
        <time>2017-03-27T09:08:21Z</time>
      </trkpt>
      <trkpt lat="45.98182" lon="4.79806">
        <ele>225</ele>
        <time>2017-03-27T09:08:22Z</time>
      </trkpt>
      <trkpt lat="45.98185" lon="4.79813">
        <ele>225</ele>
        <time>2017-03-27T09:08:23Z</time>
      </trkpt>
      <trkpt lat="45.98187" lon="4.7982">
        <ele>225</ele>
        <time>2017-03-27T09:08:24Z</time>
      </trkpt>
      <trkpt lat="45.9819" lon="4.79827">
        <ele>225</ele>
        <time>2017-03-27T09:08:25Z</time>
      </trkpt>
      <trkpt lat="45.98193" lon="4.79835">
        <ele>225</ele>
        <time>2017-03-27T09:08:26Z</time>
      </trkpt>
      <trkpt lat="45.98195" lon="4.79842">
        <ele>225</ele>
        <time>2017-03-27T09:08:27Z</time>
      </trkpt>
      <trkpt lat="45.98198" lon="4.7985">
        <ele>225</ele>
        <time>2017-03-27T09:08:28Z</time>
      </trkpt>
      <trkpt lat="45.98201" lon="4.79858">
        <ele>225</ele>
        <time>2017-03-27T09:08:29Z</time>
      </trkpt>
      <trkpt lat="45.98204" lon="4.79866">
        <ele>225</ele>
        <time>2017-03-27T09:08:30Z</time>
      </trkpt>
      <trkpt lat="45.98206" lon="4.79874">
        <ele>225</ele>
        <time>2017-03-27T09:08:31Z</time>
      </trkpt>
      <trkpt lat="45.98209" lon="4.79882">
        <ele>225</ele>
        <time>2017-03-27T09:08:32Z</time>
      </trkpt>
      <trkpt lat="45.98212" lon="4.7989">
        <ele>225</ele>
        <time>2017-03-27T09:08:33Z</time>
      </trkpt>
      <trkpt lat="45.98215" lon="4.79898">
        <ele>225</ele>
        <time>2017-03-27T09:08:34Z</time>
      </trkpt>
      <trkpt lat="45.98217" lon="4.79905">
        <ele>225</ele>
        <time>2017-03-27T09:08:35Z</time>
      </trkpt>
      <trkpt lat="45.9822" lon="4.79913">
        <ele>225</ele>
        <time>2017-03-27T09:08:36Z</time>
      </trkpt>
      <trkpt lat="45.98223" lon="4.7992">
        <ele>225</ele>
        <time>2017-03-27T09:08:37Z</time>
      </trkpt>
      <trkpt lat="45.98225" lon="4.79927">
        <ele>225</ele>
        <time>2017-03-27T09:08:38Z</time>
      </trkpt>
      <trkpt lat="45.98228" lon="4.79934">
        <ele>225</ele>
        <time>2017-03-27T09:08:39Z</time>
      </trkpt>
      <trkpt lat="45.9823" lon="4.79941">
        <ele>225</ele>
        <time>2017-03-27T09:08:40Z</time>
      </trkpt>
      <trkpt lat="45.98232" lon="4.79947">
        <ele>225</ele>
        <time>2017-03-27T09:08:41Z</time>
      </trkpt>
      <trkpt lat="45.98234" lon="4.79953">
        <ele>225</ele>
        <time>2017-03-27T09:08:42Z</time>
      </trkpt>
      <trkpt lat="45.98236" lon="4.7996">
        <ele>225</ele>
        <time>2017-03-27T09:08:43Z</time>
      </trkpt>
      <trkpt lat="45.98239" lon="4.79966">
        <ele>225</ele>
        <time>2017-03-27T09:08:44Z</time>
      </trkpt>
      <trkpt lat="45.98241" lon="4.79972">
        <ele>225</ele>
        <time>2017-03-27T09:08:45Z</time>
      </trkpt>
      <trkpt lat="45.98244" lon="4.79979">
        <ele>225</ele>
        <time>2017-03-27T09:08:46Z</time>
      </trkpt>
      <trkpt lat="45.98246" lon="4.79985">
        <ele>225</ele>
        <time>2017-03-27T09:08:47Z</time>
      </trkpt>
      <trkpt lat="45.98249" lon="4.79992">
        <ele>226</ele>
        <time>2017-03-27T09:08:48Z</time>
      </trkpt>
      <trkpt lat="45.98251" lon="4.79998">
        <ele>226</ele>
        <time>2017-03-27T09:08:49Z</time>
      </trkpt>
      <trkpt lat="45.98253" lon="4.80005">
        <ele>227</ele>
        <time>2017-03-27T09:08:50Z</time>
      </trkpt>
      <trkpt lat="45.98256" lon="4.80012">
        <ele>227</ele>
        <time>2017-03-27T09:08:51Z</time>
      </trkpt>
      <trkpt lat="45.98258" lon="4.80019">
        <ele>228</ele>
        <time>2017-03-27T09:08:52Z</time>
      </trkpt>
      <trkpt lat="45.98261" lon="4.80026">
        <ele>228</ele>
        <time>2017-03-27T09:08:53Z</time>
      </trkpt>
      <trkpt lat="45.98263" lon="4.80033">
        <ele>228</ele>
        <time>2017-03-27T09:08:54Z</time>
      </trkpt>
      <trkpt lat="45.98266" lon="4.8004">
        <ele>229</ele>
        <time>2017-03-27T09:08:55Z</time>
      </trkpt>
      <trkpt lat="45.98268" lon="4.80048">
        <ele>229</ele>
        <time>2017-03-27T09:08:56Z</time>
      </trkpt>
      <trkpt lat="45.9827" lon="4.80055">
        <ele>229</ele>
        <time>2017-03-27T09:08:57Z</time>
      </trkpt>
      <trkpt lat="45.98273" lon="4.80062">
        <ele>228</ele>
        <time>2017-03-27T09:08:58Z</time>
      </trkpt>
      <trkpt lat="45.98275" lon="4.80069">
        <ele>228</ele>
        <time>2017-03-27T09:08:59Z</time>
      </trkpt>
      <trkpt lat="45.98278" lon="4.80076">
        <ele>229</ele>
        <time>2017-03-27T09:09:00Z</time>
      </trkpt>
      <trkpt lat="45.9828" lon="4.80083">
        <ele>229</ele>
        <time>2017-03-27T09:09:01Z</time>
      </trkpt>
      <trkpt lat="45.98283" lon="4.8009">
        <ele>228</ele>
        <time>2017-03-27T09:09:02Z</time>
      </trkpt>
      <trkpt lat="45.98285" lon="4.80096">
        <ele>228</ele>
        <time>2017-03-27T09:09:03Z</time>
      </trkpt>
      <trkpt lat="45.98288" lon="4.80102">
        <ele>228</ele>
        <time>2017-03-27T09:09:04Z</time>
      </trkpt>
      <trkpt lat="45.98289" lon="4.80109">
        <ele>228</ele>
        <time>2017-03-27T09:09:05Z</time>
      </trkpt>
      <trkpt lat="45.98291" lon="4.80115">
        <ele>228</ele>
        <time>2017-03-27T09:09:06Z</time>
      </trkpt>
      <trkpt lat="45.98292" lon="4.80122">
        <ele>228</ele>
        <time>2017-03-27T09:09:07Z</time>
      </trkpt>
      <trkpt lat="45.98294" lon="4.80129">
        <ele>228</ele>
        <time>2017-03-27T09:09:08Z</time>
      </trkpt>
      <trkpt lat="45.98297" lon="4.80135">
        <ele>228</ele>
        <time>2017-03-27T09:09:09Z</time>
      </trkpt>
      <trkpt lat="45.98299" lon="4.80141">
        <ele>228</ele>
        <time>2017-03-27T09:09:10Z</time>
      </trkpt>
      <trkpt lat="45.98302" lon="4.80148">
        <ele>228</ele>
        <time>2017-03-27T09:09:11Z</time>
      </trkpt>
      <trkpt lat="45.98304" lon="4.80155">
        <ele>228</ele>
        <time>2017-03-27T09:09:12Z</time>
      </trkpt>
      <trkpt lat="45.98306" lon="4.80161">
        <ele>228</ele>
        <time>2017-03-27T09:09:13Z</time>
      </trkpt>
      <trkpt lat="45.98308" lon="4.80168">
        <ele>227</ele>
        <time>2017-03-27T09:09:14Z</time>
      </trkpt>
      <trkpt lat="45.98311" lon="4.80175">
        <ele>227</ele>
        <time>2017-03-27T09:09:15Z</time>
      </trkpt>
      <trkpt lat="45.98314" lon="4.80181">
        <ele>227</ele>
        <time>2017-03-27T09:09:16Z</time>
      </trkpt>
      <trkpt lat="45.98316" lon="4.80189">
        <ele>227</ele>
        <time>2017-03-27T09:09:17Z</time>
      </trkpt>
      <trkpt lat="45.98319" lon="4.80196">
        <ele>227</ele>
        <time>2017-03-27T09:09:18Z</time>
      </trkpt>
      <trkpt lat="45.98322" lon="4.80202">
        <ele>227</ele>
        <time>2017-03-27T09:09:19Z</time>
      </trkpt>
      <trkpt lat="45.98324" lon="4.80209">
        <ele>227</ele>
        <time>2017-03-27T09:09:20Z</time>
      </trkpt>
      <trkpt lat="45.98327" lon="4.80216">
        <ele>227</ele>
        <time>2017-03-27T09:09:21Z</time>
      </trkpt>
      <trkpt lat="45.98328" lon="4.80223">
        <ele>227</ele>
        <time>2017-03-27T09:09:22Z</time>
      </trkpt>
      <trkpt lat="45.98328" lon="4.8023">
        <ele>228</ele>
        <time>2017-03-27T09:09:23Z</time>
      </trkpt>
      <trkpt lat="45.98326" lon="4.80237">
        <ele>228</ele>
        <time>2017-03-27T09:09:24Z</time>
      </trkpt>
      <trkpt lat="45.98324" lon="4.80244">
        <ele>228</ele>
        <time>2017-03-27T09:09:25Z</time>
      </trkpt>
      <trkpt lat="45.98322" lon="4.80251">
        <ele>228</ele>
        <time>2017-03-27T09:09:26Z</time>
      </trkpt>
      <trkpt lat="45.9832" lon="4.80258">
        <ele>228</ele>
        <time>2017-03-27T09:09:27Z</time>
      </trkpt>
      <trkpt lat="45.98318" lon="4.80266">
        <ele>227</ele>
        <time>2017-03-27T09:09:28Z</time>
      </trkpt>
      <trkpt lat="45.98316" lon="4.80273">
        <ele>227</ele>
        <time>2017-03-27T09:09:29Z</time>
      </trkpt>
      <trkpt lat="45.98315" lon="4.80282">
        <ele>226</ele>
        <time>2017-03-27T09:09:30Z</time>
      </trkpt>
      <trkpt lat="45.98313" lon="4.8029">
        <ele>226</ele>
        <time>2017-03-27T09:09:31Z</time>
      </trkpt>
      <trkpt lat="45.98312" lon="4.80299">
        <ele>226</ele>
        <time>2017-03-27T09:09:32Z</time>
      </trkpt>
      <trkpt lat="45.9831" lon="4.80308">
        <ele>226</ele>
        <time>2017-03-27T09:09:33Z</time>
      </trkpt>
      <trkpt lat="45.98308" lon="4.80317">
        <ele>226</ele>
        <time>2017-03-27T09:09:34Z</time>
      </trkpt>
      <trkpt lat="45.98306" lon="4.80326">
        <ele>226</ele>
        <time>2017-03-27T09:09:35Z</time>
      </trkpt>
      <trkpt lat="45.98304" lon="4.80335">
        <ele>226</ele>
        <time>2017-03-27T09:09:36Z</time>
      </trkpt>
      <trkpt lat="45.98302" lon="4.80344">
        <ele>225</ele>
        <time>2017-03-27T09:09:37Z</time>
      </trkpt>
      <trkpt lat="45.983" lon="4.80354">
        <ele>225</ele>
        <time>2017-03-27T09:09:38Z</time>
      </trkpt>
      <trkpt lat="45.98298" lon="4.80363">
        <ele>225</ele>
        <time>2017-03-27T09:09:39Z</time>
      </trkpt>
      <trkpt lat="45.98296" lon="4.80372">
        <ele>224</ele>
        <time>2017-03-27T09:09:40Z</time>
      </trkpt>
      <trkpt lat="45.98293" lon="4.80382">
        <ele>224</ele>
        <time>2017-03-27T09:09:41Z</time>
      </trkpt>
      <trkpt lat="45.98291" lon="4.80391">
        <ele>224</ele>
        <time>2017-03-27T09:09:42Z</time>
      </trkpt>
      <trkpt lat="45.98289" lon="4.80401">
        <ele>224</ele>
        <time>2017-03-27T09:09:43Z</time>
      </trkpt>
      <trkpt lat="45.98286" lon="4.80411">
        <ele>224</ele>
        <time>2017-03-27T09:09:44Z</time>
      </trkpt>
      <trkpt lat="45.98284" lon="4.8042">
        <ele>223</ele>
        <time>2017-03-27T09:09:45Z</time>
      </trkpt>
      <trkpt lat="45.98283" lon="4.8043">
        <ele>223</ele>
        <time>2017-03-27T09:09:46Z</time>
      </trkpt>
      <trkpt lat="45.98281" lon="4.8044">
        <ele>223</ele>
        <time>2017-03-27T09:09:47Z</time>
      </trkpt>
      <trkpt lat="45.98279" lon="4.8045">
        <ele>223</ele>
        <time>2017-03-27T09:09:48Z</time>
      </trkpt>
      <trkpt lat="45.98277" lon="4.8046">
        <ele>223</ele>
        <time>2017-03-27T09:09:49Z</time>
      </trkpt>
      <trkpt lat="45.98275" lon="4.80469">
        <ele>223</ele>
        <time>2017-03-27T09:09:50Z</time>
      </trkpt>
      <trkpt lat="45.98272" lon="4.80478">
        <ele>223</ele>
        <time>2017-03-27T09:09:51Z</time>
      </trkpt>
      <trkpt lat="45.98269" lon="4.80487">
        <ele>223</ele>
        <time>2017-03-27T09:09:52Z</time>
      </trkpt>
      <trkpt lat="45.98267" lon="4.80495">
        <ele>223</ele>
        <time>2017-03-27T09:09:53Z</time>
      </trkpt>
      <trkpt lat="45.98265" lon="4.80503">
        <ele>223</ele>
        <time>2017-03-27T09:09:54Z</time>
      </trkpt>
      <trkpt lat="45.98262" lon="4.80511">
        <ele>223</ele>
        <time>2017-03-27T09:09:55Z</time>
      </trkpt>
      <trkpt lat="45.9826" lon="4.80518">
        <ele>223</ele>
        <time>2017-03-27T09:09:56Z</time>
      </trkpt>
      <trkpt lat="45.98257" lon="4.80525">
        <ele>223</ele>
        <time>2017-03-27T09:09:57Z</time>
      </trkpt>
      <trkpt lat="45.98255" lon="4.80532">
        <ele>224</ele>
        <time>2017-03-27T09:09:58Z</time>
      </trkpt>
      <trkpt lat="45.98252" lon="4.80539">
        <ele>224</ele>
        <time>2017-03-27T09:09:59Z</time>
      </trkpt>
      <trkpt lat="45.98249" lon="4.80546">
        <ele>223</ele>
        <time>2017-03-27T09:10:00Z</time>
      </trkpt>
      <trkpt lat="45.98247" lon="4.80553">
        <ele>223</ele>
        <time>2017-03-27T09:10:01Z</time>
      </trkpt>
      <trkpt lat="45.98245" lon="4.8056">
        <ele>223</ele>
        <time>2017-03-27T09:10:02Z</time>
      </trkpt>
      <trkpt lat="45.98243" lon="4.80568">
        <ele>223</ele>
        <time>2017-03-27T09:10:03Z</time>
      </trkpt>
      <trkpt lat="45.98241" lon="4.80576">
        <ele>224</ele>
        <time>2017-03-27T09:10:04Z</time>
      </trkpt>
      <trkpt lat="45.98238" lon="4.80584">
        <ele>224</ele>
        <time>2017-03-27T09:10:05Z</time>
      </trkpt>
      <trkpt lat="45.98236" lon="4.80592">
        <ele>224</ele>
        <time>2017-03-27T09:10:06Z</time>
      </trkpt>
      <trkpt lat="45.98233" lon="4.806">
        <ele>224</ele>
        <time>2017-03-27T09:10:07Z</time>
      </trkpt>
      <trkpt lat="45.98231" lon="4.80608">
        <ele>224</ele>
        <time>2017-03-27T09:10:08Z</time>
      </trkpt>
      <trkpt lat="45.98228" lon="4.80615">
        <ele>224</ele>
        <time>2017-03-27T09:10:09Z</time>
      </trkpt>
      <trkpt lat="45.98226" lon="4.80623">
        <ele>224</ele>
        <time>2017-03-27T09:10:10Z</time>
      </trkpt>
      <trkpt lat="45.98224" lon="4.80633">
        <ele>224</ele>
        <time>2017-03-27T09:10:11Z</time>
      </trkpt>
      <trkpt lat="45.98222" lon="4.8064">
        <ele>224</ele>
        <time>2017-03-27T09:10:12Z</time>
      </trkpt>
      <trkpt lat="45.9822" lon="4.80647">
        <ele>224</ele>
        <time>2017-03-27T09:10:13Z</time>
      </trkpt>
      <trkpt lat="45.98217" lon="4.80654">
        <ele>224</ele>
        <time>2017-03-27T09:10:14Z</time>
      </trkpt>
      <trkpt lat="45.98215" lon="4.8066">
        <ele>224</ele>
        <time>2017-03-27T09:10:15Z</time>
      </trkpt>
      <trkpt lat="45.98212" lon="4.80667">
        <ele>224</ele>
        <time>2017-03-27T09:10:16Z</time>
      </trkpt>
      <trkpt lat="45.98208" lon="4.8067">
        <ele>224</ele>
        <time>2017-03-27T09:10:17Z</time>
      </trkpt>
      <trkpt lat="45.98204" lon="4.80672">
        <ele>224</ele>
        <time>2017-03-27T09:10:18Z</time>
      </trkpt>
      <trkpt lat="45.98199" lon="4.80674">
        <ele>225</ele>
        <time>2017-03-27T09:10:19Z</time>
      </trkpt>
      <trkpt lat="45.98195" lon="4.80675">
        <ele>225</ele>
        <time>2017-03-27T09:10:20Z</time>
      </trkpt>
      <trkpt lat="45.9819" lon="4.80677">
        <ele>225</ele>
        <time>2017-03-27T09:10:21Z</time>
      </trkpt>
      <trkpt lat="45.98185" lon="4.80678">
        <ele>225</ele>
        <time>2017-03-27T09:10:22Z</time>
      </trkpt>
      <trkpt lat="45.9818" lon="4.80679">
        <ele>225</ele>
        <time>2017-03-27T09:10:23Z</time>
      </trkpt>
      <trkpt lat="45.98172" lon="4.80682">
        <ele>225</ele>
        <time>2017-03-27T09:10:25Z</time>
      </trkpt>
      <trkpt lat="45.98167" lon="4.80683">
        <ele>225</ele>
        <time>2017-03-27T09:10:26Z</time>
      </trkpt>
      <trkpt lat="45.98163" lon="4.80684">
        <ele>227</ele>
        <time>2017-03-27T09:10:27Z</time>
      </trkpt>
      <trkpt lat="45.98158" lon="4.80685">
        <ele>227</ele>
        <time>2017-03-27T09:10:28Z</time>
      </trkpt>
      <trkpt lat="45.9815" lon="4.80687">
        <ele>227</ele>
        <time>2017-03-27T09:10:30Z</time>
      </trkpt>
      <trkpt lat="45.98146" lon="4.80687">
        <ele>228</ele>
        <time>2017-03-27T09:10:31Z</time>
      </trkpt>
      <trkpt lat="45.98138" lon="4.80688">
        <ele>228</ele>
        <time>2017-03-27T09:10:33Z</time>
      </trkpt>
      <trkpt lat="45.98135" lon="4.80687">
        <ele>228</ele>
        <time>2017-03-27T09:10:34Z</time>
      </trkpt>
      <trkpt lat="45.98127" lon="4.80687">
        <ele>228</ele>
        <time>2017-03-27T09:10:36Z</time>
      </trkpt>
      <trkpt lat="45.98123" lon="4.80687">
        <ele>228</ele>
        <time>2017-03-27T09:10:37Z</time>
      </trkpt>
      <trkpt lat="45.98116" lon="4.80687">
        <ele>228</ele>
        <time>2017-03-27T09:10:39Z</time>
      </trkpt>
      <trkpt lat="45.98112" lon="4.80687">
        <ele>228</ele>
        <time>2017-03-27T09:10:40Z</time>
      </trkpt>
      <trkpt lat="45.98108" lon="4.80687">
        <ele>228</ele>
        <time>2017-03-27T09:10:41Z</time>
      </trkpt>
      <trkpt lat="45.98102" lon="4.80687">
        <ele>228</ele>
        <time>2017-03-27T09:10:42Z</time>
      </trkpt>
      <trkpt lat="45.98093" lon="4.80686">
        <ele>228</ele>
        <time>2017-03-27T09:10:44Z</time>
      </trkpt>
      <trkpt lat="45.9809" lon="4.80686">
        <ele>228</ele>
        <time>2017-03-27T09:10:45Z</time>
      </trkpt>
      <trkpt lat="45.98081" lon="4.80687">
        <ele>229</ele>
        <time>2017-03-27T09:10:47Z</time>
      </trkpt>
      <trkpt lat="45.98077" lon="4.80687">
        <ele>229</ele>
        <time>2017-03-27T09:10:48Z</time>
      </trkpt>
      <trkpt lat="45.9807" lon="4.80687">
        <ele>230</ele>
        <time>2017-03-27T09:10:50Z</time>
      </trkpt>
      <trkpt lat="45.98067" lon="4.80687">
        <ele>230</ele>
        <time>2017-03-27T09:10:51Z</time>
      </trkpt>
      <trkpt lat="45.98059" lon="4.80688">
        <ele>230</ele>
        <time>2017-03-27T09:10:53Z</time>
      </trkpt>
      <trkpt lat="45.98056" lon="4.80689">
        <ele>230</ele>
        <time>2017-03-27T09:10:54Z</time>
      </trkpt>
      <trkpt lat="45.9805" lon="4.80689">
        <ele>230</ele>
        <time>2017-03-27T09:10:56Z</time>
      </trkpt>
      <trkpt lat="45.98047" lon="4.80689">
        <ele>230</ele>
        <time>2017-03-27T09:10:57Z</time>
      </trkpt>
      <trkpt lat="45.98039" lon="4.80692">
        <ele>230</ele>
        <time>2017-03-27T09:11:00Z</time>
      </trkpt>
      <trkpt lat="45.98036" lon="4.80694">
        <ele>230</ele>
        <time>2017-03-27T09:11:01Z</time>
      </trkpt>
      <trkpt lat="45.9803" lon="4.807">
        <ele>230</ele>
        <time>2017-03-27T09:11:03Z</time>
      </trkpt>
      <trkpt lat="45.98028" lon="4.80703">
        <ele>231</ele>
        <time>2017-03-27T09:11:04Z</time>
      </trkpt>
      <trkpt lat="45.98027" lon="4.80716">
        <ele>231</ele>
        <time>2017-03-27T09:11:07Z</time>
      </trkpt>
      <trkpt lat="45.98028" lon="4.8072">
        <ele>231</ele>
        <time>2017-03-27T09:11:08Z</time>
      </trkpt>
      <trkpt lat="45.9803" lon="4.80728">
        <ele>231</ele>
        <time>2017-03-27T09:11:10Z</time>
      </trkpt>
      <trkpt lat="45.98031" lon="4.80732">
        <ele>231</ele>
        <time>2017-03-27T09:11:11Z</time>
      </trkpt>
      <trkpt lat="45.98035" lon="4.80744">
        <ele>231</ele>
        <time>2017-03-27T09:11:14Z</time>
      </trkpt>
      <trkpt lat="45.98036" lon="4.80748">
        <ele>231</ele>
        <time>2017-03-27T09:11:15Z</time>
      </trkpt>
      <trkpt lat="45.98039" lon="4.80759">
        <ele>233</ele>
        <time>2017-03-27T09:11:18Z</time>
      </trkpt>
      <trkpt lat="45.9804" lon="4.80763">
        <ele>233</ele>
        <time>2017-03-27T09:11:19Z</time>
      </trkpt>
      <trkpt lat="45.98043" lon="4.80774">
        <ele>233</ele>
        <time>2017-03-27T09:11:22Z</time>
      </trkpt>
      <trkpt lat="45.98043" lon="4.80779">
        <ele>233</ele>
        <time>2017-03-27T09:11:23Z</time>
      </trkpt>
      <trkpt lat="45.98045" lon="4.8079">
        <ele>233</ele>
        <time>2017-03-27T09:11:26Z</time>
      </trkpt>
      <trkpt lat="45.98045" lon="4.80794">
        <ele>233</ele>
        <time>2017-03-27T09:11:27Z</time>
      </trkpt>
      <trkpt lat="45.98048" lon="4.80805">
        <ele>234</ele>
        <time>2017-03-27T09:11:30Z</time>
      </trkpt>
      <trkpt lat="45.98049" lon="4.80808">
        <ele>234</ele>
        <time>2017-03-27T09:11:31Z</time>
      </trkpt>
      <trkpt lat="45.98052" lon="4.80819">
        <ele>234</ele>
        <time>2017-03-27T09:11:34Z</time>
      </trkpt>
      <trkpt lat="45.98053" lon="4.80823">
        <ele>234</ele>
        <time>2017-03-27T09:11:35Z</time>
      </trkpt>
      <trkpt lat="45.98056" lon="4.80834">
        <ele>236</ele>
        <time>2017-03-27T09:11:38Z</time>
      </trkpt>
      <trkpt lat="45.98057" lon="4.80838">
        <ele>236</ele>
        <time>2017-03-27T09:11:39Z</time>
      </trkpt>
      <trkpt lat="45.9806" lon="4.80849">
        <ele>236</ele>
        <time>2017-03-27T09:11:42Z</time>
      </trkpt>
      <trkpt lat="45.98061" lon="4.80853">
        <ele>236</ele>
        <time>2017-03-27T09:11:43Z</time>
      </trkpt>
      <trkpt lat="45.98064" lon="4.80863">
        <ele>237</ele>
        <time>2017-03-27T09:11:46Z</time>
      </trkpt>
      <trkpt lat="45.98065" lon="4.80867">
        <ele>237</ele>
        <time>2017-03-27T09:11:47Z</time>
      </trkpt>
      <trkpt lat="45.98067" lon="4.80879">
        <ele>237</ele>
        <time>2017-03-27T09:11:50Z</time>
      </trkpt>
      <trkpt lat="45.98067" lon="4.80883">
        <ele>237</ele>
        <time>2017-03-27T09:11:51Z</time>
      </trkpt>
      <trkpt lat="45.98069" lon="4.80893">
        <ele>238</ele>
        <time>2017-03-27T09:11:54Z</time>
      </trkpt>
      <trkpt lat="45.9807" lon="4.80896">
        <ele>238</ele>
        <time>2017-03-27T09:11:55Z</time>
      </trkpt>
      <trkpt lat="45.98073" lon="4.80904">
        <ele>238</ele>
        <time>2017-03-27T09:11:58Z</time>
      </trkpt>
      <trkpt lat="45.98074" lon="4.80908">
        <ele>238</ele>
        <time>2017-03-27T09:11:59Z</time>
      </trkpt>
      <trkpt lat="45.98076" lon="4.80916">
        <ele>239</ele>
        <time>2017-03-27T09:12:01Z</time>
      </trkpt>
      <trkpt lat="45.98077" lon="4.8092">
        <ele>240</ele>
        <time>2017-03-27T09:12:02Z</time>
      </trkpt>
      <trkpt lat="45.98078" lon="4.80929">
        <ele>240</ele>
        <time>2017-03-27T09:12:04Z</time>
      </trkpt>
      <trkpt lat="45.98079" lon="4.80933">
        <ele>240</ele>
        <time>2017-03-27T09:12:05Z</time>
      </trkpt>
      <trkpt lat="45.98081" lon="4.80941">
        <ele>240</ele>
        <time>2017-03-27T09:12:07Z</time>
      </trkpt>
      <trkpt lat="45.98082" lon="4.80945">
        <ele>240</ele>
        <time>2017-03-27T09:12:08Z</time>
      </trkpt>
      <trkpt lat="45.98084" lon="4.80953">
        <ele>238</ele>
        <time>2017-03-27T09:12:10Z</time>
      </trkpt>
      <trkpt lat="45.98086" lon="4.80957">
        <ele>239</ele>
        <time>2017-03-27T09:12:11Z</time>
      </trkpt>
      <trkpt lat="45.9809" lon="4.80968">
        <ele>239</ele>
        <time>2017-03-27T09:12:14Z</time>
      </trkpt>
      <trkpt lat="45.98091" lon="4.80971">
        <ele>239</ele>
        <time>2017-03-27T09:12:15Z</time>
      </trkpt>
      <trkpt lat="45.98094" lon="4.80981">
        <ele>239</ele>
        <time>2017-03-27T09:12:18Z</time>
      </trkpt>
      <trkpt lat="45.98095" lon="4.80984">
        <ele>240</ele>
        <time>2017-03-27T09:12:19Z</time>
      </trkpt>
      <trkpt lat="45.98098" lon="4.80995">
        <ele>240</ele>
        <time>2017-03-27T09:12:22Z</time>
      </trkpt>
      <trkpt lat="45.98099" lon="4.80999">
        <ele>240</ele>
        <time>2017-03-27T09:12:23Z</time>
      </trkpt>
      <trkpt lat="45.98103" lon="4.81007">
        <ele>242</ele>
        <time>2017-03-27T09:12:25Z</time>
      </trkpt>
      <trkpt lat="45.98104" lon="4.81012">
        <ele>242</ele>
        <time>2017-03-27T09:12:26Z</time>
      </trkpt>
      <trkpt lat="45.98108" lon="4.81021">
        <ele>242</ele>
        <time>2017-03-27T09:12:28Z</time>
      </trkpt>
      <trkpt lat="45.9811" lon="4.81026">
        <ele>242</ele>
        <time>2017-03-27T09:12:29Z</time>
      </trkpt>
      <trkpt lat="45.98113" lon="4.81037">
        <ele>242</ele>
        <time>2017-03-27T09:12:31Z</time>
      </trkpt>
      <trkpt lat="45.98114" lon="4.81043">
        <ele>242</ele>
        <time>2017-03-27T09:12:32Z</time>
      </trkpt>
      <trkpt lat="45.98116" lon="4.81049">
        <ele>243</ele>
        <time>2017-03-27T09:12:33Z</time>
      </trkpt>
      <trkpt lat="45.98118" lon="4.81055">
        <ele>243</ele>
        <time>2017-03-27T09:12:34Z</time>
      </trkpt>
      <trkpt lat="45.98122" lon="4.81066">
        <ele>243</ele>
        <time>2017-03-27T09:12:36Z</time>
      </trkpt>
      <trkpt lat="45.98124" lon="4.81071">
        <ele>243</ele>
        <time>2017-03-27T09:12:37Z</time>
      </trkpt>
      <trkpt lat="45.98127" lon="4.8108">
        <ele>243</ele>
        <time>2017-03-27T09:12:39Z</time>
      </trkpt>
      <trkpt lat="45.98129" lon="4.81085">
        <ele>245</ele>
        <time>2017-03-27T09:12:40Z</time>
      </trkpt>
      <trkpt lat="45.98133" lon="4.81095">
        <ele>245</ele>
        <time>2017-03-27T09:12:42Z</time>
      </trkpt>
      <trkpt lat="45.98135" lon="4.811">
        <ele>245</ele>
        <time>2017-03-27T09:12:43Z</time>
      </trkpt>
      <trkpt lat="45.98138" lon="4.81109">
        <ele>245</ele>
        <time>2017-03-27T09:12:45Z</time>
      </trkpt>
      <trkpt lat="45.98141" lon="4.81115">
        <ele>245</ele>
        <time>2017-03-27T09:12:46Z</time>
      </trkpt>
      <trkpt lat="45.98145" lon="4.81126">
        <ele>245</ele>
        <time>2017-03-27T09:12:48Z</time>
      </trkpt>
      <trkpt lat="45.98146" lon="4.81131">
        <ele>245</ele>
        <time>2017-03-27T09:12:49Z</time>
      </trkpt>
      <trkpt lat="45.98151" lon="4.81141">
        <ele>245</ele>
        <time>2017-03-27T09:12:51Z</time>
      </trkpt>
      <trkpt lat="45.98153" lon="4.81146">
        <ele>245</ele>
        <time>2017-03-27T09:12:52Z</time>
      </trkpt>
      <trkpt lat="45.98156" lon="4.81155">
        <ele>245</ele>
        <time>2017-03-27T09:12:54Z</time>
      </trkpt>
      <trkpt lat="45.98158" lon="4.8116">
        <ele>245</ele>
        <time>2017-03-27T09:12:55Z</time>
      </trkpt>
      <trkpt lat="45.98161" lon="4.8117">
        <ele>245</ele>
        <time>2017-03-27T09:12:57Z</time>
      </trkpt>
      <trkpt lat="45.98162" lon="4.81175">
        <ele>246</ele>
        <time>2017-03-27T09:12:58Z</time>
      </trkpt>
      <trkpt lat="45.98163" lon="4.81185">
        <ele>246</ele>
        <time>2017-03-27T09:13:00Z</time>
      </trkpt>
      <trkpt lat="45.98164" lon="4.8119">
        <ele>246</ele>
        <time>2017-03-27T09:13:01Z</time>
      </trkpt>
      <trkpt lat="45.98165" lon="4.812">
        <ele>246</ele>
        <time>2017-03-27T09:13:03Z</time>
      </trkpt>
      <trkpt lat="45.98165" lon="4.81205">
        <ele>247</ele>
        <time>2017-03-27T09:13:04Z</time>
      </trkpt>
      <trkpt lat="45.98166" lon="4.81216">
        <ele>247</ele>
        <time>2017-03-27T09:13:06Z</time>
      </trkpt>
      <trkpt lat="45.98167" lon="4.81221">
        <ele>247</ele>
        <time>2017-03-27T09:13:07Z</time>
      </trkpt>
      <trkpt lat="45.98169" lon="4.81232">
        <ele>246</ele>
        <time>2017-03-27T09:13:09Z</time>
      </trkpt>
      <trkpt lat="45.9817" lon="4.81237">
        <ele>247</ele>
        <time>2017-03-27T09:13:10Z</time>
      </trkpt>
      <trkpt lat="45.98172" lon="4.81243">
        <ele>247</ele>
        <time>2017-03-27T09:13:11Z</time>
      </trkpt>
      <trkpt lat="45.98174" lon="4.81249">
        <ele>247</ele>
        <time>2017-03-27T09:13:12Z</time>
      </trkpt>
      <trkpt lat="45.98176" lon="4.8126">
        <ele>247</ele>
        <time>2017-03-27T09:13:14Z</time>
      </trkpt>
      <trkpt lat="45.98177" lon="4.81265">
        <ele>247</ele>
        <time>2017-03-27T09:13:15Z</time>
      </trkpt>
      <trkpt lat="45.98177" lon="4.81275">
        <ele>247</ele>
        <time>2017-03-27T09:13:17Z</time>
      </trkpt>
      <trkpt lat="45.98177" lon="4.81282">
        <ele>247</ele>
        <time>2017-03-27T09:13:18Z</time>
      </trkpt>
      <trkpt lat="45.9818" lon="4.81292">
        <ele>247</ele>
        <time>2017-03-27T09:13:20Z</time>
      </trkpt>
      <trkpt lat="45.9818" lon="4.81297">
        <ele>247</ele>
        <time>2017-03-27T09:13:21Z</time>
      </trkpt>
      <trkpt lat="45.98182" lon="4.81309">
        <ele>247</ele>
        <time>2017-03-27T09:13:23Z</time>
      </trkpt>
      <trkpt lat="45.98184" lon="4.81314">
        <ele>247</ele>
        <time>2017-03-27T09:13:24Z</time>
      </trkpt>
      <trkpt lat="45.98187" lon="4.81325">
        <ele>247</ele>
        <time>2017-03-27T09:13:26Z</time>
      </trkpt>
      <trkpt lat="45.98188" lon="4.81331">
        <ele>247</ele>
        <time>2017-03-27T09:13:27Z</time>
      </trkpt>
      <trkpt lat="45.9819" lon="4.81342">
        <ele>248</ele>
        <time>2017-03-27T09:13:29Z</time>
      </trkpt>
      <trkpt lat="45.98191" lon="4.81347">
        <ele>248</ele>
        <time>2017-03-27T09:13:30Z</time>
      </trkpt>
      <trkpt lat="45.98194" lon="4.81358">
        <ele>248</ele>
        <time>2017-03-27T09:13:32Z</time>
      </trkpt>
      <trkpt lat="45.98195" lon="4.81363">
        <ele>248</ele>
        <time>2017-03-27T09:13:33Z</time>
      </trkpt>
      <trkpt lat="45.98198" lon="4.81374">
        <ele>248</ele>
        <time>2017-03-27T09:13:35Z</time>
      </trkpt>
      <trkpt lat="45.98199" lon="4.81379">
        <ele>248</ele>
        <time>2017-03-27T09:13:36Z</time>
      </trkpt>
      <trkpt lat="45.98202" lon="4.8139">
        <ele>248</ele>
        <time>2017-03-27T09:13:38Z</time>
      </trkpt>
      <trkpt lat="45.98204" lon="4.81395">
        <ele>248</ele>
        <time>2017-03-27T09:13:39Z</time>
      </trkpt>
      <trkpt lat="45.98207" lon="4.81405">
        <ele>248</ele>
        <time>2017-03-27T09:13:41Z</time>
      </trkpt>
      <trkpt lat="45.98209" lon="4.8141">
        <ele>248</ele>
        <time>2017-03-27T09:13:42Z</time>
      </trkpt>
      <trkpt lat="45.98213" lon="4.81421">
        <ele>249</ele>
        <time>2017-03-27T09:13:44Z</time>
      </trkpt>
      <trkpt lat="45.98215" lon="4.81427">
        <ele>249</ele>
        <time>2017-03-27T09:13:45Z</time>
      </trkpt>
      <trkpt lat="45.98218" lon="4.81438">
        <ele>249</ele>
        <time>2017-03-27T09:13:47Z</time>
      </trkpt>
      <trkpt lat="45.9822" lon="4.81444">
        <ele>249</ele>
        <time>2017-03-27T09:13:48Z</time>
      </trkpt>
      <trkpt lat="45.98224" lon="4.81455">
        <ele>249</ele>
        <time>2017-03-27T09:13:50Z</time>
      </trkpt>
      <trkpt lat="45.98226" lon="4.81462">
        <ele>249</ele>
        <time>2017-03-27T09:13:51Z</time>
      </trkpt>
      <trkpt lat="45.98228" lon="4.81468">
        <ele>249</ele>
        <time>2017-03-27T09:13:52Z</time>
      </trkpt>
      <trkpt lat="45.9823" lon="4.81473">
        <ele>249</ele>
        <time>2017-03-27T09:13:53Z</time>
      </trkpt>
      <trkpt lat="45.98233" lon="4.81479">
        <ele>249</ele>
        <time>2017-03-27T09:13:54Z</time>
      </trkpt>
      <trkpt lat="45.98235" lon="4.81485">
        <ele>249</ele>
        <time>2017-03-27T09:13:55Z</time>
      </trkpt>
      <trkpt lat="45.98237" lon="4.81491">
        <ele>249</ele>
        <time>2017-03-27T09:13:56Z</time>
      </trkpt>
      <trkpt lat="45.98239" lon="4.81498">
        <ele>249</ele>
        <time>2017-03-27T09:13:57Z</time>
      </trkpt>
      <trkpt lat="45.98241" lon="4.81505">
        <ele>249</ele>
        <time>2017-03-27T09:13:58Z</time>
      </trkpt>
      <trkpt lat="45.98243" lon="4.81512">
        <ele>249</ele>
        <time>2017-03-27T09:13:59Z</time>
      </trkpt>
      <trkpt lat="45.98245" lon="4.81519">
        <ele>249</ele>
        <time>2017-03-27T09:14:00Z</time>
      </trkpt>
      <trkpt lat="45.98248" lon="4.81526">
        <ele>249</ele>
        <time>2017-03-27T09:14:01Z</time>
      </trkpt>
      <trkpt lat="45.9825" lon="4.81533">
        <ele>247</ele>
        <time>2017-03-27T09:14:02Z</time>
      </trkpt>
      <trkpt lat="45.98253" lon="4.8154">
        <ele>247</ele>
        <time>2017-03-27T09:14:03Z</time>
      </trkpt>
      <trkpt lat="45.98256" lon="4.81547">
        <ele>247</ele>
        <time>2017-03-27T09:14:04Z</time>
      </trkpt>
      <trkpt lat="45.98258" lon="4.81554">
        <ele>247</ele>
        <time>2017-03-27T09:14:05Z</time>
      </trkpt>
      <trkpt lat="45.9826" lon="4.81562">
        <ele>247</ele>
        <time>2017-03-27T09:14:06Z</time>
      </trkpt>
      <trkpt lat="45.98262" lon="4.81568">
        <ele>247</ele>
        <time>2017-03-27T09:14:07Z</time>
      </trkpt>
      <trkpt lat="45.98265" lon="4.81575">
        <ele>247</ele>
        <time>2017-03-27T09:14:08Z</time>
      </trkpt>
      <trkpt lat="45.98267" lon="4.81582">
        <ele>247</ele>
        <time>2017-03-27T09:14:09Z</time>
      </trkpt>
      <trkpt lat="45.98269" lon="4.81588">
        <ele>247</ele>
        <time>2017-03-27T09:14:10Z</time>
      </trkpt>
      <trkpt lat="45.98271" lon="4.81595">
        <ele>247</ele>
        <time>2017-03-27T09:14:11Z</time>
      </trkpt>
      <trkpt lat="45.98274" lon="4.81601">
        <ele>247</ele>
        <time>2017-03-27T09:14:12Z</time>
      </trkpt>
      <trkpt lat="45.98276" lon="4.81608">
        <ele>247</ele>
        <time>2017-03-27T09:14:13Z</time>
      </trkpt>
      <trkpt lat="45.98279" lon="4.81614">
        <ele>247</ele>
        <time>2017-03-27T09:14:14Z</time>
      </trkpt>
      <trkpt lat="45.98282" lon="4.8162">
        <ele>247</ele>
        <time>2017-03-27T09:14:15Z</time>
      </trkpt>
      <trkpt lat="45.98286" lon="4.81626">
        <ele>247</ele>
        <time>2017-03-27T09:14:16Z</time>
      </trkpt>
      <trkpt lat="45.9829" lon="4.81632">
        <ele>247</ele>
        <time>2017-03-27T09:14:17Z</time>
      </trkpt>
      <trkpt lat="45.98295" lon="4.81637">
        <ele>247</ele>
        <time>2017-03-27T09:14:18Z</time>
      </trkpt>
      <trkpt lat="45.98299" lon="4.81641">
        <ele>247</ele>
        <time>2017-03-27T09:14:19Z</time>
      </trkpt>
      <trkpt lat="45.98303" lon="4.81646">
        <ele>246</ele>
        <time>2017-03-27T09:14:20Z</time>
      </trkpt>
      <trkpt lat="45.98308" lon="4.8165">
        <ele>246</ele>
        <time>2017-03-27T09:14:21Z</time>
      </trkpt>
      <trkpt lat="45.98313" lon="4.81654">
        <ele>246</ele>
        <time>2017-03-27T09:14:22Z</time>
      </trkpt>
      <trkpt lat="45.98317" lon="4.81659">
        <ele>246</ele>
        <time>2017-03-27T09:14:23Z</time>
      </trkpt>
      <trkpt lat="45.98322" lon="4.81663">
        <ele>246</ele>
        <time>2017-03-27T09:14:24Z</time>
      </trkpt>
      <trkpt lat="45.98327" lon="4.81666">
        <ele>246</ele>
        <time>2017-03-27T09:14:25Z</time>
      </trkpt>
      <trkpt lat="45.98332" lon="4.8167">
        <ele>246</ele>
        <time>2017-03-27T09:14:26Z</time>
      </trkpt>
      <trkpt lat="45.98337" lon="4.81672">
        <ele>245</ele>
        <time>2017-03-27T09:14:27Z</time>
      </trkpt>
      <trkpt lat="45.98343" lon="4.81675">
        <ele>245</ele>
        <time>2017-03-27T09:14:28Z</time>
      </trkpt>
      <trkpt lat="45.98349" lon="4.81677">
        <ele>245</ele>
        <time>2017-03-27T09:14:29Z</time>
      </trkpt>
      <trkpt lat="45.98355" lon="4.81678">
        <ele>245</ele>
        <time>2017-03-27T09:14:30Z</time>
      </trkpt>
      <trkpt lat="45.98362" lon="4.81677">
        <ele>244</ele>
        <time>2017-03-27T09:14:31Z</time>
      </trkpt>
      <trkpt lat="45.98368" lon="4.81676">
        <ele>244</ele>
        <time>2017-03-27T09:14:32Z</time>
      </trkpt>
      <trkpt lat="45.98374" lon="4.81674">
        <ele>244</ele>
        <time>2017-03-27T09:14:33Z</time>
      </trkpt>
      <trkpt lat="45.9838" lon="4.81672">
        <ele>244</ele>
        <time>2017-03-27T09:14:34Z</time>
      </trkpt>
      <trkpt lat="45.98387" lon="4.8167">
        <ele>243</ele>
        <time>2017-03-27T09:14:35Z</time>
      </trkpt>
      <trkpt lat="45.98393" lon="4.81668">
        <ele>243</ele>
        <time>2017-03-27T09:14:36Z</time>
      </trkpt>
      <trkpt lat="45.98399" lon="4.81667">
        <ele>242</ele>
        <time>2017-03-27T09:14:37Z</time>
      </trkpt>
      <trkpt lat="45.98405" lon="4.81665">
        <ele>241</ele>
        <time>2017-03-27T09:14:38Z</time>
      </trkpt>
      <trkpt lat="45.98411" lon="4.81664">
        <ele>241</ele>
        <time>2017-03-27T09:14:39Z</time>
      </trkpt>
      <trkpt lat="45.98416" lon="4.81664">
        <ele>241</ele>
        <time>2017-03-27T09:14:40Z</time>
      </trkpt>
      <trkpt lat="45.98422" lon="4.81664">
        <ele>240</ele>
        <time>2017-03-27T09:14:41Z</time>
      </trkpt>
      <trkpt lat="45.98428" lon="4.81666">
        <ele>240</ele>
        <time>2017-03-27T09:14:42Z</time>
      </trkpt>
      <trkpt lat="45.98433" lon="4.81668">
        <ele>240</ele>
        <time>2017-03-27T09:14:43Z</time>
      </trkpt>
      <trkpt lat="45.98438" lon="4.81672">
        <ele>240</ele>
        <time>2017-03-27T09:14:44Z</time>
      </trkpt>
      <trkpt lat="45.98442" lon="4.81676">
        <ele>239</ele>
        <time>2017-03-27T09:14:45Z</time>
      </trkpt>
      <trkpt lat="45.98446" lon="4.81682">
        <ele>239</ele>
        <time>2017-03-27T09:14:46Z</time>
      </trkpt>
      <trkpt lat="45.98449" lon="4.81688">
        <ele>239</ele>
        <time>2017-03-27T09:14:47Z</time>
      </trkpt>
      <trkpt lat="45.98452" lon="4.81695">
        <ele>239</ele>
        <time>2017-03-27T09:14:48Z</time>
      </trkpt>
      <trkpt lat="45.98456" lon="4.81701">
        <ele>239</ele>
        <time>2017-03-27T09:14:49Z</time>
      </trkpt>
      <trkpt lat="45.9846" lon="4.81708">
        <ele>239</ele>
        <time>2017-03-27T09:14:50Z</time>
      </trkpt>
      <trkpt lat="45.98464" lon="4.81714">
        <ele>239</ele>
        <time>2017-03-27T09:14:51Z</time>
      </trkpt>
      <trkpt lat="45.98469" lon="4.81721">
        <ele>239</ele>
        <time>2017-03-27T09:14:52Z</time>
      </trkpt>
      <trkpt lat="45.98475" lon="4.81728">
        <ele>239</ele>
        <time>2017-03-27T09:14:53Z</time>
      </trkpt>
      <trkpt lat="45.98481" lon="4.81734">
        <ele>238</ele>
        <time>2017-03-27T09:14:54Z</time>
      </trkpt>
      <trkpt lat="45.98488" lon="4.8174">
        <ele>238</ele>
        <time>2017-03-27T09:14:55Z</time>
      </trkpt>
      <trkpt lat="45.98495" lon="4.81747">
        <ele>237</ele>
        <time>2017-03-27T09:14:56Z</time>
      </trkpt>
      <trkpt lat="45.98501" lon="4.81755">
        <ele>237</ele>
        <time>2017-03-27T09:14:57Z</time>
      </trkpt>
      <trkpt lat="45.98508" lon="4.81763">
        <ele>237</ele>
        <time>2017-03-27T09:14:58Z</time>
      </trkpt>
      <trkpt lat="45.98514" lon="4.81772">
        <ele>238</ele>
        <time>2017-03-27T09:14:59Z</time>
      </trkpt>
      <trkpt lat="45.9852" lon="4.81781">
        <ele>238</ele>
        <time>2017-03-27T09:15:00Z</time>
      </trkpt>
      <trkpt lat="45.98526" lon="4.8179">
        <ele>238</ele>
        <time>2017-03-27T09:15:01Z</time>
      </trkpt>
      <trkpt lat="45.98532" lon="4.81798">
        <ele>238</ele>
        <time>2017-03-27T09:15:02Z</time>
      </trkpt>
      <trkpt lat="45.98538" lon="4.81804">
        <ele>238</ele>
        <time>2017-03-27T09:15:03Z</time>
      </trkpt>
      <trkpt lat="45.98545" lon="4.81807">
        <ele>238</ele>
        <time>2017-03-27T09:15:04Z</time>
      </trkpt>
      <trkpt lat="45.98552" lon="4.81808">
        <ele>238</ele>
        <time>2017-03-27T09:15:05Z</time>
      </trkpt>
      <trkpt lat="45.98559" lon="4.81805">
        <ele>238</ele>
        <time>2017-03-27T09:15:06Z</time>
      </trkpt>
      <trkpt lat="45.98565" lon="4.818">
        <ele>238</ele>
        <time>2017-03-27T09:15:07Z</time>
      </trkpt>
      <trkpt lat="45.9857" lon="4.81794">
        <ele>238</ele>
        <time>2017-03-27T09:15:08Z</time>
      </trkpt>
      <trkpt lat="45.98574" lon="4.81788">
        <ele>238</ele>
        <time>2017-03-27T09:15:09Z</time>
      </trkpt>
      <trkpt lat="45.98579" lon="4.81782">
        <ele>238</ele>
        <time>2017-03-27T09:15:10Z</time>
      </trkpt>
      <trkpt lat="45.98583" lon="4.81776">
        <ele>237</ele>
        <time>2017-03-27T09:15:11Z</time>
      </trkpt>
      <trkpt lat="45.98587" lon="4.81771">
        <ele>238</ele>
        <time>2017-03-27T09:15:12Z</time>
      </trkpt>
      <trkpt lat="45.98592" lon="4.81768">
        <ele>238</ele>
        <time>2017-03-27T09:15:13Z</time>
      </trkpt>
      <trkpt lat="45.98597" lon="4.81765">
        <ele>238</ele>
        <time>2017-03-27T09:15:14Z</time>
      </trkpt>
      <trkpt lat="45.98601" lon="4.81763">
        <ele>238</ele>
        <time>2017-03-27T09:15:15Z</time>
      </trkpt>
      <trkpt lat="45.98606" lon="4.81762">
        <ele>238</ele>
        <time>2017-03-27T09:15:16Z</time>
      </trkpt>
      <trkpt lat="45.9861" lon="4.81762">
        <ele>238</ele>
        <time>2017-03-27T09:15:17Z</time>
      </trkpt>
      <trkpt lat="45.98615" lon="4.81762">
        <ele>238</ele>
        <time>2017-03-27T09:15:18Z</time>
      </trkpt>
      <trkpt lat="45.9862" lon="4.81761">
        <ele>238</ele>
        <time>2017-03-27T09:15:19Z</time>
      </trkpt>
      <trkpt lat="45.98625" lon="4.8176">
        <ele>238</ele>
        <time>2017-03-27T09:15:20Z</time>
      </trkpt>
      <trkpt lat="45.98631" lon="4.8176">
        <ele>238</ele>
        <time>2017-03-27T09:15:21Z</time>
      </trkpt>
      <trkpt lat="45.98637" lon="4.81758">
        <ele>238</ele>
        <time>2017-03-27T09:15:22Z</time>
      </trkpt>
      <trkpt lat="45.98642" lon="4.81756">
        <ele>238</ele>
        <time>2017-03-27T09:15:23Z</time>
      </trkpt>
      <trkpt lat="45.98647" lon="4.81754">
        <ele>238</ele>
        <time>2017-03-27T09:15:24Z</time>
      </trkpt>
      <trkpt lat="45.98652" lon="4.81752">
        <ele>238</ele>
        <time>2017-03-27T09:15:25Z</time>
      </trkpt>
      <trkpt lat="45.98661" lon="4.81751">
        <ele>238</ele>
        <time>2017-03-27T09:15:27Z</time>
      </trkpt>
      <trkpt lat="45.98665" lon="4.8175">
        <ele>238</ele>
        <time>2017-03-27T09:15:28Z</time>
      </trkpt>
      <trkpt lat="45.98674" lon="4.8175">
        <ele>238</ele>
        <time>2017-03-27T09:15:30Z</time>
      </trkpt>
      <trkpt lat="45.98678" lon="4.81749">
        <ele>238</ele>
        <time>2017-03-27T09:15:31Z</time>
      </trkpt>
      <trkpt lat="45.98685" lon="4.81747">
        <ele>238</ele>
        <time>2017-03-27T09:15:33Z</time>
      </trkpt>
      <trkpt lat="45.98689" lon="4.81747">
        <ele>238</ele>
        <time>2017-03-27T09:15:34Z</time>
      </trkpt>
      <trkpt lat="45.98697" lon="4.81746">
        <ele>239</ele>
        <time>2017-03-27T09:15:36Z</time>
      </trkpt>
      <trkpt lat="45.98701" lon="4.81744">
        <ele>239</ele>
        <time>2017-03-27T09:15:37Z</time>
      </trkpt>
      <trkpt lat="45.98708" lon="4.81745">
        <ele>239</ele>
        <time>2017-03-27T09:15:39Z</time>
      </trkpt>
      <trkpt lat="45.98711" lon="4.81745">
        <ele>239</ele>
        <time>2017-03-27T09:15:40Z</time>
      </trkpt>
      <trkpt lat="45.98719" lon="4.81745">
        <ele>239</ele>
        <time>2017-03-27T09:15:42Z</time>
      </trkpt>
      <trkpt lat="45.98722" lon="4.81745">
        <ele>239</ele>
        <time>2017-03-27T09:15:43Z</time>
      </trkpt>
      <trkpt lat="45.9873" lon="4.81744">
        <ele>240</ele>
        <time>2017-03-27T09:15:48Z</time>
      </trkpt>
      <trkpt lat="45.98732" lon="4.81742">
        <ele>240</ele>
        <time>2017-03-27T09:15:49Z</time>
      </trkpt>
      <trkpt lat="45.98732" lon="4.81741">
        <ele>240</ele>
        <time>2017-03-27T09:15:50Z</time>
      </trkpt>
      <trkpt lat="45.98733" lon="4.81739">
        <ele>240</ele>
        <time>2017-03-27T09:15:51Z</time>
      </trkpt>
      <trkpt lat="45.98731" lon="4.81735">
        <ele>239</ele>
        <time>2017-03-27T09:16:52Z</time>
      </trkpt>
      <trkpt lat="45.98732" lon="4.81733">
        <ele>239</ele>
        <time>2017-03-27T09:16:53Z</time>
      </trkpt>
      <trkpt lat="45.98731" lon="4.81734">
        <ele>239</ele>
        <time>2017-03-27T09:16:55Z</time>
      </trkpt>
      <trkpt lat="45.98731" lon="4.81735">
        <ele>239</ele>
        <time>2017-03-27T09:16:56Z</time>
      </trkpt>
      <trkpt lat="45.98729" lon="4.81736">
        <ele>239</ele>
        <time>2017-03-27T09:16:57Z</time>
      </trkpt>
      <trkpt lat="45.98729" lon="4.81738">
        <ele>239</ele>
        <time>2017-03-27T09:16:58Z</time>
      </trkpt>
      <trkpt lat="45.98732" lon="4.8175">
        <ele>240</ele>
        <time>2017-03-27T09:17:03Z</time>
      </trkpt>
      <trkpt lat="45.98733" lon="4.81753">
        <ele>240</ele>
        <time>2017-03-27T09:17:04Z</time>
      </trkpt>
      <trkpt lat="45.98737" lon="4.81761">
        <ele>240</ele>
        <time>2017-03-27T09:17:06Z</time>
      </trkpt>
      <trkpt lat="45.98739" lon="4.81766">
        <ele>240</ele>
        <time>2017-03-27T09:17:07Z</time>
      </trkpt>
      <trkpt lat="45.98744" lon="4.81776">
        <ele>240</ele>
        <time>2017-03-27T09:17:09Z</time>
      </trkpt>
      <trkpt lat="45.98747" lon="4.81782">
        <ele>240</ele>
        <time>2017-03-27T09:17:10Z</time>
      </trkpt>
      <trkpt lat="45.9875" lon="4.81787">
        <ele>240</ele>
        <time>2017-03-27T09:17:11Z</time>
      </trkpt>
      <trkpt lat="45.98753" lon="4.81793">
        <ele>240</ele>
        <time>2017-03-27T09:17:12Z</time>
      </trkpt>
      <trkpt lat="45.98756" lon="4.81798">
        <ele>240</ele>
        <time>2017-03-27T09:17:13Z</time>
      </trkpt>
      <trkpt lat="45.98759" lon="4.81804">
        <ele>240</ele>
        <time>2017-03-27T09:17:14Z</time>
      </trkpt>
      <trkpt lat="45.98762" lon="4.81809">
        <ele>240</ele>
        <time>2017-03-27T09:17:15Z</time>
      </trkpt>
      <trkpt lat="45.98766" lon="4.81816">
        <ele>240</ele>
        <time>2017-03-27T09:17:16Z</time>
      </trkpt>
      <trkpt lat="45.98769" lon="4.81822">
        <ele>240</ele>
        <time>2017-03-27T09:17:17Z</time>
      </trkpt>
      <trkpt lat="45.98772" lon="4.81829">
        <ele>240</ele>
        <time>2017-03-27T09:17:18Z</time>
      </trkpt>
      <trkpt lat="45.98774" lon="4.81836">
        <ele>239</ele>
        <time>2017-03-27T09:17:19Z</time>
      </trkpt>
      <trkpt lat="45.98777" lon="4.81844">
        <ele>239</ele>
        <time>2017-03-27T09:17:20Z</time>
      </trkpt>
      <trkpt lat="45.9878" lon="4.81851">
        <ele>239</ele>
        <time>2017-03-27T09:17:21Z</time>
      </trkpt>
      <trkpt lat="45.98783" lon="4.81859">
        <ele>239</ele>
        <time>2017-03-27T09:17:22Z</time>
      </trkpt>
      <trkpt lat="45.98786" lon="4.81866">
        <ele>239</ele>
        <time>2017-03-27T09:17:23Z</time>
      </trkpt>
      <trkpt lat="45.98789" lon="4.81873">
        <ele>239</ele>
        <time>2017-03-27T09:17:24Z</time>
      </trkpt>
      <trkpt lat="45.98792" lon="4.81881">
        <ele>239</ele>
        <time>2017-03-27T09:17:25Z</time>
      </trkpt>
      <trkpt lat="45.98794" lon="4.81889">
        <ele>239</ele>
        <time>2017-03-27T09:17:26Z</time>
      </trkpt>
      <trkpt lat="45.98796" lon="4.81897">
        <ele>239</ele>
        <time>2017-03-27T09:17:27Z</time>
      </trkpt>
      <trkpt lat="45.98798" lon="4.81905">
        <ele>239</ele>
        <time>2017-03-27T09:17:28Z</time>
      </trkpt>
      <trkpt lat="45.988" lon="4.81913">
        <ele>239</ele>
        <time>2017-03-27T09:17:29Z</time>
      </trkpt>
      <trkpt lat="45.98802" lon="4.81922">
        <ele>239</ele>
        <time>2017-03-27T09:17:30Z</time>
      </trkpt>
      <trkpt lat="45.98804" lon="4.81929">
        <ele>239</ele>
        <time>2017-03-27T09:17:31Z</time>
      </trkpt>
      <trkpt lat="45.98805" lon="4.81937">
        <ele>239</ele>
        <time>2017-03-27T09:17:32Z</time>
      </trkpt>
      <trkpt lat="45.98806" lon="4.81945">
        <ele>239</ele>
        <time>2017-03-27T09:17:33Z</time>
      </trkpt>
      <trkpt lat="45.98808" lon="4.81953">
        <ele>239</ele>
        <time>2017-03-27T09:17:34Z</time>
      </trkpt>
      <trkpt lat="45.98809" lon="4.8196">
        <ele>239</ele>
        <time>2017-03-27T09:17:35Z</time>
      </trkpt>
      <trkpt lat="45.9881" lon="4.81968">
        <ele>239</ele>
        <time>2017-03-27T09:17:36Z</time>
      </trkpt>
      <trkpt lat="45.98812" lon="4.81975">
        <ele>239</ele>
        <time>2017-03-27T09:17:37Z</time>
      </trkpt>
      <trkpt lat="45.98813" lon="4.81983">
        <ele>239</ele>
        <time>2017-03-27T09:17:38Z</time>
      </trkpt>
      <trkpt lat="45.98814" lon="4.81991">
        <ele>238</ele>
        <time>2017-03-27T09:17:39Z</time>
      </trkpt>
      <trkpt lat="45.98816" lon="4.82">
        <ele>238</ele>
        <time>2017-03-27T09:17:40Z</time>
      </trkpt>
      <trkpt lat="45.98817" lon="4.82009">
        <ele>238</ele>
        <time>2017-03-27T09:17:41Z</time>
      </trkpt>
      <trkpt lat="45.98819" lon="4.82017">
        <ele>238</ele>
        <time>2017-03-27T09:17:42Z</time>
      </trkpt>
      <trkpt lat="45.9882" lon="4.82026">
        <ele>238</ele>
        <time>2017-03-27T09:17:43Z</time>
      </trkpt>
      <trkpt lat="45.98822" lon="4.82035">
        <ele>238</ele>
        <time>2017-03-27T09:17:44Z</time>
      </trkpt>
      <trkpt lat="45.98823" lon="4.82044">
        <ele>238</ele>
        <time>2017-03-27T09:17:45Z</time>
      </trkpt>
      <trkpt lat="45.98824" lon="4.82052">
        <ele>237</ele>
        <time>2017-03-27T09:17:46Z</time>
      </trkpt>
      <trkpt lat="45.98826" lon="4.82061">
        <ele>237</ele>
        <time>2017-03-27T09:17:47Z</time>
      </trkpt>
      <trkpt lat="45.98827" lon="4.82069">
        <ele>237</ele>
        <time>2017-03-27T09:17:48Z</time>
      </trkpt>
      <trkpt lat="45.98828" lon="4.82077">
        <ele>237</ele>
        <time>2017-03-27T09:17:49Z</time>
      </trkpt>
      <trkpt lat="45.98829" lon="4.82084">
        <ele>236</ele>
        <time>2017-03-27T09:17:50Z</time>
      </trkpt>
      <trkpt lat="45.9883" lon="4.82091">
        <ele>237</ele>
        <time>2017-03-27T09:17:51Z</time>
      </trkpt>
      <trkpt lat="45.98831" lon="4.82099">
        <ele>237</ele>
        <time>2017-03-27T09:17:52Z</time>
      </trkpt>
      <trkpt lat="45.98833" lon="4.82106">
        <ele>237</ele>
        <time>2017-03-27T09:17:53Z</time>
      </trkpt>
      <trkpt lat="45.98834" lon="4.82113">
        <ele>236</ele>
        <time>2017-03-27T09:17:54Z</time>
      </trkpt>
      <trkpt lat="45.98836" lon="4.8212">
        <ele>236</ele>
        <time>2017-03-27T09:17:55Z</time>
      </trkpt>
      <trkpt lat="45.98838" lon="4.82127">
        <ele>236</ele>
        <time>2017-03-27T09:17:56Z</time>
      </trkpt>
      <trkpt lat="45.98839" lon="4.82135">
        <ele>236</ele>
        <time>2017-03-27T09:17:57Z</time>
      </trkpt>
      <trkpt lat="45.98841" lon="4.82143">
        <ele>236</ele>
        <time>2017-03-27T09:17:58Z</time>
      </trkpt>
      <trkpt lat="45.98843" lon="4.82151">
        <ele>236</ele>
        <time>2017-03-27T09:17:59Z</time>
      </trkpt>
      <trkpt lat="45.98845" lon="4.82159">
        <ele>236</ele>
        <time>2017-03-27T09:18:00Z</time>
      </trkpt>
      <trkpt lat="45.98847" lon="4.82168">
        <ele>236</ele>
        <time>2017-03-27T09:18:01Z</time>
      </trkpt>
      <trkpt lat="45.9885" lon="4.82175">
        <ele>236</ele>
        <time>2017-03-27T09:18:02Z</time>
      </trkpt>
      <trkpt lat="45.98853" lon="4.82183">
        <ele>236</ele>
        <time>2017-03-27T09:18:03Z</time>
      </trkpt>
      <trkpt lat="45.98856" lon="4.8219">
        <ele>236</ele>
        <time>2017-03-27T09:18:04Z</time>
      </trkpt>
      <trkpt lat="45.98859" lon="4.82197">
        <ele>236</ele>
        <time>2017-03-27T09:18:05Z</time>
      </trkpt>
      <trkpt lat="45.98861" lon="4.82204">
        <ele>236</ele>
        <time>2017-03-27T09:18:06Z</time>
      </trkpt>
      <trkpt lat="45.98864" lon="4.8221">
        <ele>236</ele>
        <time>2017-03-27T09:18:07Z</time>
      </trkpt>
      <trkpt lat="45.98866" lon="4.82217">
        <ele>236</ele>
        <time>2017-03-27T09:18:08Z</time>
      </trkpt>
      <trkpt lat="45.98869" lon="4.82224">
        <ele>236</ele>
        <time>2017-03-27T09:18:09Z</time>
      </trkpt>
      <trkpt lat="45.98871" lon="4.8223">
        <ele>236</ele>
        <time>2017-03-27T09:18:10Z</time>
      </trkpt>
      <trkpt lat="45.98874" lon="4.82237">
        <ele>236</ele>
        <time>2017-03-27T09:18:11Z</time>
      </trkpt>
      <trkpt lat="45.98877" lon="4.82243">
        <ele>236</ele>
        <time>2017-03-27T09:18:12Z</time>
      </trkpt>
      <trkpt lat="45.9888" lon="4.82249">
        <ele>236</ele>
        <time>2017-03-27T09:18:13Z</time>
      </trkpt>
      <trkpt lat="45.98883" lon="4.82255">
        <ele>236</ele>
        <time>2017-03-27T09:18:14Z</time>
      </trkpt>
      <trkpt lat="45.98887" lon="4.82262">
        <ele>236</ele>
        <time>2017-03-27T09:18:15Z</time>
      </trkpt>
      <trkpt lat="45.98891" lon="4.82268">
        <ele>236</ele>
        <time>2017-03-27T09:18:16Z</time>
      </trkpt>
      <trkpt lat="45.98895" lon="4.82273">
        <ele>236</ele>
        <time>2017-03-27T09:18:17Z</time>
      </trkpt>
      <trkpt lat="45.98899" lon="4.82279">
        <ele>236</ele>
        <time>2017-03-27T09:18:18Z</time>
      </trkpt>
      <trkpt lat="45.98903" lon="4.82284">
        <ele>236</ele>
        <time>2017-03-27T09:18:19Z</time>
      </trkpt>
      <trkpt lat="45.98907" lon="4.8229">
        <ele>236</ele>
        <time>2017-03-27T09:18:20Z</time>
      </trkpt>
      <trkpt lat="45.98911" lon="4.82295">
        <ele>236</ele>
        <time>2017-03-27T09:18:21Z</time>
      </trkpt>
      <trkpt lat="45.98916" lon="4.82299">
        <ele>237</ele>
        <time>2017-03-27T09:18:22Z</time>
      </trkpt>
      <trkpt lat="45.9892" lon="4.82304">
        <ele>234</ele>
        <time>2017-03-27T09:18:23Z</time>
      </trkpt>
      <trkpt lat="45.98925" lon="4.82308">
        <ele>235</ele>
        <time>2017-03-27T09:18:24Z</time>
      </trkpt>
      <trkpt lat="45.98929" lon="4.82313">
        <ele>235</ele>
        <time>2017-03-27T09:18:25Z</time>
      </trkpt>
      <trkpt lat="45.98933" lon="4.82318">
        <ele>235</ele>
        <time>2017-03-27T09:18:26Z</time>
      </trkpt>
      <trkpt lat="45.98936" lon="4.82323">
        <ele>235</ele>
        <time>2017-03-27T09:18:27Z</time>
      </trkpt>
      <trkpt lat="45.9894" lon="4.82328">
        <ele>234</ele>
        <time>2017-03-27T09:18:28Z</time>
      </trkpt>
      <trkpt lat="45.98943" lon="4.82333">
        <ele>234</ele>
        <time>2017-03-27T09:18:29Z</time>
      </trkpt>
      <trkpt lat="45.98947" lon="4.8234">
        <ele>235</ele>
        <time>2017-03-27T09:18:30Z</time>
      </trkpt>
      <trkpt lat="45.9895" lon="4.82346">
        <ele>235</ele>
        <time>2017-03-27T09:18:31Z</time>
      </trkpt>
      <trkpt lat="45.98953" lon="4.82354">
        <ele>235</ele>
        <time>2017-03-27T09:18:32Z</time>
      </trkpt>
      <trkpt lat="45.98956" lon="4.82361">
        <ele>235</ele>
        <time>2017-03-27T09:18:33Z</time>
      </trkpt>
      <trkpt lat="45.98959" lon="4.82369">
        <ele>235</ele>
        <time>2017-03-27T09:18:34Z</time>
      </trkpt>
      <trkpt lat="45.98961" lon="4.82377">
        <ele>235</ele>
        <time>2017-03-27T09:18:35Z</time>
      </trkpt>
      <trkpt lat="45.98963" lon="4.82384">
        <ele>235</ele>
        <time>2017-03-27T09:18:36Z</time>
      </trkpt>
      <trkpt lat="45.98966" lon="4.82392">
        <ele>235</ele>
        <time>2017-03-27T09:18:37Z</time>
      </trkpt>
      <trkpt lat="45.98967" lon="4.82399">
        <ele>235</ele>
        <time>2017-03-27T09:18:38Z</time>
      </trkpt>
      <trkpt lat="45.98969" lon="4.82406">
        <ele>235</ele>
        <time>2017-03-27T09:18:39Z</time>
      </trkpt>
      <trkpt lat="45.98971" lon="4.82413">
        <ele>235</ele>
        <time>2017-03-27T09:18:40Z</time>
      </trkpt>
      <trkpt lat="45.98973" lon="4.8242">
        <ele>236</ele>
        <time>2017-03-27T09:18:41Z</time>
      </trkpt>
      <trkpt lat="45.98975" lon="4.82427">
        <ele>236</ele>
        <time>2017-03-27T09:18:42Z</time>
      </trkpt>
      <trkpt lat="45.98976" lon="4.82433">
        <ele>236</ele>
        <time>2017-03-27T09:18:43Z</time>
      </trkpt>
      <trkpt lat="45.98978" lon="4.8244">
        <ele>236</ele>
        <time>2017-03-27T09:18:44Z</time>
      </trkpt>
      <trkpt lat="45.98979" lon="4.82446">
        <ele>236</ele>
        <time>2017-03-27T09:18:45Z</time>
      </trkpt>
      <trkpt lat="45.98981" lon="4.82452">
        <ele>236</ele>
        <time>2017-03-27T09:18:46Z</time>
      </trkpt>
      <trkpt lat="45.98982" lon="4.82459">
        <ele>236</ele>
        <time>2017-03-27T09:18:47Z</time>
      </trkpt>
      <trkpt lat="45.98985" lon="4.82466">
        <ele>236</ele>
        <time>2017-03-27T09:18:48Z</time>
      </trkpt>
      <trkpt lat="45.98987" lon="4.82473">
        <ele>236</ele>
        <time>2017-03-27T09:18:49Z</time>
      </trkpt>
      <trkpt lat="45.98989" lon="4.82481">
        <ele>236</ele>
        <time>2017-03-27T09:18:50Z</time>
      </trkpt>
      <trkpt lat="45.98992" lon="4.82488">
        <ele>236</ele>
        <time>2017-03-27T09:18:51Z</time>
      </trkpt>
      <trkpt lat="45.98995" lon="4.82496">
        <ele>235</ele>
        <time>2017-03-27T09:18:52Z</time>
      </trkpt>
      <trkpt lat="45.98998" lon="4.82503">
        <ele>235</ele>
        <time>2017-03-27T09:18:53Z</time>
      </trkpt>
      <trkpt lat="45.99" lon="4.82509">
        <ele>235</ele>
        <time>2017-03-27T09:18:54Z</time>
      </trkpt>
      <trkpt lat="45.99003" lon="4.82516">
        <ele>235</ele>
        <time>2017-03-27T09:18:55Z</time>
      </trkpt>
      <trkpt lat="45.99007" lon="4.82522">
        <ele>235</ele>
        <time>2017-03-27T09:18:56Z</time>
      </trkpt>
      <trkpt lat="45.9901" lon="4.82527">
        <ele>235</ele>
        <time>2017-03-27T09:18:57Z</time>
      </trkpt>
      <trkpt lat="45.99014" lon="4.82533">
        <ele>235</ele>
        <time>2017-03-27T09:18:58Z</time>
      </trkpt>
      <trkpt lat="45.99017" lon="4.82538">
        <ele>235</ele>
        <time>2017-03-27T09:18:59Z</time>
      </trkpt>
      <trkpt lat="45.99021" lon="4.82542">
        <ele>235</ele>
        <time>2017-03-27T09:19:00Z</time>
      </trkpt>
      <trkpt lat="45.99025" lon="4.82547">
        <ele>235</ele>
        <time>2017-03-27T09:19:01Z</time>
      </trkpt>
      <trkpt lat="45.99029" lon="4.82551">
        <ele>235</ele>
        <time>2017-03-27T09:19:02Z</time>
      </trkpt>
      <trkpt lat="45.99034" lon="4.82555">
        <ele>235</ele>
        <time>2017-03-27T09:19:03Z</time>
      </trkpt>
      <trkpt lat="45.99038" lon="4.82558">
        <ele>235</ele>
        <time>2017-03-27T09:19:04Z</time>
      </trkpt>
      <trkpt lat="45.99043" lon="4.82561">
        <ele>235</ele>
        <time>2017-03-27T09:19:05Z</time>
      </trkpt>
      <trkpt lat="45.99048" lon="4.82563">
        <ele>235</ele>
        <time>2017-03-27T09:19:06Z</time>
      </trkpt>
      <trkpt lat="45.99052" lon="4.82565">
        <ele>235</ele>
        <time>2017-03-27T09:19:07Z</time>
      </trkpt>
      <trkpt lat="45.99057" lon="4.82567">
        <ele>235</ele>
        <time>2017-03-27T09:19:08Z</time>
      </trkpt>
      <trkpt lat="45.99062" lon="4.82569">
        <ele>235</ele>
        <time>2017-03-27T09:19:09Z</time>
      </trkpt>
      <trkpt lat="45.99066" lon="4.82571">
        <ele>235</ele>
        <time>2017-03-27T09:19:10Z</time>
      </trkpt>
      <trkpt lat="45.99074" lon="4.82576">
        <ele>235</ele>
        <time>2017-03-27T09:19:12Z</time>
      </trkpt>
      <trkpt lat="45.99075" lon="4.82579">
        <ele>235</ele>
        <time>2017-03-27T09:19:13Z</time>
      </trkpt>
      <trkpt lat="45.99077" lon="4.82589">
        <ele>235</ele>
        <time>2017-03-27T09:19:16Z</time>
      </trkpt>
      <trkpt lat="45.99075" lon="4.82592">
        <ele>235</ele>
        <time>2017-03-27T09:19:17Z</time>
      </trkpt>
      <trkpt lat="45.99071" lon="4.826">
        <ele>235</ele>
        <time>2017-03-27T09:19:19Z</time>
      </trkpt>
      <trkpt lat="45.99068" lon="4.82603">
        <ele>236</ele>
        <time>2017-03-27T09:19:20Z</time>
      </trkpt>
      <trkpt lat="45.99063" lon="4.82612">
        <ele>236</ele>
        <time>2017-03-27T09:19:22Z</time>
      </trkpt>
      <trkpt lat="45.99061" lon="4.82617">
        <ele>236</ele>
        <time>2017-03-27T09:19:23Z</time>
      </trkpt>
      <trkpt lat="45.99056" lon="4.82626">
        <ele>236</ele>
        <time>2017-03-27T09:19:25Z</time>
      </trkpt>
      <trkpt lat="45.99054" lon="4.8263">
        <ele>236</ele>
        <time>2017-03-27T09:19:26Z</time>
      </trkpt>
      <trkpt lat="45.9905" lon="4.82639">
        <ele>236</ele>
        <time>2017-03-27T09:19:28Z</time>
      </trkpt>
      <trkpt lat="45.99048" lon="4.82643">
        <ele>236</ele>
        <time>2017-03-27T09:19:29Z</time>
      </trkpt>
      <trkpt lat="45.99044" lon="4.82651">
        <ele>236</ele>
        <time>2017-03-27T09:19:31Z</time>
      </trkpt>
      <trkpt lat="45.99043" lon="4.82655">
        <ele>236</ele>
        <time>2017-03-27T09:19:32Z</time>
      </trkpt>
      <trkpt lat="45.99039" lon="4.82663">
        <ele>236</ele>
        <time>2017-03-27T09:19:34Z</time>
      </trkpt>
      <trkpt lat="45.99038" lon="4.82666">
        <ele>237</ele>
        <time>2017-03-27T09:19:35Z</time>
      </trkpt>
      <trkpt lat="45.99035" lon="4.82674">
        <ele>238</ele>
        <time>2017-03-27T09:19:37Z</time>
      </trkpt>
      <trkpt lat="45.99033" lon="4.82678">
        <ele>238</ele>
        <time>2017-03-27T09:19:38Z</time>
      </trkpt>
      <trkpt lat="45.99029" lon="4.82686">
        <ele>238</ele>
        <time>2017-03-27T09:19:40Z</time>
      </trkpt>
      <trkpt lat="45.99028" lon="4.8269">
        <ele>238</ele>
        <time>2017-03-27T09:19:41Z</time>
      </trkpt>
      <trkpt lat="45.99024" lon="4.82698">
        <ele>238</ele>
        <time>2017-03-27T09:19:43Z</time>
      </trkpt>
      <trkpt lat="45.99023" lon="4.82701">
        <ele>238</ele>
        <time>2017-03-27T09:19:44Z</time>
      </trkpt>
      <trkpt lat="45.9902" lon="4.82709">
        <ele>239</ele>
        <time>2017-03-27T09:19:46Z</time>
      </trkpt>
      <trkpt lat="45.99018" lon="4.82713">
        <ele>239</ele>
        <time>2017-03-27T09:19:47Z</time>
      </trkpt>
      <trkpt lat="45.99013" lon="4.82723">
        <ele>239</ele>
        <time>2017-03-27T09:19:50Z</time>
      </trkpt>
      <trkpt lat="45.99012" lon="4.82726">
        <ele>239</ele>
        <time>2017-03-27T09:19:51Z</time>
      </trkpt>
      <trkpt lat="45.99007" lon="4.82736">
        <ele>240</ele>
        <time>2017-03-27T09:19:54Z</time>
      </trkpt>
      <trkpt lat="45.99006" lon="4.82739">
        <ele>240</ele>
        <time>2017-03-27T09:19:55Z</time>
      </trkpt>
      <trkpt lat="45.99001" lon="4.8275">
        <ele>241</ele>
        <time>2017-03-27T09:19:59Z</time>
      </trkpt>
      <trkpt lat="45.99" lon="4.82753">
        <ele>242</ele>
        <time>2017-03-27T09:20:00Z</time>
      </trkpt>
      <trkpt lat="45.98995" lon="4.82762">
        <ele>244</ele>
        <time>2017-03-27T09:20:03Z</time>
      </trkpt>
      <trkpt lat="45.98993" lon="4.82766">
        <ele>245</ele>
        <time>2017-03-27T09:20:04Z</time>
      </trkpt>
      <trkpt lat="45.98988" lon="4.82775">
        <ele>246</ele>
        <time>2017-03-27T09:20:07Z</time>
      </trkpt>
      <trkpt lat="45.98986" lon="4.82778">
        <ele>246</ele>
        <time>2017-03-27T09:20:08Z</time>
      </trkpt>
      <trkpt lat="45.98982" lon="4.82788">
        <ele>247</ele>
        <time>2017-03-27T09:20:11Z</time>
      </trkpt>
      <trkpt lat="45.98981" lon="4.82791">
        <ele>247</ele>
        <time>2017-03-27T09:20:12Z</time>
      </trkpt>
      <trkpt lat="45.98976" lon="4.82799">
        <ele>248</ele>
        <time>2017-03-27T09:20:15Z</time>
      </trkpt>
      <trkpt lat="45.98974" lon="4.82803">
        <ele>248</ele>
        <time>2017-03-27T09:20:16Z</time>
      </trkpt>
      <trkpt lat="45.98971" lon="4.82812">
        <ele>249</ele>
        <time>2017-03-27T09:20:19Z</time>
      </trkpt>
      <trkpt lat="45.9897" lon="4.82815">
        <ele>249</ele>
        <time>2017-03-27T09:20:20Z</time>
      </trkpt>
      <trkpt lat="45.98965" lon="4.82826">
        <ele>249</ele>
        <time>2017-03-27T09:20:24Z</time>
      </trkpt>
      <trkpt lat="45.98964" lon="4.82828">
        <ele>249</ele>
        <time>2017-03-27T09:20:25Z</time>
      </trkpt>
      <trkpt lat="45.98961" lon="4.82838">
        <ele>252</ele>
        <time>2017-03-27T09:20:28Z</time>
      </trkpt>
      <trkpt lat="45.9896" lon="4.82841">
        <ele>252</ele>
        <time>2017-03-27T09:20:29Z</time>
      </trkpt>
      <trkpt lat="45.98954" lon="4.82851">
        <ele>252</ele>
        <time>2017-03-27T09:20:33Z</time>
      </trkpt>
      <trkpt lat="45.98953" lon="4.82854">
        <ele>252</ele>
        <time>2017-03-27T09:20:34Z</time>
      </trkpt>
      <trkpt lat="45.98949" lon="4.82864">
        <ele>253</ele>
        <time>2017-03-27T09:20:38Z</time>
      </trkpt>
      <trkpt lat="45.98948" lon="4.82867">
        <ele>253</ele>
        <time>2017-03-27T09:20:39Z</time>
      </trkpt>
      <trkpt lat="45.98944" lon="4.82876">
        <ele>253</ele>
        <time>2017-03-27T09:20:42Z</time>
      </trkpt>
      <trkpt lat="45.98943" lon="4.82879">
        <ele>253</ele>
        <time>2017-03-27T09:20:43Z</time>
      </trkpt>
      <trkpt lat="45.98939" lon="4.82888">
        <ele>253</ele>
        <time>2017-03-27T09:20:46Z</time>
      </trkpt>
      <trkpt lat="45.98938" lon="4.8289">
        <ele>253</ele>
        <time>2017-03-27T09:20:47Z</time>
      </trkpt>
      <trkpt lat="45.98933" lon="4.82898">
        <ele>254</ele>
        <time>2017-03-27T09:20:50Z</time>
      </trkpt>
      <trkpt lat="45.98932" lon="4.829">
        <ele>254</ele>
        <time>2017-03-27T09:20:51Z</time>
      </trkpt>
      <trkpt lat="45.98928" lon="4.8291">
        <ele>254</ele>
        <time>2017-03-27T09:20:55Z</time>
      </trkpt>
      <trkpt lat="45.98926" lon="4.82912">
        <ele>254</ele>
        <time>2017-03-27T09:20:56Z</time>
      </trkpt>
      <trkpt lat="45.9892" lon="4.8292">
        <ele>255</ele>
        <time>2017-03-27T09:21:00Z</time>
      </trkpt>
      <trkpt lat="45.98919" lon="4.82923">
        <ele>255</ele>
        <time>2017-03-27T09:21:01Z</time>
      </trkpt>
      <trkpt lat="45.98914" lon="4.82933">
        <ele>257</ele>
        <time>2017-03-27T09:21:05Z</time>
      </trkpt>
      <trkpt lat="45.98912" lon="4.82935">
        <ele>257</ele>
        <time>2017-03-27T09:21:06Z</time>
      </trkpt>
      <trkpt lat="45.98908" lon="4.82946">
        <ele>258</ele>
        <time>2017-03-27T09:21:10Z</time>
      </trkpt>
      <trkpt lat="45.98907" lon="4.82948">
        <ele>258</ele>
        <time>2017-03-27T09:21:11Z</time>
      </trkpt>
      <trkpt lat="45.98903" lon="4.82959">
        <ele>259</ele>
        <time>2017-03-27T09:21:15Z</time>
      </trkpt>
      <trkpt lat="45.98902" lon="4.82961">
        <ele>259</ele>
        <time>2017-03-27T09:21:16Z</time>
      </trkpt>
      <trkpt lat="45.98896" lon="4.82969">
        <ele>259</ele>
        <time>2017-03-27T09:21:20Z</time>
      </trkpt>
      <trkpt lat="45.98895" lon="4.82971">
        <ele>259</ele>
        <time>2017-03-27T09:21:21Z</time>
      </trkpt>
      <trkpt lat="45.98888" lon="4.82977">
        <ele>259</ele>
        <time>2017-03-27T09:21:25Z</time>
      </trkpt>
      <trkpt lat="45.98886" lon="4.82978">
        <ele>259</ele>
        <time>2017-03-27T09:21:26Z</time>
      </trkpt>
      <trkpt lat="45.98879" lon="4.82985">
        <ele>260</ele>
        <time>2017-03-27T09:21:30Z</time>
      </trkpt>
      <trkpt lat="45.98877" lon="4.82987">
        <ele>260</ele>
        <time>2017-03-27T09:21:31Z</time>
      </trkpt>
      <trkpt lat="45.9887" lon="4.82991">
        <ele>260</ele>
        <time>2017-03-27T09:21:34Z</time>
      </trkpt>
      <trkpt lat="45.98868" lon="4.82993">
        <ele>260</ele>
        <time>2017-03-27T09:21:35Z</time>
      </trkpt>
      <trkpt lat="45.98862" lon="4.82997">
        <ele>261</ele>
        <time>2017-03-27T09:21:38Z</time>
      </trkpt>
      <trkpt lat="45.9886" lon="4.82998">
        <ele>261</ele>
        <time>2017-03-27T09:21:39Z</time>
      </trkpt>
      <trkpt lat="45.98853" lon="4.83006">
        <ele>261</ele>
        <time>2017-03-27T09:21:43Z</time>
      </trkpt>
      <trkpt lat="45.98851" lon="4.83007">
        <ele>261</ele>
        <time>2017-03-27T09:21:44Z</time>
      </trkpt>
      <trkpt lat="45.98844" lon="4.83011">
        <ele>261</ele>
        <time>2017-03-27T09:21:47Z</time>
      </trkpt>
      <trkpt lat="45.98841" lon="4.83012">
        <ele>261</ele>
        <time>2017-03-27T09:21:48Z</time>
      </trkpt>
      <trkpt lat="45.98833" lon="4.83016">
        <ele>264</ele>
        <time>2017-03-27T09:21:51Z</time>
      </trkpt>
      <trkpt lat="45.98831" lon="4.83017">
        <ele>264</ele>
        <time>2017-03-27T09:21:52Z</time>
      </trkpt>
      <trkpt lat="45.98824" lon="4.83022">
        <ele>264</ele>
        <time>2017-03-27T09:21:55Z</time>
      </trkpt>
      <trkpt lat="45.98822" lon="4.83023">
        <ele>264</ele>
        <time>2017-03-27T09:21:56Z</time>
      </trkpt>
      <trkpt lat="45.98815" lon="4.8303">
        <ele>264</ele>
        <time>2017-03-27T09:22:00Z</time>
      </trkpt>
      <trkpt lat="45.98813" lon="4.83032">
        <ele>264</ele>
        <time>2017-03-27T09:22:01Z</time>
      </trkpt>
      <trkpt lat="45.98805" lon="4.83037">
        <ele>264</ele>
        <time>2017-03-27T09:22:04Z</time>
      </trkpt>
      <trkpt lat="45.98803" lon="4.83039">
        <ele>264</ele>
        <time>2017-03-27T09:22:05Z</time>
      </trkpt>
      <trkpt lat="45.98796" lon="4.83045">
        <ele>265</ele>
        <time>2017-03-27T09:22:08Z</time>
      </trkpt>
      <trkpt lat="45.98794" lon="4.83047">
        <ele>265</ele>
        <time>2017-03-27T09:22:09Z</time>
      </trkpt>
      <trkpt lat="45.98787" lon="4.83055">
        <ele>265</ele>
        <time>2017-03-27T09:22:12Z</time>
      </trkpt>
      <trkpt lat="45.98784" lon="4.83057">
        <ele>265</ele>
        <time>2017-03-27T09:22:13Z</time>
      </trkpt>
      <trkpt lat="45.98777" lon="4.83063">
        <ele>265</ele>
        <time>2017-03-27T09:22:16Z</time>
      </trkpt>
      <trkpt lat="45.98775" lon="4.83065">
        <ele>265</ele>
        <time>2017-03-27T09:22:17Z</time>
      </trkpt>
      <trkpt lat="45.98767" lon="4.83072">
        <ele>266</ele>
        <time>2017-03-27T09:22:20Z</time>
      </trkpt>
      <trkpt lat="45.98765" lon="4.83075">
        <ele>266</ele>
        <time>2017-03-27T09:22:21Z</time>
      </trkpt>
      <trkpt lat="45.98757" lon="4.83081">
        <ele>266</ele>
        <time>2017-03-27T09:22:24Z</time>
      </trkpt>
      <trkpt lat="45.98754" lon="4.83084">
        <ele>266</ele>
        <time>2017-03-27T09:22:25Z</time>
      </trkpt>
      <trkpt lat="45.98749" lon="4.83089">
        <ele>267</ele>
        <time>2017-03-27T09:22:27Z</time>
      </trkpt>
      <trkpt lat="45.98746" lon="4.8309">
        <ele>267</ele>
        <time>2017-03-27T09:22:28Z</time>
      </trkpt>
      <trkpt lat="45.98741" lon="4.83095">
        <ele>267</ele>
        <time>2017-03-27T09:22:30Z</time>
      </trkpt>
      <trkpt lat="45.98739" lon="4.83097">
        <ele>267</ele>
        <time>2017-03-27T09:22:31Z</time>
      </trkpt>
      <trkpt lat="45.98734" lon="4.83102">
        <ele>267</ele>
        <time>2017-03-27T09:22:33Z</time>
      </trkpt>
      <trkpt lat="45.98731" lon="4.83104">
        <ele>267</ele>
        <time>2017-03-27T09:22:34Z</time>
      </trkpt>
      <trkpt lat="45.98723" lon="4.83111">
        <ele>267</ele>
        <time>2017-03-27T09:22:37Z</time>
      </trkpt>
      <trkpt lat="45.98721" lon="4.83113">
        <ele>267</ele>
        <time>2017-03-27T09:22:38Z</time>
      </trkpt>
      <trkpt lat="45.98715" lon="4.83117">
        <ele>267</ele>
        <time>2017-03-27T09:22:40Z</time>
      </trkpt>
      <trkpt lat="45.98713" lon="4.8312">
        <ele>267</ele>
        <time>2017-03-27T09:22:41Z</time>
      </trkpt>
      <trkpt lat="45.98707" lon="4.83124">
        <ele>267</ele>
        <time>2017-03-27T09:22:43Z</time>
      </trkpt>
      <trkpt lat="45.98705" lon="4.83126">
        <ele>267</ele>
        <time>2017-03-27T09:22:44Z</time>
      </trkpt>
      <trkpt lat="45.98699" lon="4.8313">
        <ele>266</ele>
        <time>2017-03-27T09:22:46Z</time>
      </trkpt>
      <trkpt lat="45.98696" lon="4.83132">
        <ele>266</ele>
        <time>2017-03-27T09:22:47Z</time>
      </trkpt>
      <trkpt lat="45.98691" lon="4.83137">
        <ele>266</ele>
        <time>2017-03-27T09:22:49Z</time>
      </trkpt>
      <trkpt lat="45.98688" lon="4.83139">
        <ele>266</ele>
        <time>2017-03-27T09:22:50Z</time>
      </trkpt>
      <trkpt lat="45.98682" lon="4.83143">
        <ele>266</ele>
        <time>2017-03-27T09:22:52Z</time>
      </trkpt>
      <trkpt lat="45.9868" lon="4.83146">
        <ele>266</ele>
        <time>2017-03-27T09:22:53Z</time>
      </trkpt>
      <trkpt lat="45.98675" lon="4.8315">
        <ele>266</ele>
        <time>2017-03-27T09:22:55Z</time>
      </trkpt>
      <trkpt lat="45.98672" lon="4.83152">
        <ele>266</ele>
        <time>2017-03-27T09:22:56Z</time>
      </trkpt>
      <trkpt lat="45.98666" lon="4.83156">
        <ele>267</ele>
        <time>2017-03-27T09:22:58Z</time>
      </trkpt>
      <trkpt lat="45.98663" lon="4.83158">
        <ele>267</ele>
        <time>2017-03-27T09:22:59Z</time>
      </trkpt>
      <trkpt lat="45.98657" lon="4.83163">
        <ele>267</ele>
        <time>2017-03-27T09:23:01Z</time>
      </trkpt>
      <trkpt lat="45.98654" lon="4.83165">
        <ele>267</ele>
        <time>2017-03-27T09:23:02Z</time>
      </trkpt>
      <trkpt lat="45.98648" lon="4.8317">
        <ele>267</ele>
        <time>2017-03-27T09:23:04Z</time>
      </trkpt>
      <trkpt lat="45.98645" lon="4.83171">
        <ele>267</ele>
        <time>2017-03-27T09:23:05Z</time>
      </trkpt>
      <trkpt lat="45.9864" lon="4.83176">
        <ele>267</ele>
        <time>2017-03-27T09:23:07Z</time>
      </trkpt>
      <trkpt lat="45.98637" lon="4.83179">
        <ele>267</ele>
        <time>2017-03-27T09:23:08Z</time>
      </trkpt>
      <trkpt lat="45.98632" lon="4.83183">
        <ele>267</ele>
        <time>2017-03-27T09:23:10Z</time>
      </trkpt>
      <trkpt lat="45.98629" lon="4.83186">
        <ele>267</ele>
        <time>2017-03-27T09:23:11Z</time>
      </trkpt>
      <trkpt lat="45.98624" lon="4.83192">
        <ele>267</ele>
        <time>2017-03-27T09:23:13Z</time>
      </trkpt>
      <trkpt lat="45.98621" lon="4.83195">
        <ele>267</ele>
        <time>2017-03-27T09:23:14Z</time>
      </trkpt>
      <trkpt lat="45.98615" lon="4.83202">
        <ele>267</ele>
        <time>2017-03-27T09:23:16Z</time>
      </trkpt>
      <trkpt lat="45.98613" lon="4.83206">
        <ele>267</ele>
        <time>2017-03-27T09:23:17Z</time>
      </trkpt>
      <trkpt lat="45.98607" lon="4.83212">
        <ele>267</ele>
        <time>2017-03-27T09:23:19Z</time>
      </trkpt>
      <trkpt lat="45.98605" lon="4.83215">
        <ele>267</ele>
        <time>2017-03-27T09:23:20Z</time>
      </trkpt>
      <trkpt lat="45.98599" lon="4.83222">
        <ele>268</ele>
        <time>2017-03-27T09:23:22Z</time>
      </trkpt>
      <trkpt lat="45.98597" lon="4.83226">
        <ele>268</ele>
        <time>2017-03-27T09:23:23Z</time>
      </trkpt>
      <trkpt lat="45.98592" lon="4.83233">
        <ele>268</ele>
        <time>2017-03-27T09:23:25Z</time>
      </trkpt>
      <trkpt lat="45.98589" lon="4.83237">
        <ele>268</ele>
        <time>2017-03-27T09:23:26Z</time>
      </trkpt>
      <trkpt lat="45.98584" lon="4.83245">
        <ele>268</ele>
        <time>2017-03-27T09:23:28Z</time>
      </trkpt>
      <trkpt lat="45.98581" lon="4.83248">
        <ele>268</ele>
        <time>2017-03-27T09:23:29Z</time>
      </trkpt>
      <trkpt lat="45.98576" lon="4.83256">
        <ele>268</ele>
        <time>2017-03-27T09:23:31Z</time>
      </trkpt>
      <trkpt lat="45.98574" lon="4.8326">
        <ele>269</ele>
        <time>2017-03-27T09:23:32Z</time>
      </trkpt>
      <trkpt lat="45.98569" lon="4.83268">
        <ele>269</ele>
        <time>2017-03-27T09:23:34Z</time>
      </trkpt>
      <trkpt lat="45.98566" lon="4.83271">
        <ele>269</ele>
        <time>2017-03-27T09:23:35Z</time>
      </trkpt>
      <trkpt lat="45.98561" lon="4.83278">
        <ele>269</ele>
        <time>2017-03-27T09:23:37Z</time>
      </trkpt>
      <trkpt lat="45.98558" lon="4.83282">
        <ele>269</ele>
        <time>2017-03-27T09:23:38Z</time>
      </trkpt>
      <trkpt lat="45.98553" lon="4.8329">
        <ele>269</ele>
        <time>2017-03-27T09:23:40Z</time>
      </trkpt>
      <trkpt lat="45.9855" lon="4.83294">
        <ele>269</ele>
        <time>2017-03-27T09:23:41Z</time>
      </trkpt>
      <trkpt lat="45.98544" lon="4.83302">
        <ele>269</ele>
        <time>2017-03-27T09:23:43Z</time>
      </trkpt>
      <trkpt lat="45.98542" lon="4.83305">
        <ele>269</ele>
        <time>2017-03-27T09:23:44Z</time>
      </trkpt>
      <trkpt lat="45.98536" lon="4.83312">
        <ele>269</ele>
        <time>2017-03-27T09:23:46Z</time>
      </trkpt>
      <trkpt lat="45.98534" lon="4.83315">
        <ele>269</ele>
        <time>2017-03-27T09:23:47Z</time>
      </trkpt>
      <trkpt lat="45.98528" lon="4.83322">
        <ele>269</ele>
        <time>2017-03-27T09:23:49Z</time>
      </trkpt>
      <trkpt lat="45.98526" lon="4.83325">
        <ele>270</ele>
        <time>2017-03-27T09:23:50Z</time>
      </trkpt>
      <trkpt lat="45.9852" lon="4.83332">
        <ele>270</ele>
        <time>2017-03-27T09:23:52Z</time>
      </trkpt>
      <trkpt lat="45.98517" lon="4.83336">
        <ele>270</ele>
        <time>2017-03-27T09:23:53Z</time>
      </trkpt>
      <trkpt lat="45.98512" lon="4.83344">
        <ele>270</ele>
        <time>2017-03-27T09:23:55Z</time>
      </trkpt>
      <trkpt lat="45.98509" lon="4.83347">
        <ele>270</ele>
        <time>2017-03-27T09:23:56Z</time>
      </trkpt>
      <trkpt lat="45.98503" lon="4.83354">
        <ele>270</ele>
        <time>2017-03-27T09:23:58Z</time>
      </trkpt>
      <trkpt lat="45.985" lon="4.83358">
        <ele>270</ele>
        <time>2017-03-27T09:23:59Z</time>
      </trkpt>
      <trkpt lat="45.98494" lon="4.83366">
        <ele>270</ele>
        <time>2017-03-27T09:24:01Z</time>
      </trkpt>
      <trkpt lat="45.98491" lon="4.83371">
        <ele>270</ele>
        <time>2017-03-27T09:24:02Z</time>
      </trkpt>
      <trkpt lat="45.98485" lon="4.83379">
        <ele>269</ele>
        <time>2017-03-27T09:24:04Z</time>
      </trkpt>
      <trkpt lat="45.98481" lon="4.83383">
        <ele>269</ele>
        <time>2017-03-27T09:24:05Z</time>
      </trkpt>
      <trkpt lat="45.98476" lon="4.83391">
        <ele>269</ele>
        <time>2017-03-27T09:24:07Z</time>
      </trkpt>
      <trkpt lat="45.98473" lon="4.83395">
        <ele>269</ele>
        <time>2017-03-27T09:24:08Z</time>
      </trkpt>
      <trkpt lat="45.98467" lon="4.83403">
        <ele>269</ele>
        <time>2017-03-27T09:24:10Z</time>
      </trkpt>
      <trkpt lat="45.98463" lon="4.83406">
        <ele>269</ele>
        <time>2017-03-27T09:24:11Z</time>
      </trkpt>
      <trkpt lat="45.98457" lon="4.83414">
        <ele>269</ele>
        <time>2017-03-27T09:24:13Z</time>
      </trkpt>
      <trkpt lat="45.98455" lon="4.83419">
        <ele>269</ele>
        <time>2017-03-27T09:24:14Z</time>
      </trkpt>
      <trkpt lat="45.98449" lon="4.83427">
        <ele>269</ele>
        <time>2017-03-27T09:24:16Z</time>
      </trkpt>
      <trkpt lat="45.98446" lon="4.83431">
        <ele>269</ele>
        <time>2017-03-27T09:24:17Z</time>
      </trkpt>
      <trkpt lat="45.98441" lon="4.83439">
        <ele>268</ele>
        <time>2017-03-27T09:24:19Z</time>
      </trkpt>
      <trkpt lat="45.98438" lon="4.83444">
        <ele>268</ele>
        <time>2017-03-27T09:24:20Z</time>
      </trkpt>
      <trkpt lat="45.98432" lon="4.83452">
        <ele>268</ele>
        <time>2017-03-27T09:24:22Z</time>
      </trkpt>
      <trkpt lat="45.98429" lon="4.83456">
        <ele>268</ele>
        <time>2017-03-27T09:24:23Z</time>
      </trkpt>
      <trkpt lat="45.98422" lon="4.83463">
        <ele>268</ele>
        <time>2017-03-27T09:24:25Z</time>
      </trkpt>
      <trkpt lat="45.9842" lon="4.83467">
        <ele>268</ele>
        <time>2017-03-27T09:24:26Z</time>
      </trkpt>
      <trkpt lat="45.98414" lon="4.83475">
        <ele>269</ele>
        <time>2017-03-27T09:24:28Z</time>
      </trkpt>
      <trkpt lat="45.98411" lon="4.83479">
        <ele>269</ele>
        <time>2017-03-27T09:24:29Z</time>
      </trkpt>
      <trkpt lat="45.98405" lon="4.83486">
        <ele>269</ele>
        <time>2017-03-27T09:24:31Z</time>
      </trkpt>
      <trkpt lat="45.98402" lon="4.8349">
        <ele>269</ele>
        <time>2017-03-27T09:24:32Z</time>
      </trkpt>
      <trkpt lat="45.98397" lon="4.83498">
        <ele>269</ele>
        <time>2017-03-27T09:24:34Z</time>
      </trkpt>
      <trkpt lat="45.98394" lon="4.83501">
        <ele>269</ele>
        <time>2017-03-27T09:24:35Z</time>
      </trkpt>
      <trkpt lat="45.98388" lon="4.83508">
        <ele>269</ele>
        <time>2017-03-27T09:24:37Z</time>
      </trkpt>
      <trkpt lat="45.98386" lon="4.83512">
        <ele>269</ele>
        <time>2017-03-27T09:24:38Z</time>
      </trkpt>
      <trkpt lat="45.9838" lon="4.8352">
        <ele>269</ele>
        <time>2017-03-27T09:24:40Z</time>
      </trkpt>
      <trkpt lat="45.98378" lon="4.83524">
        <ele>269</ele>
        <time>2017-03-27T09:24:41Z</time>
      </trkpt>
      <trkpt lat="45.98371" lon="4.83532">
        <ele>269</ele>
        <time>2017-03-27T09:24:43Z</time>
      </trkpt>
      <trkpt lat="45.98369" lon="4.83536">
        <ele>269</ele>
        <time>2017-03-27T09:24:44Z</time>
      </trkpt>
      <trkpt lat="45.98363" lon="4.83544">
        <ele>269</ele>
        <time>2017-03-27T09:24:46Z</time>
      </trkpt>
      <trkpt lat="45.98361" lon="4.83548">
        <ele>269</ele>
        <time>2017-03-27T09:24:47Z</time>
      </trkpt>
      <trkpt lat="45.98355" lon="4.83556">
        <ele>269</ele>
        <time>2017-03-27T09:24:49Z</time>
      </trkpt>
      <trkpt lat="45.98353" lon="4.8356">
        <ele>269</ele>
        <time>2017-03-27T09:24:50Z</time>
      </trkpt>
      <trkpt lat="45.98347" lon="4.83568">
        <ele>269</ele>
        <time>2017-03-27T09:24:52Z</time>
      </trkpt>
      <trkpt lat="45.98344" lon="4.83572">
        <ele>270</ele>
        <time>2017-03-27T09:24:53Z</time>
      </trkpt>
      <trkpt lat="45.98339" lon="4.8358">
        <ele>270</ele>
        <time>2017-03-27T09:24:55Z</time>
      </trkpt>
      <trkpt lat="45.98337" lon="4.83584">
        <ele>270</ele>
        <time>2017-03-27T09:24:56Z</time>
      </trkpt>
      <trkpt lat="45.98331" lon="4.8359">
        <ele>270</ele>
        <time>2017-03-27T09:24:58Z</time>
      </trkpt>
      <trkpt lat="45.98328" lon="4.83594">
        <ele>270</ele>
        <time>2017-03-27T09:24:59Z</time>
      </trkpt>
      <trkpt lat="45.98323" lon="4.83602">
        <ele>271</ele>
        <time>2017-03-27T09:25:01Z</time>
      </trkpt>
      <trkpt lat="45.98321" lon="4.83606">
        <ele>271</ele>
        <time>2017-03-27T09:25:02Z</time>
      </trkpt>
      <trkpt lat="45.98316" lon="4.83615">
        <ele>271</ele>
        <time>2017-03-27T09:25:04Z</time>
      </trkpt>
      <trkpt lat="45.98313" lon="4.83619">
        <ele>271</ele>
        <time>2017-03-27T09:25:05Z</time>
      </trkpt>
      <trkpt lat="45.98308" lon="4.83627">
        <ele>271</ele>
        <time>2017-03-27T09:25:07Z</time>
      </trkpt>
      <trkpt lat="45.98305" lon="4.83631">
        <ele>271</ele>
        <time>2017-03-27T09:25:08Z</time>
      </trkpt>
      <trkpt lat="45.98301" lon="4.83641">
        <ele>271</ele>
        <time>2017-03-27T09:25:10Z</time>
      </trkpt>
      <trkpt lat="45.98298" lon="4.83646">
        <ele>271</ele>
        <time>2017-03-27T09:25:11Z</time>
      </trkpt>
      <trkpt lat="45.98294" lon="4.83656">
        <ele>271</ele>
        <time>2017-03-27T09:25:13Z</time>
      </trkpt>
      <trkpt lat="45.98292" lon="4.83661">
        <ele>272</ele>
        <time>2017-03-27T09:25:14Z</time>
      </trkpt>
      <trkpt lat="45.98288" lon="4.83671">
        <ele>272</ele>
        <time>2017-03-27T09:25:16Z</time>
      </trkpt>
      <trkpt lat="45.98286" lon="4.83677">
        <ele>272</ele>
        <time>2017-03-27T09:25:17Z</time>
      </trkpt>
      <trkpt lat="45.98282" lon="4.83686">
        <ele>272</ele>
        <time>2017-03-27T09:25:19Z</time>
      </trkpt>
      <trkpt lat="45.9828" lon="4.83691">
        <ele>272</ele>
        <time>2017-03-27T09:25:20Z</time>
      </trkpt>
      <trkpt lat="45.98276" lon="4.83701">
        <ele>272</ele>
        <time>2017-03-27T09:25:22Z</time>
      </trkpt>
      <trkpt lat="45.98275" lon="4.83706">
        <ele>272</ele>
        <time>2017-03-27T09:25:23Z</time>
      </trkpt>
      <trkpt lat="45.98271" lon="4.83716">
        <ele>272</ele>
        <time>2017-03-27T09:25:25Z</time>
      </trkpt>
      <trkpt lat="45.9827" lon="4.83721">
        <ele>272</ele>
        <time>2017-03-27T09:25:26Z</time>
      </trkpt>
      <trkpt lat="45.98266" lon="4.83733">
        <ele>272</ele>
        <time>2017-03-27T09:25:28Z</time>
      </trkpt>
      <trkpt lat="45.98265" lon="4.83739">
        <ele>272</ele>
        <time>2017-03-27T09:25:29Z</time>
      </trkpt>
      <trkpt lat="45.98263" lon="4.83745">
        <ele>272</ele>
        <time>2017-03-27T09:25:30Z</time>
      </trkpt>
      <trkpt lat="45.98261" lon="4.83751">
        <ele>272</ele>
        <time>2017-03-27T09:25:31Z</time>
      </trkpt>
      <trkpt lat="45.98257" lon="4.83762">
        <ele>272</ele>
        <time>2017-03-27T09:25:33Z</time>
      </trkpt>
      <trkpt lat="45.98255" lon="4.83767">
        <ele>272</ele>
        <time>2017-03-27T09:25:34Z</time>
      </trkpt>
      <trkpt lat="45.98251" lon="4.83778">
        <ele>272</ele>
        <time>2017-03-27T09:25:36Z</time>
      </trkpt>
      <trkpt lat="45.9825" lon="4.83783">
        <ele>272</ele>
        <time>2017-03-27T09:25:37Z</time>
      </trkpt>
      <trkpt lat="45.98245" lon="4.83794">
        <ele>272</ele>
        <time>2017-03-27T09:25:39Z</time>
      </trkpt>
      <trkpt lat="45.98244" lon="4.83799">
        <ele>272</ele>
        <time>2017-03-27T09:25:40Z</time>
      </trkpt>
      <trkpt lat="45.98241" lon="4.83809">
        <ele>272</ele>
        <time>2017-03-27T09:25:42Z</time>
      </trkpt>
      <trkpt lat="45.98239" lon="4.83814">
        <ele>272</ele>
        <time>2017-03-27T09:25:43Z</time>
      </trkpt>
      <trkpt lat="45.98237" lon="4.83824">
        <ele>272</ele>
        <time>2017-03-27T09:25:45Z</time>
      </trkpt>
      <trkpt lat="45.98235" lon="4.83829">
        <ele>272</ele>
        <time>2017-03-27T09:25:46Z</time>
      </trkpt>
      <trkpt lat="45.98231" lon="4.83839">
        <ele>272</ele>
        <time>2017-03-27T09:25:48Z</time>
      </trkpt>
      <trkpt lat="45.98229" lon="4.83844">
        <ele>272</ele>
        <time>2017-03-27T09:25:49Z</time>
      </trkpt>
      <trkpt lat="45.98225" lon="4.83853">
        <ele>272</ele>
        <time>2017-03-27T09:25:51Z</time>
      </trkpt>
      <trkpt lat="45.98223" lon="4.83859">
        <ele>272</ele>
        <time>2017-03-27T09:25:52Z</time>
      </trkpt>
      <trkpt lat="45.98219" lon="4.8387">
        <ele>272</ele>
        <time>2017-03-27T09:25:54Z</time>
      </trkpt>
      <trkpt lat="45.98217" lon="4.83875">
        <ele>272</ele>
        <time>2017-03-27T09:25:55Z</time>
      </trkpt>
      <trkpt lat="45.98214" lon="4.83885">
        <ele>273</ele>
        <time>2017-03-27T09:25:57Z</time>
      </trkpt>
      <trkpt lat="45.98212" lon="4.8389">
        <ele>273</ele>
        <time>2017-03-27T09:25:58Z</time>
      </trkpt>
      <trkpt lat="45.98208" lon="4.83901">
        <ele>273</ele>
        <time>2017-03-27T09:26:00Z</time>
      </trkpt>
      <trkpt lat="45.98206" lon="4.83906">
        <ele>273</ele>
        <time>2017-03-27T09:26:01Z</time>
      </trkpt>
      <trkpt lat="45.98202" lon="4.83916">
        <ele>273</ele>
        <time>2017-03-27T09:26:03Z</time>
      </trkpt>
      <trkpt lat="45.98201" lon="4.83921">
        <ele>273</ele>
        <time>2017-03-27T09:26:04Z</time>
      </trkpt>
      <trkpt lat="45.98196" lon="4.8393">
        <ele>273</ele>
        <time>2017-03-27T09:26:06Z</time>
      </trkpt>
      <trkpt lat="45.98194" lon="4.83935">
        <ele>273</ele>
        <time>2017-03-27T09:26:07Z</time>
      </trkpt>
      <trkpt lat="45.98191" lon="4.83944">
        <ele>273</ele>
        <time>2017-03-27T09:26:09Z</time>
      </trkpt>
      <trkpt lat="45.98189" lon="4.83949">
        <ele>273</ele>
        <time>2017-03-27T09:26:10Z</time>
      </trkpt>
      <trkpt lat="45.98186" lon="4.83959">
        <ele>273</ele>
        <time>2017-03-27T09:26:12Z</time>
      </trkpt>
      <trkpt lat="45.98184" lon="4.83964">
        <ele>273</ele>
        <time>2017-03-27T09:26:13Z</time>
      </trkpt>
      <trkpt lat="45.98181" lon="4.83973">
        <ele>273</ele>
        <time>2017-03-27T09:26:15Z</time>
      </trkpt>
      <trkpt lat="45.98179" lon="4.83978">
        <ele>273</ele>
        <time>2017-03-27T09:26:16Z</time>
      </trkpt>
      <trkpt lat="45.98176" lon="4.83988">
        <ele>273</ele>
        <time>2017-03-27T09:26:18Z</time>
      </trkpt>
      <trkpt lat="45.98174" lon="4.83993">
        <ele>273</ele>
        <time>2017-03-27T09:26:19Z</time>
      </trkpt>
      <trkpt lat="45.98171" lon="4.84003">
        <ele>273</ele>
        <time>2017-03-27T09:26:21Z</time>
      </trkpt>
      <trkpt lat="45.98169" lon="4.84008">
        <ele>273</ele>
        <time>2017-03-27T09:26:22Z</time>
      </trkpt>
      <trkpt lat="45.98164" lon="4.84018">
        <ele>273</ele>
        <time>2017-03-27T09:26:24Z</time>
      </trkpt>
      <trkpt lat="45.98162" lon="4.84023">
        <ele>273</ele>
        <time>2017-03-27T09:26:25Z</time>
      </trkpt>
      <trkpt lat="45.98156" lon="4.84032">
        <ele>273</ele>
        <time>2017-03-27T09:26:27Z</time>
      </trkpt>
      <trkpt lat="45.98154" lon="4.84037">
        <ele>273</ele>
        <time>2017-03-27T09:26:28Z</time>
      </trkpt>
      <trkpt lat="45.98148" lon="4.84045">
        <ele>273</ele>
        <time>2017-03-27T09:26:30Z</time>
      </trkpt>
      <trkpt lat="45.98145" lon="4.84049">
        <ele>273</ele>
        <time>2017-03-27T09:26:31Z</time>
      </trkpt>
      <trkpt lat="45.9814" lon="4.84057">
        <ele>273</ele>
        <time>2017-03-27T09:26:33Z</time>
      </trkpt>
      <trkpt lat="45.98137" lon="4.84061">
        <ele>273</ele>
        <time>2017-03-27T09:26:34Z</time>
      </trkpt>
      <trkpt lat="45.9813" lon="4.84068">
        <ele>273</ele>
        <time>2017-03-27T09:26:36Z</time>
      </trkpt>
      <trkpt lat="45.98127" lon="4.84071">
        <ele>273</ele>
        <time>2017-03-27T09:26:37Z</time>
      </trkpt>
      <trkpt lat="45.98122" lon="4.84078">
        <ele>273</ele>
        <time>2017-03-27T09:26:39Z</time>
      </trkpt>
      <trkpt lat="45.98119" lon="4.84081">
        <ele>273</ele>
        <time>2017-03-27T09:26:40Z</time>
      </trkpt>
      <trkpt lat="45.98112" lon="4.84089">
        <ele>273</ele>
        <time>2017-03-27T09:26:42Z</time>
      </trkpt>
      <trkpt lat="45.98109" lon="4.84092">
        <ele>273</ele>
        <time>2017-03-27T09:26:43Z</time>
      </trkpt>
      <trkpt lat="45.98102" lon="4.84099">
        <ele>273</ele>
        <time>2017-03-27T09:26:45Z</time>
      </trkpt>
      <trkpt lat="45.98098" lon="4.84103">
        <ele>273</ele>
        <time>2017-03-27T09:26:46Z</time>
      </trkpt>
      <trkpt lat="45.98093" lon="4.84107">
        <ele>273</ele>
        <time>2017-03-27T09:26:47Z</time>
      </trkpt>
      <trkpt lat="45.98089" lon="4.8411">
        <ele>273</ele>
        <time>2017-03-27T09:26:48Z</time>
      </trkpt>
      <trkpt lat="45.98081" lon="4.84116">
        <ele>273</ele>
        <time>2017-03-27T09:26:50Z</time>
      </trkpt>
      <trkpt lat="45.98078" lon="4.84119">
        <ele>273</ele>
        <time>2017-03-27T09:26:51Z</time>
      </trkpt>
      <trkpt lat="45.98071" lon="4.84127">
        <ele>273</ele>
        <time>2017-03-27T09:26:53Z</time>
      </trkpt>
      <trkpt lat="45.98068" lon="4.8413">
        <ele>273</ele>
        <time>2017-03-27T09:26:54Z</time>
      </trkpt>
      <trkpt lat="45.98061" lon="4.84136">
        <ele>273</ele>
        <time>2017-03-27T09:26:56Z</time>
      </trkpt>
      <trkpt lat="45.98057" lon="4.8414">
        <ele>273</ele>
        <time>2017-03-27T09:26:57Z</time>
      </trkpt>
      <trkpt lat="45.9805" lon="4.84146">
        <ele>273</ele>
        <time>2017-03-27T09:26:59Z</time>
      </trkpt>
      <trkpt lat="45.98047" lon="4.84149">
        <ele>273</ele>
        <time>2017-03-27T09:27:00Z</time>
      </trkpt>
      <trkpt lat="45.9804" lon="4.84155">
        <ele>273</ele>
        <time>2017-03-27T09:27:02Z</time>
      </trkpt>
      <trkpt lat="45.98036" lon="4.84158">
        <ele>273</ele>
        <time>2017-03-27T09:27:03Z</time>
      </trkpt>
      <trkpt lat="45.98029" lon="4.84165">
        <ele>273</ele>
        <time>2017-03-27T09:27:05Z</time>
      </trkpt>
      <trkpt lat="45.98026" lon="4.84168">
        <ele>274</ele>
        <time>2017-03-27T09:27:06Z</time>
      </trkpt>
      <trkpt lat="45.9802" lon="4.84174">
        <ele>274</ele>
        <time>2017-03-27T09:27:08Z</time>
      </trkpt>
      <trkpt lat="45.98017" lon="4.84178">
        <ele>274</ele>
        <time>2017-03-27T09:27:09Z</time>
      </trkpt>
      <trkpt lat="45.9801" lon="4.84184">
        <ele>274</ele>
        <time>2017-03-27T09:27:11Z</time>
      </trkpt>
      <trkpt lat="45.98006" lon="4.84187">
        <ele>274</ele>
        <time>2017-03-27T09:27:12Z</time>
      </trkpt>
      <trkpt lat="45.98" lon="4.84194">
        <ele>274</ele>
        <time>2017-03-27T09:27:14Z</time>
      </trkpt>
      <trkpt lat="45.97996" lon="4.84197">
        <ele>274</ele>
        <time>2017-03-27T09:27:15Z</time>
      </trkpt>
      <trkpt lat="45.9799" lon="4.84204">
        <ele>274</ele>
        <time>2017-03-27T09:27:17Z</time>
      </trkpt>
      <trkpt lat="45.97987" lon="4.84208">
        <ele>274</ele>
        <time>2017-03-27T09:27:18Z</time>
      </trkpt>
      <trkpt lat="45.9798" lon="4.84215">
        <ele>274</ele>
        <time>2017-03-27T09:27:20Z</time>
      </trkpt>
      <trkpt lat="45.97976" lon="4.84219">
        <ele>274</ele>
        <time>2017-03-27T09:27:21Z</time>
      </trkpt>
      <trkpt lat="45.9797" lon="4.84226">
        <ele>274</ele>
        <time>2017-03-27T09:27:23Z</time>
      </trkpt>
      <trkpt lat="45.97966" lon="4.84229">
        <ele>274</ele>
        <time>2017-03-27T09:27:24Z</time>
      </trkpt>
      <trkpt lat="45.97959" lon="4.84237">
        <ele>274</ele>
        <time>2017-03-27T09:27:26Z</time>
      </trkpt>
      <trkpt lat="45.97955" lon="4.8424">
        <ele>275</ele>
        <time>2017-03-27T09:27:27Z</time>
      </trkpt>
      <trkpt lat="45.97949" lon="4.84247">
        <ele>275</ele>
        <time>2017-03-27T09:27:29Z</time>
      </trkpt>
      <trkpt lat="45.97945" lon="4.8425">
        <ele>275</ele>
        <time>2017-03-27T09:27:30Z</time>
      </trkpt>
      <trkpt lat="45.97938" lon="4.84257">
        <ele>275</ele>
        <time>2017-03-27T09:27:32Z</time>
      </trkpt>
      <trkpt lat="45.97935" lon="4.84262">
        <ele>275</ele>
        <time>2017-03-27T09:27:33Z</time>
      </trkpt>
      <trkpt lat="45.97929" lon="4.8427">
        <ele>275</ele>
        <time>2017-03-27T09:27:35Z</time>
      </trkpt>
      <trkpt lat="45.97927" lon="4.84275">
        <ele>275</ele>
        <time>2017-03-27T09:27:36Z</time>
      </trkpt>
      <trkpt lat="45.97924" lon="4.84285">
        <ele>275</ele>
        <time>2017-03-27T09:27:38Z</time>
      </trkpt>
      <trkpt lat="45.97923" lon="4.84291">
        <ele>275</ele>
        <time>2017-03-27T09:27:39Z</time>
      </trkpt>
      <trkpt lat="45.97924" lon="4.84302">
        <ele>275</ele>
        <time>2017-03-27T09:27:41Z</time>
      </trkpt>
      <trkpt lat="45.97925" lon="4.84308">
        <ele>275</ele>
        <time>2017-03-27T09:27:42Z</time>
      </trkpt>
      <trkpt lat="45.97926" lon="4.8432">
        <ele>275</ele>
        <time>2017-03-27T09:27:44Z</time>
      </trkpt>
      <trkpt lat="45.97927" lon="4.84326">
        <ele>275</ele>
        <time>2017-03-27T09:27:45Z</time>
      </trkpt>
      <trkpt lat="45.97929" lon="4.84338">
        <ele>275</ele>
        <time>2017-03-27T09:27:47Z</time>
      </trkpt>
      <trkpt lat="45.9793" lon="4.84344">
        <ele>275</ele>
        <time>2017-03-27T09:27:48Z</time>
      </trkpt>
      <trkpt lat="45.97933" lon="4.84355">
        <ele>275</ele>
        <time>2017-03-27T09:27:50Z</time>
      </trkpt>
      <trkpt lat="45.97934" lon="4.84361">
        <ele>275</ele>
        <time>2017-03-27T09:27:51Z</time>
      </trkpt>
      <trkpt lat="45.97936" lon="4.84373">
        <ele>275</ele>
        <time>2017-03-27T09:27:53Z</time>
      </trkpt>
      <trkpt lat="45.97937" lon="4.84379">
        <ele>275</ele>
        <time>2017-03-27T09:27:54Z</time>
      </trkpt>
      <trkpt lat="45.97939" lon="4.8439">
        <ele>275</ele>
        <time>2017-03-27T09:27:56Z</time>
      </trkpt>
      <trkpt lat="45.9794" lon="4.84395">
        <ele>275</ele>
        <time>2017-03-27T09:27:57Z</time>
      </trkpt>
      <trkpt lat="45.97941" lon="4.84401">
        <ele>275</ele>
        <time>2017-03-27T09:27:58Z</time>
      </trkpt>
      <trkpt lat="45.97942" lon="4.84408">
        <ele>275</ele>
        <time>2017-03-27T09:27:59Z</time>
      </trkpt>
      <trkpt lat="45.97944" lon="4.84414">
        <ele>275</ele>
        <time>2017-03-27T09:28:00Z</time>
      </trkpt>
      <trkpt lat="45.97945" lon="4.84421">
        <ele>275</ele>
        <time>2017-03-27T09:28:01Z</time>
      </trkpt>
      <trkpt lat="45.97946" lon="4.84428">
        <ele>275</ele>
        <time>2017-03-27T09:28:02Z</time>
      </trkpt>
      <trkpt lat="45.97946" lon="4.84435">
        <ele>275</ele>
        <time>2017-03-27T09:28:03Z</time>
      </trkpt>
      <trkpt lat="45.97947" lon="4.84441">
        <ele>275</ele>
        <time>2017-03-27T09:28:04Z</time>
      </trkpt>
      <trkpt lat="45.97949" lon="4.84448">
        <ele>275</ele>
        <time>2017-03-27T09:28:05Z</time>
      </trkpt>
      <trkpt lat="45.9795" lon="4.8446">
        <ele>275</ele>
        <time>2017-03-27T09:28:07Z</time>
      </trkpt>
      <trkpt lat="45.97951" lon="4.84466">
        <ele>275</ele>
        <time>2017-03-27T09:28:08Z</time>
      </trkpt>
      <trkpt lat="45.97953" lon="4.84478">
        <ele>275</ele>
        <time>2017-03-27T09:28:10Z</time>
      </trkpt>
      <trkpt lat="45.97954" lon="4.84484">
        <ele>275</ele>
        <time>2017-03-27T09:28:11Z</time>
      </trkpt>
      <trkpt lat="45.97956" lon="4.84496">
        <ele>275</ele>
        <time>2017-03-27T09:28:13Z</time>
      </trkpt>
      <trkpt lat="45.97957" lon="4.84503">
        <ele>275</ele>
        <time>2017-03-27T09:28:14Z</time>
      </trkpt>
      <trkpt lat="45.97958" lon="4.84509">
        <ele>275</ele>
        <time>2017-03-27T09:28:15Z</time>
      </trkpt>
      <trkpt lat="45.97959" lon="4.84516">
        <ele>275</ele>
        <time>2017-03-27T09:28:16Z</time>
      </trkpt>
      <trkpt lat="45.9796" lon="4.84522">
        <ele>275</ele>
        <time>2017-03-27T09:28:17Z</time>
      </trkpt>
      <trkpt lat="45.97961" lon="4.84529">
        <ele>275</ele>
        <time>2017-03-27T09:28:18Z</time>
      </trkpt>
      <trkpt lat="45.97961" lon="4.84536">
        <ele>275</ele>
        <time>2017-03-27T09:28:19Z</time>
      </trkpt>
      <trkpt lat="45.97962" lon="4.84542">
        <ele>275</ele>
        <time>2017-03-27T09:28:20Z</time>
      </trkpt>
      <trkpt lat="45.97964" lon="4.84554">
        <ele>275</ele>
        <time>2017-03-27T09:28:22Z</time>
      </trkpt>
      <trkpt lat="45.97965" lon="4.8456">
        <ele>275</ele>
        <time>2017-03-27T09:28:23Z</time>
      </trkpt>
      <trkpt lat="45.97966" lon="4.84572">
        <ele>275</ele>
        <time>2017-03-27T09:28:25Z</time>
      </trkpt>
      <trkpt lat="45.97967" lon="4.84578">
        <ele>275</ele>
        <time>2017-03-27T09:28:26Z</time>
      </trkpt>
      <trkpt lat="45.97968" lon="4.84585">
        <ele>275</ele>
        <time>2017-03-27T09:28:27Z</time>
      </trkpt>
      <trkpt lat="45.9797" lon="4.84592">
        <ele>275</ele>
        <time>2017-03-27T09:28:28Z</time>
      </trkpt>
      <trkpt lat="45.9797" lon="4.846">
        <ele>275</ele>
        <time>2017-03-27T09:28:29Z</time>
      </trkpt>
      <trkpt lat="45.97971" lon="4.84607">
        <ele>275</ele>
        <time>2017-03-27T09:28:30Z</time>
      </trkpt>
      <trkpt lat="45.97973" lon="4.84614">
        <ele>275</ele>
        <time>2017-03-27T09:28:31Z</time>
      </trkpt>
      <trkpt lat="45.97973" lon="4.84621">
        <ele>275</ele>
        <time>2017-03-27T09:28:32Z</time>
      </trkpt>
      <trkpt lat="45.97974" lon="4.84628">
        <ele>275</ele>
        <time>2017-03-27T09:28:33Z</time>
      </trkpt>
      <trkpt lat="45.97975" lon="4.84634">
        <ele>275</ele>
        <time>2017-03-27T09:28:34Z</time>
      </trkpt>
      <trkpt lat="45.97977" lon="4.84647">
        <ele>275</ele>
        <time>2017-03-27T09:28:36Z</time>
      </trkpt>
      <trkpt lat="45.97978" lon="4.84653">
        <ele>275</ele>
        <time>2017-03-27T09:28:37Z</time>
      </trkpt>
      <trkpt lat="45.9798" lon="4.84665">
        <ele>274</ele>
        <time>2017-03-27T09:28:39Z</time>
      </trkpt>
      <trkpt lat="45.9798" lon="4.84672">
        <ele>275</ele>
        <time>2017-03-27T09:28:40Z</time>
      </trkpt>
      <trkpt lat="45.97981" lon="4.84679">
        <ele>275</ele>
        <time>2017-03-27T09:28:41Z</time>
      </trkpt>
      <trkpt lat="45.97982" lon="4.84685">
        <ele>275</ele>
        <time>2017-03-27T09:28:42Z</time>
      </trkpt>
      <trkpt lat="45.97982" lon="4.84691">
        <ele>275</ele>
        <time>2017-03-27T09:28:43Z</time>
      </trkpt>
      <trkpt lat="45.97983" lon="4.84698">
        <ele>275</ele>
        <time>2017-03-27T09:28:44Z</time>
      </trkpt>
      <trkpt lat="45.97983" lon="4.84704">
        <ele>275</ele>
        <time>2017-03-27T09:28:45Z</time>
      </trkpt>
      <trkpt lat="45.97984" lon="4.84711">
        <ele>275</ele>
        <time>2017-03-27T09:28:46Z</time>
      </trkpt>
      <trkpt lat="45.97985" lon="4.84717">
        <ele>275</ele>
        <time>2017-03-27T09:28:47Z</time>
      </trkpt>
      <trkpt lat="45.97986" lon="4.84723">
        <ele>275</ele>
        <time>2017-03-27T09:28:48Z</time>
      </trkpt>
      <trkpt lat="45.97988" lon="4.84734">
        <ele>275</ele>
        <time>2017-03-27T09:28:50Z</time>
      </trkpt>
      <trkpt lat="45.97987" lon="4.8474">
        <ele>275</ele>
        <time>2017-03-27T09:28:51Z</time>
      </trkpt>
      <trkpt lat="45.97988" lon="4.84747">
        <ele>275</ele>
        <time>2017-03-27T09:28:52Z</time>
      </trkpt>
      <trkpt lat="45.97989" lon="4.84754">
        <ele>275</ele>
        <time>2017-03-27T09:28:53Z</time>
      </trkpt>
      <trkpt lat="45.9799" lon="4.84761">
        <ele>275</ele>
        <time>2017-03-27T09:28:54Z</time>
      </trkpt>
      <trkpt lat="45.9799" lon="4.84768">
        <ele>275</ele>
        <time>2017-03-27T09:28:55Z</time>
      </trkpt>
      <trkpt lat="45.9799" lon="4.84776">
        <ele>274</ele>
        <time>2017-03-27T09:28:56Z</time>
      </trkpt>
      <trkpt lat="45.97991" lon="4.84783">
        <ele>274</ele>
        <time>2017-03-27T09:28:57Z</time>
      </trkpt>
      <trkpt lat="45.97991" lon="4.8479">
        <ele>274</ele>
        <time>2017-03-27T09:28:58Z</time>
      </trkpt>
      <trkpt lat="45.97992" lon="4.84797">
        <ele>274</ele>
        <time>2017-03-27T09:28:59Z</time>
      </trkpt>
      <trkpt lat="45.97992" lon="4.84808">
        <ele>274</ele>
        <time>2017-03-27T09:29:01Z</time>
      </trkpt>
      <trkpt lat="45.97992" lon="4.84813">
        <ele>273</ele>
        <time>2017-03-27T09:29:02Z</time>
      </trkpt>
      <trkpt lat="45.97992" lon="4.84823">
        <ele>273</ele>
        <time>2017-03-27T09:29:04Z</time>
      </trkpt>
      <trkpt lat="45.97993" lon="4.84829">
        <ele>273</ele>
        <time>2017-03-27T09:29:05Z</time>
      </trkpt>
      <trkpt lat="45.97995" lon="4.8484">
        <ele>272</ele>
        <time>2017-03-27T09:29:07Z</time>
      </trkpt>
      <trkpt lat="45.97995" lon="4.84846">
        <ele>272</ele>
        <time>2017-03-27T09:29:08Z</time>
      </trkpt>
      <trkpt lat="45.97998" lon="4.84857">
        <ele>272</ele>
        <time>2017-03-27T09:29:10Z</time>
      </trkpt>
      <trkpt lat="45.97999" lon="4.84863">
        <ele>272</ele>
        <time>2017-03-27T09:29:11Z</time>
      </trkpt>
      <trkpt lat="45.98002" lon="4.84875">
        <ele>272</ele>
        <time>2017-03-27T09:29:13Z</time>
      </trkpt>
      <trkpt lat="45.98003" lon="4.8488">
        <ele>272</ele>
        <time>2017-03-27T09:29:14Z</time>
      </trkpt>
      <trkpt lat="45.98003" lon="4.84887">
        <ele>272</ele>
        <time>2017-03-27T09:29:15Z</time>
      </trkpt>
      <trkpt lat="45.98003" lon="4.84893">
        <ele>272</ele>
        <time>2017-03-27T09:29:16Z</time>
      </trkpt>
      <trkpt lat="45.98004" lon="4.849">
        <ele>272</ele>
        <time>2017-03-27T09:29:17Z</time>
      </trkpt>
      <trkpt lat="45.98005" lon="4.84906">
        <ele>272</ele>
        <time>2017-03-27T09:29:18Z</time>
      </trkpt>
      <trkpt lat="45.98005" lon="4.84914">
        <ele>272</ele>
        <time>2017-03-27T09:29:19Z</time>
      </trkpt>
      <trkpt lat="45.98005" lon="4.84921">
        <ele>272</ele>
        <time>2017-03-27T09:29:20Z</time>
      </trkpt>
      <trkpt lat="45.98005" lon="4.84931">
        <ele>272</ele>
        <time>2017-03-27T09:29:21Z</time>
      </trkpt>
      <trkpt lat="45.98005" lon="4.84938">
        <ele>272</ele>
        <time>2017-03-27T09:29:22Z</time>
      </trkpt>
      <trkpt lat="45.98006" lon="4.84946">
        <ele>272</ele>
        <time>2017-03-27T09:29:23Z</time>
      </trkpt>
      <trkpt lat="45.98006" lon="4.84953">
        <ele>272</ele>
        <time>2017-03-27T09:29:24Z</time>
      </trkpt>
      <trkpt lat="45.98007" lon="4.8496">
        <ele>272</ele>
        <time>2017-03-27T09:29:25Z</time>
      </trkpt>
      <trkpt lat="45.98007" lon="4.84967">
        <ele>272</ele>
        <time>2017-03-27T09:29:26Z</time>
      </trkpt>
      <trkpt lat="45.98008" lon="4.84973">
        <ele>272</ele>
        <time>2017-03-27T09:29:27Z</time>
      </trkpt>
      <trkpt lat="45.98009" lon="4.8498">
        <ele>272</ele>
        <time>2017-03-27T09:29:28Z</time>
      </trkpt>
      <trkpt lat="45.98009" lon="4.84987">
        <ele>272</ele>
        <time>2017-03-27T09:29:29Z</time>
      </trkpt>
      <trkpt lat="45.9801" lon="4.84993">
        <ele>272</ele>
        <time>2017-03-27T09:29:30Z</time>
      </trkpt>
      <trkpt lat="45.98011" lon="4.85006">
        <ele>272</ele>
        <time>2017-03-27T09:29:32Z</time>
      </trkpt>
      <trkpt lat="45.98012" lon="4.85012">
        <ele>272</ele>
        <time>2017-03-27T09:29:33Z</time>
      </trkpt>
      <trkpt lat="45.98012" lon="4.85024">
        <ele>273</ele>
        <time>2017-03-27T09:29:35Z</time>
      </trkpt>
      <trkpt lat="45.98012" lon="4.8503">
        <ele>273</ele>
        <time>2017-03-27T09:29:36Z</time>
      </trkpt>
      <trkpt lat="45.98012" lon="4.85036">
        <ele>273</ele>
        <time>2017-03-27T09:29:37Z</time>
      </trkpt>
      <trkpt lat="45.98013" lon="4.85043">
        <ele>273</ele>
        <time>2017-03-27T09:29:38Z</time>
      </trkpt>
      <trkpt lat="45.98014" lon="4.8505">
        <ele>273</ele>
        <time>2017-03-27T09:29:39Z</time>
      </trkpt>
      <trkpt lat="45.98014" lon="4.85057">
        <ele>273</ele>
        <time>2017-03-27T09:29:40Z</time>
      </trkpt>
      <trkpt lat="45.98014" lon="4.85063">
        <ele>273</ele>
        <time>2017-03-27T09:29:41Z</time>
      </trkpt>
      <trkpt lat="45.98014" lon="4.8507">
        <ele>273</ele>
        <time>2017-03-27T09:29:42Z</time>
      </trkpt>
      <trkpt lat="45.98015" lon="4.85077">
        <ele>273</ele>
        <time>2017-03-27T09:29:43Z</time>
      </trkpt>
      <trkpt lat="45.98015" lon="4.85084">
        <ele>274</ele>
        <time>2017-03-27T09:29:44Z</time>
      </trkpt>
      <trkpt lat="45.98016" lon="4.8509">
        <ele>274</ele>
        <time>2017-03-27T09:29:45Z</time>
      </trkpt>
      <trkpt lat="45.98016" lon="4.85097">
        <ele>274</ele>
        <time>2017-03-27T09:29:46Z</time>
      </trkpt>
      <trkpt lat="45.98019" lon="4.85108">
        <ele>274</ele>
        <time>2017-03-27T09:29:48Z</time>
      </trkpt>
      <trkpt lat="45.9802" lon="4.85114">
        <ele>274</ele>
        <time>2017-03-27T09:29:49Z</time>
      </trkpt>
      <trkpt lat="45.98023" lon="4.85125">
        <ele>274</ele>
        <time>2017-03-27T09:29:51Z</time>
      </trkpt>
      <trkpt lat="45.98025" lon="4.85131">
        <ele>274</ele>
        <time>2017-03-27T09:29:52Z</time>
      </trkpt>
      <trkpt lat="45.98027" lon="4.85137">
        <ele>275</ele>
        <time>2017-03-27T09:29:53Z</time>
      </trkpt>
      <trkpt lat="45.98029" lon="4.85145">
        <ele>275</ele>
        <time>2017-03-27T09:29:54Z</time>
      </trkpt>
      <trkpt lat="45.98031" lon="4.85151">
        <ele>275</ele>
        <time>2017-03-27T09:29:55Z</time>
      </trkpt>
      <trkpt lat="45.98033" lon="4.85158">
        <ele>275</ele>
        <time>2017-03-27T09:29:56Z</time>
      </trkpt>
      <trkpt lat="45.98035" lon="4.85164">
        <ele>275</ele>
        <time>2017-03-27T09:29:57Z</time>
      </trkpt>
      <trkpt lat="45.98037" lon="4.85171">
        <ele>275</ele>
        <time>2017-03-27T09:29:58Z</time>
      </trkpt>
      <trkpt lat="45.9804" lon="4.85177">
        <ele>276</ele>
        <time>2017-03-27T09:29:59Z</time>
      </trkpt>
      <trkpt lat="45.98042" lon="4.85182">
        <ele>276</ele>
        <time>2017-03-27T09:30:00Z</time>
      </trkpt>
      <trkpt lat="45.98046" lon="4.85193">
        <ele>276</ele>
        <time>2017-03-27T09:30:02Z</time>
      </trkpt>
      <trkpt lat="45.98047" lon="4.85199">
        <ele>276</ele>
        <time>2017-03-27T09:30:03Z</time>
      </trkpt>
      <trkpt lat="45.98049" lon="4.85209">
        <ele>276</ele>
        <time>2017-03-27T09:30:05Z</time>
      </trkpt>
      <trkpt lat="45.9805" lon="4.85214">
        <ele>276</ele>
        <time>2017-03-27T09:30:06Z</time>
      </trkpt>
      <trkpt lat="45.98053" lon="4.85226">
        <ele>276</ele>
        <time>2017-03-27T09:30:08Z</time>
      </trkpt>
      <trkpt lat="45.98056" lon="4.85232">
        <ele>276</ele>
        <time>2017-03-27T09:30:09Z</time>
      </trkpt>
      <trkpt lat="45.98059" lon="4.85237">
        <ele>276</ele>
        <time>2017-03-27T09:30:10Z</time>
      </trkpt>
      <trkpt lat="45.98062" lon="4.85243">
        <ele>276</ele>
        <time>2017-03-27T09:30:11Z</time>
      </trkpt>
      <trkpt lat="45.98065" lon="4.85248">
        <ele>276</ele>
        <time>2017-03-27T09:30:12Z</time>
      </trkpt>
      <trkpt lat="45.98068" lon="4.85253">
        <ele>276</ele>
        <time>2017-03-27T09:30:13Z</time>
      </trkpt>
      <trkpt lat="45.98072" lon="4.85259">
        <ele>276</ele>
        <time>2017-03-27T09:30:14Z</time>
      </trkpt>
      <trkpt lat="45.98075" lon="4.85264">
        <ele>276</ele>
        <time>2017-03-27T09:30:15Z</time>
      </trkpt>
      <trkpt lat="45.98077" lon="4.8527">
        <ele>276</ele>
        <time>2017-03-27T09:30:16Z</time>
      </trkpt>
      <trkpt lat="45.9808" lon="4.85275">
        <ele>276</ele>
        <time>2017-03-27T09:30:17Z</time>
      </trkpt>
      <trkpt lat="45.98086" lon="4.85285">
        <ele>276</ele>
        <time>2017-03-27T09:30:19Z</time>
      </trkpt>
      <trkpt lat="45.98088" lon="4.8529">
        <ele>276</ele>
        <time>2017-03-27T09:30:20Z</time>
      </trkpt>
      <trkpt lat="45.98092" lon="4.853">
        <ele>276</ele>
        <time>2017-03-27T09:30:22Z</time>
      </trkpt>
      <trkpt lat="45.98095" lon="4.85305">
        <ele>276</ele>
        <time>2017-03-27T09:30:23Z</time>
      </trkpt>
      <trkpt lat="45.98099" lon="4.85315">
        <ele>276</ele>
        <time>2017-03-27T09:30:25Z</time>
      </trkpt>
      <trkpt lat="45.98102" lon="4.8532">
        <ele>276</ele>
        <time>2017-03-27T09:30:26Z</time>
      </trkpt>
      <trkpt lat="45.98105" lon="4.85325">
        <ele>276</ele>
        <time>2017-03-27T09:30:27Z</time>
      </trkpt>
      <trkpt lat="45.98108" lon="4.85331">
        <ele>276</ele>
        <time>2017-03-27T09:30:28Z</time>
      </trkpt>
      <trkpt lat="45.98111" lon="4.85337">
        <ele>276</ele>
        <time>2017-03-27T09:30:29Z</time>
      </trkpt>
      <trkpt lat="45.98114" lon="4.85344">
        <ele>276</ele>
        <time>2017-03-27T09:30:30Z</time>
      </trkpt>
      <trkpt lat="45.98116" lon="4.85351">
        <ele>276</ele>
        <time>2017-03-27T09:30:31Z</time>
      </trkpt>
      <trkpt lat="45.98119" lon="4.85357">
        <ele>276</ele>
        <time>2017-03-27T09:30:32Z</time>
      </trkpt>
      <trkpt lat="45.98121" lon="4.85364">
        <ele>276</ele>
        <time>2017-03-27T09:30:33Z</time>
      </trkpt>
      <trkpt lat="45.98123" lon="4.8537">
        <ele>276</ele>
        <time>2017-03-27T09:30:34Z</time>
      </trkpt>
      <trkpt lat="45.98126" lon="4.85377">
        <ele>276</ele>
        <time>2017-03-27T09:30:35Z</time>
      </trkpt>
      <trkpt lat="45.98128" lon="4.85384">
        <ele>276</ele>
        <time>2017-03-27T09:30:36Z</time>
      </trkpt>
      <trkpt lat="45.98131" lon="4.85391">
        <ele>276</ele>
        <time>2017-03-27T09:30:37Z</time>
      </trkpt>
      <trkpt lat="45.98133" lon="4.85397">
        <ele>276</ele>
        <time>2017-03-27T09:30:38Z</time>
      </trkpt>
      <trkpt lat="45.98136" lon="4.85403">
        <ele>276</ele>
        <time>2017-03-27T09:30:39Z</time>
      </trkpt>
      <trkpt lat="45.98138" lon="4.85409">
        <ele>276</ele>
        <time>2017-03-27T09:30:40Z</time>
      </trkpt>
      <trkpt lat="45.9814" lon="4.85415">
        <ele>276</ele>
        <time>2017-03-27T09:30:41Z</time>
      </trkpt>
      <trkpt lat="45.98142" lon="4.85421">
        <ele>276</ele>
        <time>2017-03-27T09:30:42Z</time>
      </trkpt>
      <trkpt lat="45.98144" lon="4.85428">
        <ele>276</ele>
        <time>2017-03-27T09:30:43Z</time>
      </trkpt>
      <trkpt lat="45.98147" lon="4.85434">
        <ele>276</ele>
        <time>2017-03-27T09:30:44Z</time>
      </trkpt>
      <trkpt lat="45.9815" lon="4.8544">
        <ele>276</ele>
        <time>2017-03-27T09:30:45Z</time>
      </trkpt>
      <trkpt lat="45.98153" lon="4.85447">
        <ele>276</ele>
        <time>2017-03-27T09:30:46Z</time>
      </trkpt>
      <trkpt lat="45.98155" lon="4.85453">
        <ele>276</ele>
        <time>2017-03-27T09:30:47Z</time>
      </trkpt>
      <trkpt lat="45.98158" lon="4.85459">
        <ele>275</ele>
        <time>2017-03-27T09:30:48Z</time>
      </trkpt>
      <trkpt lat="45.98161" lon="4.85465">
        <ele>275</ele>
        <time>2017-03-27T09:30:49Z</time>
      </trkpt>
      <trkpt lat="45.98163" lon="4.8547">
        <ele>275</ele>
        <time>2017-03-27T09:30:50Z</time>
      </trkpt>
      <trkpt lat="45.98167" lon="4.8548">
        <ele>275</ele>
        <time>2017-03-27T09:30:52Z</time>
      </trkpt>
      <trkpt lat="45.98169" lon="4.85484">
        <ele>275</ele>
        <time>2017-03-27T09:30:53Z</time>
      </trkpt>
      <trkpt lat="45.98173" lon="4.85495">
        <ele>275</ele>
        <time>2017-03-27T09:30:55Z</time>
      </trkpt>
      <trkpt lat="45.98175" lon="4.855">
        <ele>275</ele>
        <time>2017-03-27T09:30:56Z</time>
      </trkpt>
      <trkpt lat="45.98179" lon="4.8551">
        <ele>275</ele>
        <time>2017-03-27T09:30:58Z</time>
      </trkpt>
      <trkpt lat="45.98182" lon="4.85515">
        <ele>275</ele>
        <time>2017-03-27T09:30:59Z</time>
      </trkpt>
      <trkpt lat="45.98186" lon="4.85525">
        <ele>276</ele>
        <time>2017-03-27T09:31:01Z</time>
      </trkpt>
      <trkpt lat="45.98187" lon="4.85531">
        <ele>276</ele>
        <time>2017-03-27T09:31:02Z</time>
      </trkpt>
      <trkpt lat="45.98191" lon="4.85541">
        <ele>276</ele>
        <time>2017-03-27T09:31:04Z</time>
      </trkpt>
      <trkpt lat="45.98194" lon="4.85547">
        <ele>276</ele>
        <time>2017-03-27T09:31:05Z</time>
      </trkpt>
      <trkpt lat="45.98198" lon="4.85558">
        <ele>276</ele>
        <time>2017-03-27T09:31:07Z</time>
      </trkpt>
      <trkpt lat="45.982" lon="4.85563">
        <ele>276</ele>
        <time>2017-03-27T09:31:08Z</time>
      </trkpt>
      <trkpt lat="45.98204" lon="4.85573">
        <ele>276</ele>
        <time>2017-03-27T09:31:10Z</time>
      </trkpt>
      <trkpt lat="45.98206" lon="4.85577">
        <ele>276</ele>
        <time>2017-03-27T09:31:11Z</time>
      </trkpt>
      <trkpt lat="45.98209" lon="4.85586">
        <ele>277</ele>
        <time>2017-03-27T09:31:13Z</time>
      </trkpt>
      <trkpt lat="45.98212" lon="4.85591">
        <ele>277</ele>
        <time>2017-03-27T09:31:14Z</time>
      </trkpt>
      <trkpt lat="45.98215" lon="4.856">
        <ele>277</ele>
        <time>2017-03-27T09:31:16Z</time>
      </trkpt>
      <trkpt lat="45.98217" lon="4.85605">
        <ele>277</ele>
        <time>2017-03-27T09:31:17Z</time>
      </trkpt>
      <trkpt lat="45.98221" lon="4.85615">
        <ele>277</ele>
        <time>2017-03-27T09:31:19Z</time>
      </trkpt>
      <trkpt lat="45.98223" lon="4.8562">
        <ele>277</ele>
        <time>2017-03-27T09:31:20Z</time>
      </trkpt>
      <trkpt lat="45.98224" lon="4.85626">
        <ele>277</ele>
        <time>2017-03-27T09:31:21Z</time>
      </trkpt>
      <trkpt lat="45.98227" lon="4.85632">
        <ele>277</ele>
        <time>2017-03-27T09:31:22Z</time>
      </trkpt>
      <trkpt lat="45.98229" lon="4.85638">
        <ele>277</ele>
        <time>2017-03-27T09:31:23Z</time>
      </trkpt>
      <trkpt lat="45.98233" lon="4.85645">
        <ele>277</ele>
        <time>2017-03-27T09:31:24Z</time>
      </trkpt>
      <trkpt lat="45.98236" lon="4.85651">
        <ele>276</ele>
        <time>2017-03-27T09:31:25Z</time>
      </trkpt>
      <trkpt lat="45.98238" lon="4.85657">
        <ele>276</ele>
        <time>2017-03-27T09:31:26Z</time>
      </trkpt>
      <trkpt lat="45.98241" lon="4.85664">
        <ele>276</ele>
        <time>2017-03-27T09:31:27Z</time>
      </trkpt>
      <trkpt lat="45.98244" lon="4.85672">
        <ele>276</ele>
        <time>2017-03-27T09:31:28Z</time>
      </trkpt>
      <trkpt lat="45.98247" lon="4.8568">
        <ele>276</ele>
        <time>2017-03-27T09:31:29Z</time>
      </trkpt>
      <trkpt lat="45.98249" lon="4.85687">
        <ele>276</ele>
        <time>2017-03-27T09:31:30Z</time>
      </trkpt>
      <trkpt lat="45.98252" lon="4.85693">
        <ele>275</ele>
        <time>2017-03-27T09:31:31Z</time>
      </trkpt>
      <trkpt lat="45.98256" lon="4.857">
        <ele>275</ele>
        <time>2017-03-27T09:31:32Z</time>
      </trkpt>
      <trkpt lat="45.98259" lon="4.85707">
        <ele>275</ele>
        <time>2017-03-27T09:31:33Z</time>
      </trkpt>
      <trkpt lat="45.98261" lon="4.85714">
        <ele>275</ele>
        <time>2017-03-27T09:31:34Z</time>
      </trkpt>
      <trkpt lat="45.98264" lon="4.8572">
        <ele>275</ele>
        <time>2017-03-27T09:31:35Z</time>
      </trkpt>
      <trkpt lat="45.98266" lon="4.85726">
        <ele>275</ele>
        <time>2017-03-27T09:31:36Z</time>
      </trkpt>
      <trkpt lat="45.98269" lon="4.85733">
        <ele>275</ele>
        <time>2017-03-27T09:31:37Z</time>
      </trkpt>
      <trkpt lat="45.98271" lon="4.85739">
        <ele>275</ele>
        <time>2017-03-27T09:31:38Z</time>
      </trkpt>
      <trkpt lat="45.98273" lon="4.85745">
        <ele>274</ele>
        <time>2017-03-27T09:31:39Z</time>
      </trkpt>
      <trkpt lat="45.98276" lon="4.85751">
        <ele>275</ele>
        <time>2017-03-27T09:31:40Z</time>
      </trkpt>
      <trkpt lat="45.98278" lon="4.85757">
        <ele>275</ele>
        <time>2017-03-27T09:31:41Z</time>
      </trkpt>
      <trkpt lat="45.9828" lon="4.85763">
        <ele>275</ele>
        <time>2017-03-27T09:31:42Z</time>
      </trkpt>
      <trkpt lat="45.98283" lon="4.8577">
        <ele>275</ele>
        <time>2017-03-27T09:31:43Z</time>
      </trkpt>
      <trkpt lat="45.98285" lon="4.85776">
        <ele>275</ele>
        <time>2017-03-27T09:31:44Z</time>
      </trkpt>
      <trkpt lat="45.98287" lon="4.85782">
        <ele>275</ele>
        <time>2017-03-27T09:31:45Z</time>
      </trkpt>
      <trkpt lat="45.9829" lon="4.85788">
        <ele>275</ele>
        <time>2017-03-27T09:31:46Z</time>
      </trkpt>
      <trkpt lat="45.98292" lon="4.85794">
        <ele>275</ele>
        <time>2017-03-27T09:31:47Z</time>
      </trkpt>
      <trkpt lat="45.98294" lon="4.858">
        <ele>275</ele>
        <time>2017-03-27T09:31:48Z</time>
      </trkpt>
      <trkpt lat="45.98296" lon="4.85806">
        <ele>275</ele>
        <time>2017-03-27T09:31:49Z</time>
      </trkpt>
      <trkpt lat="45.98298" lon="4.85811">
        <ele>275</ele>
        <time>2017-03-27T09:31:50Z</time>
      </trkpt>
      <trkpt lat="45.98303" lon="4.85822">
        <ele>275</ele>
        <time>2017-03-27T09:31:52Z</time>
      </trkpt>
      <trkpt lat="45.98305" lon="4.85827">
        <ele>275</ele>
        <time>2017-03-27T09:31:53Z</time>
      </trkpt>
      <trkpt lat="45.98307" lon="4.85834">
        <ele>276</ele>
        <time>2017-03-27T09:31:54Z</time>
      </trkpt>
      <trkpt lat="45.9831" lon="4.8584">
        <ele>276</ele>
        <time>2017-03-27T09:31:55Z</time>
      </trkpt>
      <trkpt lat="45.98313" lon="4.85848">
        <ele>276</ele>
        <time>2017-03-27T09:31:56Z</time>
      </trkpt>
      <trkpt lat="45.98315" lon="4.85855">
        <ele>276</ele>
        <time>2017-03-27T09:31:57Z</time>
      </trkpt>
      <trkpt lat="45.98317" lon="4.85862">
        <ele>276</ele>
        <time>2017-03-27T09:31:58Z</time>
      </trkpt>
      <trkpt lat="45.9832" lon="4.85868">
        <ele>276</ele>
        <time>2017-03-27T09:31:59Z</time>
      </trkpt>
      <trkpt lat="45.98322" lon="4.85873">
        <ele>276</ele>
        <time>2017-03-27T09:32:00Z</time>
      </trkpt>
      <trkpt lat="45.98324" lon="4.85879">
        <ele>276</ele>
        <time>2017-03-27T09:32:01Z</time>
      </trkpt>
      <trkpt lat="45.98329" lon="4.85889">
        <ele>276</ele>
        <time>2017-03-27T09:32:03Z</time>
      </trkpt>
      <trkpt lat="45.98331" lon="4.85894">
        <ele>276</ele>
        <time>2017-03-27T09:32:04Z</time>
      </trkpt>
      <trkpt lat="45.98334" lon="4.859">
        <ele>276</ele>
        <time>2017-03-27T09:32:05Z</time>
      </trkpt>
      <trkpt lat="45.98336" lon="4.85905">
        <ele>276</ele>
        <time>2017-03-27T09:32:06Z</time>
      </trkpt>
      <trkpt lat="45.98339" lon="4.85911">
        <ele>276</ele>
        <time>2017-03-27T09:32:07Z</time>
      </trkpt>
      <trkpt lat="45.98341" lon="4.85917">
        <ele>276</ele>
        <time>2017-03-27T09:32:08Z</time>
      </trkpt>
      <trkpt lat="45.98343" lon="4.85924">
        <ele>276</ele>
        <time>2017-03-27T09:32:09Z</time>
      </trkpt>
      <trkpt lat="45.98346" lon="4.85932">
        <ele>276</ele>
        <time>2017-03-27T09:32:10Z</time>
      </trkpt>
      <trkpt lat="45.98348" lon="4.85939">
        <ele>276</ele>
        <time>2017-03-27T09:32:11Z</time>
      </trkpt>
      <trkpt lat="45.98351" lon="4.85947">
        <ele>276</ele>
        <time>2017-03-27T09:32:12Z</time>
      </trkpt>
      <trkpt lat="45.98354" lon="4.85955">
        <ele>276</ele>
        <time>2017-03-27T09:32:13Z</time>
      </trkpt>
      <trkpt lat="45.98356" lon="4.85963">
        <ele>276</ele>
        <time>2017-03-27T09:32:14Z</time>
      </trkpt>
      <trkpt lat="45.98359" lon="4.8597">
        <ele>276</ele>
        <time>2017-03-27T09:32:15Z</time>
      </trkpt>
      <trkpt lat="45.98362" lon="4.85977">
        <ele>276</ele>
        <time>2017-03-27T09:32:16Z</time>
      </trkpt>
      <trkpt lat="45.98365" lon="4.85984">
        <ele>276</ele>
        <time>2017-03-27T09:32:17Z</time>
      </trkpt>
      <trkpt lat="45.98368" lon="4.85991">
        <ele>277</ele>
        <time>2017-03-27T09:32:18Z</time>
      </trkpt>
      <trkpt lat="45.9837" lon="4.85997">
        <ele>277</ele>
        <time>2017-03-27T09:32:19Z</time>
      </trkpt>
      <trkpt lat="45.98372" lon="4.86004">
        <ele>277</ele>
        <time>2017-03-27T09:32:20Z</time>
      </trkpt>
      <trkpt lat="45.98374" lon="4.8601">
        <ele>277</ele>
        <time>2017-03-27T09:32:21Z</time>
      </trkpt>
      <trkpt lat="45.98377" lon="4.86015">
        <ele>277</ele>
        <time>2017-03-27T09:32:22Z</time>
      </trkpt>
      <trkpt lat="45.98379" lon="4.86021">
        <ele>277</ele>
        <time>2017-03-27T09:32:23Z</time>
      </trkpt>
      <trkpt lat="45.98381" lon="4.86026">
        <ele>277</ele>
        <time>2017-03-27T09:32:24Z</time>
      </trkpt>
      <trkpt lat="45.98384" lon="4.86032">
        <ele>277</ele>
        <time>2017-03-27T09:32:25Z</time>
      </trkpt>
      <trkpt lat="45.98386" lon="4.86038">
        <ele>277</ele>
        <time>2017-03-27T09:32:26Z</time>
      </trkpt>
      <trkpt lat="45.98389" lon="4.86044">
        <ele>277</ele>
        <time>2017-03-27T09:32:27Z</time>
      </trkpt>
      <trkpt lat="45.98391" lon="4.8605">
        <ele>277</ele>
        <time>2017-03-27T09:32:28Z</time>
      </trkpt>
      <trkpt lat="45.98394" lon="4.86061">
        <ele>277</ele>
        <time>2017-03-27T09:32:30Z</time>
      </trkpt>
      <trkpt lat="45.98396" lon="4.86067">
        <ele>277</ele>
        <time>2017-03-27T09:32:31Z</time>
      </trkpt>
      <trkpt lat="45.98399" lon="4.86078">
        <ele>277</ele>
        <time>2017-03-27T09:32:33Z</time>
      </trkpt>
      <trkpt lat="45.984" lon="4.86084">
        <ele>277</ele>
        <time>2017-03-27T09:32:34Z</time>
      </trkpt>
      <trkpt lat="45.98403" lon="4.86096">
        <ele>277</ele>
        <time>2017-03-27T09:32:36Z</time>
      </trkpt>
      <trkpt lat="45.98403" lon="4.86101">
        <ele>277</ele>
        <time>2017-03-27T09:32:37Z</time>
      </trkpt>
      <trkpt lat="45.98404" lon="4.8611">
        <ele>277</ele>
        <time>2017-03-27T09:32:39Z</time>
      </trkpt>
      <trkpt lat="45.98405" lon="4.86114">
        <ele>277</ele>
        <time>2017-03-27T09:32:40Z</time>
      </trkpt>
      <trkpt lat="45.98407" lon="4.86124">
        <ele>277</ele>
        <time>2017-03-27T09:32:42Z</time>
      </trkpt>
      <trkpt lat="45.98407" lon="4.86128">
        <ele>276</ele>
        <time>2017-03-27T09:32:43Z</time>
      </trkpt>
      <trkpt lat="45.98408" lon="4.86138">
        <ele>276</ele>
        <time>2017-03-27T09:32:45Z</time>
      </trkpt>
      <trkpt lat="45.98408" lon="4.86143">
        <ele>276</ele>
        <time>2017-03-27T09:32:46Z</time>
      </trkpt>
      <trkpt lat="45.9841" lon="4.86152">
        <ele>276</ele>
        <time>2017-03-27T09:32:48Z</time>
      </trkpt>
      <trkpt lat="45.98411" lon="4.86156">
        <ele>276</ele>
        <time>2017-03-27T09:32:49Z</time>
      </trkpt>
      <trkpt lat="45.98413" lon="4.86168">
        <ele>276</ele>
        <time>2017-03-27T09:32:52Z</time>
      </trkpt>
      <trkpt lat="45.98414" lon="4.86172">
        <ele>276</ele>
        <time>2017-03-27T09:32:53Z</time>
      </trkpt>
      <trkpt lat="45.98415" lon="4.86182">
        <ele>276</ele>
        <time>2017-03-27T09:32:56Z</time>
      </trkpt>
      <trkpt lat="45.98415" lon="4.86186">
        <ele>276</ele>
        <time>2017-03-27T09:32:57Z</time>
      </trkpt>
      <trkpt lat="45.98418" lon="4.86197">
        <ele>275</ele>
        <time>2017-03-27T09:33:00Z</time>
      </trkpt>
      <trkpt lat="45.98419" lon="4.86202">
        <ele>275</ele>
        <time>2017-03-27T09:33:01Z</time>
      </trkpt>
      <trkpt lat="45.98421" lon="4.8621">
        <ele>275</ele>
        <time>2017-03-27T09:33:03Z</time>
      </trkpt>
      <trkpt lat="45.98422" lon="4.86214">
        <ele>275</ele>
        <time>2017-03-27T09:33:04Z</time>
      </trkpt>
      <trkpt lat="45.98423" lon="4.86218">
        <ele>275</ele>
        <time>2017-03-27T09:33:06Z</time>
      </trkpt>
      <trkpt lat="45.98424" lon="4.86219">
        <ele>275</ele>
        <time>2017-03-27T09:33:07Z</time>
      </trkpt>
      <trkpt lat="45.98424" lon="4.86219">
        <ele>275</ele>
        <time>2017-03-27T09:33:22Z</time>
      </trkpt>
      <trkpt lat="45.98426" lon="4.86217">
        <ele>275</ele>
        <time>2017-03-27T09:33:23Z</time>
      </trkpt>
      <trkpt lat="45.98427" lon="4.86228">
        <ele>275</ele>
        <time>2017-03-27T09:38:04Z</time>
      </trkpt>
      <trkpt lat="45.98427" lon="4.8623">
        <ele>275</ele>
        <time>2017-03-27T09:38:05Z</time>
      </trkpt>
      <trkpt lat="45.98428" lon="4.86238">
        <ele>275</ele>
        <time>2017-03-27T09:38:07Z</time>
      </trkpt>
      <trkpt lat="45.98429" lon="4.86243">
        <ele>275</ele>
        <time>2017-03-27T09:38:08Z</time>
      </trkpt>
      <trkpt lat="45.98431" lon="4.86254">
        <ele>275</ele>
        <time>2017-03-27T09:38:10Z</time>
      </trkpt>
      <trkpt lat="45.98432" lon="4.8626">
        <ele>275</ele>
        <time>2017-03-27T09:38:11Z</time>
      </trkpt>
      <trkpt lat="45.98433" lon="4.86267">
        <ele>275</ele>
        <time>2017-03-27T09:38:12Z</time>
      </trkpt>
      <trkpt lat="45.98433" lon="4.86274">
        <ele>276</ele>
        <time>2017-03-27T09:38:13Z</time>
      </trkpt>
      <trkpt lat="45.98434" lon="4.86281">
        <ele>276</ele>
        <time>2017-03-27T09:38:14Z</time>
      </trkpt>
      <trkpt lat="45.98435" lon="4.86288">
        <ele>276</ele>
        <time>2017-03-27T09:38:15Z</time>
      </trkpt>
      <trkpt lat="45.98436" lon="4.86295">
        <ele>276</ele>
        <time>2017-03-27T09:38:16Z</time>
      </trkpt>
      <trkpt lat="45.98437" lon="4.86302">
        <ele>276</ele>
        <time>2017-03-27T09:38:17Z</time>
      </trkpt>
      <trkpt lat="45.98438" lon="4.8631">
        <ele>276</ele>
        <time>2017-03-27T09:38:18Z</time>
      </trkpt>
      <trkpt lat="45.9844" lon="4.86317">
        <ele>276</ele>
        <time>2017-03-27T09:38:19Z</time>
      </trkpt>
      <trkpt lat="45.98441" lon="4.86324">
        <ele>276</ele>
        <time>2017-03-27T09:38:20Z</time>
      </trkpt>
      <trkpt lat="45.98443" lon="4.8633">
        <ele>276</ele>
        <time>2017-03-27T09:38:21Z</time>
      </trkpt>
      <trkpt lat="45.98444" lon="4.86337">
        <ele>277</ele>
        <time>2017-03-27T09:38:22Z</time>
      </trkpt>
      <trkpt lat="45.98446" lon="4.86343">
        <ele>277</ele>
        <time>2017-03-27T09:38:23Z</time>
      </trkpt>
      <trkpt lat="45.98448" lon="4.86349">
        <ele>277</ele>
        <time>2017-03-27T09:38:24Z</time>
      </trkpt>
      <trkpt lat="45.9845" lon="4.86356">
        <ele>277</ele>
        <time>2017-03-27T09:38:25Z</time>
      </trkpt>
      <trkpt lat="45.98453" lon="4.86367">
        <ele>277</ele>
        <time>2017-03-27T09:38:27Z</time>
      </trkpt>
      <trkpt lat="45.98455" lon="4.86373">
        <ele>277</ele>
        <time>2017-03-27T09:38:28Z</time>
      </trkpt>
      <trkpt lat="45.98457" lon="4.86379">
        <ele>277</ele>
        <time>2017-03-27T09:38:29Z</time>
      </trkpt>
      <trkpt lat="45.9846" lon="4.86386">
        <ele>277</ele>
        <time>2017-03-27T09:38:30Z</time>
      </trkpt>
      <trkpt lat="45.98462" lon="4.86393">
        <ele>277</ele>
        <time>2017-03-27T09:38:31Z</time>
      </trkpt>
      <trkpt lat="45.98465" lon="4.864">
        <ele>277</ele>
        <time>2017-03-27T09:38:32Z</time>
      </trkpt>
      <trkpt lat="45.98468" lon="4.86407">
        <ele>277</ele>
        <time>2017-03-27T09:38:33Z</time>
      </trkpt>
      <trkpt lat="45.98471" lon="4.86413">
        <ele>277</ele>
        <time>2017-03-27T09:38:34Z</time>
      </trkpt>
      <trkpt lat="45.98474" lon="4.86419">
        <ele>278</ele>
        <time>2017-03-27T09:38:35Z</time>
      </trkpt>
      <trkpt lat="45.98477" lon="4.86426">
        <ele>278</ele>
        <time>2017-03-27T09:38:36Z</time>
      </trkpt>
      <trkpt lat="45.9848" lon="4.86432">
        <ele>278</ele>
        <time>2017-03-27T09:38:37Z</time>
      </trkpt>
      <trkpt lat="45.98483" lon="4.86438">
        <ele>278</ele>
        <time>2017-03-27T09:38:38Z</time>
      </trkpt>
      <trkpt lat="45.98486" lon="4.86444">
        <ele>278</ele>
        <time>2017-03-27T09:38:39Z</time>
      </trkpt>
      <trkpt lat="45.98488" lon="4.8645">
        <ele>278</ele>
        <time>2017-03-27T09:38:40Z</time>
      </trkpt>
      <trkpt lat="45.98491" lon="4.86457">
        <ele>278</ele>
        <time>2017-03-27T09:38:41Z</time>
      </trkpt>
      <trkpt lat="45.98494" lon="4.86463">
        <ele>278</ele>
        <time>2017-03-27T09:38:42Z</time>
      </trkpt>
      <trkpt lat="45.98497" lon="4.8647">
        <ele>279</ele>
        <time>2017-03-27T09:38:43Z</time>
      </trkpt>
      <trkpt lat="45.985" lon="4.86477">
        <ele>279</ele>
        <time>2017-03-27T09:38:44Z</time>
      </trkpt>
      <trkpt lat="45.98502" lon="4.86483">
        <ele>279</ele>
        <time>2017-03-27T09:38:45Z</time>
      </trkpt>
      <trkpt lat="45.98505" lon="4.8649">
        <ele>279</ele>
        <time>2017-03-27T09:38:46Z</time>
      </trkpt>
      <trkpt lat="45.98508" lon="4.86497">
        <ele>279</ele>
        <time>2017-03-27T09:38:47Z</time>
      </trkpt>
      <trkpt lat="45.98511" lon="4.86504">
        <ele>279</ele>
        <time>2017-03-27T09:38:48Z</time>
      </trkpt>
      <trkpt lat="45.98514" lon="4.8651">
        <ele>279</ele>
        <time>2017-03-27T09:38:49Z</time>
      </trkpt>
      <trkpt lat="45.98517" lon="4.86517">
        <ele>279</ele>
        <time>2017-03-27T09:38:50Z</time>
      </trkpt>
      <trkpt lat="45.9852" lon="4.86524">
        <ele>279</ele>
        <time>2017-03-27T09:38:51Z</time>
      </trkpt>
      <trkpt lat="45.98524" lon="4.86531">
        <ele>279</ele>
        <time>2017-03-27T09:38:52Z</time>
      </trkpt>
      <trkpt lat="45.98527" lon="4.86538">
        <ele>279</ele>
        <time>2017-03-27T09:38:53Z</time>
      </trkpt>
      <trkpt lat="45.98531" lon="4.86545">
        <ele>279</ele>
        <time>2017-03-27T09:38:54Z</time>
      </trkpt>
      <trkpt lat="45.98535" lon="4.86553">
        <ele>279</ele>
        <time>2017-03-27T09:38:55Z</time>
      </trkpt>
      <trkpt lat="45.98538" lon="4.8656">
        <ele>279</ele>
        <time>2017-03-27T09:38:56Z</time>
      </trkpt>
      <trkpt lat="45.98541" lon="4.86567">
        <ele>278</ele>
        <time>2017-03-27T09:38:57Z</time>
      </trkpt>
      <trkpt lat="45.98544" lon="4.86574">
        <ele>278</ele>
        <time>2017-03-27T09:38:58Z</time>
      </trkpt>
      <trkpt lat="45.98546" lon="4.86582">
        <ele>278</ele>
        <time>2017-03-27T09:38:59Z</time>
      </trkpt>
      <trkpt lat="45.98548" lon="4.86589">
        <ele>278</ele>
        <time>2017-03-27T09:39:00Z</time>
      </trkpt>
      <trkpt lat="45.9855" lon="4.86597">
        <ele>278</ele>
        <time>2017-03-27T09:39:01Z</time>
      </trkpt>
      <trkpt lat="45.98551" lon="4.86604">
        <ele>278</ele>
        <time>2017-03-27T09:39:02Z</time>
      </trkpt>
      <trkpt lat="45.98552" lon="4.86611">
        <ele>278</ele>
        <time>2017-03-27T09:39:03Z</time>
      </trkpt>
      <trkpt lat="45.98554" lon="4.86618">
        <ele>278</ele>
        <time>2017-03-27T09:39:04Z</time>
      </trkpt>
      <trkpt lat="45.98555" lon="4.86626">
        <ele>278</ele>
        <time>2017-03-27T09:39:05Z</time>
      </trkpt>
      <trkpt lat="45.98557" lon="4.86633">
        <ele>278</ele>
        <time>2017-03-27T09:39:06Z</time>
      </trkpt>
      <trkpt lat="45.98558" lon="4.86642">
        <ele>278</ele>
        <time>2017-03-27T09:39:07Z</time>
      </trkpt>
      <trkpt lat="45.98559" lon="4.8665">
        <ele>277</ele>
        <time>2017-03-27T09:39:08Z</time>
      </trkpt>
      <trkpt lat="45.9856" lon="4.86659">
        <ele>277</ele>
        <time>2017-03-27T09:39:09Z</time>
      </trkpt>
      <trkpt lat="45.98561" lon="4.86667">
        <ele>277</ele>
        <time>2017-03-27T09:39:10Z</time>
      </trkpt>
      <trkpt lat="45.98562" lon="4.86676">
        <ele>277</ele>
        <time>2017-03-27T09:39:11Z</time>
      </trkpt>
      <trkpt lat="45.98563" lon="4.86684">
        <ele>277</ele>
        <time>2017-03-27T09:39:12Z</time>
      </trkpt>
      <trkpt lat="45.98563" lon="4.86692">
        <ele>277</ele>
        <time>2017-03-27T09:39:13Z</time>
      </trkpt>
      <trkpt lat="45.98564" lon="4.867">
        <ele>277</ele>
        <time>2017-03-27T09:39:14Z</time>
      </trkpt>
      <trkpt lat="45.98564" lon="4.86707">
        <ele>277</ele>
        <time>2017-03-27T09:39:15Z</time>
      </trkpt>
      <trkpt lat="45.98565" lon="4.86713">
        <ele>277</ele>
        <time>2017-03-27T09:39:16Z</time>
      </trkpt>
      <trkpt lat="45.98565" lon="4.86721">
        <ele>277</ele>
        <time>2017-03-27T09:39:17Z</time>
      </trkpt>
      <trkpt lat="45.98565" lon="4.86727">
        <ele>277</ele>
        <time>2017-03-27T09:39:18Z</time>
      </trkpt>
      <trkpt lat="45.98566" lon="4.86734">
        <ele>277</ele>
        <time>2017-03-27T09:39:19Z</time>
      </trkpt>
      <trkpt lat="45.98567" lon="4.86741">
        <ele>277</ele>
        <time>2017-03-27T09:39:20Z</time>
      </trkpt>
      <trkpt lat="45.98568" lon="4.86748">
        <ele>277</ele>
        <time>2017-03-27T09:39:21Z</time>
      </trkpt>
      <trkpt lat="45.98569" lon="4.86756">
        <ele>277</ele>
        <time>2017-03-27T09:39:22Z</time>
      </trkpt>
      <trkpt lat="45.9857" lon="4.86765">
        <ele>277</ele>
        <time>2017-03-27T09:39:23Z</time>
      </trkpt>
      <trkpt lat="45.98572" lon="4.86773">
        <ele>277</ele>
        <time>2017-03-27T09:39:24Z</time>
      </trkpt>
      <trkpt lat="45.98573" lon="4.86781">
        <ele>277</ele>
        <time>2017-03-27T09:39:25Z</time>
      </trkpt>
      <trkpt lat="45.98575" lon="4.8679">
        <ele>277</ele>
        <time>2017-03-27T09:39:26Z</time>
      </trkpt>
      <trkpt lat="45.98576" lon="4.86799">
        <ele>278</ele>
        <time>2017-03-27T09:39:27Z</time>
      </trkpt>
      <trkpt lat="45.98578" lon="4.86807">
        <ele>278</ele>
        <time>2017-03-27T09:39:28Z</time>
      </trkpt>
      <trkpt lat="45.98579" lon="4.86815">
        <ele>277</ele>
        <time>2017-03-27T09:39:29Z</time>
      </trkpt>
      <trkpt lat="45.9858" lon="4.86823">
        <ele>277</ele>
        <time>2017-03-27T09:39:30Z</time>
      </trkpt>
      <trkpt lat="45.9858" lon="4.8683">
        <ele>277</ele>
        <time>2017-03-27T09:39:31Z</time>
      </trkpt>
      <trkpt lat="45.98581" lon="4.86838">
        <ele>278</ele>
        <time>2017-03-27T09:39:32Z</time>
      </trkpt>
      <trkpt lat="45.98581" lon="4.86846">
        <ele>278</ele>
        <time>2017-03-27T09:39:33Z</time>
      </trkpt>
      <trkpt lat="45.98581" lon="4.86854">
        <ele>279</ele>
        <time>2017-03-27T09:39:34Z</time>
      </trkpt>
      <trkpt lat="45.98581" lon="4.86862">
        <ele>279</ele>
        <time>2017-03-27T09:39:35Z</time>
      </trkpt>
      <trkpt lat="45.98581" lon="4.86869">
        <ele>279</ele>
        <time>2017-03-27T09:39:36Z</time>
      </trkpt>
      <trkpt lat="45.98581" lon="4.86876">
        <ele>279</ele>
        <time>2017-03-27T09:39:37Z</time>
      </trkpt>
      <trkpt lat="45.98581" lon="4.86883">
        <ele>279</ele>
        <time>2017-03-27T09:39:38Z</time>
      </trkpt>
      <trkpt lat="45.98581" lon="4.8689">
        <ele>279</ele>
        <time>2017-03-27T09:39:39Z</time>
      </trkpt>
      <trkpt lat="45.9858" lon="4.86897">
        <ele>279</ele>
        <time>2017-03-27T09:39:40Z</time>
      </trkpt>
      <trkpt lat="45.98579" lon="4.86904">
        <ele>279</ele>
        <time>2017-03-27T09:39:41Z</time>
      </trkpt>
      <trkpt lat="45.98578" lon="4.86911">
        <ele>279</ele>
        <time>2017-03-27T09:39:42Z</time>
      </trkpt>
      <trkpt lat="45.98577" lon="4.86918">
        <ele>280</ele>
        <time>2017-03-27T09:39:43Z</time>
      </trkpt>
      <trkpt lat="45.98576" lon="4.86925">
        <ele>280</ele>
        <time>2017-03-27T09:39:44Z</time>
      </trkpt>
      <trkpt lat="45.98576" lon="4.86932">
        <ele>280</ele>
        <time>2017-03-27T09:39:45Z</time>
      </trkpt>
      <trkpt lat="45.98577" lon="4.8694">
        <ele>281</ele>
        <time>2017-03-27T09:39:46Z</time>
      </trkpt>
      <trkpt lat="45.98577" lon="4.86948">
        <ele>281</ele>
        <time>2017-03-27T09:39:47Z</time>
      </trkpt>
      <trkpt lat="45.98577" lon="4.86957">
        <ele>281</ele>
        <time>2017-03-27T09:39:48Z</time>
      </trkpt>
      <trkpt lat="45.98578" lon="4.86966">
        <ele>281</ele>
        <time>2017-03-27T09:39:49Z</time>
      </trkpt>
      <trkpt lat="45.98578" lon="4.86974">
        <ele>281</ele>
        <time>2017-03-27T09:39:50Z</time>
      </trkpt>
      <trkpt lat="45.98579" lon="4.86983">
        <ele>281</ele>
        <time>2017-03-27T09:39:51Z</time>
      </trkpt>
      <trkpt lat="45.98581" lon="4.86992">
        <ele>280</ele>
        <time>2017-03-27T09:39:52Z</time>
      </trkpt>
      <trkpt lat="45.98582" lon="4.87001">
        <ele>280</ele>
        <time>2017-03-27T09:39:53Z</time>
      </trkpt>
      <trkpt lat="45.98583" lon="4.8701">
        <ele>280</ele>
        <time>2017-03-27T09:39:54Z</time>
      </trkpt>
      <trkpt lat="45.98585" lon="4.87018">
        <ele>279</ele>
        <time>2017-03-27T09:39:55Z</time>
      </trkpt>
      <trkpt lat="45.98587" lon="4.87027">
        <ele>279</ele>
        <time>2017-03-27T09:39:56Z</time>
      </trkpt>
      <trkpt lat="45.98589" lon="4.87035">
        <ele>279</ele>
        <time>2017-03-27T09:39:57Z</time>
      </trkpt>
      <trkpt lat="45.9859" lon="4.87043">
        <ele>279</ele>
        <time>2017-03-27T09:39:58Z</time>
      </trkpt>
      <trkpt lat="45.98592" lon="4.87051">
        <ele>279</ele>
        <time>2017-03-27T09:39:59Z</time>
      </trkpt>
      <trkpt lat="45.98593" lon="4.87059">
        <ele>279</ele>
        <time>2017-03-27T09:40:00Z</time>
      </trkpt>
      <trkpt lat="45.98593" lon="4.87066">
        <ele>279</ele>
        <time>2017-03-27T09:40:01Z</time>
      </trkpt>
      <trkpt lat="45.98594" lon="4.87074">
        <ele>279</ele>
        <time>2017-03-27T09:40:02Z</time>
      </trkpt>
      <trkpt lat="45.98594" lon="4.87081">
        <ele>279</ele>
        <time>2017-03-27T09:40:03Z</time>
      </trkpt>
      <trkpt lat="45.98595" lon="4.87087">
        <ele>279</ele>
        <time>2017-03-27T09:40:04Z</time>
      </trkpt>
      <trkpt lat="45.98595" lon="4.87094">
        <ele>279</ele>
        <time>2017-03-27T09:40:05Z</time>
      </trkpt>
      <trkpt lat="45.98597" lon="4.87101">
        <ele>279</ele>
        <time>2017-03-27T09:40:06Z</time>
      </trkpt>
      <trkpt lat="45.98599" lon="4.87108">
        <ele>279</ele>
        <time>2017-03-27T09:40:07Z</time>
      </trkpt>
      <trkpt lat="45.986" lon="4.87116">
        <ele>279</ele>
        <time>2017-03-27T09:40:08Z</time>
      </trkpt>
      <trkpt lat="45.986" lon="4.87126">
        <ele>279</ele>
        <time>2017-03-27T09:40:09Z</time>
      </trkpt>
      <trkpt lat="45.98601" lon="4.87136">
        <ele>278</ele>
        <time>2017-03-27T09:40:10Z</time>
      </trkpt>
      <trkpt lat="45.98601" lon="4.87143">
        <ele>278</ele>
        <time>2017-03-27T09:40:11Z</time>
      </trkpt>
      <trkpt lat="45.98602" lon="4.87152">
        <ele>278</ele>
        <time>2017-03-27T09:40:12Z</time>
      </trkpt>
      <trkpt lat="45.98603" lon="4.8716">
        <ele>278</ele>
        <time>2017-03-27T09:40:13Z</time>
      </trkpt>
      <trkpt lat="45.98603" lon="4.87167">
        <ele>277</ele>
        <time>2017-03-27T09:40:14Z</time>
      </trkpt>
      <trkpt lat="45.98603" lon="4.87175">
        <ele>277</ele>
        <time>2017-03-27T09:40:15Z</time>
      </trkpt>
      <trkpt lat="45.98603" lon="4.87184">
        <ele>277</ele>
        <time>2017-03-27T09:40:16Z</time>
      </trkpt>
      <trkpt lat="45.98602" lon="4.87192">
        <ele>277</ele>
        <time>2017-03-27T09:40:17Z</time>
      </trkpt>
      <trkpt lat="45.98601" lon="4.87199">
        <ele>277</ele>
        <time>2017-03-27T09:40:18Z</time>
      </trkpt>
      <trkpt lat="45.98599" lon="4.87206">
        <ele>277</ele>
        <time>2017-03-27T09:40:19Z</time>
      </trkpt>
      <trkpt lat="45.98597" lon="4.87213">
        <ele>277</ele>
        <time>2017-03-27T09:40:20Z</time>
      </trkpt>
      <trkpt lat="45.98596" lon="4.87221">
        <ele>277</ele>
        <time>2017-03-27T09:40:21Z</time>
      </trkpt>
      <trkpt lat="45.98595" lon="4.87229">
        <ele>277</ele>
        <time>2017-03-27T09:40:22Z</time>
      </trkpt>
      <trkpt lat="45.98593" lon="4.87238">
        <ele>277</ele>
        <time>2017-03-27T09:40:23Z</time>
      </trkpt>
      <trkpt lat="45.98591" lon="4.87247">
        <ele>276</ele>
        <time>2017-03-27T09:40:24Z</time>
      </trkpt>
      <trkpt lat="45.9859" lon="4.87256">
        <ele>276</ele>
        <time>2017-03-27T09:40:25Z</time>
      </trkpt>
      <trkpt lat="45.98589" lon="4.87266">
        <ele>275</ele>
        <time>2017-03-27T09:40:26Z</time>
      </trkpt>
      <trkpt lat="45.98588" lon="4.87276">
        <ele>275</ele>
        <time>2017-03-27T09:40:27Z</time>
      </trkpt>
      <trkpt lat="45.98588" lon="4.87287">
        <ele>275</ele>
        <time>2017-03-27T09:40:28Z</time>
      </trkpt>
      <trkpt lat="45.9859" lon="4.87298">
        <ele>275</ele>
        <time>2017-03-27T09:40:29Z</time>
      </trkpt>
      <trkpt lat="45.98591" lon="4.87309">
        <ele>274</ele>
        <time>2017-03-27T09:40:30Z</time>
      </trkpt>
      <trkpt lat="45.98593" lon="4.8732">
        <ele>274</ele>
        <time>2017-03-27T09:40:31Z</time>
      </trkpt>
      <trkpt lat="45.98596" lon="4.87331">
        <ele>274</ele>
        <time>2017-03-27T09:40:32Z</time>
      </trkpt>
      <trkpt lat="45.98598" lon="4.87342">
        <ele>273</ele>
        <time>2017-03-27T09:40:33Z</time>
      </trkpt>
      <trkpt lat="45.98601" lon="4.87354">
        <ele>272</ele>
        <time>2017-03-27T09:40:34Z</time>
      </trkpt>
      <trkpt lat="45.98603" lon="4.87366">
        <ele>272</ele>
        <time>2017-03-27T09:40:35Z</time>
      </trkpt>
      <trkpt lat="45.98606" lon="4.87378">
        <ele>271</ele>
        <time>2017-03-27T09:40:36Z</time>
      </trkpt>
      <trkpt lat="45.98608" lon="4.87389">
        <ele>271</ele>
        <time>2017-03-27T09:40:37Z</time>
      </trkpt>
      <trkpt lat="45.98611" lon="4.87401">
        <ele>271</ele>
        <time>2017-03-27T09:40:38Z</time>
      </trkpt>
      <trkpt lat="45.98613" lon="4.87413">
        <ele>271</ele>
        <time>2017-03-27T09:40:39Z</time>
      </trkpt>
      <trkpt lat="45.98617" lon="4.87425">
        <ele>269</ele>
        <time>2017-03-27T09:40:40Z</time>
      </trkpt>
      <trkpt lat="45.9862" lon="4.87437">
        <ele>269</ele>
        <time>2017-03-27T09:40:41Z</time>
      </trkpt>
      <trkpt lat="45.98623" lon="4.87449">
        <ele>268</ele>
        <time>2017-03-27T09:40:42Z</time>
      </trkpt>
      <trkpt lat="45.98625" lon="4.87461">
        <ele>268</ele>
        <time>2017-03-27T09:40:43Z</time>
      </trkpt>
      <trkpt lat="45.98627" lon="4.87472">
        <ele>268</ele>
        <time>2017-03-27T09:40:44Z</time>
      </trkpt>
      <trkpt lat="45.98628" lon="4.87483">
        <ele>268</ele>
        <time>2017-03-27T09:40:45Z</time>
      </trkpt>
      <trkpt lat="45.9863" lon="4.87494">
        <ele>268</ele>
        <time>2017-03-27T09:40:46Z</time>
      </trkpt>
      <trkpt lat="45.98632" lon="4.87505">
        <ele>267</ele>
        <time>2017-03-27T09:40:47Z</time>
      </trkpt>
      <trkpt lat="45.98634" lon="4.87516">
        <ele>267</ele>
        <time>2017-03-27T09:40:48Z</time>
      </trkpt>
      <trkpt lat="45.98636" lon="4.87527">
        <ele>267</ele>
        <time>2017-03-27T09:40:49Z</time>
      </trkpt>
      <trkpt lat="45.98638" lon="4.87537">
        <ele>267</ele>
        <time>2017-03-27T09:40:50Z</time>
      </trkpt>
      <trkpt lat="45.98641" lon="4.87547">
        <ele>267</ele>
        <time>2017-03-27T09:40:51Z</time>
      </trkpt>
      <trkpt lat="45.98647" lon="4.87555">
        <ele>267</ele>
        <time>2017-03-27T09:40:52Z</time>
      </trkpt>
      <trkpt lat="45.98652" lon="4.8756">
        <ele>267</ele>
        <time>2017-03-27T09:40:53Z</time>
      </trkpt>
      <trkpt lat="45.98659" lon="4.87564">
        <ele>267</ele>
        <time>2017-03-27T09:40:54Z</time>
      </trkpt>
      <trkpt lat="45.98666" lon="4.87565">
        <ele>267</ele>
        <time>2017-03-27T09:40:55Z</time>
      </trkpt>
      <trkpt lat="45.98672" lon="4.87565">
        <ele>267</ele>
        <time>2017-03-27T09:40:56Z</time>
      </trkpt>
      <trkpt lat="45.98678" lon="4.87566">
        <ele>267</ele>
        <time>2017-03-27T09:40:57Z</time>
      </trkpt>
      <trkpt lat="45.98685" lon="4.87566">
        <ele>267</ele>
        <time>2017-03-27T09:40:58Z</time>
      </trkpt>
      <trkpt lat="45.98691" lon="4.87567">
        <ele>267</ele>
        <time>2017-03-27T09:40:59Z</time>
      </trkpt>
      <trkpt lat="45.98697" lon="4.87567">
        <ele>267</ele>
        <time>2017-03-27T09:41:00Z</time>
      </trkpt>
      <trkpt lat="45.98703" lon="4.87566">
        <ele>267</ele>
        <time>2017-03-27T09:41:01Z</time>
      </trkpt>
      <trkpt lat="45.98709" lon="4.87565">
        <ele>267</ele>
        <time>2017-03-27T09:41:02Z</time>
      </trkpt>
      <trkpt lat="45.98715" lon="4.87565">
        <ele>267</ele>
        <time>2017-03-27T09:41:03Z</time>
      </trkpt>
      <trkpt lat="45.98721" lon="4.87565">
        <ele>267</ele>
        <time>2017-03-27T09:41:04Z</time>
      </trkpt>
      <trkpt lat="45.98726" lon="4.87566">
        <ele>267</ele>
        <time>2017-03-27T09:41:05Z</time>
      </trkpt>
      <trkpt lat="45.98731" lon="4.87567">
        <ele>267</ele>
        <time>2017-03-27T09:41:06Z</time>
      </trkpt>
      <trkpt lat="45.98736" lon="4.87568">
        <ele>267</ele>
        <time>2017-03-27T09:41:07Z</time>
      </trkpt>
      <trkpt lat="45.98741" lon="4.8757">
        <ele>267</ele>
        <time>2017-03-27T09:41:08Z</time>
      </trkpt>
      <trkpt lat="45.98745" lon="4.87573">
        <ele>267</ele>
        <time>2017-03-27T09:41:09Z</time>
      </trkpt>
      <trkpt lat="45.98749" lon="4.87575">
        <ele>268</ele>
        <time>2017-03-27T09:41:10Z</time>
      </trkpt>
      <trkpt lat="45.98754" lon="4.87577">
        <ele>268</ele>
        <time>2017-03-27T09:41:11Z</time>
      </trkpt>
      <trkpt lat="45.98759" lon="4.87579">
        <ele>268</ele>
        <time>2017-03-27T09:41:12Z</time>
      </trkpt>
      <trkpt lat="45.98763" lon="4.87582">
        <ele>269</ele>
        <time>2017-03-27T09:41:13Z</time>
      </trkpt>
      <trkpt lat="45.98767" lon="4.87585">
        <ele>270</ele>
        <time>2017-03-27T09:41:14Z</time>
      </trkpt>
      <trkpt lat="45.98771" lon="4.87589">
        <ele>270</ele>
        <time>2017-03-27T09:41:15Z</time>
      </trkpt>
      <trkpt lat="45.98774" lon="4.87594">
        <ele>270</ele>
        <time>2017-03-27T09:41:16Z</time>
      </trkpt>
      <trkpt lat="45.98779" lon="4.87598">
        <ele>270</ele>
        <time>2017-03-27T09:41:17Z</time>
      </trkpt>
      <trkpt lat="45.98782" lon="4.876">
        <ele>271</ele>
        <time>2017-03-27T09:41:18Z</time>
      </trkpt>
      <trkpt lat="45.98785" lon="4.87604">
        <ele>271</ele>
        <time>2017-03-27T09:41:19Z</time>
      </trkpt>
      <trkpt lat="45.98789" lon="4.87609">
        <ele>271</ele>
        <time>2017-03-27T09:41:20Z</time>
      </trkpt>
      <trkpt lat="45.98793" lon="4.87614">
        <ele>271</ele>
        <time>2017-03-27T09:41:21Z</time>
      </trkpt>
      <trkpt lat="45.98796" lon="4.87619">
        <ele>271</ele>
        <time>2017-03-27T09:41:22Z</time>
      </trkpt>
      <trkpt lat="45.98799" lon="4.87625">
        <ele>271</ele>
        <time>2017-03-27T09:41:23Z</time>
      </trkpt>
      <trkpt lat="45.98802" lon="4.8763">
        <ele>271</ele>
        <time>2017-03-27T09:41:24Z</time>
      </trkpt>
      <trkpt lat="45.98805" lon="4.87642">
        <ele>272</ele>
        <time>2017-03-27T09:41:26Z</time>
      </trkpt>
      <trkpt lat="45.98807" lon="4.87648">
        <ele>272</ele>
        <time>2017-03-27T09:41:27Z</time>
      </trkpt>
      <trkpt lat="45.98808" lon="4.87654">
        <ele>272</ele>
        <time>2017-03-27T09:41:28Z</time>
      </trkpt>
      <trkpt lat="45.9881" lon="4.8766">
        <ele>272</ele>
        <time>2017-03-27T09:41:29Z</time>
      </trkpt>
      <trkpt lat="45.98814" lon="4.8767">
        <ele>273</ele>
        <time>2017-03-27T09:41:31Z</time>
      </trkpt>
      <trkpt lat="45.98815" lon="4.87675">
        <ele>273</ele>
        <time>2017-03-27T09:41:32Z</time>
      </trkpt>
      <trkpt lat="45.98816" lon="4.87684">
        <ele>273</ele>
        <time>2017-03-27T09:41:34Z</time>
      </trkpt>
      <trkpt lat="45.98817" lon="4.8769">
        <ele>273</ele>
        <time>2017-03-27T09:41:35Z</time>
      </trkpt>
      <trkpt lat="45.98818" lon="4.87696">
        <ele>273</ele>
        <time>2017-03-27T09:41:36Z</time>
      </trkpt>
      <trkpt lat="45.9882" lon="4.87702">
        <ele>273</ele>
        <time>2017-03-27T09:41:37Z</time>
      </trkpt>
      <trkpt lat="45.98822" lon="4.87709">
        <ele>274</ele>
        <time>2017-03-27T09:41:38Z</time>
      </trkpt>
      <trkpt lat="45.98823" lon="4.87717">
        <ele>274</ele>
        <time>2017-03-27T09:41:39Z</time>
      </trkpt>
      <trkpt lat="45.98825" lon="4.87724">
        <ele>274</ele>
        <time>2017-03-27T09:41:40Z</time>
      </trkpt>
      <trkpt lat="45.98826" lon="4.87731">
        <ele>274</ele>
        <time>2017-03-27T09:41:41Z</time>
      </trkpt>
      <trkpt lat="45.98829" lon="4.87738">
        <ele>273</ele>
        <time>2017-03-27T09:41:42Z</time>
      </trkpt>
      <trkpt lat="45.98832" lon="4.87746">
        <ele>273</ele>
        <time>2017-03-27T09:41:43Z</time>
      </trkpt>
      <trkpt lat="45.98835" lon="4.87754">
        <ele>273</ele>
        <time>2017-03-27T09:41:44Z</time>
      </trkpt>
      <trkpt lat="45.98837" lon="4.87761">
        <ele>273</ele>
        <time>2017-03-27T09:41:45Z</time>
      </trkpt>
      <trkpt lat="45.98839" lon="4.87768">
        <ele>273</ele>
        <time>2017-03-27T09:41:46Z</time>
      </trkpt>
      <trkpt lat="45.98842" lon="4.87774">
        <ele>273</ele>
        <time>2017-03-27T09:41:47Z</time>
      </trkpt>
      <trkpt lat="45.98844" lon="4.8778">
        <ele>273</ele>
        <time>2017-03-27T09:41:48Z</time>
      </trkpt>
      <trkpt lat="45.98847" lon="4.87786">
        <ele>273</ele>
        <time>2017-03-27T09:41:49Z</time>
      </trkpt>
      <trkpt lat="45.9885" lon="4.87798">
        <ele>273</ele>
        <time>2017-03-27T09:41:51Z</time>
      </trkpt>
      <trkpt lat="45.98852" lon="4.87804">
        <ele>273</ele>
        <time>2017-03-27T09:41:52Z</time>
      </trkpt>
      <trkpt lat="45.98854" lon="4.87809">
        <ele>273</ele>
        <time>2017-03-27T09:41:53Z</time>
      </trkpt>
      <trkpt lat="45.98857" lon="4.87815">
        <ele>273</ele>
        <time>2017-03-27T09:41:54Z</time>
      </trkpt>
      <trkpt lat="45.98859" lon="4.87821">
        <ele>273</ele>
        <time>2017-03-27T09:41:55Z</time>
      </trkpt>
      <trkpt lat="45.98862" lon="4.87828">
        <ele>273</ele>
        <time>2017-03-27T09:41:56Z</time>
      </trkpt>
      <trkpt lat="45.98865" lon="4.87834">
        <ele>273</ele>
        <time>2017-03-27T09:41:57Z</time>
      </trkpt>
      <trkpt lat="45.98868" lon="4.8784">
        <ele>273</ele>
        <time>2017-03-27T09:41:58Z</time>
      </trkpt>
      <trkpt lat="45.9887" lon="4.87846">
        <ele>273</ele>
        <time>2017-03-27T09:41:59Z</time>
      </trkpt>
      <trkpt lat="45.98873" lon="4.87851">
        <ele>273</ele>
        <time>2017-03-27T09:42:00Z</time>
      </trkpt>
      <trkpt lat="45.98876" lon="4.87856">
        <ele>272</ele>
        <time>2017-03-27T09:42:01Z</time>
      </trkpt>
      <trkpt lat="45.98879" lon="4.87862">
        <ele>272</ele>
        <time>2017-03-27T09:42:02Z</time>
      </trkpt>
      <trkpt lat="45.98883" lon="4.87866">
        <ele>272</ele>
        <time>2017-03-27T09:42:03Z</time>
      </trkpt>
      <trkpt lat="45.98887" lon="4.87872">
        <ele>272</ele>
        <time>2017-03-27T09:42:04Z</time>
      </trkpt>
      <trkpt lat="45.98892" lon="4.87878">
        <ele>272</ele>
        <time>2017-03-27T09:42:05Z</time>
      </trkpt>
      <trkpt lat="45.98895" lon="4.87884">
        <ele>272</ele>
        <time>2017-03-27T09:42:06Z</time>
      </trkpt>
      <trkpt lat="45.98899" lon="4.87889">
        <ele>272</ele>
        <time>2017-03-27T09:42:07Z</time>
      </trkpt>
      <trkpt lat="45.98902" lon="4.87894">
        <ele>272</ele>
        <time>2017-03-27T09:42:08Z</time>
      </trkpt>
      <trkpt lat="45.98905" lon="4.87899">
        <ele>272</ele>
        <time>2017-03-27T09:42:09Z</time>
      </trkpt>
      <trkpt lat="45.98909" lon="4.87904">
        <ele>272</ele>
        <time>2017-03-27T09:42:10Z</time>
      </trkpt>
      <trkpt lat="45.98916" lon="4.87911">
        <ele>271</ele>
        <time>2017-03-27T09:42:12Z</time>
      </trkpt>
      <trkpt lat="45.9892" lon="4.87915">
        <ele>271</ele>
        <time>2017-03-27T09:42:13Z</time>
      </trkpt>
      <trkpt lat="45.98927" lon="4.87922">
        <ele>272</ele>
        <time>2017-03-27T09:42:15Z</time>
      </trkpt>
      <trkpt lat="45.9893" lon="4.87925">
        <ele>272</ele>
        <time>2017-03-27T09:42:16Z</time>
      </trkpt>
      <trkpt lat="45.98937" lon="4.87929">
        <ele>272</ele>
        <time>2017-03-27T09:42:18Z</time>
      </trkpt>
      <trkpt lat="45.98941" lon="4.87931">
        <ele>273</ele>
        <time>2017-03-27T09:42:19Z</time>
      </trkpt>
      <trkpt lat="45.98948" lon="4.87936">
        <ele>273</ele>
        <time>2017-03-27T09:42:21Z</time>
      </trkpt>
      <trkpt lat="45.98951" lon="4.87938">
        <ele>273</ele>
        <time>2017-03-27T09:42:22Z</time>
      </trkpt>
      <trkpt lat="45.98959" lon="4.87941">
        <ele>273</ele>
        <time>2017-03-27T09:42:24Z</time>
      </trkpt>
      <trkpt lat="45.98963" lon="4.87944">
        <ele>273</ele>
        <time>2017-03-27T09:42:25Z</time>
      </trkpt>
      <trkpt lat="45.9897" lon="4.87948">
        <ele>274</ele>
        <time>2017-03-27T09:42:27Z</time>
      </trkpt>
      <trkpt lat="45.98974" lon="4.8795">
        <ele>274</ele>
        <time>2017-03-27T09:42:28Z</time>
      </trkpt>
      <trkpt lat="45.98978" lon="4.87953">
        <ele>274</ele>
        <time>2017-03-27T09:42:29Z</time>
      </trkpt>
      <trkpt lat="45.98983" lon="4.87954">
        <ele>274</ele>
        <time>2017-03-27T09:42:30Z</time>
      </trkpt>
      <trkpt lat="45.9899" lon="4.87957">
        <ele>274</ele>
        <time>2017-03-27T09:42:32Z</time>
      </trkpt>
      <trkpt lat="45.98993" lon="4.87959">
        <ele>274</ele>
        <time>2017-03-27T09:42:33Z</time>
      </trkpt>
      <trkpt lat="45.99" lon="4.87963">
        <ele>274</ele>
        <time>2017-03-27T09:42:35Z</time>
      </trkpt>
      <trkpt lat="45.99003" lon="4.87965">
        <ele>276</ele>
        <time>2017-03-27T09:42:36Z</time>
      </trkpt>
      <trkpt lat="45.99011" lon="4.87968">
        <ele>276</ele>
        <time>2017-03-27T09:42:38Z</time>
      </trkpt>
      <trkpt lat="45.99014" lon="4.87971">
        <ele>276</ele>
        <time>2017-03-27T09:42:39Z</time>
      </trkpt>
      <trkpt lat="45.99021" lon="4.87976">
        <ele>276</ele>
        <time>2017-03-27T09:42:41Z</time>
      </trkpt>
      <trkpt lat="45.99025" lon="4.87978">
        <ele>276</ele>
        <time>2017-03-27T09:42:42Z</time>
      </trkpt>
      <trkpt lat="45.99029" lon="4.87982">
        <ele>276</ele>
        <time>2017-03-27T09:42:43Z</time>
      </trkpt>
      <trkpt lat="45.99037" lon="4.87988">
        <ele>276</ele>
        <time>2017-03-27T09:42:44Z</time>
      </trkpt>
      <trkpt lat="45.99042" lon="4.87991">
        <ele>276</ele>
        <time>2017-03-27T09:42:45Z</time>
      </trkpt>
      <trkpt lat="45.99046" lon="4.87995">
        <ele>277</ele>
        <time>2017-03-27T09:42:46Z</time>
      </trkpt>
      <trkpt lat="45.99051" lon="4.87999">
        <ele>277</ele>
        <time>2017-03-27T09:42:47Z</time>
      </trkpt>
      <trkpt lat="45.99057" lon="4.88003">
        <ele>277</ele>
        <time>2017-03-27T09:42:48Z</time>
      </trkpt>
      <trkpt lat="45.99061" lon="4.88007">
        <ele>277</ele>
        <time>2017-03-27T09:42:49Z</time>
      </trkpt>
      <trkpt lat="45.99066" lon="4.8801">
        <ele>277</ele>
        <time>2017-03-27T09:42:50Z</time>
      </trkpt>
      <trkpt lat="45.99073" lon="4.88014">
        <ele>277</ele>
        <time>2017-03-27T09:42:52Z</time>
      </trkpt>
      <trkpt lat="45.99077" lon="4.88016">
        <ele>277</ele>
        <time>2017-03-27T09:42:53Z</time>
      </trkpt>
      <trkpt lat="45.99085" lon="4.8802">
        <ele>278</ele>
        <time>2017-03-27T09:42:55Z</time>
      </trkpt>
      <trkpt lat="45.99089" lon="4.88022">
        <ele>278</ele>
        <time>2017-03-27T09:42:56Z</time>
      </trkpt>
      <trkpt lat="45.99097" lon="4.88026">
        <ele>278</ele>
        <time>2017-03-27T09:42:58Z</time>
      </trkpt>
      <trkpt lat="45.99101" lon="4.88028">
        <ele>278</ele>
        <time>2017-03-27T09:42:59Z</time>
      </trkpt>
      <trkpt lat="45.99108" lon="4.88032">
        <ele>278</ele>
        <time>2017-03-27T09:43:01Z</time>
      </trkpt>
      <trkpt lat="45.99112" lon="4.88033">
        <ele>278</ele>
        <time>2017-03-27T09:43:02Z</time>
      </trkpt>
      <trkpt lat="45.99119" lon="4.88037">
        <ele>278</ele>
        <time>2017-03-27T09:43:04Z</time>
      </trkpt>
      <trkpt lat="45.99123" lon="4.88039">
        <ele>278</ele>
        <time>2017-03-27T09:43:05Z</time>
      </trkpt>
      <trkpt lat="45.9913" lon="4.88044">
        <ele>279</ele>
        <time>2017-03-27T09:43:07Z</time>
      </trkpt>
      <trkpt lat="45.99134" lon="4.88046">
        <ele>279</ele>
        <time>2017-03-27T09:43:08Z</time>
      </trkpt>
      <trkpt lat="45.99142" lon="4.88051">
        <ele>279</ele>
        <time>2017-03-27T09:43:10Z</time>
      </trkpt>
      <trkpt lat="45.99146" lon="4.88054">
        <ele>279</ele>
        <time>2017-03-27T09:43:11Z</time>
      </trkpt>
      <trkpt lat="45.99154" lon="4.88059">
        <ele>279</ele>
        <time>2017-03-27T09:43:13Z</time>
      </trkpt>
      <trkpt lat="45.99157" lon="4.88061">
        <ele>279</ele>
        <time>2017-03-27T09:43:14Z</time>
      </trkpt>
      <trkpt lat="45.99165" lon="4.88064">
        <ele>279</ele>
        <time>2017-03-27T09:43:16Z</time>
      </trkpt>
      <trkpt lat="45.99169" lon="4.88067">
        <ele>279</ele>
        <time>2017-03-27T09:43:17Z</time>
      </trkpt>
      <trkpt lat="45.99176" lon="4.88073">
        <ele>279</ele>
        <time>2017-03-27T09:43:19Z</time>
      </trkpt>
      <trkpt lat="45.99179" lon="4.88077">
        <ele>279</ele>
        <time>2017-03-27T09:43:20Z</time>
      </trkpt>
      <trkpt lat="45.99187" lon="4.88083">
        <ele>279</ele>
        <time>2017-03-27T09:43:22Z</time>
      </trkpt>
      <trkpt lat="45.9919" lon="4.88085">
        <ele>280</ele>
        <time>2017-03-27T09:43:23Z</time>
      </trkpt>
      <trkpt lat="45.99197" lon="4.88091">
        <ele>280</ele>
        <time>2017-03-27T09:43:25Z</time>
      </trkpt>
      <trkpt lat="45.992" lon="4.88095">
        <ele>280</ele>
        <time>2017-03-27T09:43:26Z</time>
      </trkpt>
      <trkpt lat="45.99207" lon="4.881">
        <ele>280</ele>
        <time>2017-03-27T09:43:28Z</time>
      </trkpt>
      <trkpt lat="45.99211" lon="4.88104">
        <ele>280</ele>
        <time>2017-03-27T09:43:29Z</time>
      </trkpt>
      <trkpt lat="45.99215" lon="4.88107">
        <ele>280</ele>
        <time>2017-03-27T09:43:30Z</time>
      </trkpt>
      <trkpt lat="45.99219" lon="4.8811">
        <ele>280</ele>
        <time>2017-03-27T09:43:31Z</time>
      </trkpt>
      <trkpt lat="45.99226" lon="4.88116">
        <ele>280</ele>
        <time>2017-03-27T09:43:33Z</time>
      </trkpt>
      <trkpt lat="45.9923" lon="4.8812">
        <ele>280</ele>
        <time>2017-03-27T09:43:34Z</time>
      </trkpt>
      <trkpt lat="45.99238" lon="4.88127">
        <ele>280</ele>
        <time>2017-03-27T09:43:36Z</time>
      </trkpt>
      <trkpt lat="45.99241" lon="4.8813">
        <ele>280</ele>
        <time>2017-03-27T09:43:37Z</time>
      </trkpt>
      <trkpt lat="45.99248" lon="4.88137">
        <ele>280</ele>
        <time>2017-03-27T09:43:39Z</time>
      </trkpt>
      <trkpt lat="45.99252" lon="4.88141">
        <ele>283</ele>
        <time>2017-03-27T09:43:40Z</time>
      </trkpt>
      <trkpt lat="45.99259" lon="4.88148">
        <ele>283</ele>
        <time>2017-03-27T09:43:42Z</time>
      </trkpt>
      <trkpt lat="45.99263" lon="4.88151">
        <ele>283</ele>
        <time>2017-03-27T09:43:43Z</time>
      </trkpt>
      <trkpt lat="45.99267" lon="4.88154">
        <ele>283</ele>
        <time>2017-03-27T09:43:44Z</time>
      </trkpt>
      <trkpt lat="45.99271" lon="4.88158">
        <ele>283</ele>
        <time>2017-03-27T09:43:45Z</time>
      </trkpt>
      <trkpt lat="45.99277" lon="4.88165">
        <ele>283</ele>
        <time>2017-03-27T09:43:47Z</time>
      </trkpt>
      <trkpt lat="45.99281" lon="4.88169">
        <ele>283</ele>
        <time>2017-03-27T09:43:48Z</time>
      </trkpt>
      <trkpt lat="45.99288" lon="4.88176">
        <ele>284</ele>
        <time>2017-03-27T09:43:50Z</time>
      </trkpt>
      <trkpt lat="45.99292" lon="4.8818">
        <ele>284</ele>
        <time>2017-03-27T09:43:51Z</time>
      </trkpt>
      <trkpt lat="45.99296" lon="4.88183">
        <ele>284</ele>
        <time>2017-03-27T09:43:52Z</time>
      </trkpt>
      <trkpt lat="45.993" lon="4.88186">
        <ele>284</ele>
        <time>2017-03-27T09:43:53Z</time>
      </trkpt>
      <trkpt lat="45.99308" lon="4.88193">
        <ele>285</ele>
        <time>2017-03-27T09:43:55Z</time>
      </trkpt>
      <trkpt lat="45.99312" lon="4.88196">
        <ele>285</ele>
        <time>2017-03-27T09:43:56Z</time>
      </trkpt>
      <trkpt lat="45.99318" lon="4.88203">
        <ele>285</ele>
        <time>2017-03-27T09:43:58Z</time>
      </trkpt>
      <trkpt lat="45.99322" lon="4.88207">
        <ele>285</ele>
        <time>2017-03-27T09:43:59Z</time>
      </trkpt>
      <trkpt lat="45.99325" lon="4.8821">
        <ele>285</ele>
        <time>2017-03-27T09:44:00Z</time>
      </trkpt>
      <trkpt lat="45.99329" lon="4.88215">
        <ele>285</ele>
        <time>2017-03-27T09:44:01Z</time>
      </trkpt>
      <trkpt lat="45.99333" lon="4.88219">
        <ele>285</ele>
        <time>2017-03-27T09:44:02Z</time>
      </trkpt>
      <trkpt lat="45.99338" lon="4.88223">
        <ele>287</ele>
        <time>2017-03-27T09:44:03Z</time>
      </trkpt>
      <trkpt lat="45.99342" lon="4.88226">
        <ele>287</ele>
        <time>2017-03-27T09:44:04Z</time>
      </trkpt>
      <trkpt lat="45.99346" lon="4.8823">
        <ele>287</ele>
        <time>2017-03-27T09:44:05Z</time>
      </trkpt>
      <trkpt lat="45.99351" lon="4.88234">
        <ele>287</ele>
        <time>2017-03-27T09:44:06Z</time>
      </trkpt>
      <trkpt lat="45.99355" lon="4.88237">
        <ele>287</ele>
        <time>2017-03-27T09:44:07Z</time>
      </trkpt>
      <trkpt lat="45.99359" lon="4.88242">
        <ele>287</ele>
        <time>2017-03-27T09:44:08Z</time>
      </trkpt>
      <trkpt lat="45.99363" lon="4.88245">
        <ele>287</ele>
        <time>2017-03-27T09:44:09Z</time>
      </trkpt>
      <trkpt lat="45.99366" lon="4.8825">
        <ele>287</ele>
        <time>2017-03-27T09:44:10Z</time>
      </trkpt>
      <trkpt lat="45.9937" lon="4.88254">
        <ele>285</ele>
        <time>2017-03-27T09:44:11Z</time>
      </trkpt>
      <trkpt lat="45.99376" lon="4.88264">
        <ele>285</ele>
        <time>2017-03-27T09:44:13Z</time>
      </trkpt>
      <trkpt lat="45.99379" lon="4.88269">
        <ele>285</ele>
        <time>2017-03-27T09:44:14Z</time>
      </trkpt>
      <trkpt lat="45.99384" lon="4.8828">
        <ele>284</ele>
        <time>2017-03-27T09:44:16Z</time>
      </trkpt>
      <trkpt lat="45.99388" lon="4.88285">
        <ele>284</ele>
        <time>2017-03-27T09:44:17Z</time>
      </trkpt>
      <trkpt lat="45.9939" lon="4.8829">
        <ele>284</ele>
        <time>2017-03-27T09:44:18Z</time>
      </trkpt>
      <trkpt lat="45.99393" lon="4.88296">
        <ele>284</ele>
        <time>2017-03-27T09:44:19Z</time>
      </trkpt>
      <trkpt lat="45.99397" lon="4.88306">
        <ele>284</ele>
        <time>2017-03-27T09:44:21Z</time>
      </trkpt>
      <trkpt lat="45.99399" lon="4.88312">
        <ele>283</ele>
        <time>2017-03-27T09:44:22Z</time>
      </trkpt>
      <trkpt lat="45.99401" lon="4.88317">
        <ele>283</ele>
        <time>2017-03-27T09:44:23Z</time>
      </trkpt>
      <trkpt lat="45.99404" lon="4.88323">
        <ele>283</ele>
        <time>2017-03-27T09:44:24Z</time>
      </trkpt>
      <trkpt lat="45.99407" lon="4.88329">
        <ele>283</ele>
        <time>2017-03-27T09:44:25Z</time>
      </trkpt>
      <trkpt lat="45.9941" lon="4.88336">
        <ele>282</ele>
        <time>2017-03-27T09:44:26Z</time>
      </trkpt>
      <trkpt lat="45.99413" lon="4.88343">
        <ele>282</ele>
        <time>2017-03-27T09:44:27Z</time>
      </trkpt>
      <trkpt lat="45.99416" lon="4.8835">
        <ele>282</ele>
        <time>2017-03-27T09:44:28Z</time>
      </trkpt>
      <trkpt lat="45.99418" lon="4.88357">
        <ele>283</ele>
        <time>2017-03-27T09:44:29Z</time>
      </trkpt>
      <trkpt lat="45.99421" lon="4.88363">
        <ele>283</ele>
        <time>2017-03-27T09:44:30Z</time>
      </trkpt>
      <trkpt lat="45.99424" lon="4.8837">
        <ele>283</ele>
        <time>2017-03-27T09:44:31Z</time>
      </trkpt>
      <trkpt lat="45.99426" lon="4.88376">
        <ele>283</ele>
        <time>2017-03-27T09:44:32Z</time>
      </trkpt>
      <trkpt lat="45.99429" lon="4.88383">
        <ele>283</ele>
        <time>2017-03-27T09:44:33Z</time>
      </trkpt>
      <trkpt lat="45.99432" lon="4.88389">
        <ele>283</ele>
        <time>2017-03-27T09:44:34Z</time>
      </trkpt>
      <trkpt lat="45.99435" lon="4.88396">
        <ele>283</ele>
        <time>2017-03-27T09:44:35Z</time>
      </trkpt>
      <trkpt lat="45.99439" lon="4.88402">
        <ele>283</ele>
        <time>2017-03-27T09:44:36Z</time>
      </trkpt>
      <trkpt lat="45.99443" lon="4.88407">
        <ele>283</ele>
        <time>2017-03-27T09:44:37Z</time>
      </trkpt>
      <trkpt lat="45.99447" lon="4.88412">
        <ele>283</ele>
        <time>2017-03-27T09:44:38Z</time>
      </trkpt>
      <trkpt lat="45.99451" lon="4.88416">
        <ele>283</ele>
        <time>2017-03-27T09:44:39Z</time>
      </trkpt>
      <trkpt lat="45.99455" lon="4.88421">
        <ele>283</ele>
        <time>2017-03-27T09:44:40Z</time>
      </trkpt>
      <trkpt lat="45.99459" lon="4.88424">
        <ele>284</ele>
        <time>2017-03-27T09:44:41Z</time>
      </trkpt>
      <trkpt lat="45.99464" lon="4.88428">
        <ele>284</ele>
        <time>2017-03-27T09:44:42Z</time>
      </trkpt>
      <trkpt lat="45.99469" lon="4.88433">
        <ele>284</ele>
        <time>2017-03-27T09:44:43Z</time>
      </trkpt>
      <trkpt lat="45.99473" lon="4.88438">
        <ele>284</ele>
        <time>2017-03-27T09:44:44Z</time>
      </trkpt>
      <trkpt lat="45.99477" lon="4.88443">
        <ele>284</ele>
        <time>2017-03-27T09:44:45Z</time>
      </trkpt>
      <trkpt lat="45.99481" lon="4.88449">
        <ele>284</ele>
        <time>2017-03-27T09:44:46Z</time>
      </trkpt>
      <trkpt lat="45.99485" lon="4.88456">
        <ele>284</ele>
        <time>2017-03-27T09:44:47Z</time>
      </trkpt>
      <trkpt lat="45.99488" lon="4.88462">
        <ele>284</ele>
        <time>2017-03-27T09:44:48Z</time>
      </trkpt>
      <trkpt lat="45.99491" lon="4.88468">
        <ele>284</ele>
        <time>2017-03-27T09:44:49Z</time>
      </trkpt>
      <trkpt lat="45.99494" lon="4.88475">
        <ele>284</ele>
        <time>2017-03-27T09:44:50Z</time>
      </trkpt>
      <trkpt lat="45.99497" lon="4.88481">
        <ele>284</ele>
        <time>2017-03-27T09:44:51Z</time>
      </trkpt>
      <trkpt lat="45.995" lon="4.88487">
        <ele>284</ele>
        <time>2017-03-27T09:44:52Z</time>
      </trkpt>
      <trkpt lat="45.99503" lon="4.88493">
        <ele>284</ele>
        <time>2017-03-27T09:44:53Z</time>
      </trkpt>
      <trkpt lat="45.99507" lon="4.885">
        <ele>284</ele>
        <time>2017-03-27T09:44:54Z</time>
      </trkpt>
      <trkpt lat="45.9951" lon="4.88506">
        <ele>284</ele>
        <time>2017-03-27T09:44:55Z</time>
      </trkpt>
      <trkpt lat="45.99514" lon="4.88513">
        <ele>285</ele>
        <time>2017-03-27T09:44:56Z</time>
      </trkpt>
      <trkpt lat="45.99517" lon="4.8852">
        <ele>285</ele>
        <time>2017-03-27T09:44:57Z</time>
      </trkpt>
      <trkpt lat="45.99521" lon="4.88526">
        <ele>285</ele>
        <time>2017-03-27T09:44:58Z</time>
      </trkpt>
      <trkpt lat="45.99524" lon="4.88533">
        <ele>285</ele>
        <time>2017-03-27T09:44:59Z</time>
      </trkpt>
      <trkpt lat="45.99527" lon="4.88539">
        <ele>285</ele>
        <time>2017-03-27T09:45:00Z</time>
      </trkpt>
      <trkpt lat="45.9953" lon="4.88545">
        <ele>285</ele>
        <time>2017-03-27T09:45:01Z</time>
      </trkpt>
      <trkpt lat="45.99533" lon="4.88551">
        <ele>285</ele>
        <time>2017-03-27T09:45:02Z</time>
      </trkpt>
      <trkpt lat="45.99535" lon="4.88557">
        <ele>285</ele>
        <time>2017-03-27T09:45:03Z</time>
      </trkpt>
      <trkpt lat="45.99538" lon="4.88564">
        <ele>285</ele>
        <time>2017-03-27T09:45:04Z</time>
      </trkpt>
      <trkpt lat="45.99539" lon="4.88571">
        <ele>285</ele>
        <time>2017-03-27T09:45:05Z</time>
      </trkpt>
      <trkpt lat="45.99541" lon="4.88579">
        <ele>286</ele>
        <time>2017-03-27T09:45:06Z</time>
      </trkpt>
      <trkpt lat="45.99542" lon="4.88586">
        <ele>286</ele>
        <time>2017-03-27T09:45:07Z</time>
      </trkpt>
      <trkpt lat="45.99544" lon="4.88593">
        <ele>286</ele>
        <time>2017-03-27T09:45:08Z</time>
      </trkpt>
      <trkpt lat="45.99546" lon="4.88602">
        <ele>286</ele>
        <time>2017-03-27T09:46:23Z</time>
      </trkpt>
      <trkpt lat="45.99547" lon="4.88606">
        <ele>286</ele>
        <time>2017-03-27T09:46:24Z</time>
      </trkpt>
      <trkpt lat="45.99548" lon="4.88618">
        <ele>286</ele>
        <time>2017-03-27T09:46:30Z</time>
      </trkpt>
      <trkpt lat="45.99548" lon="4.88622">
        <ele>286</ele>
        <time>2017-03-27T09:46:31Z</time>
      </trkpt>
      <trkpt lat="45.99548" lon="4.88631">
        <ele>286</ele>
        <time>2017-03-27T09:46:33Z</time>
      </trkpt>
      <trkpt lat="45.99549" lon="4.88636">
        <ele>286</ele>
        <time>2017-03-27T09:46:34Z</time>
      </trkpt>
      <trkpt lat="45.99549" lon="4.88643">
        <ele>286</ele>
        <time>2017-03-27T09:46:35Z</time>
      </trkpt>
      <trkpt lat="45.9955" lon="4.8865">
        <ele>286</ele>
        <time>2017-03-27T09:46:36Z</time>
      </trkpt>
      <trkpt lat="45.9955" lon="4.88657">
        <ele>286</ele>
        <time>2017-03-27T09:46:37Z</time>
      </trkpt>
      <trkpt lat="45.99551" lon="4.88665">
        <ele>286</ele>
        <time>2017-03-27T09:46:38Z</time>
      </trkpt>
      <trkpt lat="45.99552" lon="4.88673">
        <ele>286</ele>
        <time>2017-03-27T09:46:39Z</time>
      </trkpt>
      <trkpt lat="45.99552" lon="4.8868">
        <ele>286</ele>
        <time>2017-03-27T09:46:40Z</time>
      </trkpt>
      <trkpt lat="45.99553" lon="4.88688">
        <ele>286</ele>
        <time>2017-03-27T09:46:41Z</time>
      </trkpt>
      <trkpt lat="45.99554" lon="4.88696">
        <ele>286</ele>
        <time>2017-03-27T09:46:42Z</time>
      </trkpt>
      <trkpt lat="45.99554" lon="4.88704">
        <ele>286</ele>
        <time>2017-03-27T09:46:43Z</time>
      </trkpt>
      <trkpt lat="45.99555" lon="4.88712">
        <ele>286</ele>
        <time>2017-03-27T09:46:44Z</time>
      </trkpt>
      <trkpt lat="45.99555" lon="4.8872">
        <ele>286</ele>
        <time>2017-03-27T09:46:45Z</time>
      </trkpt>
      <trkpt lat="45.99556" lon="4.88727">
        <ele>286</ele>
        <time>2017-03-27T09:46:46Z</time>
      </trkpt>
      <trkpt lat="45.99557" lon="4.88733">
        <ele>286</ele>
        <time>2017-03-27T09:46:47Z</time>
      </trkpt>
      <trkpt lat="45.99557" lon="4.8874">
        <ele>286</ele>
        <time>2017-03-27T09:46:48Z</time>
      </trkpt>
      <trkpt lat="45.99558" lon="4.88747">
        <ele>287</ele>
        <time>2017-03-27T09:46:49Z</time>
      </trkpt>
      <trkpt lat="45.99559" lon="4.88754">
        <ele>287</ele>
        <time>2017-03-27T09:46:50Z</time>
      </trkpt>
      <trkpt lat="45.9956" lon="4.88762">
        <ele>287</ele>
        <time>2017-03-27T09:46:51Z</time>
      </trkpt>
      <trkpt lat="45.99561" lon="4.8877">
        <ele>287</ele>
        <time>2017-03-27T09:46:52Z</time>
      </trkpt>
      <trkpt lat="45.99561" lon="4.88779">
        <ele>287</ele>
        <time>2017-03-27T09:46:53Z</time>
      </trkpt>
      <trkpt lat="45.99562" lon="4.88787">
        <ele>287</ele>
        <time>2017-03-27T09:46:54Z</time>
      </trkpt>
      <trkpt lat="45.99563" lon="4.88795">
        <ele>287</ele>
        <time>2017-03-27T09:46:55Z</time>
      </trkpt>
      <trkpt lat="45.99565" lon="4.88803">
        <ele>287</ele>
        <time>2017-03-27T09:46:56Z</time>
      </trkpt>
      <trkpt lat="45.99565" lon="4.88811">
        <ele>287</ele>
        <time>2017-03-27T09:46:57Z</time>
      </trkpt>
      <trkpt lat="45.99566" lon="4.88819">
        <ele>287</ele>
        <time>2017-03-27T09:46:58Z</time>
      </trkpt>
      <trkpt lat="45.99568" lon="4.88827">
        <ele>287</ele>
        <time>2017-03-27T09:46:59Z</time>
      </trkpt>
      <trkpt lat="45.99569" lon="4.88833">
        <ele>287</ele>
        <time>2017-03-27T09:47:00Z</time>
      </trkpt>
      <trkpt lat="45.9957" lon="4.8884">
        <ele>287</ele>
        <time>2017-03-27T09:47:01Z</time>
      </trkpt>
      <trkpt lat="45.99571" lon="4.88847">
        <ele>287</ele>
        <time>2017-03-27T09:47:02Z</time>
      </trkpt>
      <trkpt lat="45.99571" lon="4.88855">
        <ele>287</ele>
        <time>2017-03-27T09:47:03Z</time>
      </trkpt>
      <trkpt lat="45.99571" lon="4.88862">
        <ele>287</ele>
        <time>2017-03-27T09:47:04Z</time>
      </trkpt>
      <trkpt lat="45.99572" lon="4.88868">
        <ele>287</ele>
        <time>2017-03-27T09:47:05Z</time>
      </trkpt>
      <trkpt lat="45.99572" lon="4.88876">
        <ele>287</ele>
        <time>2017-03-27T09:47:06Z</time>
      </trkpt>
      <trkpt lat="45.99573" lon="4.88884">
        <ele>287</ele>
        <time>2017-03-27T09:47:07Z</time>
      </trkpt>
      <trkpt lat="45.99574" lon="4.88892">
        <ele>287</ele>
        <time>2017-03-27T09:47:08Z</time>
      </trkpt>
      <trkpt lat="45.99575" lon="4.88899">
        <ele>287</ele>
        <time>2017-03-27T09:47:09Z</time>
      </trkpt>
      <trkpt lat="45.99576" lon="4.88907">
        <ele>287</ele>
        <time>2017-03-27T09:47:10Z</time>
      </trkpt>
      <trkpt lat="45.99577" lon="4.88915">
        <ele>287</ele>
        <time>2017-03-27T09:47:11Z</time>
      </trkpt>
      <trkpt lat="45.99577" lon="4.88923">
        <ele>287</ele>
        <time>2017-03-27T09:47:12Z</time>
      </trkpt>
      <trkpt lat="45.99578" lon="4.88931">
        <ele>287</ele>
        <time>2017-03-27T09:47:13Z</time>
      </trkpt>
      <trkpt lat="45.99578" lon="4.88938">
        <ele>287</ele>
        <time>2017-03-27T09:47:14Z</time>
      </trkpt>
      <trkpt lat="45.99579" lon="4.88946">
        <ele>287</ele>
        <time>2017-03-27T09:47:15Z</time>
      </trkpt>
      <trkpt lat="45.9958" lon="4.88953">
        <ele>287</ele>
        <time>2017-03-27T09:47:16Z</time>
      </trkpt>
      <trkpt lat="45.99581" lon="4.88961">
        <ele>287</ele>
        <time>2017-03-27T09:47:17Z</time>
      </trkpt>
      <trkpt lat="45.99581" lon="4.88968">
        <ele>287</ele>
        <time>2017-03-27T09:47:18Z</time>
      </trkpt>
      <trkpt lat="45.99581" lon="4.88975">
        <ele>287</ele>
        <time>2017-03-27T09:47:19Z</time>
      </trkpt>
      <trkpt lat="45.99581" lon="4.88982">
        <ele>287</ele>
        <time>2017-03-27T09:47:20Z</time>
      </trkpt>
      <trkpt lat="45.99581" lon="4.88989">
        <ele>288</ele>
        <time>2017-03-27T09:47:21Z</time>
      </trkpt>
      <trkpt lat="45.99581" lon="4.88996">
        <ele>288</ele>
        <time>2017-03-27T09:47:22Z</time>
      </trkpt>
      <trkpt lat="45.99581" lon="4.89004">
        <ele>288</ele>
        <time>2017-03-27T09:47:23Z</time>
      </trkpt>
      <trkpt lat="45.9958" lon="4.89011">
        <ele>288</ele>
        <time>2017-03-27T09:47:24Z</time>
      </trkpt>
      <trkpt lat="45.9958" lon="4.89018">
        <ele>288</ele>
        <time>2017-03-27T09:47:25Z</time>
      </trkpt>
      <trkpt lat="45.99579" lon="4.89025">
        <ele>288</ele>
        <time>2017-03-27T09:47:26Z</time>
      </trkpt>
      <trkpt lat="45.99578" lon="4.89032">
        <ele>288</ele>
        <time>2017-03-27T09:47:27Z</time>
      </trkpt>
      <trkpt lat="45.99578" lon="4.8904">
        <ele>288</ele>
        <time>2017-03-27T09:47:28Z</time>
      </trkpt>
      <trkpt lat="45.99577" lon="4.89047">
        <ele>288</ele>
        <time>2017-03-27T09:47:29Z</time>
      </trkpt>
      <trkpt lat="45.99577" lon="4.89054">
        <ele>288</ele>
        <time>2017-03-27T09:47:30Z</time>
      </trkpt>
      <trkpt lat="45.99576" lon="4.89066">
        <ele>289</ele>
        <time>2017-03-27T09:47:32Z</time>
      </trkpt>
      <trkpt lat="45.99575" lon="4.89074">
        <ele>289</ele>
        <time>2017-03-27T09:47:33Z</time>
      </trkpt>
      <trkpt lat="45.99575" lon="4.89081">
        <ele>289</ele>
        <time>2017-03-27T09:47:34Z</time>
      </trkpt>
      <trkpt lat="45.99574" lon="4.89088">
        <ele>289</ele>
        <time>2017-03-27T09:47:35Z</time>
      </trkpt>
      <trkpt lat="45.99573" lon="4.89095">
        <ele>289</ele>
        <time>2017-03-27T09:47:36Z</time>
      </trkpt>
      <trkpt lat="45.99573" lon="4.89103">
        <ele>289</ele>
        <time>2017-03-27T09:47:37Z</time>
      </trkpt>
      <trkpt lat="45.99572" lon="4.89111">
        <ele>289</ele>
        <time>2017-03-27T09:47:38Z</time>
      </trkpt>
      <trkpt lat="45.99572" lon="4.89118">
        <ele>289</ele>
        <time>2017-03-27T09:47:39Z</time>
      </trkpt>
      <trkpt lat="45.99572" lon="4.89125">
        <ele>289</ele>
        <time>2017-03-27T09:47:40Z</time>
      </trkpt>
      <trkpt lat="45.99572" lon="4.89133">
        <ele>289</ele>
        <time>2017-03-27T09:47:41Z</time>
      </trkpt>
      <trkpt lat="45.99573" lon="4.8914">
        <ele>289</ele>
        <time>2017-03-27T09:47:42Z</time>
      </trkpt>
      <trkpt lat="45.99574" lon="4.89147">
        <ele>289</ele>
        <time>2017-03-27T09:47:43Z</time>
      </trkpt>
      <trkpt lat="45.99574" lon="4.89154">
        <ele>289</ele>
        <time>2017-03-27T09:47:44Z</time>
      </trkpt>
      <trkpt lat="45.99573" lon="4.8916">
        <ele>288</ele>
        <time>2017-03-27T09:47:45Z</time>
      </trkpt>
      <trkpt lat="45.99574" lon="4.89167">
        <ele>288</ele>
        <time>2017-03-27T09:47:46Z</time>
      </trkpt>
      <trkpt lat="45.99574" lon="4.89174">
        <ele>288</ele>
        <time>2017-03-27T09:47:47Z</time>
      </trkpt>
      <trkpt lat="45.99573" lon="4.8918">
        <ele>288</ele>
        <time>2017-03-27T09:47:48Z</time>
      </trkpt>
      <trkpt lat="45.99574" lon="4.89187">
        <ele>288</ele>
        <time>2017-03-27T09:47:49Z</time>
      </trkpt>
      <trkpt lat="45.99574" lon="4.89199">
        <ele>288</ele>
        <time>2017-03-27T09:47:51Z</time>
      </trkpt>
      <trkpt lat="45.99574" lon="4.89206">
        <ele>288</ele>
        <time>2017-03-27T09:47:52Z</time>
      </trkpt>
      <trkpt lat="45.99575" lon="4.89213">
        <ele>288</ele>
        <time>2017-03-27T09:47:53Z</time>
      </trkpt>
      <trkpt lat="45.99576" lon="4.89219">
        <ele>288</ele>
        <time>2017-03-27T09:47:54Z</time>
      </trkpt>
      <trkpt lat="45.99576" lon="4.89226">
        <ele>288</ele>
        <time>2017-03-27T09:47:55Z</time>
      </trkpt>
      <trkpt lat="45.99577" lon="4.89233">
        <ele>288</ele>
        <time>2017-03-27T09:47:56Z</time>
      </trkpt>
      <trkpt lat="45.99577" lon="4.8924">
        <ele>288</ele>
        <time>2017-03-27T09:47:57Z</time>
      </trkpt>
      <trkpt lat="45.99577" lon="4.89247">
        <ele>288</ele>
        <time>2017-03-27T09:47:58Z</time>
      </trkpt>
      <trkpt lat="45.99578" lon="4.89254">
        <ele>288</ele>
        <time>2017-03-27T09:47:59Z</time>
      </trkpt>
      <trkpt lat="45.99579" lon="4.89261">
        <ele>288</ele>
        <time>2017-03-27T09:48:00Z</time>
      </trkpt>
      <trkpt lat="45.99579" lon="4.89269">
        <ele>288</ele>
        <time>2017-03-27T09:48:01Z</time>
      </trkpt>
      <trkpt lat="45.9958" lon="4.89276">
        <ele>288</ele>
        <time>2017-03-27T09:48:02Z</time>
      </trkpt>
      <trkpt lat="45.9958" lon="4.89283">
        <ele>288</ele>
        <time>2017-03-27T09:48:03Z</time>
      </trkpt>
      <trkpt lat="45.99581" lon="4.8929">
        <ele>288</ele>
        <time>2017-03-27T09:48:04Z</time>
      </trkpt>
      <trkpt lat="45.99582" lon="4.89298">
        <ele>288</ele>
        <time>2017-03-27T09:48:05Z</time>
      </trkpt>
      <trkpt lat="45.99583" lon="4.89305">
        <ele>288</ele>
        <time>2017-03-27T09:48:06Z</time>
      </trkpt>
      <trkpt lat="45.99583" lon="4.89313">
        <ele>288</ele>
        <time>2017-03-27T09:48:07Z</time>
      </trkpt>
      <trkpt lat="45.99583" lon="4.8932">
        <ele>288</ele>
        <time>2017-03-27T09:48:08Z</time>
      </trkpt>
      <trkpt lat="45.99583" lon="4.89329">
        <ele>289</ele>
        <time>2017-03-27T09:48:09Z</time>
      </trkpt>
      <trkpt lat="45.99584" lon="4.89336">
        <ele>289</ele>
        <time>2017-03-27T09:48:10Z</time>
      </trkpt>
      <trkpt lat="45.99584" lon="4.89345">
        <ele>289</ele>
        <time>2017-03-27T09:48:11Z</time>
      </trkpt>
      <trkpt lat="45.99585" lon="4.89352">
        <ele>289</ele>
        <time>2017-03-27T09:48:12Z</time>
      </trkpt>
      <trkpt lat="45.99585" lon="4.8936">
        <ele>289</ele>
        <time>2017-03-27T09:48:13Z</time>
      </trkpt>
      <trkpt lat="45.99586" lon="4.89367">
        <ele>289</ele>
        <time>2017-03-27T09:48:14Z</time>
      </trkpt>
      <trkpt lat="45.99587" lon="4.89373">
        <ele>289</ele>
        <time>2017-03-27T09:48:15Z</time>
      </trkpt>
      <trkpt lat="45.99587" lon="4.8938">
        <ele>290</ele>
        <time>2017-03-27T09:48:16Z</time>
      </trkpt>
      <trkpt lat="45.99587" lon="4.89387">
        <ele>290</ele>
        <time>2017-03-27T09:48:17Z</time>
      </trkpt>
      <trkpt lat="45.99588" lon="4.89394">
        <ele>290</ele>
        <time>2017-03-27T09:48:18Z</time>
      </trkpt>
      <trkpt lat="45.99588" lon="4.894">
        <ele>290</ele>
        <time>2017-03-27T09:48:19Z</time>
      </trkpt>
      <trkpt lat="45.99588" lon="4.89407">
        <ele>290</ele>
        <time>2017-03-27T09:48:20Z</time>
      </trkpt>
      <trkpt lat="45.99588" lon="4.89413">
        <ele>290</ele>
        <time>2017-03-27T09:48:21Z</time>
      </trkpt>
      <trkpt lat="45.99588" lon="4.8942">
        <ele>290</ele>
        <time>2017-03-27T09:48:22Z</time>
      </trkpt>
      <trkpt lat="45.99588" lon="4.89426">
        <ele>290</ele>
        <time>2017-03-27T09:48:23Z</time>
      </trkpt>
      <trkpt lat="45.99588" lon="4.89433">
        <ele>290</ele>
        <time>2017-03-27T09:48:24Z</time>
      </trkpt>
      <trkpt lat="45.99589" lon="4.8944">
        <ele>290</ele>
        <time>2017-03-27T09:48:25Z</time>
      </trkpt>
      <trkpt lat="45.99589" lon="4.89446">
        <ele>290</ele>
        <time>2017-03-27T09:48:26Z</time>
      </trkpt>
      <trkpt lat="45.9959" lon="4.89453">
        <ele>290</ele>
        <time>2017-03-27T09:48:27Z</time>
      </trkpt>
      <trkpt lat="45.99591" lon="4.89459">
        <ele>290</ele>
        <time>2017-03-27T09:48:28Z</time>
      </trkpt>
      <trkpt lat="45.99591" lon="4.89466">
        <ele>290</ele>
        <time>2017-03-27T09:48:29Z</time>
      </trkpt>
      <trkpt lat="45.99592" lon="4.89472">
        <ele>290</ele>
        <time>2017-03-27T09:48:30Z</time>
      </trkpt>
      <trkpt lat="45.99592" lon="4.89479">
        <ele>290</ele>
        <time>2017-03-27T09:48:31Z</time>
      </trkpt>
      <trkpt lat="45.99593" lon="4.89486">
        <ele>290</ele>
        <time>2017-03-27T09:48:32Z</time>
      </trkpt>
      <trkpt lat="45.99593" lon="4.89493">
        <ele>290</ele>
        <time>2017-03-27T09:48:33Z</time>
      </trkpt>
      <trkpt lat="45.99593" lon="4.89501">
        <ele>290</ele>
        <time>2017-03-27T09:48:34Z</time>
      </trkpt>
      <trkpt lat="45.99594" lon="4.89508">
        <ele>290</ele>
        <time>2017-03-27T09:48:35Z</time>
      </trkpt>
      <trkpt lat="45.99594" lon="4.89515">
        <ele>290</ele>
        <time>2017-03-27T09:48:36Z</time>
      </trkpt>
      <trkpt lat="45.99594" lon="4.89522">
        <ele>291</ele>
        <time>2017-03-27T09:48:37Z</time>
      </trkpt>
      <trkpt lat="45.99595" lon="4.89528">
        <ele>291</ele>
        <time>2017-03-27T09:48:38Z</time>
      </trkpt>
      <trkpt lat="45.99596" lon="4.89535">
        <ele>291</ele>
        <time>2017-03-27T09:48:39Z</time>
      </trkpt>
      <trkpt lat="45.99596" lon="4.89541">
        <ele>291</ele>
        <time>2017-03-27T09:48:40Z</time>
      </trkpt>
      <trkpt lat="45.99597" lon="4.89548">
        <ele>291</ele>
        <time>2017-03-27T09:48:41Z</time>
      </trkpt>
      <trkpt lat="45.99597" lon="4.89554">
        <ele>291</ele>
        <time>2017-03-27T09:48:42Z</time>
      </trkpt>
      <trkpt lat="45.99598" lon="4.89562">
        <ele>291</ele>
        <time>2017-03-27T09:48:43Z</time>
      </trkpt>
      <trkpt lat="45.99598" lon="4.89569">
        <ele>291</ele>
        <time>2017-03-27T09:48:44Z</time>
      </trkpt>
      <trkpt lat="45.99599" lon="4.89576">
        <ele>291</ele>
        <time>2017-03-27T09:48:45Z</time>
      </trkpt>
      <trkpt lat="45.99598" lon="4.89582">
        <ele>291</ele>
        <time>2017-03-27T09:48:46Z</time>
      </trkpt>
      <trkpt lat="45.99599" lon="4.8959">
        <ele>292</ele>
        <time>2017-03-27T09:48:47Z</time>
      </trkpt>
      <trkpt lat="45.99599" lon="4.89597">
        <ele>292</ele>
        <time>2017-03-27T09:48:48Z</time>
      </trkpt>
      <trkpt lat="45.99599" lon="4.89605">
        <ele>292</ele>
        <time>2017-03-27T09:48:49Z</time>
      </trkpt>
      <trkpt lat="45.99599" lon="4.89612">
        <ele>291</ele>
        <time>2017-03-27T09:48:50Z</time>
      </trkpt>
      <trkpt lat="45.99599" lon="4.89619">
        <ele>291</ele>
        <time>2017-03-27T09:48:51Z</time>
      </trkpt>
      <trkpt lat="45.99599" lon="4.89625">
        <ele>291</ele>
        <time>2017-03-27T09:48:52Z</time>
      </trkpt>
      <trkpt lat="45.99599" lon="4.89638">
        <ele>291</ele>
        <time>2017-03-27T09:48:54Z</time>
      </trkpt>
      <trkpt lat="45.99599" lon="4.89643">
        <ele>291</ele>
        <time>2017-03-27T09:48:55Z</time>
      </trkpt>
      <trkpt lat="45.996" lon="4.89653">
        <ele>292</ele>
        <time>2017-03-27T09:48:57Z</time>
      </trkpt>
      <trkpt lat="45.996" lon="4.89658">
        <ele>292</ele>
        <time>2017-03-27T09:48:58Z</time>
      </trkpt>
      <trkpt lat="45.996" lon="4.89671">
        <ele>292</ele>
        <time>2017-03-27T09:49:00Z</time>
      </trkpt>
      <trkpt lat="45.996" lon="4.89677">
        <ele>292</ele>
        <time>2017-03-27T09:49:01Z</time>
      </trkpt>
      <trkpt lat="45.996" lon="4.89683">
        <ele>292</ele>
        <time>2017-03-27T09:49:02Z</time>
      </trkpt>
      <trkpt lat="45.996" lon="4.89691">
        <ele>292</ele>
        <time>2017-03-27T09:49:03Z</time>
      </trkpt>
      <trkpt lat="45.996" lon="4.89703">
        <ele>292</ele>
        <time>2017-03-27T09:49:05Z</time>
      </trkpt>
      <trkpt lat="45.99602" lon="4.8971">
        <ele>292</ele>
        <time>2017-03-27T09:49:06Z</time>
      </trkpt>
      <trkpt lat="45.99603" lon="4.89717">
        <ele>292</ele>
        <time>2017-03-27T09:49:07Z</time>
      </trkpt>
      <trkpt lat="45.99603" lon="4.89724">
        <ele>292</ele>
        <time>2017-03-27T09:49:08Z</time>
      </trkpt>
      <trkpt lat="45.99602" lon="4.8973">
        <ele>292</ele>
        <time>2017-03-27T09:49:09Z</time>
      </trkpt>
      <trkpt lat="45.99602" lon="4.89737">
        <ele>292</ele>
        <time>2017-03-27T09:49:10Z</time>
      </trkpt>
      <trkpt lat="45.99602" lon="4.89749">
        <ele>292</ele>
        <time>2017-03-27T09:49:12Z</time>
      </trkpt>
      <trkpt lat="45.99601" lon="4.89755">
        <ele>292</ele>
        <time>2017-03-27T09:49:13Z</time>
      </trkpt>
      <trkpt lat="45.99599" lon="4.89767">
        <ele>292</ele>
        <time>2017-03-27T09:49:15Z</time>
      </trkpt>
      <trkpt lat="45.99599" lon="4.89775">
        <ele>292</ele>
        <time>2017-03-27T09:49:16Z</time>
      </trkpt>
      <trkpt lat="45.99599" lon="4.89783">
        <ele>292</ele>
        <time>2017-03-27T09:49:17Z</time>
      </trkpt>
      <trkpt lat="45.99599" lon="4.8979">
        <ele>292</ele>
        <time>2017-03-27T09:49:18Z</time>
      </trkpt>
      <trkpt lat="45.99599" lon="4.89801">
        <ele>292</ele>
        <time>2017-03-27T09:49:20Z</time>
      </trkpt>
      <trkpt lat="45.99599" lon="4.89807">
        <ele>292</ele>
        <time>2017-03-27T09:49:21Z</time>
      </trkpt>
      <trkpt lat="45.99599" lon="4.89817">
        <ele>292</ele>
        <time>2017-03-27T09:49:23Z</time>
      </trkpt>
      <trkpt lat="45.99599" lon="4.89822">
        <ele>293</ele>
        <time>2017-03-27T09:49:24Z</time>
      </trkpt>
      <trkpt lat="45.996" lon="4.89834">
        <ele>293</ele>
        <time>2017-03-27T09:49:26Z</time>
      </trkpt>
      <trkpt lat="45.99599" lon="4.89842">
        <ele>293</ele>
        <time>2017-03-27T09:49:27Z</time>
      </trkpt>
      <trkpt lat="45.99599" lon="4.8985">
        <ele>293</ele>
        <time>2017-03-27T09:49:28Z</time>
      </trkpt>
      <trkpt lat="45.99599" lon="4.89858">
        <ele>293</ele>
        <time>2017-03-27T09:49:29Z</time>
      </trkpt>
      <trkpt lat="45.99598" lon="4.89867">
        <ele>293</ele>
        <time>2017-03-27T09:49:30Z</time>
      </trkpt>
      <trkpt lat="45.99598" lon="4.89875">
        <ele>292</ele>
        <time>2017-03-27T09:49:31Z</time>
      </trkpt>
      <trkpt lat="45.99598" lon="4.89883">
        <ele>292</ele>
        <time>2017-03-27T09:49:32Z</time>
      </trkpt>
      <trkpt lat="45.99598" lon="4.89891">
        <ele>292</ele>
        <time>2017-03-27T09:49:33Z</time>
      </trkpt>
      <trkpt lat="45.99598" lon="4.899">
        <ele>292</ele>
        <time>2017-03-27T09:49:34Z</time>
      </trkpt>
      <trkpt lat="45.99598" lon="4.89907">
        <ele>292</ele>
        <time>2017-03-27T09:49:35Z</time>
      </trkpt>
      <trkpt lat="45.99598" lon="4.89919">
        <ele>293</ele>
        <time>2017-03-27T09:49:37Z</time>
      </trkpt>
      <trkpt lat="45.99598" lon="4.89925">
        <ele>293</ele>
        <time>2017-03-27T09:49:38Z</time>
      </trkpt>
      <trkpt lat="45.99598" lon="4.89931">
        <ele>293</ele>
        <time>2017-03-27T09:49:39Z</time>
      </trkpt>
      <trkpt lat="45.99599" lon="4.89938">
        <ele>293</ele>
        <time>2017-03-27T09:49:40Z</time>
      </trkpt>
      <trkpt lat="45.996" lon="4.8995">
        <ele>294</ele>
        <time>2017-03-27T09:49:42Z</time>
      </trkpt>
      <trkpt lat="45.996" lon="4.89957">
        <ele>294</ele>
        <time>2017-03-27T09:49:43Z</time>
      </trkpt>
      <trkpt lat="45.996" lon="4.8997">
        <ele>294</ele>
        <time>2017-03-27T09:49:45Z</time>
      </trkpt>
      <trkpt lat="45.996" lon="4.89976">
        <ele>294</ele>
        <time>2017-03-27T09:49:46Z</time>
      </trkpt>
      <trkpt lat="45.99601" lon="4.89988">
        <ele>294</ele>
        <time>2017-03-27T09:49:48Z</time>
      </trkpt>
      <trkpt lat="45.99602" lon="4.89994">
        <ele>295</ele>
        <time>2017-03-27T09:49:49Z</time>
      </trkpt>
      <trkpt lat="45.99604" lon="4.90006">
        <ele>296</ele>
        <time>2017-03-27T09:49:51Z</time>
      </trkpt>
      <trkpt lat="45.99606" lon="4.90012">
        <ele>296</ele>
        <time>2017-03-27T09:49:52Z</time>
      </trkpt>
      <trkpt lat="45.99608" lon="4.90018">
        <ele>296</ele>
        <time>2017-03-27T09:49:53Z</time>
      </trkpt>
      <trkpt lat="45.9961" lon="4.90025">
        <ele>296</ele>
        <time>2017-03-27T09:49:54Z</time>
      </trkpt>
      <trkpt lat="45.99612" lon="4.90031">
        <ele>296</ele>
        <time>2017-03-27T09:49:55Z</time>
      </trkpt>
      <trkpt lat="45.99614" lon="4.90037">
        <ele>296</ele>
        <time>2017-03-27T09:49:56Z</time>
      </trkpt>
      <trkpt lat="45.99618" lon="4.90047">
        <ele>297</ele>
        <time>2017-03-27T09:49:58Z</time>
      </trkpt>
      <trkpt lat="45.9962" lon="4.90052">
        <ele>297</ele>
        <time>2017-03-27T09:49:59Z</time>
      </trkpt>
      <trkpt lat="45.99624" lon="4.90062">
        <ele>297</ele>
        <time>2017-03-27T09:50:01Z</time>
      </trkpt>
      <trkpt lat="45.99626" lon="4.90068">
        <ele>297</ele>
        <time>2017-03-27T09:50:02Z</time>
      </trkpt>
      <trkpt lat="45.99628" lon="4.90074">
        <ele>297</ele>
        <time>2017-03-27T09:50:03Z</time>
      </trkpt>
      <trkpt lat="45.99629" lon="4.90081">
        <ele>297</ele>
        <time>2017-03-27T09:50:04Z</time>
      </trkpt>
      <trkpt lat="45.9963" lon="4.90093">
        <ele>299</ele>
        <time>2017-03-27T09:50:06Z</time>
      </trkpt>
      <trkpt lat="45.99632" lon="4.90098">
        <ele>299</ele>
        <time>2017-03-27T09:50:07Z</time>
      </trkpt>
      <trkpt lat="45.99635" lon="4.90108">
        <ele>299</ele>
        <time>2017-03-27T09:50:09Z</time>
      </trkpt>
      <trkpt lat="45.99636" lon="4.90113">
        <ele>299</ele>
        <time>2017-03-27T09:50:10Z</time>
      </trkpt>
      <trkpt lat="45.99638" lon="4.90122">
        <ele>299</ele>
        <time>2017-03-27T09:50:12Z</time>
      </trkpt>
      <trkpt lat="45.99639" lon="4.90126">
        <ele>299</ele>
        <time>2017-03-27T09:50:13Z</time>
      </trkpt>
      <trkpt lat="45.99642" lon="4.90135">
        <ele>299</ele>
        <time>2017-03-27T09:50:15Z</time>
      </trkpt>
      <trkpt lat="45.99643" lon="4.90139">
        <ele>299</ele>
        <time>2017-03-27T09:50:16Z</time>
      </trkpt>
      <trkpt lat="45.99646" lon="4.90149">
        <ele>300</ele>
        <time>2017-03-27T09:50:18Z</time>
      </trkpt>
      <trkpt lat="45.99648" lon="4.90154">
        <ele>300</ele>
        <time>2017-03-27T09:50:19Z</time>
      </trkpt>
      <trkpt lat="45.9965" lon="4.90163">
        <ele>300</ele>
        <time>2017-03-27T09:50:21Z</time>
      </trkpt>
      <trkpt lat="45.99652" lon="4.90166">
        <ele>300</ele>
        <time>2017-03-27T09:50:22Z</time>
      </trkpt>
      <trkpt lat="45.99653" lon="4.90177">
        <ele>301</ele>
        <time>2017-03-27T09:50:25Z</time>
      </trkpt>
      <trkpt lat="45.99655" lon="4.90181">
        <ele>301</ele>
        <time>2017-03-27T09:50:26Z</time>
      </trkpt>
      <trkpt lat="45.99658" lon="4.90189">
        <ele>301</ele>
        <time>2017-03-27T09:50:28Z</time>
      </trkpt>
      <trkpt lat="45.99659" lon="4.90193">
        <ele>301</ele>
        <time>2017-03-27T09:50:29Z</time>
      </trkpt>
      <trkpt lat="45.99662" lon="4.90205">
        <ele>302</ele>
        <time>2017-03-27T09:50:32Z</time>
      </trkpt>
      <trkpt lat="45.99663" lon="4.90209">
        <ele>302</ele>
        <time>2017-03-27T09:50:33Z</time>
      </trkpt>
      <trkpt lat="45.99666" lon="4.90217">
        <ele>302</ele>
        <time>2017-03-27T09:50:35Z</time>
      </trkpt>
      <trkpt lat="45.99668" lon="4.90221">
        <ele>303</ele>
        <time>2017-03-27T09:50:36Z</time>
      </trkpt>
      <trkpt lat="45.99671" lon="4.90231">
        <ele>304</ele>
        <time>2017-03-27T09:50:38Z</time>
      </trkpt>
      <trkpt lat="45.99672" lon="4.90236">
        <ele>304</ele>
        <time>2017-03-27T09:50:39Z</time>
      </trkpt>
      <trkpt lat="45.99673" lon="4.90246">
        <ele>304</ele>
        <time>2017-03-27T09:50:41Z</time>
      </trkpt>
      <trkpt lat="45.99674" lon="4.90251">
        <ele>304</ele>
        <time>2017-03-27T09:50:42Z</time>
      </trkpt>
      <trkpt lat="45.99674" lon="4.9026">
        <ele>304</ele>
        <time>2017-03-27T09:50:44Z</time>
      </trkpt>
      <trkpt lat="45.99674" lon="4.90265">
        <ele>304</ele>
        <time>2017-03-27T09:50:45Z</time>
      </trkpt>
      <trkpt lat="45.99672" lon="4.90276">
        <ele>304</ele>
        <time>2017-03-27T09:50:47Z</time>
      </trkpt>
      <trkpt lat="45.99671" lon="4.90281">
        <ele>304</ele>
        <time>2017-03-27T09:50:48Z</time>
      </trkpt>
      <trkpt lat="45.99669" lon="4.90292">
        <ele>304</ele>
        <time>2017-03-27T09:50:50Z</time>
      </trkpt>
      <trkpt lat="45.99668" lon="4.90297">
        <ele>304</ele>
        <time>2017-03-27T09:50:51Z</time>
      </trkpt>
      <trkpt lat="45.99667" lon="4.90308">
        <ele>302</ele>
        <time>2017-03-27T09:50:53Z</time>
      </trkpt>
      <trkpt lat="45.99667" lon="4.90312">
        <ele>302</ele>
        <time>2017-03-27T09:50:54Z</time>
      </trkpt>
      <trkpt lat="45.99666" lon="4.90324">
        <ele>302</ele>
        <time>2017-03-27T09:51:02Z</time>
      </trkpt>
      <trkpt lat="45.99667" lon="4.90327">
        <ele>303</ele>
        <time>2017-03-27T09:51:03Z</time>
      </trkpt>
      <trkpt lat="45.99674" lon="4.90331">
        <ele>303</ele>
        <time>2017-03-27T09:51:08Z</time>
      </trkpt>
      <trkpt lat="45.99677" lon="4.90333">
        <ele>303</ele>
        <time>2017-03-27T09:51:09Z</time>
      </trkpt>
      <trkpt lat="45.99677" lon="4.90346">
        <ele>302</ele>
        <time>2017-03-27T09:51:12Z</time>
      </trkpt>
      <trkpt lat="45.99677" lon="4.9035">
        <ele>302</ele>
        <time>2017-03-27T09:51:13Z</time>
      </trkpt>
      <trkpt lat="45.99674" lon="4.90357">
        <ele>302</ele>
        <time>2017-03-27T09:51:15Z</time>
      </trkpt>
      <trkpt lat="45.99672" lon="4.90363">
        <ele>302</ele>
        <time>2017-03-27T09:51:16Z</time>
      </trkpt>
      <trkpt lat="45.99669" lon="4.9037">
        <ele>302</ele>
        <time>2017-03-27T09:51:17Z</time>
      </trkpt>
      <trkpt lat="45.99668" lon="4.90378">
        <ele>302</ele>
        <time>2017-03-27T09:51:18Z</time>
      </trkpt>
      <trkpt lat="45.99666" lon="4.90386">
        <ele>301</ele>
        <time>2017-03-27T09:51:19Z</time>
      </trkpt>
      <trkpt lat="45.99667" lon="4.90395">
        <ele>302</ele>
        <time>2017-03-27T09:51:20Z</time>
      </trkpt>
      <trkpt lat="45.99667" lon="4.90405">
        <ele>301</ele>
        <time>2017-03-27T09:51:21Z</time>
      </trkpt>
      <trkpt lat="45.99667" lon="4.90413">
        <ele>301</ele>
        <time>2017-03-27T09:51:22Z</time>
      </trkpt>
      <trkpt lat="45.99665" lon="4.90421">
        <ele>301</ele>
        <time>2017-03-27T09:51:23Z</time>
      </trkpt>
      <trkpt lat="45.99662" lon="4.90427">
        <ele>301</ele>
        <time>2017-03-27T09:51:24Z</time>
      </trkpt>
      <trkpt lat="45.99658" lon="4.90431">
        <ele>300</ele>
        <time>2017-03-27T09:51:25Z</time>
      </trkpt>
      <trkpt lat="45.99654" lon="4.90434">
        <ele>300</ele>
        <time>2017-03-27T09:51:26Z</time>
      </trkpt>
      <trkpt lat="45.99649" lon="4.90436">
        <ele>300</ele>
        <time>2017-03-27T09:51:27Z</time>
      </trkpt>
      <trkpt lat="45.99644" lon="4.90438">
        <ele>300</ele>
        <time>2017-03-27T09:51:28Z</time>
      </trkpt>
      <trkpt lat="45.9964" lon="4.9044">
        <ele>300</ele>
        <time>2017-03-27T09:51:29Z</time>
      </trkpt>
      <trkpt lat="45.99635" lon="4.90441">
        <ele>300</ele>
        <time>2017-03-27T09:51:30Z</time>
      </trkpt>
      <trkpt lat="45.99627" lon="4.90442">
        <ele>300</ele>
        <time>2017-03-27T09:51:32Z</time>
      </trkpt>
      <trkpt lat="45.99623" lon="4.90442">
        <ele>300</ele>
        <time>2017-03-27T09:51:33Z</time>
      </trkpt>
      <trkpt lat="45.99615" lon="4.90443">
        <ele>300</ele>
        <time>2017-03-27T09:51:35Z</time>
      </trkpt>
      <trkpt lat="45.99611" lon="4.90444">
        <ele>300</ele>
        <time>2017-03-27T09:51:36Z</time>
      </trkpt>
      <trkpt lat="45.99606" lon="4.90443">
        <ele>300</ele>
        <time>2017-03-27T09:51:37Z</time>
      </trkpt>
      <trkpt lat="45.99601" lon="4.90443">
        <ele>300</ele>
        <time>2017-03-27T09:51:38Z</time>
      </trkpt>
      <trkpt lat="45.99592" lon="4.90444">
        <ele>300</ele>
        <time>2017-03-27T09:51:40Z</time>
      </trkpt>
      <trkpt lat="45.99588" lon="4.90445">
        <ele>300</ele>
        <time>2017-03-27T09:51:41Z</time>
      </trkpt>
      <trkpt lat="45.9958" lon="4.90448">
        <ele>299</ele>
        <time>2017-03-27T09:51:43Z</time>
      </trkpt>
      <trkpt lat="45.99575" lon="4.9045">
        <ele>299</ele>
        <time>2017-03-27T09:51:44Z</time>
      </trkpt>
      <trkpt lat="45.99569" lon="4.90452">
        <ele>299</ele>
        <time>2017-03-27T09:51:45Z</time>
      </trkpt>
      <trkpt lat="45.99566" lon="4.90455">
        <ele>299</ele>
        <time>2017-03-27T09:51:46Z</time>
      </trkpt>
      <trkpt lat="45.99562" lon="4.90459">
        <ele>299</ele>
        <time>2017-03-27T09:51:47Z</time>
      </trkpt>
      <trkpt lat="45.99557" lon="4.9046">
        <ele>299</ele>
        <time>2017-03-27T09:51:48Z</time>
      </trkpt>
      <trkpt lat="45.9955" lon="4.90467">
        <ele>299</ele>
        <time>2017-03-27T09:51:50Z</time>
      </trkpt>
      <trkpt lat="45.99547" lon="4.90471">
        <ele>299</ele>
        <time>2017-03-27T09:51:51Z</time>
      </trkpt>
      <trkpt lat="45.99541" lon="4.9048">
        <ele>299</ele>
        <time>2017-03-27T09:51:53Z</time>
      </trkpt>
      <trkpt lat="45.99538" lon="4.90485">
        <ele>299</ele>
        <time>2017-03-27T09:51:54Z</time>
      </trkpt>
      <trkpt lat="45.99532" lon="4.90494">
        <ele>299</ele>
        <time>2017-03-27T09:51:56Z</time>
      </trkpt>
      <trkpt lat="45.99529" lon="4.90499">
        <ele>299</ele>
        <time>2017-03-27T09:51:57Z</time>
      </trkpt>
      <trkpt lat="45.99525" lon="4.90503">
        <ele>299</ele>
        <time>2017-03-27T09:51:58Z</time>
      </trkpt>
      <trkpt lat="45.99522" lon="4.90508">
        <ele>299</ele>
        <time>2017-03-27T09:51:59Z</time>
      </trkpt>
      <trkpt lat="45.99518" lon="4.90512">
        <ele>299</ele>
        <time>2017-03-27T09:52:00Z</time>
      </trkpt>
      <trkpt lat="45.99515" lon="4.90516">
        <ele>299</ele>
        <time>2017-03-27T09:52:01Z</time>
      </trkpt>
      <trkpt lat="45.99512" lon="4.90521">
        <ele>299</ele>
        <time>2017-03-27T09:52:02Z</time>
      </trkpt>
      <trkpt lat="45.99508" lon="4.90526">
        <ele>299</ele>
        <time>2017-03-27T09:52:03Z</time>
      </trkpt>
      <trkpt lat="45.99505" lon="4.90531">
        <ele>299</ele>
        <time>2017-03-27T09:52:04Z</time>
      </trkpt>
      <trkpt lat="45.99501" lon="4.90536">
        <ele>299</ele>
        <time>2017-03-27T09:52:05Z</time>
      </trkpt>
      <trkpt lat="45.99497" lon="4.90541">
        <ele>299</ele>
        <time>2017-03-27T09:52:06Z</time>
      </trkpt>
      <trkpt lat="45.99493" lon="4.90546">
        <ele>299</ele>
        <time>2017-03-27T09:52:07Z</time>
      </trkpt>
      <trkpt lat="45.99489" lon="4.90551">
        <ele>299</ele>
        <time>2017-03-27T09:52:08Z</time>
      </trkpt>
      <trkpt lat="45.99485" lon="4.90556">
        <ele>299</ele>
        <time>2017-03-27T09:52:09Z</time>
      </trkpt>
      <trkpt lat="45.99481" lon="4.90561">
        <ele>299</ele>
        <time>2017-03-27T09:52:10Z</time>
      </trkpt>
      <trkpt lat="45.99477" lon="4.90565">
        <ele>299</ele>
        <time>2017-03-27T09:52:11Z</time>
      </trkpt>
      <trkpt lat="45.99474" lon="4.9057">
        <ele>299</ele>
        <time>2017-03-27T09:52:12Z</time>
      </trkpt>
      <trkpt lat="45.99471" lon="4.90575">
        <ele>299</ele>
        <time>2017-03-27T09:52:13Z</time>
      </trkpt>
      <trkpt lat="45.99468" lon="4.90579">
        <ele>299</ele>
        <time>2017-03-27T09:52:14Z</time>
      </trkpt>
      <trkpt lat="45.99464" lon="4.90584">
        <ele>298</ele>
        <time>2017-03-27T09:52:15Z</time>
      </trkpt>
      <trkpt lat="45.99461" lon="4.90589">
        <ele>298</ele>
        <time>2017-03-27T09:52:16Z</time>
      </trkpt>
      <trkpt lat="45.99457" lon="4.90594">
        <ele>298</ele>
        <time>2017-03-27T09:52:17Z</time>
      </trkpt>
      <trkpt lat="45.99454" lon="4.90599">
        <ele>298</ele>
        <time>2017-03-27T09:52:18Z</time>
      </trkpt>
      <trkpt lat="45.99451" lon="4.90604">
        <ele>298</ele>
        <time>2017-03-27T09:52:19Z</time>
      </trkpt>
      <trkpt lat="45.99447" lon="4.90608">
        <ele>298</ele>
        <time>2017-03-27T09:52:20Z</time>
      </trkpt>
      <trkpt lat="45.99444" lon="4.90613">
        <ele>298</ele>
        <time>2017-03-27T09:52:21Z</time>
      </trkpt>
      <trkpt lat="45.9944" lon="4.90618">
        <ele>298</ele>
        <time>2017-03-27T09:52:22Z</time>
      </trkpt>
      <trkpt lat="45.99436" lon="4.90623">
        <ele>298</ele>
        <time>2017-03-27T09:52:23Z</time>
      </trkpt>
      <trkpt lat="45.99432" lon="4.90627">
        <ele>298</ele>
        <time>2017-03-27T09:52:24Z</time>
      </trkpt>
      <trkpt lat="45.99428" lon="4.90632">
        <ele>298</ele>
        <time>2017-03-27T09:52:25Z</time>
      </trkpt>
      <trkpt lat="45.99425" lon="4.90637">
        <ele>298</ele>
        <time>2017-03-27T09:52:26Z</time>
      </trkpt>
      <trkpt lat="45.99421" lon="4.90641">
        <ele>298</ele>
        <time>2017-03-27T09:52:27Z</time>
      </trkpt>
      <trkpt lat="45.99417" lon="4.90646">
        <ele>298</ele>
        <time>2017-03-27T09:52:28Z</time>
      </trkpt>
      <trkpt lat="45.99413" lon="4.9065">
        <ele>298</ele>
        <time>2017-03-27T09:52:29Z</time>
      </trkpt>
      <trkpt lat="45.99409" lon="4.90655">
        <ele>298</ele>
        <time>2017-03-27T09:52:30Z</time>
      </trkpt>
      <trkpt lat="45.99405" lon="4.90659">
        <ele>298</ele>
        <time>2017-03-27T09:52:31Z</time>
      </trkpt>
      <trkpt lat="45.99402" lon="4.90663">
        <ele>298</ele>
        <time>2017-03-27T09:52:32Z</time>
      </trkpt>
      <trkpt lat="45.99398" lon="4.90668">
        <ele>298</ele>
        <time>2017-03-27T09:52:33Z</time>
      </trkpt>
      <trkpt lat="45.99394" lon="4.90672">
        <ele>298</ele>
        <time>2017-03-27T09:52:34Z</time>
      </trkpt>
      <trkpt lat="45.9939" lon="4.90676">
        <ele>298</ele>
        <time>2017-03-27T09:52:35Z</time>
      </trkpt>
      <trkpt lat="45.99387" lon="4.90681">
        <ele>298</ele>
        <time>2017-03-27T09:52:36Z</time>
      </trkpt>
      <trkpt lat="45.99383" lon="4.90686">
        <ele>298</ele>
        <time>2017-03-27T09:52:37Z</time>
      </trkpt>
      <trkpt lat="45.99379" lon="4.90691">
        <ele>298</ele>
        <time>2017-03-27T09:52:38Z</time>
      </trkpt>
      <trkpt lat="45.99375" lon="4.90696">
        <ele>298</ele>
        <time>2017-03-27T09:52:39Z</time>
      </trkpt>
      <trkpt lat="45.99372" lon="4.90701">
        <ele>299</ele>
        <time>2017-03-27T09:52:40Z</time>
      </trkpt>
      <trkpt lat="45.99368" lon="4.90706">
        <ele>299</ele>
        <time>2017-03-27T09:52:41Z</time>
      </trkpt>
      <trkpt lat="45.99365" lon="4.90711">
        <ele>299</ele>
        <time>2017-03-27T09:52:42Z</time>
      </trkpt>
      <trkpt lat="45.99361" lon="4.90716">
        <ele>299</ele>
        <time>2017-03-27T09:52:43Z</time>
      </trkpt>
      <trkpt lat="45.99358" lon="4.9072">
        <ele>299</ele>
        <time>2017-03-27T09:52:44Z</time>
      </trkpt>
      <trkpt lat="45.99354" lon="4.90725">
        <ele>299</ele>
        <time>2017-03-27T09:52:45Z</time>
      </trkpt>
      <trkpt lat="45.9935" lon="4.9073">
        <ele>299</ele>
        <time>2017-03-27T09:52:46Z</time>
      </trkpt>
      <trkpt lat="45.99347" lon="4.90734">
        <ele>299</ele>
        <time>2017-03-27T09:52:47Z</time>
      </trkpt>
      <trkpt lat="45.99343" lon="4.90738">
        <ele>299</ele>
        <time>2017-03-27T09:52:48Z</time>
      </trkpt>
      <trkpt lat="45.99339" lon="4.90742">
        <ele>299</ele>
        <time>2017-03-27T09:52:49Z</time>
      </trkpt>
      <trkpt lat="45.99336" lon="4.90747">
        <ele>300</ele>
        <time>2017-03-27T09:52:50Z</time>
      </trkpt>
      <trkpt lat="45.99332" lon="4.90751">
        <ele>300</ele>
        <time>2017-03-27T09:52:51Z</time>
      </trkpt>
      <trkpt lat="45.99328" lon="4.90756">
        <ele>300</ele>
        <time>2017-03-27T09:52:52Z</time>
      </trkpt>
      <trkpt lat="45.99324" lon="4.9076">
        <ele>300</ele>
        <time>2017-03-27T09:52:53Z</time>
      </trkpt>
      <trkpt lat="45.99321" lon="4.90764">
        <ele>300</ele>
        <time>2017-03-27T09:52:54Z</time>
      </trkpt>
      <trkpt lat="45.99316" lon="4.90767">
        <ele>300</ele>
        <time>2017-03-27T09:52:55Z</time>
      </trkpt>
      <trkpt lat="45.99312" lon="4.9077">
        <ele>300</ele>
        <time>2017-03-27T09:52:56Z</time>
      </trkpt>
      <trkpt lat="45.99308" lon="4.90773">
        <ele>300</ele>
        <time>2017-03-27T09:52:57Z</time>
      </trkpt>
      <trkpt lat="45.99305" lon="4.90777">
        <ele>300</ele>
        <time>2017-03-27T09:52:58Z</time>
      </trkpt>
      <trkpt lat="45.99301" lon="4.90781">
        <ele>300</ele>
        <time>2017-03-27T09:52:59Z</time>
      </trkpt>
      <trkpt lat="45.99297" lon="4.90784">
        <ele>300</ele>
        <time>2017-03-27T09:53:00Z</time>
      </trkpt>
      <trkpt lat="45.99293" lon="4.90787">
        <ele>300</ele>
        <time>2017-03-27T09:53:01Z</time>
      </trkpt>
      <trkpt lat="45.99289" lon="4.90791">
        <ele>300</ele>
        <time>2017-03-27T09:53:02Z</time>
      </trkpt>
      <trkpt lat="45.99286" lon="4.90796">
        <ele>300</ele>
        <time>2017-03-27T09:53:03Z</time>
      </trkpt>
      <trkpt lat="45.99282" lon="4.90801">
        <ele>300</ele>
        <time>2017-03-27T09:53:04Z</time>
      </trkpt>
      <trkpt lat="45.99279" lon="4.90805">
        <ele>300</ele>
        <time>2017-03-27T09:53:05Z</time>
      </trkpt>
      <trkpt lat="45.99275" lon="4.9081">
        <ele>300</ele>
        <time>2017-03-27T09:53:06Z</time>
      </trkpt>
      <trkpt lat="45.99271" lon="4.90815">
        <ele>300</ele>
        <time>2017-03-27T09:53:07Z</time>
      </trkpt>
      <trkpt lat="45.99268" lon="4.90819">
        <ele>300</ele>
        <time>2017-03-27T09:53:08Z</time>
      </trkpt>
      <trkpt lat="45.99265" lon="4.90824">
        <ele>300</ele>
        <time>2017-03-27T09:53:09Z</time>
      </trkpt>
      <trkpt lat="45.99261" lon="4.90829">
        <ele>300</ele>
        <time>2017-03-27T09:53:10Z</time>
      </trkpt>
      <trkpt lat="45.99257" lon="4.90834">
        <ele>300</ele>
        <time>2017-03-27T09:53:11Z</time>
      </trkpt>
      <trkpt lat="45.99253" lon="4.90838">
        <ele>300</ele>
        <time>2017-03-27T09:53:12Z</time>
      </trkpt>
      <trkpt lat="45.9925" lon="4.90844">
        <ele>300</ele>
        <time>2017-03-27T09:53:13Z</time>
      </trkpt>
      <trkpt lat="45.99246" lon="4.90848">
        <ele>300</ele>
        <time>2017-03-27T09:53:14Z</time>
      </trkpt>
      <trkpt lat="45.99243" lon="4.90852">
        <ele>300</ele>
        <time>2017-03-27T09:53:15Z</time>
      </trkpt>
      <trkpt lat="45.99236" lon="4.90861">
        <ele>300</ele>
        <time>2017-03-27T09:53:17Z</time>
      </trkpt>
      <trkpt lat="45.99233" lon="4.90865">
        <ele>300</ele>
        <time>2017-03-27T09:53:18Z</time>
      </trkpt>
      <trkpt lat="45.99229" lon="4.9087">
        <ele>300</ele>
        <time>2017-03-27T09:53:19Z</time>
      </trkpt>
      <trkpt lat="45.99225" lon="4.90874">
        <ele>300</ele>
        <time>2017-03-27T09:53:20Z</time>
      </trkpt>
      <trkpt lat="45.99221" lon="4.9088">
        <ele>299</ele>
        <time>2017-03-27T09:53:21Z</time>
      </trkpt>
      <trkpt lat="45.99217" lon="4.90885">
        <ele>299</ele>
        <time>2017-03-27T09:53:22Z</time>
      </trkpt>
      <trkpt lat="45.99213" lon="4.90891">
        <ele>299</ele>
        <time>2017-03-27T09:53:23Z</time>
      </trkpt>
      <trkpt lat="45.99209" lon="4.90896">
        <ele>299</ele>
        <time>2017-03-27T09:53:24Z</time>
      </trkpt>
      <trkpt lat="45.99206" lon="4.90902">
        <ele>300</ele>
        <time>2017-03-27T09:53:25Z</time>
      </trkpt>
      <trkpt lat="45.99203" lon="4.90907">
        <ele>300</ele>
        <time>2017-03-27T09:53:26Z</time>
      </trkpt>
      <trkpt lat="45.99196" lon="4.90914">
        <ele>300</ele>
        <time>2017-03-27T09:53:28Z</time>
      </trkpt>
      <trkpt lat="45.99193" lon="4.90918">
        <ele>300</ele>
        <time>2017-03-27T09:53:29Z</time>
      </trkpt>
      <trkpt lat="45.99186" lon="4.90926">
        <ele>300</ele>
        <time>2017-03-27T09:53:31Z</time>
      </trkpt>
      <trkpt lat="45.99183" lon="4.9093">
        <ele>300</ele>
        <time>2017-03-27T09:53:32Z</time>
      </trkpt>
      <trkpt lat="45.99179" lon="4.90934">
        <ele>300</ele>
        <time>2017-03-27T09:53:33Z</time>
      </trkpt>
      <trkpt lat="45.99175" lon="4.90937">
        <ele>300</ele>
        <time>2017-03-27T09:53:34Z</time>
      </trkpt>
      <trkpt lat="45.99171" lon="4.90942">
        <ele>300</ele>
        <time>2017-03-27T09:53:35Z</time>
      </trkpt>
      <trkpt lat="45.99167" lon="4.90946">
        <ele>300</ele>
        <time>2017-03-27T09:53:36Z</time>
      </trkpt>
      <trkpt lat="45.99164" lon="4.9095">
        <ele>300</ele>
        <time>2017-03-27T09:53:37Z</time>
      </trkpt>
      <trkpt lat="45.9916" lon="4.90955">
        <ele>300</ele>
        <time>2017-03-27T09:53:38Z</time>
      </trkpt>
      <trkpt lat="45.99156" lon="4.9096">
        <ele>300</ele>
        <time>2017-03-27T09:53:39Z</time>
      </trkpt>
      <trkpt lat="45.99152" lon="4.90965">
        <ele>300</ele>
        <time>2017-03-27T09:53:40Z</time>
      </trkpt>
      <trkpt lat="45.99148" lon="4.90969">
        <ele>300</ele>
        <time>2017-03-27T09:53:41Z</time>
      </trkpt>
      <trkpt lat="45.99144" lon="4.90974">
        <ele>300</ele>
        <time>2017-03-27T09:53:42Z</time>
      </trkpt>
      <trkpt lat="45.9914" lon="4.90978">
        <ele>300</ele>
        <time>2017-03-27T09:53:43Z</time>
      </trkpt>
      <trkpt lat="45.99137" lon="4.90983">
        <ele>300</ele>
        <time>2017-03-27T09:53:44Z</time>
      </trkpt>
      <trkpt lat="45.9913" lon="4.9099">
        <ele>301</ele>
        <time>2017-03-27T09:53:46Z</time>
      </trkpt>
      <trkpt lat="45.99127" lon="4.90995">
        <ele>301</ele>
        <time>2017-03-27T09:53:47Z</time>
      </trkpt>
      <trkpt lat="45.99121" lon="4.91003">
        <ele>301</ele>
        <time>2017-03-27T09:53:49Z</time>
      </trkpt>
      <trkpt lat="45.99118" lon="4.91007">
        <ele>301</ele>
        <time>2017-03-27T09:53:50Z</time>
      </trkpt>
      <trkpt lat="45.99114" lon="4.91011">
        <ele>301</ele>
        <time>2017-03-27T09:53:51Z</time>
      </trkpt>
      <trkpt lat="45.99111" lon="4.91015">
        <ele>301</ele>
        <time>2017-03-27T09:53:52Z</time>
      </trkpt>
      <trkpt lat="45.99107" lon="4.91019">
        <ele>301</ele>
        <time>2017-03-27T09:53:53Z</time>
      </trkpt>
      <trkpt lat="45.99103" lon="4.91024">
        <ele>301</ele>
        <time>2017-03-27T09:53:54Z</time>
      </trkpt>
      <trkpt lat="45.99099" lon="4.91028">
        <ele>301</ele>
        <time>2017-03-27T09:53:55Z</time>
      </trkpt>
      <trkpt lat="45.99095" lon="4.91033">
        <ele>301</ele>
        <time>2017-03-27T09:53:56Z</time>
      </trkpt>
      <trkpt lat="45.99091" lon="4.91038">
        <ele>301</ele>
        <time>2017-03-27T09:53:57Z</time>
      </trkpt>
      <trkpt lat="45.99087" lon="4.91043">
        <ele>301</ele>
        <time>2017-03-27T09:53:58Z</time>
      </trkpt>
      <trkpt lat="45.99083" lon="4.91047">
        <ele>300</ele>
        <time>2017-03-27T09:53:59Z</time>
      </trkpt>
      <trkpt lat="45.9908" lon="4.91051">
        <ele>300</ele>
        <time>2017-03-27T09:54:00Z</time>
      </trkpt>
      <trkpt lat="45.99074" lon="4.91059">
        <ele>300</ele>
        <time>2017-03-27T09:54:02Z</time>
      </trkpt>
      <trkpt lat="45.9907" lon="4.91064">
        <ele>300</ele>
        <time>2017-03-27T09:54:03Z</time>
      </trkpt>
      <trkpt lat="45.99067" lon="4.91069">
        <ele>300</ele>
        <time>2017-03-27T09:54:04Z</time>
      </trkpt>
      <trkpt lat="45.99063" lon="4.91074">
        <ele>300</ele>
        <time>2017-03-27T09:54:05Z</time>
      </trkpt>
      <trkpt lat="45.99059" lon="4.9108">
        <ele>300</ele>
        <time>2017-03-27T09:54:06Z</time>
      </trkpt>
      <trkpt lat="45.99055" lon="4.91084">
        <ele>299</ele>
        <time>2017-03-27T09:54:07Z</time>
      </trkpt>
      <trkpt lat="45.9905" lon="4.9109">
        <ele>299</ele>
        <time>2017-03-27T09:54:08Z</time>
      </trkpt>
      <trkpt lat="45.99046" lon="4.91095">
        <ele>299</ele>
        <time>2017-03-27T09:54:09Z</time>
      </trkpt>
      <trkpt lat="45.99042" lon="4.911">
        <ele>299</ele>
        <time>2017-03-27T09:54:10Z</time>
      </trkpt>
      <trkpt lat="45.99038" lon="4.91104">
        <ele>299</ele>
        <time>2017-03-27T09:54:11Z</time>
      </trkpt>
      <trkpt lat="45.99034" lon="4.91109">
        <ele>299</ele>
        <time>2017-03-27T09:54:12Z</time>
      </trkpt>
      <trkpt lat="45.9903" lon="4.91114">
        <ele>299</ele>
        <time>2017-03-27T09:54:13Z</time>
      </trkpt>
      <trkpt lat="45.99026" lon="4.91118">
        <ele>299</ele>
        <time>2017-03-27T09:54:14Z</time>
      </trkpt>
      <trkpt lat="45.99023" lon="4.91122">
        <ele>299</ele>
        <time>2017-03-27T09:54:15Z</time>
      </trkpt>
      <trkpt lat="45.99019" lon="4.91126">
        <ele>299</ele>
        <time>2017-03-27T09:54:16Z</time>
      </trkpt>
      <trkpt lat="45.99016" lon="4.91131">
        <ele>299</ele>
        <time>2017-03-27T09:54:17Z</time>
      </trkpt>
      <trkpt lat="45.99012" lon="4.91135">
        <ele>299</ele>
        <time>2017-03-27T09:54:18Z</time>
      </trkpt>
      <trkpt lat="45.99009" lon="4.9114">
        <ele>299</ele>
        <time>2017-03-27T09:54:19Z</time>
      </trkpt>
      <trkpt lat="45.99005" lon="4.91146">
        <ele>299</ele>
        <time>2017-03-27T09:54:20Z</time>
      </trkpt>
      <trkpt lat="45.99002" lon="4.91151">
        <ele>299</ele>
        <time>2017-03-27T09:54:21Z</time>
      </trkpt>
      <trkpt lat="45.98998" lon="4.91156">
        <ele>299</ele>
        <time>2017-03-27T09:54:22Z</time>
      </trkpt>
      <trkpt lat="45.98993" lon="4.91162">
        <ele>299</ele>
        <time>2017-03-27T09:54:23Z</time>
      </trkpt>
      <trkpt lat="45.98989" lon="4.91168">
        <ele>299</ele>
        <time>2017-03-27T09:54:24Z</time>
      </trkpt>
      <trkpt lat="45.98985" lon="4.91173">
        <ele>299</ele>
        <time>2017-03-27T09:54:25Z</time>
      </trkpt>
      <trkpt lat="45.98982" lon="4.91178">
        <ele>299</ele>
        <time>2017-03-27T09:54:26Z</time>
      </trkpt>
      <trkpt lat="45.98978" lon="4.91183">
        <ele>299</ele>
        <time>2017-03-27T09:54:27Z</time>
      </trkpt>
      <trkpt lat="45.98972" lon="4.91191">
        <ele>299</ele>
        <time>2017-03-27T09:54:29Z</time>
      </trkpt>
      <trkpt lat="45.98968" lon="4.91195">
        <ele>299</ele>
        <time>2017-03-27T09:54:30Z</time>
      </trkpt>
      <trkpt lat="45.98962" lon="4.91203">
        <ele>299</ele>
        <time>2017-03-27T09:54:32Z</time>
      </trkpt>
      <trkpt lat="45.98959" lon="4.91207">
        <ele>299</ele>
        <time>2017-03-27T09:54:33Z</time>
      </trkpt>
      <trkpt lat="45.98953" lon="4.91216">
        <ele>299</ele>
        <time>2017-03-27T09:54:35Z</time>
      </trkpt>
      <trkpt lat="45.9895" lon="4.9122">
        <ele>299</ele>
        <time>2017-03-27T09:54:36Z</time>
      </trkpt>
      <trkpt lat="45.98946" lon="4.91225">
        <ele>299</ele>
        <time>2017-03-27T09:54:37Z</time>
      </trkpt>
      <trkpt lat="45.98943" lon="4.91229">
        <ele>299</ele>
        <time>2017-03-27T09:54:38Z</time>
      </trkpt>
      <trkpt lat="45.98939" lon="4.91234">
        <ele>299</ele>
        <time>2017-03-27T09:54:39Z</time>
      </trkpt>
      <trkpt lat="45.98936" lon="4.91238">
        <ele>299</ele>
        <time>2017-03-27T09:54:40Z</time>
      </trkpt>
      <trkpt lat="45.98932" lon="4.91243">
        <ele>299</ele>
        <time>2017-03-27T09:54:41Z</time>
      </trkpt>
      <trkpt lat="45.98928" lon="4.91247">
        <ele>299</ele>
        <time>2017-03-27T09:54:42Z</time>
      </trkpt>
      <trkpt lat="45.98924" lon="4.91252">
        <ele>299</ele>
        <time>2017-03-27T09:54:43Z</time>
      </trkpt>
      <trkpt lat="45.9892" lon="4.91256">
        <ele>299</ele>
        <time>2017-03-27T09:54:44Z</time>
      </trkpt>
      <trkpt lat="45.98917" lon="4.9126">
        <ele>299</ele>
        <time>2017-03-27T09:54:45Z</time>
      </trkpt>
      <trkpt lat="45.98913" lon="4.91264">
        <ele>299</ele>
        <time>2017-03-27T09:54:46Z</time>
      </trkpt>
      <trkpt lat="45.98906" lon="4.91273">
        <ele>299</ele>
        <time>2017-03-27T09:54:48Z</time>
      </trkpt>
      <trkpt lat="45.98903" lon="4.91277">
        <ele>299</ele>
        <time>2017-03-27T09:54:49Z</time>
      </trkpt>
      <trkpt lat="45.98899" lon="4.91281">
        <ele>299</ele>
        <time>2017-03-27T09:54:50Z</time>
      </trkpt>
      <trkpt lat="45.98895" lon="4.91285">
        <ele>299</ele>
        <time>2017-03-27T09:54:51Z</time>
      </trkpt>
      <trkpt lat="45.9889" lon="4.91289">
        <ele>299</ele>
        <time>2017-03-27T09:54:52Z</time>
      </trkpt>
      <trkpt lat="45.98887" lon="4.91294">
        <ele>299</ele>
        <time>2017-03-27T09:54:53Z</time>
      </trkpt>
      <trkpt lat="45.98883" lon="4.91298">
        <ele>299</ele>
        <time>2017-03-27T09:54:54Z</time>
      </trkpt>
      <trkpt lat="45.98879" lon="4.91303">
        <ele>299</ele>
        <time>2017-03-27T09:54:55Z</time>
      </trkpt>
      <trkpt lat="45.98875" lon="4.91307">
        <ele>299</ele>
        <time>2017-03-27T09:54:56Z</time>
      </trkpt>
      <trkpt lat="45.98872" lon="4.91312">
        <ele>298</ele>
        <time>2017-03-27T09:54:57Z</time>
      </trkpt>
      <trkpt lat="45.98869" lon="4.91317">
        <ele>298</ele>
        <time>2017-03-27T09:54:58Z</time>
      </trkpt>
      <trkpt lat="45.98865" lon="4.91321">
        <ele>298</ele>
        <time>2017-03-27T09:54:59Z</time>
      </trkpt>
      <trkpt lat="45.98859" lon="4.91328">
        <ele>298</ele>
        <time>2017-03-27T09:55:01Z</time>
      </trkpt>
      <trkpt lat="45.98856" lon="4.91332">
        <ele>298</ele>
        <time>2017-03-27T09:55:02Z</time>
      </trkpt>
      <trkpt lat="45.98852" lon="4.91336">
        <ele>298</ele>
        <time>2017-03-27T09:55:03Z</time>
      </trkpt>
      <trkpt lat="45.98849" lon="4.91341">
        <ele>298</ele>
        <time>2017-03-27T09:55:04Z</time>
      </trkpt>
      <trkpt lat="45.98845" lon="4.91345">
        <ele>298</ele>
        <time>2017-03-27T09:55:05Z</time>
      </trkpt>
      <trkpt lat="45.98841" lon="4.9135">
        <ele>298</ele>
        <time>2017-03-27T09:55:06Z</time>
      </trkpt>
      <trkpt lat="45.98837" lon="4.91355">
        <ele>298</ele>
        <time>2017-03-27T09:55:07Z</time>
      </trkpt>
      <trkpt lat="45.98833" lon="4.91359">
        <ele>298</ele>
        <time>2017-03-27T09:55:08Z</time>
      </trkpt>
      <trkpt lat="45.98829" lon="4.91364">
        <ele>298</ele>
        <time>2017-03-27T09:55:09Z</time>
      </trkpt>
      <trkpt lat="45.98826" lon="4.91369">
        <ele>298</ele>
        <time>2017-03-27T09:55:10Z</time>
      </trkpt>
      <trkpt lat="45.98822" lon="4.91373">
        <ele>299</ele>
        <time>2017-03-27T09:55:11Z</time>
      </trkpt>
      <trkpt lat="45.98819" lon="4.91378">
        <ele>299</ele>
        <time>2017-03-27T09:55:12Z</time>
      </trkpt>
      <trkpt lat="45.98812" lon="4.91386">
        <ele>299</ele>
        <time>2017-03-27T09:55:14Z</time>
      </trkpt>
      <trkpt lat="45.98809" lon="4.9139">
        <ele>299</ele>
        <time>2017-03-27T09:55:15Z</time>
      </trkpt>
      <trkpt lat="45.98805" lon="4.91394">
        <ele>299</ele>
        <time>2017-03-27T09:55:16Z</time>
      </trkpt>
      <trkpt lat="45.98802" lon="4.91399">
        <ele>299</ele>
        <time>2017-03-27T09:55:17Z</time>
      </trkpt>
      <trkpt lat="45.98798" lon="4.91403">
        <ele>299</ele>
        <time>2017-03-27T09:55:18Z</time>
      </trkpt>
      <trkpt lat="45.98795" lon="4.91408">
        <ele>299</ele>
        <time>2017-03-27T09:55:19Z</time>
      </trkpt>
      <trkpt lat="45.98791" lon="4.91412">
        <ele>299</ele>
        <time>2017-03-27T09:55:20Z</time>
      </trkpt>
      <trkpt lat="45.98788" lon="4.91416">
        <ele>299</ele>
        <time>2017-03-27T09:55:21Z</time>
      </trkpt>
      <trkpt lat="45.98782" lon="4.91424">
        <ele>298</ele>
        <time>2017-03-27T09:55:23Z</time>
      </trkpt>
      <trkpt lat="45.98779" lon="4.91428">
        <ele>298</ele>
        <time>2017-03-27T09:55:24Z</time>
      </trkpt>
      <trkpt lat="45.98772" lon="4.91435">
        <ele>298</ele>
        <time>2017-03-27T09:55:26Z</time>
      </trkpt>
      <trkpt lat="45.98769" lon="4.9144">
        <ele>298</ele>
        <time>2017-03-27T09:55:27Z</time>
      </trkpt>
      <trkpt lat="45.98765" lon="4.91444">
        <ele>298</ele>
        <time>2017-03-27T09:55:28Z</time>
      </trkpt>
      <trkpt lat="45.98762" lon="4.91448">
        <ele>298</ele>
        <time>2017-03-27T09:55:29Z</time>
      </trkpt>
      <trkpt lat="45.98755" lon="4.91456">
        <ele>298</ele>
        <time>2017-03-27T09:55:31Z</time>
      </trkpt>
      <trkpt lat="45.98752" lon="4.91461">
        <ele>298</ele>
        <time>2017-03-27T09:55:32Z</time>
      </trkpt>
      <trkpt lat="45.98748" lon="4.91466">
        <ele>299</ele>
        <time>2017-03-27T09:55:33Z</time>
      </trkpt>
      <trkpt lat="45.98745" lon="4.9147">
        <ele>299</ele>
        <time>2017-03-27T09:55:34Z</time>
      </trkpt>
      <trkpt lat="45.98741" lon="4.91474">
        <ele>299</ele>
        <time>2017-03-27T09:55:35Z</time>
      </trkpt>
      <trkpt lat="45.98737" lon="4.91478">
        <ele>299</ele>
        <time>2017-03-27T09:55:36Z</time>
      </trkpt>
      <trkpt lat="45.98733" lon="4.91482">
        <ele>299</ele>
        <time>2017-03-27T09:55:37Z</time>
      </trkpt>
      <trkpt lat="45.98728" lon="4.91485">
        <ele>299</ele>
        <time>2017-03-27T09:55:38Z</time>
      </trkpt>
      <trkpt lat="45.98725" lon="4.9149">
        <ele>299</ele>
        <time>2017-03-27T09:55:39Z</time>
      </trkpt>
      <trkpt lat="45.98721" lon="4.91495">
        <ele>299</ele>
        <time>2017-03-27T09:55:40Z</time>
      </trkpt>
      <trkpt lat="45.98717" lon="4.91499">
        <ele>299</ele>
        <time>2017-03-27T09:55:41Z</time>
      </trkpt>
      <trkpt lat="45.98713" lon="4.91503">
        <ele>299</ele>
        <time>2017-03-27T09:55:42Z</time>
      </trkpt>
      <trkpt lat="45.9871" lon="4.91507">
        <ele>299</ele>
        <time>2017-03-27T09:55:43Z</time>
      </trkpt>
      <trkpt lat="45.98706" lon="4.91512">
        <ele>299</ele>
        <time>2017-03-27T09:55:44Z</time>
      </trkpt>
      <trkpt lat="45.98702" lon="4.91516">
        <ele>299</ele>
        <time>2017-03-27T09:55:45Z</time>
      </trkpt>
      <trkpt lat="45.98698" lon="4.91521">
        <ele>299</ele>
        <time>2017-03-27T09:55:46Z</time>
      </trkpt>
      <trkpt lat="45.98694" lon="4.91526">
        <ele>299</ele>
        <time>2017-03-27T09:55:47Z</time>
      </trkpt>
      <trkpt lat="45.9869" lon="4.91532">
        <ele>299</ele>
        <time>2017-03-27T09:55:48Z</time>
      </trkpt>
      <trkpt lat="45.98685" lon="4.91537">
        <ele>299</ele>
        <time>2017-03-27T09:55:49Z</time>
      </trkpt>
      <trkpt lat="45.98681" lon="4.91542">
        <ele>299</ele>
        <time>2017-03-27T09:55:50Z</time>
      </trkpt>
      <trkpt lat="45.98676" lon="4.91546">
        <ele>299</ele>
        <time>2017-03-27T09:55:51Z</time>
      </trkpt>
      <trkpt lat="45.98672" lon="4.91551">
        <ele>299</ele>
        <time>2017-03-27T09:55:52Z</time>
      </trkpt>
      <trkpt lat="45.98667" lon="4.91557">
        <ele>299</ele>
        <time>2017-03-27T09:55:53Z</time>
      </trkpt>
      <trkpt lat="45.98662" lon="4.91561">
        <ele>299</ele>
        <time>2017-03-27T09:55:54Z</time>
      </trkpt>
      <trkpt lat="45.98659" lon="4.91566">
        <ele>299</ele>
        <time>2017-03-27T09:55:55Z</time>
      </trkpt>
      <trkpt lat="45.98655" lon="4.9157">
        <ele>299</ele>
        <time>2017-03-27T09:55:56Z</time>
      </trkpt>
      <trkpt lat="45.98651" lon="4.91574">
        <ele>299</ele>
        <time>2017-03-27T09:55:57Z</time>
      </trkpt>
      <trkpt lat="45.98647" lon="4.91579">
        <ele>299</ele>
        <time>2017-03-27T09:55:58Z</time>
      </trkpt>
      <trkpt lat="45.98643" lon="4.91584">
        <ele>299</ele>
        <time>2017-03-27T09:55:59Z</time>
      </trkpt>
      <trkpt lat="45.98639" lon="4.91589">
        <ele>298</ele>
        <time>2017-03-27T09:56:00Z</time>
      </trkpt>
      <trkpt lat="45.98635" lon="4.91594">
        <ele>298</ele>
        <time>2017-03-27T09:56:01Z</time>
      </trkpt>
      <trkpt lat="45.98631" lon="4.91599">
        <ele>298</ele>
        <time>2017-03-27T09:56:02Z</time>
      </trkpt>
      <trkpt lat="45.98627" lon="4.91604">
        <ele>298</ele>
        <time>2017-03-27T09:56:03Z</time>
      </trkpt>
      <trkpt lat="45.98623" lon="4.91609">
        <ele>298</ele>
        <time>2017-03-27T09:56:04Z</time>
      </trkpt>
      <trkpt lat="45.98619" lon="4.91614">
        <ele>298</ele>
        <time>2017-03-27T09:56:05Z</time>
      </trkpt>
      <trkpt lat="45.98615" lon="4.91619">
        <ele>298</ele>
        <time>2017-03-27T09:56:06Z</time>
      </trkpt>
      <trkpt lat="45.98611" lon="4.91624">
        <ele>298</ele>
        <time>2017-03-27T09:56:07Z</time>
      </trkpt>
      <trkpt lat="45.98608" lon="4.91629">
        <ele>298</ele>
        <time>2017-03-27T09:56:08Z</time>
      </trkpt>
      <trkpt lat="45.98604" lon="4.91634">
        <ele>298</ele>
        <time>2017-03-27T09:56:09Z</time>
      </trkpt>
      <trkpt lat="45.986" lon="4.91639">
        <ele>298</ele>
        <time>2017-03-27T09:56:10Z</time>
      </trkpt>
      <trkpt lat="45.98596" lon="4.91643">
        <ele>298</ele>
        <time>2017-03-27T09:56:11Z</time>
      </trkpt>
      <trkpt lat="45.98593" lon="4.91648">
        <ele>298</ele>
        <time>2017-03-27T09:56:12Z</time>
      </trkpt>
      <trkpt lat="45.98589" lon="4.91653">
        <ele>298</ele>
        <time>2017-03-27T09:56:13Z</time>
      </trkpt>
      <trkpt lat="45.98585" lon="4.91658">
        <ele>298</ele>
        <time>2017-03-27T09:56:14Z</time>
      </trkpt>
      <trkpt lat="45.98581" lon="4.91663">
        <ele>298</ele>
        <time>2017-03-27T09:56:15Z</time>
      </trkpt>
      <trkpt lat="45.98577" lon="4.91668">
        <ele>298</ele>
        <time>2017-03-27T09:56:16Z</time>
      </trkpt>
      <trkpt lat="45.98574" lon="4.91673">
        <ele>298</ele>
        <time>2017-03-27T09:56:17Z</time>
      </trkpt>
      <trkpt lat="45.9857" lon="4.91679">
        <ele>298</ele>
        <time>2017-03-27T09:56:18Z</time>
      </trkpt>
      <trkpt lat="45.98565" lon="4.91685">
        <ele>298</ele>
        <time>2017-03-27T09:56:19Z</time>
      </trkpt>
      <trkpt lat="45.98561" lon="4.9169">
        <ele>298</ele>
        <time>2017-03-27T09:56:20Z</time>
      </trkpt>
      <trkpt lat="45.98557" lon="4.91695">
        <ele>298</ele>
        <time>2017-03-27T09:56:21Z</time>
      </trkpt>
      <trkpt lat="45.98553" lon="4.917">
        <ele>298</ele>
        <time>2017-03-27T09:56:22Z</time>
      </trkpt>
      <trkpt lat="45.9855" lon="4.91705">
        <ele>298</ele>
        <time>2017-03-27T09:56:23Z</time>
      </trkpt>
      <trkpt lat="45.98546" lon="4.9171">
        <ele>298</ele>
        <time>2017-03-27T09:56:24Z</time>
      </trkpt>
      <trkpt lat="45.98543" lon="4.91715">
        <ele>298</ele>
        <time>2017-03-27T09:56:25Z</time>
      </trkpt>
      <trkpt lat="45.9854" lon="4.9172">
        <ele>297</ele>
        <time>2017-03-27T09:56:26Z</time>
      </trkpt>
      <trkpt lat="45.98536" lon="4.91724">
        <ele>297</ele>
        <time>2017-03-27T09:56:27Z</time>
      </trkpt>
      <trkpt lat="45.98532" lon="4.91729">
        <ele>297</ele>
        <time>2017-03-27T09:56:28Z</time>
      </trkpt>
      <trkpt lat="45.98527" lon="4.91733">
        <ele>297</ele>
        <time>2017-03-27T09:56:29Z</time>
      </trkpt>
      <trkpt lat="45.98524" lon="4.91738">
        <ele>297</ele>
        <time>2017-03-27T09:56:30Z</time>
      </trkpt>
      <trkpt lat="45.9852" lon="4.91744">
        <ele>297</ele>
        <time>2017-03-27T09:56:31Z</time>
      </trkpt>
      <trkpt lat="45.98516" lon="4.91749">
        <ele>297</ele>
        <time>2017-03-27T09:56:32Z</time>
      </trkpt>
      <trkpt lat="45.98512" lon="4.91754">
        <ele>297</ele>
        <time>2017-03-27T09:56:33Z</time>
      </trkpt>
      <trkpt lat="45.98508" lon="4.91759">
        <ele>297</ele>
        <time>2017-03-27T09:56:34Z</time>
      </trkpt>
      <trkpt lat="45.98504" lon="4.91764">
        <ele>297</ele>
        <time>2017-03-27T09:56:35Z</time>
      </trkpt>
      <trkpt lat="45.985" lon="4.9177">
        <ele>297</ele>
        <time>2017-03-27T09:56:36Z</time>
      </trkpt>
      <trkpt lat="45.98496" lon="4.91775">
        <ele>297</ele>
        <time>2017-03-27T09:56:37Z</time>
      </trkpt>
      <trkpt lat="45.98492" lon="4.91779">
        <ele>297</ele>
        <time>2017-03-27T09:56:38Z</time>
      </trkpt>
      <trkpt lat="45.98488" lon="4.91784">
        <ele>297</ele>
        <time>2017-03-27T09:56:39Z</time>
      </trkpt>
      <trkpt lat="45.98484" lon="4.9179">
        <ele>297</ele>
        <time>2017-03-27T09:56:40Z</time>
      </trkpt>
      <trkpt lat="45.9848" lon="4.91795">
        <ele>297</ele>
        <time>2017-03-27T09:56:41Z</time>
      </trkpt>
      <trkpt lat="45.98476" lon="4.918">
        <ele>297</ele>
        <time>2017-03-27T09:56:42Z</time>
      </trkpt>
      <trkpt lat="45.98472" lon="4.91804">
        <ele>297</ele>
        <time>2017-03-27T09:56:43Z</time>
      </trkpt>
      <trkpt lat="45.98468" lon="4.91809">
        <ele>297</ele>
        <time>2017-03-27T09:56:44Z</time>
      </trkpt>
      <trkpt lat="45.98464" lon="4.91814">
        <ele>297</ele>
        <time>2017-03-27T09:56:45Z</time>
      </trkpt>
      <trkpt lat="45.9846" lon="4.91819">
        <ele>297</ele>
        <time>2017-03-27T09:56:46Z</time>
      </trkpt>
      <trkpt lat="45.98456" lon="4.91824">
        <ele>297</ele>
        <time>2017-03-27T09:56:47Z</time>
      </trkpt>
      <trkpt lat="45.98452" lon="4.91828">
        <ele>297</ele>
        <time>2017-03-27T09:56:48Z</time>
      </trkpt>
      <trkpt lat="45.98448" lon="4.91833">
        <ele>297</ele>
        <time>2017-03-27T09:56:49Z</time>
      </trkpt>
      <trkpt lat="45.98444" lon="4.91838">
        <ele>297</ele>
        <time>2017-03-27T09:56:50Z</time>
      </trkpt>
      <trkpt lat="45.98439" lon="4.91842">
        <ele>297</ele>
        <time>2017-03-27T09:56:51Z</time>
      </trkpt>
      <trkpt lat="45.98435" lon="4.91847">
        <ele>297</ele>
        <time>2017-03-27T09:56:52Z</time>
      </trkpt>
      <trkpt lat="45.98431" lon="4.91852">
        <ele>297</ele>
        <time>2017-03-27T09:56:53Z</time>
      </trkpt>
      <trkpt lat="45.98427" lon="4.91857">
        <ele>297</ele>
        <time>2017-03-27T09:56:54Z</time>
      </trkpt>
      <trkpt lat="45.98423" lon="4.91863">
        <ele>297</ele>
        <time>2017-03-27T09:56:55Z</time>
      </trkpt>
      <trkpt lat="45.98419" lon="4.91867">
        <ele>297</ele>
        <time>2017-03-27T09:56:56Z</time>
      </trkpt>
      <trkpt lat="45.98415" lon="4.91872">
        <ele>297</ele>
        <time>2017-03-27T09:56:57Z</time>
      </trkpt>
      <trkpt lat="45.98411" lon="4.91877">
        <ele>297</ele>
        <time>2017-03-27T09:56:58Z</time>
      </trkpt>
      <trkpt lat="45.98406" lon="4.91883">
        <ele>297</ele>
        <time>2017-03-27T09:56:59Z</time>
      </trkpt>
      <trkpt lat="45.98402" lon="4.91888">
        <ele>297</ele>
        <time>2017-03-27T09:57:00Z</time>
      </trkpt>
      <trkpt lat="45.98398" lon="4.91893">
        <ele>297</ele>
        <time>2017-03-27T09:57:01Z</time>
      </trkpt>
      <trkpt lat="45.98394" lon="4.91898">
        <ele>298</ele>
        <time>2017-03-27T09:57:02Z</time>
      </trkpt>
      <trkpt lat="45.98389" lon="4.91903">
        <ele>298</ele>
        <time>2017-03-27T09:57:03Z</time>
      </trkpt>
      <trkpt lat="45.98385" lon="4.91909">
        <ele>298</ele>
        <time>2017-03-27T09:57:04Z</time>
      </trkpt>
      <trkpt lat="45.98381" lon="4.91914">
        <ele>298</ele>
        <time>2017-03-27T09:57:05Z</time>
      </trkpt>
      <trkpt lat="45.98376" lon="4.91919">
        <ele>297</ele>
        <time>2017-03-27T09:57:06Z</time>
      </trkpt>
      <trkpt lat="45.98373" lon="4.91924">
        <ele>298</ele>
        <time>2017-03-27T09:57:07Z</time>
      </trkpt>
      <trkpt lat="45.98368" lon="4.91929">
        <ele>298</ele>
        <time>2017-03-27T09:57:08Z</time>
      </trkpt>
      <trkpt lat="45.98364" lon="4.91934">
        <ele>298</ele>
        <time>2017-03-27T09:57:09Z</time>
      </trkpt>
      <trkpt lat="45.9836" lon="4.91938">
        <ele>298</ele>
        <time>2017-03-27T09:57:10Z</time>
      </trkpt>
      <trkpt lat="45.98355" lon="4.91943">
        <ele>298</ele>
        <time>2017-03-27T09:57:11Z</time>
      </trkpt>
      <trkpt lat="45.98351" lon="4.91947">
        <ele>298</ele>
        <time>2017-03-27T09:57:12Z</time>
      </trkpt>
      <trkpt lat="45.98347" lon="4.91952">
        <ele>298</ele>
        <time>2017-03-27T09:57:13Z</time>
      </trkpt>
      <trkpt lat="45.98343" lon="4.91956">
        <ele>298</ele>
        <time>2017-03-27T09:57:14Z</time>
      </trkpt>
      <trkpt lat="45.98339" lon="4.91961">
        <ele>297</ele>
        <time>2017-03-27T09:57:15Z</time>
      </trkpt>
      <trkpt lat="45.98336" lon="4.91966">
        <ele>297</ele>
        <time>2017-03-27T09:57:16Z</time>
      </trkpt>
      <trkpt lat="45.98332" lon="4.9197">
        <ele>298</ele>
        <time>2017-03-27T09:57:17Z</time>
      </trkpt>
      <trkpt lat="45.98328" lon="4.91975">
        <ele>298</ele>
        <time>2017-03-27T09:57:18Z</time>
      </trkpt>
      <trkpt lat="45.98324" lon="4.9198">
        <ele>298</ele>
        <time>2017-03-27T09:57:19Z</time>
      </trkpt>
      <trkpt lat="45.9832" lon="4.91984">
        <ele>298</ele>
        <time>2017-03-27T09:57:20Z</time>
      </trkpt>
      <trkpt lat="45.98317" lon="4.91988">
        <ele>298</ele>
        <time>2017-03-27T09:57:21Z</time>
      </trkpt>
      <trkpt lat="45.98313" lon="4.91993">
        <ele>298</ele>
        <time>2017-03-27T09:57:22Z</time>
      </trkpt>
      <trkpt lat="45.9831" lon="4.91998">
        <ele>298</ele>
        <time>2017-03-27T09:57:23Z</time>
      </trkpt>
      <trkpt lat="45.98306" lon="4.92002">
        <ele>298</ele>
        <time>2017-03-27T09:57:24Z</time>
      </trkpt>
      <trkpt lat="45.98303" lon="4.92006">
        <ele>298</ele>
        <time>2017-03-27T09:57:25Z</time>
      </trkpt>
      <trkpt lat="45.98299" lon="4.9201">
        <ele>298</ele>
        <time>2017-03-27T09:57:26Z</time>
      </trkpt>
      <trkpt lat="45.98295" lon="4.92015">
        <ele>298</ele>
        <time>2017-03-27T09:57:27Z</time>
      </trkpt>
      <trkpt lat="45.98292" lon="4.92019">
        <ele>298</ele>
        <time>2017-03-27T09:57:28Z</time>
      </trkpt>
      <trkpt lat="45.98286" lon="4.92026">
        <ele>298</ele>
        <time>2017-03-27T09:57:30Z</time>
      </trkpt>
      <trkpt lat="45.98282" lon="4.92029">
        <ele>298</ele>
        <time>2017-03-27T09:57:31Z</time>
      </trkpt>
      <trkpt lat="45.98278" lon="4.92034">
        <ele>298</ele>
        <time>2017-03-27T09:57:32Z</time>
      </trkpt>
      <trkpt lat="45.98275" lon="4.92038">
        <ele>298</ele>
        <time>2017-03-27T09:57:33Z</time>
      </trkpt>
      <trkpt lat="45.98272" lon="4.92042">
        <ele>298</ele>
        <time>2017-03-27T09:57:34Z</time>
      </trkpt>
      <trkpt lat="45.98268" lon="4.92047">
        <ele>298</ele>
        <time>2017-03-27T09:57:35Z</time>
      </trkpt>
      <trkpt lat="45.98264" lon="4.92051">
        <ele>298</ele>
        <time>2017-03-27T09:57:36Z</time>
      </trkpt>
      <trkpt lat="45.9826" lon="4.92055">
        <ele>298</ele>
        <time>2017-03-27T09:57:37Z</time>
      </trkpt>
      <trkpt lat="45.98256" lon="4.9206">
        <ele>298</ele>
        <time>2017-03-27T09:57:38Z</time>
      </trkpt>
      <trkpt lat="45.98253" lon="4.92064">
        <ele>299</ele>
        <time>2017-03-27T09:57:39Z</time>
      </trkpt>
      <trkpt lat="45.98249" lon="4.92069">
        <ele>299</ele>
        <time>2017-03-27T09:57:40Z</time>
      </trkpt>
      <trkpt lat="45.98246" lon="4.92073">
        <ele>299</ele>
        <time>2017-03-27T09:57:41Z</time>
      </trkpt>
      <trkpt lat="45.98242" lon="4.92077">
        <ele>299</ele>
        <time>2017-03-27T09:57:42Z</time>
      </trkpt>
      <trkpt lat="45.98238" lon="4.92082">
        <ele>299</ele>
        <time>2017-03-27T09:57:43Z</time>
      </trkpt>
      <trkpt lat="45.98234" lon="4.92086">
        <ele>299</ele>
        <time>2017-03-27T09:57:44Z</time>
      </trkpt>
      <trkpt lat="45.98231" lon="4.9209">
        <ele>299</ele>
        <time>2017-03-27T09:57:45Z</time>
      </trkpt>
      <trkpt lat="45.98227" lon="4.92095">
        <ele>299</ele>
        <time>2017-03-27T09:57:46Z</time>
      </trkpt>
      <trkpt lat="45.98223" lon="4.92099">
        <ele>299</ele>
        <time>2017-03-27T09:57:47Z</time>
      </trkpt>
      <trkpt lat="45.98219" lon="4.92103">
        <ele>299</ele>
        <time>2017-03-27T09:57:48Z</time>
      </trkpt>
      <trkpt lat="45.98215" lon="4.92108">
        <ele>299</ele>
        <time>2017-03-27T09:57:49Z</time>
      </trkpt>
      <trkpt lat="45.98212" lon="4.92112">
        <ele>299</ele>
        <time>2017-03-27T09:57:50Z</time>
      </trkpt>
      <trkpt lat="45.98208" lon="4.92116">
        <ele>299</ele>
        <time>2017-03-27T09:57:51Z</time>
      </trkpt>
      <trkpt lat="45.98204" lon="4.92121">
        <ele>299</ele>
        <time>2017-03-27T09:57:52Z</time>
      </trkpt>
      <trkpt lat="45.982" lon="4.92125">
        <ele>299</ele>
        <time>2017-03-27T09:57:53Z</time>
      </trkpt>
      <trkpt lat="45.98196" lon="4.92129">
        <ele>299</ele>
        <time>2017-03-27T09:57:54Z</time>
      </trkpt>
      <trkpt lat="45.98193" lon="4.92133">
        <ele>299</ele>
        <time>2017-03-27T09:57:55Z</time>
      </trkpt>
      <trkpt lat="45.98189" lon="4.92138">
        <ele>299</ele>
        <time>2017-03-27T09:57:56Z</time>
      </trkpt>
      <trkpt lat="45.98186" lon="4.92143">
        <ele>299</ele>
        <time>2017-03-27T09:57:57Z</time>
      </trkpt>
      <trkpt lat="45.98182" lon="4.92148">
        <ele>299</ele>
        <time>2017-03-27T09:57:58Z</time>
      </trkpt>
      <trkpt lat="45.98179" lon="4.92152">
        <ele>299</ele>
        <time>2017-03-27T09:57:59Z</time>
      </trkpt>
      <trkpt lat="45.98175" lon="4.92156">
        <ele>299</ele>
        <time>2017-03-27T09:58:00Z</time>
      </trkpt>
      <trkpt lat="45.98171" lon="4.92161">
        <ele>299</ele>
        <time>2017-03-27T09:58:01Z</time>
      </trkpt>
      <trkpt lat="45.98168" lon="4.92165">
        <ele>299</ele>
        <time>2017-03-27T09:58:02Z</time>
      </trkpt>
      <trkpt lat="45.98164" lon="4.92169">
        <ele>299</ele>
        <time>2017-03-27T09:58:03Z</time>
      </trkpt>
      <trkpt lat="45.98161" lon="4.92173">
        <ele>299</ele>
        <time>2017-03-27T09:58:04Z</time>
      </trkpt>
      <trkpt lat="45.98158" lon="4.92178">
        <ele>299</ele>
        <time>2017-03-27T09:58:05Z</time>
      </trkpt>
      <trkpt lat="45.98154" lon="4.92183">
        <ele>299</ele>
        <time>2017-03-27T09:58:06Z</time>
      </trkpt>
      <trkpt lat="45.98151" lon="4.92188">
        <ele>299</ele>
        <time>2017-03-27T09:58:07Z</time>
      </trkpt>
      <trkpt lat="45.98147" lon="4.92192">
        <ele>299</ele>
        <time>2017-03-27T09:58:08Z</time>
      </trkpt>
      <trkpt lat="45.98144" lon="4.92197">
        <ele>299</ele>
        <time>2017-03-27T09:58:09Z</time>
      </trkpt>
      <trkpt lat="45.98141" lon="4.92201">
        <ele>299</ele>
        <time>2017-03-27T09:58:10Z</time>
      </trkpt>
      <trkpt lat="45.98137" lon="4.92206">
        <ele>299</ele>
        <time>2017-03-27T09:58:11Z</time>
      </trkpt>
      <trkpt lat="45.98134" lon="4.92211">
        <ele>299</ele>
        <time>2017-03-27T09:58:12Z</time>
      </trkpt>
      <trkpt lat="45.9813" lon="4.92215">
        <ele>299</ele>
        <time>2017-03-27T09:58:13Z</time>
      </trkpt>
      <trkpt lat="45.98126" lon="4.92219">
        <ele>299</ele>
        <time>2017-03-27T09:58:14Z</time>
      </trkpt>
      <trkpt lat="45.98123" lon="4.92223">
        <ele>299</ele>
        <time>2017-03-27T09:58:15Z</time>
      </trkpt>
      <trkpt lat="45.98119" lon="4.92227">
        <ele>299</ele>
        <time>2017-03-27T09:58:16Z</time>
      </trkpt>
      <trkpt lat="45.98115" lon="4.92231">
        <ele>299</ele>
        <time>2017-03-27T09:58:17Z</time>
      </trkpt>
      <trkpt lat="45.98112" lon="4.92236">
        <ele>299</ele>
        <time>2017-03-27T09:58:18Z</time>
      </trkpt>
      <trkpt lat="45.98108" lon="4.9224">
        <ele>299</ele>
        <time>2017-03-27T09:58:19Z</time>
      </trkpt>
      <trkpt lat="45.98104" lon="4.92244">
        <ele>299</ele>
        <time>2017-03-27T09:58:20Z</time>
      </trkpt>
      <trkpt lat="45.98101" lon="4.92249">
        <ele>299</ele>
        <time>2017-03-27T09:58:21Z</time>
      </trkpt>
      <trkpt lat="45.98097" lon="4.92253">
        <ele>299</ele>
        <time>2017-03-27T09:58:22Z</time>
      </trkpt>
      <trkpt lat="45.98093" lon="4.92258">
        <ele>299</ele>
        <time>2017-03-27T09:58:23Z</time>
      </trkpt>
      <trkpt lat="45.9809" lon="4.92262">
        <ele>299</ele>
        <time>2017-03-27T09:58:24Z</time>
      </trkpt>
      <trkpt lat="45.98086" lon="4.92267">
        <ele>300</ele>
        <time>2017-03-27T09:58:25Z</time>
      </trkpt>
      <trkpt lat="45.98083" lon="4.92271">
        <ele>299</ele>
        <time>2017-03-27T09:58:26Z</time>
      </trkpt>
      <trkpt lat="45.98079" lon="4.92275">
        <ele>299</ele>
        <time>2017-03-27T09:58:27Z</time>
      </trkpt>
      <trkpt lat="45.98076" lon="4.92281">
        <ele>299</ele>
        <time>2017-03-27T09:58:28Z</time>
      </trkpt>
      <trkpt lat="45.98073" lon="4.92286">
        <ele>299</ele>
        <time>2017-03-27T09:58:29Z</time>
      </trkpt>
      <trkpt lat="45.98069" lon="4.92291">
        <ele>299</ele>
        <time>2017-03-27T09:58:30Z</time>
      </trkpt>
      <trkpt lat="45.98066" lon="4.92296">
        <ele>299</ele>
        <time>2017-03-27T09:58:31Z</time>
      </trkpt>
      <trkpt lat="45.98063" lon="4.92301">
        <ele>299</ele>
        <time>2017-03-27T09:58:32Z</time>
      </trkpt>
      <trkpt lat="45.98059" lon="4.92304">
        <ele>299</ele>
        <time>2017-03-27T09:58:33Z</time>
      </trkpt>
      <trkpt lat="45.98052" lon="4.92312">
        <ele>299</ele>
        <time>2017-03-27T09:58:35Z</time>
      </trkpt>
      <trkpt lat="45.98049" lon="4.92316">
        <ele>299</ele>
        <time>2017-03-27T09:58:36Z</time>
      </trkpt>
      <trkpt lat="45.98043" lon="4.92325">
        <ele>299</ele>
        <time>2017-03-27T09:58:38Z</time>
      </trkpt>
      <trkpt lat="45.98039" lon="4.92329">
        <ele>299</ele>
        <time>2017-03-27T09:58:39Z</time>
      </trkpt>
      <trkpt lat="45.98036" lon="4.92333">
        <ele>299</ele>
        <time>2017-03-27T09:58:40Z</time>
      </trkpt>
      <trkpt lat="45.98032" lon="4.92338">
        <ele>299</ele>
        <time>2017-03-27T09:58:41Z</time>
      </trkpt>
      <trkpt lat="45.98026" lon="4.92347">
        <ele>298</ele>
        <time>2017-03-27T09:58:43Z</time>
      </trkpt>
      <trkpt lat="45.98023" lon="4.92351">
        <ele>298</ele>
        <time>2017-03-27T09:58:44Z</time>
      </trkpt>
      <trkpt lat="45.98016" lon="4.92359">
        <ele>298</ele>
        <time>2017-03-27T09:58:46Z</time>
      </trkpt>
      <trkpt lat="45.98012" lon="4.92363">
        <ele>298</ele>
        <time>2017-03-27T09:58:47Z</time>
      </trkpt>
      <trkpt lat="45.98005" lon="4.92371">
        <ele>298</ele>
        <time>2017-03-27T09:58:49Z</time>
      </trkpt>
      <trkpt lat="45.98002" lon="4.92375">
        <ele>298</ele>
        <time>2017-03-27T09:58:50Z</time>
      </trkpt>
      <trkpt lat="45.97995" lon="4.92384">
        <ele>298</ele>
        <time>2017-03-27T09:58:52Z</time>
      </trkpt>
      <trkpt lat="45.97992" lon="4.92388">
        <ele>298</ele>
        <time>2017-03-27T09:58:53Z</time>
      </trkpt>
      <trkpt lat="45.97985" lon="4.92396">
        <ele>298</ele>
        <time>2017-03-27T09:58:55Z</time>
      </trkpt>
      <trkpt lat="45.97982" lon="4.924">
        <ele>298</ele>
        <time>2017-03-27T09:58:56Z</time>
      </trkpt>
      <trkpt lat="45.97975" lon="4.92408">
        <ele>298</ele>
        <time>2017-03-27T09:58:58Z</time>
      </trkpt>
      <trkpt lat="45.97972" lon="4.92413">
        <ele>298</ele>
        <time>2017-03-27T09:58:59Z</time>
      </trkpt>
      <trkpt lat="45.97966" lon="4.92422">
        <ele>298</ele>
        <time>2017-03-27T09:59:01Z</time>
      </trkpt>
      <trkpt lat="45.97962" lon="4.92425">
        <ele>298</ele>
        <time>2017-03-27T09:59:02Z</time>
      </trkpt>
      <trkpt lat="45.97958" lon="4.92429">
        <ele>299</ele>
        <time>2017-03-27T09:59:03Z</time>
      </trkpt>
      <trkpt lat="45.97955" lon="4.92434">
        <ele>299</ele>
        <time>2017-03-27T09:59:04Z</time>
      </trkpt>
      <trkpt lat="45.97952" lon="4.92439">
        <ele>299</ele>
        <time>2017-03-27T09:59:05Z</time>
      </trkpt>
      <trkpt lat="45.97948" lon="4.92443">
        <ele>299</ele>
        <time>2017-03-27T09:59:06Z</time>
      </trkpt>
      <trkpt lat="45.97944" lon="4.92447">
        <ele>299</ele>
        <time>2017-03-27T09:59:07Z</time>
      </trkpt>
      <trkpt lat="45.97941" lon="4.92452">
        <ele>299</ele>
        <time>2017-03-27T09:59:08Z</time>
      </trkpt>
      <trkpt lat="45.97937" lon="4.92456">
        <ele>299</ele>
        <time>2017-03-27T09:59:09Z</time>
      </trkpt>
      <trkpt lat="45.97933" lon="4.92461">
        <ele>299</ele>
        <time>2017-03-27T09:59:10Z</time>
      </trkpt>
      <trkpt lat="45.9793" lon="4.92465">
        <ele>299</ele>
        <time>2017-03-27T09:59:11Z</time>
      </trkpt>
      <trkpt lat="45.97926" lon="4.92469">
        <ele>299</ele>
        <time>2017-03-27T09:59:12Z</time>
      </trkpt>
      <trkpt lat="45.97923" lon="4.92474">
        <ele>299</ele>
        <time>2017-03-27T09:59:13Z</time>
      </trkpt>
      <trkpt lat="45.97919" lon="4.92478">
        <ele>299</ele>
        <time>2017-03-27T09:59:14Z</time>
      </trkpt>
      <trkpt lat="45.97915" lon="4.92483">
        <ele>299</ele>
        <time>2017-03-27T09:59:15Z</time>
      </trkpt>
      <trkpt lat="45.97912" lon="4.92487">
        <ele>299</ele>
        <time>2017-03-27T09:59:16Z</time>
      </trkpt>
      <trkpt lat="45.97908" lon="4.92492">
        <ele>299</ele>
        <time>2017-03-27T09:59:17Z</time>
      </trkpt>
      <trkpt lat="45.97904" lon="4.92495">
        <ele>299</ele>
        <time>2017-03-27T09:59:18Z</time>
      </trkpt>
      <trkpt lat="45.97901" lon="4.925">
        <ele>299</ele>
        <time>2017-03-27T09:59:19Z</time>
      </trkpt>
      <trkpt lat="45.97897" lon="4.92504">
        <ele>299</ele>
        <time>2017-03-27T09:59:20Z</time>
      </trkpt>
      <trkpt lat="45.97893" lon="4.92508">
        <ele>299</ele>
        <time>2017-03-27T09:59:21Z</time>
      </trkpt>
      <trkpt lat="45.9789" lon="4.92512">
        <ele>300</ele>
        <time>2017-03-27T09:59:22Z</time>
      </trkpt>
      <trkpt lat="45.97883" lon="4.9252">
        <ele>300</ele>
        <time>2017-03-27T09:59:24Z</time>
      </trkpt>
      <trkpt lat="45.97879" lon="4.92524">
        <ele>300</ele>
        <time>2017-03-27T09:59:25Z</time>
      </trkpt>
      <trkpt lat="45.97873" lon="4.92532">
        <ele>300</ele>
        <time>2017-03-27T09:59:27Z</time>
      </trkpt>
      <trkpt lat="45.97869" lon="4.92537">
        <ele>300</ele>
        <time>2017-03-27T09:59:28Z</time>
      </trkpt>
      <trkpt lat="45.97866" lon="4.92541">
        <ele>300</ele>
        <time>2017-03-27T09:59:29Z</time>
      </trkpt>
      <trkpt lat="45.97862" lon="4.92546">
        <ele>300</ele>
        <time>2017-03-27T09:59:30Z</time>
      </trkpt>
      <trkpt lat="45.97859" lon="4.9255">
        <ele>300</ele>
        <time>2017-03-27T09:59:31Z</time>
      </trkpt>
      <trkpt lat="45.97855" lon="4.92555">
        <ele>300</ele>
        <time>2017-03-27T09:59:32Z</time>
      </trkpt>
      <trkpt lat="45.97851" lon="4.9256">
        <ele>300</ele>
        <time>2017-03-27T09:59:33Z</time>
      </trkpt>
      <trkpt lat="45.97847" lon="4.92564">
        <ele>300</ele>
        <time>2017-03-27T09:59:34Z</time>
      </trkpt>
      <trkpt lat="45.97843" lon="4.92568">
        <ele>300</ele>
        <time>2017-03-27T09:59:35Z</time>
      </trkpt>
      <trkpt lat="45.9784" lon="4.92573">
        <ele>300</ele>
        <time>2017-03-27T09:59:36Z</time>
      </trkpt>
      <trkpt lat="45.97836" lon="4.92577">
        <ele>300</ele>
        <time>2017-03-27T09:59:37Z</time>
      </trkpt>
      <trkpt lat="45.97833" lon="4.92581">
        <ele>300</ele>
        <time>2017-03-27T09:59:38Z</time>
      </trkpt>
      <trkpt lat="45.97826" lon="4.92588">
        <ele>300</ele>
        <time>2017-03-27T09:59:40Z</time>
      </trkpt>
      <trkpt lat="45.97823" lon="4.92592">
        <ele>300</ele>
        <time>2017-03-27T09:59:41Z</time>
      </trkpt>
      <trkpt lat="45.9782" lon="4.92596">
        <ele>300</ele>
        <time>2017-03-27T09:59:42Z</time>
      </trkpt>
      <trkpt lat="45.97816" lon="4.92601">
        <ele>300</ele>
        <time>2017-03-27T09:59:43Z</time>
      </trkpt>
      <trkpt lat="45.97813" lon="4.92605">
        <ele>300</ele>
        <time>2017-03-27T09:59:44Z</time>
      </trkpt>
      <trkpt lat="45.97809" lon="4.92609">
        <ele>300</ele>
        <time>2017-03-27T09:59:45Z</time>
      </trkpt>
      <trkpt lat="45.97805" lon="4.92613">
        <ele>300</ele>
        <time>2017-03-27T09:59:46Z</time>
      </trkpt>
      <trkpt lat="45.97802" lon="4.92617">
        <ele>300</ele>
        <time>2017-03-27T09:59:47Z</time>
      </trkpt>
      <trkpt lat="45.97795" lon="4.92625">
        <ele>301</ele>
        <time>2017-03-27T09:59:49Z</time>
      </trkpt>
      <trkpt lat="45.97792" lon="4.9263">
        <ele>300</ele>
        <time>2017-03-27T09:59:50Z</time>
      </trkpt>
      <trkpt lat="45.97789" lon="4.92635">
        <ele>300</ele>
        <time>2017-03-27T09:59:51Z</time>
      </trkpt>
      <trkpt lat="45.97785" lon="4.9264">
        <ele>300</ele>
        <time>2017-03-27T09:59:52Z</time>
      </trkpt>
      <trkpt lat="45.97782" lon="4.92644">
        <ele>300</ele>
        <time>2017-03-27T09:59:53Z</time>
      </trkpt>
      <trkpt lat="45.97778" lon="4.92649">
        <ele>300</ele>
        <time>2017-03-27T09:59:54Z</time>
      </trkpt>
      <trkpt lat="45.97775" lon="4.92653">
        <ele>300</ele>
        <time>2017-03-27T09:59:55Z</time>
      </trkpt>
      <trkpt lat="45.97771" lon="4.92658">
        <ele>300</ele>
        <time>2017-03-27T09:59:56Z</time>
      </trkpt>
      <trkpt lat="45.97768" lon="4.92663">
        <ele>300</ele>
        <time>2017-03-27T09:59:57Z</time>
      </trkpt>
      <trkpt lat="45.97764" lon="4.92667">
        <ele>300</ele>
        <time>2017-03-27T09:59:58Z</time>
      </trkpt>
      <trkpt lat="45.97761" lon="4.92672">
        <ele>300</ele>
        <time>2017-03-27T09:59:59Z</time>
      </trkpt>
      <trkpt lat="45.97758" lon="4.92676">
        <ele>300</ele>
        <time>2017-03-27T10:00:00Z</time>
      </trkpt>
      <trkpt lat="45.97751" lon="4.92684">
        <ele>300</ele>
        <time>2017-03-27T10:00:02Z</time>
      </trkpt>
      <trkpt lat="45.97747" lon="4.92688">
        <ele>301</ele>
        <time>2017-03-27T10:00:03Z</time>
      </trkpt>
      <trkpt lat="45.97743" lon="4.92693">
        <ele>301</ele>
        <time>2017-03-27T10:00:04Z</time>
      </trkpt>
      <trkpt lat="45.97738" lon="4.92697">
        <ele>301</ele>
        <time>2017-03-27T10:00:05Z</time>
      </trkpt>
      <trkpt lat="45.97734" lon="4.92702">
        <ele>301</ele>
        <time>2017-03-27T10:00:06Z</time>
      </trkpt>
      <trkpt lat="45.97731" lon="4.92707">
        <ele>301</ele>
        <time>2017-03-27T10:00:07Z</time>
      </trkpt>
      <trkpt lat="45.97726" lon="4.92712">
        <ele>301</ele>
        <time>2017-03-27T10:00:08Z</time>
      </trkpt>
      <trkpt lat="45.97722" lon="4.92717">
        <ele>301</ele>
        <time>2017-03-27T10:00:09Z</time>
      </trkpt>
      <trkpt lat="45.97718" lon="4.92723">
        <ele>301</ele>
        <time>2017-03-27T10:00:10Z</time>
      </trkpt>
      <trkpt lat="45.97714" lon="4.92727">
        <ele>301</ele>
        <time>2017-03-27T10:00:11Z</time>
      </trkpt>
      <trkpt lat="45.9771" lon="4.92732">
        <ele>301</ele>
        <time>2017-03-27T10:00:12Z</time>
      </trkpt>
      <trkpt lat="45.97706" lon="4.92736">
        <ele>302</ele>
        <time>2017-03-27T10:00:13Z</time>
      </trkpt>
      <trkpt lat="45.97702" lon="4.9274">
        <ele>302</ele>
        <time>2017-03-27T10:00:14Z</time>
      </trkpt>
      <trkpt lat="45.97698" lon="4.92745">
        <ele>302</ele>
        <time>2017-03-27T10:00:15Z</time>
      </trkpt>
      <trkpt lat="45.97694" lon="4.92749">
        <ele>302</ele>
        <time>2017-03-27T10:00:16Z</time>
      </trkpt>
      <trkpt lat="45.9769" lon="4.92754">
        <ele>302</ele>
        <time>2017-03-27T10:00:17Z</time>
      </trkpt>
      <trkpt lat="45.97686" lon="4.92759">
        <ele>302</ele>
        <time>2017-03-27T10:00:18Z</time>
      </trkpt>
      <trkpt lat="45.97682" lon="4.92764">
        <ele>302</ele>
        <time>2017-03-27T10:00:19Z</time>
      </trkpt>
      <trkpt lat="45.97678" lon="4.92769">
        <ele>302</ele>
        <time>2017-03-27T10:00:20Z</time>
      </trkpt>
      <trkpt lat="45.97674" lon="4.92774">
        <ele>302</ele>
        <time>2017-03-27T10:00:21Z</time>
      </trkpt>
      <trkpt lat="45.9767" lon="4.92779">
        <ele>301</ele>
        <time>2017-03-27T10:00:22Z</time>
      </trkpt>
      <trkpt lat="45.97666" lon="4.92784">
        <ele>301</ele>
        <time>2017-03-27T10:00:23Z</time>
      </trkpt>
      <trkpt lat="45.97662" lon="4.92789">
        <ele>301</ele>
        <time>2017-03-27T10:00:24Z</time>
      </trkpt>
      <trkpt lat="45.97659" lon="4.92794">
        <ele>301</ele>
        <time>2017-03-27T10:00:25Z</time>
      </trkpt>
      <trkpt lat="45.97655" lon="4.92799">
        <ele>301</ele>
        <time>2017-03-27T10:00:26Z</time>
      </trkpt>
      <trkpt lat="45.97651" lon="4.92803">
        <ele>300</ele>
        <time>2017-03-27T10:00:27Z</time>
      </trkpt>
      <trkpt lat="45.97647" lon="4.92808">
        <ele>300</ele>
        <time>2017-03-27T10:00:28Z</time>
      </trkpt>
      <trkpt lat="45.97643" lon="4.92812">
        <ele>300</ele>
        <time>2017-03-27T10:00:29Z</time>
      </trkpt>
      <trkpt lat="45.97639" lon="4.92817">
        <ele>300</ele>
        <time>2017-03-27T10:00:30Z</time>
      </trkpt>
      <trkpt lat="45.97636" lon="4.92821">
        <ele>300</ele>
        <time>2017-03-27T10:00:31Z</time>
      </trkpt>
      <trkpt lat="45.97632" lon="4.92826">
        <ele>300</ele>
        <time>2017-03-27T10:00:32Z</time>
      </trkpt>
      <trkpt lat="45.97628" lon="4.92832">
        <ele>300</ele>
        <time>2017-03-27T10:00:33Z</time>
      </trkpt>
      <trkpt lat="45.97624" lon="4.92837">
        <ele>298</ele>
        <time>2017-03-27T10:00:34Z</time>
      </trkpt>
      <trkpt lat="45.97619" lon="4.92842">
        <ele>298</ele>
        <time>2017-03-27T10:00:35Z</time>
      </trkpt>
      <trkpt lat="45.97615" lon="4.92848">
        <ele>298</ele>
        <time>2017-03-27T10:00:36Z</time>
      </trkpt>
      <trkpt lat="45.9761" lon="4.92853">
        <ele>298</ele>
        <time>2017-03-27T10:00:37Z</time>
      </trkpt>
      <trkpt lat="45.97605" lon="4.92858">
        <ele>298</ele>
        <time>2017-03-27T10:00:38Z</time>
      </trkpt>
      <trkpt lat="45.97601" lon="4.92863">
        <ele>298</ele>
        <time>2017-03-27T10:00:39Z</time>
      </trkpt>
      <trkpt lat="45.97596" lon="4.92868">
        <ele>298</ele>
        <time>2017-03-27T10:00:40Z</time>
      </trkpt>
      <trkpt lat="45.97592" lon="4.92873">
        <ele>298</ele>
        <time>2017-03-27T10:00:41Z</time>
      </trkpt>
      <trkpt lat="45.97589" lon="4.92878">
        <ele>298</ele>
        <time>2017-03-27T10:00:42Z</time>
      </trkpt>
      <trkpt lat="45.97585" lon="4.92882">
        <ele>298</ele>
        <time>2017-03-27T10:00:43Z</time>
      </trkpt>
      <trkpt lat="45.97581" lon="4.92887">
        <ele>298</ele>
        <time>2017-03-27T10:00:44Z</time>
      </trkpt>
      <trkpt lat="45.97578" lon="4.92891">
        <ele>298</ele>
        <time>2017-03-27T10:00:45Z</time>
      </trkpt>
      <trkpt lat="45.97574" lon="4.92895">
        <ele>298</ele>
        <time>2017-03-27T10:00:46Z</time>
      </trkpt>
      <trkpt lat="45.97571" lon="4.929">
        <ele>298</ele>
        <time>2017-03-27T10:00:47Z</time>
      </trkpt>
      <trkpt lat="45.97567" lon="4.92904">
        <ele>298</ele>
        <time>2017-03-27T10:00:48Z</time>
      </trkpt>
      <trkpt lat="45.97563" lon="4.92909">
        <ele>298</ele>
        <time>2017-03-27T10:00:49Z</time>
      </trkpt>
      <trkpt lat="45.9756" lon="4.92913">
        <ele>298</ele>
        <time>2017-03-27T10:00:50Z</time>
      </trkpt>
      <trkpt lat="45.97556" lon="4.92918">
        <ele>298</ele>
        <time>2017-03-27T10:00:51Z</time>
      </trkpt>
      <trkpt lat="45.97552" lon="4.92923">
        <ele>298</ele>
        <time>2017-03-27T10:00:52Z</time>
      </trkpt>
      <trkpt lat="45.97548" lon="4.92928">
        <ele>299</ele>
        <time>2017-03-27T10:00:53Z</time>
      </trkpt>
      <trkpt lat="45.97544" lon="4.92932">
        <ele>299</ele>
        <time>2017-03-27T10:00:54Z</time>
      </trkpt>
      <trkpt lat="45.9754" lon="4.92937">
        <ele>299</ele>
        <time>2017-03-27T10:00:55Z</time>
      </trkpt>
      <trkpt lat="45.97536" lon="4.92942">
        <ele>299</ele>
        <time>2017-03-27T10:00:56Z</time>
      </trkpt>
      <trkpt lat="45.97531" lon="4.92946">
        <ele>299</ele>
        <time>2017-03-27T10:00:57Z</time>
      </trkpt>
      <trkpt lat="45.97527" lon="4.92951">
        <ele>299</ele>
        <time>2017-03-27T10:00:58Z</time>
      </trkpt>
      <trkpt lat="45.97523" lon="4.92956">
        <ele>299</ele>
        <time>2017-03-27T10:00:59Z</time>
      </trkpt>
      <trkpt lat="45.97519" lon="4.92961">
        <ele>299</ele>
        <time>2017-03-27T10:01:00Z</time>
      </trkpt>
      <trkpt lat="45.97516" lon="4.92965">
        <ele>299</ele>
        <time>2017-03-27T10:01:01Z</time>
      </trkpt>
      <trkpt lat="45.9751" lon="4.92974">
        <ele>299</ele>
        <time>2017-03-27T10:01:03Z</time>
      </trkpt>
      <trkpt lat="45.97507" lon="4.92979">
        <ele>299</ele>
        <time>2017-03-27T10:01:04Z</time>
      </trkpt>
      <trkpt lat="45.97504" lon="4.92983">
        <ele>299</ele>
        <time>2017-03-27T10:01:05Z</time>
      </trkpt>
      <trkpt lat="45.975" lon="4.92989">
        <ele>299</ele>
        <time>2017-03-27T10:01:06Z</time>
      </trkpt>
      <trkpt lat="45.97497" lon="4.92994">
        <ele>299</ele>
        <time>2017-03-27T10:01:07Z</time>
      </trkpt>
      <trkpt lat="45.97494" lon="4.92998">
        <ele>299</ele>
        <time>2017-03-27T10:01:08Z</time>
      </trkpt>
      <trkpt lat="45.9749" lon="4.93003">
        <ele>299</ele>
        <time>2017-03-27T10:01:09Z</time>
      </trkpt>
      <trkpt lat="45.97486" lon="4.93007">
        <ele>299</ele>
        <time>2017-03-27T10:01:10Z</time>
      </trkpt>
      <trkpt lat="45.97482" lon="4.93012">
        <ele>299</ele>
        <time>2017-03-27T10:01:11Z</time>
      </trkpt>
      <trkpt lat="45.97478" lon="4.93017">
        <ele>299</ele>
        <time>2017-03-27T10:01:12Z</time>
      </trkpt>
      <trkpt lat="45.97474" lon="4.93022">
        <ele>299</ele>
        <time>2017-03-27T10:01:13Z</time>
      </trkpt>
      <trkpt lat="45.9747" lon="4.93027">
        <ele>299</ele>
        <time>2017-03-27T10:01:14Z</time>
      </trkpt>
      <trkpt lat="45.97466" lon="4.93032">
        <ele>299</ele>
        <time>2017-03-27T10:01:15Z</time>
      </trkpt>
      <trkpt lat="45.97462" lon="4.93037">
        <ele>299</ele>
        <time>2017-03-27T10:01:16Z</time>
      </trkpt>
      <trkpt lat="45.97458" lon="4.93042">
        <ele>299</ele>
        <time>2017-03-27T10:01:17Z</time>
      </trkpt>
      <trkpt lat="45.97454" lon="4.93047">
        <ele>299</ele>
        <time>2017-03-27T10:01:18Z</time>
      </trkpt>
      <trkpt lat="45.97447" lon="4.93054">
        <ele>299</ele>
        <time>2017-03-27T10:01:20Z</time>
      </trkpt>
      <trkpt lat="45.97444" lon="4.93058">
        <ele>299</ele>
        <time>2017-03-27T10:01:21Z</time>
      </trkpt>
      <trkpt lat="45.97438" lon="4.93066">
        <ele>299</ele>
        <time>2017-03-27T10:01:23Z</time>
      </trkpt>
      <trkpt lat="45.97434" lon="4.93071">
        <ele>299</ele>
        <time>2017-03-27T10:01:24Z</time>
      </trkpt>
      <trkpt lat="45.97428" lon="4.93079">
        <ele>299</ele>
        <time>2017-03-27T10:01:26Z</time>
      </trkpt>
      <trkpt lat="45.97425" lon="4.93083">
        <ele>299</ele>
        <time>2017-03-27T10:01:27Z</time>
      </trkpt>
      <trkpt lat="45.97421" lon="4.93087">
        <ele>299</ele>
        <time>2017-03-27T10:01:28Z</time>
      </trkpt>
      <trkpt lat="45.97418" lon="4.93092">
        <ele>299</ele>
        <time>2017-03-27T10:01:29Z</time>
      </trkpt>
      <trkpt lat="45.97411" lon="4.931">
        <ele>299</ele>
        <time>2017-03-27T10:01:31Z</time>
      </trkpt>
      <trkpt lat="45.97407" lon="4.93104">
        <ele>300</ele>
        <time>2017-03-27T10:01:32Z</time>
      </trkpt>
      <trkpt lat="45.97403" lon="4.93109">
        <ele>300</ele>
        <time>2017-03-27T10:01:33Z</time>
      </trkpt>
      <trkpt lat="45.97399" lon="4.93113">
        <ele>300</ele>
        <time>2017-03-27T10:01:34Z</time>
      </trkpt>
      <trkpt lat="45.97395" lon="4.93118">
        <ele>300</ele>
        <time>2017-03-27T10:01:35Z</time>
      </trkpt>
      <trkpt lat="45.97392" lon="4.93121">
        <ele>300</ele>
        <time>2017-03-27T10:01:36Z</time>
      </trkpt>
      <trkpt lat="45.97388" lon="4.93126">
        <ele>300</ele>
        <time>2017-03-27T10:01:37Z</time>
      </trkpt>
      <trkpt lat="45.97384" lon="4.9313">
        <ele>300</ele>
        <time>2017-03-27T10:01:38Z</time>
      </trkpt>
      <trkpt lat="45.97377" lon="4.93138">
        <ele>300</ele>
        <time>2017-03-27T10:01:40Z</time>
      </trkpt>
      <trkpt lat="45.97374" lon="4.93142">
        <ele>300</ele>
        <time>2017-03-27T10:01:41Z</time>
      </trkpt>
      <trkpt lat="45.97367" lon="4.9315">
        <ele>300</ele>
        <time>2017-03-27T10:01:43Z</time>
      </trkpt>
      <trkpt lat="45.97364" lon="4.93154">
        <ele>300</ele>
        <time>2017-03-27T10:01:44Z</time>
      </trkpt>
      <trkpt lat="45.9736" lon="4.93158">
        <ele>300</ele>
        <time>2017-03-27T10:01:45Z</time>
      </trkpt>
      <trkpt lat="45.97356" lon="4.93162">
        <ele>300</ele>
        <time>2017-03-27T10:01:46Z</time>
      </trkpt>
      <trkpt lat="45.97352" lon="4.93167">
        <ele>300</ele>
        <time>2017-03-27T10:01:47Z</time>
      </trkpt>
      <trkpt lat="45.97348" lon="4.93171">
        <ele>301</ele>
        <time>2017-03-27T10:01:48Z</time>
      </trkpt>
      <trkpt lat="45.97344" lon="4.93175">
        <ele>301</ele>
        <time>2017-03-27T10:01:49Z</time>
      </trkpt>
      <trkpt lat="45.97341" lon="4.9318">
        <ele>301</ele>
        <time>2017-03-27T10:01:50Z</time>
      </trkpt>
      <trkpt lat="45.97334" lon="4.93187">
        <ele>301</ele>
        <time>2017-03-27T10:01:52Z</time>
      </trkpt>
      <trkpt lat="45.9733" lon="4.93191">
        <ele>301</ele>
        <time>2017-03-27T10:01:53Z</time>
      </trkpt>
      <trkpt lat="45.97324" lon="4.93198">
        <ele>301</ele>
        <time>2017-03-27T10:01:55Z</time>
      </trkpt>
      <trkpt lat="45.9732" lon="4.93201">
        <ele>301</ele>
        <time>2017-03-27T10:01:56Z</time>
      </trkpt>
      <trkpt lat="45.97313" lon="4.93209">
        <ele>301</ele>
        <time>2017-03-27T10:01:58Z</time>
      </trkpt>
      <trkpt lat="45.9731" lon="4.93213">
        <ele>301</ele>
        <time>2017-03-27T10:01:59Z</time>
      </trkpt>
      <trkpt lat="45.97306" lon="4.93217">
        <ele>301</ele>
        <time>2017-03-27T10:02:00Z</time>
      </trkpt>
      <trkpt lat="45.97302" lon="4.93221">
        <ele>301</ele>
        <time>2017-03-27T10:02:01Z</time>
      </trkpt>
      <trkpt lat="45.97298" lon="4.93225">
        <ele>301</ele>
        <time>2017-03-27T10:02:02Z</time>
      </trkpt>
      <trkpt lat="45.97295" lon="4.9323">
        <ele>301</ele>
        <time>2017-03-27T10:02:03Z</time>
      </trkpt>
      <trkpt lat="45.97291" lon="4.93234">
        <ele>301</ele>
        <time>2017-03-27T10:02:04Z</time>
      </trkpt>
      <trkpt lat="45.97287" lon="4.93238">
        <ele>301</ele>
        <time>2017-03-27T10:02:05Z</time>
      </trkpt>
      <trkpt lat="45.97283" lon="4.93243">
        <ele>301</ele>
        <time>2017-03-27T10:02:06Z</time>
      </trkpt>
      <trkpt lat="45.9728" lon="4.93248">
        <ele>301</ele>
        <time>2017-03-27T10:02:07Z</time>
      </trkpt>
      <trkpt lat="45.97277" lon="4.93253">
        <ele>302</ele>
        <time>2017-03-27T10:02:08Z</time>
      </trkpt>
      <trkpt lat="45.97273" lon="4.93257">
        <ele>302</ele>
        <time>2017-03-27T10:02:09Z</time>
      </trkpt>
      <trkpt lat="45.9727" lon="4.93262">
        <ele>302</ele>
        <time>2017-03-27T10:02:10Z</time>
      </trkpt>
      <trkpt lat="45.97266" lon="4.93266">
        <ele>302</ele>
        <time>2017-03-27T10:02:11Z</time>
      </trkpt>
      <trkpt lat="45.97262" lon="4.9327">
        <ele>302</ele>
        <time>2017-03-27T10:02:12Z</time>
      </trkpt>
      <trkpt lat="45.97257" lon="4.93274">
        <ele>302</ele>
        <time>2017-03-27T10:02:13Z</time>
      </trkpt>
      <trkpt lat="45.97253" lon="4.93278">
        <ele>302</ele>
        <time>2017-03-27T10:02:14Z</time>
      </trkpt>
      <trkpt lat="45.97249" lon="4.93283">
        <ele>300</ele>
        <time>2017-03-27T10:02:15Z</time>
      </trkpt>
      <trkpt lat="45.97245" lon="4.93288">
        <ele>300</ele>
        <time>2017-03-27T10:02:16Z</time>
      </trkpt>
      <trkpt lat="45.97242" lon="4.93293">
        <ele>300</ele>
        <time>2017-03-27T10:02:17Z</time>
      </trkpt>
      <trkpt lat="45.97238" lon="4.93298">
        <ele>300</ele>
        <time>2017-03-27T10:02:18Z</time>
      </trkpt>
      <trkpt lat="45.97235" lon="4.93302">
        <ele>300</ele>
        <time>2017-03-27T10:02:19Z</time>
      </trkpt>
      <trkpt lat="45.97229" lon="4.9331">
        <ele>300</ele>
        <time>2017-03-27T10:02:21Z</time>
      </trkpt>
      <trkpt lat="45.97225" lon="4.93314">
        <ele>300</ele>
        <time>2017-03-27T10:02:22Z</time>
      </trkpt>
      <trkpt lat="45.9722" lon="4.93323">
        <ele>300</ele>
        <time>2017-03-27T10:02:24Z</time>
      </trkpt>
      <trkpt lat="45.97216" lon="4.93328">
        <ele>300</ele>
        <time>2017-03-27T10:02:25Z</time>
      </trkpt>
      <trkpt lat="45.9721" lon="4.93336">
        <ele>301</ele>
        <time>2017-03-27T10:02:27Z</time>
      </trkpt>
      <trkpt lat="45.97206" lon="4.93341">
        <ele>301</ele>
        <time>2017-03-27T10:02:28Z</time>
      </trkpt>
      <trkpt lat="45.97203" lon="4.93346">
        <ele>301</ele>
        <time>2017-03-27T10:02:29Z</time>
      </trkpt>
      <trkpt lat="45.972" lon="4.9335">
        <ele>301</ele>
        <time>2017-03-27T10:02:30Z</time>
      </trkpt>
      <trkpt lat="45.97193" lon="4.93358">
        <ele>301</ele>
        <time>2017-03-27T10:02:32Z</time>
      </trkpt>
      <trkpt lat="45.9719" lon="4.93362">
        <ele>301</ele>
        <time>2017-03-27T10:02:33Z</time>
      </trkpt>
      <trkpt lat="45.97186" lon="4.93366">
        <ele>301</ele>
        <time>2017-03-27T10:02:34Z</time>
      </trkpt>
      <trkpt lat="45.97183" lon="4.93371">
        <ele>301</ele>
        <time>2017-03-27T10:02:35Z</time>
      </trkpt>
      <trkpt lat="45.97179" lon="4.93375">
        <ele>301</ele>
        <time>2017-03-27T10:02:36Z</time>
      </trkpt>
      <trkpt lat="45.97175" lon="4.93379">
        <ele>301</ele>
        <time>2017-03-27T10:02:37Z</time>
      </trkpt>
      <trkpt lat="45.97171" lon="4.93384">
        <ele>301</ele>
        <time>2017-03-27T10:02:38Z</time>
      </trkpt>
      <trkpt lat="45.97168" lon="4.93388">
        <ele>301</ele>
        <time>2017-03-27T10:02:39Z</time>
      </trkpt>
      <trkpt lat="45.97161" lon="4.93396">
        <ele>301</ele>
        <time>2017-03-27T10:02:41Z</time>
      </trkpt>
      <trkpt lat="45.97158" lon="4.934">
        <ele>301</ele>
        <time>2017-03-27T10:02:42Z</time>
      </trkpt>
      <trkpt lat="45.97151" lon="4.93408">
        <ele>301</ele>
        <time>2017-03-27T10:02:44Z</time>
      </trkpt>
      <trkpt lat="45.97148" lon="4.93411">
        <ele>301</ele>
        <time>2017-03-27T10:02:45Z</time>
      </trkpt>
      <trkpt lat="45.97141" lon="4.93419">
        <ele>301</ele>
        <time>2017-03-27T10:02:47Z</time>
      </trkpt>
      <trkpt lat="45.97137" lon="4.93423">
        <ele>301</ele>
        <time>2017-03-27T10:02:48Z</time>
      </trkpt>
      <trkpt lat="45.9713" lon="4.9343">
        <ele>301</ele>
        <time>2017-03-27T10:02:50Z</time>
      </trkpt>
      <trkpt lat="45.97127" lon="4.93435">
        <ele>301</ele>
        <time>2017-03-27T10:02:51Z</time>
      </trkpt>
      <trkpt lat="45.97123" lon="4.93439">
        <ele>301</ele>
        <time>2017-03-27T10:02:52Z</time>
      </trkpt>
      <trkpt lat="45.9712" lon="4.93442">
        <ele>301</ele>
        <time>2017-03-27T10:02:53Z</time>
      </trkpt>
      <trkpt lat="45.97113" lon="4.9345">
        <ele>301</ele>
        <time>2017-03-27T10:02:55Z</time>
      </trkpt>
      <trkpt lat="45.97109" lon="4.93454">
        <ele>301</ele>
        <time>2017-03-27T10:02:56Z</time>
      </trkpt>
      <trkpt lat="45.97106" lon="4.93458">
        <ele>301</ele>
        <time>2017-03-27T10:02:57Z</time>
      </trkpt>
      <trkpt lat="45.97102" lon="4.93463">
        <ele>301</ele>
        <time>2017-03-27T10:02:58Z</time>
      </trkpt>
      <trkpt lat="45.97099" lon="4.93467">
        <ele>301</ele>
        <time>2017-03-27T10:02:59Z</time>
      </trkpt>
      <trkpt lat="45.97096" lon="4.93472">
        <ele>301</ele>
        <time>2017-03-27T10:03:00Z</time>
      </trkpt>
      <trkpt lat="45.97092" lon="4.93477">
        <ele>301</ele>
        <time>2017-03-27T10:03:01Z</time>
      </trkpt>
      <trkpt lat="45.97089" lon="4.93481">
        <ele>301</ele>
        <time>2017-03-27T10:03:02Z</time>
      </trkpt>
      <trkpt lat="45.97082" lon="4.93489">
        <ele>299</ele>
        <time>2017-03-27T10:03:04Z</time>
      </trkpt>
      <trkpt lat="45.97079" lon="4.93492">
        <ele>300</ele>
        <time>2017-03-27T10:03:05Z</time>
      </trkpt>
      <trkpt lat="45.97076" lon="4.93497">
        <ele>300</ele>
        <time>2017-03-27T10:03:06Z</time>
      </trkpt>
      <trkpt lat="45.97073" lon="4.93502">
        <ele>300</ele>
        <time>2017-03-27T10:03:07Z</time>
      </trkpt>
      <trkpt lat="45.9707" lon="4.93507">
        <ele>299</ele>
        <time>2017-03-27T10:03:08Z</time>
      </trkpt>
      <trkpt lat="45.97066" lon="4.93511">
        <ele>299</ele>
        <time>2017-03-27T10:03:09Z</time>
      </trkpt>
      <trkpt lat="45.97062" lon="4.93516">
        <ele>299</ele>
        <time>2017-03-27T10:03:10Z</time>
      </trkpt>
      <trkpt lat="45.97058" lon="4.93521">
        <ele>299</ele>
        <time>2017-03-27T10:03:11Z</time>
      </trkpt>
      <trkpt lat="45.97054" lon="4.93526">
        <ele>299</ele>
        <time>2017-03-27T10:03:12Z</time>
      </trkpt>
      <trkpt lat="45.97051" lon="4.93531">
        <ele>299</ele>
        <time>2017-03-27T10:03:13Z</time>
      </trkpt>
      <trkpt lat="45.97047" lon="4.93536">
        <ele>299</ele>
        <time>2017-03-27T10:03:14Z</time>
      </trkpt>
      <trkpt lat="45.97044" lon="4.9354">
        <ele>299</ele>
        <time>2017-03-27T10:03:15Z</time>
      </trkpt>
      <trkpt lat="45.9704" lon="4.93545">
        <ele>299</ele>
        <time>2017-03-27T10:03:16Z</time>
      </trkpt>
      <trkpt lat="45.97037" lon="4.9355">
        <ele>299</ele>
        <time>2017-03-27T10:03:17Z</time>
      </trkpt>
      <trkpt lat="45.97031" lon="4.93559">
        <ele>299</ele>
        <time>2017-03-27T10:03:19Z</time>
      </trkpt>
      <trkpt lat="45.97028" lon="4.93563">
        <ele>299</ele>
        <time>2017-03-27T10:03:20Z</time>
      </trkpt>
      <trkpt lat="45.97024" lon="4.93568">
        <ele>299</ele>
        <time>2017-03-27T10:03:21Z</time>
      </trkpt>
      <trkpt lat="45.9702" lon="4.93572">
        <ele>299</ele>
        <time>2017-03-27T10:03:22Z</time>
      </trkpt>
      <trkpt lat="45.97017" lon="4.93577">
        <ele>299</ele>
        <time>2017-03-27T10:03:23Z</time>
      </trkpt>
      <trkpt lat="45.97012" lon="4.93582">
        <ele>299</ele>
        <time>2017-03-27T10:03:24Z</time>
      </trkpt>
      <trkpt lat="45.97008" lon="4.93586">
        <ele>299</ele>
        <time>2017-03-27T10:03:25Z</time>
      </trkpt>
      <trkpt lat="45.97004" lon="4.93592">
        <ele>299</ele>
        <time>2017-03-27T10:03:26Z</time>
      </trkpt>
      <trkpt lat="45.96999" lon="4.93597">
        <ele>299</ele>
        <time>2017-03-27T10:03:27Z</time>
      </trkpt>
      <trkpt lat="45.96995" lon="4.93602">
        <ele>299</ele>
        <time>2017-03-27T10:03:28Z</time>
      </trkpt>
      <trkpt lat="45.9699" lon="4.93608">
        <ele>299</ele>
        <time>2017-03-27T10:03:29Z</time>
      </trkpt>
      <trkpt lat="45.96986" lon="4.93613">
        <ele>299</ele>
        <time>2017-03-27T10:03:30Z</time>
      </trkpt>
      <trkpt lat="45.96982" lon="4.93617">
        <ele>299</ele>
        <time>2017-03-27T10:03:31Z</time>
      </trkpt>
      <trkpt lat="45.96978" lon="4.93623">
        <ele>299</ele>
        <time>2017-03-27T10:03:32Z</time>
      </trkpt>
      <trkpt lat="45.96974" lon="4.93627">
        <ele>299</ele>
        <time>2017-03-27T10:03:33Z</time>
      </trkpt>
      <trkpt lat="45.9697" lon="4.93632">
        <ele>299</ele>
        <time>2017-03-27T10:03:34Z</time>
      </trkpt>
      <trkpt lat="45.96966" lon="4.93637">
        <ele>299</ele>
        <time>2017-03-27T10:03:35Z</time>
      </trkpt>
      <trkpt lat="45.96962" lon="4.93642">
        <ele>299</ele>
        <time>2017-03-27T10:03:36Z</time>
      </trkpt>
      <trkpt lat="45.96958" lon="4.93647">
        <ele>299</ele>
        <time>2017-03-27T10:03:37Z</time>
      </trkpt>
      <trkpt lat="45.96955" lon="4.93652">
        <ele>299</ele>
        <time>2017-03-27T10:03:38Z</time>
      </trkpt>
      <trkpt lat="45.96951" lon="4.93657">
        <ele>299</ele>
        <time>2017-03-27T10:03:39Z</time>
      </trkpt>
      <trkpt lat="45.96947" lon="4.93662">
        <ele>298</ele>
        <time>2017-03-27T10:03:40Z</time>
      </trkpt>
      <trkpt lat="45.96943" lon="4.93667">
        <ele>298</ele>
        <time>2017-03-27T10:03:41Z</time>
      </trkpt>
      <trkpt lat="45.96939" lon="4.93673">
        <ele>298</ele>
        <time>2017-03-27T10:03:42Z</time>
      </trkpt>
      <trkpt lat="45.96934" lon="4.93678">
        <ele>298</ele>
        <time>2017-03-27T10:03:43Z</time>
      </trkpt>
      <trkpt lat="45.9693" lon="4.93684">
        <ele>298</ele>
        <time>2017-03-27T10:03:44Z</time>
      </trkpt>
      <trkpt lat="45.96925" lon="4.93689">
        <ele>298</ele>
        <time>2017-03-27T10:03:45Z</time>
      </trkpt>
      <trkpt lat="45.96921" lon="4.93694">
        <ele>298</ele>
        <time>2017-03-27T10:03:46Z</time>
      </trkpt>
      <trkpt lat="45.96916" lon="4.93698">
        <ele>297</ele>
        <time>2017-03-27T10:03:47Z</time>
      </trkpt>
      <trkpt lat="45.96912" lon="4.93703">
        <ele>297</ele>
        <time>2017-03-27T10:03:48Z</time>
      </trkpt>
      <trkpt lat="45.96907" lon="4.93708">
        <ele>297</ele>
        <time>2017-03-27T10:03:49Z</time>
      </trkpt>
      <trkpt lat="45.96902" lon="4.93712">
        <ele>297</ele>
        <time>2017-03-27T10:03:50Z</time>
      </trkpt>
      <trkpt lat="45.96897" lon="4.93716">
        <ele>297</ele>
        <time>2017-03-27T10:03:51Z</time>
      </trkpt>
      <trkpt lat="45.96892" lon="4.93719">
        <ele>297</ele>
        <time>2017-03-27T10:03:52Z</time>
      </trkpt>
      <trkpt lat="45.96888" lon="4.93723">
        <ele>297</ele>
        <time>2017-03-27T10:03:53Z</time>
      </trkpt>
      <trkpt lat="45.96883" lon="4.93726">
        <ele>297</ele>
        <time>2017-03-27T10:03:54Z</time>
      </trkpt>
      <trkpt lat="45.96878" lon="4.93728">
        <ele>297</ele>
        <time>2017-03-27T10:03:55Z</time>
      </trkpt>
      <trkpt lat="45.96873" lon="4.93731">
        <ele>297</ele>
        <time>2017-03-27T10:03:56Z</time>
      </trkpt>
      <trkpt lat="45.96868" lon="4.93733">
        <ele>297</ele>
        <time>2017-03-27T10:03:57Z</time>
      </trkpt>
      <trkpt lat="45.96863" lon="4.93734">
        <ele>297</ele>
        <time>2017-03-27T10:03:58Z</time>
      </trkpt>
      <trkpt lat="45.96858" lon="4.93736">
        <ele>297</ele>
        <time>2017-03-27T10:03:59Z</time>
      </trkpt>
      <trkpt lat="45.96852" lon="4.93738">
        <ele>297</ele>
        <time>2017-03-27T10:04:00Z</time>
      </trkpt>
      <trkpt lat="45.96847" lon="4.9374">
        <ele>296</ele>
        <time>2017-03-27T10:04:01Z</time>
      </trkpt>
      <trkpt lat="45.96842" lon="4.93742">
        <ele>296</ele>
        <time>2017-03-27T10:04:02Z</time>
      </trkpt>
      <trkpt lat="45.96837" lon="4.93744">
        <ele>296</ele>
        <time>2017-03-27T10:04:03Z</time>
      </trkpt>
      <trkpt lat="45.96832" lon="4.93746">
        <ele>296</ele>
        <time>2017-03-27T10:04:04Z</time>
      </trkpt>
      <trkpt lat="45.96827" lon="4.93747">
        <ele>296</ele>
        <time>2017-03-27T10:04:05Z</time>
      </trkpt>
      <trkpt lat="45.96822" lon="4.93749">
        <ele>296</ele>
        <time>2017-03-27T10:04:06Z</time>
      </trkpt>
      <trkpt lat="45.96818" lon="4.93751">
        <ele>296</ele>
        <time>2017-03-27T10:04:07Z</time>
      </trkpt>
      <trkpt lat="45.96813" lon="4.93753">
        <ele>296</ele>
        <time>2017-03-27T10:04:08Z</time>
      </trkpt>
      <trkpt lat="45.96808" lon="4.93754">
        <ele>295</ele>
        <time>2017-03-27T10:04:09Z</time>
      </trkpt>
      <trkpt lat="45.96802" lon="4.93755">
        <ele>295</ele>
        <time>2017-03-27T10:04:10Z</time>
      </trkpt>
      <trkpt lat="45.96797" lon="4.93757">
        <ele>295</ele>
        <time>2017-03-27T10:04:11Z</time>
      </trkpt>
      <trkpt lat="45.96792" lon="4.93758">
        <ele>295</ele>
        <time>2017-03-27T10:04:12Z</time>
      </trkpt>
      <trkpt lat="45.96787" lon="4.9376">
        <ele>295</ele>
        <time>2017-03-27T10:04:13Z</time>
      </trkpt>
      <trkpt lat="45.96782" lon="4.93762">
        <ele>295</ele>
        <time>2017-03-27T10:04:14Z</time>
      </trkpt>
      <trkpt lat="45.96777" lon="4.93764">
        <ele>295</ele>
        <time>2017-03-27T10:04:15Z</time>
      </trkpt>
      <trkpt lat="45.96772" lon="4.93765">
        <ele>295</ele>
        <time>2017-03-27T10:04:16Z</time>
      </trkpt>
      <trkpt lat="45.96768" lon="4.93767">
        <ele>295</ele>
        <time>2017-03-27T10:04:17Z</time>
      </trkpt>
      <trkpt lat="45.96762" lon="4.93768">
        <ele>295</ele>
        <time>2017-03-27T10:04:18Z</time>
      </trkpt>
      <trkpt lat="45.96757" lon="4.93769">
        <ele>295</ele>
        <time>2017-03-27T10:04:19Z</time>
      </trkpt>
      <trkpt lat="45.96752" lon="4.93771">
        <ele>295</ele>
        <time>2017-03-27T10:04:20Z</time>
      </trkpt>
      <trkpt lat="45.96747" lon="4.93773">
        <ele>295</ele>
        <time>2017-03-27T10:04:21Z</time>
      </trkpt>
      <trkpt lat="45.96742" lon="4.93774">
        <ele>295</ele>
        <time>2017-03-27T10:04:22Z</time>
      </trkpt>
      <trkpt lat="45.96737" lon="4.93775">
        <ele>295</ele>
        <time>2017-03-27T10:04:23Z</time>
      </trkpt>
      <trkpt lat="45.96732" lon="4.93777">
        <ele>296</ele>
        <time>2017-03-27T10:04:24Z</time>
      </trkpt>
      <trkpt lat="45.96728" lon="4.93779">
        <ele>296</ele>
        <time>2017-03-27T10:04:25Z</time>
      </trkpt>
      <trkpt lat="45.96723" lon="4.93781">
        <ele>296</ele>
        <time>2017-03-27T10:04:26Z</time>
      </trkpt>
      <trkpt lat="45.96719" lon="4.93783">
        <ele>296</ele>
        <time>2017-03-27T10:04:27Z</time>
      </trkpt>
      <trkpt lat="45.96714" lon="4.93785">
        <ele>296</ele>
        <time>2017-03-27T10:04:28Z</time>
      </trkpt>
      <trkpt lat="45.96709" lon="4.93787">
        <ele>296</ele>
        <time>2017-03-27T10:04:29Z</time>
      </trkpt>
      <trkpt lat="45.96704" lon="4.93788">
        <ele>296</ele>
        <time>2017-03-27T10:04:30Z</time>
      </trkpt>
      <trkpt lat="45.96699" lon="4.9379">
        <ele>296</ele>
        <time>2017-03-27T10:04:31Z</time>
      </trkpt>
      <trkpt lat="45.96694" lon="4.93791">
        <ele>297</ele>
        <time>2017-03-27T10:04:32Z</time>
      </trkpt>
      <trkpt lat="45.96689" lon="4.93793">
        <ele>297</ele>
        <time>2017-03-27T10:04:33Z</time>
      </trkpt>
      <trkpt lat="45.96684" lon="4.93795">
        <ele>297</ele>
        <time>2017-03-27T10:04:34Z</time>
      </trkpt>
      <trkpt lat="45.9668" lon="4.93797">
        <ele>297</ele>
        <time>2017-03-27T10:04:35Z</time>
      </trkpt>
      <trkpt lat="45.96675" lon="4.93799">
        <ele>297</ele>
        <time>2017-03-27T10:04:36Z</time>
      </trkpt>
      <trkpt lat="45.9667" lon="4.938">
        <ele>297</ele>
        <time>2017-03-27T10:04:37Z</time>
      </trkpt>
      <trkpt lat="45.96665" lon="4.93802">
        <ele>297</ele>
        <time>2017-03-27T10:04:38Z</time>
      </trkpt>
      <trkpt lat="45.96657" lon="4.93806">
        <ele>297</ele>
        <time>2017-03-27T10:04:40Z</time>
      </trkpt>
      <trkpt lat="45.96653" lon="4.93808">
        <ele>297</ele>
        <time>2017-03-27T10:04:41Z</time>
      </trkpt>
      <trkpt lat="45.96644" lon="4.93811">
        <ele>297</ele>
        <time>2017-03-27T10:04:43Z</time>
      </trkpt>
      <trkpt lat="45.9664" lon="4.93813">
        <ele>297</ele>
        <time>2017-03-27T10:04:44Z</time>
      </trkpt>
      <trkpt lat="45.96632" lon="4.93816">
        <ele>297</ele>
        <time>2017-03-27T10:04:46Z</time>
      </trkpt>
      <trkpt lat="45.96628" lon="4.93818">
        <ele>297</ele>
        <time>2017-03-27T10:04:47Z</time>
      </trkpt>
      <trkpt lat="45.96624" lon="4.93819">
        <ele>297</ele>
        <time>2017-03-27T10:04:48Z</time>
      </trkpt>
      <trkpt lat="45.96619" lon="4.93821">
        <ele>297</ele>
        <time>2017-03-27T10:04:49Z</time>
      </trkpt>
      <trkpt lat="45.96615" lon="4.93822">
        <ele>297</ele>
        <time>2017-03-27T10:04:50Z</time>
      </trkpt>
      <trkpt lat="45.9661" lon="4.93823">
        <ele>297</ele>
        <time>2017-03-27T10:04:51Z</time>
      </trkpt>
      <trkpt lat="45.96606" lon="4.93825">
        <ele>297</ele>
        <time>2017-03-27T10:04:52Z</time>
      </trkpt>
      <trkpt lat="45.96601" lon="4.93826">
        <ele>297</ele>
        <time>2017-03-27T10:04:53Z</time>
      </trkpt>
      <trkpt lat="45.96592" lon="4.9383">
        <ele>296</ele>
        <time>2017-03-27T10:04:55Z</time>
      </trkpt>
      <trkpt lat="45.96588" lon="4.93831">
        <ele>296</ele>
        <time>2017-03-27T10:04:56Z</time>
      </trkpt>
      <trkpt lat="45.9658" lon="4.93834">
        <ele>296</ele>
        <time>2017-03-27T10:04:58Z</time>
      </trkpt>
      <trkpt lat="45.96576" lon="4.93836">
        <ele>296</ele>
        <time>2017-03-27T10:04:59Z</time>
      </trkpt>
      <trkpt lat="45.96568" lon="4.93839">
        <ele>296</ele>
        <time>2017-03-27T10:05:01Z</time>
      </trkpt>
      <trkpt lat="45.96564" lon="4.9384">
        <ele>296</ele>
        <time>2017-03-27T10:05:02Z</time>
      </trkpt>
      <trkpt lat="45.96556" lon="4.93843">
        <ele>296</ele>
        <time>2017-03-27T10:05:04Z</time>
      </trkpt>
      <trkpt lat="45.96552" lon="4.93844">
        <ele>296</ele>
        <time>2017-03-27T10:05:05Z</time>
      </trkpt>
      <trkpt lat="45.96543" lon="4.93847">
        <ele>296</ele>
        <time>2017-03-27T10:05:07Z</time>
      </trkpt>
      <trkpt lat="45.96539" lon="4.93849">
        <ele>296</ele>
        <time>2017-03-27T10:05:08Z</time>
      </trkpt>
      <trkpt lat="45.96531" lon="4.93852">
        <ele>296</ele>
        <time>2017-03-27T10:05:10Z</time>
      </trkpt>
      <trkpt lat="45.96527" lon="4.93854">
        <ele>296</ele>
        <time>2017-03-27T10:05:11Z</time>
      </trkpt>
      <trkpt lat="45.96523" lon="4.93855">
        <ele>296</ele>
        <time>2017-03-27T10:05:12Z</time>
      </trkpt>
      <trkpt lat="45.96518" lon="4.93857">
        <ele>296</ele>
        <time>2017-03-27T10:05:13Z</time>
      </trkpt>
      <trkpt lat="45.9651" lon="4.9386">
        <ele>296</ele>
        <time>2017-03-27T10:05:15Z</time>
      </trkpt>
      <trkpt lat="45.96506" lon="4.93861">
        <ele>296</ele>
        <time>2017-03-27T10:05:16Z</time>
      </trkpt>
      <trkpt lat="45.96499" lon="4.93863">
        <ele>296</ele>
        <time>2017-03-27T10:05:18Z</time>
      </trkpt>
      <trkpt lat="45.96495" lon="4.93865">
        <ele>296</ele>
        <time>2017-03-27T10:05:19Z</time>
      </trkpt>
      <trkpt lat="45.96487" lon="4.93868">
        <ele>296</ele>
        <time>2017-03-27T10:05:21Z</time>
      </trkpt>
      <trkpt lat="45.96482" lon="4.93869">
        <ele>296</ele>
        <time>2017-03-27T10:05:22Z</time>
      </trkpt>
      <trkpt lat="45.96477" lon="4.93871">
        <ele>296</ele>
        <time>2017-03-27T10:05:23Z</time>
      </trkpt>
      <trkpt lat="45.96472" lon="4.93872">
        <ele>296</ele>
        <time>2017-03-27T10:05:24Z</time>
      </trkpt>
      <trkpt lat="45.96467" lon="4.93874">
        <ele>296</ele>
        <time>2017-03-27T10:05:25Z</time>
      </trkpt>
      <trkpt lat="45.96462" lon="4.93876">
        <ele>295</ele>
        <time>2017-03-27T10:05:26Z</time>
      </trkpt>
      <trkpt lat="45.96457" lon="4.93878">
        <ele>296</ele>
        <time>2017-03-27T10:05:27Z</time>
      </trkpt>
      <trkpt lat="45.96452" lon="4.9388">
        <ele>296</ele>
        <time>2017-03-27T10:05:28Z</time>
      </trkpt>
      <trkpt lat="45.96447" lon="4.93882">
        <ele>296</ele>
        <time>2017-03-27T10:05:29Z</time>
      </trkpt>
      <trkpt lat="45.96442" lon="4.93883">
        <ele>296</ele>
        <time>2017-03-27T10:05:30Z</time>
      </trkpt>
      <trkpt lat="45.96438" lon="4.93885">
        <ele>296</ele>
        <time>2017-03-27T10:05:31Z</time>
      </trkpt>
      <trkpt lat="45.96433" lon="4.93886">
        <ele>296</ele>
        <time>2017-03-27T10:05:32Z</time>
      </trkpt>
      <trkpt lat="45.96425" lon="4.93889">
        <ele>296</ele>
        <time>2017-03-27T10:05:34Z</time>
      </trkpt>
      <trkpt lat="45.96421" lon="4.93891">
        <ele>296</ele>
        <time>2017-03-27T10:05:35Z</time>
      </trkpt>
      <trkpt lat="45.96412" lon="4.93894">
        <ele>295</ele>
        <time>2017-03-27T10:05:37Z</time>
      </trkpt>
      <trkpt lat="45.96408" lon="4.93895">
        <ele>295</ele>
        <time>2017-03-27T10:05:38Z</time>
      </trkpt>
      <trkpt lat="45.96403" lon="4.93897">
        <ele>295</ele>
        <time>2017-03-27T10:05:39Z</time>
      </trkpt>
      <trkpt lat="45.96398" lon="4.93899">
        <ele>295</ele>
        <time>2017-03-27T10:05:40Z</time>
      </trkpt>
      <trkpt lat="45.96393" lon="4.93901">
        <ele>294</ele>
        <time>2017-03-27T10:05:41Z</time>
      </trkpt>
      <trkpt lat="45.96388" lon="4.93903">
        <ele>294</ele>
        <time>2017-03-27T10:05:42Z</time>
      </trkpt>
      <trkpt lat="45.96383" lon="4.93906">
        <ele>294</ele>
        <time>2017-03-27T10:05:43Z</time>
      </trkpt>
      <trkpt lat="45.96378" lon="4.93909">
        <ele>294</ele>
        <time>2017-03-27T10:05:44Z</time>
      </trkpt>
      <trkpt lat="45.96373" lon="4.93911">
        <ele>294</ele>
        <time>2017-03-27T10:05:45Z</time>
      </trkpt>
      <trkpt lat="45.96367" lon="4.93913">
        <ele>294</ele>
        <time>2017-03-27T10:05:46Z</time>
      </trkpt>
      <trkpt lat="45.96362" lon="4.93915">
        <ele>294</ele>
        <time>2017-03-27T10:05:47Z</time>
      </trkpt>
      <trkpt lat="45.96357" lon="4.93917">
        <ele>294</ele>
        <time>2017-03-27T10:05:48Z</time>
      </trkpt>
      <trkpt lat="45.96352" lon="4.93918">
        <ele>293</ele>
        <time>2017-03-27T10:05:49Z</time>
      </trkpt>
      <trkpt lat="45.96346" lon="4.9392">
        <ele>293</ele>
        <time>2017-03-27T10:05:50Z</time>
      </trkpt>
      <trkpt lat="45.96341" lon="4.93922">
        <ele>293</ele>
        <time>2017-03-27T10:05:51Z</time>
      </trkpt>
      <trkpt lat="45.96336" lon="4.93923">
        <ele>293</ele>
        <time>2017-03-27T10:05:52Z</time>
      </trkpt>
      <trkpt lat="45.96331" lon="4.93924">
        <ele>293</ele>
        <time>2017-03-27T10:05:53Z</time>
      </trkpt>
      <trkpt lat="45.96325" lon="4.93926">
        <ele>292</ele>
        <time>2017-03-27T10:05:54Z</time>
      </trkpt>
      <trkpt lat="45.9632" lon="4.93928">
        <ele>292</ele>
        <time>2017-03-27T10:05:55Z</time>
      </trkpt>
      <trkpt lat="45.96314" lon="4.9393">
        <ele>292</ele>
        <time>2017-03-27T10:05:56Z</time>
      </trkpt>
      <trkpt lat="45.96309" lon="4.93931">
        <ele>292</ele>
        <time>2017-03-27T10:05:57Z</time>
      </trkpt>
      <trkpt lat="45.96304" lon="4.93933">
        <ele>292</ele>
        <time>2017-03-27T10:05:58Z</time>
      </trkpt>
      <trkpt lat="45.96299" lon="4.93935">
        <ele>292</ele>
        <time>2017-03-27T10:05:59Z</time>
      </trkpt>
      <trkpt lat="45.96294" lon="4.93938">
        <ele>292</ele>
        <time>2017-03-27T10:06:00Z</time>
      </trkpt>
      <trkpt lat="45.96289" lon="4.9394">
        <ele>292</ele>
        <time>2017-03-27T10:06:01Z</time>
      </trkpt>
      <trkpt lat="45.96284" lon="4.93941">
        <ele>291</ele>
        <time>2017-03-27T10:06:02Z</time>
      </trkpt>
      <trkpt lat="45.96279" lon="4.93943">
        <ele>291</ele>
        <time>2017-03-27T10:06:03Z</time>
      </trkpt>
      <trkpt lat="45.96274" lon="4.93945">
        <ele>291</ele>
        <time>2017-03-27T10:06:04Z</time>
      </trkpt>
      <trkpt lat="45.96269" lon="4.93947">
        <ele>291</ele>
        <time>2017-03-27T10:06:05Z</time>
      </trkpt>
      <trkpt lat="45.96265" lon="4.93949">
        <ele>291</ele>
        <time>2017-03-27T10:06:06Z</time>
      </trkpt>
      <trkpt lat="45.9626" lon="4.93951">
        <ele>291</ele>
        <time>2017-03-27T10:06:07Z</time>
      </trkpt>
      <trkpt lat="45.96255" lon="4.93955">
        <ele>291</ele>
        <time>2017-03-27T10:06:08Z</time>
      </trkpt>
      <trkpt lat="45.9625" lon="4.93958">
        <ele>291</ele>
        <time>2017-03-27T10:06:09Z</time>
      </trkpt>
      <trkpt lat="45.96245" lon="4.93962">
        <ele>290</ele>
        <time>2017-03-27T10:06:10Z</time>
      </trkpt>
      <trkpt lat="45.9624" lon="4.93965">
        <ele>290</ele>
        <time>2017-03-27T10:06:11Z</time>
      </trkpt>
      <trkpt lat="45.96234" lon="4.93969">
        <ele>290</ele>
        <time>2017-03-27T10:06:12Z</time>
      </trkpt>
      <trkpt lat="45.96229" lon="4.93972">
        <ele>290</ele>
        <time>2017-03-27T10:06:13Z</time>
      </trkpt>
      <trkpt lat="45.96224" lon="4.93976">
        <ele>290</ele>
        <time>2017-03-27T10:06:14Z</time>
      </trkpt>
      <trkpt lat="45.96219" lon="4.93979">
        <ele>290</ele>
        <time>2017-03-27T10:06:15Z</time>
      </trkpt>
      <trkpt lat="45.96214" lon="4.93983">
        <ele>290</ele>
        <time>2017-03-27T10:06:16Z</time>
      </trkpt>
      <trkpt lat="45.96209" lon="4.93987">
        <ele>290</ele>
        <time>2017-03-27T10:06:17Z</time>
      </trkpt>
      <trkpt lat="45.96204" lon="4.93991">
        <ele>290</ele>
        <time>2017-03-27T10:06:18Z</time>
      </trkpt>
      <trkpt lat="45.962" lon="4.93994">
        <ele>290</ele>
        <time>2017-03-27T10:06:19Z</time>
      </trkpt>
      <trkpt lat="45.96195" lon="4.93998">
        <ele>290</ele>
        <time>2017-03-27T10:06:20Z</time>
      </trkpt>
      <trkpt lat="45.96191" lon="4.94001">
        <ele>290</ele>
        <time>2017-03-27T10:06:21Z</time>
      </trkpt>
      <trkpt lat="45.96186" lon="4.94005">
        <ele>290</ele>
        <time>2017-03-27T10:06:22Z</time>
      </trkpt>
      <trkpt lat="45.96182" lon="4.94008">
        <ele>290</ele>
        <time>2017-03-27T10:06:23Z</time>
      </trkpt>
      <trkpt lat="45.96178" lon="4.94011">
        <ele>290</ele>
        <time>2017-03-27T10:06:24Z</time>
      </trkpt>
      <trkpt lat="45.96174" lon="4.94015">
        <ele>290</ele>
        <time>2017-03-27T10:06:25Z</time>
      </trkpt>
      <trkpt lat="45.96169" lon="4.94019">
        <ele>290</ele>
        <time>2017-03-27T10:06:26Z</time>
      </trkpt>
      <trkpt lat="45.96164" lon="4.94023">
        <ele>290</ele>
        <time>2017-03-27T10:06:27Z</time>
      </trkpt>
      <trkpt lat="45.9616" lon="4.94027">
        <ele>290</ele>
        <time>2017-03-27T10:06:28Z</time>
      </trkpt>
      <trkpt lat="45.96155" lon="4.94031">
        <ele>290</ele>
        <time>2017-03-27T10:06:29Z</time>
      </trkpt>
      <trkpt lat="45.9615" lon="4.94035">
        <ele>290</ele>
        <time>2017-03-27T10:06:30Z</time>
      </trkpt>
      <trkpt lat="45.96145" lon="4.94038">
        <ele>290</ele>
        <time>2017-03-27T10:06:31Z</time>
      </trkpt>
      <trkpt lat="45.9614" lon="4.94042">
        <ele>290</ele>
        <time>2017-03-27T10:06:32Z</time>
      </trkpt>
      <trkpt lat="45.96136" lon="4.94046">
        <ele>290</ele>
        <time>2017-03-27T10:06:33Z</time>
      </trkpt>
      <trkpt lat="45.96131" lon="4.94051">
        <ele>290</ele>
        <time>2017-03-27T10:06:34Z</time>
      </trkpt>
      <trkpt lat="45.96126" lon="4.94054">
        <ele>290</ele>
        <time>2017-03-27T10:06:35Z</time>
      </trkpt>
      <trkpt lat="45.96122" lon="4.94058">
        <ele>290</ele>
        <time>2017-03-27T10:06:36Z</time>
      </trkpt>
      <trkpt lat="45.96118" lon="4.94061">
        <ele>290</ele>
        <time>2017-03-27T10:06:37Z</time>
      </trkpt>
      <trkpt lat="45.96114" lon="4.94064">
        <ele>290</ele>
        <time>2017-03-27T10:06:38Z</time>
      </trkpt>
      <trkpt lat="45.96109" lon="4.94068">
        <ele>290</ele>
        <time>2017-03-27T10:06:39Z</time>
      </trkpt>
      <trkpt lat="45.96105" lon="4.94072">
        <ele>291</ele>
        <time>2017-03-27T10:06:40Z</time>
      </trkpt>
      <trkpt lat="45.96101" lon="4.94075">
        <ele>291</ele>
        <time>2017-03-27T10:06:41Z</time>
      </trkpt>
      <trkpt lat="45.96097" lon="4.9408">
        <ele>291</ele>
        <time>2017-03-27T10:06:42Z</time>
      </trkpt>
      <trkpt lat="45.96093" lon="4.94083">
        <ele>291</ele>
        <time>2017-03-27T10:06:43Z</time>
      </trkpt>
      <trkpt lat="45.96088" lon="4.94088">
        <ele>291</ele>
        <time>2017-03-27T10:06:44Z</time>
      </trkpt>
      <trkpt lat="45.96084" lon="4.94092">
        <ele>291</ele>
        <time>2017-03-27T10:06:45Z</time>
      </trkpt>
      <trkpt lat="45.9608" lon="4.94096">
        <ele>291</ele>
        <time>2017-03-27T10:06:46Z</time>
      </trkpt>
      <trkpt lat="45.96076" lon="4.94099">
        <ele>291</ele>
        <time>2017-03-27T10:06:47Z</time>
      </trkpt>
      <trkpt lat="45.96071" lon="4.94103">
        <ele>291</ele>
        <time>2017-03-27T10:06:48Z</time>
      </trkpt>
      <trkpt lat="45.96067" lon="4.94106">
        <ele>291</ele>
        <time>2017-03-27T10:06:49Z</time>
      </trkpt>
      <trkpt lat="45.96063" lon="4.9411">
        <ele>291</ele>
        <time>2017-03-27T10:06:50Z</time>
      </trkpt>
      <trkpt lat="45.96059" lon="4.94113">
        <ele>291</ele>
        <time>2017-03-27T10:06:51Z</time>
      </trkpt>
      <trkpt lat="45.96055" lon="4.94115">
        <ele>291</ele>
        <time>2017-03-27T10:06:52Z</time>
      </trkpt>
      <trkpt lat="45.96048" lon="4.9412">
        <ele>291</ele>
        <time>2017-03-27T10:06:54Z</time>
      </trkpt>
      <trkpt lat="45.96043" lon="4.94121">
        <ele>291</ele>
        <time>2017-03-27T10:06:55Z</time>
      </trkpt>
      <trkpt lat="45.96035" lon="4.94123">
        <ele>291</ele>
        <time>2017-03-27T10:06:57Z</time>
      </trkpt>
      <trkpt lat="45.9603" lon="4.94123">
        <ele>291</ele>
        <time>2017-03-27T10:06:58Z</time>
      </trkpt>
      <trkpt lat="45.96025" lon="4.94123">
        <ele>291</ele>
        <time>2017-03-27T10:06:59Z</time>
      </trkpt>
      <trkpt lat="45.9602" lon="4.94122">
        <ele>291</ele>
        <time>2017-03-27T10:07:00Z</time>
      </trkpt>
      <trkpt lat="45.96015" lon="4.94121">
        <ele>291</ele>
        <time>2017-03-27T10:07:01Z</time>
      </trkpt>
      <trkpt lat="45.9601" lon="4.9412">
        <ele>291</ele>
        <time>2017-03-27T10:07:02Z</time>
      </trkpt>
      <trkpt lat="45.96005" lon="4.94118">
        <ele>291</ele>
        <time>2017-03-27T10:07:03Z</time>
      </trkpt>
      <trkpt lat="45.96" lon="4.94117">
        <ele>291</ele>
        <time>2017-03-27T10:07:04Z</time>
      </trkpt>
      <trkpt lat="45.95995" lon="4.94116">
        <ele>291</ele>
        <time>2017-03-27T10:07:05Z</time>
      </trkpt>
      <trkpt lat="45.9599" lon="4.94114">
        <ele>291</ele>
        <time>2017-03-27T10:07:06Z</time>
      </trkpt>
      <trkpt lat="45.95986" lon="4.94113">
        <ele>292</ele>
        <time>2017-03-27T10:07:07Z</time>
      </trkpt>
      <trkpt lat="45.95981" lon="4.94112">
        <ele>292</ele>
        <time>2017-03-27T10:07:08Z</time>
      </trkpt>
      <trkpt lat="45.95972" lon="4.9411">
        <ele>292</ele>
        <time>2017-03-27T10:07:10Z</time>
      </trkpt>
      <trkpt lat="45.95968" lon="4.94109">
        <ele>292</ele>
        <time>2017-03-27T10:07:11Z</time>
      </trkpt>
      <trkpt lat="45.95959" lon="4.94107">
        <ele>292</ele>
        <time>2017-03-27T10:07:13Z</time>
      </trkpt>
      <trkpt lat="45.95954" lon="4.94106">
        <ele>292</ele>
        <time>2017-03-27T10:07:14Z</time>
      </trkpt>
      <trkpt lat="45.95949" lon="4.94105">
        <ele>292</ele>
        <time>2017-03-27T10:07:15Z</time>
      </trkpt>
      <trkpt lat="45.95945" lon="4.94104">
        <ele>292</ele>
        <time>2017-03-27T10:07:16Z</time>
      </trkpt>
      <trkpt lat="45.95941" lon="4.94102">
        <ele>292</ele>
        <time>2017-03-27T10:07:17Z</time>
      </trkpt>
      <trkpt lat="45.95936" lon="4.94101">
        <ele>292</ele>
        <time>2017-03-27T10:07:18Z</time>
      </trkpt>
      <trkpt lat="45.95928" lon="4.94099">
        <ele>292</ele>
        <time>2017-03-27T10:07:20Z</time>
      </trkpt>
      <trkpt lat="45.95924" lon="4.94098">
        <ele>292</ele>
        <time>2017-03-27T10:07:21Z</time>
      </trkpt>
      <trkpt lat="45.95916" lon="4.94096">
        <ele>293</ele>
        <time>2017-03-27T10:07:23Z</time>
      </trkpt>
      <trkpt lat="45.95911" lon="4.94095">
        <ele>293</ele>
        <time>2017-03-27T10:07:24Z</time>
      </trkpt>
      <trkpt lat="45.95902" lon="4.94092">
        <ele>293</ele>
        <time>2017-03-27T10:07:26Z</time>
      </trkpt>
      <trkpt lat="45.95898" lon="4.9409">
        <ele>293</ele>
        <time>2017-03-27T10:07:27Z</time>
      </trkpt>
      <trkpt lat="45.9589" lon="4.94089">
        <ele>293</ele>
        <time>2017-03-27T10:07:29Z</time>
      </trkpt>
      <trkpt lat="45.95885" lon="4.94088">
        <ele>293</ele>
        <time>2017-03-27T10:07:30Z</time>
      </trkpt>
      <trkpt lat="45.95877" lon="4.94086">
        <ele>293</ele>
        <time>2017-03-27T10:07:32Z</time>
      </trkpt>
      <trkpt lat="45.95873" lon="4.94085">
        <ele>293</ele>
        <time>2017-03-27T10:07:33Z</time>
      </trkpt>
      <trkpt lat="45.95864" lon="4.94083">
        <ele>293</ele>
        <time>2017-03-27T10:07:35Z</time>
      </trkpt>
      <trkpt lat="45.95859" lon="4.94082">
        <ele>293</ele>
        <time>2017-03-27T10:07:36Z</time>
      </trkpt>
      <trkpt lat="45.95851" lon="4.94081">
        <ele>293</ele>
        <time>2017-03-27T10:07:38Z</time>
      </trkpt>
      <trkpt lat="45.95847" lon="4.9408">
        <ele>293</ele>
        <time>2017-03-27T10:07:39Z</time>
      </trkpt>
      <trkpt lat="45.95838" lon="4.94077">
        <ele>294</ele>
        <time>2017-03-27T10:07:41Z</time>
      </trkpt>
      <trkpt lat="45.95834" lon="4.94075">
        <ele>294</ele>
        <time>2017-03-27T10:07:42Z</time>
      </trkpt>
      <trkpt lat="45.95825" lon="4.94073">
        <ele>294</ele>
        <time>2017-03-27T10:07:44Z</time>
      </trkpt>
      <trkpt lat="45.95821" lon="4.94072">
        <ele>294</ele>
        <time>2017-03-27T10:07:45Z</time>
      </trkpt>
      <trkpt lat="45.95814" lon="4.94069">
        <ele>294</ele>
        <time>2017-03-27T10:07:47Z</time>
      </trkpt>
      <trkpt lat="45.95811" lon="4.94068">
        <ele>294</ele>
        <time>2017-03-27T10:07:48Z</time>
      </trkpt>
      <trkpt lat="45.95803" lon="4.94067">
        <ele>294</ele>
        <time>2017-03-27T10:07:50Z</time>
      </trkpt>
      <trkpt lat="45.95798" lon="4.94066">
        <ele>294</ele>
        <time>2017-03-27T10:07:51Z</time>
      </trkpt>
      <trkpt lat="45.95791" lon="4.94064">
        <ele>294</ele>
        <time>2017-03-27T10:07:53Z</time>
      </trkpt>
      <trkpt lat="45.95787" lon="4.94062">
        <ele>294</ele>
        <time>2017-03-27T10:07:54Z</time>
      </trkpt>
      <trkpt lat="45.95779" lon="4.94059">
        <ele>294</ele>
        <time>2017-03-27T10:07:56Z</time>
      </trkpt>
      <trkpt lat="45.95775" lon="4.94058">
        <ele>294</ele>
        <time>2017-03-27T10:07:57Z</time>
      </trkpt>
      <trkpt lat="45.9577" lon="4.94056">
        <ele>294</ele>
        <time>2017-03-27T10:07:58Z</time>
      </trkpt>
      <trkpt lat="45.95766" lon="4.94055">
        <ele>294</ele>
        <time>2017-03-27T10:07:59Z</time>
      </trkpt>
      <trkpt lat="45.95757" lon="4.94053">
        <ele>294</ele>
        <time>2017-03-27T10:08:01Z</time>
      </trkpt>
      <trkpt lat="45.95753" lon="4.94053">
        <ele>294</ele>
        <time>2017-03-27T10:08:02Z</time>
      </trkpt>
      <trkpt lat="45.95745" lon="4.94052">
        <ele>295</ele>
        <time>2017-03-27T10:08:04Z</time>
      </trkpt>
      <trkpt lat="45.95741" lon="4.94051">
        <ele>295</ele>
        <time>2017-03-27T10:08:05Z</time>
      </trkpt>
      <trkpt lat="45.95733" lon="4.94048">
        <ele>295</ele>
        <time>2017-03-27T10:08:07Z</time>
      </trkpt>
      <trkpt lat="45.95728" lon="4.94047">
        <ele>295</ele>
        <time>2017-03-27T10:08:08Z</time>
      </trkpt>
      <trkpt lat="45.95719" lon="4.94044">
        <ele>295</ele>
        <time>2017-03-27T10:08:10Z</time>
      </trkpt>
      <trkpt lat="45.95715" lon="4.94043">
        <ele>295</ele>
        <time>2017-03-27T10:08:11Z</time>
      </trkpt>
      <trkpt lat="45.9571" lon="4.94042">
        <ele>295</ele>
        <time>2017-03-27T10:08:12Z</time>
      </trkpt>
      <trkpt lat="45.95706" lon="4.94041">
        <ele>295</ele>
        <time>2017-03-27T10:08:13Z</time>
      </trkpt>
      <trkpt lat="45.95697" lon="4.94039">
        <ele>295</ele>
        <time>2017-03-27T10:08:15Z</time>
      </trkpt>
      <trkpt lat="45.95693" lon="4.94038">
        <ele>295</ele>
        <time>2017-03-27T10:08:16Z</time>
      </trkpt>
      <trkpt lat="45.95688" lon="4.94037">
        <ele>295</ele>
        <time>2017-03-27T10:08:17Z</time>
      </trkpt>
      <trkpt lat="45.95684" lon="4.94036">
        <ele>295</ele>
        <time>2017-03-27T10:08:18Z</time>
      </trkpt>
      <trkpt lat="45.95675" lon="4.94033">
        <ele>295</ele>
        <time>2017-03-27T10:08:20Z</time>
      </trkpt>
      <trkpt lat="45.95671" lon="4.94032">
        <ele>295</ele>
        <time>2017-03-27T10:08:21Z</time>
      </trkpt>
      <trkpt lat="45.95666" lon="4.94024">
        <ele>294</ele>
        <time>2017-03-27T10:08:23Z</time>
      </trkpt>
      <trkpt lat="45.95665" lon="4.94019">
        <ele>294</ele>
        <time>2017-03-27T10:08:24Z</time>
      </trkpt>
      <trkpt lat="45.95667" lon="4.94009">
        <ele>295</ele>
        <time>2017-03-27T10:08:26Z</time>
      </trkpt>
      <trkpt lat="45.95667" lon="4.94003">
        <ele>296</ele>
        <time>2017-03-27T10:08:27Z</time>
      </trkpt>
      <trkpt lat="45.95666" lon="4.93992">
        <ele>295</ele>
        <time>2017-03-27T10:08:29Z</time>
      </trkpt>
      <trkpt lat="45.95664" lon="4.93987">
        <ele>295</ele>
        <time>2017-03-27T10:08:30Z</time>
      </trkpt>
      <trkpt lat="45.95658" lon="4.93979">
        <ele>295</ele>
        <time>2017-03-27T10:08:32Z</time>
      </trkpt>
      <trkpt lat="45.95655" lon="4.93978">
        <ele>294</ele>
        <time>2017-03-27T10:08:33Z</time>
      </trkpt>
      <trkpt lat="45.95649" lon="4.93973">
        <ele>294</ele>
        <time>2017-03-27T10:08:35Z</time>
      </trkpt>
      <trkpt lat="45.95646" lon="4.9397">
        <ele>294</ele>
        <time>2017-03-27T10:08:36Z</time>
      </trkpt>
      <trkpt lat="45.95643" lon="4.93965">
        <ele>294</ele>
        <time>2017-03-27T10:08:37Z</time>
      </trkpt>
      <trkpt lat="45.95642" lon="4.93958">
        <ele>294</ele>
        <time>2017-03-27T10:08:38Z</time>
      </trkpt>
      <trkpt lat="45.95641" lon="4.93952">
        <ele>294</ele>
        <time>2017-03-27T10:08:39Z</time>
      </trkpt>
      <trkpt lat="45.95641" lon="4.93945">
        <ele>294</ele>
        <time>2017-03-27T10:08:40Z</time>
      </trkpt>
      <trkpt lat="45.95642" lon="4.93932">
        <ele>294</ele>
        <time>2017-03-27T10:08:42Z</time>
      </trkpt>
      <trkpt lat="45.95643" lon="4.93927">
        <ele>294</ele>
        <time>2017-03-27T10:08:43Z</time>
      </trkpt>
      <trkpt lat="45.95645" lon="4.93915">
        <ele>292</ele>
        <time>2017-03-27T10:08:45Z</time>
      </trkpt>
      <trkpt lat="45.95647" lon="4.93908">
        <ele>292</ele>
        <time>2017-03-27T10:08:46Z</time>
      </trkpt>
      <trkpt lat="45.95648" lon="4.93902">
        <ele>292</ele>
        <time>2017-03-27T10:08:47Z</time>
      </trkpt>
      <trkpt lat="45.95651" lon="4.93895">
        <ele>292</ele>
        <time>2017-03-27T10:08:48Z</time>
      </trkpt>
      <trkpt lat="45.95654" lon="4.93883">
        <ele>291</ele>
        <time>2017-03-27T10:08:50Z</time>
      </trkpt>
      <trkpt lat="45.95655" lon="4.93878">
        <ele>291</ele>
        <time>2017-03-27T10:08:51Z</time>
      </trkpt>
      <trkpt lat="45.95653" lon="4.93867">
        <ele>290</ele>
        <time>2017-03-27T10:08:53Z</time>
      </trkpt>
      <trkpt lat="45.95652" lon="4.93862">
        <ele>290</ele>
        <time>2017-03-27T10:08:54Z</time>
      </trkpt>
      <trkpt lat="45.95645" lon="4.93853">
        <ele>290</ele>
        <time>2017-03-27T10:08:57Z</time>
      </trkpt>
      <trkpt lat="45.95643" lon="4.93851">
        <ele>290</ele>
        <time>2017-03-27T10:08:58Z</time>
      </trkpt>
      <trkpt lat="45.95636" lon="4.93847">
        <ele>290</ele>
        <time>2017-03-27T10:09:01Z</time>
      </trkpt>
      <trkpt lat="45.95634" lon="4.93846">
        <ele>290</ele>
        <time>2017-03-27T10:09:02Z</time>
      </trkpt>
      <trkpt lat="45.95626" lon="4.93849">
        <ele>290</ele>
        <time>2017-03-27T10:10:19Z</time>
      </trkpt>
      <trkpt lat="45.95625" lon="4.93849">
        <ele>290</ele>
        <time>2017-03-27T10:10:20Z</time>
      </trkpt>
      <trkpt lat="45.95619" lon="4.93844">
        <ele>290</ele>
        <time>2017-03-27T10:10:23Z</time>
      </trkpt>
      <trkpt lat="45.95617" lon="4.93842">
        <ele>290</ele>
        <time>2017-03-27T10:10:24Z</time>
      </trkpt>
      <trkpt lat="45.95611" lon="4.93837">
        <ele>290</ele>
        <time>2017-03-27T10:10:26Z</time>
      </trkpt>
      <trkpt lat="45.95608" lon="4.93835">
        <ele>290</ele>
        <time>2017-03-27T10:10:27Z</time>
      </trkpt>
      <trkpt lat="45.95603" lon="4.9383">
        <ele>289</ele>
        <time>2017-03-27T10:10:29Z</time>
      </trkpt>
      <trkpt lat="45.956" lon="4.93827">
        <ele>289</ele>
        <time>2017-03-27T10:10:30Z</time>
      </trkpt>
      <trkpt lat="45.95595" lon="4.93822">
        <ele>289</ele>
        <time>2017-03-27T10:10:32Z</time>
      </trkpt>
      <trkpt lat="45.95592" lon="4.93819">
        <ele>289</ele>
        <time>2017-03-27T10:10:33Z</time>
      </trkpt>
      <trkpt lat="45.95585" lon="4.93812">
        <ele>289</ele>
        <time>2017-03-27T10:10:35Z</time>
      </trkpt>
      <trkpt lat="45.95582" lon="4.9381">
        <ele>290</ele>
        <time>2017-03-27T10:10:36Z</time>
      </trkpt>
      <trkpt lat="45.95575" lon="4.93804">
        <ele>290</ele>
        <time>2017-03-27T10:10:38Z</time>
      </trkpt>
      <trkpt lat="45.95572" lon="4.938">
        <ele>290</ele>
        <time>2017-03-27T10:10:39Z</time>
      </trkpt>
      <trkpt lat="45.95569" lon="4.93795">
        <ele>290</ele>
        <time>2017-03-27T10:10:40Z</time>
      </trkpt>
      <trkpt lat="45.95567" lon="4.93789">
        <ele>290</ele>
        <time>2017-03-27T10:10:41Z</time>
      </trkpt>
      <trkpt lat="45.95565" lon="4.93782">
        <ele>290</ele>
        <time>2017-03-27T10:10:42Z</time>
      </trkpt>
      <trkpt lat="45.95563" lon="4.93776">
        <ele>290</ele>
        <time>2017-03-27T10:10:43Z</time>
      </trkpt>
      <trkpt lat="45.95562" lon="4.93769">
        <ele>290</ele>
        <time>2017-03-27T10:10:44Z</time>
      </trkpt>
      <trkpt lat="45.95561" lon="4.93762">
        <ele>290</ele>
        <time>2017-03-27T10:10:45Z</time>
      </trkpt>
      <trkpt lat="45.95559" lon="4.93755">
        <ele>290</ele>
        <time>2017-03-27T10:10:46Z</time>
      </trkpt>
      <trkpt lat="45.95559" lon="4.93749">
        <ele>290</ele>
        <time>2017-03-27T10:10:47Z</time>
      </trkpt>
      <trkpt lat="45.9556" lon="4.93737">
        <ele>290</ele>
        <time>2017-03-27T10:10:49Z</time>
      </trkpt>
      <trkpt lat="45.9556" lon="4.93731">
        <ele>290</ele>
        <time>2017-03-27T10:10:50Z</time>
      </trkpt>
      <trkpt lat="45.9556" lon="4.93725">
        <ele>290</ele>
        <time>2017-03-27T10:10:51Z</time>
      </trkpt>
      <trkpt lat="45.9556" lon="4.93718">
        <ele>290</ele>
        <time>2017-03-27T10:10:52Z</time>
      </trkpt>
      <trkpt lat="45.9556" lon="4.93711">
        <ele>290</ele>
        <time>2017-03-27T10:10:53Z</time>
      </trkpt>
      <trkpt lat="45.95561" lon="4.93704">
        <ele>290</ele>
        <time>2017-03-27T10:10:54Z</time>
      </trkpt>
      <trkpt lat="45.95561" lon="4.93696">
        <ele>290</ele>
        <time>2017-03-27T10:10:55Z</time>
      </trkpt>
      <trkpt lat="45.95561" lon="4.93688">
        <ele>290</ele>
        <time>2017-03-27T10:10:56Z</time>
      </trkpt>
      <trkpt lat="45.95562" lon="4.9368">
        <ele>289</ele>
        <time>2017-03-27T10:10:57Z</time>
      </trkpt>
      <trkpt lat="45.95563" lon="4.93672">
        <ele>289</ele>
        <time>2017-03-27T10:10:58Z</time>
      </trkpt>
      <trkpt lat="45.95564" lon="4.93665">
        <ele>289</ele>
        <time>2017-03-27T10:10:59Z</time>
      </trkpt>
      <trkpt lat="45.95565" lon="4.93657">
        <ele>289</ele>
        <time>2017-03-27T10:11:00Z</time>
      </trkpt>
      <trkpt lat="45.95565" lon="4.9365">
        <ele>289</ele>
        <time>2017-03-27T10:11:01Z</time>
      </trkpt>
      <trkpt lat="45.95565" lon="4.93644">
        <ele>289</ele>
        <time>2017-03-27T10:11:02Z</time>
      </trkpt>
      <trkpt lat="45.95566" lon="4.93637">
        <ele>289</ele>
        <time>2017-03-27T10:11:03Z</time>
      </trkpt>
      <trkpt lat="45.95567" lon="4.9363">
        <ele>289</ele>
        <time>2017-03-27T10:11:04Z</time>
      </trkpt>
      <trkpt lat="45.95567" lon="4.93623">
        <ele>289</ele>
        <time>2017-03-27T10:11:05Z</time>
      </trkpt>
      <trkpt lat="45.95567" lon="4.93616">
        <ele>289</ele>
        <time>2017-03-27T10:11:06Z</time>
      </trkpt>
      <trkpt lat="45.95567" lon="4.93604">
        <ele>289</ele>
        <time>2017-03-27T10:11:08Z</time>
      </trkpt>
      <trkpt lat="45.95567" lon="4.93598">
        <ele>289</ele>
        <time>2017-03-27T10:11:09Z</time>
      </trkpt>
      <trkpt lat="45.95568" lon="4.93586">
        <ele>289</ele>
        <time>2017-03-27T10:11:11Z</time>
      </trkpt>
      <trkpt lat="45.95568" lon="4.93581">
        <ele>289</ele>
        <time>2017-03-27T10:11:12Z</time>
      </trkpt>
      <trkpt lat="45.95569" lon="4.93571">
        <ele>289</ele>
        <time>2017-03-27T10:11:14Z</time>
      </trkpt>
      <trkpt lat="45.9557" lon="4.93565">
        <ele>289</ele>
        <time>2017-03-27T10:11:15Z</time>
      </trkpt>
      <trkpt lat="45.95572" lon="4.93553">
        <ele>289</ele>
        <time>2017-03-27T10:11:17Z</time>
      </trkpt>
      <trkpt lat="45.95573" lon="4.93547">
        <ele>289</ele>
        <time>2017-03-27T10:11:18Z</time>
      </trkpt>
      <trkpt lat="45.95573" lon="4.93534">
        <ele>290</ele>
        <time>2017-03-27T10:11:20Z</time>
      </trkpt>
      <trkpt lat="45.95573" lon="4.93527">
        <ele>290</ele>
        <time>2017-03-27T10:11:21Z</time>
      </trkpt>
      <trkpt lat="45.95572" lon="4.93519">
        <ele>290</ele>
        <time>2017-03-27T10:11:22Z</time>
      </trkpt>
      <trkpt lat="45.9557" lon="4.93511">
        <ele>290</ele>
        <time>2017-03-27T10:11:23Z</time>
      </trkpt>
      <trkpt lat="45.95569" lon="4.93504">
        <ele>290</ele>
        <time>2017-03-27T10:11:24Z</time>
      </trkpt>
      <trkpt lat="45.95568" lon="4.93497">
        <ele>290</ele>
        <time>2017-03-27T10:11:25Z</time>
      </trkpt>
      <trkpt lat="45.95565" lon="4.9349">
        <ele>290</ele>
        <time>2017-03-27T10:11:26Z</time>
      </trkpt>
      <trkpt lat="45.95563" lon="4.93484">
        <ele>289</ele>
        <time>2017-03-27T10:11:27Z</time>
      </trkpt>
      <trkpt lat="45.9556" lon="4.93477">
        <ele>289</ele>
        <time>2017-03-27T10:11:28Z</time>
      </trkpt>
      <trkpt lat="45.95558" lon="4.93471">
        <ele>289</ele>
        <time>2017-03-27T10:11:29Z</time>
      </trkpt>
      <trkpt lat="45.95556" lon="4.93465">
        <ele>289</ele>
        <time>2017-03-27T10:11:30Z</time>
      </trkpt>
      <trkpt lat="45.95554" lon="4.93459">
        <ele>289</ele>
        <time>2017-03-27T10:11:31Z</time>
      </trkpt>
      <trkpt lat="45.95552" lon="4.93453">
        <ele>289</ele>
        <time>2017-03-27T10:11:32Z</time>
      </trkpt>
      <trkpt lat="45.95549" lon="4.93447">
        <ele>289</ele>
        <time>2017-03-27T10:11:33Z</time>
      </trkpt>
      <trkpt lat="45.95547" lon="4.93441">
        <ele>289</ele>
        <time>2017-03-27T10:11:34Z</time>
      </trkpt>
      <trkpt lat="45.95544" lon="4.93436">
        <ele>289</ele>
        <time>2017-03-27T10:11:35Z</time>
      </trkpt>
      <trkpt lat="45.95541" lon="4.9343">
        <ele>289</ele>
        <time>2017-03-27T10:11:36Z</time>
      </trkpt>
      <trkpt lat="45.95539" lon="4.93425">
        <ele>289</ele>
        <time>2017-03-27T10:11:37Z</time>
      </trkpt>
      <trkpt lat="45.95536" lon="4.93419">
        <ele>289</ele>
        <time>2017-03-27T10:11:38Z</time>
      </trkpt>
      <trkpt lat="45.95534" lon="4.93414">
        <ele>289</ele>
        <time>2017-03-27T10:11:39Z</time>
      </trkpt>
      <trkpt lat="45.95531" lon="4.93407">
        <ele>289</ele>
        <time>2017-03-27T10:11:40Z</time>
      </trkpt>
      <trkpt lat="45.95529" lon="4.93401">
        <ele>289</ele>
        <time>2017-03-27T10:11:41Z</time>
      </trkpt>
      <trkpt lat="45.95526" lon="4.93396">
        <ele>289</ele>
        <time>2017-03-27T10:11:42Z</time>
      </trkpt>
      <trkpt lat="45.95523" lon="4.9339">
        <ele>289</ele>
        <time>2017-03-27T10:11:43Z</time>
      </trkpt>
      <trkpt lat="45.95521" lon="4.93384">
        <ele>289</ele>
        <time>2017-03-27T10:11:44Z</time>
      </trkpt>
      <trkpt lat="45.95519" lon="4.93378">
        <ele>289</ele>
        <time>2017-03-27T10:11:45Z</time>
      </trkpt>
      <trkpt lat="45.95516" lon="4.93373">
        <ele>289</ele>
        <time>2017-03-27T10:11:46Z</time>
      </trkpt>
      <trkpt lat="45.95514" lon="4.93367">
        <ele>289</ele>
        <time>2017-03-27T10:11:47Z</time>
      </trkpt>
      <trkpt lat="45.95509" lon="4.93357">
        <ele>289</ele>
        <time>2017-03-27T10:11:49Z</time>
      </trkpt>
      <trkpt lat="45.95506" lon="4.93352">
        <ele>289</ele>
        <time>2017-03-27T10:11:50Z</time>
      </trkpt>
      <trkpt lat="45.95504" lon="4.93346">
        <ele>289</ele>
        <time>2017-03-27T10:11:51Z</time>
      </trkpt>
      <trkpt lat="45.95501" lon="4.9334">
        <ele>289</ele>
        <time>2017-03-27T10:11:52Z</time>
      </trkpt>
      <trkpt lat="45.95499" lon="4.93334">
        <ele>289</ele>
        <time>2017-03-27T10:11:53Z</time>
      </trkpt>
      <trkpt lat="45.95496" lon="4.93329">
        <ele>289</ele>
        <time>2017-03-27T10:11:54Z</time>
      </trkpt>
      <trkpt lat="45.95493" lon="4.93323">
        <ele>289</ele>
        <time>2017-03-27T10:11:55Z</time>
      </trkpt>
      <trkpt lat="45.95491" lon="4.93317">
        <ele>290</ele>
        <time>2017-03-27T10:11:56Z</time>
      </trkpt>
      <trkpt lat="45.95488" lon="4.93311">
        <ele>290</ele>
        <time>2017-03-27T10:11:57Z</time>
      </trkpt>
      <trkpt lat="45.95486" lon="4.93305">
        <ele>290</ele>
        <time>2017-03-27T10:11:58Z</time>
      </trkpt>
      <trkpt lat="45.95484" lon="4.93299">
        <ele>290</ele>
        <time>2017-03-27T10:11:59Z</time>
      </trkpt>
      <trkpt lat="45.95482" lon="4.93293">
        <ele>290</ele>
        <time>2017-03-27T10:12:00Z</time>
      </trkpt>
      <trkpt lat="45.9548" lon="4.93287">
        <ele>290</ele>
        <time>2017-03-27T10:12:01Z</time>
      </trkpt>
      <trkpt lat="45.95478" lon="4.93281">
        <ele>290</ele>
        <time>2017-03-27T10:12:02Z</time>
      </trkpt>
      <trkpt lat="45.95475" lon="4.93275">
        <ele>290</ele>
        <time>2017-03-27T10:12:03Z</time>
      </trkpt>
      <trkpt lat="45.95472" lon="4.9327">
        <ele>290</ele>
        <time>2017-03-27T10:12:04Z</time>
      </trkpt>
      <trkpt lat="45.9547" lon="4.93264">
        <ele>290</ele>
        <time>2017-03-27T10:12:05Z</time>
      </trkpt>
      <trkpt lat="45.95467" lon="4.93258">
        <ele>290</ele>
        <time>2017-03-27T10:12:06Z</time>
      </trkpt>
      <trkpt lat="45.95465" lon="4.93253">
        <ele>290</ele>
        <time>2017-03-27T10:12:07Z</time>
      </trkpt>
      <trkpt lat="45.95463" lon="4.93247">
        <ele>290</ele>
        <time>2017-03-27T10:12:08Z</time>
      </trkpt>
      <trkpt lat="45.9546" lon="4.93241">
        <ele>290</ele>
        <time>2017-03-27T10:12:09Z</time>
      </trkpt>
      <trkpt lat="45.95458" lon="4.93235">
        <ele>291</ele>
        <time>2017-03-27T10:12:10Z</time>
      </trkpt>
      <trkpt lat="45.95455" lon="4.9323">
        <ele>291</ele>
        <time>2017-03-27T10:12:11Z</time>
      </trkpt>
      <trkpt lat="45.95452" lon="4.93224">
        <ele>291</ele>
        <time>2017-03-27T10:12:12Z</time>
      </trkpt>
      <trkpt lat="45.95449" lon="4.93218">
        <ele>291</ele>
        <time>2017-03-27T10:12:13Z</time>
      </trkpt>
      <trkpt lat="45.95447" lon="4.93212">
        <ele>291</ele>
        <time>2017-03-27T10:12:14Z</time>
      </trkpt>
      <trkpt lat="45.95445" lon="4.93205">
        <ele>291</ele>
        <time>2017-03-27T10:12:15Z</time>
      </trkpt>
      <trkpt lat="45.95445" lon="4.93197">
        <ele>291</ele>
        <time>2017-03-27T10:12:16Z</time>
      </trkpt>
      <trkpt lat="45.95446" lon="4.9319">
        <ele>291</ele>
        <time>2017-03-27T10:12:17Z</time>
      </trkpt>
      <trkpt lat="45.95447" lon="4.93184">
        <ele>291</ele>
        <time>2017-03-27T10:12:18Z</time>
      </trkpt>
      <trkpt lat="45.95449" lon="4.93178">
        <ele>291</ele>
        <time>2017-03-27T10:12:19Z</time>
      </trkpt>
      <trkpt lat="45.95452" lon="4.93172">
        <ele>291</ele>
        <time>2017-03-27T10:12:20Z</time>
      </trkpt>
      <trkpt lat="45.95459" lon="4.93164">
        <ele>290</ele>
        <time>2017-03-27T10:12:22Z</time>
      </trkpt>
      <trkpt lat="45.95463" lon="4.93162">
        <ele>290</ele>
        <time>2017-03-27T10:12:23Z</time>
      </trkpt>
      <trkpt lat="45.95468" lon="4.93158">
        <ele>290</ele>
        <time>2017-03-27T10:12:25Z</time>
      </trkpt>
      <trkpt lat="45.95471" lon="4.93155">
        <ele>290</ele>
        <time>2017-03-27T10:12:26Z</time>
      </trkpt>
      <trkpt lat="45.95477" lon="4.93151">
        <ele>290</ele>
        <time>2017-03-27T10:12:28Z</time>
      </trkpt>
      <trkpt lat="45.95481" lon="4.93149">
        <ele>290</ele>
        <time>2017-03-27T10:12:29Z</time>
      </trkpt>
      <trkpt lat="45.95489" lon="4.93145">
        <ele>290</ele>
        <time>2017-03-27T10:12:31Z</time>
      </trkpt>
      <trkpt lat="45.95492" lon="4.93143">
        <ele>290</ele>
        <time>2017-03-27T10:12:32Z</time>
      </trkpt>
      <trkpt lat="45.95498" lon="4.93139">
        <ele>290</ele>
        <time>2017-03-27T10:12:34Z</time>
      </trkpt>
      <trkpt lat="45.95501" lon="4.93138">
        <ele>289</ele>
        <time>2017-03-27T10:12:35Z</time>
      </trkpt>
      <trkpt lat="45.95508" lon="4.93134">
        <ele>289</ele>
        <time>2017-03-27T10:12:38Z</time>
      </trkpt>
      <trkpt lat="45.95508" lon="4.93133">
        <ele>289</ele>
        <time>2017-03-27T10:12:39Z</time>
      </trkpt>
      <trkpt lat="45.95508" lon="4.93132">
        <ele>289</ele>
        <time>2017-03-27T10:13:56Z</time>
      </trkpt>
      <trkpt lat="45.95512" lon="4.93125">
        <ele>289</ele>
        <time>2017-03-27T10:13:57Z</time>
      </trkpt>
      <trkpt lat="45.95518" lon="4.9312">
        <ele>289</ele>
        <time>2017-03-27T10:14:01Z</time>
      </trkpt>
      <trkpt lat="45.9552" lon="4.93117">
        <ele>289</ele>
        <time>2017-03-27T10:14:02Z</time>
      </trkpt>
      <trkpt lat="45.95525" lon="4.9311">
        <ele>289</ele>
        <time>2017-03-27T10:14:04Z</time>
      </trkpt>
      <trkpt lat="45.95527" lon="4.93107">
        <ele>289</ele>
        <time>2017-03-27T10:14:05Z</time>
      </trkpt>
      <trkpt lat="45.95532" lon="4.93098">
        <ele>289</ele>
        <time>2017-03-27T10:14:07Z</time>
      </trkpt>
      <trkpt lat="45.95535" lon="4.93094">
        <ele>290</ele>
        <time>2017-03-27T10:14:08Z</time>
      </trkpt>
      <trkpt lat="45.95538" lon="4.93088">
        <ele>290</ele>
        <time>2017-03-27T10:14:09Z</time>
      </trkpt>
      <trkpt lat="45.9554" lon="4.93083">
        <ele>290</ele>
        <time>2017-03-27T10:14:10Z</time>
      </trkpt>
      <trkpt lat="45.95543" lon="4.93071">
        <ele>290</ele>
        <time>2017-03-27T10:14:12Z</time>
      </trkpt>
      <trkpt lat="45.95543" lon="4.93065">
        <ele>290</ele>
        <time>2017-03-27T10:14:13Z</time>
      </trkpt>
      <trkpt lat="45.95543" lon="4.93059">
        <ele>290</ele>
        <time>2017-03-27T10:14:14Z</time>
      </trkpt>
      <trkpt lat="45.95544" lon="4.93052">
        <ele>290</ele>
        <time>2017-03-27T10:14:15Z</time>
      </trkpt>
      <trkpt lat="45.95544" lon="4.93045">
        <ele>290</ele>
        <time>2017-03-27T10:14:16Z</time>
      </trkpt>
      <trkpt lat="45.95545" lon="4.93038">
        <ele>291</ele>
        <time>2017-03-27T10:14:17Z</time>
      </trkpt>
      <trkpt lat="45.95545" lon="4.93031">
        <ele>291</ele>
        <time>2017-03-27T10:14:18Z</time>
      </trkpt>
      <trkpt lat="45.95546" lon="4.93023">
        <ele>291</ele>
        <time>2017-03-27T10:14:19Z</time>
      </trkpt>
      <trkpt lat="45.95547" lon="4.93014">
        <ele>291</ele>
        <time>2017-03-27T10:14:20Z</time>
      </trkpt>
      <trkpt lat="45.95548" lon="4.93006">
        <ele>291</ele>
        <time>2017-03-27T10:14:21Z</time>
      </trkpt>
      <trkpt lat="45.95548" lon="4.92997">
        <ele>292</ele>
        <time>2017-03-27T10:14:22Z</time>
      </trkpt>
      <trkpt lat="45.95549" lon="4.92989">
        <ele>292</ele>
        <time>2017-03-27T10:14:23Z</time>
      </trkpt>
      <trkpt lat="45.9555" lon="4.92981">
        <ele>292</ele>
        <time>2017-03-27T10:14:24Z</time>
      </trkpt>
      <trkpt lat="45.95552" lon="4.92973">
        <ele>292</ele>
        <time>2017-03-27T10:14:25Z</time>
      </trkpt>
      <trkpt lat="45.95553" lon="4.92966">
        <ele>292</ele>
        <time>2017-03-27T10:14:26Z</time>
      </trkpt>
      <trkpt lat="45.95554" lon="4.92959">
        <ele>292</ele>
        <time>2017-03-27T10:14:27Z</time>
      </trkpt>
      <trkpt lat="45.95556" lon="4.92952">
        <ele>292</ele>
        <time>2017-03-27T10:14:28Z</time>
      </trkpt>
      <trkpt lat="45.95558" lon="4.92945">
        <ele>292</ele>
        <time>2017-03-27T10:14:29Z</time>
      </trkpt>
      <trkpt lat="45.95559" lon="4.92938">
        <ele>292</ele>
        <time>2017-03-27T10:14:30Z</time>
      </trkpt>
      <trkpt lat="45.9556" lon="4.92931">
        <ele>292</ele>
        <time>2017-03-27T10:14:31Z</time>
      </trkpt>
      <trkpt lat="45.95562" lon="4.92923">
        <ele>293</ele>
        <time>2017-03-27T10:14:32Z</time>
      </trkpt>
      <trkpt lat="45.95563" lon="4.92915">
        <ele>293</ele>
        <time>2017-03-27T10:14:33Z</time>
      </trkpt>
      <trkpt lat="45.95564" lon="4.92907">
        <ele>293</ele>
        <time>2017-03-27T10:14:34Z</time>
      </trkpt>
      <trkpt lat="45.95566" lon="4.929">
        <ele>294</ele>
        <time>2017-03-27T10:14:35Z</time>
      </trkpt>
      <trkpt lat="45.95566" lon="4.92892">
        <ele>294</ele>
        <time>2017-03-27T10:14:36Z</time>
      </trkpt>
      <trkpt lat="45.95569" lon="4.92884">
        <ele>294</ele>
        <time>2017-03-27T10:14:37Z</time>
      </trkpt>
      <trkpt lat="45.9557" lon="4.92876">
        <ele>294</ele>
        <time>2017-03-27T10:14:38Z</time>
      </trkpt>
      <trkpt lat="45.95572" lon="4.92868">
        <ele>294</ele>
        <time>2017-03-27T10:14:39Z</time>
      </trkpt>
      <trkpt lat="45.95574" lon="4.9286">
        <ele>294</ele>
        <time>2017-03-27T10:14:40Z</time>
      </trkpt>
      <trkpt lat="45.95575" lon="4.92852">
        <ele>294</ele>
        <time>2017-03-27T10:14:41Z</time>
      </trkpt>
      <trkpt lat="45.95576" lon="4.92843">
        <ele>294</ele>
        <time>2017-03-27T10:14:42Z</time>
      </trkpt>
      <trkpt lat="45.95577" lon="4.92835">
        <ele>295</ele>
        <time>2017-03-27T10:14:43Z</time>
      </trkpt>
      <trkpt lat="45.95579" lon="4.92826">
        <ele>295</ele>
        <time>2017-03-27T10:14:44Z</time>
      </trkpt>
      <trkpt lat="45.95582" lon="4.92817">
        <ele>295</ele>
        <time>2017-03-27T10:14:45Z</time>
      </trkpt>
      <trkpt lat="45.95583" lon="4.9281">
        <ele>294</ele>
        <time>2017-03-27T10:14:46Z</time>
      </trkpt>
      <trkpt lat="45.95585" lon="4.92802">
        <ele>295</ele>
        <time>2017-03-27T10:14:47Z</time>
      </trkpt>
      <trkpt lat="45.95586" lon="4.92795">
        <ele>295</ele>
        <time>2017-03-27T10:14:48Z</time>
      </trkpt>
      <trkpt lat="45.95587" lon="4.92788">
        <ele>295</ele>
        <time>2017-03-27T10:14:49Z</time>
      </trkpt>
      <trkpt lat="45.95589" lon="4.92782">
        <ele>295</ele>
        <time>2017-03-27T10:14:50Z</time>
      </trkpt>
      <trkpt lat="45.9559" lon="4.92775">
        <ele>295</ele>
        <time>2017-03-27T10:14:51Z</time>
      </trkpt>
      <trkpt lat="45.95592" lon="4.92769">
        <ele>295</ele>
        <time>2017-03-27T10:14:52Z</time>
      </trkpt>
      <trkpt lat="45.95594" lon="4.92761">
        <ele>295</ele>
        <time>2017-03-27T10:14:53Z</time>
      </trkpt>
      <trkpt lat="45.95595" lon="4.92754">
        <ele>295</ele>
        <time>2017-03-27T10:14:54Z</time>
      </trkpt>
      <trkpt lat="45.95595" lon="4.92746">
        <ele>295</ele>
        <time>2017-03-27T10:14:55Z</time>
      </trkpt>
      <trkpt lat="45.95597" lon="4.92739">
        <ele>295</ele>
        <time>2017-03-27T10:14:56Z</time>
      </trkpt>
      <trkpt lat="45.95598" lon="4.92731">
        <ele>295</ele>
        <time>2017-03-27T10:14:57Z</time>
      </trkpt>
      <trkpt lat="45.95599" lon="4.92724">
        <ele>295</ele>
        <time>2017-03-27T10:14:58Z</time>
      </trkpt>
      <trkpt lat="45.95601" lon="4.92716">
        <ele>295</ele>
        <time>2017-03-27T10:14:59Z</time>
      </trkpt>
      <trkpt lat="45.95604" lon="4.92708">
        <ele>295</ele>
        <time>2017-03-27T10:15:00Z</time>
      </trkpt>
      <trkpt lat="45.95605" lon="4.927">
        <ele>295</ele>
        <time>2017-03-27T10:15:01Z</time>
      </trkpt>
      <trkpt lat="45.95607" lon="4.92692">
        <ele>295</ele>
        <time>2017-03-27T10:15:02Z</time>
      </trkpt>
      <trkpt lat="45.95608" lon="4.92685">
        <ele>295</ele>
        <time>2017-03-27T10:15:03Z</time>
      </trkpt>
      <trkpt lat="45.95609" lon="4.92677">
        <ele>295</ele>
        <time>2017-03-27T10:15:04Z</time>
      </trkpt>
      <trkpt lat="45.9561" lon="4.9267">
        <ele>295</ele>
        <time>2017-03-27T10:15:05Z</time>
      </trkpt>
      <trkpt lat="45.95612" lon="4.92662">
        <ele>294</ele>
        <time>2017-03-27T10:15:06Z</time>
      </trkpt>
      <trkpt lat="45.95613" lon="4.92655">
        <ele>294</ele>
        <time>2017-03-27T10:15:07Z</time>
      </trkpt>
      <trkpt lat="45.95614" lon="4.92648">
        <ele>294</ele>
        <time>2017-03-27T10:15:08Z</time>
      </trkpt>
      <trkpt lat="45.95616" lon="4.9264">
        <ele>294</ele>
        <time>2017-03-27T10:15:09Z</time>
      </trkpt>
      <trkpt lat="45.95616" lon="4.92632">
        <ele>294</ele>
        <time>2017-03-27T10:15:10Z</time>
      </trkpt>
      <trkpt lat="45.95617" lon="4.92624">
        <ele>294</ele>
        <time>2017-03-27T10:15:11Z</time>
      </trkpt>
      <trkpt lat="45.95618" lon="4.92616">
        <ele>294</ele>
        <time>2017-03-27T10:15:12Z</time>
      </trkpt>
      <trkpt lat="45.95619" lon="4.92607">
        <ele>294</ele>
        <time>2017-03-27T10:15:13Z</time>
      </trkpt>
      <trkpt lat="45.9562" lon="4.92598">
        <ele>294</ele>
        <time>2017-03-27T10:15:14Z</time>
      </trkpt>
      <trkpt lat="45.95622" lon="4.92589">
        <ele>294</ele>
        <time>2017-03-27T10:15:15Z</time>
      </trkpt>
      <trkpt lat="45.95623" lon="4.9258">
        <ele>294</ele>
        <time>2017-03-27T10:15:16Z</time>
      </trkpt>
      <trkpt lat="45.95624" lon="4.92571">
        <ele>294</ele>
        <time>2017-03-27T10:15:17Z</time>
      </trkpt>
      <trkpt lat="45.95625" lon="4.92563">
        <ele>294</ele>
        <time>2017-03-27T10:15:18Z</time>
      </trkpt>
      <trkpt lat="45.95626" lon="4.92555">
        <ele>294</ele>
        <time>2017-03-27T10:15:19Z</time>
      </trkpt>
      <trkpt lat="45.95627" lon="4.92547">
        <ele>294</ele>
        <time>2017-03-27T10:15:20Z</time>
      </trkpt>
      <trkpt lat="45.95628" lon="4.92539">
        <ele>294</ele>
        <time>2017-03-27T10:15:21Z</time>
      </trkpt>
      <trkpt lat="45.95629" lon="4.92531">
        <ele>294</ele>
        <time>2017-03-27T10:15:22Z</time>
      </trkpt>
      <trkpt lat="45.9563" lon="4.92524">
        <ele>294</ele>
        <time>2017-03-27T10:15:23Z</time>
      </trkpt>
      <trkpt lat="45.95631" lon="4.92517">
        <ele>294</ele>
        <time>2017-03-27T10:15:24Z</time>
      </trkpt>
      <trkpt lat="45.95633" lon="4.9251">
        <ele>294</ele>
        <time>2017-03-27T10:15:25Z</time>
      </trkpt>
      <trkpt lat="45.95634" lon="4.92503">
        <ele>294</ele>
        <time>2017-03-27T10:15:26Z</time>
      </trkpt>
      <trkpt lat="45.95635" lon="4.92496">
        <ele>293</ele>
        <time>2017-03-27T10:15:27Z</time>
      </trkpt>
      <trkpt lat="45.95637" lon="4.92488">
        <ele>293</ele>
        <time>2017-03-27T10:15:28Z</time>
      </trkpt>
      <trkpt lat="45.95638" lon="4.9248">
        <ele>293</ele>
        <time>2017-03-27T10:15:29Z</time>
      </trkpt>
      <trkpt lat="45.9564" lon="4.92472">
        <ele>293</ele>
        <time>2017-03-27T10:15:30Z</time>
      </trkpt>
      <trkpt lat="45.95641" lon="4.92464">
        <ele>293</ele>
        <time>2017-03-27T10:15:31Z</time>
      </trkpt>
      <trkpt lat="45.95642" lon="4.92455">
        <ele>293</ele>
        <time>2017-03-27T10:15:32Z</time>
      </trkpt>
      <trkpt lat="45.95644" lon="4.92447">
        <ele>293</ele>
        <time>2017-03-27T10:15:33Z</time>
      </trkpt>
      <trkpt lat="45.95645" lon="4.9244">
        <ele>293</ele>
        <time>2017-03-27T10:15:34Z</time>
      </trkpt>
      <trkpt lat="45.95646" lon="4.92431">
        <ele>293</ele>
        <time>2017-03-27T10:15:35Z</time>
      </trkpt>
      <trkpt lat="45.95647" lon="4.92423">
        <ele>293</ele>
        <time>2017-03-27T10:15:36Z</time>
      </trkpt>
      <trkpt lat="45.95649" lon="4.92415">
        <ele>293</ele>
        <time>2017-03-27T10:15:37Z</time>
      </trkpt>
      <trkpt lat="45.9565" lon="4.92407">
        <ele>293</ele>
        <time>2017-03-27T10:15:38Z</time>
      </trkpt>
      <trkpt lat="45.9565" lon="4.924">
        <ele>293</ele>
        <time>2017-03-27T10:15:39Z</time>
      </trkpt>
      <trkpt lat="45.95651" lon="4.92393">
        <ele>293</ele>
        <time>2017-03-27T10:15:40Z</time>
      </trkpt>
      <trkpt lat="45.95652" lon="4.92385">
        <ele>293</ele>
        <time>2017-03-27T10:15:41Z</time>
      </trkpt>
      <trkpt lat="45.95652" lon="4.92378">
        <ele>293</ele>
        <time>2017-03-27T10:15:42Z</time>
      </trkpt>
      <trkpt lat="45.95653" lon="4.9237">
        <ele>293</ele>
        <time>2017-03-27T10:15:43Z</time>
      </trkpt>
      <trkpt lat="45.95653" lon="4.92363">
        <ele>293</ele>
        <time>2017-03-27T10:15:44Z</time>
      </trkpt>
      <trkpt lat="45.95654" lon="4.92355">
        <ele>293</ele>
        <time>2017-03-27T10:15:45Z</time>
      </trkpt>
      <trkpt lat="45.95654" lon="4.92347">
        <ele>293</ele>
        <time>2017-03-27T10:15:46Z</time>
      </trkpt>
      <trkpt lat="45.95654" lon="4.92338">
        <ele>293</ele>
        <time>2017-03-27T10:15:47Z</time>
      </trkpt>
      <trkpt lat="45.95654" lon="4.9233">
        <ele>293</ele>
        <time>2017-03-27T10:15:48Z</time>
      </trkpt>
      <trkpt lat="45.95655" lon="4.92321">
        <ele>293</ele>
        <time>2017-03-27T10:15:49Z</time>
      </trkpt>
      <trkpt lat="45.95656" lon="4.92312">
        <ele>293</ele>
        <time>2017-03-27T10:15:50Z</time>
      </trkpt>
      <trkpt lat="45.95656" lon="4.92303">
        <ele>293</ele>
        <time>2017-03-27T10:15:51Z</time>
      </trkpt>
      <trkpt lat="45.95657" lon="4.92294">
        <ele>293</ele>
        <time>2017-03-27T10:15:52Z</time>
      </trkpt>
      <trkpt lat="45.95656" lon="4.92286">
        <ele>293</ele>
        <time>2017-03-27T10:15:53Z</time>
      </trkpt>
      <trkpt lat="45.95657" lon="4.92277">
        <ele>293</ele>
        <time>2017-03-27T10:15:54Z</time>
      </trkpt>
      <trkpt lat="45.95657" lon="4.9227">
        <ele>294</ele>
        <time>2017-03-27T10:15:55Z</time>
      </trkpt>
      <trkpt lat="45.95658" lon="4.92262">
        <ele>294</ele>
        <time>2017-03-27T10:15:56Z</time>
      </trkpt>
      <trkpt lat="45.95658" lon="4.92255">
        <ele>294</ele>
        <time>2017-03-27T10:15:57Z</time>
      </trkpt>
      <trkpt lat="45.95658" lon="4.92248">
        <ele>294</ele>
        <time>2017-03-27T10:15:58Z</time>
      </trkpt>
      <trkpt lat="45.95659" lon="4.9224">
        <ele>294</ele>
        <time>2017-03-27T10:15:59Z</time>
      </trkpt>
      <trkpt lat="45.95659" lon="4.92233">
        <ele>294</ele>
        <time>2017-03-27T10:16:00Z</time>
      </trkpt>
      <trkpt lat="45.95659" lon="4.92224">
        <ele>294</ele>
        <time>2017-03-27T10:16:01Z</time>
      </trkpt>
      <trkpt lat="45.9566" lon="4.92216">
        <ele>294</ele>
        <time>2017-03-27T10:16:02Z</time>
      </trkpt>
      <trkpt lat="45.9566" lon="4.92207">
        <ele>294</ele>
        <time>2017-03-27T10:16:03Z</time>
      </trkpt>
      <trkpt lat="45.95661" lon="4.92199">
        <ele>295</ele>
        <time>2017-03-27T10:16:04Z</time>
      </trkpt>
      <trkpt lat="45.95661" lon="4.92191">
        <ele>295</ele>
        <time>2017-03-27T10:16:05Z</time>
      </trkpt>
      <trkpt lat="45.95661" lon="4.92184">
        <ele>295</ele>
        <time>2017-03-27T10:16:06Z</time>
      </trkpt>
      <trkpt lat="45.95661" lon="4.92176">
        <ele>296</ele>
        <time>2017-03-27T10:16:07Z</time>
      </trkpt>
      <trkpt lat="45.95662" lon="4.9217">
        <ele>296</ele>
        <time>2017-03-27T10:16:08Z</time>
      </trkpt>
      <trkpt lat="45.95663" lon="4.92163">
        <ele>297</ele>
        <time>2017-03-27T10:16:09Z</time>
      </trkpt>
      <trkpt lat="45.95663" lon="4.9215">
        <ele>296</ele>
        <time>2017-03-27T10:16:11Z</time>
      </trkpt>
      <trkpt lat="45.95663" lon="4.92144">
        <ele>296</ele>
        <time>2017-03-27T10:16:12Z</time>
      </trkpt>
      <trkpt lat="45.95664" lon="4.92137">
        <ele>296</ele>
        <time>2017-03-27T10:16:13Z</time>
      </trkpt>
      <trkpt lat="45.95664" lon="4.92131">
        <ele>296</ele>
        <time>2017-03-27T10:16:14Z</time>
      </trkpt>
      <trkpt lat="45.95664" lon="4.92124">
        <ele>296</ele>
        <time>2017-03-27T10:16:15Z</time>
      </trkpt>
      <trkpt lat="45.95665" lon="4.92118">
        <ele>296</ele>
        <time>2017-03-27T10:16:16Z</time>
      </trkpt>
      <trkpt lat="45.95665" lon="4.9211">
        <ele>296</ele>
        <time>2017-03-27T10:16:17Z</time>
      </trkpt>
      <trkpt lat="45.95666" lon="4.92102">
        <ele>297</ele>
        <time>2017-03-27T10:16:18Z</time>
      </trkpt>
      <trkpt lat="45.95667" lon="4.92094">
        <ele>299</ele>
        <time>2017-03-27T10:16:19Z</time>
      </trkpt>
      <trkpt lat="45.95668" lon="4.92085">
        <ele>299</ele>
        <time>2017-03-27T10:16:20Z</time>
      </trkpt>
      <trkpt lat="45.95669" lon="4.92078">
        <ele>299</ele>
        <time>2017-03-27T10:16:21Z</time>
      </trkpt>
      <trkpt lat="45.9567" lon="4.92071">
        <ele>300</ele>
        <time>2017-03-27T10:16:22Z</time>
      </trkpt>
      <trkpt lat="45.95671" lon="4.92063">
        <ele>300</ele>
        <time>2017-03-27T10:16:23Z</time>
      </trkpt>
      <trkpt lat="45.95672" lon="4.92055">
        <ele>300</ele>
        <time>2017-03-27T10:16:24Z</time>
      </trkpt>
      <trkpt lat="45.95672" lon="4.92047">
        <ele>300</ele>
        <time>2017-03-27T10:16:25Z</time>
      </trkpt>
      <trkpt lat="45.95672" lon="4.92039">
        <ele>300</ele>
        <time>2017-03-27T10:16:26Z</time>
      </trkpt>
      <trkpt lat="45.95671" lon="4.92031">
        <ele>300</ele>
        <time>2017-03-27T10:16:27Z</time>
      </trkpt>
      <trkpt lat="45.95669" lon="4.92024">
        <ele>300</ele>
        <time>2017-03-27T10:16:28Z</time>
      </trkpt>
      <trkpt lat="45.95667" lon="4.92017">
        <ele>300</ele>
        <time>2017-03-27T10:16:29Z</time>
      </trkpt>
      <trkpt lat="45.95665" lon="4.92011">
        <ele>297</ele>
        <time>2017-03-27T10:16:30Z</time>
      </trkpt>
      <trkpt lat="45.95661" lon="4.92005">
        <ele>297</ele>
        <time>2017-03-27T10:16:31Z</time>
      </trkpt>
      <trkpt lat="45.95658" lon="4.91999">
        <ele>297</ele>
        <time>2017-03-27T10:16:32Z</time>
      </trkpt>
      <trkpt lat="45.95655" lon="4.91993">
        <ele>297</ele>
        <time>2017-03-27T10:16:33Z</time>
      </trkpt>
      <trkpt lat="45.95651" lon="4.91987">
        <ele>296</ele>
        <time>2017-03-27T10:16:34Z</time>
      </trkpt>
      <trkpt lat="45.95648" lon="4.91981">
        <ele>296</ele>
        <time>2017-03-27T10:16:35Z</time>
      </trkpt>
      <trkpt lat="45.95645" lon="4.91976">
        <ele>296</ele>
        <time>2017-03-27T10:16:36Z</time>
      </trkpt>
      <trkpt lat="45.9564" lon="4.91969">
        <ele>295</ele>
        <time>2017-03-27T10:16:37Z</time>
      </trkpt>
      <trkpt lat="45.95636" lon="4.91962">
        <ele>295</ele>
        <time>2017-03-27T10:16:38Z</time>
      </trkpt>
      <trkpt lat="45.95633" lon="4.91957">
        <ele>295</ele>
        <time>2017-03-27T10:16:39Z</time>
      </trkpt>
      <trkpt lat="45.95629" lon="4.91952">
        <ele>295</ele>
        <time>2017-03-27T10:16:40Z</time>
      </trkpt>
      <trkpt lat="45.95626" lon="4.91947">
        <ele>295</ele>
        <time>2017-03-27T10:16:41Z</time>
      </trkpt>
      <trkpt lat="45.95623" lon="4.91942">
        <ele>295</ele>
        <time>2017-03-27T10:16:42Z</time>
      </trkpt>
      <trkpt lat="45.95618" lon="4.91938">
        <ele>294</ele>
        <time>2017-03-27T10:16:43Z</time>
      </trkpt>
      <trkpt lat="45.95613" lon="4.91934">
        <ele>294</ele>
        <time>2017-03-27T10:16:44Z</time>
      </trkpt>
      <trkpt lat="45.9561" lon="4.9193">
        <ele>294</ele>
        <time>2017-03-27T10:16:45Z</time>
      </trkpt>
      <trkpt lat="45.95605" lon="4.91926">
        <ele>294</ele>
        <time>2017-03-27T10:16:46Z</time>
      </trkpt>
      <trkpt lat="45.956" lon="4.91922">
        <ele>294</ele>
        <time>2017-03-27T10:16:47Z</time>
      </trkpt>
      <trkpt lat="45.95595" lon="4.9192">
        <ele>294</ele>
        <time>2017-03-27T10:16:48Z</time>
      </trkpt>
      <trkpt lat="45.95589" lon="4.91917">
        <ele>293</ele>
        <time>2017-03-27T10:16:49Z</time>
      </trkpt>
      <trkpt lat="45.95585" lon="4.91914">
        <ele>293</ele>
        <time>2017-03-27T10:16:50Z</time>
      </trkpt>
      <trkpt lat="45.9558" lon="4.91912">
        <ele>293</ele>
        <time>2017-03-27T10:16:51Z</time>
      </trkpt>
      <trkpt lat="45.95573" lon="4.91909">
        <ele>294</ele>
        <time>2017-03-27T10:16:52Z</time>
      </trkpt>
      <trkpt lat="45.95567" lon="4.91906">
        <ele>294</ele>
        <time>2017-03-27T10:16:53Z</time>
      </trkpt>
      <trkpt lat="45.95561" lon="4.91902">
        <ele>294</ele>
        <time>2017-03-27T10:16:54Z</time>
      </trkpt>
      <trkpt lat="45.95556" lon="4.91899">
        <ele>294</ele>
        <time>2017-03-27T10:16:55Z</time>
      </trkpt>
      <trkpt lat="45.95551" lon="4.91894">
        <ele>294</ele>
        <time>2017-03-27T10:16:56Z</time>
      </trkpt>
      <trkpt lat="45.95546" lon="4.9189">
        <ele>294</ele>
        <time>2017-03-27T10:16:57Z</time>
      </trkpt>
      <trkpt lat="45.9554" lon="4.91886">
        <ele>294</ele>
        <time>2017-03-27T10:16:58Z</time>
      </trkpt>
      <trkpt lat="45.95535" lon="4.91883">
        <ele>294</ele>
        <time>2017-03-27T10:16:59Z</time>
      </trkpt>
      <trkpt lat="45.9553" lon="4.91881">
        <ele>294</ele>
        <time>2017-03-27T10:17:00Z</time>
      </trkpt>
      <trkpt lat="45.95526" lon="4.91878">
        <ele>294</ele>
        <time>2017-03-27T10:17:01Z</time>
      </trkpt>
      <trkpt lat="45.95521" lon="4.91874">
        <ele>295</ele>
        <time>2017-03-27T10:17:02Z</time>
      </trkpt>
      <trkpt lat="45.95516" lon="4.91871">
        <ele>295</ele>
        <time>2017-03-27T10:17:03Z</time>
      </trkpt>
      <trkpt lat="45.95511" lon="4.91867">
        <ele>295</ele>
        <time>2017-03-27T10:17:04Z</time>
      </trkpt>
      <trkpt lat="45.95506" lon="4.91862">
        <ele>295</ele>
        <time>2017-03-27T10:17:05Z</time>
      </trkpt>
      <trkpt lat="45.95502" lon="4.91858">
        <ele>295</ele>
        <time>2017-03-27T10:17:06Z</time>
      </trkpt>
      <trkpt lat="45.95497" lon="4.91854">
        <ele>295</ele>
        <time>2017-03-27T10:17:07Z</time>
      </trkpt>
      <trkpt lat="45.95491" lon="4.91851">
        <ele>295</ele>
        <time>2017-03-27T10:17:08Z</time>
      </trkpt>
      <trkpt lat="45.95487" lon="4.91847">
        <ele>295</ele>
        <time>2017-03-27T10:17:09Z</time>
      </trkpt>
      <trkpt lat="45.95482" lon="4.91843">
        <ele>295</ele>
        <time>2017-03-27T10:17:10Z</time>
      </trkpt>
      <trkpt lat="45.95477" lon="4.9184">
        <ele>295</ele>
        <time>2017-03-27T10:17:11Z</time>
      </trkpt>
      <trkpt lat="45.95473" lon="4.91836">
        <ele>295</ele>
        <time>2017-03-27T10:17:12Z</time>
      </trkpt>
      <trkpt lat="45.95468" lon="4.91832">
        <ele>297</ele>
        <time>2017-03-27T10:17:13Z</time>
      </trkpt>
      <trkpt lat="45.95464" lon="4.91827">
        <ele>297</ele>
        <time>2017-03-27T10:17:14Z</time>
      </trkpt>
      <trkpt lat="45.95459" lon="4.91821">
        <ele>297</ele>
        <time>2017-03-27T10:17:15Z</time>
      </trkpt>
      <trkpt lat="45.95454" lon="4.91815">
        <ele>297</ele>
        <time>2017-03-27T10:17:16Z</time>
      </trkpt>
      <trkpt lat="45.95451" lon="4.91808">
        <ele>297</ele>
        <time>2017-03-27T10:17:17Z</time>
      </trkpt>
      <trkpt lat="45.95447" lon="4.91802">
        <ele>298</ele>
        <time>2017-03-27T10:17:18Z</time>
      </trkpt>
      <trkpt lat="45.95443" lon="4.91795">
        <ele>298</ele>
        <time>2017-03-27T10:17:19Z</time>
      </trkpt>
      <trkpt lat="45.95441" lon="4.91789">
        <ele>298</ele>
        <time>2017-03-27T10:17:20Z</time>
      </trkpt>
      <trkpt lat="45.95438" lon="4.91783">
        <ele>298</ele>
        <time>2017-03-27T10:17:21Z</time>
      </trkpt>
      <trkpt lat="45.95435" lon="4.91777">
        <ele>298</ele>
        <time>2017-03-27T10:17:22Z</time>
      </trkpt>
      <trkpt lat="45.95433" lon="4.91771">
        <ele>298</ele>
        <time>2017-03-27T10:17:23Z</time>
      </trkpt>
      <trkpt lat="45.95431" lon="4.91765">
        <ele>298</ele>
        <time>2017-03-27T10:17:24Z</time>
      </trkpt>
      <trkpt lat="45.95429" lon="4.91759">
        <ele>298</ele>
        <time>2017-03-27T10:17:25Z</time>
      </trkpt>
      <trkpt lat="45.95428" lon="4.91752">
        <ele>298</ele>
        <time>2017-03-27T10:17:26Z</time>
      </trkpt>
      <trkpt lat="45.95426" lon="4.91746">
        <ele>299</ele>
        <time>2017-03-27T10:17:27Z</time>
      </trkpt>
      <trkpt lat="45.95424" lon="4.9174">
        <ele>300</ele>
        <time>2017-03-27T10:17:28Z</time>
      </trkpt>
      <trkpt lat="45.9542" lon="4.91729">
        <ele>300</ele>
        <time>2017-03-27T10:17:30Z</time>
      </trkpt>
      <trkpt lat="45.95418" lon="4.91723">
        <ele>300</ele>
        <time>2017-03-27T10:17:31Z</time>
      </trkpt>
      <trkpt lat="45.95416" lon="4.91713">
        <ele>299</ele>
        <time>2017-03-27T10:17:33Z</time>
      </trkpt>
      <trkpt lat="45.95415" lon="4.91708">
        <ele>299</ele>
        <time>2017-03-27T10:17:34Z</time>
      </trkpt>
      <trkpt lat="45.95413" lon="4.917">
        <ele>299</ele>
        <time>2017-03-27T10:17:36Z</time>
      </trkpt>
      <trkpt lat="45.95412" lon="4.91695">
        <ele>300</ele>
        <time>2017-03-27T10:17:37Z</time>
      </trkpt>
      <trkpt lat="45.95411" lon="4.91686">
        <ele>300</ele>
        <time>2017-03-27T10:17:39Z</time>
      </trkpt>
      <trkpt lat="45.9541" lon="4.91681">
        <ele>300</ele>
        <time>2017-03-27T10:17:40Z</time>
      </trkpt>
      <trkpt lat="45.95407" lon="4.91673">
        <ele>300</ele>
        <time>2017-03-27T10:17:42Z</time>
      </trkpt>
      <trkpt lat="45.95406" lon="4.91668">
        <ele>300</ele>
        <time>2017-03-27T10:17:43Z</time>
      </trkpt>
      <trkpt lat="45.95404" lon="4.91659">
        <ele>301</ele>
        <time>2017-03-27T10:17:45Z</time>
      </trkpt>
      <trkpt lat="45.95403" lon="4.91655">
        <ele>301</ele>
        <time>2017-03-27T10:17:46Z</time>
      </trkpt>
      <trkpt lat="45.954" lon="4.91646">
        <ele>301</ele>
        <time>2017-03-27T10:17:48Z</time>
      </trkpt>
      <trkpt lat="45.95398" lon="4.91642">
        <ele>301</ele>
        <time>2017-03-27T10:17:49Z</time>
      </trkpt>
      <trkpt lat="45.95394" lon="4.91633">
        <ele>301</ele>
        <time>2017-03-27T10:17:51Z</time>
      </trkpt>
      <trkpt lat="45.95391" lon="4.91628">
        <ele>301</ele>
        <time>2017-03-27T10:17:52Z</time>
      </trkpt>
      <trkpt lat="45.95388" lon="4.91619">
        <ele>301</ele>
        <time>2017-03-27T10:17:54Z</time>
      </trkpt>
      <trkpt lat="45.95387" lon="4.91614">
        <ele>301</ele>
        <time>2017-03-27T10:17:55Z</time>
      </trkpt>
      <trkpt lat="45.95386" lon="4.91604">
        <ele>301</ele>
        <time>2017-03-27T10:17:57Z</time>
      </trkpt>
      <trkpt lat="45.95384" lon="4.91599">
        <ele>301</ele>
        <time>2017-03-27T10:17:58Z</time>
      </trkpt>
      <trkpt lat="45.95381" lon="4.91589">
        <ele>301</ele>
        <time>2017-03-27T10:18:00Z</time>
      </trkpt>
      <trkpt lat="45.9538" lon="4.91585">
        <ele>301</ele>
        <time>2017-03-27T10:18:01Z</time>
      </trkpt>
      <trkpt lat="45.95378" lon="4.91576">
        <ele>300</ele>
        <time>2017-03-27T10:18:03Z</time>
      </trkpt>
      <trkpt lat="45.95376" lon="4.91572">
        <ele>300</ele>
        <time>2017-03-27T10:18:04Z</time>
      </trkpt>
      <trkpt lat="45.95374" lon="4.91564">
        <ele>300</ele>
        <time>2017-03-27T10:18:06Z</time>
      </trkpt>
      <trkpt lat="45.95372" lon="4.9156">
        <ele>300</ele>
        <time>2017-03-27T10:18:07Z</time>
      </trkpt>
      <trkpt lat="45.9537" lon="4.91551">
        <ele>300</ele>
        <time>2017-03-27T10:18:09Z</time>
      </trkpt>
      <trkpt lat="45.95369" lon="4.91546">
        <ele>300</ele>
        <time>2017-03-27T10:18:10Z</time>
      </trkpt>
      <trkpt lat="45.95367" lon="4.91537">
        <ele>300</ele>
        <time>2017-03-27T10:18:12Z</time>
      </trkpt>
      <trkpt lat="45.95366" lon="4.91532">
        <ele>300</ele>
        <time>2017-03-27T10:18:13Z</time>
      </trkpt>
      <trkpt lat="45.95363" lon="4.91523">
        <ele>299</ele>
        <time>2017-03-27T10:18:15Z</time>
      </trkpt>
      <trkpt lat="45.95361" lon="4.91517">
        <ele>299</ele>
        <time>2017-03-27T10:18:16Z</time>
      </trkpt>
      <trkpt lat="45.95358" lon="4.91508">
        <ele>299</ele>
        <time>2017-03-27T10:18:18Z</time>
      </trkpt>
      <trkpt lat="45.95357" lon="4.91504">
        <ele>299</ele>
        <time>2017-03-27T10:18:19Z</time>
      </trkpt>
      <trkpt lat="45.95353" lon="4.91492">
        <ele>298</ele>
        <time>2017-03-27T10:18:22Z</time>
      </trkpt>
      <trkpt lat="45.95352" lon="4.91488">
        <ele>298</ele>
        <time>2017-03-27T10:18:23Z</time>
      </trkpt>
      <trkpt lat="45.9535" lon="4.91479">
        <ele>299</ele>
        <time>2017-03-27T10:18:25Z</time>
      </trkpt>
      <trkpt lat="45.95349" lon="4.91474">
        <ele>299</ele>
        <time>2017-03-27T10:18:26Z</time>
      </trkpt>
      <trkpt lat="45.95349" lon="4.91465">
        <ele>299</ele>
        <time>2017-03-27T10:18:28Z</time>
      </trkpt>
      <trkpt lat="45.95348" lon="4.91461">
        <ele>299</ele>
        <time>2017-03-27T10:18:29Z</time>
      </trkpt>
      <trkpt lat="45.95346" lon="4.91449">
        <ele>298</ele>
        <time>2017-03-27T10:18:32Z</time>
      </trkpt>
      <trkpt lat="45.95345" lon="4.91445">
        <ele>298</ele>
        <time>2017-03-27T10:18:33Z</time>
      </trkpt>
      <trkpt lat="45.95342" lon="4.91437">
        <ele>298</ele>
        <time>2017-03-27T10:18:35Z</time>
      </trkpt>
      <trkpt lat="45.95341" lon="4.91432">
        <ele>298</ele>
        <time>2017-03-27T10:18:36Z</time>
      </trkpt>
      <trkpt lat="45.9534" lon="4.91424">
        <ele>298</ele>
        <time>2017-03-27T10:18:38Z</time>
      </trkpt>
      <trkpt lat="45.95339" lon="4.91419">
        <ele>298</ele>
        <time>2017-03-27T10:18:39Z</time>
      </trkpt>
      <trkpt lat="45.95335" lon="4.91408">
        <ele>298</ele>
        <time>2017-03-27T10:18:41Z</time>
      </trkpt>
      <trkpt lat="45.95334" lon="4.91404">
        <ele>298</ele>
        <time>2017-03-27T10:18:42Z</time>
      </trkpt>
      <trkpt lat="45.95332" lon="4.91393">
        <ele>298</ele>
        <time>2017-03-27T10:18:45Z</time>
      </trkpt>
      <trkpt lat="45.95332" lon="4.91389">
        <ele>298</ele>
        <time>2017-03-27T10:18:46Z</time>
      </trkpt>
      <trkpt lat="45.95332" lon="4.91379">
        <ele>298</ele>
        <time>2017-03-27T10:18:49Z</time>
      </trkpt>
      <trkpt lat="45.95333" lon="4.91376">
        <ele>298</ele>
        <time>2017-03-27T10:18:50Z</time>
      </trkpt>
      <trkpt lat="45.9533" lon="4.91364">
        <ele>298</ele>
        <time>2017-03-27T10:18:53Z</time>
      </trkpt>
      <trkpt lat="45.9533" lon="4.9136">
        <ele>298</ele>
        <time>2017-03-27T10:18:54Z</time>
      </trkpt>
      <trkpt lat="45.95328" lon="4.91351">
        <ele>297</ele>
        <time>2017-03-27T10:18:56Z</time>
      </trkpt>
      <trkpt lat="45.95327" lon="4.91346">
        <ele>297</ele>
        <time>2017-03-27T10:18:57Z</time>
      </trkpt>
      <trkpt lat="45.95326" lon="4.91335">
        <ele>297</ele>
        <time>2017-03-27T10:18:59Z</time>
      </trkpt>
      <trkpt lat="45.95324" lon="4.91331">
        <ele>297</ele>
        <time>2017-03-27T10:19:00Z</time>
      </trkpt>
      <trkpt lat="45.95323" lon="4.91319">
        <ele>298</ele>
        <time>2017-03-27T10:19:02Z</time>
      </trkpt>
      <trkpt lat="45.95322" lon="4.91314">
        <ele>298</ele>
        <time>2017-03-27T10:19:03Z</time>
      </trkpt>
      <trkpt lat="45.9532" lon="4.91304">
        <ele>298</ele>
        <time>2017-03-27T10:19:05Z</time>
      </trkpt>
      <trkpt lat="45.95319" lon="4.913">
        <ele>298</ele>
        <time>2017-03-27T10:19:06Z</time>
      </trkpt>
      <trkpt lat="45.95319" lon="4.91288">
        <ele>298</ele>
        <time>2017-03-27T10:19:09Z</time>
      </trkpt>
      <trkpt lat="45.95319" lon="4.91284">
        <ele>298</ele>
        <time>2017-03-27T10:19:10Z</time>
      </trkpt>
      <trkpt lat="45.95318" lon="4.91274">
        <ele>298</ele>
        <time>2017-03-27T10:19:12Z</time>
      </trkpt>
      <trkpt lat="45.95317" lon="4.91269">
        <ele>298</ele>
        <time>2017-03-27T10:19:13Z</time>
      </trkpt>
      <trkpt lat="45.95316" lon="4.91261">
        <ele>298</ele>
        <time>2017-03-27T10:19:15Z</time>
      </trkpt>
      <trkpt lat="45.95315" lon="4.91256">
        <ele>298</ele>
        <time>2017-03-27T10:19:16Z</time>
      </trkpt>
      <trkpt lat="45.95312" lon="4.91247">
        <ele>299</ele>
        <time>2017-03-27T10:19:18Z</time>
      </trkpt>
      <trkpt lat="45.9531" lon="4.91242">
        <ele>299</ele>
        <time>2017-03-27T10:19:19Z</time>
      </trkpt>
      <trkpt lat="45.95307" lon="4.91231">
        <ele>299</ele>
        <time>2017-03-27T10:19:22Z</time>
      </trkpt>
      <trkpt lat="45.95306" lon="4.91227">
        <ele>299</ele>
        <time>2017-03-27T10:19:23Z</time>
      </trkpt>
      <trkpt lat="45.95302" lon="4.91216">
        <ele>299</ele>
        <time>2017-03-27T10:19:26Z</time>
      </trkpt>
      <trkpt lat="45.95301" lon="4.91211">
        <ele>299</ele>
        <time>2017-03-27T10:19:27Z</time>
      </trkpt>
      <trkpt lat="45.95299" lon="4.91202">
        <ele>299</ele>
        <time>2017-03-27T10:19:29Z</time>
      </trkpt>
      <trkpt lat="45.95297" lon="4.91197">
        <ele>299</ele>
        <time>2017-03-27T10:19:30Z</time>
      </trkpt>
      <trkpt lat="45.95291" lon="4.91189">
        <ele>299</ele>
        <time>2017-03-27T10:19:32Z</time>
      </trkpt>
      <trkpt lat="45.95289" lon="4.91186">
        <ele>299</ele>
        <time>2017-03-27T10:19:33Z</time>
      </trkpt>
      <trkpt lat="45.95285" lon="4.91176">
        <ele>299</ele>
        <time>2017-03-27T10:19:36Z</time>
      </trkpt>
      <trkpt lat="45.95284" lon="4.91172">
        <ele>299</ele>
        <time>2017-03-27T10:19:37Z</time>
      </trkpt>
      <trkpt lat="45.95278" lon="4.91162">
        <ele>299</ele>
        <time>2017-03-27T10:19:40Z</time>
      </trkpt>
      <trkpt lat="45.95277" lon="4.91158">
        <ele>299</ele>
        <time>2017-03-27T10:19:41Z</time>
      </trkpt>
      <trkpt lat="45.95271" lon="4.9115">
        <ele>299</ele>
        <time>2017-03-27T10:19:43Z</time>
      </trkpt>
      <trkpt lat="45.95267" lon="4.91146">
        <ele>299</ele>
        <time>2017-03-27T10:19:44Z</time>
      </trkpt>
      <trkpt lat="45.95263" lon="4.91139">
        <ele>299</ele>
        <time>2017-03-27T10:19:46Z</time>
      </trkpt>
      <trkpt lat="45.9526" lon="4.91136">
        <ele>299</ele>
        <time>2017-03-27T10:19:47Z</time>
      </trkpt>
      <trkpt lat="45.95254" lon="4.91128">
        <ele>299</ele>
        <time>2017-03-27T10:19:49Z</time>
      </trkpt>
      <trkpt lat="45.95251" lon="4.91124">
        <ele>299</ele>
        <time>2017-03-27T10:19:50Z</time>
      </trkpt>
      <trkpt lat="45.95246" lon="4.91117">
        <ele>298</ele>
        <time>2017-03-27T10:19:52Z</time>
      </trkpt>
      <trkpt lat="45.95243" lon="4.91113">
        <ele>298</ele>
        <time>2017-03-27T10:19:53Z</time>
      </trkpt>
      <trkpt lat="45.95237" lon="4.91105">
        <ele>298</ele>
        <time>2017-03-27T10:19:56Z</time>
      </trkpt>
      <trkpt lat="45.95236" lon="4.91102">
        <ele>298</ele>
        <time>2017-03-27T10:19:57Z</time>
      </trkpt>
      <trkpt lat="45.95231" lon="4.91092">
        <ele>298</ele>
        <time>2017-03-27T10:20:01Z</time>
      </trkpt>
      <trkpt lat="45.95228" lon="4.91089">
        <ele>298</ele>
        <time>2017-03-27T10:20:02Z</time>
      </trkpt>
      <trkpt lat="45.95224" lon="4.91082">
        <ele>297</ele>
        <time>2017-03-27T10:20:04Z</time>
      </trkpt>
      <trkpt lat="45.95222" lon="4.91079">
        <ele>297</ele>
        <time>2017-03-27T10:20:05Z</time>
      </trkpt>
      <trkpt lat="45.95214" lon="4.91075">
        <ele>297</ele>
        <time>2017-03-27T10:20:08Z</time>
      </trkpt>
      <trkpt lat="45.9521" lon="4.91074">
        <ele>297</ele>
        <time>2017-03-27T10:20:09Z</time>
      </trkpt>
      <trkpt lat="45.95204" lon="4.91073">
        <ele>297</ele>
        <time>2017-03-27T10:20:11Z</time>
      </trkpt>
      <trkpt lat="45.95199" lon="4.91072">
        <ele>297</ele>
        <time>2017-03-27T10:20:12Z</time>
      </trkpt>
      <trkpt lat="45.95191" lon="4.91067">
        <ele>297</ele>
        <time>2017-03-27T10:20:14Z</time>
      </trkpt>
      <trkpt lat="45.95189" lon="4.91064">
        <ele>297</ele>
        <time>2017-03-27T10:20:15Z</time>
      </trkpt>
      <trkpt lat="45.95184" lon="4.91058">
        <ele>297</ele>
        <time>2017-03-27T10:20:17Z</time>
      </trkpt>
      <trkpt lat="45.95182" lon="4.91055">
        <ele>297</ele>
        <time>2017-03-27T10:20:18Z</time>
      </trkpt>
      <trkpt lat="45.95178" lon="4.91045">
        <ele>297</ele>
        <time>2017-03-27T10:20:21Z</time>
      </trkpt>
      <trkpt lat="45.95177" lon="4.91042">
        <ele>297</ele>
        <time>2017-03-27T10:20:22Z</time>
      </trkpt>
      <trkpt lat="45.95174" lon="4.91035">
        <ele>297</ele>
        <time>2017-03-27T10:20:25Z</time>
      </trkpt>
      <trkpt lat="45.95173" lon="4.91034">
        <ele>297</ele>
        <time>2017-03-27T10:20:26Z</time>
      </trkpt>
      <trkpt lat="45.95173" lon="4.91035">
        <ele>297</ele>
        <time>2017-03-27T10:23:18Z</time>
      </trkpt>
      <trkpt lat="45.95164" lon="4.91036">
        <ele>297</ele>
        <time>2017-03-27T10:23:19Z</time>
      </trkpt>
      <trkpt lat="45.95172" lon="4.91032">
        <ele>297</ele>
        <time>2017-03-27T10:25:58Z</time>
      </trkpt>
      <trkpt lat="45.95172" lon="4.91031">
        <ele>297</ele>
        <time>2017-03-27T10:25:59Z</time>
      </trkpt>
      <trkpt lat="45.95178" lon="4.91025">
        <ele>297</ele>
        <time>2017-03-27T10:26:26Z</time>
      </trkpt>
      <trkpt lat="45.9518" lon="4.91019">
        <ele>297</ele>
        <time>2017-03-27T10:26:27Z</time>
      </trkpt>
      <trkpt lat="45.9518" lon="4.91009">
        <ele>298</ele>
        <time>2017-03-27T10:26:31Z</time>
      </trkpt>
      <trkpt lat="45.9518" lon="4.91005">
        <ele>298</ele>
        <time>2017-03-27T10:26:32Z</time>
      </trkpt>
      <trkpt lat="45.95179" lon="4.90997">
        <ele>298</ele>
        <time>2017-03-27T10:26:34Z</time>
      </trkpt>
      <trkpt lat="45.95179" lon="4.90991">
        <ele>298</ele>
        <time>2017-03-27T10:26:35Z</time>
      </trkpt>
      <trkpt lat="45.95178" lon="4.90982">
        <ele>298</ele>
        <time>2017-03-27T10:26:37Z</time>
      </trkpt>
      <trkpt lat="45.95177" lon="4.90978">
        <ele>298</ele>
        <time>2017-03-27T10:26:38Z</time>
      </trkpt>
      <trkpt lat="45.95177" lon="4.90969">
        <ele>298</ele>
        <time>2017-03-27T10:26:40Z</time>
      </trkpt>
      <trkpt lat="45.95177" lon="4.90964">
        <ele>298</ele>
        <time>2017-03-27T10:26:41Z</time>
      </trkpt>
      <trkpt lat="45.95177" lon="4.90953">
        <ele>297</ele>
        <time>2017-03-27T10:26:43Z</time>
      </trkpt>
      <trkpt lat="45.95176" lon="4.90947">
        <ele>297</ele>
        <time>2017-03-27T10:26:44Z</time>
      </trkpt>
      <trkpt lat="45.95176" lon="4.90935">
        <ele>297</ele>
        <time>2017-03-27T10:26:46Z</time>
      </trkpt>
      <trkpt lat="45.95177" lon="4.90929">
        <ele>297</ele>
        <time>2017-03-27T10:26:47Z</time>
      </trkpt>
      <trkpt lat="45.95179" lon="4.90918">
        <ele>297</ele>
        <time>2017-03-27T10:26:49Z</time>
      </trkpt>
      <trkpt lat="45.95181" lon="4.90912">
        <ele>298</ele>
        <time>2017-03-27T10:26:50Z</time>
      </trkpt>
      <trkpt lat="45.95182" lon="4.90905">
        <ele>298</ele>
        <time>2017-03-27T10:26:51Z</time>
      </trkpt>
      <trkpt lat="45.95183" lon="4.90899">
        <ele>298</ele>
        <time>2017-03-27T10:26:52Z</time>
      </trkpt>
      <trkpt lat="45.95185" lon="4.90886">
        <ele>298</ele>
        <time>2017-03-27T10:26:54Z</time>
      </trkpt>
      <trkpt lat="45.95186" lon="4.9088">
        <ele>298</ele>
        <time>2017-03-27T10:26:55Z</time>
      </trkpt>
      <trkpt lat="45.95187" lon="4.90873">
        <ele>298</ele>
        <time>2017-03-27T10:26:56Z</time>
      </trkpt>
      <trkpt lat="45.95188" lon="4.90866">
        <ele>298</ele>
        <time>2017-03-27T10:26:57Z</time>
      </trkpt>
      <trkpt lat="45.95188" lon="4.90859">
        <ele>298</ele>
        <time>2017-03-27T10:26:58Z</time>
      </trkpt>
      <trkpt lat="45.9519" lon="4.90852">
        <ele>298</ele>
        <time>2017-03-27T10:26:59Z</time>
      </trkpt>
      <trkpt lat="45.9519" lon="4.90845">
        <ele>298</ele>
        <time>2017-03-27T10:27:00Z</time>
      </trkpt>
      <trkpt lat="45.9519" lon="4.90838">
        <ele>298</ele>
        <time>2017-03-27T10:27:01Z</time>
      </trkpt>
      <trkpt lat="45.95189" lon="4.90831">
        <ele>298</ele>
        <time>2017-03-27T10:27:02Z</time>
      </trkpt>
      <trkpt lat="45.95189" lon="4.90824">
        <ele>298</ele>
        <time>2017-03-27T10:27:03Z</time>
      </trkpt>
      <trkpt lat="45.95189" lon="4.90817">
        <ele>299</ele>
        <time>2017-03-27T10:27:04Z</time>
      </trkpt>
      <trkpt lat="45.95189" lon="4.90811">
        <ele>299</ele>
        <time>2017-03-27T10:27:05Z</time>
      </trkpt>
      <trkpt lat="45.95188" lon="4.90804">
        <ele>299</ele>
        <time>2017-03-27T10:27:06Z</time>
      </trkpt>
      <trkpt lat="45.95187" lon="4.90797">
        <ele>298</ele>
        <time>2017-03-27T10:27:07Z</time>
      </trkpt>
      <trkpt lat="45.95184" lon="4.90785">
        <ele>298</ele>
        <time>2017-03-27T10:27:09Z</time>
      </trkpt>
      <trkpt lat="45.95183" lon="4.90779">
        <ele>298</ele>
        <time>2017-03-27T10:27:10Z</time>
      </trkpt>
      <trkpt lat="45.95182" lon="4.90772">
        <ele>298</ele>
        <time>2017-03-27T10:27:11Z</time>
      </trkpt>
      <trkpt lat="45.95183" lon="4.90765">
        <ele>298</ele>
        <time>2017-03-27T10:27:12Z</time>
      </trkpt>
      <trkpt lat="45.95184" lon="4.90758">
        <ele>298</ele>
        <time>2017-03-27T10:27:13Z</time>
      </trkpt>
      <trkpt lat="45.95185" lon="4.90749">
        <ele>297</ele>
        <time>2017-03-27T10:27:14Z</time>
      </trkpt>
      <trkpt lat="45.95186" lon="4.90741">
        <ele>297</ele>
        <time>2017-03-27T10:27:15Z</time>
      </trkpt>
      <trkpt lat="45.95187" lon="4.90733">
        <ele>297</ele>
        <time>2017-03-27T10:27:16Z</time>
      </trkpt>
      <trkpt lat="45.95188" lon="4.90726">
        <ele>297</ele>
        <time>2017-03-27T10:27:17Z</time>
      </trkpt>
      <trkpt lat="45.95189" lon="4.90719">
        <ele>297</ele>
        <time>2017-03-27T10:27:18Z</time>
      </trkpt>
      <trkpt lat="45.95189" lon="4.90712">
        <ele>297</ele>
        <time>2017-03-27T10:27:19Z</time>
      </trkpt>
      <trkpt lat="45.9519" lon="4.90705">
        <ele>297</ele>
        <time>2017-03-27T10:27:20Z</time>
      </trkpt>
      <trkpt lat="45.95191" lon="4.90698">
        <ele>297</ele>
        <time>2017-03-27T10:27:21Z</time>
      </trkpt>
      <trkpt lat="45.95191" lon="4.90691">
        <ele>297</ele>
        <time>2017-03-27T10:27:22Z</time>
      </trkpt>
      <trkpt lat="45.95191" lon="4.90684">
        <ele>297</ele>
        <time>2017-03-27T10:27:23Z</time>
      </trkpt>
      <trkpt lat="45.95192" lon="4.90676">
        <ele>297</ele>
        <time>2017-03-27T10:27:24Z</time>
      </trkpt>
      <trkpt lat="45.95192" lon="4.90668">
        <ele>297</ele>
        <time>2017-03-27T10:27:25Z</time>
      </trkpt>
      <trkpt lat="45.95192" lon="4.9066">
        <ele>296</ele>
        <time>2017-03-27T10:27:26Z</time>
      </trkpt>
      <trkpt lat="45.95193" lon="4.90651">
        <ele>296</ele>
        <time>2017-03-27T10:27:27Z</time>
      </trkpt>
      <trkpt lat="45.95193" lon="4.90643">
        <ele>296</ele>
        <time>2017-03-27T10:27:28Z</time>
      </trkpt>
      <trkpt lat="45.95194" lon="4.90635">
        <ele>296</ele>
        <time>2017-03-27T10:27:29Z</time>
      </trkpt>
      <trkpt lat="45.95195" lon="4.90626">
        <ele>295</ele>
        <time>2017-03-27T10:27:30Z</time>
      </trkpt>
      <trkpt lat="45.95196" lon="4.90618">
        <ele>295</ele>
        <time>2017-03-27T10:27:31Z</time>
      </trkpt>
      <trkpt lat="45.95196" lon="4.9061">
        <ele>295</ele>
        <time>2017-03-27T10:27:32Z</time>
      </trkpt>
      <trkpt lat="45.95196" lon="4.90602">
        <ele>295</ele>
        <time>2017-03-27T10:27:33Z</time>
      </trkpt>
      <trkpt lat="45.95196" lon="4.90594">
        <ele>295</ele>
        <time>2017-03-27T10:27:34Z</time>
      </trkpt>
      <trkpt lat="45.95196" lon="4.90586">
        <ele>295</ele>
        <time>2017-03-27T10:27:35Z</time>
      </trkpt>
      <trkpt lat="45.95196" lon="4.90579">
        <ele>293</ele>
        <time>2017-03-27T10:27:36Z</time>
      </trkpt>
      <trkpt lat="45.95197" lon="4.90572">
        <ele>293</ele>
        <time>2017-03-27T10:27:37Z</time>
      </trkpt>
      <trkpt lat="45.95198" lon="4.90565">
        <ele>293</ele>
        <time>2017-03-27T10:27:38Z</time>
      </trkpt>
      <trkpt lat="45.952" lon="4.90557">
        <ele>293</ele>
        <time>2017-03-27T10:27:39Z</time>
      </trkpt>
      <trkpt lat="45.95201" lon="4.90549">
        <ele>293</ele>
        <time>2017-03-27T10:27:40Z</time>
      </trkpt>
      <trkpt lat="45.95202" lon="4.90541">
        <ele>293</ele>
        <time>2017-03-27T10:27:41Z</time>
      </trkpt>
      <trkpt lat="45.95201" lon="4.90534">
        <ele>293</ele>
        <time>2017-03-27T10:27:42Z</time>
      </trkpt>
      <trkpt lat="45.952" lon="4.90526">
        <ele>292</ele>
        <time>2017-03-27T10:27:43Z</time>
      </trkpt>
      <trkpt lat="45.952" lon="4.90518">
        <ele>292</ele>
        <time>2017-03-27T10:27:44Z</time>
      </trkpt>
      <trkpt lat="45.952" lon="4.9051">
        <ele>292</ele>
        <time>2017-03-27T10:27:45Z</time>
      </trkpt>
      <trkpt lat="45.95199" lon="4.90503">
        <ele>292</ele>
        <time>2017-03-27T10:27:46Z</time>
      </trkpt>
      <trkpt lat="45.95198" lon="4.90495">
        <ele>290</ele>
        <time>2017-03-27T10:27:47Z</time>
      </trkpt>
      <trkpt lat="45.95198" lon="4.90488">
        <ele>290</ele>
        <time>2017-03-27T10:27:48Z</time>
      </trkpt>
      <trkpt lat="45.95198" lon="4.90481">
        <ele>290</ele>
        <time>2017-03-27T10:27:49Z</time>
      </trkpt>
      <trkpt lat="45.95198" lon="4.90473">
        <ele>290</ele>
        <time>2017-03-27T10:27:50Z</time>
      </trkpt>
      <trkpt lat="45.95198" lon="4.90465">
        <ele>290</ele>
        <time>2017-03-27T10:27:51Z</time>
      </trkpt>
      <trkpt lat="45.95198" lon="4.90457">
        <ele>290</ele>
        <time>2017-03-27T10:27:52Z</time>
      </trkpt>
      <trkpt lat="45.95198" lon="4.90448">
        <ele>290</ele>
        <time>2017-03-27T10:27:53Z</time>
      </trkpt>
      <trkpt lat="45.95197" lon="4.90439">
        <ele>290</ele>
        <time>2017-03-27T10:27:54Z</time>
      </trkpt>
      <trkpt lat="45.95197" lon="4.9043">
        <ele>289</ele>
        <time>2017-03-27T10:27:55Z</time>
      </trkpt>
      <trkpt lat="45.95197" lon="4.90421">
        <ele>289</ele>
        <time>2017-03-27T10:27:56Z</time>
      </trkpt>
      <trkpt lat="45.95197" lon="4.90411">
        <ele>288</ele>
        <time>2017-03-27T10:27:57Z</time>
      </trkpt>
      <trkpt lat="45.95197" lon="4.90402">
        <ele>288</ele>
        <time>2017-03-27T10:27:58Z</time>
      </trkpt>
      <trkpt lat="45.95198" lon="4.90393">
        <ele>288</ele>
        <time>2017-03-27T10:27:59Z</time>
      </trkpt>
      <trkpt lat="45.95199" lon="4.90385">
        <ele>288</ele>
        <time>2017-03-27T10:28:00Z</time>
      </trkpt>
      <trkpt lat="45.952" lon="4.90376">
        <ele>288</ele>
        <time>2017-03-27T10:28:01Z</time>
      </trkpt>
      <trkpt lat="45.95201" lon="4.90367">
        <ele>288</ele>
        <time>2017-03-27T10:28:02Z</time>
      </trkpt>
      <trkpt lat="45.95202" lon="4.90358">
        <ele>288</ele>
        <time>2017-03-27T10:28:03Z</time>
      </trkpt>
      <trkpt lat="45.95205" lon="4.90349">
        <ele>288</ele>
        <time>2017-03-27T10:28:04Z</time>
      </trkpt>
      <trkpt lat="45.95207" lon="4.90341">
        <ele>288</ele>
        <time>2017-03-27T10:28:05Z</time>
      </trkpt>
      <trkpt lat="45.9521" lon="4.90333">
        <ele>287</ele>
        <time>2017-03-27T10:28:06Z</time>
      </trkpt>
      <trkpt lat="45.95212" lon="4.90325">
        <ele>287</ele>
        <time>2017-03-27T10:28:07Z</time>
      </trkpt>
      <trkpt lat="45.95214" lon="4.90317">
        <ele>287</ele>
        <time>2017-03-27T10:28:08Z</time>
      </trkpt>
      <trkpt lat="45.95215" lon="4.90309">
        <ele>287</ele>
        <time>2017-03-27T10:28:09Z</time>
      </trkpt>
      <trkpt lat="45.95217" lon="4.90302">
        <ele>287</ele>
        <time>2017-03-27T10:28:10Z</time>
      </trkpt>
      <trkpt lat="45.95218" lon="4.90294">
        <ele>287</ele>
        <time>2017-03-27T10:28:11Z</time>
      </trkpt>
      <trkpt lat="45.95219" lon="4.90286">
        <ele>287</ele>
        <time>2017-03-27T10:28:12Z</time>
      </trkpt>
      <trkpt lat="45.9522" lon="4.90278">
        <ele>287</ele>
        <time>2017-03-27T10:28:13Z</time>
      </trkpt>
      <trkpt lat="45.95222" lon="4.9027">
        <ele>287</ele>
        <time>2017-03-27T10:28:14Z</time>
      </trkpt>
      <trkpt lat="45.95222" lon="4.90262">
        <ele>287</ele>
        <time>2017-03-27T10:28:15Z</time>
      </trkpt>
      <trkpt lat="45.95221" lon="4.90254">
        <ele>287</ele>
        <time>2017-03-27T10:28:16Z</time>
      </trkpt>
      <trkpt lat="45.9522" lon="4.90245">
        <ele>286</ele>
        <time>2017-03-27T10:28:17Z</time>
      </trkpt>
      <trkpt lat="45.95219" lon="4.90237">
        <ele>286</ele>
        <time>2017-03-27T10:28:18Z</time>
      </trkpt>
      <trkpt lat="45.95218" lon="4.90229">
        <ele>286</ele>
        <time>2017-03-27T10:28:19Z</time>
      </trkpt>
      <trkpt lat="45.95217" lon="4.90221">
        <ele>286</ele>
        <time>2017-03-27T10:28:20Z</time>
      </trkpt>
      <trkpt lat="45.95216" lon="4.90212">
        <ele>286</ele>
        <time>2017-03-27T10:28:21Z</time>
      </trkpt>
      <trkpt lat="45.95215" lon="4.90205">
        <ele>286</ele>
        <time>2017-03-27T10:28:22Z</time>
      </trkpt>
      <trkpt lat="45.95213" lon="4.90197">
        <ele>286</ele>
        <time>2017-03-27T10:28:23Z</time>
      </trkpt>
      <trkpt lat="45.95211" lon="4.9019">
        <ele>286</ele>
        <time>2017-03-27T10:28:24Z</time>
      </trkpt>
      <trkpt lat="45.9521" lon="4.90183">
        <ele>286</ele>
        <time>2017-03-27T10:28:25Z</time>
      </trkpt>
      <trkpt lat="45.95208" lon="4.90176">
        <ele>287</ele>
        <time>2017-03-27T10:28:26Z</time>
      </trkpt>
      <trkpt lat="45.95204" lon="4.9017">
        <ele>287</ele>
        <time>2017-03-27T10:28:27Z</time>
      </trkpt>
      <trkpt lat="45.952" lon="4.90165">
        <ele>287</ele>
        <time>2017-03-27T10:28:28Z</time>
      </trkpt>
      <trkpt lat="45.95194" lon="4.90164">
        <ele>287</ele>
        <time>2017-03-27T10:28:29Z</time>
      </trkpt>
      <trkpt lat="45.95189" lon="4.90164">
        <ele>287</ele>
        <time>2017-03-27T10:28:30Z</time>
      </trkpt>
      <trkpt lat="45.95183" lon="4.90165">
        <ele>287</ele>
        <time>2017-03-27T10:28:31Z</time>
      </trkpt>
      <trkpt lat="45.95177" lon="4.90167">
        <ele>287</ele>
        <time>2017-03-27T10:28:32Z</time>
      </trkpt>
      <trkpt lat="45.95172" lon="4.90168">
        <ele>287</ele>
        <time>2017-03-27T10:28:33Z</time>
      </trkpt>
      <trkpt lat="45.95166" lon="4.90169">
        <ele>287</ele>
        <time>2017-03-27T10:28:34Z</time>
      </trkpt>
      <trkpt lat="45.9516" lon="4.9017">
        <ele>287</ele>
        <time>2017-03-27T10:28:35Z</time>
      </trkpt>
      <trkpt lat="45.95154" lon="4.9017">
        <ele>287</ele>
        <time>2017-03-27T10:28:36Z</time>
      </trkpt>
      <trkpt lat="45.95148" lon="4.90169">
        <ele>287</ele>
        <time>2017-03-27T10:28:37Z</time>
      </trkpt>
      <trkpt lat="45.95141" lon="4.90167">
        <ele>287</ele>
        <time>2017-03-27T10:28:38Z</time>
      </trkpt>
      <trkpt lat="45.95135" lon="4.90164">
        <ele>286</ele>
        <time>2017-03-27T10:28:39Z</time>
      </trkpt>
      <trkpt lat="45.95129" lon="4.9016">
        <ele>286</ele>
        <time>2017-03-27T10:28:40Z</time>
      </trkpt>
      <trkpt lat="45.95124" lon="4.90156">
        <ele>286</ele>
        <time>2017-03-27T10:28:41Z</time>
      </trkpt>
      <trkpt lat="45.95118" lon="4.90152">
        <ele>286</ele>
        <time>2017-03-27T10:28:42Z</time>
      </trkpt>
      <trkpt lat="45.95113" lon="4.90148">
        <ele>286</ele>
        <time>2017-03-27T10:28:43Z</time>
      </trkpt>
      <trkpt lat="45.95108" lon="4.90143">
        <ele>286</ele>
        <time>2017-03-27T10:28:44Z</time>
      </trkpt>
      <trkpt lat="45.95104" lon="4.90138">
        <ele>286</ele>
        <time>2017-03-27T10:28:45Z</time>
      </trkpt>
      <trkpt lat="45.95099" lon="4.90133">
        <ele>286</ele>
        <time>2017-03-27T10:28:46Z</time>
      </trkpt>
      <trkpt lat="45.95095" lon="4.90128">
        <ele>286</ele>
        <time>2017-03-27T10:28:47Z</time>
      </trkpt>
      <trkpt lat="45.9509" lon="4.90123">
        <ele>286</ele>
        <time>2017-03-27T10:28:48Z</time>
      </trkpt>
      <trkpt lat="45.95086" lon="4.90117">
        <ele>286</ele>
        <time>2017-03-27T10:28:49Z</time>
      </trkpt>
      <trkpt lat="45.95082" lon="4.90112">
        <ele>285</ele>
        <time>2017-03-27T10:28:50Z</time>
      </trkpt>
      <trkpt lat="45.95078" lon="4.90107">
        <ele>285</ele>
        <time>2017-03-27T10:28:51Z</time>
      </trkpt>
      <trkpt lat="45.95074" lon="4.90101">
        <ele>285</ele>
        <time>2017-03-27T10:28:52Z</time>
      </trkpt>
      <trkpt lat="45.9507" lon="4.90096">
        <ele>285</ele>
        <time>2017-03-27T10:28:53Z</time>
      </trkpt>
      <trkpt lat="45.95065" lon="4.9009">
        <ele>285</ele>
        <time>2017-03-27T10:28:54Z</time>
      </trkpt>
      <trkpt lat="45.95061" lon="4.90084">
        <ele>285</ele>
        <time>2017-03-27T10:28:55Z</time>
      </trkpt>
      <trkpt lat="45.95057" lon="4.90079">
        <ele>285</ele>
        <time>2017-03-27T10:28:56Z</time>
      </trkpt>
      <trkpt lat="45.95053" lon="4.90073">
        <ele>285</ele>
        <time>2017-03-27T10:28:57Z</time>
      </trkpt>
      <trkpt lat="45.95048" lon="4.90066">
        <ele>285</ele>
        <time>2017-03-27T10:28:58Z</time>
      </trkpt>
      <trkpt lat="45.95044" lon="4.9006">
        <ele>285</ele>
        <time>2017-03-27T10:28:59Z</time>
      </trkpt>
      <trkpt lat="45.9504" lon="4.90055">
        <ele>285</ele>
        <time>2017-03-27T10:29:00Z</time>
      </trkpt>
      <trkpt lat="45.95036" lon="4.90049">
        <ele>285</ele>
        <time>2017-03-27T10:29:01Z</time>
      </trkpt>
      <trkpt lat="45.95032" lon="4.90043">
        <ele>284</ele>
        <time>2017-03-27T10:29:02Z</time>
      </trkpt>
      <trkpt lat="45.95028" lon="4.90037">
        <ele>284</ele>
        <time>2017-03-27T10:29:03Z</time>
      </trkpt>
      <trkpt lat="45.95024" lon="4.90031">
        <ele>284</ele>
        <time>2017-03-27T10:29:04Z</time>
      </trkpt>
      <trkpt lat="45.95021" lon="4.90025">
        <ele>284</ele>
        <time>2017-03-27T10:29:05Z</time>
      </trkpt>
      <trkpt lat="45.95018" lon="4.90019">
        <ele>284</ele>
        <time>2017-03-27T10:29:06Z</time>
      </trkpt>
      <trkpt lat="45.95015" lon="4.90014">
        <ele>284</ele>
        <time>2017-03-27T10:29:07Z</time>
      </trkpt>
      <trkpt lat="45.95011" lon="4.90008">
        <ele>284</ele>
        <time>2017-03-27T10:29:08Z</time>
      </trkpt>
      <trkpt lat="45.95007" lon="4.90001">
        <ele>283</ele>
        <time>2017-03-27T10:29:09Z</time>
      </trkpt>
      <trkpt lat="45.95004" lon="4.89995">
        <ele>283</ele>
        <time>2017-03-27T10:29:10Z</time>
      </trkpt>
      <trkpt lat="45.95001" lon="4.89988">
        <ele>283</ele>
        <time>2017-03-27T10:29:11Z</time>
      </trkpt>
      <trkpt lat="45.94996" lon="4.89981">
        <ele>283</ele>
        <time>2017-03-27T10:29:12Z</time>
      </trkpt>
      <trkpt lat="45.94993" lon="4.89975">
        <ele>284</ele>
        <time>2017-03-27T10:29:13Z</time>
      </trkpt>
      <trkpt lat="45.94989" lon="4.89968">
        <ele>284</ele>
        <time>2017-03-27T10:29:14Z</time>
      </trkpt>
      <trkpt lat="45.94985" lon="4.89962">
        <ele>284</ele>
        <time>2017-03-27T10:29:15Z</time>
      </trkpt>
      <trkpt lat="45.94982" lon="4.89956">
        <ele>284</ele>
        <time>2017-03-27T10:29:16Z</time>
      </trkpt>
      <trkpt lat="45.94978" lon="4.8995">
        <ele>284</ele>
        <time>2017-03-27T10:29:17Z</time>
      </trkpt>
      <trkpt lat="45.94975" lon="4.89945">
        <ele>284</ele>
        <time>2017-03-27T10:29:18Z</time>
      </trkpt>
      <trkpt lat="45.94971" lon="4.8994">
        <ele>284</ele>
        <time>2017-03-27T10:29:19Z</time>
      </trkpt>
      <trkpt lat="45.94968" lon="4.89936">
        <ele>284</ele>
        <time>2017-03-27T10:29:20Z</time>
      </trkpt>
      <trkpt lat="45.94965" lon="4.89931">
        <ele>284</ele>
        <time>2017-03-27T10:29:21Z</time>
      </trkpt>
      <trkpt lat="45.94961" lon="4.89927">
        <ele>284</ele>
        <time>2017-03-27T10:29:22Z</time>
      </trkpt>
      <trkpt lat="45.94958" lon="4.89922">
        <ele>284</ele>
        <time>2017-03-27T10:29:23Z</time>
      </trkpt>
      <trkpt lat="45.94954" lon="4.89918">
        <ele>284</ele>
        <time>2017-03-27T10:29:24Z</time>
      </trkpt>
      <trkpt lat="45.9495" lon="4.89913">
        <ele>284</ele>
        <time>2017-03-27T10:29:25Z</time>
      </trkpt>
      <trkpt lat="45.94946" lon="4.89908">
        <ele>284</ele>
        <time>2017-03-27T10:29:26Z</time>
      </trkpt>
      <trkpt lat="45.94943" lon="4.89902">
        <ele>284</ele>
        <time>2017-03-27T10:29:27Z</time>
      </trkpt>
      <trkpt lat="45.94939" lon="4.89896">
        <ele>284</ele>
        <time>2017-03-27T10:29:28Z</time>
      </trkpt>
      <trkpt lat="45.94936" lon="4.8989">
        <ele>284</ele>
        <time>2017-03-27T10:29:29Z</time>
      </trkpt>
      <trkpt lat="45.94933" lon="4.89884">
        <ele>284</ele>
        <time>2017-03-27T10:29:30Z</time>
      </trkpt>
      <trkpt lat="45.94931" lon="4.89877">
        <ele>284</ele>
        <time>2017-03-27T10:29:31Z</time>
      </trkpt>
      <trkpt lat="45.94929" lon="4.89871">
        <ele>284</ele>
        <time>2017-03-27T10:29:32Z</time>
      </trkpt>
      <trkpt lat="45.94927" lon="4.89864">
        <ele>284</ele>
        <time>2017-03-27T10:29:33Z</time>
      </trkpt>
      <trkpt lat="45.94926" lon="4.89857">
        <ele>284</ele>
        <time>2017-03-27T10:29:34Z</time>
      </trkpt>
      <trkpt lat="45.94925" lon="4.8985">
        <ele>284</ele>
        <time>2017-03-27T10:29:35Z</time>
      </trkpt>
      <trkpt lat="45.94925" lon="4.89843">
        <ele>284</ele>
        <time>2017-03-27T10:29:36Z</time>
      </trkpt>
      <trkpt lat="45.94925" lon="4.89834">
        <ele>284</ele>
        <time>2017-03-27T10:29:37Z</time>
      </trkpt>
      <trkpt lat="45.94925" lon="4.89826">
        <ele>284</ele>
        <time>2017-03-27T10:29:38Z</time>
      </trkpt>
      <trkpt lat="45.94926" lon="4.89818">
        <ele>284</ele>
        <time>2017-03-27T10:29:39Z</time>
      </trkpt>
      <trkpt lat="45.94926" lon="4.8981">
        <ele>284</ele>
        <time>2017-03-27T10:29:40Z</time>
      </trkpt>
      <trkpt lat="45.94927" lon="4.89802">
        <ele>284</ele>
        <time>2017-03-27T10:29:41Z</time>
      </trkpt>
      <trkpt lat="45.94928" lon="4.89794">
        <ele>284</ele>
        <time>2017-03-27T10:29:42Z</time>
      </trkpt>
      <trkpt lat="45.94929" lon="4.89787">
        <ele>284</ele>
        <time>2017-03-27T10:29:43Z</time>
      </trkpt>
      <trkpt lat="45.94931" lon="4.8978">
        <ele>284</ele>
        <time>2017-03-27T10:29:44Z</time>
      </trkpt>
      <trkpt lat="45.94933" lon="4.89772">
        <ele>284</ele>
        <time>2017-03-27T10:29:45Z</time>
      </trkpt>
      <trkpt lat="45.94935" lon="4.89765">
        <ele>284</ele>
        <time>2017-03-27T10:29:46Z</time>
      </trkpt>
      <trkpt lat="45.94937" lon="4.89758">
        <ele>284</ele>
        <time>2017-03-27T10:29:47Z</time>
      </trkpt>
      <trkpt lat="45.94939" lon="4.89751">
        <ele>284</ele>
        <time>2017-03-27T10:29:48Z</time>
      </trkpt>
      <trkpt lat="45.9494" lon="4.89744">
        <ele>284</ele>
        <time>2017-03-27T10:29:49Z</time>
      </trkpt>
      <trkpt lat="45.94942" lon="4.89737">
        <ele>284</ele>
        <time>2017-03-27T10:29:50Z</time>
      </trkpt>
      <trkpt lat="45.94944" lon="4.89729">
        <ele>284</ele>
        <time>2017-03-27T10:29:51Z</time>
      </trkpt>
      <trkpt lat="45.94946" lon="4.89721">
        <ele>284</ele>
        <time>2017-03-27T10:29:52Z</time>
      </trkpt>
      <trkpt lat="45.94949" lon="4.89714">
        <ele>284</ele>
        <time>2017-03-27T10:29:53Z</time>
      </trkpt>
      <trkpt lat="45.94951" lon="4.89706">
        <ele>284</ele>
        <time>2017-03-27T10:29:54Z</time>
      </trkpt>
      <trkpt lat="45.94954" lon="4.89699">
        <ele>284</ele>
        <time>2017-03-27T10:29:55Z</time>
      </trkpt>
      <trkpt lat="45.94956" lon="4.89691">
        <ele>284</ele>
        <time>2017-03-27T10:29:56Z</time>
      </trkpt>
      <trkpt lat="45.94959" lon="4.89684">
        <ele>284</ele>
        <time>2017-03-27T10:29:57Z</time>
      </trkpt>
      <trkpt lat="45.94961" lon="4.89677">
        <ele>284</ele>
        <time>2017-03-27T10:29:58Z</time>
      </trkpt>
      <trkpt lat="45.94963" lon="4.8967">
        <ele>284</ele>
        <time>2017-03-27T10:29:59Z</time>
      </trkpt>
      <trkpt lat="45.94966" lon="4.89662">
        <ele>285</ele>
        <time>2017-03-27T10:30:00Z</time>
      </trkpt>
      <trkpt lat="45.94969" lon="4.89654">
        <ele>285</ele>
        <time>2017-03-27T10:30:01Z</time>
      </trkpt>
      <trkpt lat="45.94971" lon="4.89646">
        <ele>285</ele>
        <time>2017-03-27T10:30:02Z</time>
      </trkpt>
      <trkpt lat="45.94974" lon="4.89638">
        <ele>285</ele>
        <time>2017-03-27T10:30:03Z</time>
      </trkpt>
      <trkpt lat="45.94977" lon="4.89629">
        <ele>285</ele>
        <time>2017-03-27T10:30:04Z</time>
      </trkpt>
      <trkpt lat="45.94979" lon="4.8962">
        <ele>285</ele>
        <time>2017-03-27T10:30:05Z</time>
      </trkpt>
      <trkpt lat="45.94982" lon="4.89611">
        <ele>285</ele>
        <time>2017-03-27T10:30:06Z</time>
      </trkpt>
      <trkpt lat="45.94984" lon="4.89602">
        <ele>284</ele>
        <time>2017-03-27T10:30:07Z</time>
      </trkpt>
      <trkpt lat="45.94986" lon="4.89594">
        <ele>284</ele>
        <time>2017-03-27T10:30:08Z</time>
      </trkpt>
      <trkpt lat="45.94988" lon="4.89585">
        <ele>284</ele>
        <time>2017-03-27T10:30:09Z</time>
      </trkpt>
      <trkpt lat="45.9499" lon="4.89577">
        <ele>284</ele>
        <time>2017-03-27T10:30:10Z</time>
      </trkpt>
      <trkpt lat="45.94992" lon="4.89569">
        <ele>284</ele>
        <time>2017-03-27T10:30:11Z</time>
      </trkpt>
      <trkpt lat="45.94994" lon="4.89561">
        <ele>284</ele>
        <time>2017-03-27T10:30:12Z</time>
      </trkpt>
      <trkpt lat="45.94997" lon="4.89552">
        <ele>284</ele>
        <time>2017-03-27T10:30:13Z</time>
      </trkpt>
      <trkpt lat="45.94999" lon="4.89544">
        <ele>284</ele>
        <time>2017-03-27T10:30:14Z</time>
      </trkpt>
      <trkpt lat="45.95002" lon="4.89536">
        <ele>283</ele>
        <time>2017-03-27T10:30:15Z</time>
      </trkpt>
      <trkpt lat="45.95006" lon="4.89529">
        <ele>283</ele>
        <time>2017-03-27T10:30:16Z</time>
      </trkpt>
      <trkpt lat="45.9501" lon="4.89522">
        <ele>283</ele>
        <time>2017-03-27T10:30:17Z</time>
      </trkpt>
      <trkpt lat="45.95015" lon="4.89518">
        <ele>283</ele>
        <time>2017-03-27T10:30:18Z</time>
      </trkpt>
      <trkpt lat="45.9502" lon="4.89513">
        <ele>283</ele>
        <time>2017-03-27T10:30:19Z</time>
      </trkpt>
      <trkpt lat="45.95027" lon="4.89511">
        <ele>283</ele>
        <time>2017-03-27T10:30:20Z</time>
      </trkpt>
      <trkpt lat="45.95033" lon="4.89509">
        <ele>283</ele>
        <time>2017-03-27T10:30:21Z</time>
      </trkpt>
      <trkpt lat="45.9504" lon="4.89507">
        <ele>283</ele>
        <time>2017-03-27T10:30:22Z</time>
      </trkpt>
      <trkpt lat="45.95047" lon="4.89506">
        <ele>283</ele>
        <time>2017-03-27T10:30:23Z</time>
      </trkpt>
      <trkpt lat="45.95053" lon="4.89504">
        <ele>283</ele>
        <time>2017-03-27T10:30:24Z</time>
      </trkpt>
      <trkpt lat="45.95059" lon="4.89503">
        <ele>282</ele>
        <time>2017-03-27T10:30:25Z</time>
      </trkpt>
      <trkpt lat="45.95065" lon="4.89501">
        <ele>282</ele>
        <time>2017-03-27T10:30:26Z</time>
      </trkpt>
      <trkpt lat="45.95072" lon="4.89498">
        <ele>282</ele>
        <time>2017-03-27T10:30:27Z</time>
      </trkpt>
      <trkpt lat="45.95078" lon="4.89493">
        <ele>282</ele>
        <time>2017-03-27T10:30:28Z</time>
      </trkpt>
      <trkpt lat="45.95083" lon="4.89486">
        <ele>282</ele>
        <time>2017-03-27T10:30:29Z</time>
      </trkpt>
      <trkpt lat="45.95086" lon="4.89478">
        <ele>282</ele>
        <time>2017-03-27T10:30:30Z</time>
      </trkpt>
      <trkpt lat="45.95087" lon="4.8947">
        <ele>282</ele>
        <time>2017-03-27T10:30:31Z</time>
      </trkpt>
      <trkpt lat="45.95086" lon="4.89463">
        <ele>282</ele>
        <time>2017-03-27T10:30:32Z</time>
      </trkpt>
      <trkpt lat="45.95084" lon="4.89456">
        <ele>282</ele>
        <time>2017-03-27T10:30:33Z</time>
      </trkpt>
      <trkpt lat="45.95082" lon="4.89449">
        <ele>282</ele>
        <time>2017-03-27T10:30:34Z</time>
      </trkpt>
      <trkpt lat="45.95081" lon="4.89442">
        <ele>282</ele>
        <time>2017-03-27T10:30:35Z</time>
      </trkpt>
      <trkpt lat="45.9508" lon="4.89434">
        <ele>282</ele>
        <time>2017-03-27T10:30:36Z</time>
      </trkpt>
      <trkpt lat="45.95079" lon="4.89426">
        <ele>282</ele>
        <time>2017-03-27T10:30:37Z</time>
      </trkpt>
      <trkpt lat="45.95079" lon="4.89418">
        <ele>282</ele>
        <time>2017-03-27T10:30:38Z</time>
      </trkpt>
      <trkpt lat="45.95078" lon="4.89409">
        <ele>282</ele>
        <time>2017-03-27T10:30:39Z</time>
      </trkpt>
      <trkpt lat="45.95077" lon="4.894">
        <ele>283</ele>
        <time>2017-03-27T10:30:40Z</time>
      </trkpt>
      <trkpt lat="45.95076" lon="4.89392">
        <ele>283</ele>
        <time>2017-03-27T10:30:41Z</time>
      </trkpt>
      <trkpt lat="45.95075" lon="4.89383">
        <ele>283</ele>
        <time>2017-03-27T10:30:42Z</time>
      </trkpt>
      <trkpt lat="45.95075" lon="4.89374">
        <ele>283</ele>
        <time>2017-03-27T10:30:43Z</time>
      </trkpt>
      <trkpt lat="45.95074" lon="4.89365">
        <ele>283</ele>
        <time>2017-03-27T10:30:44Z</time>
      </trkpt>
      <trkpt lat="45.95073" lon="4.89357">
        <ele>283</ele>
        <time>2017-03-27T10:30:45Z</time>
      </trkpt>
      <trkpt lat="45.95072" lon="4.89349">
        <ele>283</ele>
        <time>2017-03-27T10:30:46Z</time>
      </trkpt>
      <trkpt lat="45.95071" lon="4.89341">
        <ele>283</ele>
        <time>2017-03-27T10:30:47Z</time>
      </trkpt>
      <trkpt lat="45.95071" lon="4.89334">
        <ele>283</ele>
        <time>2017-03-27T10:30:48Z</time>
      </trkpt>
      <trkpt lat="45.95072" lon="4.89326">
        <ele>283</ele>
        <time>2017-03-27T10:30:49Z</time>
      </trkpt>
      <trkpt lat="45.95072" lon="4.89319">
        <ele>283</ele>
        <time>2017-03-27T10:30:50Z</time>
      </trkpt>
      <trkpt lat="45.95073" lon="4.89313">
        <ele>283</ele>
        <time>2017-03-27T10:30:51Z</time>
      </trkpt>
      <trkpt lat="45.95074" lon="4.89306">
        <ele>283</ele>
        <time>2017-03-27T10:30:52Z</time>
      </trkpt>
      <trkpt lat="45.95074" lon="4.89299">
        <ele>283</ele>
        <time>2017-03-27T10:30:53Z</time>
      </trkpt>
      <trkpt lat="45.95074" lon="4.89291">
        <ele>283</ele>
        <time>2017-03-27T10:30:54Z</time>
      </trkpt>
      <trkpt lat="45.95074" lon="4.89284">
        <ele>283</ele>
        <time>2017-03-27T10:30:55Z</time>
      </trkpt>
      <trkpt lat="45.95074" lon="4.89277">
        <ele>283</ele>
        <time>2017-03-27T10:30:56Z</time>
      </trkpt>
      <trkpt lat="45.95074" lon="4.89269">
        <ele>283</ele>
        <time>2017-03-27T10:30:57Z</time>
      </trkpt>
      <trkpt lat="45.95075" lon="4.89262">
        <ele>283</ele>
        <time>2017-03-27T10:30:58Z</time>
      </trkpt>
      <trkpt lat="45.95075" lon="4.89254">
        <ele>283</ele>
        <time>2017-03-27T10:30:59Z</time>
      </trkpt>
      <trkpt lat="45.95076" lon="4.89247">
        <ele>283</ele>
        <time>2017-03-27T10:31:00Z</time>
      </trkpt>
      <trkpt lat="45.95076" lon="4.89239">
        <ele>283</ele>
        <time>2017-03-27T10:31:01Z</time>
      </trkpt>
      <trkpt lat="45.95076" lon="4.89231">
        <ele>284</ele>
        <time>2017-03-27T10:31:02Z</time>
      </trkpt>
      <trkpt lat="45.95076" lon="4.89223">
        <ele>284</ele>
        <time>2017-03-27T10:31:03Z</time>
      </trkpt>
      <trkpt lat="45.95077" lon="4.89215">
        <ele>284</ele>
        <time>2017-03-27T10:31:04Z</time>
      </trkpt>
      <trkpt lat="45.95077" lon="4.89207">
        <ele>284</ele>
        <time>2017-03-27T10:31:05Z</time>
      </trkpt>
      <trkpt lat="45.95078" lon="4.892">
        <ele>284</ele>
        <time>2017-03-27T10:31:06Z</time>
      </trkpt>
      <trkpt lat="45.95078" lon="4.89192">
        <ele>284</ele>
        <time>2017-03-27T10:31:07Z</time>
      </trkpt>
      <trkpt lat="45.95079" lon="4.89184">
        <ele>284</ele>
        <time>2017-03-27T10:31:08Z</time>
      </trkpt>
      <trkpt lat="45.95079" lon="4.89176">
        <ele>284</ele>
        <time>2017-03-27T10:31:09Z</time>
      </trkpt>
      <trkpt lat="45.95079" lon="4.89168">
        <ele>284</ele>
        <time>2017-03-27T10:31:10Z</time>
      </trkpt>
      <trkpt lat="45.9508" lon="4.89159">
        <ele>284</ele>
        <time>2017-03-27T10:31:11Z</time>
      </trkpt>
      <trkpt lat="45.95081" lon="4.8915">
        <ele>284</ele>
        <time>2017-03-27T10:31:12Z</time>
      </trkpt>
      <trkpt lat="45.95081" lon="4.89142">
        <ele>285</ele>
        <time>2017-03-27T10:31:13Z</time>
      </trkpt>
      <trkpt lat="45.95082" lon="4.89133">
        <ele>285</ele>
        <time>2017-03-27T10:31:14Z</time>
      </trkpt>
      <trkpt lat="45.95084" lon="4.89124">
        <ele>283</ele>
        <time>2017-03-27T10:31:15Z</time>
      </trkpt>
      <trkpt lat="45.95085" lon="4.89116">
        <ele>283</ele>
        <time>2017-03-27T10:31:16Z</time>
      </trkpt>
      <trkpt lat="45.95087" lon="4.89108">
        <ele>283</ele>
        <time>2017-03-27T10:31:17Z</time>
      </trkpt>
      <trkpt lat="45.95087" lon="4.891">
        <ele>283</ele>
        <time>2017-03-27T10:31:18Z</time>
      </trkpt>
      <trkpt lat="45.95087" lon="4.89093">
        <ele>284</ele>
        <time>2017-03-27T10:31:19Z</time>
      </trkpt>
      <trkpt lat="45.95089" lon="4.89084">
        <ele>284</ele>
        <time>2017-03-27T10:31:20Z</time>
      </trkpt>
      <trkpt lat="45.9509" lon="4.89076">
        <ele>284</ele>
        <time>2017-03-27T10:31:21Z</time>
      </trkpt>
      <trkpt lat="45.95091" lon="4.89067">
        <ele>284</ele>
        <time>2017-03-27T10:31:22Z</time>
      </trkpt>
      <trkpt lat="45.95092" lon="4.89058">
        <ele>284</ele>
        <time>2017-03-27T10:31:23Z</time>
      </trkpt>
      <trkpt lat="45.95093" lon="4.8905">
        <ele>284</ele>
        <time>2017-03-27T10:31:24Z</time>
      </trkpt>
      <trkpt lat="45.95094" lon="4.89041">
        <ele>284</ele>
        <time>2017-03-27T10:31:25Z</time>
      </trkpt>
      <trkpt lat="45.95096" lon="4.89032">
        <ele>284</ele>
        <time>2017-03-27T10:31:26Z</time>
      </trkpt>
      <trkpt lat="45.95099" lon="4.89023">
        <ele>284</ele>
        <time>2017-03-27T10:31:27Z</time>
      </trkpt>
      <trkpt lat="45.951" lon="4.89014">
        <ele>284</ele>
        <time>2017-03-27T10:31:28Z</time>
      </trkpt>
      <trkpt lat="45.951" lon="4.89006">
        <ele>284</ele>
        <time>2017-03-27T10:31:29Z</time>
      </trkpt>
      <trkpt lat="45.95101" lon="4.88998">
        <ele>284</ele>
        <time>2017-03-27T10:31:30Z</time>
      </trkpt>
      <trkpt lat="45.95101" lon="4.88991">
        <ele>284</ele>
        <time>2017-03-27T10:31:31Z</time>
      </trkpt>
      <trkpt lat="45.95102" lon="4.88984">
        <ele>284</ele>
        <time>2017-03-27T10:31:32Z</time>
      </trkpt>
      <trkpt lat="45.95102" lon="4.88972">
        <ele>284</ele>
        <time>2017-03-27T10:31:34Z</time>
      </trkpt>
      <trkpt lat="45.95103" lon="4.88966">
        <ele>284</ele>
        <time>2017-03-27T10:31:35Z</time>
      </trkpt>
      <trkpt lat="45.95104" lon="4.88959">
        <ele>284</ele>
        <time>2017-03-27T10:31:36Z</time>
      </trkpt>
      <trkpt lat="45.95104" lon="4.88952">
        <ele>284</ele>
        <time>2017-03-27T10:31:37Z</time>
      </trkpt>
      <trkpt lat="45.95104" lon="4.88945">
        <ele>284</ele>
        <time>2017-03-27T10:31:38Z</time>
      </trkpt>
      <trkpt lat="45.95104" lon="4.88938">
        <ele>285</ele>
        <time>2017-03-27T10:31:39Z</time>
      </trkpt>
      <trkpt lat="45.95104" lon="4.88931">
        <ele>285</ele>
        <time>2017-03-27T10:31:40Z</time>
      </trkpt>
      <trkpt lat="45.95104" lon="4.88924">
        <ele>285</ele>
        <time>2017-03-27T10:31:41Z</time>
      </trkpt>
      <trkpt lat="45.95104" lon="4.88917">
        <ele>285</ele>
        <time>2017-03-27T10:31:42Z</time>
      </trkpt>
      <trkpt lat="45.95105" lon="4.88909">
        <ele>285</ele>
        <time>2017-03-27T10:31:43Z</time>
      </trkpt>
      <trkpt lat="45.95105" lon="4.88901">
        <ele>285</ele>
        <time>2017-03-27T10:31:44Z</time>
      </trkpt>
      <trkpt lat="45.95106" lon="4.88893">
        <ele>285</ele>
        <time>2017-03-27T10:31:45Z</time>
      </trkpt>
      <trkpt lat="45.95106" lon="4.88885">
        <ele>285</ele>
        <time>2017-03-27T10:31:46Z</time>
      </trkpt>
      <trkpt lat="45.95107" lon="4.88877">
        <ele>285</ele>
        <time>2017-03-27T10:31:47Z</time>
      </trkpt>
      <trkpt lat="45.95109" lon="4.88869">
        <ele>285</ele>
        <time>2017-03-27T10:31:48Z</time>
      </trkpt>
      <trkpt lat="45.95109" lon="4.88862">
        <ele>285</ele>
        <time>2017-03-27T10:31:49Z</time>
      </trkpt>
      <trkpt lat="45.9511" lon="4.88854">
        <ele>285</ele>
        <time>2017-03-27T10:31:50Z</time>
      </trkpt>
      <trkpt lat="45.95111" lon="4.88846">
        <ele>285</ele>
        <time>2017-03-27T10:31:51Z</time>
      </trkpt>
      <trkpt lat="45.95111" lon="4.88838">
        <ele>285</ele>
        <time>2017-03-27T10:31:52Z</time>
      </trkpt>
      <trkpt lat="45.95112" lon="4.88831">
        <ele>286</ele>
        <time>2017-03-27T10:31:53Z</time>
      </trkpt>
      <trkpt lat="45.95113" lon="4.88824">
        <ele>286</ele>
        <time>2017-03-27T10:31:54Z</time>
      </trkpt>
      <trkpt lat="45.95114" lon="4.88817">
        <ele>286</ele>
        <time>2017-03-27T10:31:55Z</time>
      </trkpt>
      <trkpt lat="45.95116" lon="4.8881">
        <ele>286</ele>
        <time>2017-03-27T10:31:56Z</time>
      </trkpt>
      <trkpt lat="45.95117" lon="4.88802">
        <ele>286</ele>
        <time>2017-03-27T10:31:57Z</time>
      </trkpt>
      <trkpt lat="45.95118" lon="4.88793">
        <ele>286</ele>
        <time>2017-03-27T10:31:58Z</time>
      </trkpt>
      <trkpt lat="45.95119" lon="4.88785">
        <ele>286</ele>
        <time>2017-03-27T10:31:59Z</time>
      </trkpt>
      <trkpt lat="45.95119" lon="4.88777">
        <ele>287</ele>
        <time>2017-03-27T10:32:00Z</time>
      </trkpt>
      <trkpt lat="45.9512" lon="4.8877">
        <ele>287</ele>
        <time>2017-03-27T10:32:01Z</time>
      </trkpt>
      <trkpt lat="45.95121" lon="4.88762">
        <ele>287</ele>
        <time>2017-03-27T10:32:02Z</time>
      </trkpt>
      <trkpt lat="45.95121" lon="4.88754">
        <ele>287</ele>
        <time>2017-03-27T10:32:03Z</time>
      </trkpt>
      <trkpt lat="45.95121" lon="4.88747">
        <ele>288</ele>
        <time>2017-03-27T10:32:04Z</time>
      </trkpt>
      <trkpt lat="45.95121" lon="4.88739">
        <ele>288</ele>
        <time>2017-03-27T10:32:05Z</time>
      </trkpt>
      <trkpt lat="45.95116" lon="4.88732">
        <ele>288</ele>
        <time>2017-03-27T10:32:06Z</time>
      </trkpt>
      <trkpt lat="45.95114" lon="4.88725">
        <ele>289</ele>
        <time>2017-03-27T10:32:07Z</time>
      </trkpt>
      <trkpt lat="45.95113" lon="4.88718">
        <ele>289</ele>
        <time>2017-03-27T10:32:08Z</time>
      </trkpt>
      <trkpt lat="45.95113" lon="4.88711">
        <ele>289</ele>
        <time>2017-03-27T10:32:09Z</time>
      </trkpt>
      <trkpt lat="45.95113" lon="4.88705">
        <ele>289</ele>
        <time>2017-03-27T10:32:10Z</time>
      </trkpt>
      <trkpt lat="45.95113" lon="4.88698">
        <ele>289</ele>
        <time>2017-03-27T10:32:11Z</time>
      </trkpt>
      <trkpt lat="45.95114" lon="4.88686">
        <ele>289</ele>
        <time>2017-03-27T10:32:13Z</time>
      </trkpt>
      <trkpt lat="45.95114" lon="4.88681">
        <ele>289</ele>
        <time>2017-03-27T10:32:14Z</time>
      </trkpt>
      <trkpt lat="45.95114" lon="4.8867">
        <ele>289</ele>
        <time>2017-03-27T10:32:16Z</time>
      </trkpt>
      <trkpt lat="45.95114" lon="4.88665">
        <ele>290</ele>
        <time>2017-03-27T10:32:17Z</time>
      </trkpt>
      <trkpt lat="45.95115" lon="4.88654">
        <ele>290</ele>
        <time>2017-03-27T10:32:19Z</time>
      </trkpt>
      <trkpt lat="45.95115" lon="4.88648">
        <ele>290</ele>
        <time>2017-03-27T10:32:20Z</time>
      </trkpt>
      <trkpt lat="45.95115" lon="4.88642">
        <ele>290</ele>
        <time>2017-03-27T10:32:21Z</time>
      </trkpt>
      <trkpt lat="45.95115" lon="4.88635">
        <ele>290</ele>
        <time>2017-03-27T10:32:22Z</time>
      </trkpt>
      <trkpt lat="45.95115" lon="4.88628">
        <ele>290</ele>
        <time>2017-03-27T10:32:23Z</time>
      </trkpt>
      <trkpt lat="45.95115" lon="4.88621">
        <ele>290</ele>
        <time>2017-03-27T10:32:24Z</time>
      </trkpt>
      <trkpt lat="45.95116" lon="4.88615">
        <ele>290</ele>
        <time>2017-03-27T10:32:25Z</time>
      </trkpt>
      <trkpt lat="45.95118" lon="4.88609">
        <ele>290</ele>
        <time>2017-03-27T10:32:26Z</time>
      </trkpt>
      <trkpt lat="45.95119" lon="4.88602">
        <ele>290</ele>
        <time>2017-03-27T10:32:27Z</time>
      </trkpt>
      <trkpt lat="45.9512" lon="4.88595">
        <ele>290</ele>
        <time>2017-03-27T10:32:28Z</time>
      </trkpt>
      <trkpt lat="45.95121" lon="4.88588">
        <ele>290</ele>
        <time>2017-03-27T10:32:29Z</time>
      </trkpt>
      <trkpt lat="45.95123" lon="4.88581">
        <ele>291</ele>
        <time>2017-03-27T10:32:30Z</time>
      </trkpt>
      <trkpt lat="45.95123" lon="4.88575">
        <ele>291</ele>
        <time>2017-03-27T10:32:31Z</time>
      </trkpt>
      <trkpt lat="45.95123" lon="4.88568">
        <ele>291</ele>
        <time>2017-03-27T10:32:32Z</time>
      </trkpt>
      <trkpt lat="45.95123" lon="4.88562">
        <ele>291</ele>
        <time>2017-03-27T10:32:33Z</time>
      </trkpt>
      <trkpt lat="45.95123" lon="4.88555">
        <ele>291</ele>
        <time>2017-03-27T10:32:34Z</time>
      </trkpt>
      <trkpt lat="45.95121" lon="4.88548">
        <ele>291</ele>
        <time>2017-03-27T10:32:35Z</time>
      </trkpt>
      <trkpt lat="45.9512" lon="4.88542">
        <ele>291</ele>
        <time>2017-03-27T10:32:36Z</time>
      </trkpt>
      <trkpt lat="45.95119" lon="4.88535">
        <ele>291</ele>
        <time>2017-03-27T10:32:37Z</time>
      </trkpt>
      <trkpt lat="45.95118" lon="4.88529">
        <ele>291</ele>
        <time>2017-03-27T10:32:38Z</time>
      </trkpt>
      <trkpt lat="45.95116" lon="4.88523">
        <ele>291</ele>
        <time>2017-03-27T10:32:39Z</time>
      </trkpt>
      <trkpt lat="45.95115" lon="4.88517">
        <ele>291</ele>
        <time>2017-03-27T10:32:40Z</time>
      </trkpt>
      <trkpt lat="45.95114" lon="4.8851">
        <ele>291</ele>
        <time>2017-03-27T10:32:41Z</time>
      </trkpt>
      <trkpt lat="45.95113" lon="4.88503">
        <ele>291</ele>
        <time>2017-03-27T10:32:42Z</time>
      </trkpt>
      <trkpt lat="45.95112" lon="4.88497">
        <ele>291</ele>
        <time>2017-03-27T10:32:43Z</time>
      </trkpt>
      <trkpt lat="45.9511" lon="4.8849">
        <ele>291</ele>
        <time>2017-03-27T10:32:44Z</time>
      </trkpt>
      <trkpt lat="45.95109" lon="4.88484">
        <ele>291</ele>
        <time>2017-03-27T10:32:45Z</time>
      </trkpt>
      <trkpt lat="45.95107" lon="4.88478">
        <ele>291</ele>
        <time>2017-03-27T10:32:46Z</time>
      </trkpt>
      <trkpt lat="45.95105" lon="4.88466">
        <ele>291</ele>
        <time>2017-03-27T10:32:48Z</time>
      </trkpt>
      <trkpt lat="45.95104" lon="4.8846">
        <ele>291</ele>
        <time>2017-03-27T10:32:49Z</time>
      </trkpt>
      <trkpt lat="45.95103" lon="4.88449">
        <ele>291</ele>
        <time>2017-03-27T10:32:51Z</time>
      </trkpt>
      <trkpt lat="45.95104" lon="4.88443">
        <ele>291</ele>
        <time>2017-03-27T10:32:52Z</time>
      </trkpt>
      <trkpt lat="45.95106" lon="4.88431">
        <ele>291</ele>
        <time>2017-03-27T10:32:54Z</time>
      </trkpt>
      <trkpt lat="45.95108" lon="4.88425">
        <ele>291</ele>
        <time>2017-03-27T10:32:55Z</time>
      </trkpt>
      <trkpt lat="45.95109" lon="4.88413">
        <ele>291</ele>
        <time>2017-03-27T10:32:57Z</time>
      </trkpt>
      <trkpt lat="45.9511" lon="4.88407">
        <ele>291</ele>
        <time>2017-03-27T10:32:58Z</time>
      </trkpt>
      <trkpt lat="45.95112" lon="4.88396">
        <ele>291</ele>
        <time>2017-03-27T10:33:00Z</time>
      </trkpt>
      <trkpt lat="45.95112" lon="4.88389">
        <ele>291</ele>
        <time>2017-03-27T10:33:01Z</time>
      </trkpt>
      <trkpt lat="45.95113" lon="4.88383">
        <ele>291</ele>
        <time>2017-03-27T10:33:02Z</time>
      </trkpt>
      <trkpt lat="45.95114" lon="4.88377">
        <ele>291</ele>
        <time>2017-03-27T10:33:03Z</time>
      </trkpt>
      <trkpt lat="45.95114" lon="4.8837">
        <ele>290</ele>
        <time>2017-03-27T10:33:04Z</time>
      </trkpt>
      <trkpt lat="45.95115" lon="4.88363">
        <ele>290</ele>
        <time>2017-03-27T10:33:05Z</time>
      </trkpt>
      <trkpt lat="45.95116" lon="4.88356">
        <ele>290</ele>
        <time>2017-03-27T10:33:06Z</time>
      </trkpt>
      <trkpt lat="45.95117" lon="4.88349">
        <ele>290</ele>
        <time>2017-03-27T10:33:07Z</time>
      </trkpt>
      <trkpt lat="45.95119" lon="4.88342">
        <ele>290</ele>
        <time>2017-03-27T10:33:08Z</time>
      </trkpt>
      <trkpt lat="45.95121" lon="4.88333">
        <ele>289</ele>
        <time>2017-03-27T10:33:09Z</time>
      </trkpt>
      <trkpt lat="45.95123" lon="4.88325">
        <ele>289</ele>
        <time>2017-03-27T10:33:10Z</time>
      </trkpt>
      <trkpt lat="45.95125" lon="4.88317">
        <ele>289</ele>
        <time>2017-03-27T10:33:11Z</time>
      </trkpt>
      <trkpt lat="45.95126" lon="4.88308">
        <ele>289</ele>
        <time>2017-03-27T10:33:12Z</time>
      </trkpt>
      <trkpt lat="45.95127" lon="4.883">
        <ele>289</ele>
        <time>2017-03-27T10:33:13Z</time>
      </trkpt>
      <trkpt lat="45.9513" lon="4.88289">
        <ele>289</ele>
        <time>2017-03-27T10:33:14Z</time>
      </trkpt>
      <trkpt lat="45.95131" lon="4.8828">
        <ele>289</ele>
        <time>2017-03-27T10:33:15Z</time>
      </trkpt>
      <trkpt lat="45.95132" lon="4.88271">
        <ele>289</ele>
        <time>2017-03-27T10:33:16Z</time>
      </trkpt>
      <trkpt lat="45.95133" lon="4.88262">
        <ele>289</ele>
        <time>2017-03-27T10:33:17Z</time>
      </trkpt>
      <trkpt lat="45.95133" lon="4.88254">
        <ele>289</ele>
        <time>2017-03-27T10:33:18Z</time>
      </trkpt>
      <trkpt lat="45.95132" lon="4.88246">
        <ele>287</ele>
        <time>2017-03-27T10:33:19Z</time>
      </trkpt>
      <trkpt lat="45.95133" lon="4.88237">
        <ele>287</ele>
        <time>2017-03-27T10:33:20Z</time>
      </trkpt>
      <trkpt lat="45.95133" lon="4.88229">
        <ele>287</ele>
        <time>2017-03-27T10:33:21Z</time>
      </trkpt>
      <trkpt lat="45.95133" lon="4.88221">
        <ele>287</ele>
        <time>2017-03-27T10:33:22Z</time>
      </trkpt>
      <trkpt lat="45.95135" lon="4.88212">
        <ele>287</ele>
        <time>2017-03-27T10:33:23Z</time>
      </trkpt>
      <trkpt lat="45.95137" lon="4.88204">
        <ele>287</ele>
        <time>2017-03-27T10:33:24Z</time>
      </trkpt>
      <trkpt lat="45.9514" lon="4.88196">
        <ele>287</ele>
        <time>2017-03-27T10:33:25Z</time>
      </trkpt>
      <trkpt lat="45.95143" lon="4.88189">
        <ele>286</ele>
        <time>2017-03-27T10:33:26Z</time>
      </trkpt>
      <trkpt lat="45.95146" lon="4.88183">
        <ele>286</ele>
        <time>2017-03-27T10:33:27Z</time>
      </trkpt>
      <trkpt lat="45.9515" lon="4.88179">
        <ele>286</ele>
        <time>2017-03-27T10:33:28Z</time>
      </trkpt>
      <trkpt lat="45.95155" lon="4.88176">
        <ele>286</ele>
        <time>2017-03-27T10:33:29Z</time>
      </trkpt>
      <trkpt lat="45.95159" lon="4.88175">
        <ele>286</ele>
        <time>2017-03-27T10:33:30Z</time>
      </trkpt>
      <trkpt lat="45.95164" lon="4.88173">
        <ele>285</ele>
        <time>2017-03-27T10:33:31Z</time>
      </trkpt>
      <trkpt lat="45.95168" lon="4.8817">
        <ele>285</ele>
        <time>2017-03-27T10:33:32Z</time>
      </trkpt>
      <trkpt lat="45.95172" lon="4.88165">
        <ele>284</ele>
        <time>2017-03-27T10:33:33Z</time>
      </trkpt>
      <trkpt lat="45.95175" lon="4.88159">
        <ele>284</ele>
        <time>2017-03-27T10:33:34Z</time>
      </trkpt>
      <trkpt lat="45.95178" lon="4.88151">
        <ele>283</ele>
        <time>2017-03-27T10:33:35Z</time>
      </trkpt>
      <trkpt lat="45.95179" lon="4.88143">
        <ele>283</ele>
        <time>2017-03-27T10:33:36Z</time>
      </trkpt>
      <trkpt lat="45.9518" lon="4.88136">
        <ele>283</ele>
        <time>2017-03-27T10:33:37Z</time>
      </trkpt>
      <trkpt lat="45.95181" lon="4.88128">
        <ele>282</ele>
        <time>2017-03-27T10:33:38Z</time>
      </trkpt>
      <trkpt lat="45.95182" lon="4.8812">
        <ele>282</ele>
        <time>2017-03-27T10:33:39Z</time>
      </trkpt>
      <trkpt lat="45.95184" lon="4.88112">
        <ele>282</ele>
        <time>2017-03-27T10:33:40Z</time>
      </trkpt>
      <trkpt lat="45.95185" lon="4.88104">
        <ele>282</ele>
        <time>2017-03-27T10:33:41Z</time>
      </trkpt>
      <trkpt lat="45.95187" lon="4.88095">
        <ele>282</ele>
        <time>2017-03-27T10:33:42Z</time>
      </trkpt>
      <trkpt lat="45.95189" lon="4.88086">
        <ele>282</ele>
        <time>2017-03-27T10:33:43Z</time>
      </trkpt>
      <trkpt lat="45.9519" lon="4.88077">
        <ele>281</ele>
        <time>2017-03-27T10:33:44Z</time>
      </trkpt>
      <trkpt lat="45.95193" lon="4.88068">
        <ele>281</ele>
        <time>2017-03-27T10:33:45Z</time>
      </trkpt>
      <trkpt lat="45.95195" lon="4.88058">
        <ele>281</ele>
        <time>2017-03-27T10:33:46Z</time>
      </trkpt>
      <trkpt lat="45.95197" lon="4.8805">
        <ele>281</ele>
        <time>2017-03-27T10:33:47Z</time>
      </trkpt>
      <trkpt lat="45.952" lon="4.88042">
        <ele>281</ele>
        <time>2017-03-27T10:33:48Z</time>
      </trkpt>
      <trkpt lat="45.95203" lon="4.88034">
        <ele>281</ele>
        <time>2017-03-27T10:33:49Z</time>
      </trkpt>
      <trkpt lat="45.95207" lon="4.88028">
        <ele>281</ele>
        <time>2017-03-27T10:33:50Z</time>
      </trkpt>
      <trkpt lat="45.95212" lon="4.88022">
        <ele>281</ele>
        <time>2017-03-27T10:33:51Z</time>
      </trkpt>
      <trkpt lat="45.95216" lon="4.88016">
        <ele>281</ele>
        <time>2017-03-27T10:33:52Z</time>
      </trkpt>
      <trkpt lat="45.9522" lon="4.8801">
        <ele>281</ele>
        <time>2017-03-27T10:33:53Z</time>
      </trkpt>
      <trkpt lat="45.95225" lon="4.88004">
        <ele>281</ele>
        <time>2017-03-27T10:33:54Z</time>
      </trkpt>
      <trkpt lat="45.95229" lon="4.87998">
        <ele>281</ele>
        <time>2017-03-27T10:33:55Z</time>
      </trkpt>
      <trkpt lat="45.95233" lon="4.87992">
        <ele>281</ele>
        <time>2017-03-27T10:33:56Z</time>
      </trkpt>
      <trkpt lat="45.95237" lon="4.87986">
        <ele>281</ele>
        <time>2017-03-27T10:33:57Z</time>
      </trkpt>
      <trkpt lat="45.95241" lon="4.8798">
        <ele>281</ele>
        <time>2017-03-27T10:33:58Z</time>
      </trkpt>
      <trkpt lat="45.95245" lon="4.87973">
        <ele>282</ele>
        <time>2017-03-27T10:33:59Z</time>
      </trkpt>
      <trkpt lat="45.95249" lon="4.87967">
        <ele>282</ele>
        <time>2017-03-27T10:34:00Z</time>
      </trkpt>
      <trkpt lat="45.95253" lon="4.87959">
        <ele>280</ele>
        <time>2017-03-27T10:34:01Z</time>
      </trkpt>
      <trkpt lat="45.95257" lon="4.87951">
        <ele>280</ele>
        <time>2017-03-27T10:34:02Z</time>
      </trkpt>
      <trkpt lat="45.9526" lon="4.87941">
        <ele>280</ele>
        <time>2017-03-27T10:34:03Z</time>
      </trkpt>
      <trkpt lat="45.95263" lon="4.87932">
        <ele>281</ele>
        <time>2017-03-27T10:34:04Z</time>
      </trkpt>
      <trkpt lat="45.95266" lon="4.87922">
        <ele>281</ele>
        <time>2017-03-27T10:34:05Z</time>
      </trkpt>
      <trkpt lat="45.95267" lon="4.87912">
        <ele>281</ele>
        <time>2017-03-27T10:34:06Z</time>
      </trkpt>
      <trkpt lat="45.95267" lon="4.87903">
        <ele>281</ele>
        <time>2017-03-27T10:34:07Z</time>
      </trkpt>
      <trkpt lat="45.95264" lon="4.87893">
        <ele>281</ele>
        <time>2017-03-27T10:34:08Z</time>
      </trkpt>
      <trkpt lat="45.95263" lon="4.87884">
        <ele>281</ele>
        <time>2017-03-27T10:34:09Z</time>
      </trkpt>
      <trkpt lat="45.95261" lon="4.87875">
        <ele>280</ele>
        <time>2017-03-27T10:34:10Z</time>
      </trkpt>
      <trkpt lat="45.95259" lon="4.87867">
        <ele>280</ele>
        <time>2017-03-27T10:34:11Z</time>
      </trkpt>
      <trkpt lat="45.95257" lon="4.8786">
        <ele>281</ele>
        <time>2017-03-27T10:34:12Z</time>
      </trkpt>
      <trkpt lat="45.95255" lon="4.87852">
        <ele>281</ele>
        <time>2017-03-27T10:34:13Z</time>
      </trkpt>
      <trkpt lat="45.95255" lon="4.87844">
        <ele>281</ele>
        <time>2017-03-27T10:34:14Z</time>
      </trkpt>
      <trkpt lat="45.95254" lon="4.87836">
        <ele>282</ele>
        <time>2017-03-27T10:34:15Z</time>
      </trkpt>
      <trkpt lat="45.95254" lon="4.87828">
        <ele>281</ele>
        <time>2017-03-27T10:34:16Z</time>
      </trkpt>
      <trkpt lat="45.95254" lon="4.8782">
        <ele>281</ele>
        <time>2017-03-27T10:34:17Z</time>
      </trkpt>
      <trkpt lat="45.95253" lon="4.87812">
        <ele>280</ele>
        <time>2017-03-27T10:34:18Z</time>
      </trkpt>
      <trkpt lat="45.95252" lon="4.87803">
        <ele>280</ele>
        <time>2017-03-27T10:34:19Z</time>
      </trkpt>
      <trkpt lat="45.95251" lon="4.87794">
        <ele>280</ele>
        <time>2017-03-27T10:34:20Z</time>
      </trkpt>
      <trkpt lat="45.95249" lon="4.87786">
        <ele>282</ele>
        <time>2017-03-27T10:34:21Z</time>
      </trkpt>
      <trkpt lat="45.95248" lon="4.87777">
        <ele>282</ele>
        <time>2017-03-27T10:34:22Z</time>
      </trkpt>
      <trkpt lat="45.95247" lon="4.87768">
        <ele>281</ele>
        <time>2017-03-27T10:34:23Z</time>
      </trkpt>
      <trkpt lat="45.95245" lon="4.87759">
        <ele>281</ele>
        <time>2017-03-27T10:34:24Z</time>
      </trkpt>
      <trkpt lat="45.95243" lon="4.87751">
        <ele>281</ele>
        <time>2017-03-27T10:34:25Z</time>
      </trkpt>
      <trkpt lat="45.95241" lon="4.87742">
        <ele>280</ele>
        <time>2017-03-27T10:34:26Z</time>
      </trkpt>
      <trkpt lat="45.95238" lon="4.87734">
        <ele>280</ele>
        <time>2017-03-27T10:34:27Z</time>
      </trkpt>
      <trkpt lat="45.95236" lon="4.87726">
        <ele>280</ele>
        <time>2017-03-27T10:34:28Z</time>
      </trkpt>
      <trkpt lat="45.95235" lon="4.87719">
        <ele>279</ele>
        <time>2017-03-27T10:34:29Z</time>
      </trkpt>
      <trkpt lat="45.95233" lon="4.8771">
        <ele>279</ele>
        <time>2017-03-27T10:34:30Z</time>
      </trkpt>
      <trkpt lat="45.95232" lon="4.87702">
        <ele>279</ele>
        <time>2017-03-27T10:34:31Z</time>
      </trkpt>
      <trkpt lat="45.95232" lon="4.87693">
        <ele>279</ele>
        <time>2017-03-27T10:34:32Z</time>
      </trkpt>
      <trkpt lat="45.95232" lon="4.87684">
        <ele>278</ele>
        <time>2017-03-27T10:34:33Z</time>
      </trkpt>
      <trkpt lat="45.95231" lon="4.87675">
        <ele>278</ele>
        <time>2017-03-27T10:34:34Z</time>
      </trkpt>
      <trkpt lat="45.95229" lon="4.87665">
        <ele>276</ele>
        <time>2017-03-27T10:34:35Z</time>
      </trkpt>
      <trkpt lat="45.95228" lon="4.87654">
        <ele>276</ele>
        <time>2017-03-27T10:34:36Z</time>
      </trkpt>
      <trkpt lat="45.95226" lon="4.87644">
        <ele>276</ele>
        <time>2017-03-27T10:34:37Z</time>
      </trkpt>
      <trkpt lat="45.95225" lon="4.87633">
        <ele>276</ele>
        <time>2017-03-27T10:34:38Z</time>
      </trkpt>
      <trkpt lat="45.95224" lon="4.87622">
        <ele>276</ele>
        <time>2017-03-27T10:34:39Z</time>
      </trkpt>
      <trkpt lat="45.95222" lon="4.8761">
        <ele>276</ele>
        <time>2017-03-27T10:34:40Z</time>
      </trkpt>
      <trkpt lat="45.95221" lon="4.87599">
        <ele>276</ele>
        <time>2017-03-27T10:34:41Z</time>
      </trkpt>
      <trkpt lat="45.9522" lon="4.87587">
        <ele>276</ele>
        <time>2017-03-27T10:34:42Z</time>
      </trkpt>
      <trkpt lat="45.95219" lon="4.87574">
        <ele>274</ele>
        <time>2017-03-27T10:34:43Z</time>
      </trkpt>
      <trkpt lat="45.95219" lon="4.87562">
        <ele>274</ele>
        <time>2017-03-27T10:34:44Z</time>
      </trkpt>
      <trkpt lat="45.95218" lon="4.8755">
        <ele>274</ele>
        <time>2017-03-27T10:34:45Z</time>
      </trkpt>
      <trkpt lat="45.95216" lon="4.87538">
        <ele>274</ele>
        <time>2017-03-27T10:34:46Z</time>
      </trkpt>
      <trkpt lat="45.95213" lon="4.87526">
        <ele>273</ele>
        <time>2017-03-27T10:34:47Z</time>
      </trkpt>
      <trkpt lat="45.95211" lon="4.87514">
        <ele>273</ele>
        <time>2017-03-27T10:34:48Z</time>
      </trkpt>
      <trkpt lat="45.95208" lon="4.87503">
        <ele>273</ele>
        <time>2017-03-27T10:34:49Z</time>
      </trkpt>
      <trkpt lat="45.95206" lon="4.87492">
        <ele>272</ele>
        <time>2017-03-27T10:34:50Z</time>
      </trkpt>
      <trkpt lat="45.95202" lon="4.8748">
        <ele>272</ele>
        <time>2017-03-27T10:34:51Z</time>
      </trkpt>
      <trkpt lat="45.95199" lon="4.87469">
        <ele>272</ele>
        <time>2017-03-27T10:34:52Z</time>
      </trkpt>
      <trkpt lat="45.95196" lon="4.87459">
        <ele>272</ele>
        <time>2017-03-27T10:34:53Z</time>
      </trkpt>
      <trkpt lat="45.95193" lon="4.87449">
        <ele>272</ele>
        <time>2017-03-27T10:34:54Z</time>
      </trkpt>
      <trkpt lat="45.9519" lon="4.87439">
        <ele>272</ele>
        <time>2017-03-27T10:34:55Z</time>
      </trkpt>
      <trkpt lat="45.95188" lon="4.87429">
        <ele>271</ele>
        <time>2017-03-27T10:34:56Z</time>
      </trkpt>
      <trkpt lat="45.95186" lon="4.8742">
        <ele>271</ele>
        <time>2017-03-27T10:34:57Z</time>
      </trkpt>
      <trkpt lat="45.95184" lon="4.87411">
        <ele>271</ele>
        <time>2017-03-27T10:34:58Z</time>
      </trkpt>
      <trkpt lat="45.95182" lon="4.87402">
        <ele>271</ele>
        <time>2017-03-27T10:34:59Z</time>
      </trkpt>
      <trkpt lat="45.9518" lon="4.87394">
        <ele>271</ele>
        <time>2017-03-27T10:35:00Z</time>
      </trkpt>
      <trkpt lat="45.95179" lon="4.87386">
        <ele>271</ele>
        <time>2017-03-27T10:35:01Z</time>
      </trkpt>
      <trkpt lat="45.95177" lon="4.87377">
        <ele>271</ele>
        <time>2017-03-27T10:35:02Z</time>
      </trkpt>
      <trkpt lat="45.95175" lon="4.87369">
        <ele>271</ele>
        <time>2017-03-27T10:35:03Z</time>
      </trkpt>
      <trkpt lat="45.95174" lon="4.8736">
        <ele>271</ele>
        <time>2017-03-27T10:35:04Z</time>
      </trkpt>
      <trkpt lat="45.95171" lon="4.87351">
        <ele>271</ele>
        <time>2017-03-27T10:35:05Z</time>
      </trkpt>
      <trkpt lat="45.95169" lon="4.87342">
        <ele>271</ele>
        <time>2017-03-27T10:35:06Z</time>
      </trkpt>
      <trkpt lat="45.95168" lon="4.87333">
        <ele>271</ele>
        <time>2017-03-27T10:35:07Z</time>
      </trkpt>
      <trkpt lat="45.95166" lon="4.87323">
        <ele>272</ele>
        <time>2017-03-27T10:35:08Z</time>
      </trkpt>
      <trkpt lat="45.95164" lon="4.87314">
        <ele>273</ele>
        <time>2017-03-27T10:35:09Z</time>
      </trkpt>
      <trkpt lat="45.95163" lon="4.87306">
        <ele>273</ele>
        <time>2017-03-27T10:35:10Z</time>
      </trkpt>
      <trkpt lat="45.95161" lon="4.87297">
        <ele>274</ele>
        <time>2017-03-27T10:35:11Z</time>
      </trkpt>
      <trkpt lat="45.95159" lon="4.87289">
        <ele>274</ele>
        <time>2017-03-27T10:35:12Z</time>
      </trkpt>
      <trkpt lat="45.95157" lon="4.8728">
        <ele>274</ele>
        <time>2017-03-27T10:35:13Z</time>
      </trkpt>
      <trkpt lat="45.95154" lon="4.87272">
        <ele>274</ele>
        <time>2017-03-27T10:35:14Z</time>
      </trkpt>
      <trkpt lat="45.95153" lon="4.87263">
        <ele>274</ele>
        <time>2017-03-27T10:35:15Z</time>
      </trkpt>
      <trkpt lat="45.95151" lon="4.87255">
        <ele>274</ele>
        <time>2017-03-27T10:35:16Z</time>
      </trkpt>
      <trkpt lat="45.9515" lon="4.87246">
        <ele>275</ele>
        <time>2017-03-27T10:35:17Z</time>
      </trkpt>
      <trkpt lat="45.95149" lon="4.87238">
        <ele>275</ele>
        <time>2017-03-27T10:35:18Z</time>
      </trkpt>
      <trkpt lat="45.95147" lon="4.87229">
        <ele>275</ele>
        <time>2017-03-27T10:35:19Z</time>
      </trkpt>
      <trkpt lat="45.95145" lon="4.87221">
        <ele>275</ele>
        <time>2017-03-27T10:35:20Z</time>
      </trkpt>
      <trkpt lat="45.95143" lon="4.87213">
        <ele>276</ele>
        <time>2017-03-27T10:35:21Z</time>
      </trkpt>
      <trkpt lat="45.9514" lon="4.87204">
        <ele>276</ele>
        <time>2017-03-27T10:35:22Z</time>
      </trkpt>
      <trkpt lat="45.95138" lon="4.87196">
        <ele>276</ele>
        <time>2017-03-27T10:35:23Z</time>
      </trkpt>
      <trkpt lat="45.95136" lon="4.87188">
        <ele>276</ele>
        <time>2017-03-27T10:35:24Z</time>
      </trkpt>
      <trkpt lat="45.95135" lon="4.87179">
        <ele>276</ele>
        <time>2017-03-27T10:35:25Z</time>
      </trkpt>
      <trkpt lat="45.95133" lon="4.87171">
        <ele>276</ele>
        <time>2017-03-27T10:35:26Z</time>
      </trkpt>
      <trkpt lat="45.95131" lon="4.87163">
        <ele>276</ele>
        <time>2017-03-27T10:35:27Z</time>
      </trkpt>
      <trkpt lat="45.9513" lon="4.87155">
        <ele>276</ele>
        <time>2017-03-27T10:35:28Z</time>
      </trkpt>
      <trkpt lat="45.95129" lon="4.87147">
        <ele>276</ele>
        <time>2017-03-27T10:35:29Z</time>
      </trkpt>
      <trkpt lat="45.95127" lon="4.87139">
        <ele>276</ele>
        <time>2017-03-27T10:35:30Z</time>
      </trkpt>
      <trkpt lat="45.95126" lon="4.87131">
        <ele>276</ele>
        <time>2017-03-27T10:35:31Z</time>
      </trkpt>
      <trkpt lat="45.95123" lon="4.87123">
        <ele>276</ele>
        <time>2017-03-27T10:35:32Z</time>
      </trkpt>
      <trkpt lat="45.95121" lon="4.87115">
        <ele>276</ele>
        <time>2017-03-27T10:35:33Z</time>
      </trkpt>
      <trkpt lat="45.95118" lon="4.87107">
        <ele>276</ele>
        <time>2017-03-27T10:35:34Z</time>
      </trkpt>
      <trkpt lat="45.95116" lon="4.87098">
        <ele>276</ele>
        <time>2017-03-27T10:35:35Z</time>
      </trkpt>
      <trkpt lat="45.95114" lon="4.8709">
        <ele>277</ele>
        <time>2017-03-27T10:35:36Z</time>
      </trkpt>
      <trkpt lat="45.95112" lon="4.87083">
        <ele>276</ele>
        <time>2017-03-27T10:35:37Z</time>
      </trkpt>
      <trkpt lat="45.9511" lon="4.87076">
        <ele>277</ele>
        <time>2017-03-27T10:35:38Z</time>
      </trkpt>
      <trkpt lat="45.95107" lon="4.87069">
        <ele>277</ele>
        <time>2017-03-27T10:35:39Z</time>
      </trkpt>
      <trkpt lat="45.95105" lon="4.87062">
        <ele>277</ele>
        <time>2017-03-27T10:35:40Z</time>
      </trkpt>
      <trkpt lat="45.95102" lon="4.87056">
        <ele>277</ele>
        <time>2017-03-27T10:35:41Z</time>
      </trkpt>
      <trkpt lat="45.951" lon="4.8705">
        <ele>276</ele>
        <time>2017-03-27T10:35:42Z</time>
      </trkpt>
      <trkpt lat="45.95096" lon="4.87044">
        <ele>276</ele>
        <time>2017-03-27T10:35:43Z</time>
      </trkpt>
      <trkpt lat="45.95092" lon="4.87038">
        <ele>276</ele>
        <time>2017-03-27T10:35:44Z</time>
      </trkpt>
      <trkpt lat="45.95089" lon="4.87032">
        <ele>276</ele>
        <time>2017-03-27T10:35:45Z</time>
      </trkpt>
      <trkpt lat="45.95086" lon="4.87026">
        <ele>277</ele>
        <time>2017-03-27T10:35:46Z</time>
      </trkpt>
      <trkpt lat="45.95082" lon="4.8702">
        <ele>277</ele>
        <time>2017-03-27T10:35:47Z</time>
      </trkpt>
      <trkpt lat="45.95079" lon="4.87014">
        <ele>277</ele>
        <time>2017-03-27T10:35:48Z</time>
      </trkpt>
      <trkpt lat="45.95075" lon="4.87008">
        <ele>277</ele>
        <time>2017-03-27T10:35:49Z</time>
      </trkpt>
      <trkpt lat="45.95072" lon="4.87002">
        <ele>277</ele>
        <time>2017-03-27T10:35:50Z</time>
      </trkpt>
      <trkpt lat="45.95069" lon="4.86996">
        <ele>277</ele>
        <time>2017-03-27T10:35:51Z</time>
      </trkpt>
      <trkpt lat="45.95067" lon="4.86989">
        <ele>276</ele>
        <time>2017-03-27T10:35:52Z</time>
      </trkpt>
      <trkpt lat="45.95064" lon="4.86982">
        <ele>276</ele>
        <time>2017-03-27T10:35:53Z</time>
      </trkpt>
      <trkpt lat="45.95062" lon="4.86975">
        <ele>276</ele>
        <time>2017-03-27T10:35:54Z</time>
      </trkpt>
      <trkpt lat="45.95059" lon="4.86969">
        <ele>276</ele>
        <time>2017-03-27T10:35:55Z</time>
      </trkpt>
      <trkpt lat="45.95057" lon="4.86962">
        <ele>276</ele>
        <time>2017-03-27T10:35:56Z</time>
      </trkpt>
      <trkpt lat="45.95054" lon="4.86956">
        <ele>276</ele>
        <time>2017-03-27T10:35:57Z</time>
      </trkpt>
      <trkpt lat="45.95052" lon="4.86949">
        <ele>276</ele>
        <time>2017-03-27T10:35:58Z</time>
      </trkpt>
      <trkpt lat="45.9505" lon="4.86942">
        <ele>276</ele>
        <time>2017-03-27T10:35:59Z</time>
      </trkpt>
      <trkpt lat="45.95048" lon="4.86935">
        <ele>276</ele>
        <time>2017-03-27T10:36:00Z</time>
      </trkpt>
      <trkpt lat="45.95046" lon="4.86928">
        <ele>276</ele>
        <time>2017-03-27T10:36:01Z</time>
      </trkpt>
      <trkpt lat="45.95043" lon="4.8692">
        <ele>276</ele>
        <time>2017-03-27T10:36:02Z</time>
      </trkpt>
      <trkpt lat="45.95041" lon="4.86913">
        <ele>275</ele>
        <time>2017-03-27T10:36:03Z</time>
      </trkpt>
      <trkpt lat="45.95038" lon="4.86906">
        <ele>275</ele>
        <time>2017-03-27T10:36:04Z</time>
      </trkpt>
      <trkpt lat="45.95036" lon="4.86898">
        <ele>275</ele>
        <time>2017-03-27T10:36:05Z</time>
      </trkpt>
      <trkpt lat="45.95033" lon="4.86891">
        <ele>275</ele>
        <time>2017-03-27T10:36:06Z</time>
      </trkpt>
      <trkpt lat="45.95031" lon="4.86883">
        <ele>275</ele>
        <time>2017-03-27T10:36:07Z</time>
      </trkpt>
      <trkpt lat="45.95028" lon="4.86875">
        <ele>275</ele>
        <time>2017-03-27T10:36:08Z</time>
      </trkpt>
      <trkpt lat="45.95026" lon="4.86868">
        <ele>275</ele>
        <time>2017-03-27T10:36:09Z</time>
      </trkpt>
      <trkpt lat="45.95023" lon="4.8686">
        <ele>275</ele>
        <time>2017-03-27T10:36:10Z</time>
      </trkpt>
      <trkpt lat="45.9502" lon="4.86852">
        <ele>275</ele>
        <time>2017-03-27T10:36:11Z</time>
      </trkpt>
      <trkpt lat="45.95017" lon="4.86845">
        <ele>275</ele>
        <time>2017-03-27T10:36:12Z</time>
      </trkpt>
      <trkpt lat="45.95014" lon="4.86838">
        <ele>276</ele>
        <time>2017-03-27T10:36:13Z</time>
      </trkpt>
      <trkpt lat="45.95011" lon="4.86831">
        <ele>275</ele>
        <time>2017-03-27T10:36:14Z</time>
      </trkpt>
      <trkpt lat="45.95008" lon="4.86824">
        <ele>275</ele>
        <time>2017-03-27T10:36:15Z</time>
      </trkpt>
      <trkpt lat="45.95005" lon="4.86817">
        <ele>275</ele>
        <time>2017-03-27T10:36:16Z</time>
      </trkpt>
      <trkpt lat="45.95002" lon="4.86811">
        <ele>275</ele>
        <time>2017-03-27T10:36:17Z</time>
      </trkpt>
      <trkpt lat="45.95" lon="4.86805">
        <ele>276</ele>
        <time>2017-03-27T10:36:18Z</time>
      </trkpt>
      <trkpt lat="45.94996" lon="4.86799">
        <ele>276</ele>
        <time>2017-03-27T10:36:19Z</time>
      </trkpt>
      <trkpt lat="45.94992" lon="4.86794">
        <ele>276</ele>
        <time>2017-03-27T10:36:20Z</time>
      </trkpt>
      <trkpt lat="45.94989" lon="4.86788">
        <ele>275</ele>
        <time>2017-03-27T10:36:21Z</time>
      </trkpt>
      <trkpt lat="45.94983" lon="4.86779">
        <ele>275</ele>
        <time>2017-03-27T10:36:23Z</time>
      </trkpt>
      <trkpt lat="45.94981" lon="4.86774">
        <ele>275</ele>
        <time>2017-03-27T10:36:24Z</time>
      </trkpt>
      <trkpt lat="45.94978" lon="4.86769">
        <ele>275</ele>
        <time>2017-03-27T10:36:25Z</time>
      </trkpt>
      <trkpt lat="45.94975" lon="4.86764">
        <ele>275</ele>
        <time>2017-03-27T10:36:26Z</time>
      </trkpt>
      <trkpt lat="45.94973" lon="4.86758">
        <ele>275</ele>
        <time>2017-03-27T10:36:27Z</time>
      </trkpt>
      <trkpt lat="45.94969" lon="4.86753">
        <ele>275</ele>
        <time>2017-03-27T10:36:28Z</time>
      </trkpt>
      <trkpt lat="45.94967" lon="4.86747">
        <ele>275</ele>
        <time>2017-03-27T10:36:29Z</time>
      </trkpt>
      <trkpt lat="45.94963" lon="4.86742">
        <ele>275</ele>
        <time>2017-03-27T10:36:30Z</time>
      </trkpt>
      <trkpt lat="45.94961" lon="4.86737">
        <ele>275</ele>
        <time>2017-03-27T10:36:31Z</time>
      </trkpt>
      <trkpt lat="45.94958" lon="4.86731">
        <ele>275</ele>
        <time>2017-03-27T10:36:32Z</time>
      </trkpt>
      <trkpt lat="45.94956" lon="4.86725">
        <ele>275</ele>
        <time>2017-03-27T10:36:33Z</time>
      </trkpt>
      <trkpt lat="45.94954" lon="4.86719">
        <ele>275</ele>
        <time>2017-03-27T10:36:34Z</time>
      </trkpt>
      <trkpt lat="45.94953" lon="4.86712">
        <ele>275</ele>
        <time>2017-03-27T10:36:35Z</time>
      </trkpt>
      <trkpt lat="45.94951" lon="4.86706">
        <ele>275</ele>
        <time>2017-03-27T10:36:36Z</time>
      </trkpt>
      <trkpt lat="45.9495" lon="4.86699">
        <ele>275</ele>
        <time>2017-03-27T10:36:37Z</time>
      </trkpt>
      <trkpt lat="45.94948" lon="4.86692">
        <ele>275</ele>
        <time>2017-03-27T10:36:38Z</time>
      </trkpt>
      <trkpt lat="45.94947" lon="4.86685">
        <ele>276</ele>
        <time>2017-03-27T10:36:39Z</time>
      </trkpt>
      <trkpt lat="45.94946" lon="4.86678">
        <ele>276</ele>
        <time>2017-03-27T10:36:40Z</time>
      </trkpt>
      <trkpt lat="45.94946" lon="4.86665">
        <ele>276</ele>
        <time>2017-03-27T10:36:42Z</time>
      </trkpt>
      <trkpt lat="45.94946" lon="4.86659">
        <ele>276</ele>
        <time>2017-03-27T10:36:43Z</time>
      </trkpt>
      <trkpt lat="45.94949" lon="4.86648">
        <ele>276</ele>
        <time>2017-03-27T10:36:45Z</time>
      </trkpt>
      <trkpt lat="45.9495" lon="4.86643">
        <ele>276</ele>
        <time>2017-03-27T10:36:46Z</time>
      </trkpt>
      <trkpt lat="45.94953" lon="4.86633">
        <ele>276</ele>
        <time>2017-03-27T10:36:48Z</time>
      </trkpt>
      <trkpt lat="45.94956" lon="4.86629">
        <ele>276</ele>
        <time>2017-03-27T10:36:49Z</time>
      </trkpt>
      <trkpt lat="45.94962" lon="4.86622">
        <ele>275</ele>
        <time>2017-03-27T10:36:51Z</time>
      </trkpt>
      <trkpt lat="45.94965" lon="4.86619">
        <ele>275</ele>
        <time>2017-03-27T10:36:52Z</time>
      </trkpt>
      <trkpt lat="45.94973" lon="4.86614">
        <ele>275</ele>
        <time>2017-03-27T10:36:54Z</time>
      </trkpt>
      <trkpt lat="45.94977" lon="4.86612">
        <ele>275</ele>
        <time>2017-03-27T10:36:55Z</time>
      </trkpt>
      <trkpt lat="45.94985" lon="4.86611">
        <ele>275</ele>
        <time>2017-03-27T10:36:57Z</time>
      </trkpt>
      <trkpt lat="45.9499" lon="4.86611">
        <ele>275</ele>
        <time>2017-03-27T10:36:58Z</time>
      </trkpt>
      <trkpt lat="45.94995" lon="4.86611">
        <ele>275</ele>
        <time>2017-03-27T10:36:59Z</time>
      </trkpt>
      <trkpt lat="45.95" lon="4.8661">
        <ele>273</ele>
        <time>2017-03-27T10:37:00Z</time>
      </trkpt>
      <trkpt lat="45.95005" lon="4.86611">
        <ele>273</ele>
        <time>2017-03-27T10:37:01Z</time>
      </trkpt>
      <trkpt lat="45.95011" lon="4.8661">
        <ele>273</ele>
        <time>2017-03-27T10:37:02Z</time>
      </trkpt>
      <trkpt lat="45.95017" lon="4.86609">
        <ele>273</ele>
        <time>2017-03-27T10:37:03Z</time>
      </trkpt>
      <trkpt lat="45.95023" lon="4.86608">
        <ele>273</ele>
        <time>2017-03-27T10:37:04Z</time>
      </trkpt>
      <trkpt lat="45.95029" lon="4.86607">
        <ele>273</ele>
        <time>2017-03-27T10:37:05Z</time>
      </trkpt>
      <trkpt lat="45.95035" lon="4.86605">
        <ele>273</ele>
        <time>2017-03-27T10:37:06Z</time>
      </trkpt>
      <trkpt lat="45.95042" lon="4.86604">
        <ele>272</ele>
        <time>2017-03-27T10:37:07Z</time>
      </trkpt>
      <trkpt lat="45.95049" lon="4.86601">
        <ele>272</ele>
        <time>2017-03-27T10:37:08Z</time>
      </trkpt>
      <trkpt lat="45.95056" lon="4.86599">
        <ele>272</ele>
        <time>2017-03-27T10:37:09Z</time>
      </trkpt>
      <trkpt lat="45.95063" lon="4.86596">
        <ele>272</ele>
        <time>2017-03-27T10:37:10Z</time>
      </trkpt>
      <trkpt lat="45.9507" lon="4.86593">
        <ele>272</ele>
        <time>2017-03-27T10:37:11Z</time>
      </trkpt>
      <trkpt lat="45.95078" lon="4.86591">
        <ele>271</ele>
        <time>2017-03-27T10:37:12Z</time>
      </trkpt>
      <trkpt lat="45.95085" lon="4.86589">
        <ele>271</ele>
        <time>2017-03-27T10:37:13Z</time>
      </trkpt>
      <trkpt lat="45.95093" lon="4.86587">
        <ele>271</ele>
        <time>2017-03-27T10:37:14Z</time>
      </trkpt>
      <trkpt lat="45.95102" lon="4.86586">
        <ele>271</ele>
        <time>2017-03-27T10:37:15Z</time>
      </trkpt>
      <trkpt lat="45.9511" lon="4.86585">
        <ele>271</ele>
        <time>2017-03-27T10:37:16Z</time>
      </trkpt>
      <trkpt lat="45.95118" lon="4.86584">
        <ele>270</ele>
        <time>2017-03-27T10:37:17Z</time>
      </trkpt>
      <trkpt lat="45.95126" lon="4.86582">
        <ele>270</ele>
        <time>2017-03-27T10:37:18Z</time>
      </trkpt>
      <trkpt lat="45.95135" lon="4.86581">
        <ele>270</ele>
        <time>2017-03-27T10:37:19Z</time>
      </trkpt>
      <trkpt lat="45.95143" lon="4.8658">
        <ele>270</ele>
        <time>2017-03-27T10:37:20Z</time>
      </trkpt>
      <trkpt lat="45.95152" lon="4.86578">
        <ele>269</ele>
        <time>2017-03-27T10:37:21Z</time>
      </trkpt>
      <trkpt lat="45.95161" lon="4.86577">
        <ele>269</ele>
        <time>2017-03-27T10:37:22Z</time>
      </trkpt>
      <trkpt lat="45.95171" lon="4.86576">
        <ele>269</ele>
        <time>2017-03-27T10:37:23Z</time>
      </trkpt>
      <trkpt lat="45.95179" lon="4.86575">
        <ele>269</ele>
        <time>2017-03-27T10:37:24Z</time>
      </trkpt>
      <trkpt lat="45.95188" lon="4.86575">
        <ele>269</ele>
        <time>2017-03-27T10:37:25Z</time>
      </trkpt>
      <trkpt lat="45.95198" lon="4.86575">
        <ele>268</ele>
        <time>2017-03-27T10:37:26Z</time>
      </trkpt>
      <trkpt lat="45.95207" lon="4.86575">
        <ele>268</ele>
        <time>2017-03-27T10:37:27Z</time>
      </trkpt>
      <trkpt lat="45.95216" lon="4.86576">
        <ele>268</ele>
        <time>2017-03-27T10:37:28Z</time>
      </trkpt>
      <trkpt lat="45.95224" lon="4.86577">
        <ele>268</ele>
        <time>2017-03-27T10:37:29Z</time>
      </trkpt>
      <trkpt lat="45.95233" lon="4.86578">
        <ele>268</ele>
        <time>2017-03-27T10:37:30Z</time>
      </trkpt>
      <trkpt lat="45.95241" lon="4.86579">
        <ele>268</ele>
        <time>2017-03-27T10:37:31Z</time>
      </trkpt>
      <trkpt lat="45.95248" lon="4.86578">
        <ele>268</ele>
        <time>2017-03-27T10:37:32Z</time>
      </trkpt>
      <trkpt lat="45.95254" lon="4.86577">
        <ele>268</ele>
        <time>2017-03-27T10:37:33Z</time>
      </trkpt>
      <trkpt lat="45.95261" lon="4.86571">
        <ele>267</ele>
        <time>2017-03-27T10:37:35Z</time>
      </trkpt>
      <trkpt lat="45.95262" lon="4.86567">
        <ele>267</ele>
        <time>2017-03-27T10:37:36Z</time>
      </trkpt>
      <trkpt lat="45.95261" lon="4.86556">
        <ele>267</ele>
        <time>2017-03-27T10:37:38Z</time>
      </trkpt>
      <trkpt lat="45.95258" lon="4.86551">
        <ele>267</ele>
        <time>2017-03-27T10:37:39Z</time>
      </trkpt>
      <trkpt lat="45.95253" lon="4.86541">
        <ele>267</ele>
        <time>2017-03-27T10:37:41Z</time>
      </trkpt>
      <trkpt lat="45.95251" lon="4.86536">
        <ele>267</ele>
        <time>2017-03-27T10:37:42Z</time>
      </trkpt>
      <trkpt lat="45.95248" lon="4.8653">
        <ele>268</ele>
        <time>2017-03-27T10:37:43Z</time>
      </trkpt>
      <trkpt lat="45.95245" lon="4.86525">
        <ele>268</ele>
        <time>2017-03-27T10:37:44Z</time>
      </trkpt>
      <trkpt lat="45.95241" lon="4.8652">
        <ele>268</ele>
        <time>2017-03-27T10:37:45Z</time>
      </trkpt>
      <trkpt lat="45.95237" lon="4.86515">
        <ele>268</ele>
        <time>2017-03-27T10:37:46Z</time>
      </trkpt>
      <trkpt lat="45.95233" lon="4.8651">
        <ele>268</ele>
        <time>2017-03-27T10:37:47Z</time>
      </trkpt>
      <trkpt lat="45.95229" lon="4.86506">
        <ele>268</ele>
        <time>2017-03-27T10:37:48Z</time>
      </trkpt>
      <trkpt lat="45.95225" lon="4.86501">
        <ele>268</ele>
        <time>2017-03-27T10:37:49Z</time>
      </trkpt>
      <trkpt lat="45.9522" lon="4.86497">
        <ele>268</ele>
        <time>2017-03-27T10:37:50Z</time>
      </trkpt>
      <trkpt lat="45.95216" lon="4.86493">
        <ele>268</ele>
        <time>2017-03-27T10:37:51Z</time>
      </trkpt>
      <trkpt lat="45.95212" lon="4.8649">
        <ele>268</ele>
        <time>2017-03-27T10:37:52Z</time>
      </trkpt>
      <trkpt lat="45.95205" lon="4.86484">
        <ele>268</ele>
        <time>2017-03-27T10:37:54Z</time>
      </trkpt>
      <trkpt lat="45.95203" lon="4.86481">
        <ele>268</ele>
        <time>2017-03-27T10:37:55Z</time>
      </trkpt>
      <trkpt lat="45.95198" lon="4.86475">
        <ele>268</ele>
        <time>2017-03-27T10:37:57Z</time>
      </trkpt>
      <trkpt lat="45.95195" lon="4.86472">
        <ele>268</ele>
        <time>2017-03-27T10:37:58Z</time>
      </trkpt>
      <trkpt lat="45.9519" lon="4.86465">
        <ele>268</ele>
        <time>2017-03-27T10:38:00Z</time>
      </trkpt>
      <trkpt lat="45.95187" lon="4.86462">
        <ele>268</ele>
        <time>2017-03-27T10:38:01Z</time>
      </trkpt>
      <trkpt lat="45.95181" lon="4.86455">
        <ele>268</ele>
        <time>2017-03-27T10:38:03Z</time>
      </trkpt>
      <trkpt lat="45.95178" lon="4.86451">
        <ele>268</ele>
        <time>2017-03-27T10:38:04Z</time>
      </trkpt>
      <trkpt lat="45.95172" lon="4.86445">
        <ele>267</ele>
        <time>2017-03-27T10:38:06Z</time>
      </trkpt>
      <trkpt lat="45.95169" lon="4.86441">
        <ele>267</ele>
        <time>2017-03-27T10:38:07Z</time>
      </trkpt>
      <trkpt lat="45.95164" lon="4.86434">
        <ele>268</ele>
        <time>2017-03-27T10:38:09Z</time>
      </trkpt>
      <trkpt lat="45.95161" lon="4.86431">
        <ele>268</ele>
        <time>2017-03-27T10:38:10Z</time>
      </trkpt>
      <trkpt lat="45.95155" lon="4.86424">
        <ele>268</ele>
        <time>2017-03-27T10:38:12Z</time>
      </trkpt>
      <trkpt lat="45.95152" lon="4.86421">
        <ele>268</ele>
        <time>2017-03-27T10:38:13Z</time>
      </trkpt>
      <trkpt lat="45.95146" lon="4.86415">
        <ele>268</ele>
        <time>2017-03-27T10:38:15Z</time>
      </trkpt>
      <trkpt lat="45.95143" lon="4.86411">
        <ele>268</ele>
        <time>2017-03-27T10:38:16Z</time>
      </trkpt>
      <trkpt lat="45.95137" lon="4.86404">
        <ele>268</ele>
        <time>2017-03-27T10:38:18Z</time>
      </trkpt>
      <trkpt lat="45.95134" lon="4.86401">
        <ele>268</ele>
        <time>2017-03-27T10:38:19Z</time>
      </trkpt>
      <trkpt lat="45.95129" lon="4.86394">
        <ele>268</ele>
        <time>2017-03-27T10:38:21Z</time>
      </trkpt>
      <trkpt lat="45.95126" lon="4.86391">
        <ele>268</ele>
        <time>2017-03-27T10:38:22Z</time>
      </trkpt>
      <trkpt lat="45.9512" lon="4.86384">
        <ele>269</ele>
        <time>2017-03-27T10:38:24Z</time>
      </trkpt>
      <trkpt lat="45.95117" lon="4.86381">
        <ele>269</ele>
        <time>2017-03-27T10:38:25Z</time>
      </trkpt>
      <trkpt lat="45.95112" lon="4.86374">
        <ele>269</ele>
        <time>2017-03-27T10:38:27Z</time>
      </trkpt>
      <trkpt lat="45.95109" lon="4.8637">
        <ele>269</ele>
        <time>2017-03-27T10:38:28Z</time>
      </trkpt>
      <trkpt lat="45.95103" lon="4.86362">
        <ele>269</ele>
        <time>2017-03-27T10:38:30Z</time>
      </trkpt>
      <trkpt lat="45.951" lon="4.86358">
        <ele>269</ele>
        <time>2017-03-27T10:38:31Z</time>
      </trkpt>
      <trkpt lat="45.95094" lon="4.8635">
        <ele>269</ele>
        <time>2017-03-27T10:38:33Z</time>
      </trkpt>
      <trkpt lat="45.95091" lon="4.86346">
        <ele>269</ele>
        <time>2017-03-27T10:38:34Z</time>
      </trkpt>
      <trkpt lat="45.95085" lon="4.86339">
        <ele>269</ele>
        <time>2017-03-27T10:38:36Z</time>
      </trkpt>
      <trkpt lat="45.95082" lon="4.86337">
        <ele>269</ele>
        <time>2017-03-27T10:38:37Z</time>
      </trkpt>
      <trkpt lat="45.95076" lon="4.86331">
        <ele>270</ele>
        <time>2017-03-27T10:38:39Z</time>
      </trkpt>
      <trkpt lat="45.95073" lon="4.86327">
        <ele>270</ele>
        <time>2017-03-27T10:38:40Z</time>
      </trkpt>
      <trkpt lat="45.95067" lon="4.86319">
        <ele>270</ele>
        <time>2017-03-27T10:38:42Z</time>
      </trkpt>
      <trkpt lat="45.95065" lon="4.86314">
        <ele>270</ele>
        <time>2017-03-27T10:38:43Z</time>
      </trkpt>
      <trkpt lat="45.95058" lon="4.86305">
        <ele>271</ele>
        <time>2017-03-27T10:38:45Z</time>
      </trkpt>
      <trkpt lat="45.95055" lon="4.86301">
        <ele>271</ele>
        <time>2017-03-27T10:38:46Z</time>
      </trkpt>
      <trkpt lat="45.95048" lon="4.86293">
        <ele>271</ele>
        <time>2017-03-27T10:38:48Z</time>
      </trkpt>
      <trkpt lat="45.95045" lon="4.8629">
        <ele>271</ele>
        <time>2017-03-27T10:38:49Z</time>
      </trkpt>
      <trkpt lat="45.95039" lon="4.86282">
        <ele>271</ele>
        <time>2017-03-27T10:38:51Z</time>
      </trkpt>
      <trkpt lat="45.95036" lon="4.86279">
        <ele>271</ele>
        <time>2017-03-27T10:38:52Z</time>
      </trkpt>
      <trkpt lat="45.9503" lon="4.86272">
        <ele>271</ele>
        <time>2017-03-27T10:38:54Z</time>
      </trkpt>
      <trkpt lat="45.95028" lon="4.86269">
        <ele>271</ele>
        <time>2017-03-27T10:38:55Z</time>
      </trkpt>
      <trkpt lat="45.95022" lon="4.86262">
        <ele>271</ele>
        <time>2017-03-27T10:38:57Z</time>
      </trkpt>
      <trkpt lat="45.9502" lon="4.86259">
        <ele>271</ele>
        <time>2017-03-27T10:38:58Z</time>
      </trkpt>
      <trkpt lat="45.95014" lon="4.86253">
        <ele>272</ele>
        <time>2017-03-27T10:39:00Z</time>
      </trkpt>
      <trkpt lat="45.95012" lon="4.86249">
        <ele>272</ele>
        <time>2017-03-27T10:39:01Z</time>
      </trkpt>
      <trkpt lat="45.95006" lon="4.86242">
        <ele>272</ele>
        <time>2017-03-27T10:39:03Z</time>
      </trkpt>
      <trkpt lat="45.95004" lon="4.86239">
        <ele>272</ele>
        <time>2017-03-27T10:39:04Z</time>
      </trkpt>
      <trkpt lat="45.94999" lon="4.86234">
        <ele>272</ele>
        <time>2017-03-27T10:39:06Z</time>
      </trkpt>
      <trkpt lat="45.94996" lon="4.86231">
        <ele>272</ele>
        <time>2017-03-27T10:39:07Z</time>
      </trkpt>
      <trkpt lat="45.94991" lon="4.86226">
        <ele>272</ele>
        <time>2017-03-27T10:39:09Z</time>
      </trkpt>
      <trkpt lat="45.94988" lon="4.86223">
        <ele>272</ele>
        <time>2017-03-27T10:39:10Z</time>
      </trkpt>
      <trkpt lat="45.94983" lon="4.86216">
        <ele>272</ele>
        <time>2017-03-27T10:39:12Z</time>
      </trkpt>
      <trkpt lat="45.94981" lon="4.86213">
        <ele>272</ele>
        <time>2017-03-27T10:39:13Z</time>
      </trkpt>
      <trkpt lat="45.94976" lon="4.86206">
        <ele>272</ele>
        <time>2017-03-27T10:39:15Z</time>
      </trkpt>
      <trkpt lat="45.94973" lon="4.86202">
        <ele>272</ele>
        <time>2017-03-27T10:39:16Z</time>
      </trkpt>
      <trkpt lat="45.94968" lon="4.86195">
        <ele>272</ele>
        <time>2017-03-27T10:39:18Z</time>
      </trkpt>
      <trkpt lat="45.94965" lon="4.86192">
        <ele>272</ele>
        <time>2017-03-27T10:39:19Z</time>
      </trkpt>
      <trkpt lat="45.9496" lon="4.86185">
        <ele>272</ele>
        <time>2017-03-27T10:39:21Z</time>
      </trkpt>
      <trkpt lat="45.94957" lon="4.86182">
        <ele>273</ele>
        <time>2017-03-27T10:39:22Z</time>
      </trkpt>
      <trkpt lat="45.94952" lon="4.86175">
        <ele>273</ele>
        <time>2017-03-27T10:39:24Z</time>
      </trkpt>
      <trkpt lat="45.94949" lon="4.86171">
        <ele>273</ele>
        <time>2017-03-27T10:39:25Z</time>
      </trkpt>
      <trkpt lat="45.94943" lon="4.86163">
        <ele>273</ele>
        <time>2017-03-27T10:39:27Z</time>
      </trkpt>
      <trkpt lat="45.9494" lon="4.86159">
        <ele>273</ele>
        <time>2017-03-27T10:39:28Z</time>
      </trkpt>
      <trkpt lat="45.94934" lon="4.86151">
        <ele>273</ele>
        <time>2017-03-27T10:39:30Z</time>
      </trkpt>
      <trkpt lat="45.94932" lon="4.86147">
        <ele>273</ele>
        <time>2017-03-27T10:39:31Z</time>
      </trkpt>
      <trkpt lat="45.94926" lon="4.86139">
        <ele>273</ele>
        <time>2017-03-27T10:39:33Z</time>
      </trkpt>
      <trkpt lat="45.94924" lon="4.86135">
        <ele>273</ele>
        <time>2017-03-27T10:39:34Z</time>
      </trkpt>
      <trkpt lat="45.94919" lon="4.86125">
        <ele>273</ele>
        <time>2017-03-27T10:39:36Z</time>
      </trkpt>
      <trkpt lat="45.94917" lon="4.86121">
        <ele>273</ele>
        <time>2017-03-27T10:39:37Z</time>
      </trkpt>
      <trkpt lat="45.94912" lon="4.86112">
        <ele>274</ele>
        <time>2017-03-27T10:39:39Z</time>
      </trkpt>
      <trkpt lat="45.9491" lon="4.86108">
        <ele>274</ele>
        <time>2017-03-27T10:39:40Z</time>
      </trkpt>
      <trkpt lat="45.94906" lon="4.86101">
        <ele>274</ele>
        <time>2017-03-27T10:39:42Z</time>
      </trkpt>
      <trkpt lat="45.94904" lon="4.86096">
        <ele>274</ele>
        <time>2017-03-27T10:39:43Z</time>
      </trkpt>
      <trkpt lat="45.94901" lon="4.86087">
        <ele>274</ele>
        <time>2017-03-27T10:39:45Z</time>
      </trkpt>
      <trkpt lat="45.94899" lon="4.86081">
        <ele>274</ele>
        <time>2017-03-27T10:39:46Z</time>
      </trkpt>
      <trkpt lat="45.94896" lon="4.86072">
        <ele>274</ele>
        <time>2017-03-27T10:39:48Z</time>
      </trkpt>
      <trkpt lat="45.94894" lon="4.86067">
        <ele>274</ele>
        <time>2017-03-27T10:39:49Z</time>
      </trkpt>
      <trkpt lat="45.94891" lon="4.86057">
        <ele>274</ele>
        <time>2017-03-27T10:39:51Z</time>
      </trkpt>
      <trkpt lat="45.94889" lon="4.86051">
        <ele>274</ele>
        <time>2017-03-27T10:39:52Z</time>
      </trkpt>
      <trkpt lat="45.94886" lon="4.8604">
        <ele>274</ele>
        <time>2017-03-27T10:39:54Z</time>
      </trkpt>
      <trkpt lat="45.94885" lon="4.86035">
        <ele>274</ele>
        <time>2017-03-27T10:39:55Z</time>
      </trkpt>
      <trkpt lat="45.94881" lon="4.86023">
        <ele>274</ele>
        <time>2017-03-27T10:39:57Z</time>
      </trkpt>
      <trkpt lat="45.9488" lon="4.86018">
        <ele>274</ele>
        <time>2017-03-27T10:39:58Z</time>
      </trkpt>
      <trkpt lat="45.94877" lon="4.86007">
        <ele>274</ele>
        <time>2017-03-27T10:40:00Z</time>
      </trkpt>
      <trkpt lat="45.94875" lon="4.86002">
        <ele>274</ele>
        <time>2017-03-27T10:40:01Z</time>
      </trkpt>
      <trkpt lat="45.94873" lon="4.85991">
        <ele>275</ele>
        <time>2017-03-27T10:40:03Z</time>
      </trkpt>
      <trkpt lat="45.94871" lon="4.85986">
        <ele>275</ele>
        <time>2017-03-27T10:40:04Z</time>
      </trkpt>
      <trkpt lat="45.94868" lon="4.85974">
        <ele>275</ele>
        <time>2017-03-27T10:40:06Z</time>
      </trkpt>
      <trkpt lat="45.94867" lon="4.85968">
        <ele>275</ele>
        <time>2017-03-27T10:40:07Z</time>
      </trkpt>
      <trkpt lat="45.94864" lon="4.85956">
        <ele>275</ele>
        <time>2017-03-27T10:40:09Z</time>
      </trkpt>
      <trkpt lat="45.94862" lon="4.85951">
        <ele>275</ele>
        <time>2017-03-27T10:40:10Z</time>
      </trkpt>
      <trkpt lat="45.9486" lon="4.8594">
        <ele>275</ele>
        <time>2017-03-27T10:40:12Z</time>
      </trkpt>
      <trkpt lat="45.94858" lon="4.85934">
        <ele>275</ele>
        <time>2017-03-27T10:40:13Z</time>
      </trkpt>
      <trkpt lat="45.94855" lon="4.85923">
        <ele>275</ele>
        <time>2017-03-27T10:40:15Z</time>
      </trkpt>
      <trkpt lat="45.94853" lon="4.85918">
        <ele>275</ele>
        <time>2017-03-27T10:40:16Z</time>
      </trkpt>
      <trkpt lat="45.9485" lon="4.85908">
        <ele>276</ele>
        <time>2017-03-27T10:40:18Z</time>
      </trkpt>
      <trkpt lat="45.94849" lon="4.85902">
        <ele>276</ele>
        <time>2017-03-27T10:40:19Z</time>
      </trkpt>
      <trkpt lat="45.94847" lon="4.85892">
        <ele>276</ele>
        <time>2017-03-27T10:40:21Z</time>
      </trkpt>
      <trkpt lat="45.94846" lon="4.85886">
        <ele>276</ele>
        <time>2017-03-27T10:40:22Z</time>
      </trkpt>
      <trkpt lat="45.94842" lon="4.85875">
        <ele>276</ele>
        <time>2017-03-27T10:40:24Z</time>
      </trkpt>
      <trkpt lat="45.94841" lon="4.85869">
        <ele>276</ele>
        <time>2017-03-27T10:40:25Z</time>
      </trkpt>
      <trkpt lat="45.94838" lon="4.85859">
        <ele>276</ele>
        <time>2017-03-27T10:40:27Z</time>
      </trkpt>
      <trkpt lat="45.94836" lon="4.85853">
        <ele>276</ele>
        <time>2017-03-27T10:40:28Z</time>
      </trkpt>
      <trkpt lat="45.94833" lon="4.85842">
        <ele>277</ele>
        <time>2017-03-27T10:40:30Z</time>
      </trkpt>
      <trkpt lat="45.94831" lon="4.85836">
        <ele>277</ele>
        <time>2017-03-27T10:40:31Z</time>
      </trkpt>
      <trkpt lat="45.94828" lon="4.85825">
        <ele>277</ele>
        <time>2017-03-27T10:40:33Z</time>
      </trkpt>
      <trkpt lat="45.94826" lon="4.85819">
        <ele>278</ele>
        <time>2017-03-27T10:40:34Z</time>
      </trkpt>
      <trkpt lat="45.94823" lon="4.85808">
        <ele>278</ele>
        <time>2017-03-27T10:40:36Z</time>
      </trkpt>
      <trkpt lat="45.94822" lon="4.85802">
        <ele>278</ele>
        <time>2017-03-27T10:40:37Z</time>
      </trkpt>
      <trkpt lat="45.94818" lon="4.85791">
        <ele>278</ele>
        <time>2017-03-27T10:40:39Z</time>
      </trkpt>
      <trkpt lat="45.94817" lon="4.85786">
        <ele>278</ele>
        <time>2017-03-27T10:40:40Z</time>
      </trkpt>
      <trkpt lat="45.94814" lon="4.85775">
        <ele>278</ele>
        <time>2017-03-27T10:40:42Z</time>
      </trkpt>
      <trkpt lat="45.94812" lon="4.85769">
        <ele>278</ele>
        <time>2017-03-27T10:40:43Z</time>
      </trkpt>
      <trkpt lat="45.9481" lon="4.85758">
        <ele>278</ele>
        <time>2017-03-27T10:40:45Z</time>
      </trkpt>
      <trkpt lat="45.94808" lon="4.85753">
        <ele>278</ele>
        <time>2017-03-27T10:40:46Z</time>
      </trkpt>
      <trkpt lat="45.94806" lon="4.85742">
        <ele>279</ele>
        <time>2017-03-27T10:40:48Z</time>
      </trkpt>
      <trkpt lat="45.94805" lon="4.85736">
        <ele>279</ele>
        <time>2017-03-27T10:40:49Z</time>
      </trkpt>
      <trkpt lat="45.94802" lon="4.85725">
        <ele>280</ele>
        <time>2017-03-27T10:40:51Z</time>
      </trkpt>
      <trkpt lat="45.948" lon="4.85719">
        <ele>280</ele>
        <time>2017-03-27T10:40:52Z</time>
      </trkpt>
      <trkpt lat="45.94798" lon="4.85708">
        <ele>280</ele>
        <time>2017-03-27T10:40:54Z</time>
      </trkpt>
      <trkpt lat="45.94796" lon="4.85701">
        <ele>280</ele>
        <time>2017-03-27T10:40:55Z</time>
      </trkpt>
      <trkpt lat="45.94794" lon="4.85695">
        <ele>280</ele>
        <time>2017-03-27T10:40:56Z</time>
      </trkpt>
      <trkpt lat="45.94792" lon="4.85689">
        <ele>280</ele>
        <time>2017-03-27T10:40:57Z</time>
      </trkpt>
      <trkpt lat="45.94789" lon="4.85678">
        <ele>280</ele>
        <time>2017-03-27T10:40:59Z</time>
      </trkpt>
      <trkpt lat="45.94787" lon="4.85672">
        <ele>280</ele>
        <time>2017-03-27T10:41:00Z</time>
      </trkpt>
      <trkpt lat="45.94785" lon="4.85661">
        <ele>281</ele>
        <time>2017-03-27T10:41:02Z</time>
      </trkpt>
      <trkpt lat="45.94783" lon="4.85654">
        <ele>281</ele>
        <time>2017-03-27T10:41:03Z</time>
      </trkpt>
      <trkpt lat="45.94782" lon="4.85648">
        <ele>281</ele>
        <time>2017-03-27T10:41:04Z</time>
      </trkpt>
      <trkpt lat="45.9478" lon="4.85641">
        <ele>281</ele>
        <time>2017-03-27T10:41:05Z</time>
      </trkpt>
      <trkpt lat="45.94778" lon="4.85634">
        <ele>281</ele>
        <time>2017-03-27T10:41:06Z</time>
      </trkpt>
      <trkpt lat="45.94776" lon="4.85627">
        <ele>280</ele>
        <time>2017-03-27T10:41:07Z</time>
      </trkpt>
      <trkpt lat="45.94774" lon="4.85621">
        <ele>280</ele>
        <time>2017-03-27T10:41:08Z</time>
      </trkpt>
      <trkpt lat="45.94773" lon="4.85613">
        <ele>280</ele>
        <time>2017-03-27T10:41:09Z</time>
      </trkpt>
      <trkpt lat="45.94771" lon="4.85605">
        <ele>280</ele>
        <time>2017-03-27T10:41:10Z</time>
      </trkpt>
      <trkpt lat="45.9477" lon="4.85597">
        <ele>280</ele>
        <time>2017-03-27T10:41:11Z</time>
      </trkpt>
      <trkpt lat="45.94769" lon="4.85589">
        <ele>280</ele>
        <time>2017-03-27T10:41:12Z</time>
      </trkpt>
      <trkpt lat="45.94767" lon="4.85581">
        <ele>279</ele>
        <time>2017-03-27T10:41:13Z</time>
      </trkpt>
      <trkpt lat="45.94765" lon="4.85571">
        <ele>279</ele>
        <time>2017-03-27T10:41:14Z</time>
      </trkpt>
      <trkpt lat="45.94764" lon="4.85562">
        <ele>278</ele>
        <time>2017-03-27T10:41:15Z</time>
      </trkpt>
      <trkpt lat="45.94762" lon="4.85553">
        <ele>278</ele>
        <time>2017-03-27T10:41:16Z</time>
      </trkpt>
      <trkpt lat="45.94761" lon="4.85543">
        <ele>278</ele>
        <time>2017-03-27T10:41:17Z</time>
      </trkpt>
      <trkpt lat="45.94759" lon="4.85533">
        <ele>278</ele>
        <time>2017-03-27T10:41:18Z</time>
      </trkpt>
      <trkpt lat="45.94758" lon="4.85522">
        <ele>277</ele>
        <time>2017-03-27T10:41:19Z</time>
      </trkpt>
      <trkpt lat="45.94755" lon="4.85511">
        <ele>277</ele>
        <time>2017-03-27T10:41:20Z</time>
      </trkpt>
      <trkpt lat="45.94753" lon="4.855">
        <ele>276</ele>
        <time>2017-03-27T10:41:21Z</time>
      </trkpt>
      <trkpt lat="45.9475" lon="4.85489">
        <ele>276</ele>
        <time>2017-03-27T10:41:22Z</time>
      </trkpt>
      <trkpt lat="45.94749" lon="4.85478">
        <ele>275</ele>
        <time>2017-03-27T10:41:23Z</time>
      </trkpt>
      <trkpt lat="45.94747" lon="4.85466">
        <ele>274</ele>
        <time>2017-03-27T10:41:24Z</time>
      </trkpt>
      <trkpt lat="45.94746" lon="4.85454">
        <ele>274</ele>
        <time>2017-03-27T10:41:25Z</time>
      </trkpt>
      <trkpt lat="45.94745" lon="4.85442">
        <ele>274</ele>
        <time>2017-03-27T10:41:26Z</time>
      </trkpt>
      <trkpt lat="45.94744" lon="4.85429">
        <ele>273</ele>
        <time>2017-03-27T10:41:27Z</time>
      </trkpt>
      <trkpt lat="45.94742" lon="4.85417">
        <ele>273</ele>
        <time>2017-03-27T10:41:28Z</time>
      </trkpt>
      <trkpt lat="45.94741" lon="4.85405">
        <ele>272</ele>
        <time>2017-03-27T10:41:29Z</time>
      </trkpt>
      <trkpt lat="45.94739" lon="4.85392">
        <ele>272</ele>
        <time>2017-03-27T10:41:30Z</time>
      </trkpt>
      <trkpt lat="45.94738" lon="4.8538">
        <ele>271</ele>
        <time>2017-03-27T10:41:31Z</time>
      </trkpt>
      <trkpt lat="45.94737" lon="4.85369">
        <ele>271</ele>
        <time>2017-03-27T10:41:32Z</time>
      </trkpt>
      <trkpt lat="45.94736" lon="4.85357">
        <ele>271</ele>
        <time>2017-03-27T10:41:33Z</time>
      </trkpt>
      <trkpt lat="45.94734" lon="4.85346">
        <ele>271</ele>
        <time>2017-03-27T10:41:34Z</time>
      </trkpt>
      <trkpt lat="45.94733" lon="4.85335">
        <ele>271</ele>
        <time>2017-03-27T10:41:35Z</time>
      </trkpt>
      <trkpt lat="45.94732" lon="4.85325">
        <ele>270</ele>
        <time>2017-03-27T10:41:36Z</time>
      </trkpt>
      <trkpt lat="45.94731" lon="4.85315">
        <ele>270</ele>
        <time>2017-03-27T10:41:37Z</time>
      </trkpt>
      <trkpt lat="45.9473" lon="4.85305">
        <ele>270</ele>
        <time>2017-03-27T10:41:38Z</time>
      </trkpt>
      <trkpt lat="45.94729" lon="4.85296">
        <ele>270</ele>
        <time>2017-03-27T10:41:39Z</time>
      </trkpt>
      <trkpt lat="45.94729" lon="4.85286">
        <ele>269</ele>
        <time>2017-03-27T10:41:40Z</time>
      </trkpt>
      <trkpt lat="45.94728" lon="4.85276">
        <ele>269</ele>
        <time>2017-03-27T10:41:41Z</time>
      </trkpt>
      <trkpt lat="45.94727" lon="4.85267">
        <ele>269</ele>
        <time>2017-03-27T10:41:42Z</time>
      </trkpt>
      <trkpt lat="45.94725" lon="4.85258">
        <ele>269</ele>
        <time>2017-03-27T10:41:43Z</time>
      </trkpt>
      <trkpt lat="45.94724" lon="4.85249">
        <ele>269</ele>
        <time>2017-03-27T10:41:44Z</time>
      </trkpt>
      <trkpt lat="45.94723" lon="4.85241">
        <ele>269</ele>
        <time>2017-03-27T10:41:45Z</time>
      </trkpt>
      <trkpt lat="45.94722" lon="4.85232">
        <ele>269</ele>
        <time>2017-03-27T10:41:46Z</time>
      </trkpt>
      <trkpt lat="45.94721" lon="4.85224">
        <ele>269</ele>
        <time>2017-03-27T10:41:47Z</time>
      </trkpt>
      <trkpt lat="45.9472" lon="4.85216">
        <ele>269</ele>
        <time>2017-03-27T10:41:48Z</time>
      </trkpt>
      <trkpt lat="45.9472" lon="4.85208">
        <ele>269</ele>
        <time>2017-03-27T10:41:49Z</time>
      </trkpt>
      <trkpt lat="45.94719" lon="4.85201">
        <ele>269</ele>
        <time>2017-03-27T10:41:50Z</time>
      </trkpt>
      <trkpt lat="45.94718" lon="4.85193">
        <ele>269</ele>
        <time>2017-03-27T10:41:51Z</time>
      </trkpt>
      <trkpt lat="45.94718" lon="4.85185">
        <ele>269</ele>
        <time>2017-03-27T10:41:52Z</time>
      </trkpt>
      <trkpt lat="45.94717" lon="4.85177">
        <ele>269</ele>
        <time>2017-03-27T10:41:53Z</time>
      </trkpt>
      <trkpt lat="45.94716" lon="4.85169">
        <ele>269</ele>
        <time>2017-03-27T10:41:54Z</time>
      </trkpt>
      <trkpt lat="45.94716" lon="4.85161">
        <ele>269</ele>
        <time>2017-03-27T10:41:55Z</time>
      </trkpt>
      <trkpt lat="45.94715" lon="4.85152">
        <ele>269</ele>
        <time>2017-03-27T10:41:56Z</time>
      </trkpt>
      <trkpt lat="45.94714" lon="4.85144">
        <ele>269</ele>
        <time>2017-03-27T10:41:57Z</time>
      </trkpt>
      <trkpt lat="45.94714" lon="4.85135">
        <ele>269</ele>
        <time>2017-03-27T10:41:58Z</time>
      </trkpt>
      <trkpt lat="45.94713" lon="4.85126">
        <ele>269</ele>
        <time>2017-03-27T10:41:59Z</time>
      </trkpt>
      <trkpt lat="45.94712" lon="4.85118">
        <ele>269</ele>
        <time>2017-03-27T10:42:00Z</time>
      </trkpt>
      <trkpt lat="45.94711" lon="4.85109">
        <ele>269</ele>
        <time>2017-03-27T10:42:01Z</time>
      </trkpt>
      <trkpt lat="45.9471" lon="4.85101">
        <ele>269</ele>
        <time>2017-03-27T10:42:02Z</time>
      </trkpt>
      <trkpt lat="45.94709" lon="4.85092">
        <ele>269</ele>
        <time>2017-03-27T10:42:03Z</time>
      </trkpt>
      <trkpt lat="45.94707" lon="4.85083">
        <ele>269</ele>
        <time>2017-03-27T10:42:04Z</time>
      </trkpt>
      <trkpt lat="45.94706" lon="4.85074">
        <ele>269</ele>
        <time>2017-03-27T10:42:05Z</time>
      </trkpt>
      <trkpt lat="45.94705" lon="4.85065">
        <ele>269</ele>
        <time>2017-03-27T10:42:06Z</time>
      </trkpt>
      <trkpt lat="45.94704" lon="4.85056">
        <ele>269</ele>
        <time>2017-03-27T10:42:07Z</time>
      </trkpt>
      <trkpt lat="45.94703" lon="4.85047">
        <ele>269</ele>
        <time>2017-03-27T10:42:08Z</time>
      </trkpt>
      <trkpt lat="45.94702" lon="4.85038">
        <ele>269</ele>
        <time>2017-03-27T10:42:09Z</time>
      </trkpt>
      <trkpt lat="45.94701" lon="4.85029">
        <ele>269</ele>
        <time>2017-03-27T10:42:10Z</time>
      </trkpt>
      <trkpt lat="45.947" lon="4.85021">
        <ele>269</ele>
        <time>2017-03-27T10:42:11Z</time>
      </trkpt>
      <trkpt lat="45.94699" lon="4.85013">
        <ele>269</ele>
        <time>2017-03-27T10:42:12Z</time>
      </trkpt>
      <trkpt lat="45.94697" lon="4.85005">
        <ele>269</ele>
        <time>2017-03-27T10:42:13Z</time>
      </trkpt>
      <trkpt lat="45.94697" lon="4.84997">
        <ele>269</ele>
        <time>2017-03-27T10:42:14Z</time>
      </trkpt>
      <trkpt lat="45.94696" lon="4.84989">
        <ele>269</ele>
        <time>2017-03-27T10:42:15Z</time>
      </trkpt>
      <trkpt lat="45.94696" lon="4.84982">
        <ele>269</ele>
        <time>2017-03-27T10:42:16Z</time>
      </trkpt>
      <trkpt lat="45.94695" lon="4.84975">
        <ele>269</ele>
        <time>2017-03-27T10:42:17Z</time>
      </trkpt>
      <trkpt lat="45.94695" lon="4.84968">
        <ele>269</ele>
        <time>2017-03-27T10:42:18Z</time>
      </trkpt>
      <trkpt lat="45.94694" lon="4.8496">
        <ele>269</ele>
        <time>2017-03-27T10:42:19Z</time>
      </trkpt>
      <trkpt lat="45.94693" lon="4.84953">
        <ele>269</ele>
        <time>2017-03-27T10:42:20Z</time>
      </trkpt>
      <trkpt lat="45.94693" lon="4.84944">
        <ele>269</ele>
        <time>2017-03-27T10:42:21Z</time>
      </trkpt>
      <trkpt lat="45.94692" lon="4.84936">
        <ele>269</ele>
        <time>2017-03-27T10:42:22Z</time>
      </trkpt>
      <trkpt lat="45.94691" lon="4.84927">
        <ele>269</ele>
        <time>2017-03-27T10:42:23Z</time>
      </trkpt>
      <trkpt lat="45.9469" lon="4.84918">
        <ele>269</ele>
        <time>2017-03-27T10:42:24Z</time>
      </trkpt>
      <trkpt lat="45.94689" lon="4.84909">
        <ele>269</ele>
        <time>2017-03-27T10:42:25Z</time>
      </trkpt>
      <trkpt lat="45.94689" lon="4.849">
        <ele>268</ele>
        <time>2017-03-27T10:42:26Z</time>
      </trkpt>
      <trkpt lat="45.94688" lon="4.84891">
        <ele>268</ele>
        <time>2017-03-27T10:42:27Z</time>
      </trkpt>
      <trkpt lat="45.94687" lon="4.84883">
        <ele>268</ele>
        <time>2017-03-27T10:42:28Z</time>
      </trkpt>
      <trkpt lat="45.94686" lon="4.84874">
        <ele>268</ele>
        <time>2017-03-27T10:42:29Z</time>
      </trkpt>
      <trkpt lat="45.94685" lon="4.84865">
        <ele>268</ele>
        <time>2017-03-27T10:42:30Z</time>
      </trkpt>
      <trkpt lat="45.94684" lon="4.84857">
        <ele>268</ele>
        <time>2017-03-27T10:42:31Z</time>
      </trkpt>
      <trkpt lat="45.94683" lon="4.84848">
        <ele>268</ele>
        <time>2017-03-27T10:42:32Z</time>
      </trkpt>
      <trkpt lat="45.94683" lon="4.84839">
        <ele>268</ele>
        <time>2017-03-27T10:42:33Z</time>
      </trkpt>
      <trkpt lat="45.94682" lon="4.84831">
        <ele>268</ele>
        <time>2017-03-27T10:42:34Z</time>
      </trkpt>
      <trkpt lat="45.94682" lon="4.84822">
        <ele>268</ele>
        <time>2017-03-27T10:42:35Z</time>
      </trkpt>
      <trkpt lat="45.94681" lon="4.84814">
        <ele>268</ele>
        <time>2017-03-27T10:42:36Z</time>
      </trkpt>
      <trkpt lat="45.9468" lon="4.84806">
        <ele>268</ele>
        <time>2017-03-27T10:42:37Z</time>
      </trkpt>
      <trkpt lat="45.9468" lon="4.84799">
        <ele>268</ele>
        <time>2017-03-27T10:42:38Z</time>
      </trkpt>
      <trkpt lat="45.94679" lon="4.84792">
        <ele>269</ele>
        <time>2017-03-27T10:42:39Z</time>
      </trkpt>
      <trkpt lat="45.94679" lon="4.84785">
        <ele>269</ele>
        <time>2017-03-27T10:42:40Z</time>
      </trkpt>
      <trkpt lat="45.94678" lon="4.84778">
        <ele>269</ele>
        <time>2017-03-27T10:42:41Z</time>
      </trkpt>
      <trkpt lat="45.94678" lon="4.8477">
        <ele>269</ele>
        <time>2017-03-27T10:42:42Z</time>
      </trkpt>
      <trkpt lat="45.94677" lon="4.84762">
        <ele>269</ele>
        <time>2017-03-27T10:42:43Z</time>
      </trkpt>
      <trkpt lat="45.94677" lon="4.84754">
        <ele>269</ele>
        <time>2017-03-27T10:42:44Z</time>
      </trkpt>
      <trkpt lat="45.94676" lon="4.84746">
        <ele>269</ele>
        <time>2017-03-27T10:42:45Z</time>
      </trkpt>
      <trkpt lat="45.94676" lon="4.84737">
        <ele>269</ele>
        <time>2017-03-27T10:42:46Z</time>
      </trkpt>
      <trkpt lat="45.94675" lon="4.84729">
        <ele>269</ele>
        <time>2017-03-27T10:42:47Z</time>
      </trkpt>
      <trkpt lat="45.94675" lon="4.8472">
        <ele>269</ele>
        <time>2017-03-27T10:42:48Z</time>
      </trkpt>
      <trkpt lat="45.94674" lon="4.84711">
        <ele>269</ele>
        <time>2017-03-27T10:42:49Z</time>
      </trkpt>
      <trkpt lat="45.94674" lon="4.84702">
        <ele>269</ele>
        <time>2017-03-27T10:42:50Z</time>
      </trkpt>
      <trkpt lat="45.94673" lon="4.84693">
        <ele>269</ele>
        <time>2017-03-27T10:42:51Z</time>
      </trkpt>
      <trkpt lat="45.94673" lon="4.84684">
        <ele>269</ele>
        <time>2017-03-27T10:42:52Z</time>
      </trkpt>
      <trkpt lat="45.94672" lon="4.84674">
        <ele>269</ele>
        <time>2017-03-27T10:42:53Z</time>
      </trkpt>
      <trkpt lat="45.94672" lon="4.84665">
        <ele>269</ele>
        <time>2017-03-27T10:42:54Z</time>
      </trkpt>
      <trkpt lat="45.94671" lon="4.84656">
        <ele>268</ele>
        <time>2017-03-27T10:42:55Z</time>
      </trkpt>
      <trkpt lat="45.94671" lon="4.84648">
        <ele>268</ele>
        <time>2017-03-27T10:42:56Z</time>
      </trkpt>
      <trkpt lat="45.9467" lon="4.84639">
        <ele>268</ele>
        <time>2017-03-27T10:42:57Z</time>
      </trkpt>
      <trkpt lat="45.9467" lon="4.84632">
        <ele>268</ele>
        <time>2017-03-27T10:42:58Z</time>
      </trkpt>
      <trkpt lat="45.9467" lon="4.84624">
        <ele>268</ele>
        <time>2017-03-27T10:42:59Z</time>
      </trkpt>
      <trkpt lat="45.9467" lon="4.84616">
        <ele>268</ele>
        <time>2017-03-27T10:43:00Z</time>
      </trkpt>
      <trkpt lat="45.94669" lon="4.84609">
        <ele>268</ele>
        <time>2017-03-27T10:43:01Z</time>
      </trkpt>
      <trkpt lat="45.94669" lon="4.84601">
        <ele>268</ele>
        <time>2017-03-27T10:43:02Z</time>
      </trkpt>
      <trkpt lat="45.94669" lon="4.84593">
        <ele>268</ele>
        <time>2017-03-27T10:43:03Z</time>
      </trkpt>
      <trkpt lat="45.94668" lon="4.84586">
        <ele>268</ele>
        <time>2017-03-27T10:43:04Z</time>
      </trkpt>
      <trkpt lat="45.94668" lon="4.84578">
        <ele>268</ele>
        <time>2017-03-27T10:43:05Z</time>
      </trkpt>
      <trkpt lat="45.94668" lon="4.84571">
        <ele>268</ele>
        <time>2017-03-27T10:43:06Z</time>
      </trkpt>
      <trkpt lat="45.94667" lon="4.84563">
        <ele>268</ele>
        <time>2017-03-27T10:43:07Z</time>
      </trkpt>
      <trkpt lat="45.94667" lon="4.84555">
        <ele>268</ele>
        <time>2017-03-27T10:43:08Z</time>
      </trkpt>
      <trkpt lat="45.94666" lon="4.84546">
        <ele>268</ele>
        <time>2017-03-27T10:43:09Z</time>
      </trkpt>
      <trkpt lat="45.94665" lon="4.84538">
        <ele>268</ele>
        <time>2017-03-27T10:43:10Z</time>
      </trkpt>
      <trkpt lat="45.94664" lon="4.84529">
        <ele>268</ele>
        <time>2017-03-27T10:43:11Z</time>
      </trkpt>
      <trkpt lat="45.94663" lon="4.8452">
        <ele>268</ele>
        <time>2017-03-27T10:43:12Z</time>
      </trkpt>
      <trkpt lat="45.94662" lon="4.84512">
        <ele>268</ele>
        <time>2017-03-27T10:43:13Z</time>
      </trkpt>
      <trkpt lat="45.94661" lon="4.84503">
        <ele>268</ele>
        <time>2017-03-27T10:43:14Z</time>
      </trkpt>
      <trkpt lat="45.94661" lon="4.84495">
        <ele>268</ele>
        <time>2017-03-27T10:43:15Z</time>
      </trkpt>
      <trkpt lat="45.9466" lon="4.84488">
        <ele>268</ele>
        <time>2017-03-27T10:43:16Z</time>
      </trkpt>
      <trkpt lat="45.94659" lon="4.8448">
        <ele>268</ele>
        <time>2017-03-27T10:43:17Z</time>
      </trkpt>
      <trkpt lat="45.94658" lon="4.84473">
        <ele>268</ele>
        <time>2017-03-27T10:43:18Z</time>
      </trkpt>
      <trkpt lat="45.94657" lon="4.84466">
        <ele>268</ele>
        <time>2017-03-27T10:43:19Z</time>
      </trkpt>
      <trkpt lat="45.94656" lon="4.84459">
        <ele>268</ele>
        <time>2017-03-27T10:43:20Z</time>
      </trkpt>
      <trkpt lat="45.94656" lon="4.84452">
        <ele>268</ele>
        <time>2017-03-27T10:43:21Z</time>
      </trkpt>
      <trkpt lat="45.94655" lon="4.84445">
        <ele>268</ele>
        <time>2017-03-27T10:43:22Z</time>
      </trkpt>
      <trkpt lat="45.94654" lon="4.84438">
        <ele>268</ele>
        <time>2017-03-27T10:43:23Z</time>
      </trkpt>
      <trkpt lat="45.94654" lon="4.84431">
        <ele>268</ele>
        <time>2017-03-27T10:43:24Z</time>
      </trkpt>
      <trkpt lat="45.94654" lon="4.84423">
        <ele>268</ele>
        <time>2017-03-27T10:43:25Z</time>
      </trkpt>
      <trkpt lat="45.94653" lon="4.84416">
        <ele>268</ele>
        <time>2017-03-27T10:43:26Z</time>
      </trkpt>
      <trkpt lat="45.94652" lon="4.84409">
        <ele>268</ele>
        <time>2017-03-27T10:43:27Z</time>
      </trkpt>
      <trkpt lat="45.94651" lon="4.84402">
        <ele>268</ele>
        <time>2017-03-27T10:43:28Z</time>
      </trkpt>
      <trkpt lat="45.94651" lon="4.84395">
        <ele>268</ele>
        <time>2017-03-27T10:43:29Z</time>
      </trkpt>
      <trkpt lat="45.9465" lon="4.84387">
        <ele>268</ele>
        <time>2017-03-27T10:43:30Z</time>
      </trkpt>
      <trkpt lat="45.94649" lon="4.8438">
        <ele>268</ele>
        <time>2017-03-27T10:43:31Z</time>
      </trkpt>
      <trkpt lat="45.94648" lon="4.84372">
        <ele>268</ele>
        <time>2017-03-27T10:43:32Z</time>
      </trkpt>
      <trkpt lat="45.94647" lon="4.84363">
        <ele>268</ele>
        <time>2017-03-27T10:43:33Z</time>
      </trkpt>
      <trkpt lat="45.94645" lon="4.84355">
        <ele>268</ele>
        <time>2017-03-27T10:43:34Z</time>
      </trkpt>
      <trkpt lat="45.94644" lon="4.84347">
        <ele>268</ele>
        <time>2017-03-27T10:43:35Z</time>
      </trkpt>
      <trkpt lat="45.94643" lon="4.84338">
        <ele>268</ele>
        <time>2017-03-27T10:43:36Z</time>
      </trkpt>
      <trkpt lat="45.94642" lon="4.8433">
        <ele>268</ele>
        <time>2017-03-27T10:43:37Z</time>
      </trkpt>
      <trkpt lat="45.94641" lon="4.84322">
        <ele>269</ele>
        <time>2017-03-27T10:43:38Z</time>
      </trkpt>
      <trkpt lat="45.9464" lon="4.84314">
        <ele>269</ele>
        <time>2017-03-27T10:43:39Z</time>
      </trkpt>
      <trkpt lat="45.94639" lon="4.84306">
        <ele>269</ele>
        <time>2017-03-27T10:43:40Z</time>
      </trkpt>
      <trkpt lat="45.94638" lon="4.84298">
        <ele>269</ele>
        <time>2017-03-27T10:43:41Z</time>
      </trkpt>
      <trkpt lat="45.94637" lon="4.8429">
        <ele>269</ele>
        <time>2017-03-27T10:43:42Z</time>
      </trkpt>
      <trkpt lat="45.94636" lon="4.84283">
        <ele>269</ele>
        <time>2017-03-27T10:43:43Z</time>
      </trkpt>
      <trkpt lat="45.94635" lon="4.84275">
        <ele>269</ele>
        <time>2017-03-27T10:43:44Z</time>
      </trkpt>
      <trkpt lat="45.94634" lon="4.84268">
        <ele>269</ele>
        <time>2017-03-27T10:43:45Z</time>
      </trkpt>
      <trkpt lat="45.94633" lon="4.8426">
        <ele>269</ele>
        <time>2017-03-27T10:43:46Z</time>
      </trkpt>
      <trkpt lat="45.94632" lon="4.84252">
        <ele>269</ele>
        <time>2017-03-27T10:43:47Z</time>
      </trkpt>
      <trkpt lat="45.9463" lon="4.84245">
        <ele>269</ele>
        <time>2017-03-27T10:43:48Z</time>
      </trkpt>
      <trkpt lat="45.94629" lon="4.84237">
        <ele>269</ele>
        <time>2017-03-27T10:43:49Z</time>
      </trkpt>
      <trkpt lat="45.94628" lon="4.84229">
        <ele>269</ele>
        <time>2017-03-27T10:43:50Z</time>
      </trkpt>
      <trkpt lat="45.94627" lon="4.84221">
        <ele>269</ele>
        <time>2017-03-27T10:43:51Z</time>
      </trkpt>
      <trkpt lat="45.94626" lon="4.84213">
        <ele>269</ele>
        <time>2017-03-27T10:43:52Z</time>
      </trkpt>
      <trkpt lat="45.94625" lon="4.84205">
        <ele>269</ele>
        <time>2017-03-27T10:43:53Z</time>
      </trkpt>
      <trkpt lat="45.94624" lon="4.84196">
        <ele>269</ele>
        <time>2017-03-27T10:43:54Z</time>
      </trkpt>
      <trkpt lat="45.94623" lon="4.84188">
        <ele>269</ele>
        <time>2017-03-27T10:43:55Z</time>
      </trkpt>
      <trkpt lat="45.94621" lon="4.8418">
        <ele>269</ele>
        <time>2017-03-27T10:43:56Z</time>
      </trkpt>
      <trkpt lat="45.9462" lon="4.84173">
        <ele>269</ele>
        <time>2017-03-27T10:43:57Z</time>
      </trkpt>
      <trkpt lat="45.94618" lon="4.84165">
        <ele>269</ele>
        <time>2017-03-27T10:43:58Z</time>
      </trkpt>
      <trkpt lat="45.94617" lon="4.84158">
        <ele>269</ele>
        <time>2017-03-27T10:43:59Z</time>
      </trkpt>
      <trkpt lat="45.94616" lon="4.84151">
        <ele>269</ele>
        <time>2017-03-27T10:44:00Z</time>
      </trkpt>
      <trkpt lat="45.94615" lon="4.84144">
        <ele>269</ele>
        <time>2017-03-27T10:44:01Z</time>
      </trkpt>
      <trkpt lat="45.94615" lon="4.84136">
        <ele>269</ele>
        <time>2017-03-27T10:44:02Z</time>
      </trkpt>
      <trkpt lat="45.94614" lon="4.84129">
        <ele>269</ele>
        <time>2017-03-27T10:44:03Z</time>
      </trkpt>
      <trkpt lat="45.94613" lon="4.84121">
        <ele>269</ele>
        <time>2017-03-27T10:44:04Z</time>
      </trkpt>
      <trkpt lat="45.94611" lon="4.84113">
        <ele>269</ele>
        <time>2017-03-27T10:44:05Z</time>
      </trkpt>
      <trkpt lat="45.9461" lon="4.84105">
        <ele>269</ele>
        <time>2017-03-27T10:44:06Z</time>
      </trkpt>
      <trkpt lat="45.94609" lon="4.84097">
        <ele>269</ele>
        <time>2017-03-27T10:44:07Z</time>
      </trkpt>
      <trkpt lat="45.94607" lon="4.84088">
        <ele>269</ele>
        <time>2017-03-27T10:44:08Z</time>
      </trkpt>
      <trkpt lat="45.94606" lon="4.8408">
        <ele>269</ele>
        <time>2017-03-27T10:44:09Z</time>
      </trkpt>
      <trkpt lat="45.94605" lon="4.84072">
        <ele>269</ele>
        <time>2017-03-27T10:44:10Z</time>
      </trkpt>
      <trkpt lat="45.94604" lon="4.84064">
        <ele>269</ele>
        <time>2017-03-27T10:44:11Z</time>
      </trkpt>
      <trkpt lat="45.94603" lon="4.84056">
        <ele>269</ele>
        <time>2017-03-27T10:44:12Z</time>
      </trkpt>
      <trkpt lat="45.94602" lon="4.84049">
        <ele>269</ele>
        <time>2017-03-27T10:44:13Z</time>
      </trkpt>
      <trkpt lat="45.94601" lon="4.84041">
        <ele>269</ele>
        <time>2017-03-27T10:44:14Z</time>
      </trkpt>
      <trkpt lat="45.94599" lon="4.84034">
        <ele>269</ele>
        <time>2017-03-27T10:44:15Z</time>
      </trkpt>
      <trkpt lat="45.94598" lon="4.84028">
        <ele>269</ele>
        <time>2017-03-27T10:44:16Z</time>
      </trkpt>
      <trkpt lat="45.94597" lon="4.84022">
        <ele>269</ele>
        <time>2017-03-27T10:44:17Z</time>
      </trkpt>
      <trkpt lat="45.94596" lon="4.84015">
        <ele>269</ele>
        <time>2017-03-27T10:44:18Z</time>
      </trkpt>
      <trkpt lat="45.94595" lon="4.84008">
        <ele>269</ele>
        <time>2017-03-27T10:44:19Z</time>
      </trkpt>
      <trkpt lat="45.94594" lon="4.84001">
        <ele>269</ele>
        <time>2017-03-27T10:44:20Z</time>
      </trkpt>
      <trkpt lat="45.94593" lon="4.83994">
        <ele>269</ele>
        <time>2017-03-27T10:44:21Z</time>
      </trkpt>
      <trkpt lat="45.94592" lon="4.83987">
        <ele>269</ele>
        <time>2017-03-27T10:44:22Z</time>
      </trkpt>
      <trkpt lat="45.94591" lon="4.83979">
        <ele>268</ele>
        <time>2017-03-27T10:44:23Z</time>
      </trkpt>
      <trkpt lat="45.94589" lon="4.83971">
        <ele>268</ele>
        <time>2017-03-27T10:44:24Z</time>
      </trkpt>
      <trkpt lat="45.94588" lon="4.83963">
        <ele>268</ele>
        <time>2017-03-27T10:44:25Z</time>
      </trkpt>
      <trkpt lat="45.94587" lon="4.83955">
        <ele>268</ele>
        <time>2017-03-27T10:44:26Z</time>
      </trkpt>
      <trkpt lat="45.94585" lon="4.83947">
        <ele>268</ele>
        <time>2017-03-27T10:44:27Z</time>
      </trkpt>
      <trkpt lat="45.94585" lon="4.83939">
        <ele>268</ele>
        <time>2017-03-27T10:44:28Z</time>
      </trkpt>
      <trkpt lat="45.94584" lon="4.8393">
        <ele>268</ele>
        <time>2017-03-27T10:44:29Z</time>
      </trkpt>
      <trkpt lat="45.94582" lon="4.83922">
        <ele>268</ele>
        <time>2017-03-27T10:44:30Z</time>
      </trkpt>
      <trkpt lat="45.94582" lon="4.83913">
        <ele>268</ele>
        <time>2017-03-27T10:44:31Z</time>
      </trkpt>
      <trkpt lat="45.9458" lon="4.83904">
        <ele>268</ele>
        <time>2017-03-27T10:44:32Z</time>
      </trkpt>
      <trkpt lat="45.94579" lon="4.83895">
        <ele>267</ele>
        <time>2017-03-27T10:44:33Z</time>
      </trkpt>
      <trkpt lat="45.94578" lon="4.83885">
        <ele>267</ele>
        <time>2017-03-27T10:44:34Z</time>
      </trkpt>
      <trkpt lat="45.94576" lon="4.83875">
        <ele>267</ele>
        <time>2017-03-27T10:44:35Z</time>
      </trkpt>
      <trkpt lat="45.94575" lon="4.83865">
        <ele>267</ele>
        <time>2017-03-27T10:44:36Z</time>
      </trkpt>
      <trkpt lat="45.94574" lon="4.83855">
        <ele>266</ele>
        <time>2017-03-27T10:44:37Z</time>
      </trkpt>
      <trkpt lat="45.94572" lon="4.83845">
        <ele>266</ele>
        <time>2017-03-27T10:44:38Z</time>
      </trkpt>
      <trkpt lat="45.9457" lon="4.83835">
        <ele>266</ele>
        <time>2017-03-27T10:44:39Z</time>
      </trkpt>
      <trkpt lat="45.94569" lon="4.83825">
        <ele>265</ele>
        <time>2017-03-27T10:44:40Z</time>
      </trkpt>
      <trkpt lat="45.94567" lon="4.83815">
        <ele>264</ele>
        <time>2017-03-27T10:44:41Z</time>
      </trkpt>
      <trkpt lat="45.94565" lon="4.83804">
        <ele>264</ele>
        <time>2017-03-27T10:44:42Z</time>
      </trkpt>
      <trkpt lat="45.94564" lon="4.83795">
        <ele>264</ele>
        <time>2017-03-27T10:44:43Z</time>
      </trkpt>
      <trkpt lat="45.94562" lon="4.83785">
        <ele>264</ele>
        <time>2017-03-27T10:44:44Z</time>
      </trkpt>
      <trkpt lat="45.94561" lon="4.83775">
        <ele>264</ele>
        <time>2017-03-27T10:44:45Z</time>
      </trkpt>
      <trkpt lat="45.94559" lon="4.83765">
        <ele>263</ele>
        <time>2017-03-27T10:44:46Z</time>
      </trkpt>
      <trkpt lat="45.94557" lon="4.83755">
        <ele>263</ele>
        <time>2017-03-27T10:44:47Z</time>
      </trkpt>
      <trkpt lat="45.94556" lon="4.83746">
        <ele>262</ele>
        <time>2017-03-27T10:44:48Z</time>
      </trkpt>
      <trkpt lat="45.94554" lon="4.83737">
        <ele>262</ele>
        <time>2017-03-27T10:44:49Z</time>
      </trkpt>
      <trkpt lat="45.94552" lon="4.83729">
        <ele>262</ele>
        <time>2017-03-27T10:44:50Z</time>
      </trkpt>
      <trkpt lat="45.94551" lon="4.83721">
        <ele>262</ele>
        <time>2017-03-27T10:44:51Z</time>
      </trkpt>
      <trkpt lat="45.94549" lon="4.83714">
        <ele>262</ele>
        <time>2017-03-27T10:44:52Z</time>
      </trkpt>
      <trkpt lat="45.94548" lon="4.83706">
        <ele>262</ele>
        <time>2017-03-27T10:44:53Z</time>
      </trkpt>
      <trkpt lat="45.94546" lon="4.83698">
        <ele>262</ele>
        <time>2017-03-27T10:44:54Z</time>
      </trkpt>
      <trkpt lat="45.94545" lon="4.8369">
        <ele>262</ele>
        <time>2017-03-27T10:44:55Z</time>
      </trkpt>
      <trkpt lat="45.94544" lon="4.83682">
        <ele>262</ele>
        <time>2017-03-27T10:44:56Z</time>
      </trkpt>
      <trkpt lat="45.94542" lon="4.83674">
        <ele>262</ele>
        <time>2017-03-27T10:44:57Z</time>
      </trkpt>
      <trkpt lat="45.94541" lon="4.83666">
        <ele>261</ele>
        <time>2017-03-27T10:44:58Z</time>
      </trkpt>
      <trkpt lat="45.9454" lon="4.83658">
        <ele>261</ele>
        <time>2017-03-27T10:44:59Z</time>
      </trkpt>
      <trkpt lat="45.94539" lon="4.83651">
        <ele>261</ele>
        <time>2017-03-27T10:45:00Z</time>
      </trkpt>
      <trkpt lat="45.94538" lon="4.83643">
        <ele>261</ele>
        <time>2017-03-27T10:45:01Z</time>
      </trkpt>
      <trkpt lat="45.94537" lon="4.83634">
        <ele>261</ele>
        <time>2017-03-27T10:45:02Z</time>
      </trkpt>
      <trkpt lat="45.94536" lon="4.83626">
        <ele>261</ele>
        <time>2017-03-27T10:45:03Z</time>
      </trkpt>
      <trkpt lat="45.94534" lon="4.83618">
        <ele>261</ele>
        <time>2017-03-27T10:45:04Z</time>
      </trkpt>
      <trkpt lat="45.94533" lon="4.83611">
        <ele>261</ele>
        <time>2017-03-27T10:45:05Z</time>
      </trkpt>
      <trkpt lat="45.94531" lon="4.83603">
        <ele>261</ele>
        <time>2017-03-27T10:45:06Z</time>
      </trkpt>
      <trkpt lat="45.94529" lon="4.83595">
        <ele>261</ele>
        <time>2017-03-27T10:45:07Z</time>
      </trkpt>
      <trkpt lat="45.94527" lon="4.83587">
        <ele>261</ele>
        <time>2017-03-27T10:45:08Z</time>
      </trkpt>
      <trkpt lat="45.94525" lon="4.83579">
        <ele>261</ele>
        <time>2017-03-27T10:45:09Z</time>
      </trkpt>
      <trkpt lat="45.94523" lon="4.83572">
        <ele>261</ele>
        <time>2017-03-27T10:45:10Z</time>
      </trkpt>
      <trkpt lat="45.94521" lon="4.83566">
        <ele>261</ele>
        <time>2017-03-27T10:45:11Z</time>
      </trkpt>
      <trkpt lat="45.94519" lon="4.8356">
        <ele>261</ele>
        <time>2017-03-27T10:45:12Z</time>
      </trkpt>
      <trkpt lat="45.94517" lon="4.83554">
        <ele>261</ele>
        <time>2017-03-27T10:45:13Z</time>
      </trkpt>
      <trkpt lat="45.94514" lon="4.83549">
        <ele>261</ele>
        <time>2017-03-27T10:45:14Z</time>
      </trkpt>
      <trkpt lat="45.94511" lon="4.83543">
        <ele>261</ele>
        <time>2017-03-27T10:45:15Z</time>
      </trkpt>
      <trkpt lat="45.94508" lon="4.83538">
        <ele>262</ele>
        <time>2017-03-27T10:45:16Z</time>
      </trkpt>
      <trkpt lat="45.94505" lon="4.83533">
        <ele>262</ele>
        <time>2017-03-27T10:45:17Z</time>
      </trkpt>
      <trkpt lat="45.94502" lon="4.83528">
        <ele>262</ele>
        <time>2017-03-27T10:45:18Z</time>
      </trkpt>
      <trkpt lat="45.94499" lon="4.83523">
        <ele>262</ele>
        <time>2017-03-27T10:45:19Z</time>
      </trkpt>
      <trkpt lat="45.94496" lon="4.83517">
        <ele>262</ele>
        <time>2017-03-27T10:45:20Z</time>
      </trkpt>
      <trkpt lat="45.94493" lon="4.83512">
        <ele>262</ele>
        <time>2017-03-27T10:45:21Z</time>
      </trkpt>
      <trkpt lat="45.94489" lon="4.83507">
        <ele>262</ele>
        <time>2017-03-27T10:45:22Z</time>
      </trkpt>
      <trkpt lat="45.94486" lon="4.83501">
        <ele>262</ele>
        <time>2017-03-27T10:45:23Z</time>
      </trkpt>
      <trkpt lat="45.94482" lon="4.83495">
        <ele>263</ele>
        <time>2017-03-27T10:45:24Z</time>
      </trkpt>
      <trkpt lat="45.94478" lon="4.83489">
        <ele>263</ele>
        <time>2017-03-27T10:45:25Z</time>
      </trkpt>
      <trkpt lat="45.94474" lon="4.83482">
        <ele>263</ele>
        <time>2017-03-27T10:45:26Z</time>
      </trkpt>
      <trkpt lat="45.94471" lon="4.83476">
        <ele>263</ele>
        <time>2017-03-27T10:45:27Z</time>
      </trkpt>
      <trkpt lat="45.94468" lon="4.8347">
        <ele>263</ele>
        <time>2017-03-27T10:45:28Z</time>
      </trkpt>
      <trkpt lat="45.94464" lon="4.83464">
        <ele>263</ele>
        <time>2017-03-27T10:45:29Z</time>
      </trkpt>
      <trkpt lat="45.94461" lon="4.83459">
        <ele>263</ele>
        <time>2017-03-27T10:45:30Z</time>
      </trkpt>
      <trkpt lat="45.94458" lon="4.83454">
        <ele>263</ele>
        <time>2017-03-27T10:45:31Z</time>
      </trkpt>
      <trkpt lat="45.94456" lon="4.83449">
        <ele>263</ele>
        <time>2017-03-27T10:45:32Z</time>
      </trkpt>
      <trkpt lat="45.94453" lon="4.83443">
        <ele>263</ele>
        <time>2017-03-27T10:45:33Z</time>
      </trkpt>
      <trkpt lat="45.9445" lon="4.83438">
        <ele>263</ele>
        <time>2017-03-27T10:45:34Z</time>
      </trkpt>
      <trkpt lat="45.94447" lon="4.83432">
        <ele>263</ele>
        <time>2017-03-27T10:45:35Z</time>
      </trkpt>
      <trkpt lat="45.94444" lon="4.83427">
        <ele>264</ele>
        <time>2017-03-27T10:45:36Z</time>
      </trkpt>
      <trkpt lat="45.94442" lon="4.83422">
        <ele>264</ele>
        <time>2017-03-27T10:45:37Z</time>
      </trkpt>
      <trkpt lat="45.94439" lon="4.83416">
        <ele>264</ele>
        <time>2017-03-27T10:45:38Z</time>
      </trkpt>
      <trkpt lat="45.94436" lon="4.8341">
        <ele>264</ele>
        <time>2017-03-27T10:45:39Z</time>
      </trkpt>
      <trkpt lat="45.94433" lon="4.83404">
        <ele>264</ele>
        <time>2017-03-27T10:45:40Z</time>
      </trkpt>
      <trkpt lat="45.9443" lon="4.83398">
        <ele>264</ele>
        <time>2017-03-27T10:45:41Z</time>
      </trkpt>
      <trkpt lat="45.94427" lon="4.83393">
        <ele>264</ele>
        <time>2017-03-27T10:45:42Z</time>
      </trkpt>
      <trkpt lat="45.94424" lon="4.83387">
        <ele>264</ele>
        <time>2017-03-27T10:45:43Z</time>
      </trkpt>
      <trkpt lat="45.94422" lon="4.83382">
        <ele>264</ele>
        <time>2017-03-27T10:45:44Z</time>
      </trkpt>
      <trkpt lat="45.94419" lon="4.83376">
        <ele>264</ele>
        <time>2017-03-27T10:45:45Z</time>
      </trkpt>
      <trkpt lat="45.94417" lon="4.8337">
        <ele>264</ele>
        <time>2017-03-27T10:45:46Z</time>
      </trkpt>
      <trkpt lat="45.94415" lon="4.83365">
        <ele>264</ele>
        <time>2017-03-27T10:45:47Z</time>
      </trkpt>
      <trkpt lat="45.94412" lon="4.83359">
        <ele>264</ele>
        <time>2017-03-27T10:45:48Z</time>
      </trkpt>
      <trkpt lat="45.9441" lon="4.83354">
        <ele>263</ele>
        <time>2017-03-27T10:45:49Z</time>
      </trkpt>
      <trkpt lat="45.94407" lon="4.83348">
        <ele>263</ele>
        <time>2017-03-27T10:45:50Z</time>
      </trkpt>
      <trkpt lat="45.94405" lon="4.83342">
        <ele>263</ele>
        <time>2017-03-27T10:45:51Z</time>
      </trkpt>
      <trkpt lat="45.944" lon="4.83331">
        <ele>264</ele>
        <time>2017-03-27T10:45:53Z</time>
      </trkpt>
      <trkpt lat="45.94398" lon="4.83325">
        <ele>264</ele>
        <time>2017-03-27T10:45:54Z</time>
      </trkpt>
      <trkpt lat="45.94395" lon="4.83319">
        <ele>264</ele>
        <time>2017-03-27T10:45:55Z</time>
      </trkpt>
      <trkpt lat="45.94393" lon="4.83314">
        <ele>264</ele>
        <time>2017-03-27T10:45:56Z</time>
      </trkpt>
      <trkpt lat="45.94391" lon="4.83307">
        <ele>264</ele>
        <time>2017-03-27T10:45:57Z</time>
      </trkpt>
      <trkpt lat="45.94389" lon="4.83301">
        <ele>264</ele>
        <time>2017-03-27T10:45:58Z</time>
      </trkpt>
      <trkpt lat="45.94387" lon="4.83295">
        <ele>264</ele>
        <time>2017-03-27T10:45:59Z</time>
      </trkpt>
      <trkpt lat="45.94385" lon="4.83289">
        <ele>264</ele>
        <time>2017-03-27T10:46:00Z</time>
      </trkpt>
      <trkpt lat="45.94383" lon="4.83283">
        <ele>264</ele>
        <time>2017-03-27T10:46:01Z</time>
      </trkpt>
      <trkpt lat="45.9438" lon="4.83276">
        <ele>264</ele>
        <time>2017-03-27T10:46:02Z</time>
      </trkpt>
      <trkpt lat="45.94378" lon="4.8327">
        <ele>264</ele>
        <time>2017-03-27T10:46:03Z</time>
      </trkpt>
      <trkpt lat="45.94376" lon="4.83264">
        <ele>264</ele>
        <time>2017-03-27T10:46:04Z</time>
      </trkpt>
      <trkpt lat="45.94372" lon="4.83252">
        <ele>265</ele>
        <time>2017-03-27T10:46:06Z</time>
      </trkpt>
      <trkpt lat="45.9437" lon="4.83247">
        <ele>265</ele>
        <time>2017-03-27T10:46:07Z</time>
      </trkpt>
      <trkpt lat="45.94369" lon="4.83241">
        <ele>265</ele>
        <time>2017-03-27T10:46:08Z</time>
      </trkpt>
      <trkpt lat="45.94367" lon="4.83234">
        <ele>266</ele>
        <time>2017-03-27T10:46:09Z</time>
      </trkpt>
      <trkpt lat="45.94364" lon="4.83228">
        <ele>266</ele>
        <time>2017-03-27T10:46:10Z</time>
      </trkpt>
      <trkpt lat="45.94362" lon="4.83222">
        <ele>266</ele>
        <time>2017-03-27T10:46:11Z</time>
      </trkpt>
      <trkpt lat="45.9436" lon="4.83216">
        <ele>266</ele>
        <time>2017-03-27T10:46:12Z</time>
      </trkpt>
      <trkpt lat="45.94358" lon="4.83209">
        <ele>266</ele>
        <time>2017-03-27T10:46:13Z</time>
      </trkpt>
      <trkpt lat="45.94356" lon="4.83203">
        <ele>266</ele>
        <time>2017-03-27T10:46:14Z</time>
      </trkpt>
      <trkpt lat="45.94353" lon="4.83197">
        <ele>266</ele>
        <time>2017-03-27T10:46:15Z</time>
      </trkpt>
      <trkpt lat="45.94351" lon="4.83191">
        <ele>266</ele>
        <time>2017-03-27T10:46:16Z</time>
      </trkpt>
      <trkpt lat="45.94349" lon="4.83185">
        <ele>266</ele>
        <time>2017-03-27T10:46:17Z</time>
      </trkpt>
      <trkpt lat="45.94345" lon="4.83174">
        <ele>266</ele>
        <time>2017-03-27T10:46:19Z</time>
      </trkpt>
      <trkpt lat="45.94343" lon="4.83168">
        <ele>266</ele>
        <time>2017-03-27T10:46:20Z</time>
      </trkpt>
      <trkpt lat="45.94341" lon="4.83161">
        <ele>266</ele>
        <time>2017-03-27T10:46:21Z</time>
      </trkpt>
      <trkpt lat="45.94339" lon="4.83154">
        <ele>266</ele>
        <time>2017-03-27T10:46:22Z</time>
      </trkpt>
      <trkpt lat="45.94337" lon="4.83147">
        <ele>266</ele>
        <time>2017-03-27T10:46:23Z</time>
      </trkpt>
      <trkpt lat="45.94334" lon="4.8314">
        <ele>266</ele>
        <time>2017-03-27T10:46:24Z</time>
      </trkpt>
      <trkpt lat="45.94332" lon="4.83133">
        <ele>266</ele>
        <time>2017-03-27T10:46:25Z</time>
      </trkpt>
      <trkpt lat="45.94329" lon="4.83125">
        <ele>266</ele>
        <time>2017-03-27T10:46:26Z</time>
      </trkpt>
      <trkpt lat="45.94326" lon="4.83119">
        <ele>266</ele>
        <time>2017-03-27T10:46:27Z</time>
      </trkpt>
      <trkpt lat="45.94324" lon="4.83112">
        <ele>266</ele>
        <time>2017-03-27T10:46:28Z</time>
      </trkpt>
      <trkpt lat="45.94322" lon="4.83105">
        <ele>266</ele>
        <time>2017-03-27T10:46:29Z</time>
      </trkpt>
      <trkpt lat="45.9432" lon="4.83099">
        <ele>266</ele>
        <time>2017-03-27T10:46:30Z</time>
      </trkpt>
      <trkpt lat="45.94318" lon="4.83093">
        <ele>266</ele>
        <time>2017-03-27T10:46:31Z</time>
      </trkpt>
      <trkpt lat="45.94316" lon="4.83087">
        <ele>266</ele>
        <time>2017-03-27T10:46:32Z</time>
      </trkpt>
      <trkpt lat="45.94315" lon="4.83081">
        <ele>266</ele>
        <time>2017-03-27T10:46:33Z</time>
      </trkpt>
      <trkpt lat="45.94313" lon="4.83074">
        <ele>266</ele>
        <time>2017-03-27T10:46:34Z</time>
      </trkpt>
      <trkpt lat="45.94312" lon="4.83068">
        <ele>266</ele>
        <time>2017-03-27T10:46:35Z</time>
      </trkpt>
      <trkpt lat="45.9431" lon="4.83062">
        <ele>266</ele>
        <time>2017-03-27T10:46:36Z</time>
      </trkpt>
      <trkpt lat="45.94309" lon="4.83055">
        <ele>266</ele>
        <time>2017-03-27T10:46:37Z</time>
      </trkpt>
      <trkpt lat="45.94307" lon="4.83048">
        <ele>266</ele>
        <time>2017-03-27T10:46:38Z</time>
      </trkpt>
      <trkpt lat="45.94306" lon="4.83042">
        <ele>266</ele>
        <time>2017-03-27T10:46:39Z</time>
      </trkpt>
      <trkpt lat="45.94304" lon="4.83035">
        <ele>266</ele>
        <time>2017-03-27T10:46:40Z</time>
      </trkpt>
      <trkpt lat="45.94302" lon="4.83028">
        <ele>266</ele>
        <time>2017-03-27T10:46:41Z</time>
      </trkpt>
      <trkpt lat="45.94301" lon="4.83021">
        <ele>266</ele>
        <time>2017-03-27T10:46:42Z</time>
      </trkpt>
      <trkpt lat="45.94299" lon="4.83014">
        <ele>266</ele>
        <time>2017-03-27T10:46:43Z</time>
      </trkpt>
      <trkpt lat="45.94298" lon="4.83008">
        <ele>266</ele>
        <time>2017-03-27T10:46:44Z</time>
      </trkpt>
      <trkpt lat="45.94297" lon="4.83001">
        <ele>266</ele>
        <time>2017-03-27T10:46:45Z</time>
      </trkpt>
      <trkpt lat="45.94295" lon="4.82994">
        <ele>265</ele>
        <time>2017-03-27T10:46:46Z</time>
      </trkpt>
      <trkpt lat="45.94294" lon="4.82987">
        <ele>265</ele>
        <time>2017-03-27T10:46:47Z</time>
      </trkpt>
      <trkpt lat="45.94292" lon="4.82981">
        <ele>265</ele>
        <time>2017-03-27T10:46:48Z</time>
      </trkpt>
      <trkpt lat="45.94289" lon="4.82974">
        <ele>265</ele>
        <time>2017-03-27T10:46:49Z</time>
      </trkpt>
      <trkpt lat="45.94287" lon="4.82967">
        <ele>265</ele>
        <time>2017-03-27T10:46:50Z</time>
      </trkpt>
      <trkpt lat="45.94285" lon="4.82961">
        <ele>265</ele>
        <time>2017-03-27T10:46:51Z</time>
      </trkpt>
      <trkpt lat="45.94283" lon="4.82953">
        <ele>265</ele>
        <time>2017-03-27T10:46:52Z</time>
      </trkpt>
      <trkpt lat="45.94282" lon="4.82945">
        <ele>265</ele>
        <time>2017-03-27T10:46:53Z</time>
      </trkpt>
      <trkpt lat="45.94282" lon="4.82938">
        <ele>265</ele>
        <time>2017-03-27T10:46:54Z</time>
      </trkpt>
      <trkpt lat="45.94284" lon="4.82931">
        <ele>265</ele>
        <time>2017-03-27T10:46:55Z</time>
      </trkpt>
      <trkpt lat="45.94285" lon="4.82923">
        <ele>265</ele>
        <time>2017-03-27T10:46:56Z</time>
      </trkpt>
      <trkpt lat="45.94286" lon="4.82915">
        <ele>265</ele>
        <time>2017-03-27T10:46:57Z</time>
      </trkpt>
      <trkpt lat="45.94287" lon="4.82908">
        <ele>265</ele>
        <time>2017-03-27T10:46:58Z</time>
      </trkpt>
      <trkpt lat="45.94288" lon="4.82901">
        <ele>265</ele>
        <time>2017-03-27T10:46:59Z</time>
      </trkpt>
      <trkpt lat="45.94289" lon="4.82893">
        <ele>265</ele>
        <time>2017-03-27T10:47:00Z</time>
      </trkpt>
      <trkpt lat="45.94289" lon="4.82886">
        <ele>265</ele>
        <time>2017-03-27T10:47:01Z</time>
      </trkpt>
      <trkpt lat="45.9429" lon="4.82878">
        <ele>265</ele>
        <time>2017-03-27T10:47:02Z</time>
      </trkpt>
      <trkpt lat="45.94291" lon="4.8287">
        <ele>265</ele>
        <time>2017-03-27T10:47:03Z</time>
      </trkpt>
      <trkpt lat="45.94291" lon="4.82863">
        <ele>265</ele>
        <time>2017-03-27T10:47:04Z</time>
      </trkpt>
      <trkpt lat="45.94291" lon="4.82854">
        <ele>265</ele>
        <time>2017-03-27T10:47:05Z</time>
      </trkpt>
      <trkpt lat="45.94291" lon="4.82846">
        <ele>265</ele>
        <time>2017-03-27T10:47:06Z</time>
      </trkpt>
      <trkpt lat="45.94291" lon="4.82838">
        <ele>265</ele>
        <time>2017-03-27T10:47:07Z</time>
      </trkpt>
      <trkpt lat="45.94291" lon="4.8283">
        <ele>265</ele>
        <time>2017-03-27T10:47:08Z</time>
      </trkpt>
      <trkpt lat="45.94291" lon="4.82822">
        <ele>265</ele>
        <time>2017-03-27T10:47:09Z</time>
      </trkpt>
      <trkpt lat="45.94291" lon="4.82813">
        <ele>265</ele>
        <time>2017-03-27T10:47:10Z</time>
      </trkpt>
      <trkpt lat="45.94292" lon="4.82805">
        <ele>265</ele>
        <time>2017-03-27T10:47:11Z</time>
      </trkpt>
      <trkpt lat="45.94292" lon="4.82797">
        <ele>265</ele>
        <time>2017-03-27T10:47:12Z</time>
      </trkpt>
      <trkpt lat="45.94292" lon="4.82789">
        <ele>265</ele>
        <time>2017-03-27T10:47:13Z</time>
      </trkpt>
      <trkpt lat="45.94292" lon="4.8278">
        <ele>265</ele>
        <time>2017-03-27T10:47:14Z</time>
      </trkpt>
      <trkpt lat="45.94292" lon="4.82771">
        <ele>265</ele>
        <time>2017-03-27T10:47:15Z</time>
      </trkpt>
      <trkpt lat="45.94292" lon="4.82763">
        <ele>265</ele>
        <time>2017-03-27T10:47:16Z</time>
      </trkpt>
      <trkpt lat="45.94293" lon="4.82755">
        <ele>265</ele>
        <time>2017-03-27T10:47:17Z</time>
      </trkpt>
      <trkpt lat="45.94293" lon="4.82747">
        <ele>265</ele>
        <time>2017-03-27T10:47:18Z</time>
      </trkpt>
      <trkpt lat="45.94293" lon="4.82739">
        <ele>265</ele>
        <time>2017-03-27T10:47:19Z</time>
      </trkpt>
      <trkpt lat="45.94293" lon="4.82732">
        <ele>265</ele>
        <time>2017-03-27T10:47:20Z</time>
      </trkpt>
      <trkpt lat="45.94293" lon="4.82724">
        <ele>265</ele>
        <time>2017-03-27T10:47:21Z</time>
      </trkpt>
      <trkpt lat="45.94293" lon="4.82718">
        <ele>265</ele>
        <time>2017-03-27T10:47:22Z</time>
      </trkpt>
      <trkpt lat="45.94294" lon="4.8271">
        <ele>265</ele>
        <time>2017-03-27T10:47:23Z</time>
      </trkpt>
      <trkpt lat="45.94293" lon="4.82701">
        <ele>265</ele>
        <time>2017-03-27T10:47:24Z</time>
      </trkpt>
      <trkpt lat="45.94293" lon="4.82693">
        <ele>265</ele>
        <time>2017-03-27T10:47:25Z</time>
      </trkpt>
      <trkpt lat="45.94293" lon="4.82685">
        <ele>265</ele>
        <time>2017-03-27T10:47:26Z</time>
      </trkpt>
      <trkpt lat="45.94293" lon="4.82676">
        <ele>265</ele>
        <time>2017-03-27T10:47:27Z</time>
      </trkpt>
      <trkpt lat="45.94294" lon="4.82667">
        <ele>265</ele>
        <time>2017-03-27T10:47:28Z</time>
      </trkpt>
      <trkpt lat="45.94294" lon="4.82659">
        <ele>265</ele>
        <time>2017-03-27T10:47:29Z</time>
      </trkpt>
      <trkpt lat="45.94294" lon="4.82651">
        <ele>265</ele>
        <time>2017-03-27T10:47:30Z</time>
      </trkpt>
      <trkpt lat="45.94294" lon="4.82642">
        <ele>265</ele>
        <time>2017-03-27T10:47:31Z</time>
      </trkpt>
      <trkpt lat="45.94294" lon="4.82634">
        <ele>265</ele>
        <time>2017-03-27T10:47:32Z</time>
      </trkpt>
      <trkpt lat="45.94294" lon="4.82626">
        <ele>265</ele>
        <time>2017-03-27T10:47:33Z</time>
      </trkpt>
      <trkpt lat="45.94294" lon="4.82619">
        <ele>265</ele>
        <time>2017-03-27T10:47:34Z</time>
      </trkpt>
      <trkpt lat="45.94294" lon="4.82611">
        <ele>265</ele>
        <time>2017-03-27T10:47:35Z</time>
      </trkpt>
      <trkpt lat="45.94294" lon="4.82604">
        <ele>265</ele>
        <time>2017-03-27T10:47:36Z</time>
      </trkpt>
      <trkpt lat="45.94294" lon="4.82596">
        <ele>265</ele>
        <time>2017-03-27T10:47:37Z</time>
      </trkpt>
      <trkpt lat="45.94294" lon="4.82588">
        <ele>265</ele>
        <time>2017-03-27T10:47:38Z</time>
      </trkpt>
      <trkpt lat="45.94294" lon="4.82579">
        <ele>264</ele>
        <time>2017-03-27T10:47:39Z</time>
      </trkpt>
      <trkpt lat="45.94295" lon="4.82571">
        <ele>264</ele>
        <time>2017-03-27T10:47:40Z</time>
      </trkpt>
      <trkpt lat="45.94295" lon="4.82562">
        <ele>264</ele>
        <time>2017-03-27T10:47:41Z</time>
      </trkpt>
      <trkpt lat="45.94295" lon="4.82553">
        <ele>264</ele>
        <time>2017-03-27T10:47:42Z</time>
      </trkpt>
      <trkpt lat="45.94295" lon="4.82544">
        <ele>264</ele>
        <time>2017-03-27T10:47:43Z</time>
      </trkpt>
      <trkpt lat="45.94295" lon="4.82535">
        <ele>264</ele>
        <time>2017-03-27T10:47:44Z</time>
      </trkpt>
      <trkpt lat="45.94295" lon="4.82526">
        <ele>264</ele>
        <time>2017-03-27T10:47:45Z</time>
      </trkpt>
      <trkpt lat="45.94295" lon="4.82517">
        <ele>264</ele>
        <time>2017-03-27T10:47:46Z</time>
      </trkpt>
      <trkpt lat="45.94295" lon="4.82508">
        <ele>264</ele>
        <time>2017-03-27T10:47:47Z</time>
      </trkpt>
      <trkpt lat="45.94295" lon="4.82499">
        <ele>264</ele>
        <time>2017-03-27T10:47:48Z</time>
      </trkpt>
      <trkpt lat="45.94295" lon="4.8249">
        <ele>264</ele>
        <time>2017-03-27T10:47:49Z</time>
      </trkpt>
      <trkpt lat="45.94295" lon="4.82482">
        <ele>264</ele>
        <time>2017-03-27T10:47:50Z</time>
      </trkpt>
      <trkpt lat="45.94295" lon="4.82473">
        <ele>264</ele>
        <time>2017-03-27T10:47:51Z</time>
      </trkpt>
      <trkpt lat="45.94294" lon="4.82464">
        <ele>264</ele>
        <time>2017-03-27T10:47:52Z</time>
      </trkpt>
      <trkpt lat="45.94294" lon="4.82455">
        <ele>264</ele>
        <time>2017-03-27T10:47:53Z</time>
      </trkpt>
      <trkpt lat="45.94293" lon="4.82447">
        <ele>264</ele>
        <time>2017-03-27T10:47:54Z</time>
      </trkpt>
      <trkpt lat="45.94293" lon="4.82438">
        <ele>264</ele>
        <time>2017-03-27T10:47:55Z</time>
      </trkpt>
      <trkpt lat="45.94293" lon="4.82429">
        <ele>264</ele>
        <time>2017-03-27T10:47:56Z</time>
      </trkpt>
      <trkpt lat="45.94292" lon="4.8242">
        <ele>264</ele>
        <time>2017-03-27T10:47:57Z</time>
      </trkpt>
      <trkpt lat="45.94292" lon="4.82411">
        <ele>264</ele>
        <time>2017-03-27T10:47:58Z</time>
      </trkpt>
      <trkpt lat="45.94291" lon="4.82403">
        <ele>264</ele>
        <time>2017-03-27T10:47:59Z</time>
      </trkpt>
      <trkpt lat="45.94291" lon="4.82394">
        <ele>264</ele>
        <time>2017-03-27T10:48:00Z</time>
      </trkpt>
      <trkpt lat="45.94291" lon="4.82385">
        <ele>264</ele>
        <time>2017-03-27T10:48:01Z</time>
      </trkpt>
      <trkpt lat="45.9429" lon="4.82377">
        <ele>264</ele>
        <time>2017-03-27T10:48:02Z</time>
      </trkpt>
      <trkpt lat="45.9429" lon="4.82368">
        <ele>264</ele>
        <time>2017-03-27T10:48:03Z</time>
      </trkpt>
      <trkpt lat="45.94289" lon="4.82359">
        <ele>264</ele>
        <time>2017-03-27T10:48:04Z</time>
      </trkpt>
      <trkpt lat="45.94288" lon="4.82351">
        <ele>264</ele>
        <time>2017-03-27T10:48:05Z</time>
      </trkpt>
      <trkpt lat="45.94288" lon="4.82343">
        <ele>264</ele>
        <time>2017-03-27T10:48:06Z</time>
      </trkpt>
      <trkpt lat="45.94288" lon="4.82334">
        <ele>264</ele>
        <time>2017-03-27T10:48:07Z</time>
      </trkpt>
      <trkpt lat="45.94287" lon="4.82326">
        <ele>265</ele>
        <time>2017-03-27T10:48:08Z</time>
      </trkpt>
      <trkpt lat="45.94287" lon="4.82317">
        <ele>265</ele>
        <time>2017-03-27T10:48:09Z</time>
      </trkpt>
      <trkpt lat="45.94286" lon="4.82308">
        <ele>265</ele>
        <time>2017-03-27T10:48:10Z</time>
      </trkpt>
      <trkpt lat="45.94286" lon="4.82299">
        <ele>265</ele>
        <time>2017-03-27T10:48:11Z</time>
      </trkpt>
      <trkpt lat="45.94286" lon="4.8229">
        <ele>265</ele>
        <time>2017-03-27T10:48:12Z</time>
      </trkpt>
      <trkpt lat="45.94286" lon="4.82281">
        <ele>265</ele>
        <time>2017-03-27T10:48:13Z</time>
      </trkpt>
      <trkpt lat="45.94286" lon="4.82272">
        <ele>265</ele>
        <time>2017-03-27T10:48:14Z</time>
      </trkpt>
      <trkpt lat="45.94285" lon="4.82263">
        <ele>265</ele>
        <time>2017-03-27T10:48:15Z</time>
      </trkpt>
      <trkpt lat="45.94285" lon="4.82253">
        <ele>265</ele>
        <time>2017-03-27T10:48:16Z</time>
      </trkpt>
      <trkpt lat="45.94284" lon="4.82244">
        <ele>264</ele>
        <time>2017-03-27T10:48:17Z</time>
      </trkpt>
      <trkpt lat="45.94284" lon="4.82235">
        <ele>264</ele>
        <time>2017-03-27T10:48:18Z</time>
      </trkpt>
      <trkpt lat="45.94283" lon="4.82225">
        <ele>264</ele>
        <time>2017-03-27T10:48:19Z</time>
      </trkpt>
      <trkpt lat="45.94282" lon="4.82217">
        <ele>264</ele>
        <time>2017-03-27T10:48:20Z</time>
      </trkpt>
      <trkpt lat="45.94281" lon="4.82208">
        <ele>264</ele>
        <time>2017-03-27T10:48:21Z</time>
      </trkpt>
      <trkpt lat="45.9428" lon="4.822">
        <ele>264</ele>
        <time>2017-03-27T10:48:22Z</time>
      </trkpt>
      <trkpt lat="45.94279" lon="4.82192">
        <ele>264</ele>
        <time>2017-03-27T10:48:23Z</time>
      </trkpt>
      <trkpt lat="45.94279" lon="4.82184">
        <ele>264</ele>
        <time>2017-03-27T10:48:24Z</time>
      </trkpt>
      <trkpt lat="45.94278" lon="4.82176">
        <ele>264</ele>
        <time>2017-03-27T10:48:25Z</time>
      </trkpt>
      <trkpt lat="45.94277" lon="4.82167">
        <ele>264</ele>
        <time>2017-03-27T10:48:26Z</time>
      </trkpt>
      <trkpt lat="45.94276" lon="4.82159">
        <ele>263</ele>
        <time>2017-03-27T10:48:27Z</time>
      </trkpt>
      <trkpt lat="45.94274" lon="4.8215">
        <ele>263</ele>
        <time>2017-03-27T10:48:28Z</time>
      </trkpt>
      <trkpt lat="45.94272" lon="4.8214">
        <ele>263</ele>
        <time>2017-03-27T10:48:29Z</time>
      </trkpt>
      <trkpt lat="45.9427" lon="4.82131">
        <ele>263</ele>
        <time>2017-03-27T10:48:30Z</time>
      </trkpt>
      <trkpt lat="45.94268" lon="4.82122">
        <ele>263</ele>
        <time>2017-03-27T10:48:31Z</time>
      </trkpt>
      <trkpt lat="45.94266" lon="4.82112">
        <ele>263</ele>
        <time>2017-03-27T10:48:32Z</time>
      </trkpt>
      <trkpt lat="45.94264" lon="4.82103">
        <ele>262</ele>
        <time>2017-03-27T10:48:33Z</time>
      </trkpt>
      <trkpt lat="45.94262" lon="4.82094">
        <ele>262</ele>
        <time>2017-03-27T10:48:34Z</time>
      </trkpt>
      <trkpt lat="45.9426" lon="4.82086">
        <ele>262</ele>
        <time>2017-03-27T10:48:35Z</time>
      </trkpt>
      <trkpt lat="45.94258" lon="4.82078">
        <ele>262</ele>
        <time>2017-03-27T10:48:36Z</time>
      </trkpt>
      <trkpt lat="45.94256" lon="4.82069">
        <ele>262</ele>
        <time>2017-03-27T10:48:37Z</time>
      </trkpt>
      <trkpt lat="45.94254" lon="4.82061">
        <ele>262</ele>
        <time>2017-03-27T10:48:38Z</time>
      </trkpt>
      <trkpt lat="45.94253" lon="4.82054">
        <ele>262</ele>
        <time>2017-03-27T10:48:39Z</time>
      </trkpt>
      <trkpt lat="45.94251" lon="4.82046">
        <ele>262</ele>
        <time>2017-03-27T10:48:40Z</time>
      </trkpt>
      <trkpt lat="45.94249" lon="4.82039">
        <ele>263</ele>
        <time>2017-03-27T10:48:41Z</time>
      </trkpt>
      <trkpt lat="45.94247" lon="4.8203">
        <ele>263</ele>
        <time>2017-03-27T10:48:42Z</time>
      </trkpt>
      <trkpt lat="45.94246" lon="4.82022">
        <ele>263</ele>
        <time>2017-03-27T10:48:43Z</time>
      </trkpt>
      <trkpt lat="45.94244" lon="4.82013">
        <ele>263</ele>
        <time>2017-03-27T10:48:44Z</time>
      </trkpt>
      <trkpt lat="45.94243" lon="4.82005">
        <ele>263</ele>
        <time>2017-03-27T10:48:45Z</time>
      </trkpt>
      <trkpt lat="45.94242" lon="4.81997">
        <ele>263</ele>
        <time>2017-03-27T10:48:46Z</time>
      </trkpt>
      <trkpt lat="45.94242" lon="4.81989">
        <ele>263</ele>
        <time>2017-03-27T10:48:47Z</time>
      </trkpt>
      <trkpt lat="45.9424" lon="4.81981">
        <ele>263</ele>
        <time>2017-03-27T10:48:48Z</time>
      </trkpt>
      <trkpt lat="45.94239" lon="4.81974">
        <ele>263</ele>
        <time>2017-03-27T10:48:49Z</time>
      </trkpt>
      <trkpt lat="45.94237" lon="4.81967">
        <ele>264</ele>
        <time>2017-03-27T10:48:50Z</time>
      </trkpt>
      <trkpt lat="45.94236" lon="4.81959">
        <ele>264</ele>
        <time>2017-03-27T10:48:51Z</time>
      </trkpt>
      <trkpt lat="45.94234" lon="4.81951">
        <ele>264</ele>
        <time>2017-03-27T10:48:52Z</time>
      </trkpt>
      <trkpt lat="45.94233" lon="4.81943">
        <ele>264</ele>
        <time>2017-03-27T10:48:53Z</time>
      </trkpt>
      <trkpt lat="45.94231" lon="4.81934">
        <ele>263</ele>
        <time>2017-03-27T10:48:54Z</time>
      </trkpt>
      <trkpt lat="45.94228" lon="4.81928">
        <ele>264</ele>
        <time>2017-03-27T10:48:55Z</time>
      </trkpt>
      <trkpt lat="45.94226" lon="4.8192">
        <ele>264</ele>
        <time>2017-03-27T10:48:56Z</time>
      </trkpt>
      <trkpt lat="45.94225" lon="4.81911">
        <ele>264</ele>
        <time>2017-03-27T10:48:57Z</time>
      </trkpt>
      <trkpt lat="45.94224" lon="4.81902">
        <ele>264</ele>
        <time>2017-03-27T10:48:58Z</time>
      </trkpt>
      <trkpt lat="45.94223" lon="4.81894">
        <ele>265</ele>
        <time>2017-03-27T10:48:59Z</time>
      </trkpt>
      <trkpt lat="45.94221" lon="4.81885">
        <ele>265</ele>
        <time>2017-03-27T10:49:00Z</time>
      </trkpt>
      <trkpt lat="45.94219" lon="4.81876">
        <ele>265</ele>
        <time>2017-03-27T10:49:01Z</time>
      </trkpt>
      <trkpt lat="45.94217" lon="4.81868">
        <ele>265</ele>
        <time>2017-03-27T10:49:02Z</time>
      </trkpt>
      <trkpt lat="45.94216" lon="4.81859">
        <ele>265</ele>
        <time>2017-03-27T10:49:03Z</time>
      </trkpt>
      <trkpt lat="45.94213" lon="4.8185">
        <ele>265</ele>
        <time>2017-03-27T10:49:04Z</time>
      </trkpt>
      <trkpt lat="45.94211" lon="4.81841">
        <ele>265</ele>
        <time>2017-03-27T10:49:05Z</time>
      </trkpt>
      <trkpt lat="45.94209" lon="4.81831">
        <ele>266</ele>
        <time>2017-03-27T10:49:06Z</time>
      </trkpt>
      <trkpt lat="45.94207" lon="4.81823">
        <ele>266</ele>
        <time>2017-03-27T10:49:07Z</time>
      </trkpt>
      <trkpt lat="45.94205" lon="4.81814">
        <ele>266</ele>
        <time>2017-03-27T10:49:08Z</time>
      </trkpt>
      <trkpt lat="45.94204" lon="4.81805">
        <ele>266</ele>
        <time>2017-03-27T10:49:09Z</time>
      </trkpt>
      <trkpt lat="45.94204" lon="4.81796">
        <ele>266</ele>
        <time>2017-03-27T10:49:10Z</time>
      </trkpt>
      <trkpt lat="45.94205" lon="4.81787">
        <ele>266</ele>
        <time>2017-03-27T10:49:11Z</time>
      </trkpt>
      <trkpt lat="45.94207" lon="4.81779">
        <ele>265</ele>
        <time>2017-03-27T10:49:12Z</time>
      </trkpt>
      <trkpt lat="45.9421" lon="4.81771">
        <ele>265</ele>
        <time>2017-03-27T10:49:13Z</time>
      </trkpt>
      <trkpt lat="45.94213" lon="4.81764">
        <ele>265</ele>
        <time>2017-03-27T10:49:14Z</time>
      </trkpt>
      <trkpt lat="45.94216" lon="4.81757">
        <ele>265</ele>
        <time>2017-03-27T10:49:15Z</time>
      </trkpt>
      <trkpt lat="45.94219" lon="4.8175">
        <ele>265</ele>
        <time>2017-03-27T10:49:16Z</time>
      </trkpt>
      <trkpt lat="45.94222" lon="4.81743">
        <ele>265</ele>
        <time>2017-03-27T10:49:17Z</time>
      </trkpt>
      <trkpt lat="45.94224" lon="4.81735">
        <ele>265</ele>
        <time>2017-03-27T10:49:18Z</time>
      </trkpt>
      <trkpt lat="45.94226" lon="4.81728">
        <ele>265</ele>
        <time>2017-03-27T10:49:19Z</time>
      </trkpt>
      <trkpt lat="45.94225" lon="4.8172">
        <ele>266</ele>
        <time>2017-03-27T10:49:20Z</time>
      </trkpt>
      <trkpt lat="45.94222" lon="4.81712">
        <ele>266</ele>
        <time>2017-03-27T10:49:21Z</time>
      </trkpt>
      <trkpt lat="45.94219" lon="4.81706">
        <ele>266</ele>
        <time>2017-03-27T10:49:22Z</time>
      </trkpt>
      <trkpt lat="45.94214" lon="4.81701">
        <ele>266</ele>
        <time>2017-03-27T10:49:23Z</time>
      </trkpt>
      <trkpt lat="45.94208" lon="4.81698">
        <ele>266</ele>
        <time>2017-03-27T10:49:24Z</time>
      </trkpt>
      <trkpt lat="45.94203" lon="4.81695">
        <ele>267</ele>
        <time>2017-03-27T10:49:25Z</time>
      </trkpt>
      <trkpt lat="45.94199" lon="4.81691">
        <ele>267</ele>
        <time>2017-03-27T10:49:26Z</time>
      </trkpt>
      <trkpt lat="45.94194" lon="4.81685">
        <ele>267</ele>
        <time>2017-03-27T10:49:27Z</time>
      </trkpt>
      <trkpt lat="45.9419" lon="4.81677">
        <ele>267</ele>
        <time>2017-03-27T10:49:28Z</time>
      </trkpt>
      <trkpt lat="45.94186" lon="4.81668">
        <ele>268</ele>
        <time>2017-03-27T10:49:29Z</time>
      </trkpt>
      <trkpt lat="45.94183" lon="4.81659">
        <ele>268</ele>
        <time>2017-03-27T10:49:30Z</time>
      </trkpt>
      <trkpt lat="45.94181" lon="4.81648">
        <ele>268</ele>
        <time>2017-03-27T10:49:31Z</time>
      </trkpt>
      <trkpt lat="45.94179" lon="4.81638">
        <ele>268</ele>
        <time>2017-03-27T10:49:32Z</time>
      </trkpt>
      <trkpt lat="45.94177" lon="4.81627">
        <ele>267</ele>
        <time>2017-03-27T10:49:33Z</time>
      </trkpt>
      <trkpt lat="45.94175" lon="4.81617">
        <ele>267</ele>
        <time>2017-03-27T10:49:34Z</time>
      </trkpt>
      <trkpt lat="45.94173" lon="4.81606">
        <ele>267</ele>
        <time>2017-03-27T10:49:35Z</time>
      </trkpt>
      <trkpt lat="45.94171" lon="4.81596">
        <ele>267</ele>
        <time>2017-03-27T10:49:36Z</time>
      </trkpt>
      <trkpt lat="45.94169" lon="4.81585">
        <ele>267</ele>
        <time>2017-03-27T10:49:37Z</time>
      </trkpt>
      <trkpt lat="45.94168" lon="4.81575">
        <ele>267</ele>
        <time>2017-03-27T10:49:38Z</time>
      </trkpt>
      <trkpt lat="45.94167" lon="4.81565">
        <ele>265</ele>
        <time>2017-03-27T10:49:39Z</time>
      </trkpt>
      <trkpt lat="45.94166" lon="4.81554">
        <ele>265</ele>
        <time>2017-03-27T10:49:40Z</time>
      </trkpt>
      <trkpt lat="45.94166" lon="4.81543">
        <ele>264</ele>
        <time>2017-03-27T10:49:41Z</time>
      </trkpt>
      <trkpt lat="45.94166" lon="4.81532">
        <ele>264</ele>
        <time>2017-03-27T10:49:42Z</time>
      </trkpt>
      <trkpt lat="45.94165" lon="4.81522">
        <ele>263</ele>
        <time>2017-03-27T10:49:43Z</time>
      </trkpt>
      <trkpt lat="45.94165" lon="4.81512">
        <ele>263</ele>
        <time>2017-03-27T10:49:44Z</time>
      </trkpt>
      <trkpt lat="45.94167" lon="4.815">
        <ele>263</ele>
        <time>2017-03-27T10:49:45Z</time>
      </trkpt>
      <trkpt lat="45.94169" lon="4.81489">
        <ele>263</ele>
        <time>2017-03-27T10:49:46Z</time>
      </trkpt>
      <trkpt lat="45.94171" lon="4.81477">
        <ele>262</ele>
        <time>2017-03-27T10:49:47Z</time>
      </trkpt>
      <trkpt lat="45.94173" lon="4.81465">
        <ele>262</ele>
        <time>2017-03-27T10:49:48Z</time>
      </trkpt>
      <trkpt lat="45.94174" lon="4.81453">
        <ele>261</ele>
        <time>2017-03-27T10:49:49Z</time>
      </trkpt>
      <trkpt lat="45.94175" lon="4.81441">
        <ele>260</ele>
        <time>2017-03-27T10:49:50Z</time>
      </trkpt>
      <trkpt lat="45.94175" lon="4.81429">
        <ele>259</ele>
        <time>2017-03-27T10:49:51Z</time>
      </trkpt>
      <trkpt lat="45.94175" lon="4.81416">
        <ele>257</ele>
        <time>2017-03-27T10:49:52Z</time>
      </trkpt>
      <trkpt lat="45.94176" lon="4.81403">
        <ele>258</ele>
        <time>2017-03-27T10:49:53Z</time>
      </trkpt>
      <trkpt lat="45.94177" lon="4.8139">
        <ele>258</ele>
        <time>2017-03-27T10:49:54Z</time>
      </trkpt>
      <trkpt lat="45.94179" lon="4.81376">
        <ele>258</ele>
        <time>2017-03-27T10:49:55Z</time>
      </trkpt>
      <trkpt lat="45.94181" lon="4.81363">
        <ele>258</ele>
        <time>2017-03-27T10:49:56Z</time>
      </trkpt>
      <trkpt lat="45.94182" lon="4.81349">
        <ele>257</ele>
        <time>2017-03-27T10:49:57Z</time>
      </trkpt>
      <trkpt lat="45.94182" lon="4.81336">
        <ele>256</ele>
        <time>2017-03-27T10:49:58Z</time>
      </trkpt>
      <trkpt lat="45.94183" lon="4.81323">
        <ele>255</ele>
        <time>2017-03-27T10:49:59Z</time>
      </trkpt>
      <trkpt lat="45.94183" lon="4.81309">
        <ele>256</ele>
        <time>2017-03-27T10:50:00Z</time>
      </trkpt>
      <trkpt lat="45.94182" lon="4.81296">
        <ele>256</ele>
        <time>2017-03-27T10:50:01Z</time>
      </trkpt>
      <trkpt lat="45.9418" lon="4.81283">
        <ele>256</ele>
        <time>2017-03-27T10:50:02Z</time>
      </trkpt>
      <trkpt lat="45.94178" lon="4.8127">
        <ele>255</ele>
        <time>2017-03-27T10:50:03Z</time>
      </trkpt>
      <trkpt lat="45.94176" lon="4.81258">
        <ele>253</ele>
        <time>2017-03-27T10:50:04Z</time>
      </trkpt>
      <trkpt lat="45.94174" lon="4.81245">
        <ele>252</ele>
        <time>2017-03-27T10:50:05Z</time>
      </trkpt>
      <trkpt lat="45.94172" lon="4.81232">
        <ele>253</ele>
        <time>2017-03-27T10:50:06Z</time>
      </trkpt>
      <trkpt lat="45.9417" lon="4.81219">
        <ele>253</ele>
        <time>2017-03-27T10:50:07Z</time>
      </trkpt>
      <trkpt lat="45.94167" lon="4.81206">
        <ele>253</ele>
        <time>2017-03-27T10:50:08Z</time>
      </trkpt>
      <trkpt lat="45.94163" lon="4.81193">
        <ele>245</ele>
        <time>2017-03-27T10:50:09Z</time>
      </trkpt>
      <trkpt lat="45.94159" lon="4.8118">
        <ele>246</ele>
        <time>2017-03-27T10:50:10Z</time>
      </trkpt>
      <trkpt lat="45.94154" lon="4.81167">
        <ele>246</ele>
        <time>2017-03-27T10:50:11Z</time>
      </trkpt>
      <trkpt lat="45.94149" lon="4.81155">
        <ele>245</ele>
        <time>2017-03-27T10:50:12Z</time>
      </trkpt>
      <trkpt lat="45.94143" lon="4.81143">
        <ele>245</ele>
        <time>2017-03-27T10:50:13Z</time>
      </trkpt>
      <trkpt lat="45.94138" lon="4.81131">
        <ele>244</ele>
        <time>2017-03-27T10:50:14Z</time>
      </trkpt>
      <trkpt lat="45.94132" lon="4.81119">
        <ele>244</ele>
        <time>2017-03-27T10:50:15Z</time>
      </trkpt>
      <trkpt lat="45.94127" lon="4.81108">
        <ele>244</ele>
        <time>2017-03-27T10:50:16Z</time>
      </trkpt>
      <trkpt lat="45.94121" lon="4.81097">
        <ele>243</ele>
        <time>2017-03-27T10:50:17Z</time>
      </trkpt>
      <trkpt lat="45.94114" lon="4.81086">
        <ele>242</ele>
        <time>2017-03-27T10:50:18Z</time>
      </trkpt>
      <trkpt lat="45.94108" lon="4.81075">
        <ele>243</ele>
        <time>2017-03-27T10:50:19Z</time>
      </trkpt>
      <trkpt lat="45.94103" lon="4.81063">
        <ele>243</ele>
        <time>2017-03-27T10:50:20Z</time>
      </trkpt>
      <trkpt lat="45.94096" lon="4.81051">
        <ele>244</ele>
        <time>2017-03-27T10:50:21Z</time>
      </trkpt>
      <trkpt lat="45.94091" lon="4.81039">
        <ele>244</ele>
        <time>2017-03-27T10:50:22Z</time>
      </trkpt>
      <trkpt lat="45.94087" lon="4.81025">
        <ele>243</ele>
        <time>2017-03-27T10:50:23Z</time>
      </trkpt>
      <trkpt lat="45.94084" lon="4.81011">
        <ele>242</ele>
        <time>2017-03-27T10:50:24Z</time>
      </trkpt>
      <trkpt lat="45.94081" lon="4.80996">
        <ele>238</ele>
        <time>2017-03-27T10:50:25Z</time>
      </trkpt>
      <trkpt lat="45.94079" lon="4.80982">
        <ele>235</ele>
        <time>2017-03-27T10:50:26Z</time>
      </trkpt>
      <trkpt lat="45.94077" lon="4.80968">
        <ele>233</ele>
        <time>2017-03-27T10:50:27Z</time>
      </trkpt>
      <trkpt lat="45.94075" lon="4.80954">
        <ele>233</ele>
        <time>2017-03-27T10:50:28Z</time>
      </trkpt>
      <trkpt lat="45.94073" lon="4.8094">
        <ele>233</ele>
        <time>2017-03-27T10:50:29Z</time>
      </trkpt>
      <trkpt lat="45.9407" lon="4.80926">
        <ele>234</ele>
        <time>2017-03-27T10:50:30Z</time>
      </trkpt>
      <trkpt lat="45.94068" lon="4.80913">
        <ele>234</ele>
        <time>2017-03-27T10:50:31Z</time>
      </trkpt>
      <trkpt lat="45.94065" lon="4.80899">
        <ele>232</ele>
        <time>2017-03-27T10:50:32Z</time>
      </trkpt>
      <trkpt lat="45.94063" lon="4.80884">
        <ele>231</ele>
        <time>2017-03-27T10:50:33Z</time>
      </trkpt>
      <trkpt lat="45.94061" lon="4.8087">
        <ele>231</ele>
        <time>2017-03-27T10:50:34Z</time>
      </trkpt>
      <trkpt lat="45.94059" lon="4.80856">
        <ele>231</ele>
        <time>2017-03-27T10:50:35Z</time>
      </trkpt>
      <trkpt lat="45.94056" lon="4.80841">
        <ele>231</ele>
        <time>2017-03-27T10:50:36Z</time>
      </trkpt>
      <trkpt lat="45.94054" lon="4.80827">
        <ele>231</ele>
        <time>2017-03-27T10:50:37Z</time>
      </trkpt>
      <trkpt lat="45.94052" lon="4.80812">
        <ele>230</ele>
        <time>2017-03-27T10:50:38Z</time>
      </trkpt>
      <trkpt lat="45.9405" lon="4.80798">
        <ele>229</ele>
        <time>2017-03-27T10:50:39Z</time>
      </trkpt>
      <trkpt lat="45.94048" lon="4.80784">
        <ele>229</ele>
        <time>2017-03-27T10:50:40Z</time>
      </trkpt>
      <trkpt lat="45.94046" lon="4.8077">
        <ele>229</ele>
        <time>2017-03-27T10:50:41Z</time>
      </trkpt>
      <trkpt lat="45.94045" lon="4.80755">
        <ele>228</ele>
        <time>2017-03-27T10:50:42Z</time>
      </trkpt>
      <trkpt lat="45.94043" lon="4.8074">
        <ele>227</ele>
        <time>2017-03-27T10:50:43Z</time>
      </trkpt>
      <trkpt lat="45.94042" lon="4.80725">
        <ele>227</ele>
        <time>2017-03-27T10:50:44Z</time>
      </trkpt>
      <trkpt lat="45.94041" lon="4.8071">
        <ele>227</ele>
        <time>2017-03-27T10:50:45Z</time>
      </trkpt>
      <trkpt lat="45.94039" lon="4.80694">
        <ele>226</ele>
        <time>2017-03-27T10:50:46Z</time>
      </trkpt>
      <trkpt lat="45.94037" lon="4.80679">
        <ele>226</ele>
        <time>2017-03-27T10:50:47Z</time>
      </trkpt>
      <trkpt lat="45.94036" lon="4.80663">
        <ele>225</ele>
        <time>2017-03-27T10:50:48Z</time>
      </trkpt>
      <trkpt lat="45.94034" lon="4.80647">
        <ele>225</ele>
        <time>2017-03-27T10:50:49Z</time>
      </trkpt>
      <trkpt lat="45.94032" lon="4.80631">
        <ele>226</ele>
        <time>2017-03-27T10:50:50Z</time>
      </trkpt>
      <trkpt lat="45.9403" lon="4.80615">
        <ele>225</ele>
        <time>2017-03-27T10:50:51Z</time>
      </trkpt>
      <trkpt lat="45.94029" lon="4.80599">
        <ele>225</ele>
        <time>2017-03-27T10:50:52Z</time>
      </trkpt>
      <trkpt lat="45.94027" lon="4.80584">
        <ele>224</ele>
        <time>2017-03-27T10:50:53Z</time>
      </trkpt>
      <trkpt lat="45.94026" lon="4.80568">
        <ele>225</ele>
        <time>2017-03-27T10:50:54Z</time>
      </trkpt>
      <trkpt lat="45.94025" lon="4.80551">
        <ele>225</ele>
        <time>2017-03-27T10:50:55Z</time>
      </trkpt>
      <trkpt lat="45.94024" lon="4.80535">
        <ele>225</ele>
        <time>2017-03-27T10:50:56Z</time>
      </trkpt>
      <trkpt lat="45.94023" lon="4.80519">
        <ele>224</ele>
        <time>2017-03-27T10:50:57Z</time>
      </trkpt>
      <trkpt lat="45.94024" lon="4.80504">
        <ele>224</ele>
        <time>2017-03-27T10:50:58Z</time>
      </trkpt>
      <trkpt lat="45.94023" lon="4.80488">
        <ele>223</ele>
        <time>2017-03-27T10:50:59Z</time>
      </trkpt>
      <trkpt lat="45.94022" lon="4.80472">
        <ele>223</ele>
        <time>2017-03-27T10:51:00Z</time>
      </trkpt>
      <trkpt lat="45.94022" lon="4.80456">
        <ele>223</ele>
        <time>2017-03-27T10:51:01Z</time>
      </trkpt>
      <trkpt lat="45.94021" lon="4.80441">
        <ele>223</ele>
        <time>2017-03-27T10:51:02Z</time>
      </trkpt>
      <trkpt lat="45.94019" lon="4.80426">
        <ele>221</ele>
        <time>2017-03-27T10:51:03Z</time>
      </trkpt>
      <trkpt lat="45.94017" lon="4.80412">
        <ele>218</ele>
        <time>2017-03-27T10:51:04Z</time>
      </trkpt>
      <trkpt lat="45.94014" lon="4.80397">
        <ele>217</ele>
        <time>2017-03-27T10:51:05Z</time>
      </trkpt>
      <trkpt lat="45.9401" lon="4.80382">
        <ele>217</ele>
        <time>2017-03-27T10:51:06Z</time>
      </trkpt>
      <trkpt lat="45.94007" lon="4.80367">
        <ele>215</ele>
        <time>2017-03-27T10:51:07Z</time>
      </trkpt>
      <trkpt lat="45.94003" lon="4.80352">
        <ele>213</ele>
        <time>2017-03-27T10:51:08Z</time>
      </trkpt>
      <trkpt lat="45.94" lon="4.80337">
        <ele>206</ele>
        <time>2017-03-27T10:51:09Z</time>
      </trkpt>
      <trkpt lat="45.93996" lon="4.80322">
        <ele>204</ele>
        <time>2017-03-27T10:51:10Z</time>
      </trkpt>
      <trkpt lat="45.93992" lon="4.80307">
        <ele>203</ele>
        <time>2017-03-27T10:51:11Z</time>
      </trkpt>
      <trkpt lat="45.93988" lon="4.80292">
        <ele>203</ele>
        <time>2017-03-27T10:51:12Z</time>
      </trkpt>
      <trkpt lat="45.93983" lon="4.80277">
        <ele>203</ele>
        <time>2017-03-27T10:51:13Z</time>
      </trkpt>
      <trkpt lat="45.93979" lon="4.80261">
        <ele>203</ele>
        <time>2017-03-27T10:51:14Z</time>
      </trkpt>
      <trkpt lat="45.93976" lon="4.80247">
        <ele>205</ele>
        <time>2017-03-27T10:51:15Z</time>
      </trkpt>
      <trkpt lat="45.93972" lon="4.80232">
        <ele>205</ele>
        <time>2017-03-27T10:51:16Z</time>
      </trkpt>
      <trkpt lat="45.93969" lon="4.80218">
        <ele>205</ele>
        <time>2017-03-27T10:51:17Z</time>
      </trkpt>
      <trkpt lat="45.93966" lon="4.80205">
        <ele>206</ele>
        <time>2017-03-27T10:51:18Z</time>
      </trkpt>
      <trkpt lat="45.93963" lon="4.80192">
        <ele>206</ele>
        <time>2017-03-27T10:51:19Z</time>
      </trkpt>
      <trkpt lat="45.9396" lon="4.80179">
        <ele>206</ele>
        <time>2017-03-27T10:51:20Z</time>
      </trkpt>
      <trkpt lat="45.93957" lon="4.80167">
        <ele>206</ele>
        <time>2017-03-27T10:51:21Z</time>
      </trkpt>
      <trkpt lat="45.93955" lon="4.80155">
        <ele>209</ele>
        <time>2017-03-27T10:51:22Z</time>
      </trkpt>
      <trkpt lat="45.93954" lon="4.80144">
        <ele>209</ele>
        <time>2017-03-27T10:51:23Z</time>
      </trkpt>
      <trkpt lat="45.93953" lon="4.80133">
        <ele>209</ele>
        <time>2017-03-27T10:51:24Z</time>
      </trkpt>
      <trkpt lat="45.9395" lon="4.80123">
        <ele>209</ele>
        <time>2017-03-27T10:51:25Z</time>
      </trkpt>
      <trkpt lat="45.93949" lon="4.80113">
        <ele>209</ele>
        <time>2017-03-27T10:51:26Z</time>
      </trkpt>
      <trkpt lat="45.93947" lon="4.80103">
        <ele>209</ele>
        <time>2017-03-27T10:51:27Z</time>
      </trkpt>
      <trkpt lat="45.93947" lon="4.80093">
        <ele>209</ele>
        <time>2017-03-27T10:51:28Z</time>
      </trkpt>
      <trkpt lat="45.93946" lon="4.80083">
        <ele>208</ele>
        <time>2017-03-27T10:51:29Z</time>
      </trkpt>
      <trkpt lat="45.93946" lon="4.80073">
        <ele>208</ele>
        <time>2017-03-27T10:51:30Z</time>
      </trkpt>
      <trkpt lat="45.93946" lon="4.80062">
        <ele>208</ele>
        <time>2017-03-27T10:51:31Z</time>
      </trkpt>
      <trkpt lat="45.93947" lon="4.80052">
        <ele>208</ele>
        <time>2017-03-27T10:51:32Z</time>
      </trkpt>
      <trkpt lat="45.93947" lon="4.8004">
        <ele>208</ele>
        <time>2017-03-27T10:51:33Z</time>
      </trkpt>
      <trkpt lat="45.93948" lon="4.8003">
        <ele>207</ele>
        <time>2017-03-27T10:51:34Z</time>
      </trkpt>
      <trkpt lat="45.93949" lon="4.80019">
        <ele>207</ele>
        <time>2017-03-27T10:51:35Z</time>
      </trkpt>
      <trkpt lat="45.93951" lon="4.80008">
        <ele>207</ele>
        <time>2017-03-27T10:51:36Z</time>
      </trkpt>
      <trkpt lat="45.93952" lon="4.79998">
        <ele>205</ele>
        <time>2017-03-27T10:51:37Z</time>
      </trkpt>
      <trkpt lat="45.93954" lon="4.79987">
        <ele>205</ele>
        <time>2017-03-27T10:51:38Z</time>
      </trkpt>
      <trkpt lat="45.93955" lon="4.79976">
        <ele>205</ele>
        <time>2017-03-27T10:51:39Z</time>
      </trkpt>
      <trkpt lat="45.93956" lon="4.79966">
        <ele>205</ele>
        <time>2017-03-27T10:51:40Z</time>
      </trkpt>
      <trkpt lat="45.93957" lon="4.79956">
        <ele>205</ele>
        <time>2017-03-27T10:51:41Z</time>
      </trkpt>
      <trkpt lat="45.93958" lon="4.79946">
        <ele>205</ele>
        <time>2017-03-27T10:51:42Z</time>
      </trkpt>
      <trkpt lat="45.93959" lon="4.79936">
        <ele>205</ele>
        <time>2017-03-27T10:51:43Z</time>
      </trkpt>
      <trkpt lat="45.9396" lon="4.79925">
        <ele>205</ele>
        <time>2017-03-27T10:51:44Z</time>
      </trkpt>
      <trkpt lat="45.93961" lon="4.79916">
        <ele>206</ele>
        <time>2017-03-27T10:51:45Z</time>
      </trkpt>
      <trkpt lat="45.93962" lon="4.79907">
        <ele>206</ele>
        <time>2017-03-27T10:51:46Z</time>
      </trkpt>
      <trkpt lat="45.93963" lon="4.79898">
        <ele>206</ele>
        <time>2017-03-27T10:51:47Z</time>
      </trkpt>
      <trkpt lat="45.93965" lon="4.7989">
        <ele>206</ele>
        <time>2017-03-27T10:51:48Z</time>
      </trkpt>
      <trkpt lat="45.93966" lon="4.79881">
        <ele>206</ele>
        <time>2017-03-27T10:51:49Z</time>
      </trkpt>
      <trkpt lat="45.93967" lon="4.79872">
        <ele>206</ele>
        <time>2017-03-27T10:51:50Z</time>
      </trkpt>
      <trkpt lat="45.93968" lon="4.79863">
        <ele>206</ele>
        <time>2017-03-27T10:51:51Z</time>
      </trkpt>
      <trkpt lat="45.9397" lon="4.79854">
        <ele>206</ele>
        <time>2017-03-27T10:51:52Z</time>
      </trkpt>
      <trkpt lat="45.93971" lon="4.79846">
        <ele>207</ele>
        <time>2017-03-27T10:51:53Z</time>
      </trkpt>
      <trkpt lat="45.93972" lon="4.79837">
        <ele>207</ele>
        <time>2017-03-27T10:51:54Z</time>
      </trkpt>
      <trkpt lat="45.93975" lon="4.79828">
        <ele>207</ele>
        <time>2017-03-27T10:51:55Z</time>
      </trkpt>
      <trkpt lat="45.93977" lon="4.79817">
        <ele>207</ele>
        <time>2017-03-27T10:51:56Z</time>
      </trkpt>
      <trkpt lat="45.93978" lon="4.79807">
        <ele>207</ele>
        <time>2017-03-27T10:51:57Z</time>
      </trkpt>
      <trkpt lat="45.93979" lon="4.79797">
        <ele>207</ele>
        <time>2017-03-27T10:51:58Z</time>
      </trkpt>
      <trkpt lat="45.9398" lon="4.79787">
        <ele>207</ele>
        <time>2017-03-27T10:51:59Z</time>
      </trkpt>
      <trkpt lat="45.9398" lon="4.79778">
        <ele>207</ele>
        <time>2017-03-27T10:52:00Z</time>
      </trkpt>
      <trkpt lat="45.9398" lon="4.79768">
        <ele>207</ele>
        <time>2017-03-27T10:52:01Z</time>
      </trkpt>
      <trkpt lat="45.9398" lon="4.79758">
        <ele>207</ele>
        <time>2017-03-27T10:52:02Z</time>
      </trkpt>
      <trkpt lat="45.93979" lon="4.79748">
        <ele>207</ele>
        <time>2017-03-27T10:52:03Z</time>
      </trkpt>
      <trkpt lat="45.93978" lon="4.79738">
        <ele>207</ele>
        <time>2017-03-27T10:52:04Z</time>
      </trkpt>
      <trkpt lat="45.93977" lon="4.79729">
        <ele>207</ele>
        <time>2017-03-27T10:52:05Z</time>
      </trkpt>
      <trkpt lat="45.93975" lon="4.79719">
        <ele>207</ele>
        <time>2017-03-27T10:52:06Z</time>
      </trkpt>
      <trkpt lat="45.93974" lon="4.7971">
        <ele>207</ele>
        <time>2017-03-27T10:52:07Z</time>
      </trkpt>
      <trkpt lat="45.93974" lon="4.79701">
        <ele>207</ele>
        <time>2017-03-27T10:52:08Z</time>
      </trkpt>
      <trkpt lat="45.93973" lon="4.79692">
        <ele>207</ele>
        <time>2017-03-27T10:52:09Z</time>
      </trkpt>
      <trkpt lat="45.93972" lon="4.79683">
        <ele>207</ele>
        <time>2017-03-27T10:52:10Z</time>
      </trkpt>
      <trkpt lat="45.93972" lon="4.79673">
        <ele>208</ele>
        <time>2017-03-27T10:52:11Z</time>
      </trkpt>
      <trkpt lat="45.93971" lon="4.79664">
        <ele>208</ele>
        <time>2017-03-27T10:52:12Z</time>
      </trkpt>
      <trkpt lat="45.9397" lon="4.79655">
        <ele>208</ele>
        <time>2017-03-27T10:52:13Z</time>
      </trkpt>
      <trkpt lat="45.9397" lon="4.79645">
        <ele>208</ele>
        <time>2017-03-27T10:52:14Z</time>
      </trkpt>
      <trkpt lat="45.93969" lon="4.79636">
        <ele>207</ele>
        <time>2017-03-27T10:52:15Z</time>
      </trkpt>
      <trkpt lat="45.93968" lon="4.79626">
        <ele>207</ele>
        <time>2017-03-27T10:52:16Z</time>
      </trkpt>
      <trkpt lat="45.93967" lon="4.79617">
        <ele>207</ele>
        <time>2017-03-27T10:52:17Z</time>
      </trkpt>
      <trkpt lat="45.93966" lon="4.79607">
        <ele>207</ele>
        <time>2017-03-27T10:52:18Z</time>
      </trkpt>
      <trkpt lat="45.93966" lon="4.79597">
        <ele>207</ele>
        <time>2017-03-27T10:52:19Z</time>
      </trkpt>
      <trkpt lat="45.93965" lon="4.79587">
        <ele>207</ele>
        <time>2017-03-27T10:52:20Z</time>
      </trkpt>
      <trkpt lat="45.93964" lon="4.79577">
        <ele>206</ele>
        <time>2017-03-27T10:52:21Z</time>
      </trkpt>
      <trkpt lat="45.93964" lon="4.79567">
        <ele>206</ele>
        <time>2017-03-27T10:52:22Z</time>
      </trkpt>
      <trkpt lat="45.93963" lon="4.79557">
        <ele>206</ele>
        <time>2017-03-27T10:52:23Z</time>
      </trkpt>
      <trkpt lat="45.93962" lon="4.79546">
        <ele>205</ele>
        <time>2017-03-27T10:52:24Z</time>
      </trkpt>
      <trkpt lat="45.93961" lon="4.79536">
        <ele>205</ele>
        <time>2017-03-27T10:52:25Z</time>
      </trkpt>
      <trkpt lat="45.9396" lon="4.79525">
        <ele>205</ele>
        <time>2017-03-27T10:52:26Z</time>
      </trkpt>
      <trkpt lat="45.9396" lon="4.79514">
        <ele>205</ele>
        <time>2017-03-27T10:52:27Z</time>
      </trkpt>
      <trkpt lat="45.93959" lon="4.79502">
        <ele>204</ele>
        <time>2017-03-27T10:52:28Z</time>
      </trkpt>
      <trkpt lat="45.93958" lon="4.79491">
        <ele>203</ele>
        <time>2017-03-27T10:52:29Z</time>
      </trkpt>
      <trkpt lat="45.93957" lon="4.79478">
        <ele>203</ele>
        <time>2017-03-27T10:52:30Z</time>
      </trkpt>
      <trkpt lat="45.93957" lon="4.79466">
        <ele>203</ele>
        <time>2017-03-27T10:52:31Z</time>
      </trkpt>
      <trkpt lat="45.93956" lon="4.79454">
        <ele>203</ele>
        <time>2017-03-27T10:52:32Z</time>
      </trkpt>
      <trkpt lat="45.93956" lon="4.79443">
        <ele>203</ele>
        <time>2017-03-27T10:52:33Z</time>
      </trkpt>
      <trkpt lat="45.93955" lon="4.79431">
        <ele>203</ele>
        <time>2017-03-27T10:52:34Z</time>
      </trkpt>
      <trkpt lat="45.93955" lon="4.7942">
        <ele>202</ele>
        <time>2017-03-27T10:52:35Z</time>
      </trkpt>
      <trkpt lat="45.93955" lon="4.79408">
        <ele>201</ele>
        <time>2017-03-27T10:52:36Z</time>
      </trkpt>
      <trkpt lat="45.93956" lon="4.79396">
        <ele>201</ele>
        <time>2017-03-27T10:52:37Z</time>
      </trkpt>
      <trkpt lat="45.93956" lon="4.79384">
        <ele>201</ele>
        <time>2017-03-27T10:52:38Z</time>
      </trkpt>
      <trkpt lat="45.93956" lon="4.79371">
        <ele>201</ele>
        <time>2017-03-27T10:52:39Z</time>
      </trkpt>
      <trkpt lat="45.93956" lon="4.79359">
        <ele>201</ele>
        <time>2017-03-27T10:52:40Z</time>
      </trkpt>
      <trkpt lat="45.93956" lon="4.79347">
        <ele>201</ele>
        <time>2017-03-27T10:52:41Z</time>
      </trkpt>
      <trkpt lat="45.93956" lon="4.79335">
        <ele>201</ele>
        <time>2017-03-27T10:52:42Z</time>
      </trkpt>
      <trkpt lat="45.93956" lon="4.79324">
        <ele>199</ele>
        <time>2017-03-27T10:52:43Z</time>
      </trkpt>
      <trkpt lat="45.93956" lon="4.79312">
        <ele>199</ele>
        <time>2017-03-27T10:52:44Z</time>
      </trkpt>
      <trkpt lat="45.93956" lon="4.793">
        <ele>199</ele>
        <time>2017-03-27T10:52:45Z</time>
      </trkpt>
      <trkpt lat="45.93956" lon="4.79288">
        <ele>199</ele>
        <time>2017-03-27T10:52:46Z</time>
      </trkpt>
      <trkpt lat="45.93956" lon="4.79277">
        <ele>198</ele>
        <time>2017-03-27T10:52:47Z</time>
      </trkpt>
      <trkpt lat="45.93956" lon="4.79265">
        <ele>198</ele>
        <time>2017-03-27T10:52:48Z</time>
      </trkpt>
      <trkpt lat="45.93955" lon="4.79254">
        <ele>198</ele>
        <time>2017-03-27T10:52:49Z</time>
      </trkpt>
      <trkpt lat="45.93955" lon="4.79243">
        <ele>197</ele>
        <time>2017-03-27T10:52:50Z</time>
      </trkpt>
      <trkpt lat="45.93956" lon="4.79232">
        <ele>197</ele>
        <time>2017-03-27T10:52:51Z</time>
      </trkpt>
      <trkpt lat="45.93955" lon="4.79221">
        <ele>197</ele>
        <time>2017-03-27T10:52:52Z</time>
      </trkpt>
      <trkpt lat="45.93956" lon="4.79211">
        <ele>197</ele>
        <time>2017-03-27T10:52:53Z</time>
      </trkpt>
      <trkpt lat="45.93956" lon="4.792">
        <ele>197</ele>
        <time>2017-03-27T10:52:54Z</time>
      </trkpt>
      <trkpt lat="45.93955" lon="4.7919">
        <ele>197</ele>
        <time>2017-03-27T10:52:55Z</time>
      </trkpt>
      <trkpt lat="45.93956" lon="4.7918">
        <ele>197</ele>
        <time>2017-03-27T10:52:56Z</time>
      </trkpt>
      <trkpt lat="45.93954" lon="4.79169">
        <ele>197</ele>
        <time>2017-03-27T10:52:57Z</time>
      </trkpt>
      <trkpt lat="45.93954" lon="4.79158">
        <ele>197</ele>
        <time>2017-03-27T10:52:58Z</time>
      </trkpt>
      <trkpt lat="45.93954" lon="4.79148">
        <ele>197</ele>
        <time>2017-03-27T10:52:59Z</time>
      </trkpt>
      <trkpt lat="45.93952" lon="4.79139">
        <ele>197</ele>
        <time>2017-03-27T10:53:00Z</time>
      </trkpt>
      <trkpt lat="45.93951" lon="4.79129">
        <ele>197</ele>
        <time>2017-03-27T10:53:01Z</time>
      </trkpt>
      <trkpt lat="45.93951" lon="4.79119">
        <ele>197</ele>
        <time>2017-03-27T10:53:02Z</time>
      </trkpt>
      <trkpt lat="45.93951" lon="4.79109">
        <ele>197</ele>
        <time>2017-03-27T10:53:03Z</time>
      </trkpt>
      <trkpt lat="45.93951" lon="4.79099">
        <ele>197</ele>
        <time>2017-03-27T10:53:04Z</time>
      </trkpt>
      <trkpt lat="45.93951" lon="4.79089">
        <ele>196</ele>
        <time>2017-03-27T10:53:05Z</time>
      </trkpt>
      <trkpt lat="45.9395" lon="4.79079">
        <ele>196</ele>
        <time>2017-03-27T10:53:06Z</time>
      </trkpt>
      <trkpt lat="45.9395" lon="4.79069">
        <ele>196</ele>
        <time>2017-03-27T10:53:07Z</time>
      </trkpt>
      <trkpt lat="45.9395" lon="4.7906">
        <ele>196</ele>
        <time>2017-03-27T10:53:08Z</time>
      </trkpt>
      <trkpt lat="45.93949" lon="4.79051">
        <ele>196</ele>
        <time>2017-03-27T10:53:09Z</time>
      </trkpt>
      <trkpt lat="45.93948" lon="4.79041">
        <ele>196</ele>
        <time>2017-03-27T10:53:10Z</time>
      </trkpt>
      <trkpt lat="45.93948" lon="4.79031">
        <ele>195</ele>
        <time>2017-03-27T10:53:11Z</time>
      </trkpt>
      <trkpt lat="45.93947" lon="4.79022">
        <ele>195</ele>
        <time>2017-03-27T10:53:12Z</time>
      </trkpt>
      <trkpt lat="45.93947" lon="4.79013">
        <ele>195</ele>
        <time>2017-03-27T10:53:13Z</time>
      </trkpt>
      <trkpt lat="45.93947" lon="4.79003">
        <ele>195</ele>
        <time>2017-03-27T10:53:14Z</time>
      </trkpt>
      <trkpt lat="45.93948" lon="4.78993">
        <ele>194</ele>
        <time>2017-03-27T10:53:15Z</time>
      </trkpt>
      <trkpt lat="45.93949" lon="4.78983">
        <ele>194</ele>
        <time>2017-03-27T10:53:16Z</time>
      </trkpt>
      <trkpt lat="45.93949" lon="4.78974">
        <ele>194</ele>
        <time>2017-03-27T10:53:17Z</time>
      </trkpt>
      <trkpt lat="45.93949" lon="4.78965">
        <ele>194</ele>
        <time>2017-03-27T10:53:18Z</time>
      </trkpt>
      <trkpt lat="45.93949" lon="4.78955">
        <ele>194</ele>
        <time>2017-03-27T10:53:19Z</time>
      </trkpt>
      <trkpt lat="45.93949" lon="4.78945">
        <ele>194</ele>
        <time>2017-03-27T10:53:20Z</time>
      </trkpt>
      <trkpt lat="45.93949" lon="4.78935">
        <ele>194</ele>
        <time>2017-03-27T10:53:21Z</time>
      </trkpt>
      <trkpt lat="45.93949" lon="4.78924">
        <ele>194</ele>
        <time>2017-03-27T10:53:22Z</time>
      </trkpt>
      <trkpt lat="45.93949" lon="4.78914">
        <ele>194</ele>
        <time>2017-03-27T10:53:23Z</time>
      </trkpt>
      <trkpt lat="45.93948" lon="4.78904">
        <ele>194</ele>
        <time>2017-03-27T10:53:24Z</time>
      </trkpt>
      <trkpt lat="45.93948" lon="4.78894">
        <ele>194</ele>
        <time>2017-03-27T10:53:25Z</time>
      </trkpt>
      <trkpt lat="45.93947" lon="4.78884">
        <ele>194</ele>
        <time>2017-03-27T10:53:26Z</time>
      </trkpt>
      <trkpt lat="45.93946" lon="4.78874">
        <ele>194</ele>
        <time>2017-03-27T10:53:27Z</time>
      </trkpt>
      <trkpt lat="45.93945" lon="4.78864">
        <ele>194</ele>
        <time>2017-03-27T10:53:28Z</time>
      </trkpt>
      <trkpt lat="45.93945" lon="4.78855">
        <ele>194</ele>
        <time>2017-03-27T10:53:29Z</time>
      </trkpt>
      <trkpt lat="45.93945" lon="4.78846">
        <ele>194</ele>
        <time>2017-03-27T10:53:30Z</time>
      </trkpt>
      <trkpt lat="45.93944" lon="4.78837">
        <ele>194</ele>
        <time>2017-03-27T10:53:31Z</time>
      </trkpt>
      <trkpt lat="45.93944" lon="4.78828">
        <ele>194</ele>
        <time>2017-03-27T10:53:32Z</time>
      </trkpt>
      <trkpt lat="45.93944" lon="4.78819">
        <ele>194</ele>
        <time>2017-03-27T10:53:33Z</time>
      </trkpt>
      <trkpt lat="45.93943" lon="4.7881">
        <ele>194</ele>
        <time>2017-03-27T10:53:34Z</time>
      </trkpt>
      <trkpt lat="45.93944" lon="4.788">
        <ele>194</ele>
        <time>2017-03-27T10:53:35Z</time>
      </trkpt>
      <trkpt lat="45.93943" lon="4.78791">
        <ele>194</ele>
        <time>2017-03-27T10:53:36Z</time>
      </trkpt>
      <trkpt lat="45.93943" lon="4.78781">
        <ele>194</ele>
        <time>2017-03-27T10:53:37Z</time>
      </trkpt>
      <trkpt lat="45.93943" lon="4.78771">
        <ele>194</ele>
        <time>2017-03-27T10:53:38Z</time>
      </trkpt>
      <trkpt lat="45.93943" lon="4.78761">
        <ele>194</ele>
        <time>2017-03-27T10:53:39Z</time>
      </trkpt>
      <trkpt lat="45.93943" lon="4.78751">
        <ele>194</ele>
        <time>2017-03-27T10:53:40Z</time>
      </trkpt>
      <trkpt lat="45.93943" lon="4.78742">
        <ele>194</ele>
        <time>2017-03-27T10:53:41Z</time>
      </trkpt>
      <trkpt lat="45.93943" lon="4.78733">
        <ele>194</ele>
        <time>2017-03-27T10:53:42Z</time>
      </trkpt>
      <trkpt lat="45.93943" lon="4.78724">
        <ele>194</ele>
        <time>2017-03-27T10:53:43Z</time>
      </trkpt>
      <trkpt lat="45.93943" lon="4.78715">
        <ele>194</ele>
        <time>2017-03-27T10:53:44Z</time>
      </trkpt>
      <trkpt lat="45.93943" lon="4.78708">
        <ele>194</ele>
        <time>2017-03-27T10:53:45Z</time>
      </trkpt>
      <trkpt lat="45.93944" lon="4.787">
        <ele>194</ele>
        <time>2017-03-27T10:53:46Z</time>
      </trkpt>
      <trkpt lat="45.93945" lon="4.78691">
        <ele>194</ele>
        <time>2017-03-27T10:53:47Z</time>
      </trkpt>
      <trkpt lat="45.93945" lon="4.78682">
        <ele>194</ele>
        <time>2017-03-27T10:53:48Z</time>
      </trkpt>
      <trkpt lat="45.93945" lon="4.78673">
        <ele>194</ele>
        <time>2017-03-27T10:53:49Z</time>
      </trkpt>
      <trkpt lat="45.93945" lon="4.78664">
        <ele>195</ele>
        <time>2017-03-27T10:53:50Z</time>
      </trkpt>
      <trkpt lat="45.93945" lon="4.78655">
        <ele>195</ele>
        <time>2017-03-27T10:53:51Z</time>
      </trkpt>
      <trkpt lat="45.93946" lon="4.78646">
        <ele>195</ele>
        <time>2017-03-27T10:53:52Z</time>
      </trkpt>
      <trkpt lat="45.93945" lon="4.78637">
        <ele>196</ele>
        <time>2017-03-27T10:53:53Z</time>
      </trkpt>
      <trkpt lat="45.93945" lon="4.78628">
        <ele>196</ele>
        <time>2017-03-27T10:53:54Z</time>
      </trkpt>
      <trkpt lat="45.93944" lon="4.7862">
        <ele>196</ele>
        <time>2017-03-27T10:53:55Z</time>
      </trkpt>
      <trkpt lat="45.93944" lon="4.7861">
        <ele>196</ele>
        <time>2017-03-27T10:53:56Z</time>
      </trkpt>
      <trkpt lat="45.93944" lon="4.78602">
        <ele>196</ele>
        <time>2017-03-27T10:53:57Z</time>
      </trkpt>
      <trkpt lat="45.93944" lon="4.78594">
        <ele>196</ele>
        <time>2017-03-27T10:53:58Z</time>
      </trkpt>
      <trkpt lat="45.93943" lon="4.78585">
        <ele>196</ele>
        <time>2017-03-27T10:53:59Z</time>
      </trkpt>
      <trkpt lat="45.93943" lon="4.78577">
        <ele>197</ele>
        <time>2017-03-27T10:54:00Z</time>
      </trkpt>
      <trkpt lat="45.93943" lon="4.7857">
        <ele>197</ele>
        <time>2017-03-27T10:54:01Z</time>
      </trkpt>
      <trkpt lat="45.93943" lon="4.78563">
        <ele>197</ele>
        <time>2017-03-27T10:54:02Z</time>
      </trkpt>
      <trkpt lat="45.93943" lon="4.78556">
        <ele>197</ele>
        <time>2017-03-27T10:54:03Z</time>
      </trkpt>
      <trkpt lat="45.93943" lon="4.78549">
        <ele>197</ele>
        <time>2017-03-27T10:54:04Z</time>
      </trkpt>
      <trkpt lat="45.93944" lon="4.78542">
        <ele>198</ele>
        <time>2017-03-27T10:54:05Z</time>
      </trkpt>
      <trkpt lat="45.93944" lon="4.78535">
        <ele>198</ele>
        <time>2017-03-27T10:54:06Z</time>
      </trkpt>
      <trkpt lat="45.93944" lon="4.78527">
        <ele>198</ele>
        <time>2017-03-27T10:54:07Z</time>
      </trkpt>
      <trkpt lat="45.93944" lon="4.78519">
        <ele>198</ele>
        <time>2017-03-27T10:54:08Z</time>
      </trkpt>
      <trkpt lat="45.93945" lon="4.78512">
        <ele>197</ele>
        <time>2017-03-27T10:54:09Z</time>
      </trkpt>
      <trkpt lat="45.93945" lon="4.78504">
        <ele>197</ele>
        <time>2017-03-27T10:54:10Z</time>
      </trkpt>
      <trkpt lat="45.93947" lon="4.78496">
        <ele>197</ele>
        <time>2017-03-27T10:54:11Z</time>
      </trkpt>
      <trkpt lat="45.93947" lon="4.78488">
        <ele>197</ele>
        <time>2017-03-27T10:54:12Z</time>
      </trkpt>
      <trkpt lat="45.93948" lon="4.7848">
        <ele>198</ele>
        <time>2017-03-27T10:54:13Z</time>
      </trkpt>
      <trkpt lat="45.93949" lon="4.78472">
        <ele>198</ele>
        <time>2017-03-27T10:54:14Z</time>
      </trkpt>
      <trkpt lat="45.93949" lon="4.78465">
        <ele>198</ele>
        <time>2017-03-27T10:54:15Z</time>
      </trkpt>
      <trkpt lat="45.9395" lon="4.78457">
        <ele>198</ele>
        <time>2017-03-27T10:54:16Z</time>
      </trkpt>
      <trkpt lat="45.93951" lon="4.78449">
        <ele>197</ele>
        <time>2017-03-27T10:54:17Z</time>
      </trkpt>
      <trkpt lat="45.93952" lon="4.78441">
        <ele>197</ele>
        <time>2017-03-27T10:54:18Z</time>
      </trkpt>
      <trkpt lat="45.93952" lon="4.78433">
        <ele>197</ele>
        <time>2017-03-27T10:54:19Z</time>
      </trkpt>
      <trkpt lat="45.93952" lon="4.78426">
        <ele>197</ele>
        <time>2017-03-27T10:54:20Z</time>
      </trkpt>
      <trkpt lat="45.93953" lon="4.78418">
        <ele>197</ele>
        <time>2017-03-27T10:54:21Z</time>
      </trkpt>
      <trkpt lat="45.93954" lon="4.78411">
        <ele>196</ele>
        <time>2017-03-27T10:54:22Z</time>
      </trkpt>
      <trkpt lat="45.93955" lon="4.78404">
        <ele>197</ele>
        <time>2017-03-27T10:54:23Z</time>
      </trkpt>
      <trkpt lat="45.93956" lon="4.78398">
        <ele>197</ele>
        <time>2017-03-27T10:54:24Z</time>
      </trkpt>
      <trkpt lat="45.93957" lon="4.78391">
        <ele>197</ele>
        <time>2017-03-27T10:54:25Z</time>
      </trkpt>
      <trkpt lat="45.93958" lon="4.78384">
        <ele>197</ele>
        <time>2017-03-27T10:54:26Z</time>
      </trkpt>
      <trkpt lat="45.93959" lon="4.78376">
        <ele>197</ele>
        <time>2017-03-27T10:54:27Z</time>
      </trkpt>
      <trkpt lat="45.93959" lon="4.78369">
        <ele>196</ele>
        <time>2017-03-27T10:54:28Z</time>
      </trkpt>
      <trkpt lat="45.9396" lon="4.78361">
        <ele>196</ele>
        <time>2017-03-27T10:54:29Z</time>
      </trkpt>
      <trkpt lat="45.93961" lon="4.78354">
        <ele>196</ele>
        <time>2017-03-27T10:54:30Z</time>
      </trkpt>
      <trkpt lat="45.93961" lon="4.78346">
        <ele>196</ele>
        <time>2017-03-27T10:54:31Z</time>
      </trkpt>
      <trkpt lat="45.93962" lon="4.78339">
        <ele>196</ele>
        <time>2017-03-27T10:54:32Z</time>
      </trkpt>
      <trkpt lat="45.93963" lon="4.78332">
        <ele>196</ele>
        <time>2017-03-27T10:54:33Z</time>
      </trkpt>
      <trkpt lat="45.93965" lon="4.78325">
        <ele>196</ele>
        <time>2017-03-27T10:54:34Z</time>
      </trkpt>
      <trkpt lat="45.93966" lon="4.78318">
        <ele>196</ele>
        <time>2017-03-27T10:54:35Z</time>
      </trkpt>
      <trkpt lat="45.93968" lon="4.78312">
        <ele>196</ele>
        <time>2017-03-27T10:54:36Z</time>
      </trkpt>
      <trkpt lat="45.93969" lon="4.78306">
        <ele>196</ele>
        <time>2017-03-27T10:54:37Z</time>
      </trkpt>
      <trkpt lat="45.93969" lon="4.78298">
        <ele>196</ele>
        <time>2017-03-27T10:54:38Z</time>
      </trkpt>
      <trkpt lat="45.9397" lon="4.78292">
        <ele>196</ele>
        <time>2017-03-27T10:54:39Z</time>
      </trkpt>
      <trkpt lat="45.93971" lon="4.78284">
        <ele>196</ele>
        <time>2017-03-27T10:54:40Z</time>
      </trkpt>
      <trkpt lat="45.93971" lon="4.78277">
        <ele>196</ele>
        <time>2017-03-27T10:54:41Z</time>
      </trkpt>
      <trkpt lat="45.93972" lon="4.7827">
        <ele>196</ele>
        <time>2017-03-27T10:54:42Z</time>
      </trkpt>
      <trkpt lat="45.93973" lon="4.78263">
        <ele>196</ele>
        <time>2017-03-27T10:54:43Z</time>
      </trkpt>
      <trkpt lat="45.93974" lon="4.78255">
        <ele>196</ele>
        <time>2017-03-27T10:54:44Z</time>
      </trkpt>
      <trkpt lat="45.93975" lon="4.78248">
        <ele>197</ele>
        <time>2017-03-27T10:54:45Z</time>
      </trkpt>
      <trkpt lat="45.93976" lon="4.78241">
        <ele>197</ele>
        <time>2017-03-27T10:54:46Z</time>
      </trkpt>
      <trkpt lat="45.93977" lon="4.78234">
        <ele>197</ele>
        <time>2017-03-27T10:54:47Z</time>
      </trkpt>
      <trkpt lat="45.93978" lon="4.78227">
        <ele>197</ele>
        <time>2017-03-27T10:54:48Z</time>
      </trkpt>
      <trkpt lat="45.9398" lon="4.7822">
        <ele>197</ele>
        <time>2017-03-27T10:54:49Z</time>
      </trkpt>
      <trkpt lat="45.93981" lon="4.78214">
        <ele>197</ele>
        <time>2017-03-27T10:54:50Z</time>
      </trkpt>
      <trkpt lat="45.93982" lon="4.78207">
        <ele>197</ele>
        <time>2017-03-27T10:54:51Z</time>
      </trkpt>
      <trkpt lat="45.93984" lon="4.78201">
        <ele>197</ele>
        <time>2017-03-27T10:54:52Z</time>
      </trkpt>
      <trkpt lat="45.93986" lon="4.7819">
        <ele>198</ele>
        <time>2017-03-27T10:54:54Z</time>
      </trkpt>
      <trkpt lat="45.93988" lon="4.78184">
        <ele>198</ele>
        <time>2017-03-27T10:54:55Z</time>
      </trkpt>
      <trkpt lat="45.93991" lon="4.78173">
        <ele>199</ele>
        <time>2017-03-27T10:54:57Z</time>
      </trkpt>
      <trkpt lat="45.93993" lon="4.78168">
        <ele>200</ele>
        <time>2017-03-27T10:54:58Z</time>
      </trkpt>
      <trkpt lat="45.93996" lon="4.78158">
        <ele>199</ele>
        <time>2017-03-27T10:55:00Z</time>
      </trkpt>
      <trkpt lat="45.93997" lon="4.78152">
        <ele>199</ele>
        <time>2017-03-27T10:55:01Z</time>
      </trkpt>
      <trkpt lat="45.93995" lon="4.78145">
        <ele>198</ele>
        <time>2017-03-27T10:55:02Z</time>
      </trkpt>
      <trkpt lat="45.93995" lon="4.78138">
        <ele>198</ele>
        <time>2017-03-27T10:55:03Z</time>
      </trkpt>
      <trkpt lat="45.93995" lon="4.78132">
        <ele>197</ele>
        <time>2017-03-27T10:55:04Z</time>
      </trkpt>
      <trkpt lat="45.93995" lon="4.78125">
        <ele>197</ele>
        <time>2017-03-27T10:55:05Z</time>
      </trkpt>
      <trkpt lat="45.93997" lon="4.78113">
        <ele>197</ele>
        <time>2017-03-27T10:55:07Z</time>
      </trkpt>
      <trkpt lat="45.93998" lon="4.78106">
        <ele>197</ele>
        <time>2017-03-27T10:55:08Z</time>
      </trkpt>
      <trkpt lat="45.94" lon="4.78099">
        <ele>198</ele>
        <time>2017-03-27T10:55:09Z</time>
      </trkpt>
      <trkpt lat="45.94001" lon="4.78091">
        <ele>201</ele>
        <time>2017-03-27T10:55:10Z</time>
      </trkpt>
      <trkpt lat="45.94003" lon="4.78084">
        <ele>200</ele>
        <time>2017-03-27T10:55:11Z</time>
      </trkpt>
      <trkpt lat="45.94006" lon="4.78076">
        <ele>200</ele>
        <time>2017-03-27T10:55:12Z</time>
      </trkpt>
      <trkpt lat="45.94008" lon="4.78069">
        <ele>201</ele>
        <time>2017-03-27T10:55:13Z</time>
      </trkpt>
      <trkpt lat="45.94009" lon="4.78061">
        <ele>201</ele>
        <time>2017-03-27T10:55:14Z</time>
      </trkpt>
      <trkpt lat="45.94011" lon="4.78053">
        <ele>201</ele>
        <time>2017-03-27T10:55:15Z</time>
      </trkpt>
      <trkpt lat="45.94012" lon="4.78047">
        <ele>201</ele>
        <time>2017-03-27T10:55:16Z</time>
      </trkpt>
      <trkpt lat="45.94013" lon="4.78041">
        <ele>201</ele>
        <time>2017-03-27T10:55:17Z</time>
      </trkpt>
      <trkpt lat="45.94014" lon="4.78034">
        <ele>201</ele>
        <time>2017-03-27T10:55:18Z</time>
      </trkpt>
      <trkpt lat="45.94015" lon="4.78027">
        <ele>201</ele>
        <time>2017-03-27T10:55:19Z</time>
      </trkpt>
      <trkpt lat="45.94015" lon="4.7802">
        <ele>200</ele>
        <time>2017-03-27T10:55:20Z</time>
      </trkpt>
      <trkpt lat="45.94016" lon="4.78012">
        <ele>200</ele>
        <time>2017-03-27T10:55:21Z</time>
      </trkpt>
      <trkpt lat="45.94016" lon="4.78004">
        <ele>200</ele>
        <time>2017-03-27T10:55:22Z</time>
      </trkpt>
      <trkpt lat="45.94016" lon="4.77996">
        <ele>199</ele>
        <time>2017-03-27T10:55:23Z</time>
      </trkpt>
      <trkpt lat="45.94016" lon="4.77989">
        <ele>199</ele>
        <time>2017-03-27T10:55:24Z</time>
      </trkpt>
      <trkpt lat="45.94016" lon="4.77981">
        <ele>199</ele>
        <time>2017-03-27T10:55:25Z</time>
      </trkpt>
      <trkpt lat="45.94017" lon="4.77973">
        <ele>200</ele>
        <time>2017-03-27T10:55:26Z</time>
      </trkpt>
      <trkpt lat="45.94018" lon="4.77963">
        <ele>200</ele>
        <time>2017-03-27T10:55:28Z</time>
      </trkpt>
      <trkpt lat="45.94018" lon="4.77959">
        <ele>200</ele>
        <time>2017-03-27T10:55:29Z</time>
      </trkpt>
      <trkpt lat="45.94024" lon="4.7795">
        <ele>200</ele>
        <time>2017-03-27T10:55:31Z</time>
      </trkpt>
      <trkpt lat="45.94027" lon="4.77946">
        <ele>200</ele>
        <time>2017-03-27T10:55:32Z</time>
      </trkpt>
      <trkpt lat="45.94028" lon="4.77935">
        <ele>200</ele>
        <time>2017-03-27T10:55:34Z</time>
      </trkpt>
      <trkpt lat="45.94028" lon="4.77928">
        <ele>200</ele>
        <time>2017-03-27T10:55:35Z</time>
      </trkpt>
      <trkpt lat="45.94019" lon="4.77924">
        <ele>198</ele>
        <time>2017-03-27T10:55:37Z</time>
      </trkpt>
      <trkpt lat="45.94014" lon="4.77923">
        <ele>198</ele>
        <time>2017-03-27T10:55:38Z</time>
      </trkpt>
      <trkpt lat="45.94006" lon="4.77924">
        <ele>196</ele>
        <time>2017-03-27T10:55:39Z</time>
      </trkpt>
      <trkpt lat="45.93997" lon="4.77929">
        <ele>193</ele>
        <time>2017-03-27T10:55:40Z</time>
      </trkpt>
      <trkpt lat="45.93991" lon="4.77932">
        <ele>192</ele>
        <time>2017-03-27T10:55:41Z</time>
      </trkpt>
      <trkpt lat="45.93984" lon="4.77936">
        <ele>192</ele>
        <time>2017-03-27T10:55:42Z</time>
      </trkpt>
      <trkpt lat="45.93977" lon="4.77941">
        <ele>191</ele>
        <time>2017-03-27T10:55:43Z</time>
      </trkpt>
      <trkpt lat="45.9397" lon="4.77946">
        <ele>191</ele>
        <time>2017-03-27T10:55:44Z</time>
      </trkpt>
      <trkpt lat="45.93964" lon="4.77951">
        <ele>190</ele>
        <time>2017-03-27T10:55:45Z</time>
      </trkpt>
      <trkpt lat="45.93954" lon="4.77956">
        <ele>190</ele>
        <time>2017-03-27T10:55:46Z</time>
      </trkpt>
      <trkpt lat="45.93947" lon="4.77961">
        <ele>189</ele>
        <time>2017-03-27T10:55:47Z</time>
      </trkpt>
      <trkpt lat="45.93939" lon="4.77966">
        <ele>189</ele>
        <time>2017-03-27T10:55:48Z</time>
      </trkpt>
      <trkpt lat="45.93933" lon="4.77971">
        <ele>189</ele>
        <time>2017-03-27T10:55:49Z</time>
      </trkpt>
      <trkpt lat="45.9392" lon="4.77978">
        <ele>188</ele>
        <time>2017-03-27T10:55:50Z</time>
      </trkpt>
      <trkpt lat="45.93909" lon="4.77984">
        <ele>183</ele>
        <time>2017-03-27T10:55:51Z</time>
      </trkpt>
      <trkpt lat="45.939" lon="4.77989">
        <ele>182</ele>
        <time>2017-03-27T10:55:52Z</time>
      </trkpt>
      <trkpt lat="45.93893" lon="4.77994">
        <ele>182</ele>
        <time>2017-03-27T10:55:53Z</time>
      </trkpt>
      <trkpt lat="45.93886" lon="4.77999">
        <ele>181</ele>
        <time>2017-03-27T10:55:54Z</time>
      </trkpt>
      <trkpt lat="45.93881" lon="4.78005">
        <ele>184</ele>
        <time>2017-03-27T10:55:55Z</time>
      </trkpt>
      <trkpt lat="45.93875" lon="4.7801">
        <ele>183</ele>
        <time>2017-03-27T10:55:56Z</time>
      </trkpt>
      <trkpt lat="45.93869" lon="4.78008">
        <ele>183</ele>
        <time>2017-03-27T10:55:57Z</time>
      </trkpt>
      <trkpt lat="45.93863" lon="4.78004">
        <ele>182</ele>
        <time>2017-03-27T10:55:58Z</time>
      </trkpt>
      <trkpt lat="45.93859" lon="4.77999">
        <ele>179</ele>
        <time>2017-03-27T10:55:59Z</time>
      </trkpt>
      <trkpt lat="45.93854" lon="4.77994">
        <ele>179</ele>
        <time>2017-03-27T10:56:00Z</time>
      </trkpt>
      <trkpt lat="45.9385" lon="4.7799">
        <ele>179</ele>
        <time>2017-03-27T10:56:01Z</time>
      </trkpt>
      <trkpt lat="45.93844" lon="4.77985">
        <ele>179</ele>
        <time>2017-03-27T10:56:02Z</time>
      </trkpt>
      <trkpt lat="45.93842" lon="4.77978">
        <ele>178</ele>
        <time>2017-03-27T10:56:03Z</time>
      </trkpt>
      <trkpt lat="45.93839" lon="4.77973">
        <ele>178</ele>
        <time>2017-03-27T10:56:04Z</time>
      </trkpt>
      <trkpt lat="45.93836" lon="4.77968">
        <ele>177</ele>
        <time>2017-03-27T10:56:05Z</time>
      </trkpt>
      <trkpt lat="45.93833" lon="4.77962">
        <ele>171</ele>
        <time>2017-03-27T10:56:06Z</time>
      </trkpt>
      <trkpt lat="45.93829" lon="4.77957">
        <ele>170</ele>
        <time>2017-03-27T10:56:07Z</time>
      </trkpt>
      <trkpt lat="45.93825" lon="4.77951">
        <ele>170</ele>
        <time>2017-03-27T10:56:08Z</time>
      </trkpt>
      <trkpt lat="45.93821" lon="4.77946">
        <ele>169</ele>
        <time>2017-03-27T10:56:09Z</time>
      </trkpt>
      <trkpt lat="45.93817" lon="4.77941">
        <ele>169</ele>
        <time>2017-03-27T10:56:10Z</time>
      </trkpt>
      <trkpt lat="45.93812" lon="4.77936">
        <ele>169</ele>
        <time>2017-03-27T10:56:11Z</time>
      </trkpt>
      <trkpt lat="45.93808" lon="4.77931">
        <ele>168</ele>
        <time>2017-03-27T10:56:12Z</time>
      </trkpt>
      <trkpt lat="45.93804" lon="4.77925">
        <ele>168</ele>
        <time>2017-03-27T10:56:13Z</time>
      </trkpt>
      <trkpt lat="45.938" lon="4.7792">
        <ele>168</ele>
        <time>2017-03-27T10:56:14Z</time>
      </trkpt>
      <trkpt lat="45.93796" lon="4.77915">
        <ele>166</ele>
        <time>2017-03-27T10:56:15Z</time>
      </trkpt>
      <trkpt lat="45.93792" lon="4.7791">
        <ele>166</ele>
        <time>2017-03-27T10:56:16Z</time>
      </trkpt>
      <trkpt lat="45.93788" lon="4.77904">
        <ele>166</ele>
        <time>2017-03-27T10:56:17Z</time>
      </trkpt>
      <trkpt lat="45.93784" lon="4.77899">
        <ele>166</ele>
        <time>2017-03-27T10:56:18Z</time>
      </trkpt>
      <trkpt lat="45.93779" lon="4.77894">
        <ele>166</ele>
        <time>2017-03-27T10:56:19Z</time>
      </trkpt>
      <trkpt lat="45.93775" lon="4.7789">
        <ele>166</ele>
        <time>2017-03-27T10:56:20Z</time>
      </trkpt>
      <trkpt lat="45.9377" lon="4.77885">
        <ele>166</ele>
        <time>2017-03-27T10:56:21Z</time>
      </trkpt>
      <trkpt lat="45.93766" lon="4.77879">
        <ele>166</ele>
        <time>2017-03-27T10:56:22Z</time>
      </trkpt>
      <trkpt lat="45.93762" lon="4.77874">
        <ele>166</ele>
        <time>2017-03-27T10:56:23Z</time>
      </trkpt>
      <trkpt lat="45.93757" lon="4.77868">
        <ele>166</ele>
        <time>2017-03-27T10:56:24Z</time>
      </trkpt>
      <trkpt lat="45.93753" lon="4.77863">
        <ele>166</ele>
        <time>2017-03-27T10:56:25Z</time>
      </trkpt>
      <trkpt lat="45.93748" lon="4.77857">
        <ele>167</ele>
        <time>2017-03-27T10:56:26Z</time>
      </trkpt>
      <trkpt lat="45.93744" lon="4.77851">
        <ele>167</ele>
        <time>2017-03-27T10:56:27Z</time>
      </trkpt>
      <trkpt lat="45.9374" lon="4.77846">
        <ele>167</ele>
        <time>2017-03-27T10:56:28Z</time>
      </trkpt>
      <trkpt lat="45.93735" lon="4.7784">
        <ele>167</ele>
        <time>2017-03-27T10:56:29Z</time>
      </trkpt>
      <trkpt lat="45.93731" lon="4.77835">
        <ele>167</ele>
        <time>2017-03-27T10:56:30Z</time>
      </trkpt>
      <trkpt lat="45.93726" lon="4.7783">
        <ele>168</ele>
        <time>2017-03-27T10:56:31Z</time>
      </trkpt>
      <trkpt lat="45.93722" lon="4.77824">
        <ele>168</ele>
        <time>2017-03-27T10:56:32Z</time>
      </trkpt>
      <trkpt lat="45.93718" lon="4.77818">
        <ele>169</ele>
        <time>2017-03-27T10:56:33Z</time>
      </trkpt>
      <trkpt lat="45.93714" lon="4.77813">
        <ele>169</ele>
        <time>2017-03-27T10:56:34Z</time>
      </trkpt>
      <trkpt lat="45.9371" lon="4.77807">
        <ele>169</ele>
        <time>2017-03-27T10:56:35Z</time>
      </trkpt>
      <trkpt lat="45.93705" lon="4.77801">
        <ele>169</ele>
        <time>2017-03-27T10:56:36Z</time>
      </trkpt>
      <trkpt lat="45.93701" lon="4.77795">
        <ele>169</ele>
        <time>2017-03-27T10:56:37Z</time>
      </trkpt>
      <trkpt lat="45.93695" lon="4.77789">
        <ele>169</ele>
        <time>2017-03-27T10:56:38Z</time>
      </trkpt>
      <trkpt lat="45.93691" lon="4.77783">
        <ele>170</ele>
        <time>2017-03-27T10:56:39Z</time>
      </trkpt>
      <trkpt lat="45.93686" lon="4.77776">
        <ele>170</ele>
        <time>2017-03-27T10:56:40Z</time>
      </trkpt>
      <trkpt lat="45.93682" lon="4.77769">
        <ele>170</ele>
        <time>2017-03-27T10:56:41Z</time>
      </trkpt>
      <trkpt lat="45.93678" lon="4.77762">
        <ele>170</ele>
        <time>2017-03-27T10:56:42Z</time>
      </trkpt>
      <trkpt lat="45.93673" lon="4.77755">
        <ele>171</ele>
        <time>2017-03-27T10:56:43Z</time>
      </trkpt>
      <trkpt lat="45.93668" lon="4.77748">
        <ele>171</ele>
        <time>2017-03-27T10:56:44Z</time>
      </trkpt>
      <trkpt lat="45.93664" lon="4.77741">
        <ele>170</ele>
        <time>2017-03-27T10:56:45Z</time>
      </trkpt>
      <trkpt lat="45.93659" lon="4.77733">
        <ele>170</ele>
        <time>2017-03-27T10:56:46Z</time>
      </trkpt>
      <trkpt lat="45.93654" lon="4.77725">
        <ele>170</ele>
        <time>2017-03-27T10:56:47Z</time>
      </trkpt>
      <trkpt lat="45.93649" lon="4.77716">
        <ele>170</ele>
        <time>2017-03-27T10:56:48Z</time>
      </trkpt>
      <trkpt lat="45.93644" lon="4.77708">
        <ele>170</ele>
        <time>2017-03-27T10:56:49Z</time>
      </trkpt>
      <trkpt lat="45.93639" lon="4.77699">
        <ele>169</ele>
        <time>2017-03-27T10:56:50Z</time>
      </trkpt>
      <trkpt lat="45.93634" lon="4.77689">
        <ele>169</ele>
        <time>2017-03-27T10:56:51Z</time>
      </trkpt>
      <trkpt lat="45.93629" lon="4.7768">
        <ele>169</ele>
        <time>2017-03-27T10:56:52Z</time>
      </trkpt>
      <trkpt lat="45.93625" lon="4.7767">
        <ele>169</ele>
        <time>2017-03-27T10:56:53Z</time>
      </trkpt>
      <trkpt lat="45.9362" lon="4.7766">
        <ele>169</ele>
        <time>2017-03-27T10:56:54Z</time>
      </trkpt>
      <trkpt lat="45.93616" lon="4.7765">
        <ele>169</ele>
        <time>2017-03-27T10:56:55Z</time>
      </trkpt>
      <trkpt lat="45.93612" lon="4.77641">
        <ele>169</ele>
        <time>2017-03-27T10:56:56Z</time>
      </trkpt>
      <trkpt lat="45.93608" lon="4.77631">
        <ele>169</ele>
        <time>2017-03-27T10:56:57Z</time>
      </trkpt>
      <trkpt lat="45.93605" lon="4.77621">
        <ele>170</ele>
        <time>2017-03-27T10:56:58Z</time>
      </trkpt>
      <trkpt lat="45.93601" lon="4.77612">
        <ele>170</ele>
        <time>2017-03-27T10:56:59Z</time>
      </trkpt>
      <trkpt lat="45.93598" lon="4.77603">
        <ele>170</ele>
        <time>2017-03-27T10:57:00Z</time>
      </trkpt>
      <trkpt lat="45.93595" lon="4.77594">
        <ele>170</ele>
        <time>2017-03-27T10:57:01Z</time>
      </trkpt>
      <trkpt lat="45.93592" lon="4.77585">
        <ele>170</ele>
        <time>2017-03-27T10:57:02Z</time>
      </trkpt>
      <trkpt lat="45.9359" lon="4.77577">
        <ele>170</ele>
        <time>2017-03-27T10:57:03Z</time>
      </trkpt>
      <trkpt lat="45.93587" lon="4.77568">
        <ele>170</ele>
        <time>2017-03-27T10:57:04Z</time>
      </trkpt>
      <trkpt lat="45.93584" lon="4.7756">
        <ele>170</ele>
        <time>2017-03-27T10:57:05Z</time>
      </trkpt>
      <trkpt lat="45.93582" lon="4.77552">
        <ele>169</ele>
        <time>2017-03-27T10:57:06Z</time>
      </trkpt>
      <trkpt lat="45.93579" lon="4.77543">
        <ele>169</ele>
        <time>2017-03-27T10:57:07Z</time>
      </trkpt>
      <trkpt lat="45.93577" lon="4.77535">
        <ele>169</ele>
        <time>2017-03-27T10:57:08Z</time>
      </trkpt>
      <trkpt lat="45.93575" lon="4.77527">
        <ele>169</ele>
        <time>2017-03-27T10:57:09Z</time>
      </trkpt>
      <trkpt lat="45.93574" lon="4.77519">
        <ele>169</ele>
        <time>2017-03-27T10:57:10Z</time>
      </trkpt>
      <trkpt lat="45.93572" lon="4.77511">
        <ele>169</ele>
        <time>2017-03-27T10:57:11Z</time>
      </trkpt>
      <trkpt lat="45.9357" lon="4.77503">
        <ele>169</ele>
        <time>2017-03-27T10:57:12Z</time>
      </trkpt>
      <trkpt lat="45.93568" lon="4.77496">
        <ele>169</ele>
        <time>2017-03-27T10:57:13Z</time>
      </trkpt>
      <trkpt lat="45.93566" lon="4.77487">
        <ele>169</ele>
        <time>2017-03-27T10:57:14Z</time>
      </trkpt>
      <trkpt lat="45.93564" lon="4.7748">
        <ele>169</ele>
        <time>2017-03-27T10:57:15Z</time>
      </trkpt>
      <trkpt lat="45.93562" lon="4.77471">
        <ele>169</ele>
        <time>2017-03-27T10:57:16Z</time>
      </trkpt>
      <trkpt lat="45.9356" lon="4.77463">
        <ele>169</ele>
        <time>2017-03-27T10:57:17Z</time>
      </trkpt>
      <trkpt lat="45.93558" lon="4.77454">
        <ele>169</ele>
        <time>2017-03-27T10:57:18Z</time>
      </trkpt>
      <trkpt lat="45.93556" lon="4.77446">
        <ele>169</ele>
        <time>2017-03-27T10:57:19Z</time>
      </trkpt>
      <trkpt lat="45.93554" lon="4.77437">
        <ele>169</ele>
        <time>2017-03-27T10:57:20Z</time>
      </trkpt>
      <trkpt lat="45.93553" lon="4.77429">
        <ele>170</ele>
        <time>2017-03-27T10:57:21Z</time>
      </trkpt>
      <trkpt lat="45.93551" lon="4.77421">
        <ele>170</ele>
        <time>2017-03-27T10:57:22Z</time>
      </trkpt>
      <trkpt lat="45.93549" lon="4.77412">
        <ele>170</ele>
        <time>2017-03-27T10:57:23Z</time>
      </trkpt>
      <trkpt lat="45.93547" lon="4.77403">
        <ele>170</ele>
        <time>2017-03-27T10:57:24Z</time>
      </trkpt>
      <trkpt lat="45.93546" lon="4.77395">
        <ele>170</ele>
        <time>2017-03-27T10:57:25Z</time>
      </trkpt>
      <trkpt lat="45.93544" lon="4.77388">
        <ele>170</ele>
        <time>2017-03-27T10:57:26Z</time>
      </trkpt>
      <trkpt lat="45.93542" lon="4.7738">
        <ele>170</ele>
        <time>2017-03-27T10:57:27Z</time>
      </trkpt>
      <trkpt lat="45.93541" lon="4.77372">
        <ele>170</ele>
        <time>2017-03-27T10:57:28Z</time>
      </trkpt>
      <trkpt lat="45.93539" lon="4.77365">
        <ele>170</ele>
        <time>2017-03-27T10:57:29Z</time>
      </trkpt>
      <trkpt lat="45.93538" lon="4.77358">
        <ele>170</ele>
        <time>2017-03-27T10:57:30Z</time>
      </trkpt>
      <trkpt lat="45.93537" lon="4.77351">
        <ele>170</ele>
        <time>2017-03-27T10:57:31Z</time>
      </trkpt>
      <trkpt lat="45.93535" lon="4.77344">
        <ele>170</ele>
        <time>2017-03-27T10:57:32Z</time>
      </trkpt>
      <trkpt lat="45.93534" lon="4.77337">
        <ele>170</ele>
        <time>2017-03-27T10:57:33Z</time>
      </trkpt>
      <trkpt lat="45.93533" lon="4.7733">
        <ele>170</ele>
        <time>2017-03-27T10:57:34Z</time>
      </trkpt>
      <trkpt lat="45.93531" lon="4.77323">
        <ele>170</ele>
        <time>2017-03-27T10:57:35Z</time>
      </trkpt>
      <trkpt lat="45.9353" lon="4.77315">
        <ele>170</ele>
        <time>2017-03-27T10:57:36Z</time>
      </trkpt>
      <trkpt lat="45.93528" lon="4.77307">
        <ele>170</ele>
        <time>2017-03-27T10:57:37Z</time>
      </trkpt>
      <trkpt lat="45.93527" lon="4.773">
        <ele>170</ele>
        <time>2017-03-27T10:57:38Z</time>
      </trkpt>
      <trkpt lat="45.93526" lon="4.77292">
        <ele>170</ele>
        <time>2017-03-27T10:57:39Z</time>
      </trkpt>
      <trkpt lat="45.93524" lon="4.77284">
        <ele>170</ele>
        <time>2017-03-27T10:57:40Z</time>
      </trkpt>
      <trkpt lat="45.93522" lon="4.77277">
        <ele>170</ele>
        <time>2017-03-27T10:57:41Z</time>
      </trkpt>
      <trkpt lat="45.9352" lon="4.77269">
        <ele>170</ele>
        <time>2017-03-27T10:57:42Z</time>
      </trkpt>
      <trkpt lat="45.93518" lon="4.77261">
        <ele>170</ele>
        <time>2017-03-27T10:57:43Z</time>
      </trkpt>
      <trkpt lat="45.93516" lon="4.77254">
        <ele>170</ele>
        <time>2017-03-27T10:57:44Z</time>
      </trkpt>
      <trkpt lat="45.93515" lon="4.77247">
        <ele>169</ele>
        <time>2017-03-27T10:57:45Z</time>
      </trkpt>
      <trkpt lat="45.93513" lon="4.7724">
        <ele>169</ele>
        <time>2017-03-27T10:57:46Z</time>
      </trkpt>
      <trkpt lat="45.93511" lon="4.77233">
        <ele>169</ele>
        <time>2017-03-27T10:57:47Z</time>
      </trkpt>
      <trkpt lat="45.9351" lon="4.77227">
        <ele>169</ele>
        <time>2017-03-27T10:57:48Z</time>
      </trkpt>
      <trkpt lat="45.93508" lon="4.7722">
        <ele>169</ele>
        <time>2017-03-27T10:57:49Z</time>
      </trkpt>
      <trkpt lat="45.93506" lon="4.77213">
        <ele>169</ele>
        <time>2017-03-27T10:57:50Z</time>
      </trkpt>
      <trkpt lat="45.93505" lon="4.77205">
        <ele>169</ele>
        <time>2017-03-27T10:57:51Z</time>
      </trkpt>
      <trkpt lat="45.93503" lon="4.77196">
        <ele>169</ele>
        <time>2017-03-27T10:57:52Z</time>
      </trkpt>
      <trkpt lat="45.93501" lon="4.77188">
        <ele>169</ele>
        <time>2017-03-27T10:57:53Z</time>
      </trkpt>
      <trkpt lat="45.93499" lon="4.77179">
        <ele>169</ele>
        <time>2017-03-27T10:57:54Z</time>
      </trkpt>
      <trkpt lat="45.93497" lon="4.77171">
        <ele>169</ele>
        <time>2017-03-27T10:57:55Z</time>
      </trkpt>
      <trkpt lat="45.93496" lon="4.77163">
        <ele>169</ele>
        <time>2017-03-27T10:57:56Z</time>
      </trkpt>
      <trkpt lat="45.93494" lon="4.77156">
        <ele>169</ele>
        <time>2017-03-27T10:57:57Z</time>
      </trkpt>
      <trkpt lat="45.93493" lon="4.77148">
        <ele>169</ele>
        <time>2017-03-27T10:57:58Z</time>
      </trkpt>
      <trkpt lat="45.93491" lon="4.7714">
        <ele>169</ele>
        <time>2017-03-27T10:57:59Z</time>
      </trkpt>
      <trkpt lat="45.93489" lon="4.77133">
        <ele>169</ele>
        <time>2017-03-27T10:58:00Z</time>
      </trkpt>
      <trkpt lat="45.93488" lon="4.77126">
        <ele>169</ele>
        <time>2017-03-27T10:58:01Z</time>
      </trkpt>
      <trkpt lat="45.93487" lon="4.77119">
        <ele>169</ele>
        <time>2017-03-27T10:58:02Z</time>
      </trkpt>
      <trkpt lat="45.93485" lon="4.77111">
        <ele>169</ele>
        <time>2017-03-27T10:58:03Z</time>
      </trkpt>
      <trkpt lat="45.93484" lon="4.77104">
        <ele>169</ele>
        <time>2017-03-27T10:58:04Z</time>
      </trkpt>
      <trkpt lat="45.93483" lon="4.77096">
        <ele>169</ele>
        <time>2017-03-27T10:58:05Z</time>
      </trkpt>
      <trkpt lat="45.93481" lon="4.77089">
        <ele>169</ele>
        <time>2017-03-27T10:58:06Z</time>
      </trkpt>
      <trkpt lat="45.9348" lon="4.77081">
        <ele>170</ele>
        <time>2017-03-27T10:58:07Z</time>
      </trkpt>
      <trkpt lat="45.93478" lon="4.77073">
        <ele>170</ele>
        <time>2017-03-27T10:58:08Z</time>
      </trkpt>
      <trkpt lat="45.93476" lon="4.77066">
        <ele>170</ele>
        <time>2017-03-27T10:58:09Z</time>
      </trkpt>
      <trkpt lat="45.93475" lon="4.77058">
        <ele>170</ele>
        <time>2017-03-27T10:58:10Z</time>
      </trkpt>
      <trkpt lat="45.93474" lon="4.77051">
        <ele>170</ele>
        <time>2017-03-27T10:58:11Z</time>
      </trkpt>
      <trkpt lat="45.93473" lon="4.77043">
        <ele>170</ele>
        <time>2017-03-27T10:58:12Z</time>
      </trkpt>
      <trkpt lat="45.93471" lon="4.77036">
        <ele>170</ele>
        <time>2017-03-27T10:58:13Z</time>
      </trkpt>
      <trkpt lat="45.9347" lon="4.77029">
        <ele>170</ele>
        <time>2017-03-27T10:58:14Z</time>
      </trkpt>
      <trkpt lat="45.93469" lon="4.77022">
        <ele>170</ele>
        <time>2017-03-27T10:58:15Z</time>
      </trkpt>
      <trkpt lat="45.93468" lon="4.77014">
        <ele>170</ele>
        <time>2017-03-27T10:58:16Z</time>
      </trkpt>
      <trkpt lat="45.93467" lon="4.77005">
        <ele>170</ele>
        <time>2017-03-27T10:58:17Z</time>
      </trkpt>
      <trkpt lat="45.93466" lon="4.76997">
        <ele>170</ele>
        <time>2017-03-27T10:58:18Z</time>
      </trkpt>
      <trkpt lat="45.93464" lon="4.76988">
        <ele>170</ele>
        <time>2017-03-27T10:58:19Z</time>
      </trkpt>
      <trkpt lat="45.93463" lon="4.7698">
        <ele>170</ele>
        <time>2017-03-27T10:58:20Z</time>
      </trkpt>
      <trkpt lat="45.93462" lon="4.76972">
        <ele>170</ele>
        <time>2017-03-27T10:58:21Z</time>
      </trkpt>
      <trkpt lat="45.93461" lon="4.76964">
        <ele>170</ele>
        <time>2017-03-27T10:58:22Z</time>
      </trkpt>
      <trkpt lat="45.9346" lon="4.76956">
        <ele>170</ele>
        <time>2017-03-27T10:58:23Z</time>
      </trkpt>
      <trkpt lat="45.93459" lon="4.76949">
        <ele>170</ele>
        <time>2017-03-27T10:58:24Z</time>
      </trkpt>
      <trkpt lat="45.93457" lon="4.76941">
        <ele>170</ele>
        <time>2017-03-27T10:58:25Z</time>
      </trkpt>
      <trkpt lat="45.93456" lon="4.76934">
        <ele>170</ele>
        <time>2017-03-27T10:58:26Z</time>
      </trkpt>
      <trkpt lat="45.93455" lon="4.76927">
        <ele>170</ele>
        <time>2017-03-27T10:58:27Z</time>
      </trkpt>
      <trkpt lat="45.93454" lon="4.76921">
        <ele>170</ele>
        <time>2017-03-27T10:58:28Z</time>
      </trkpt>
      <trkpt lat="45.93452" lon="4.76914">
        <ele>170</ele>
        <time>2017-03-27T10:58:29Z</time>
      </trkpt>
      <trkpt lat="45.9345" lon="4.76906">
        <ele>170</ele>
        <time>2017-03-27T10:58:30Z</time>
      </trkpt>
      <trkpt lat="45.93448" lon="4.76899">
        <ele>170</ele>
        <time>2017-03-27T10:58:31Z</time>
      </trkpt>
      <trkpt lat="45.93447" lon="4.76891">
        <ele>170</ele>
        <time>2017-03-27T10:58:32Z</time>
      </trkpt>
      <trkpt lat="45.93444" lon="4.76884">
        <ele>170</ele>
        <time>2017-03-27T10:58:33Z</time>
      </trkpt>
      <trkpt lat="45.93442" lon="4.76876">
        <ele>170</ele>
        <time>2017-03-27T10:58:34Z</time>
      </trkpt>
      <trkpt lat="45.93439" lon="4.76868">
        <ele>171</ele>
        <time>2017-03-27T10:58:35Z</time>
      </trkpt>
      <trkpt lat="45.93436" lon="4.76861">
        <ele>171</ele>
        <time>2017-03-27T10:58:36Z</time>
      </trkpt>
      <trkpt lat="45.93433" lon="4.76855">
        <ele>171</ele>
        <time>2017-03-27T10:58:37Z</time>
      </trkpt>
      <trkpt lat="45.93429" lon="4.76848">
        <ele>171</ele>
        <time>2017-03-27T10:58:38Z</time>
      </trkpt>
      <trkpt lat="45.93426" lon="4.76842">
        <ele>171</ele>
        <time>2017-03-27T10:58:39Z</time>
      </trkpt>
      <trkpt lat="45.93423" lon="4.76835">
        <ele>172</ele>
        <time>2017-03-27T10:58:40Z</time>
      </trkpt>
      <trkpt lat="45.93421" lon="4.76829">
        <ele>172</ele>
        <time>2017-03-27T10:58:41Z</time>
      </trkpt>
      <trkpt lat="45.93417" lon="4.76823">
        <ele>171</ele>
        <time>2017-03-27T10:58:42Z</time>
      </trkpt>
      <trkpt lat="45.93414" lon="4.76818">
        <ele>172</ele>
        <time>2017-03-27T10:58:43Z</time>
      </trkpt>
      <trkpt lat="45.9341" lon="4.76813">
        <ele>172</ele>
        <time>2017-03-27T10:58:44Z</time>
      </trkpt>
      <trkpt lat="45.93406" lon="4.76807">
        <ele>172</ele>
        <time>2017-03-27T10:58:45Z</time>
      </trkpt>
      <trkpt lat="45.93402" lon="4.76802">
        <ele>172</ele>
        <time>2017-03-27T10:58:46Z</time>
      </trkpt>
      <trkpt lat="45.93398" lon="4.76797">
        <ele>172</ele>
        <time>2017-03-27T10:58:47Z</time>
      </trkpt>
      <trkpt lat="45.93394" lon="4.76792">
        <ele>172</ele>
        <time>2017-03-27T10:58:48Z</time>
      </trkpt>
      <trkpt lat="45.9339" lon="4.76788">
        <ele>172</ele>
        <time>2017-03-27T10:58:49Z</time>
      </trkpt>
      <trkpt lat="45.93386" lon="4.76783">
        <ele>172</ele>
        <time>2017-03-27T10:58:50Z</time>
      </trkpt>
      <trkpt lat="45.93383" lon="4.76778">
        <ele>172</ele>
        <time>2017-03-27T10:58:51Z</time>
      </trkpt>
      <trkpt lat="45.93378" lon="4.76774">
        <ele>172</ele>
        <time>2017-03-27T10:58:52Z</time>
      </trkpt>
      <trkpt lat="45.93374" lon="4.7677">
        <ele>172</ele>
        <time>2017-03-27T10:58:53Z</time>
      </trkpt>
      <trkpt lat="45.9337" lon="4.76766">
        <ele>172</ele>
        <time>2017-03-27T10:58:54Z</time>
      </trkpt>
      <trkpt lat="45.93365" lon="4.76761">
        <ele>172</ele>
        <time>2017-03-27T10:58:55Z</time>
      </trkpt>
      <trkpt lat="45.93361" lon="4.76757">
        <ele>172</ele>
        <time>2017-03-27T10:58:56Z</time>
      </trkpt>
      <trkpt lat="45.93356" lon="4.76753">
        <ele>172</ele>
        <time>2017-03-27T10:58:57Z</time>
      </trkpt>
      <trkpt lat="45.93352" lon="4.76749">
        <ele>172</ele>
        <time>2017-03-27T10:58:58Z</time>
      </trkpt>
      <trkpt lat="45.93348" lon="4.76745">
        <ele>172</ele>
        <time>2017-03-27T10:58:59Z</time>
      </trkpt>
      <trkpt lat="45.93344" lon="4.76742">
        <ele>172</ele>
        <time>2017-03-27T10:59:00Z</time>
      </trkpt>
      <trkpt lat="45.9334" lon="4.76738">
        <ele>172</ele>
        <time>2017-03-27T10:59:01Z</time>
      </trkpt>
      <trkpt lat="45.93336" lon="4.76734">
        <ele>172</ele>
        <time>2017-03-27T10:59:02Z</time>
      </trkpt>
      <trkpt lat="45.93332" lon="4.7673">
        <ele>172</ele>
        <time>2017-03-27T10:59:03Z</time>
      </trkpt>
      <trkpt lat="45.93328" lon="4.76726">
        <ele>172</ele>
        <time>2017-03-27T10:59:04Z</time>
      </trkpt>
      <trkpt lat="45.93324" lon="4.76721">
        <ele>172</ele>
        <time>2017-03-27T10:59:05Z</time>
      </trkpt>
      <trkpt lat="45.93319" lon="4.76717">
        <ele>172</ele>
        <time>2017-03-27T10:59:06Z</time>
      </trkpt>
      <trkpt lat="45.93315" lon="4.76712">
        <ele>172</ele>
        <time>2017-03-27T10:59:07Z</time>
      </trkpt>
      <trkpt lat="45.9331" lon="4.76708">
        <ele>172</ele>
        <time>2017-03-27T10:59:08Z</time>
      </trkpt>
      <trkpt lat="45.93306" lon="4.76703">
        <ele>172</ele>
        <time>2017-03-27T10:59:09Z</time>
      </trkpt>
      <trkpt lat="45.93302" lon="4.76698">
        <ele>172</ele>
        <time>2017-03-27T10:59:10Z</time>
      </trkpt>
      <trkpt lat="45.93298" lon="4.76694">
        <ele>172</ele>
        <time>2017-03-27T10:59:11Z</time>
      </trkpt>
      <trkpt lat="45.93294" lon="4.7669">
        <ele>172</ele>
        <time>2017-03-27T10:59:12Z</time>
      </trkpt>
      <trkpt lat="45.9329" lon="4.76686">
        <ele>172</ele>
        <time>2017-03-27T10:59:13Z</time>
      </trkpt>
      <trkpt lat="45.93287" lon="4.76682">
        <ele>172</ele>
        <time>2017-03-27T10:59:14Z</time>
      </trkpt>
      <trkpt lat="45.93283" lon="4.76678">
        <ele>172</ele>
        <time>2017-03-27T10:59:15Z</time>
      </trkpt>
      <trkpt lat="45.93279" lon="4.76674">
        <ele>172</ele>
        <time>2017-03-27T10:59:16Z</time>
      </trkpt>
      <trkpt lat="45.93274" lon="4.7667">
        <ele>172</ele>
        <time>2017-03-27T10:59:17Z</time>
      </trkpt>
      <trkpt lat="45.9327" lon="4.76665">
        <ele>171</ele>
        <time>2017-03-27T10:59:18Z</time>
      </trkpt>
      <trkpt lat="45.93266" lon="4.76661">
        <ele>171</ele>
        <time>2017-03-27T10:59:19Z</time>
      </trkpt>
      <trkpt lat="45.93262" lon="4.76656">
        <ele>171</ele>
        <time>2017-03-27T10:59:20Z</time>
      </trkpt>
      <trkpt lat="45.93259" lon="4.76651">
        <ele>171</ele>
        <time>2017-03-27T10:59:21Z</time>
      </trkpt>
      <trkpt lat="45.93255" lon="4.76646">
        <ele>170</ele>
        <time>2017-03-27T10:59:22Z</time>
      </trkpt>
      <trkpt lat="45.93248" lon="4.76639">
        <ele>171</ele>
        <time>2017-03-27T10:59:24Z</time>
      </trkpt>
      <trkpt lat="45.93245" lon="4.76635">
        <ele>171</ele>
        <time>2017-03-27T10:59:25Z</time>
      </trkpt>
      <trkpt lat="45.93238" lon="4.76627">
        <ele>170</ele>
        <time>2017-03-27T10:59:27Z</time>
      </trkpt>
      <trkpt lat="45.93235" lon="4.76622">
        <ele>170</ele>
        <time>2017-03-27T10:59:28Z</time>
      </trkpt>
      <trkpt lat="45.93231" lon="4.76618">
        <ele>170</ele>
        <time>2017-03-27T10:59:29Z</time>
      </trkpt>
      <trkpt lat="45.93227" lon="4.76613">
        <ele>170</ele>
        <time>2017-03-27T10:59:30Z</time>
      </trkpt>
      <trkpt lat="45.93223" lon="4.76609">
        <ele>170</ele>
        <time>2017-03-27T10:59:31Z</time>
      </trkpt>
      <trkpt lat="45.93218" lon="4.76604">
        <ele>170</ele>
        <time>2017-03-27T10:59:32Z</time>
      </trkpt>
      <trkpt lat="45.93214" lon="4.766">
        <ele>170</ele>
        <time>2017-03-27T10:59:33Z</time>
      </trkpt>
      <trkpt lat="45.93209" lon="4.76595">
        <ele>170</ele>
        <time>2017-03-27T10:59:34Z</time>
      </trkpt>
      <trkpt lat="45.93205" lon="4.7659">
        <ele>170</ele>
        <time>2017-03-27T10:59:35Z</time>
      </trkpt>
      <trkpt lat="45.932" lon="4.76586">
        <ele>170</ele>
        <time>2017-03-27T10:59:36Z</time>
      </trkpt>
      <trkpt lat="45.93196" lon="4.76582">
        <ele>169</ele>
        <time>2017-03-27T10:59:37Z</time>
      </trkpt>
      <trkpt lat="45.93192" lon="4.76577">
        <ele>170</ele>
        <time>2017-03-27T10:59:38Z</time>
      </trkpt>
      <trkpt lat="45.93188" lon="4.76573">
        <ele>170</ele>
        <time>2017-03-27T10:59:39Z</time>
      </trkpt>
      <trkpt lat="45.93183" lon="4.76569">
        <ele>170</ele>
        <time>2017-03-27T10:59:40Z</time>
      </trkpt>
      <trkpt lat="45.93179" lon="4.76565">
        <ele>170</ele>
        <time>2017-03-27T10:59:41Z</time>
      </trkpt>
      <trkpt lat="45.93174" lon="4.76561">
        <ele>170</ele>
        <time>2017-03-27T10:59:42Z</time>
      </trkpt>
      <trkpt lat="45.93169" lon="4.76556">
        <ele>170</ele>
        <time>2017-03-27T10:59:43Z</time>
      </trkpt>
      <trkpt lat="45.93164" lon="4.76551">
        <ele>170</ele>
        <time>2017-03-27T10:59:44Z</time>
      </trkpt>
      <trkpt lat="45.9316" lon="4.76546">
        <ele>170</ele>
        <time>2017-03-27T10:59:45Z</time>
      </trkpt>
      <trkpt lat="45.93155" lon="4.76541">
        <ele>170</ele>
        <time>2017-03-27T10:59:46Z</time>
      </trkpt>
      <trkpt lat="45.93151" lon="4.76536">
        <ele>170</ele>
        <time>2017-03-27T10:59:47Z</time>
      </trkpt>
      <trkpt lat="45.93147" lon="4.76532">
        <ele>170</ele>
        <time>2017-03-27T10:59:48Z</time>
      </trkpt>
      <trkpt lat="45.93143" lon="4.76528">
        <ele>170</ele>
        <time>2017-03-27T10:59:49Z</time>
      </trkpt>
      <trkpt lat="45.93139" lon="4.76524">
        <ele>170</ele>
        <time>2017-03-27T10:59:50Z</time>
      </trkpt>
      <trkpt lat="45.93135" lon="4.7652">
        <ele>170</ele>
        <time>2017-03-27T10:59:51Z</time>
      </trkpt>
      <trkpt lat="45.93131" lon="4.76516">
        <ele>170</ele>
        <time>2017-03-27T10:59:52Z</time>
      </trkpt>
      <trkpt lat="45.93127" lon="4.76512">
        <ele>170</ele>
        <time>2017-03-27T10:59:53Z</time>
      </trkpt>
      <trkpt lat="45.93122" lon="4.76508">
        <ele>170</ele>
        <time>2017-03-27T10:59:54Z</time>
      </trkpt>
      <trkpt lat="45.93118" lon="4.76504">
        <ele>170</ele>
        <time>2017-03-27T10:59:55Z</time>
      </trkpt>
      <trkpt lat="45.93113" lon="4.765">
        <ele>169</ele>
        <time>2017-03-27T10:59:56Z</time>
      </trkpt>
      <trkpt lat="45.93109" lon="4.76495">
        <ele>169</ele>
        <time>2017-03-27T10:59:57Z</time>
      </trkpt>
      <trkpt lat="45.93104" lon="4.76491">
        <ele>169</ele>
        <time>2017-03-27T10:59:58Z</time>
      </trkpt>
      <trkpt lat="45.931" lon="4.76487">
        <ele>169</ele>
        <time>2017-03-27T10:59:59Z</time>
      </trkpt>
      <trkpt lat="45.93095" lon="4.76482">
        <ele>169</ele>
        <time>2017-03-27T11:00:00Z</time>
      </trkpt>
      <trkpt lat="45.93091" lon="4.76478">
        <ele>169</ele>
        <time>2017-03-27T11:00:01Z</time>
      </trkpt>
      <trkpt lat="45.93087" lon="4.76474">
        <ele>169</ele>
        <time>2017-03-27T11:00:02Z</time>
      </trkpt>
      <trkpt lat="45.93082" lon="4.7647">
        <ele>169</ele>
        <time>2017-03-27T11:00:03Z</time>
      </trkpt>
      <trkpt lat="45.93078" lon="4.76465">
        <ele>169</ele>
        <time>2017-03-27T11:00:04Z</time>
      </trkpt>
      <trkpt lat="45.93074" lon="4.76462">
        <ele>169</ele>
        <time>2017-03-27T11:00:05Z</time>
      </trkpt>
      <trkpt lat="45.9307" lon="4.76458">
        <ele>169</ele>
        <time>2017-03-27T11:00:06Z</time>
      </trkpt>
      <trkpt lat="45.93062" lon="4.76452">
        <ele>169</ele>
        <time>2017-03-27T11:00:08Z</time>
      </trkpt>
      <trkpt lat="45.93059" lon="4.76448">
        <ele>169</ele>
        <time>2017-03-27T11:00:09Z</time>
      </trkpt>
      <trkpt lat="45.93054" lon="4.76444">
        <ele>169</ele>
        <time>2017-03-27T11:00:10Z</time>
      </trkpt>
      <trkpt lat="45.93049" lon="4.7644">
        <ele>169</ele>
        <time>2017-03-27T11:00:11Z</time>
      </trkpt>
      <trkpt lat="45.93044" lon="4.76435">
        <ele>169</ele>
        <time>2017-03-27T11:00:12Z</time>
      </trkpt>
      <trkpt lat="45.9304" lon="4.7643">
        <ele>169</ele>
        <time>2017-03-27T11:00:13Z</time>
      </trkpt>
      <trkpt lat="45.93035" lon="4.76426">
        <ele>169</ele>
        <time>2017-03-27T11:00:14Z</time>
      </trkpt>
      <trkpt lat="45.93031" lon="4.76422">
        <ele>169</ele>
        <time>2017-03-27T11:00:15Z</time>
      </trkpt>
      <trkpt lat="45.93026" lon="4.76417">
        <ele>169</ele>
        <time>2017-03-27T11:00:16Z</time>
      </trkpt>
      <trkpt lat="45.93022" lon="4.76413">
        <ele>169</ele>
        <time>2017-03-27T11:00:17Z</time>
      </trkpt>
      <trkpt lat="45.93017" lon="4.76409">
        <ele>169</ele>
        <time>2017-03-27T11:00:18Z</time>
      </trkpt>
      <trkpt lat="45.93012" lon="4.76404">
        <ele>169</ele>
        <time>2017-03-27T11:00:19Z</time>
      </trkpt>
      <trkpt lat="45.93008" lon="4.764">
        <ele>169</ele>
        <time>2017-03-27T11:00:20Z</time>
      </trkpt>
      <trkpt lat="45.93004" lon="4.76396">
        <ele>169</ele>
        <time>2017-03-27T11:00:21Z</time>
      </trkpt>
      <trkpt lat="45.93" lon="4.76392">
        <ele>169</ele>
        <time>2017-03-27T11:00:22Z</time>
      </trkpt>
      <trkpt lat="45.92996" lon="4.76389">
        <ele>169</ele>
        <time>2017-03-27T11:00:23Z</time>
      </trkpt>
      <trkpt lat="45.92988" lon="4.76382">
        <ele>169</ele>
        <time>2017-03-27T11:00:25Z</time>
      </trkpt>
      <trkpt lat="45.92984" lon="4.76378">
        <ele>169</ele>
        <time>2017-03-27T11:00:26Z</time>
      </trkpt>
      <trkpt lat="45.92977" lon="4.7637">
        <ele>169</ele>
        <time>2017-03-27T11:00:28Z</time>
      </trkpt>
      <trkpt lat="45.92973" lon="4.76366">
        <ele>169</ele>
        <time>2017-03-27T11:00:29Z</time>
      </trkpt>
      <trkpt lat="45.9297" lon="4.76362">
        <ele>169</ele>
        <time>2017-03-27T11:00:30Z</time>
      </trkpt>
      <trkpt lat="45.92966" lon="4.76358">
        <ele>169</ele>
        <time>2017-03-27T11:00:31Z</time>
      </trkpt>
      <trkpt lat="45.92962" lon="4.76354">
        <ele>169</ele>
        <time>2017-03-27T11:00:32Z</time>
      </trkpt>
      <trkpt lat="45.92957" lon="4.7635">
        <ele>169</ele>
        <time>2017-03-27T11:00:33Z</time>
      </trkpt>
      <trkpt lat="45.92953" lon="4.76345">
        <ele>169</ele>
        <time>2017-03-27T11:00:34Z</time>
      </trkpt>
      <trkpt lat="45.92949" lon="4.76341">
        <ele>169</ele>
        <time>2017-03-27T11:00:35Z</time>
      </trkpt>
      <trkpt lat="45.92944" lon="4.76337">
        <ele>169</ele>
        <time>2017-03-27T11:00:36Z</time>
      </trkpt>
      <trkpt lat="45.9294" lon="4.76333">
        <ele>169</ele>
        <time>2017-03-27T11:00:37Z</time>
      </trkpt>
      <trkpt lat="45.92935" lon="4.76328">
        <ele>169</ele>
        <time>2017-03-27T11:00:38Z</time>
      </trkpt>
      <trkpt lat="45.92931" lon="4.76324">
        <ele>169</ele>
        <time>2017-03-27T11:00:39Z</time>
      </trkpt>
      <trkpt lat="45.92927" lon="4.7632">
        <ele>169</ele>
        <time>2017-03-27T11:00:40Z</time>
      </trkpt>
      <trkpt lat="45.92923" lon="4.76316">
        <ele>169</ele>
        <time>2017-03-27T11:00:41Z</time>
      </trkpt>
      <trkpt lat="45.92919" lon="4.76312">
        <ele>169</ele>
        <time>2017-03-27T11:00:42Z</time>
      </trkpt>
      <trkpt lat="45.92915" lon="4.76308">
        <ele>169</ele>
        <time>2017-03-27T11:00:43Z</time>
      </trkpt>
      <trkpt lat="45.9291" lon="4.76304">
        <ele>169</ele>
        <time>2017-03-27T11:00:44Z</time>
      </trkpt>
      <trkpt lat="45.92906" lon="4.763">
        <ele>169</ele>
        <time>2017-03-27T11:00:45Z</time>
      </trkpt>
      <trkpt lat="45.92901" lon="4.76296">
        <ele>169</ele>
        <time>2017-03-27T11:00:46Z</time>
      </trkpt>
      <trkpt lat="45.92897" lon="4.76292">
        <ele>169</ele>
        <time>2017-03-27T11:00:47Z</time>
      </trkpt>
      <trkpt lat="45.92892" lon="4.76287">
        <ele>169</ele>
        <time>2017-03-27T11:00:48Z</time>
      </trkpt>
      <trkpt lat="45.92888" lon="4.76282">
        <ele>169</ele>
        <time>2017-03-27T11:00:49Z</time>
      </trkpt>
      <trkpt lat="45.92884" lon="4.76278">
        <ele>169</ele>
        <time>2017-03-27T11:00:50Z</time>
      </trkpt>
      <trkpt lat="45.9288" lon="4.76275">
        <ele>169</ele>
        <time>2017-03-27T11:00:51Z</time>
      </trkpt>
      <trkpt lat="45.92876" lon="4.76271">
        <ele>169</ele>
        <time>2017-03-27T11:00:52Z</time>
      </trkpt>
      <trkpt lat="45.92871" lon="4.76267">
        <ele>169</ele>
        <time>2017-03-27T11:00:53Z</time>
      </trkpt>
      <trkpt lat="45.92868" lon="4.76263">
        <ele>169</ele>
        <time>2017-03-27T11:00:54Z</time>
      </trkpt>
      <trkpt lat="45.92864" lon="4.76259">
        <ele>169</ele>
        <time>2017-03-27T11:00:55Z</time>
      </trkpt>
      <trkpt lat="45.92857" lon="4.76251">
        <ele>169</ele>
        <time>2017-03-27T11:00:57Z</time>
      </trkpt>
      <trkpt lat="45.92854" lon="4.76248">
        <ele>169</ele>
        <time>2017-03-27T11:00:58Z</time>
      </trkpt>
      <trkpt lat="45.92847" lon="4.7624">
        <ele>169</ele>
        <time>2017-03-27T11:01:00Z</time>
      </trkpt>
      <trkpt lat="45.92843" lon="4.76236">
        <ele>169</ele>
        <time>2017-03-27T11:01:01Z</time>
      </trkpt>
      <trkpt lat="45.92838" lon="4.76231">
        <ele>169</ele>
        <time>2017-03-27T11:01:02Z</time>
      </trkpt>
      <trkpt lat="45.92834" lon="4.76227">
        <ele>168</ele>
        <time>2017-03-27T11:01:03Z</time>
      </trkpt>
      <trkpt lat="45.9283" lon="4.76222">
        <ele>168</ele>
        <time>2017-03-27T11:01:04Z</time>
      </trkpt>
      <trkpt lat="45.92825" lon="4.76218">
        <ele>168</ele>
        <time>2017-03-27T11:01:05Z</time>
      </trkpt>
      <trkpt lat="45.9282" lon="4.76214">
        <ele>168</ele>
        <time>2017-03-27T11:01:06Z</time>
      </trkpt>
      <trkpt lat="45.92816" lon="4.7621">
        <ele>168</ele>
        <time>2017-03-27T11:01:07Z</time>
      </trkpt>
      <trkpt lat="45.92812" lon="4.76206">
        <ele>168</ele>
        <time>2017-03-27T11:01:08Z</time>
      </trkpt>
      <trkpt lat="45.92808" lon="4.76202">
        <ele>168</ele>
        <time>2017-03-27T11:01:09Z</time>
      </trkpt>
      <trkpt lat="45.92804" lon="4.76198">
        <ele>168</ele>
        <time>2017-03-27T11:01:10Z</time>
      </trkpt>
      <trkpt lat="45.928" lon="4.76194">
        <ele>168</ele>
        <time>2017-03-27T11:01:11Z</time>
      </trkpt>
      <trkpt lat="45.92796" lon="4.7619">
        <ele>168</ele>
        <time>2017-03-27T11:01:12Z</time>
      </trkpt>
      <trkpt lat="45.92791" lon="4.76185">
        <ele>168</ele>
        <time>2017-03-27T11:01:13Z</time>
      </trkpt>
      <trkpt lat="45.92786" lon="4.76181">
        <ele>168</ele>
        <time>2017-03-27T11:01:14Z</time>
      </trkpt>
      <trkpt lat="45.92781" lon="4.76177">
        <ele>167</ele>
        <time>2017-03-27T11:01:15Z</time>
      </trkpt>
      <trkpt lat="45.92776" lon="4.76173">
        <ele>167</ele>
        <time>2017-03-27T11:01:16Z</time>
      </trkpt>
      <trkpt lat="45.92772" lon="4.76168">
        <ele>167</ele>
        <time>2017-03-27T11:01:17Z</time>
      </trkpt>
      <trkpt lat="45.92767" lon="4.76165">
        <ele>167</ele>
        <time>2017-03-27T11:01:18Z</time>
      </trkpt>
      <trkpt lat="45.92763" lon="4.76162">
        <ele>167</ele>
        <time>2017-03-27T11:01:19Z</time>
      </trkpt>
      <trkpt lat="45.92759" lon="4.76159">
        <ele>167</ele>
        <time>2017-03-27T11:01:20Z</time>
      </trkpt>
      <trkpt lat="45.92755" lon="4.76155">
        <ele>167</ele>
        <time>2017-03-27T11:01:21Z</time>
      </trkpt>
      <trkpt lat="45.9275" lon="4.76152">
        <ele>167</ele>
        <time>2017-03-27T11:01:22Z</time>
      </trkpt>
      <trkpt lat="45.92746" lon="4.76148">
        <ele>168</ele>
        <time>2017-03-27T11:01:23Z</time>
      </trkpt>
      <trkpt lat="45.92742" lon="4.76144">
        <ele>168</ele>
        <time>2017-03-27T11:01:24Z</time>
      </trkpt>
      <trkpt lat="45.92738" lon="4.7614">
        <ele>168</ele>
        <time>2017-03-27T11:01:25Z</time>
      </trkpt>
      <trkpt lat="45.9273" lon="4.76135">
        <ele>168</ele>
        <time>2017-03-27T11:01:27Z</time>
      </trkpt>
      <trkpt lat="45.92726" lon="4.76132">
        <ele>168</ele>
        <time>2017-03-27T11:01:28Z</time>
      </trkpt>
      <trkpt lat="45.92718" lon="4.76125">
        <ele>168</ele>
        <time>2017-03-27T11:01:30Z</time>
      </trkpt>
      <trkpt lat="45.92714" lon="4.76122">
        <ele>168</ele>
        <time>2017-03-27T11:01:31Z</time>
      </trkpt>
      <trkpt lat="45.92707" lon="4.76117">
        <ele>169</ele>
        <time>2017-03-27T11:01:33Z</time>
      </trkpt>
      <trkpt lat="45.92703" lon="4.76114">
        <ele>169</ele>
        <time>2017-03-27T11:01:34Z</time>
      </trkpt>
      <trkpt lat="45.92699" lon="4.76111">
        <ele>169</ele>
        <time>2017-03-27T11:01:35Z</time>
      </trkpt>
      <trkpt lat="45.92694" lon="4.76108">
        <ele>169</ele>
        <time>2017-03-27T11:01:36Z</time>
      </trkpt>
      <trkpt lat="45.9269" lon="4.76105">
        <ele>169</ele>
        <time>2017-03-27T11:01:37Z</time>
      </trkpt>
      <trkpt lat="45.92687" lon="4.76101">
        <ele>169</ele>
        <time>2017-03-27T11:01:38Z</time>
      </trkpt>
      <trkpt lat="45.92683" lon="4.76098">
        <ele>169</ele>
        <time>2017-03-27T11:01:39Z</time>
      </trkpt>
      <trkpt lat="45.92679" lon="4.76094">
        <ele>169</ele>
        <time>2017-03-27T11:01:40Z</time>
      </trkpt>
      <trkpt lat="45.92671" lon="4.76089">
        <ele>170</ele>
        <time>2017-03-27T11:01:42Z</time>
      </trkpt>
      <trkpt lat="45.92667" lon="4.76086">
        <ele>170</ele>
        <time>2017-03-27T11:01:43Z</time>
      </trkpt>
      <trkpt lat="45.92662" lon="4.76082">
        <ele>170</ele>
        <time>2017-03-27T11:01:44Z</time>
      </trkpt>
      <trkpt lat="45.92658" lon="4.76079">
        <ele>170</ele>
        <time>2017-03-27T11:01:45Z</time>
      </trkpt>
      <trkpt lat="45.92654" lon="4.76076">
        <ele>170</ele>
        <time>2017-03-27T11:01:46Z</time>
      </trkpt>
      <trkpt lat="45.92649" lon="4.76072">
        <ele>170</ele>
        <time>2017-03-27T11:01:47Z</time>
      </trkpt>
      <trkpt lat="45.92645" lon="4.76069">
        <ele>170</ele>
        <time>2017-03-27T11:01:48Z</time>
      </trkpt>
      <trkpt lat="45.9264" lon="4.76066">
        <ele>170</ele>
        <time>2017-03-27T11:01:49Z</time>
      </trkpt>
      <trkpt lat="45.92636" lon="4.76063">
        <ele>170</ele>
        <time>2017-03-27T11:01:50Z</time>
      </trkpt>
      <trkpt lat="45.92631" lon="4.7606">
        <ele>170</ele>
        <time>2017-03-27T11:01:51Z</time>
      </trkpt>
      <trkpt lat="45.92627" lon="4.76057">
        <ele>170</ele>
        <time>2017-03-27T11:01:52Z</time>
      </trkpt>
      <trkpt lat="45.92623" lon="4.76054">
        <ele>171</ele>
        <time>2017-03-27T11:01:53Z</time>
      </trkpt>
      <trkpt lat="45.92619" lon="4.76052">
        <ele>171</ele>
        <time>2017-03-27T11:01:54Z</time>
      </trkpt>
      <trkpt lat="45.92614" lon="4.76049">
        <ele>171</ele>
        <time>2017-03-27T11:01:55Z</time>
      </trkpt>
      <trkpt lat="45.9261" lon="4.76046">
        <ele>171</ele>
        <time>2017-03-27T11:01:56Z</time>
      </trkpt>
      <trkpt lat="45.92606" lon="4.76042">
        <ele>171</ele>
        <time>2017-03-27T11:01:57Z</time>
      </trkpt>
      <trkpt lat="45.92602" lon="4.76039">
        <ele>171</ele>
        <time>2017-03-27T11:01:58Z</time>
      </trkpt>
      <trkpt lat="45.92598" lon="4.76036">
        <ele>171</ele>
        <time>2017-03-27T11:01:59Z</time>
      </trkpt>
      <trkpt lat="45.92594" lon="4.76033">
        <ele>171</ele>
        <time>2017-03-27T11:02:00Z</time>
      </trkpt>
      <trkpt lat="45.9259" lon="4.7603">
        <ele>171</ele>
        <time>2017-03-27T11:02:01Z</time>
      </trkpt>
      <trkpt lat="45.92582" lon="4.76024">
        <ele>172</ele>
        <time>2017-03-27T11:02:03Z</time>
      </trkpt>
      <trkpt lat="45.92578" lon="4.76021">
        <ele>172</ele>
        <time>2017-03-27T11:02:04Z</time>
      </trkpt>
      <trkpt lat="45.92571" lon="4.76017">
        <ele>172</ele>
        <time>2017-03-27T11:02:06Z</time>
      </trkpt>
      <trkpt lat="45.92567" lon="4.76014">
        <ele>172</ele>
        <time>2017-03-27T11:02:07Z</time>
      </trkpt>
      <trkpt lat="45.9256" lon="4.76009">
        <ele>172</ele>
        <time>2017-03-27T11:02:09Z</time>
      </trkpt>
      <trkpt lat="45.92556" lon="4.76006">
        <ele>172</ele>
        <time>2017-03-27T11:02:10Z</time>
      </trkpt>
      <trkpt lat="45.92548" lon="4.76002">
        <ele>172</ele>
        <time>2017-03-27T11:02:12Z</time>
      </trkpt>
      <trkpt lat="45.92544" lon="4.75999">
        <ele>172</ele>
        <time>2017-03-27T11:02:13Z</time>
      </trkpt>
      <trkpt lat="45.92537" lon="4.75994">
        <ele>172</ele>
        <time>2017-03-27T11:02:15Z</time>
      </trkpt>
      <trkpt lat="45.92533" lon="4.75991">
        <ele>172</ele>
        <time>2017-03-27T11:02:16Z</time>
      </trkpt>
      <trkpt lat="45.92525" lon="4.75987">
        <ele>172</ele>
        <time>2017-03-27T11:02:18Z</time>
      </trkpt>
      <trkpt lat="45.92522" lon="4.75984">
        <ele>172</ele>
        <time>2017-03-27T11:02:19Z</time>
      </trkpt>
      <trkpt lat="45.92513" lon="4.75979">
        <ele>172</ele>
        <time>2017-03-27T11:02:21Z</time>
      </trkpt>
      <trkpt lat="45.9251" lon="4.75977">
        <ele>172</ele>
        <time>2017-03-27T11:02:22Z</time>
      </trkpt>
      <trkpt lat="45.92502" lon="4.75971">
        <ele>172</ele>
        <time>2017-03-27T11:02:24Z</time>
      </trkpt>
      <trkpt lat="45.92498" lon="4.75969">
        <ele>172</ele>
        <time>2017-03-27T11:02:25Z</time>
      </trkpt>
      <trkpt lat="45.9249" lon="4.75964">
        <ele>172</ele>
        <time>2017-03-27T11:02:27Z</time>
      </trkpt>
      <trkpt lat="45.92486" lon="4.75961">
        <ele>172</ele>
        <time>2017-03-27T11:02:28Z</time>
      </trkpt>
      <trkpt lat="45.92479" lon="4.75956">
        <ele>172</ele>
        <time>2017-03-27T11:02:30Z</time>
      </trkpt>
      <trkpt lat="45.92475" lon="4.75953">
        <ele>172</ele>
        <time>2017-03-27T11:02:31Z</time>
      </trkpt>
      <trkpt lat="45.92468" lon="4.75948">
        <ele>172</ele>
        <time>2017-03-27T11:02:33Z</time>
      </trkpt>
      <trkpt lat="45.92463" lon="4.75946">
        <ele>172</ele>
        <time>2017-03-27T11:02:34Z</time>
      </trkpt>
      <trkpt lat="45.92459" lon="4.75943">
        <ele>172</ele>
        <time>2017-03-27T11:02:35Z</time>
      </trkpt>
      <trkpt lat="45.92455" lon="4.7594">
        <ele>172</ele>
        <time>2017-03-27T11:02:36Z</time>
      </trkpt>
      <trkpt lat="45.9245" lon="4.75937">
        <ele>172</ele>
        <time>2017-03-27T11:02:37Z</time>
      </trkpt>
      <trkpt lat="45.92446" lon="4.75934">
        <ele>172</ele>
        <time>2017-03-27T11:02:38Z</time>
      </trkpt>
      <trkpt lat="45.92442" lon="4.75931">
        <ele>172</ele>
        <time>2017-03-27T11:02:39Z</time>
      </trkpt>
      <trkpt lat="45.92437" lon="4.75928">
        <ele>172</ele>
        <time>2017-03-27T11:02:40Z</time>
      </trkpt>
      <trkpt lat="45.92433" lon="4.75925">
        <ele>172</ele>
        <time>2017-03-27T11:02:41Z</time>
      </trkpt>
      <trkpt lat="45.92428" lon="4.75922">
        <ele>172</ele>
        <time>2017-03-27T11:02:42Z</time>
      </trkpt>
      <trkpt lat="45.92424" lon="4.75919">
        <ele>172</ele>
        <time>2017-03-27T11:02:43Z</time>
      </trkpt>
      <trkpt lat="45.9242" lon="4.75915">
        <ele>172</ele>
        <time>2017-03-27T11:02:44Z</time>
      </trkpt>
      <trkpt lat="45.92415" lon="4.75912">
        <ele>172</ele>
        <time>2017-03-27T11:02:45Z</time>
      </trkpt>
      <trkpt lat="45.9241" lon="4.7591">
        <ele>172</ele>
        <time>2017-03-27T11:02:46Z</time>
      </trkpt>
      <trkpt lat="45.92406" lon="4.75907">
        <ele>172</ele>
        <time>2017-03-27T11:02:47Z</time>
      </trkpt>
      <trkpt lat="45.92402" lon="4.75904">
        <ele>173</ele>
        <time>2017-03-27T11:02:48Z</time>
      </trkpt>
      <trkpt lat="45.92398" lon="4.75901">
        <ele>173</ele>
        <time>2017-03-27T11:02:49Z</time>
      </trkpt>
      <trkpt lat="45.92393" lon="4.75897">
        <ele>173</ele>
        <time>2017-03-27T11:02:50Z</time>
      </trkpt>
      <trkpt lat="45.92389" lon="4.75894">
        <ele>173</ele>
        <time>2017-03-27T11:02:51Z</time>
      </trkpt>
      <trkpt lat="45.92384" lon="4.75892">
        <ele>173</ele>
        <time>2017-03-27T11:02:52Z</time>
      </trkpt>
      <trkpt lat="45.9238" lon="4.75888">
        <ele>173</ele>
        <time>2017-03-27T11:02:53Z</time>
      </trkpt>
      <trkpt lat="45.92375" lon="4.75886">
        <ele>173</ele>
        <time>2017-03-27T11:02:54Z</time>
      </trkpt>
      <trkpt lat="45.9237" lon="4.75883">
        <ele>173</ele>
        <time>2017-03-27T11:02:55Z</time>
      </trkpt>
      <trkpt lat="45.92366" lon="4.7588">
        <ele>173</ele>
        <time>2017-03-27T11:02:56Z</time>
      </trkpt>
      <trkpt lat="45.92361" lon="4.75876">
        <ele>173</ele>
        <time>2017-03-27T11:02:57Z</time>
      </trkpt>
      <trkpt lat="45.92357" lon="4.75873">
        <ele>173</ele>
        <time>2017-03-27T11:02:58Z</time>
      </trkpt>
      <trkpt lat="45.92352" lon="4.7587">
        <ele>173</ele>
        <time>2017-03-27T11:02:59Z</time>
      </trkpt>
      <trkpt lat="45.92347" lon="4.75867">
        <ele>173</ele>
        <time>2017-03-27T11:03:00Z</time>
      </trkpt>
      <trkpt lat="45.92343" lon="4.75864">
        <ele>173</ele>
        <time>2017-03-27T11:03:01Z</time>
      </trkpt>
      <trkpt lat="45.92339" lon="4.75861">
        <ele>173</ele>
        <time>2017-03-27T11:03:02Z</time>
      </trkpt>
      <trkpt lat="45.92335" lon="4.75858">
        <ele>173</ele>
        <time>2017-03-27T11:03:03Z</time>
      </trkpt>
      <trkpt lat="45.9233" lon="4.75856">
        <ele>174</ele>
        <time>2017-03-27T11:03:04Z</time>
      </trkpt>
      <trkpt lat="45.92326" lon="4.75853">
        <ele>174</ele>
        <time>2017-03-27T11:03:05Z</time>
      </trkpt>
      <trkpt lat="45.92322" lon="4.75851">
        <ele>174</ele>
        <time>2017-03-27T11:03:06Z</time>
      </trkpt>
      <trkpt lat="45.92314" lon="4.75846">
        <ele>174</ele>
        <time>2017-03-27T11:03:08Z</time>
      </trkpt>
      <trkpt lat="45.9231" lon="4.75843">
        <ele>173</ele>
        <time>2017-03-27T11:03:09Z</time>
      </trkpt>
      <trkpt lat="45.92302" lon="4.75837">
        <ele>173</ele>
        <time>2017-03-27T11:03:11Z</time>
      </trkpt>
      <trkpt lat="45.92298" lon="4.75834">
        <ele>173</ele>
        <time>2017-03-27T11:03:12Z</time>
      </trkpt>
      <trkpt lat="45.92293" lon="4.75832">
        <ele>174</ele>
        <time>2017-03-27T11:03:13Z</time>
      </trkpt>
      <trkpt lat="45.92289" lon="4.75829">
        <ele>174</ele>
        <time>2017-03-27T11:03:14Z</time>
      </trkpt>
      <trkpt lat="45.92285" lon="4.75826">
        <ele>174</ele>
        <time>2017-03-27T11:03:15Z</time>
      </trkpt>
      <trkpt lat="45.92281" lon="4.75823">
        <ele>174</ele>
        <time>2017-03-27T11:03:16Z</time>
      </trkpt>
      <trkpt lat="45.92277" lon="4.75818">
        <ele>174</ele>
        <time>2017-03-27T11:03:17Z</time>
      </trkpt>
      <trkpt lat="45.92273" lon="4.75815">
        <ele>174</ele>
        <time>2017-03-27T11:03:18Z</time>
      </trkpt>
      <trkpt lat="45.92267" lon="4.75806">
        <ele>174</ele>
        <time>2017-03-27T11:03:20Z</time>
      </trkpt>
      <trkpt lat="45.92265" lon="4.75801">
        <ele>174</ele>
        <time>2017-03-27T11:03:21Z</time>
      </trkpt>
      <trkpt lat="45.92262" lon="4.75789">
        <ele>174</ele>
        <time>2017-03-27T11:03:23Z</time>
      </trkpt>
      <trkpt lat="45.9226" lon="4.75784">
        <ele>174</ele>
        <time>2017-03-27T11:03:24Z</time>
      </trkpt>
      <trkpt lat="45.92258" lon="4.75773">
        <ele>174</ele>
        <time>2017-03-27T11:03:26Z</time>
      </trkpt>
      <trkpt lat="45.92257" lon="4.75767">
        <ele>174</ele>
        <time>2017-03-27T11:03:27Z</time>
      </trkpt>
      <trkpt lat="45.92255" lon="4.75757">
        <ele>174</ele>
        <time>2017-03-27T11:03:29Z</time>
      </trkpt>
      <trkpt lat="45.92254" lon="4.75751">
        <ele>174</ele>
        <time>2017-03-27T11:03:30Z</time>
      </trkpt>
      <trkpt lat="45.92251" lon="4.7574">
        <ele>174</ele>
        <time>2017-03-27T11:03:32Z</time>
      </trkpt>
      <trkpt lat="45.9225" lon="4.75734">
        <ele>174</ele>
        <time>2017-03-27T11:03:33Z</time>
      </trkpt>
      <trkpt lat="45.92248" lon="4.75727">
        <ele>174</ele>
        <time>2017-03-27T11:03:34Z</time>
      </trkpt>
      <trkpt lat="45.92246" lon="4.75721">
        <ele>174</ele>
        <time>2017-03-27T11:03:35Z</time>
      </trkpt>
      <trkpt lat="45.92243" lon="4.75715">
        <ele>174</ele>
        <time>2017-03-27T11:03:36Z</time>
      </trkpt>
      <trkpt lat="45.92241" lon="4.75709">
        <ele>174</ele>
        <time>2017-03-27T11:03:37Z</time>
      </trkpt>
      <trkpt lat="45.92238" lon="4.75703">
        <ele>174</ele>
        <time>2017-03-27T11:03:38Z</time>
      </trkpt>
      <trkpt lat="45.92234" lon="4.75698">
        <ele>174</ele>
        <time>2017-03-27T11:03:39Z</time>
      </trkpt>
      <trkpt lat="45.92231" lon="4.75694">
        <ele>174</ele>
        <time>2017-03-27T11:03:40Z</time>
      </trkpt>
      <trkpt lat="45.92227" lon="4.75689">
        <ele>174</ele>
        <time>2017-03-27T11:03:41Z</time>
      </trkpt>
      <trkpt lat="45.92223" lon="4.75685">
        <ele>174</ele>
        <time>2017-03-27T11:03:42Z</time>
      </trkpt>
      <trkpt lat="45.92219" lon="4.75681">
        <ele>174</ele>
        <time>2017-03-27T11:03:43Z</time>
      </trkpt>
      <trkpt lat="45.92215" lon="4.75677">
        <ele>174</ele>
        <time>2017-03-27T11:03:44Z</time>
      </trkpt>
      <trkpt lat="45.9221" lon="4.75673">
        <ele>174</ele>
        <time>2017-03-27T11:03:45Z</time>
      </trkpt>
      <trkpt lat="45.92206" lon="4.75669">
        <ele>174</ele>
        <time>2017-03-27T11:03:46Z</time>
      </trkpt>
      <trkpt lat="45.92202" lon="4.75664">
        <ele>174</ele>
        <time>2017-03-27T11:03:47Z</time>
      </trkpt>
      <trkpt lat="45.92198" lon="4.75659">
        <ele>174</ele>
        <time>2017-03-27T11:03:48Z</time>
      </trkpt>
      <trkpt lat="45.92194" lon="4.75656">
        <ele>174</ele>
        <time>2017-03-27T11:03:49Z</time>
      </trkpt>
      <trkpt lat="45.9219" lon="4.75652">
        <ele>174</ele>
        <time>2017-03-27T11:03:50Z</time>
      </trkpt>
      <trkpt lat="45.92186" lon="4.75649">
        <ele>174</ele>
        <time>2017-03-27T11:03:51Z</time>
      </trkpt>
      <trkpt lat="45.92182" lon="4.75645">
        <ele>174</ele>
        <time>2017-03-27T11:03:52Z</time>
      </trkpt>
      <trkpt lat="45.92178" lon="4.75641">
        <ele>174</ele>
        <time>2017-03-27T11:03:53Z</time>
      </trkpt>
      <trkpt lat="45.92173" lon="4.75637">
        <ele>174</ele>
        <time>2017-03-27T11:03:54Z</time>
      </trkpt>
      <trkpt lat="45.92169" lon="4.75632">
        <ele>174</ele>
        <time>2017-03-27T11:03:55Z</time>
      </trkpt>
      <trkpt lat="45.92165" lon="4.75628">
        <ele>174</ele>
        <time>2017-03-27T11:03:56Z</time>
      </trkpt>
      <trkpt lat="45.92161" lon="4.75623">
        <ele>174</ele>
        <time>2017-03-27T11:03:57Z</time>
      </trkpt>
      <trkpt lat="45.92156" lon="4.75618">
        <ele>174</ele>
        <time>2017-03-27T11:03:58Z</time>
      </trkpt>
      <trkpt lat="45.92152" lon="4.75613">
        <ele>174</ele>
        <time>2017-03-27T11:03:59Z</time>
      </trkpt>
      <trkpt lat="45.92147" lon="4.75609">
        <ele>174</ele>
        <time>2017-03-27T11:04:00Z</time>
      </trkpt>
      <trkpt lat="45.92143" lon="4.75605">
        <ele>174</ele>
        <time>2017-03-27T11:04:01Z</time>
      </trkpt>
      <trkpt lat="45.92138" lon="4.75601">
        <ele>174</ele>
        <time>2017-03-27T11:04:02Z</time>
      </trkpt>
      <trkpt lat="45.92135" lon="4.75597">
        <ele>174</ele>
        <time>2017-03-27T11:04:03Z</time>
      </trkpt>
      <trkpt lat="45.92128" lon="4.75589">
        <ele>174</ele>
        <time>2017-03-27T11:04:05Z</time>
      </trkpt>
      <trkpt lat="45.92125" lon="4.75585">
        <ele>174</ele>
        <time>2017-03-27T11:04:06Z</time>
      </trkpt>
      <trkpt lat="45.9212" lon="4.75578">
        <ele>174</ele>
        <time>2017-03-27T11:04:08Z</time>
      </trkpt>
      <trkpt lat="45.92119" lon="4.75575">
        <ele>174</ele>
        <time>2017-03-27T11:04:09Z</time>
      </trkpt>
      <trkpt lat="45.92118" lon="4.7557">
        <ele>174</ele>
        <time>2017-03-27T11:04:13Z</time>
      </trkpt>
      <trkpt lat="45.92118" lon="4.75569">
        <ele>174</ele>
        <time>2017-03-27T11:04:14Z</time>
      </trkpt>
      <trkpt lat="45.92118" lon="4.75563">
        <ele>174</ele>
        <time>2017-03-27T11:04:19Z</time>
      </trkpt>
      <trkpt lat="45.92118" lon="4.75561">
        <ele>174</ele>
        <time>2017-03-27T11:04:20Z</time>
      </trkpt>
      <trkpt lat="45.92122" lon="4.75551">
        <ele>174</ele>
        <time>2017-03-27T11:04:25Z</time>
      </trkpt>
      <trkpt lat="45.92124" lon="4.75549">
        <ele>174</ele>
        <time>2017-03-27T11:04:26Z</time>
      </trkpt>
      <trkpt lat="45.92128" lon="4.75541">
        <ele>174</ele>
        <time>2017-03-27T11:04:29Z</time>
      </trkpt>
      <trkpt lat="45.9213" lon="4.75538">
        <ele>174</ele>
        <time>2017-03-27T11:04:30Z</time>
      </trkpt>
      <trkpt lat="45.92135" lon="4.75532">
        <ele>174</ele>
        <time>2017-03-27T11:04:33Z</time>
      </trkpt>
      <trkpt lat="45.92137" lon="4.7553">
        <ele>174</ele>
        <time>2017-03-27T11:04:34Z</time>
      </trkpt>
      <trkpt lat="45.92141" lon="4.75519">
        <ele>174</ele>
        <time>2017-03-27T11:05:52Z</time>
      </trkpt>
      <trkpt lat="45.92142" lon="4.75518">
        <ele>174</ele>
        <time>2017-03-27T11:05:53Z</time>
      </trkpt>
      <trkpt lat="45.92146" lon="4.75507">
        <ele>175</ele>
        <time>2017-03-27T11:05:57Z</time>
      </trkpt>
      <trkpt lat="45.92147" lon="4.75503">
        <ele>175</ele>
        <time>2017-03-27T11:05:58Z</time>
      </trkpt>
      <trkpt lat="45.92151" lon="4.75494">
        <ele>175</ele>
        <time>2017-03-27T11:06:00Z</time>
      </trkpt>
      <trkpt lat="45.92153" lon="4.75489">
        <ele>176</ele>
        <time>2017-03-27T11:06:01Z</time>
      </trkpt>
      <trkpt lat="45.92155" lon="4.75483">
        <ele>176</ele>
        <time>2017-03-27T11:06:02Z</time>
      </trkpt>
      <trkpt lat="45.92157" lon="4.75477">
        <ele>176</ele>
        <time>2017-03-27T11:06:03Z</time>
      </trkpt>
      <trkpt lat="45.92159" lon="4.7547">
        <ele>176</ele>
        <time>2017-03-27T11:06:04Z</time>
      </trkpt>
      <trkpt lat="45.92162" lon="4.75464">
        <ele>176</ele>
        <time>2017-03-27T11:06:05Z</time>
      </trkpt>
      <trkpt lat="45.92164" lon="4.75457">
        <ele>176</ele>
        <time>2017-03-27T11:06:06Z</time>
      </trkpt>
      <trkpt lat="45.92167" lon="4.7545">
        <ele>176</ele>
        <time>2017-03-27T11:06:07Z</time>
      </trkpt>
      <trkpt lat="45.92169" lon="4.75443">
        <ele>177</ele>
        <time>2017-03-27T11:06:08Z</time>
      </trkpt>
      <trkpt lat="45.92172" lon="4.75435">
        <ele>177</ele>
        <time>2017-03-27T11:06:09Z</time>
      </trkpt>
      <trkpt lat="45.92174" lon="4.75428">
        <ele>177</ele>
        <time>2017-03-27T11:06:10Z</time>
      </trkpt>
      <trkpt lat="45.92177" lon="4.7542">
        <ele>177</ele>
        <time>2017-03-27T11:06:11Z</time>
      </trkpt>
      <trkpt lat="45.9218" lon="4.75413">
        <ele>177</ele>
        <time>2017-03-27T11:06:12Z</time>
      </trkpt>
      <trkpt lat="45.92182" lon="4.75407">
        <ele>177</ele>
        <time>2017-03-27T11:06:13Z</time>
      </trkpt>
      <trkpt lat="45.92184" lon="4.754">
        <ele>177</ele>
        <time>2017-03-27T11:06:14Z</time>
      </trkpt>
      <trkpt lat="45.92186" lon="4.75394">
        <ele>177</ele>
        <time>2017-03-27T11:06:15Z</time>
      </trkpt>
      <trkpt lat="45.92189" lon="4.75389">
        <ele>177</ele>
        <time>2017-03-27T11:06:16Z</time>
      </trkpt>
      <trkpt lat="45.92191" lon="4.75382">
        <ele>177</ele>
        <time>2017-03-27T11:06:17Z</time>
      </trkpt>
      <trkpt lat="45.92194" lon="4.75376">
        <ele>177</ele>
        <time>2017-03-27T11:06:18Z</time>
      </trkpt>
      <trkpt lat="45.92196" lon="4.75369">
        <ele>177</ele>
        <time>2017-03-27T11:06:19Z</time>
      </trkpt>
      <trkpt lat="45.92199" lon="4.75362">
        <ele>177</ele>
        <time>2017-03-27T11:06:20Z</time>
      </trkpt>
      <trkpt lat="45.92202" lon="4.75354">
        <ele>177</ele>
        <time>2017-03-27T11:06:21Z</time>
      </trkpt>
      <trkpt lat="45.92203" lon="4.75347">
        <ele>177</ele>
        <time>2017-03-27T11:06:22Z</time>
      </trkpt>
      <trkpt lat="45.92205" lon="4.7534">
        <ele>177</ele>
        <time>2017-03-27T11:06:23Z</time>
      </trkpt>
      <trkpt lat="45.92207" lon="4.75332">
        <ele>176</ele>
        <time>2017-03-27T11:06:24Z</time>
      </trkpt>
      <trkpt lat="45.9221" lon="4.75324">
        <ele>176</ele>
        <time>2017-03-27T11:06:25Z</time>
      </trkpt>
      <trkpt lat="45.92211" lon="4.75316">
        <ele>176</ele>
        <time>2017-03-27T11:06:26Z</time>
      </trkpt>
      <trkpt lat="45.92212" lon="4.75308">
        <ele>176</ele>
        <time>2017-03-27T11:06:27Z</time>
      </trkpt>
      <trkpt lat="45.92212" lon="4.753">
        <ele>176</ele>
        <time>2017-03-27T11:06:28Z</time>
      </trkpt>
      <trkpt lat="45.92213" lon="4.75291">
        <ele>176</ele>
        <time>2017-03-27T11:06:29Z</time>
      </trkpt>
      <trkpt lat="45.92213" lon="4.75283">
        <ele>176</ele>
        <time>2017-03-27T11:06:30Z</time>
      </trkpt>
      <trkpt lat="45.92213" lon="4.75275">
        <ele>176</ele>
        <time>2017-03-27T11:06:31Z</time>
      </trkpt>
      <trkpt lat="45.92213" lon="4.75266">
        <ele>176</ele>
        <time>2017-03-27T11:06:32Z</time>
      </trkpt>
      <trkpt lat="45.92214" lon="4.75258">
        <ele>175</ele>
        <time>2017-03-27T11:06:33Z</time>
      </trkpt>
      <trkpt lat="45.92214" lon="4.75249">
        <ele>175</ele>
        <time>2017-03-27T11:06:34Z</time>
      </trkpt>
      <trkpt lat="45.92214" lon="4.7524">
        <ele>175</ele>
        <time>2017-03-27T11:06:35Z</time>
      </trkpt>
      <trkpt lat="45.92215" lon="4.75231">
        <ele>175</ele>
        <time>2017-03-27T11:06:36Z</time>
      </trkpt>
      <trkpt lat="45.92215" lon="4.75221">
        <ele>175</ele>
        <time>2017-03-27T11:06:37Z</time>
      </trkpt>
      <trkpt lat="45.92216" lon="4.75212">
        <ele>175</ele>
        <time>2017-03-27T11:06:38Z</time>
      </trkpt>
      <trkpt lat="45.92218" lon="4.75203">
        <ele>175</ele>
        <time>2017-03-27T11:06:39Z</time>
      </trkpt>
      <trkpt lat="45.9222" lon="4.75194">
        <ele>175</ele>
        <time>2017-03-27T11:06:40Z</time>
      </trkpt>
      <trkpt lat="45.92223" lon="4.75184">
        <ele>175</ele>
        <time>2017-03-27T11:06:41Z</time>
      </trkpt>
      <trkpt lat="45.92225" lon="4.75176">
        <ele>175</ele>
        <time>2017-03-27T11:06:42Z</time>
      </trkpt>
      <trkpt lat="45.92228" lon="4.75167">
        <ele>175</ele>
        <time>2017-03-27T11:06:43Z</time>
      </trkpt>
      <trkpt lat="45.92232" lon="4.75159">
        <ele>174</ele>
        <time>2017-03-27T11:06:44Z</time>
      </trkpt>
      <trkpt lat="45.92236" lon="4.75151">
        <ele>174</ele>
        <time>2017-03-27T11:06:45Z</time>
      </trkpt>
      <trkpt lat="45.9224" lon="4.75144">
        <ele>174</ele>
        <time>2017-03-27T11:06:46Z</time>
      </trkpt>
      <trkpt lat="45.92244" lon="4.75137">
        <ele>174</ele>
        <time>2017-03-27T11:06:47Z</time>
      </trkpt>
      <trkpt lat="45.92249" lon="4.7513">
        <ele>174</ele>
        <time>2017-03-27T11:06:48Z</time>
      </trkpt>
      <trkpt lat="45.92253" lon="4.75124">
        <ele>174</ele>
        <time>2017-03-27T11:06:49Z</time>
      </trkpt>
      <trkpt lat="45.92258" lon="4.75119">
        <ele>174</ele>
        <time>2017-03-27T11:06:50Z</time>
      </trkpt>
      <trkpt lat="45.92263" lon="4.75113">
        <ele>174</ele>
        <time>2017-03-27T11:06:51Z</time>
      </trkpt>
      <trkpt lat="45.92268" lon="4.75108">
        <ele>174</ele>
        <time>2017-03-27T11:06:52Z</time>
      </trkpt>
      <trkpt lat="45.92272" lon="4.75102">
        <ele>173</ele>
        <time>2017-03-27T11:06:53Z</time>
      </trkpt>
      <trkpt lat="45.92277" lon="4.75097">
        <ele>173</ele>
        <time>2017-03-27T11:06:54Z</time>
      </trkpt>
      <trkpt lat="45.92282" lon="4.75092">
        <ele>173</ele>
        <time>2017-03-27T11:06:55Z</time>
      </trkpt>
      <trkpt lat="45.92286" lon="4.75088">
        <ele>173</ele>
        <time>2017-03-27T11:06:56Z</time>
      </trkpt>
      <trkpt lat="45.92291" lon="4.75083">
        <ele>172</ele>
        <time>2017-03-27T11:06:57Z</time>
      </trkpt>
      <trkpt lat="45.92295" lon="4.75078">
        <ele>172</ele>
        <time>2017-03-27T11:06:58Z</time>
      </trkpt>
      <trkpt lat="45.92299" lon="4.75072">
        <ele>172</ele>
        <time>2017-03-27T11:06:59Z</time>
      </trkpt>
      <trkpt lat="45.92304" lon="4.75066">
        <ele>172</ele>
        <time>2017-03-27T11:07:00Z</time>
      </trkpt>
      <trkpt lat="45.92309" lon="4.75059">
        <ele>172</ele>
        <time>2017-03-27T11:07:01Z</time>
      </trkpt>
      <trkpt lat="45.92314" lon="4.75052">
        <ele>172</ele>
        <time>2017-03-27T11:07:02Z</time>
      </trkpt>
      <trkpt lat="45.92319" lon="4.75045">
        <ele>172</ele>
        <time>2017-03-27T11:07:03Z</time>
      </trkpt>
      <trkpt lat="45.92323" lon="4.75037">
        <ele>171</ele>
        <time>2017-03-27T11:07:04Z</time>
      </trkpt>
      <trkpt lat="45.92327" lon="4.75029">
        <ele>171</ele>
        <time>2017-03-27T11:07:05Z</time>
      </trkpt>
      <trkpt lat="45.92332" lon="4.75021">
        <ele>171</ele>
        <time>2017-03-27T11:07:06Z</time>
      </trkpt>
      <trkpt lat="45.92335" lon="4.75013">
        <ele>170</ele>
        <time>2017-03-27T11:07:07Z</time>
      </trkpt>
      <trkpt lat="45.92339" lon="4.75005">
        <ele>170</ele>
        <time>2017-03-27T11:07:08Z</time>
      </trkpt>
      <trkpt lat="45.92342" lon="4.74997">
        <ele>170</ele>
        <time>2017-03-27T11:07:09Z</time>
      </trkpt>
      <trkpt lat="45.92345" lon="4.74989">
        <ele>170</ele>
        <time>2017-03-27T11:07:10Z</time>
      </trkpt>
      <trkpt lat="45.92348" lon="4.74982">
        <ele>170</ele>
        <time>2017-03-27T11:07:11Z</time>
      </trkpt>
      <trkpt lat="45.92351" lon="4.74974">
        <ele>170</ele>
        <time>2017-03-27T11:07:12Z</time>
      </trkpt>
      <trkpt lat="45.92355" lon="4.74966">
        <ele>170</ele>
        <time>2017-03-27T11:07:13Z</time>
      </trkpt>
      <trkpt lat="45.92358" lon="4.74957">
        <ele>170</ele>
        <time>2017-03-27T11:07:14Z</time>
      </trkpt>
      <trkpt lat="45.92362" lon="4.74949">
        <ele>170</ele>
        <time>2017-03-27T11:07:15Z</time>
      </trkpt>
      <trkpt lat="45.92365" lon="4.7494">
        <ele>170</ele>
        <time>2017-03-27T11:07:16Z</time>
      </trkpt>
      <trkpt lat="45.92369" lon="4.74931">
        <ele>170</ele>
        <time>2017-03-27T11:07:17Z</time>
      </trkpt>
      <trkpt lat="45.92372" lon="4.74923">
        <ele>170</ele>
        <time>2017-03-27T11:07:18Z</time>
      </trkpt>
      <trkpt lat="45.92376" lon="4.74914">
        <ele>171</ele>
        <time>2017-03-27T11:07:19Z</time>
      </trkpt>
      <trkpt lat="45.92379" lon="4.74906">
        <ele>171</ele>
        <time>2017-03-27T11:07:20Z</time>
      </trkpt>
      <trkpt lat="45.92382" lon="4.74898">
        <ele>171</ele>
        <time>2017-03-27T11:07:21Z</time>
      </trkpt>
      <trkpt lat="45.92385" lon="4.7489">
        <ele>171</ele>
        <time>2017-03-27T11:07:22Z</time>
      </trkpt>
      <trkpt lat="45.92388" lon="4.74883">
        <ele>171</ele>
        <time>2017-03-27T11:07:23Z</time>
      </trkpt>
      <trkpt lat="45.92391" lon="4.74876">
        <ele>171</ele>
        <time>2017-03-27T11:07:24Z</time>
      </trkpt>
      <trkpt lat="45.92393" lon="4.74869">
        <ele>171</ele>
        <time>2017-03-27T11:07:25Z</time>
      </trkpt>
      <trkpt lat="45.92395" lon="4.74862">
        <ele>171</ele>
        <time>2017-03-27T11:07:26Z</time>
      </trkpt>
      <trkpt lat="45.92397" lon="4.74855">
        <ele>171</ele>
        <time>2017-03-27T11:07:27Z</time>
      </trkpt>
      <trkpt lat="45.92399" lon="4.74848">
        <ele>171</ele>
        <time>2017-03-27T11:07:28Z</time>
      </trkpt>
      <trkpt lat="45.92401" lon="4.74841">
        <ele>171</ele>
        <time>2017-03-27T11:07:29Z</time>
      </trkpt>
      <trkpt lat="45.92402" lon="4.74833">
        <ele>171</ele>
        <time>2017-03-27T11:07:30Z</time>
      </trkpt>
      <trkpt lat="45.92404" lon="4.74825">
        <ele>171</ele>
        <time>2017-03-27T11:07:31Z</time>
      </trkpt>
      <trkpt lat="45.92406" lon="4.74818">
        <ele>171</ele>
        <time>2017-03-27T11:07:32Z</time>
      </trkpt>
      <trkpt lat="45.92408" lon="4.74809">
        <ele>171</ele>
        <time>2017-03-27T11:07:33Z</time>
      </trkpt>
      <trkpt lat="45.9241" lon="4.74801">
        <ele>171</ele>
        <time>2017-03-27T11:07:34Z</time>
      </trkpt>
      <trkpt lat="45.92412" lon="4.74792">
        <ele>171</ele>
        <time>2017-03-27T11:07:35Z</time>
      </trkpt>
      <trkpt lat="45.92414" lon="4.74784">
        <ele>171</ele>
        <time>2017-03-27T11:07:36Z</time>
      </trkpt>
      <trkpt lat="45.92416" lon="4.74776">
        <ele>171</ele>
        <time>2017-03-27T11:07:37Z</time>
      </trkpt>
      <trkpt lat="45.92418" lon="4.74768">
        <ele>171</ele>
        <time>2017-03-27T11:07:38Z</time>
      </trkpt>
      <trkpt lat="45.9242" lon="4.7476">
        <ele>171</ele>
        <time>2017-03-27T11:07:39Z</time>
      </trkpt>
      <trkpt lat="45.92422" lon="4.74752">
        <ele>172</ele>
        <time>2017-03-27T11:07:40Z</time>
      </trkpt>
      <trkpt lat="45.92424" lon="4.74745">
        <ele>172</ele>
        <time>2017-03-27T11:07:41Z</time>
      </trkpt>
      <trkpt lat="45.92427" lon="4.74738">
        <ele>171</ele>
        <time>2017-03-27T11:07:42Z</time>
      </trkpt>
      <trkpt lat="45.92429" lon="4.74731">
        <ele>171</ele>
        <time>2017-03-27T11:07:43Z</time>
      </trkpt>
      <trkpt lat="45.92432" lon="4.74724">
        <ele>171</ele>
        <time>2017-03-27T11:07:44Z</time>
      </trkpt>
      <trkpt lat="45.92434" lon="4.74717">
        <ele>171</ele>
        <time>2017-03-27T11:07:45Z</time>
      </trkpt>
      <trkpt lat="45.92437" lon="4.74709">
        <ele>171</ele>
        <time>2017-03-27T11:07:46Z</time>
      </trkpt>
      <trkpt lat="45.92439" lon="4.74702">
        <ele>171</ele>
        <time>2017-03-27T11:07:47Z</time>
      </trkpt>
      <trkpt lat="45.92443" lon="4.74695">
        <ele>171</ele>
        <time>2017-03-27T11:07:48Z</time>
      </trkpt>
      <trkpt lat="45.92446" lon="4.74687">
        <ele>171</ele>
        <time>2017-03-27T11:07:49Z</time>
      </trkpt>
      <trkpt lat="45.92449" lon="4.7468">
        <ele>171</ele>
        <time>2017-03-27T11:07:50Z</time>
      </trkpt>
      <trkpt lat="45.92452" lon="4.74672">
        <ele>171</ele>
        <time>2017-03-27T11:07:51Z</time>
      </trkpt>
      <trkpt lat="45.92455" lon="4.74665">
        <ele>171</ele>
        <time>2017-03-27T11:07:52Z</time>
      </trkpt>
      <trkpt lat="45.92459" lon="4.74658">
        <ele>171</ele>
        <time>2017-03-27T11:07:53Z</time>
      </trkpt>
      <trkpt lat="45.92462" lon="4.74652">
        <ele>171</ele>
        <time>2017-03-27T11:07:54Z</time>
      </trkpt>
      <trkpt lat="45.92466" lon="4.74645">
        <ele>171</ele>
        <time>2017-03-27T11:07:55Z</time>
      </trkpt>
      <trkpt lat="45.92469" lon="4.74639">
        <ele>171</ele>
        <time>2017-03-27T11:07:56Z</time>
      </trkpt>
      <trkpt lat="45.92473" lon="4.74633">
        <ele>171</ele>
        <time>2017-03-27T11:07:57Z</time>
      </trkpt>
      <trkpt lat="45.92481" lon="4.7463">
        <ele>171</ele>
        <time>2017-03-27T11:07:58Z</time>
      </trkpt>
      <trkpt lat="45.92486" lon="4.74624">
        <ele>171</ele>
        <time>2017-03-27T11:07:59Z</time>
      </trkpt>
      <trkpt lat="45.9249" lon="4.74618">
        <ele>171</ele>
        <time>2017-03-27T11:08:00Z</time>
      </trkpt>
      <trkpt lat="45.92495" lon="4.74612">
        <ele>171</ele>
        <time>2017-03-27T11:08:01Z</time>
      </trkpt>
      <trkpt lat="45.92499" lon="4.74607">
        <ele>171</ele>
        <time>2017-03-27T11:08:02Z</time>
      </trkpt>
      <trkpt lat="45.92504" lon="4.74601">
        <ele>171</ele>
        <time>2017-03-27T11:08:03Z</time>
      </trkpt>
      <trkpt lat="45.92508" lon="4.74596">
        <ele>171</ele>
        <time>2017-03-27T11:08:04Z</time>
      </trkpt>
      <trkpt lat="45.92513" lon="4.74591">
        <ele>171</ele>
        <time>2017-03-27T11:08:05Z</time>
      </trkpt>
      <trkpt lat="45.92517" lon="4.74585">
        <ele>171</ele>
        <time>2017-03-27T11:08:06Z</time>
      </trkpt>
      <trkpt lat="45.92521" lon="4.74579">
        <ele>171</ele>
        <time>2017-03-27T11:08:07Z</time>
      </trkpt>
      <trkpt lat="45.92526" lon="4.74573">
        <ele>171</ele>
        <time>2017-03-27T11:08:08Z</time>
      </trkpt>
      <trkpt lat="45.9253" lon="4.74568">
        <ele>171</ele>
        <time>2017-03-27T11:08:09Z</time>
      </trkpt>
      <trkpt lat="45.92534" lon="4.74562">
        <ele>171</ele>
        <time>2017-03-27T11:08:10Z</time>
      </trkpt>
      <trkpt lat="45.92538" lon="4.74557">
        <ele>171</ele>
        <time>2017-03-27T11:08:11Z</time>
      </trkpt>
      <trkpt lat="45.92541" lon="4.7455">
        <ele>171</ele>
        <time>2017-03-27T11:08:12Z</time>
      </trkpt>
      <trkpt lat="45.92545" lon="4.74544">
        <ele>170</ele>
        <time>2017-03-27T11:08:13Z</time>
      </trkpt>
      <trkpt lat="45.92549" lon="4.74537">
        <ele>170</ele>
        <time>2017-03-27T11:08:14Z</time>
      </trkpt>
      <trkpt lat="45.92553" lon="4.7453">
        <ele>170</ele>
        <time>2017-03-27T11:08:15Z</time>
      </trkpt>
      <trkpt lat="45.92557" lon="4.74522">
        <ele>170</ele>
        <time>2017-03-27T11:08:16Z</time>
      </trkpt>
      <trkpt lat="45.92561" lon="4.74514">
        <ele>170</ele>
        <time>2017-03-27T11:08:17Z</time>
      </trkpt>
      <trkpt lat="45.92565" lon="4.74507">
        <ele>170</ele>
        <time>2017-03-27T11:08:18Z</time>
      </trkpt>
      <trkpt lat="45.92569" lon="4.74499">
        <ele>170</ele>
        <time>2017-03-27T11:08:19Z</time>
      </trkpt>
      <trkpt lat="45.92573" lon="4.74492">
        <ele>170</ele>
        <time>2017-03-27T11:08:20Z</time>
      </trkpt>
      <trkpt lat="45.92577" lon="4.74486">
        <ele>170</ele>
        <time>2017-03-27T11:08:21Z</time>
      </trkpt>
      <trkpt lat="45.9258" lon="4.74479">
        <ele>170</ele>
        <time>2017-03-27T11:08:22Z</time>
      </trkpt>
      <trkpt lat="45.92584" lon="4.74472">
        <ele>170</ele>
        <time>2017-03-27T11:08:23Z</time>
      </trkpt>
      <trkpt lat="45.92587" lon="4.74466">
        <ele>170</ele>
        <time>2017-03-27T11:08:24Z</time>
      </trkpt>
      <trkpt lat="45.92591" lon="4.74459">
        <ele>170</ele>
        <time>2017-03-27T11:08:25Z</time>
      </trkpt>
      <trkpt lat="45.92595" lon="4.74452">
        <ele>170</ele>
        <time>2017-03-27T11:08:26Z</time>
      </trkpt>
      <trkpt lat="45.92598" lon="4.74446">
        <ele>170</ele>
        <time>2017-03-27T11:08:27Z</time>
      </trkpt>
      <trkpt lat="45.92602" lon="4.74439">
        <ele>170</ele>
        <time>2017-03-27T11:08:28Z</time>
      </trkpt>
      <trkpt lat="45.92605" lon="4.74433">
        <ele>170</ele>
        <time>2017-03-27T11:08:29Z</time>
      </trkpt>
      <trkpt lat="45.92609" lon="4.74427">
        <ele>170</ele>
        <time>2017-03-27T11:08:30Z</time>
      </trkpt>
      <trkpt lat="45.92612" lon="4.7442">
        <ele>170</ele>
        <time>2017-03-27T11:08:31Z</time>
      </trkpt>
      <trkpt lat="45.92617" lon="4.74413">
        <ele>170</ele>
        <time>2017-03-27T11:08:32Z</time>
      </trkpt>
      <trkpt lat="45.92621" lon="4.74406">
        <ele>170</ele>
        <time>2017-03-27T11:08:33Z</time>
      </trkpt>
      <trkpt lat="45.92624" lon="4.74398">
        <ele>170</ele>
        <time>2017-03-27T11:08:34Z</time>
      </trkpt>
      <trkpt lat="45.92628" lon="4.7439">
        <ele>170</ele>
        <time>2017-03-27T11:08:35Z</time>
      </trkpt>
      <trkpt lat="45.92633" lon="4.74382">
        <ele>170</ele>
        <time>2017-03-27T11:08:36Z</time>
      </trkpt>
      <trkpt lat="45.92636" lon="4.74375">
        <ele>170</ele>
        <time>2017-03-27T11:08:37Z</time>
      </trkpt>
      <trkpt lat="45.9264" lon="4.74368">
        <ele>171</ele>
        <time>2017-03-27T11:08:38Z</time>
      </trkpt>
      <trkpt lat="45.92644" lon="4.74361">
        <ele>171</ele>
        <time>2017-03-27T11:08:39Z</time>
      </trkpt>
      <trkpt lat="45.92647" lon="4.74355">
        <ele>171</ele>
        <time>2017-03-27T11:08:40Z</time>
      </trkpt>
      <trkpt lat="45.92651" lon="4.74349">
        <ele>171</ele>
        <time>2017-03-27T11:08:41Z</time>
      </trkpt>
      <trkpt lat="45.92654" lon="4.74343">
        <ele>171</ele>
        <time>2017-03-27T11:08:42Z</time>
      </trkpt>
      <trkpt lat="45.92658" lon="4.74337">
        <ele>171</ele>
        <time>2017-03-27T11:08:43Z</time>
      </trkpt>
      <trkpt lat="45.92661" lon="4.7433">
        <ele>171</ele>
        <time>2017-03-27T11:08:44Z</time>
      </trkpt>
      <trkpt lat="45.92665" lon="4.74323">
        <ele>171</ele>
        <time>2017-03-27T11:08:45Z</time>
      </trkpt>
      <trkpt lat="45.92668" lon="4.74317">
        <ele>171</ele>
        <time>2017-03-27T11:08:46Z</time>
      </trkpt>
      <trkpt lat="45.92672" lon="4.7431">
        <ele>171</ele>
        <time>2017-03-27T11:08:47Z</time>
      </trkpt>
      <trkpt lat="45.92675" lon="4.74304">
        <ele>171</ele>
        <time>2017-03-27T11:08:48Z</time>
      </trkpt>
      <trkpt lat="45.92679" lon="4.74297">
        <ele>171</ele>
        <time>2017-03-27T11:08:49Z</time>
      </trkpt>
      <trkpt lat="45.92683" lon="4.74289">
        <ele>171</ele>
        <time>2017-03-27T11:08:50Z</time>
      </trkpt>
      <trkpt lat="45.92687" lon="4.74282">
        <ele>171</ele>
        <time>2017-03-27T11:08:51Z</time>
      </trkpt>
      <trkpt lat="45.92692" lon="4.74274">
        <ele>171</ele>
        <time>2017-03-27T11:08:52Z</time>
      </trkpt>
      <trkpt lat="45.92696" lon="4.74266">
        <ele>171</ele>
        <time>2017-03-27T11:08:53Z</time>
      </trkpt>
      <trkpt lat="45.927" lon="4.74259">
        <ele>171</ele>
        <time>2017-03-27T11:08:54Z</time>
      </trkpt>
      <trkpt lat="45.92705" lon="4.74251">
        <ele>171</ele>
        <time>2017-03-27T11:08:55Z</time>
      </trkpt>
      <trkpt lat="45.92709" lon="4.74244">
        <ele>171</ele>
        <time>2017-03-27T11:08:56Z</time>
      </trkpt>
      <trkpt lat="45.92714" lon="4.74237">
        <ele>171</ele>
        <time>2017-03-27T11:08:57Z</time>
      </trkpt>
      <trkpt lat="45.92719" lon="4.74231">
        <ele>171</ele>
        <time>2017-03-27T11:08:58Z</time>
      </trkpt>
      <trkpt lat="45.92723" lon="4.74224">
        <ele>171</ele>
        <time>2017-03-27T11:08:59Z</time>
      </trkpt>
      <trkpt lat="45.92728" lon="4.74217">
        <ele>171</ele>
        <time>2017-03-27T11:09:00Z</time>
      </trkpt>
      <trkpt lat="45.92733" lon="4.7421">
        <ele>171</ele>
        <time>2017-03-27T11:09:01Z</time>
      </trkpt>
      <trkpt lat="45.92737" lon="4.74204">
        <ele>171</ele>
        <time>2017-03-27T11:09:02Z</time>
      </trkpt>
      <trkpt lat="45.92742" lon="4.74197">
        <ele>171</ele>
        <time>2017-03-27T11:09:03Z</time>
      </trkpt>
      <trkpt lat="45.92747" lon="4.74191">
        <ele>172</ele>
        <time>2017-03-27T11:09:04Z</time>
      </trkpt>
      <trkpt lat="45.92752" lon="4.74184">
        <ele>172</ele>
        <time>2017-03-27T11:09:05Z</time>
      </trkpt>
      <trkpt lat="45.92756" lon="4.74179">
        <ele>172</ele>
        <time>2017-03-27T11:09:06Z</time>
      </trkpt>
      <trkpt lat="45.92762" lon="4.74173">
        <ele>172</ele>
        <time>2017-03-27T11:09:07Z</time>
      </trkpt>
      <trkpt lat="45.92767" lon="4.74167">
        <ele>172</ele>
        <time>2017-03-27T11:09:08Z</time>
      </trkpt>
      <trkpt lat="45.92772" lon="4.74162">
        <ele>172</ele>
        <time>2017-03-27T11:09:09Z</time>
      </trkpt>
      <trkpt lat="45.92777" lon="4.74156">
        <ele>172</ele>
        <time>2017-03-27T11:09:10Z</time>
      </trkpt>
      <trkpt lat="45.92782" lon="4.74151">
        <ele>172</ele>
        <time>2017-03-27T11:09:11Z</time>
      </trkpt>
      <trkpt lat="45.92788" lon="4.74145">
        <ele>172</ele>
        <time>2017-03-27T11:09:12Z</time>
      </trkpt>
      <trkpt lat="45.92793" lon="4.74139">
        <ele>172</ele>
        <time>2017-03-27T11:09:13Z</time>
      </trkpt>
      <trkpt lat="45.92799" lon="4.74133">
        <ele>172</ele>
        <time>2017-03-27T11:09:14Z</time>
      </trkpt>
      <trkpt lat="45.92805" lon="4.74127">
        <ele>172</ele>
        <time>2017-03-27T11:09:15Z</time>
      </trkpt>
      <trkpt lat="45.9281" lon="4.74121">
        <ele>172</ele>
        <time>2017-03-27T11:09:16Z</time>
      </trkpt>
      <trkpt lat="45.92816" lon="4.74115">
        <ele>172</ele>
        <time>2017-03-27T11:09:17Z</time>
      </trkpt>
      <trkpt lat="45.92821" lon="4.74109">
        <ele>171</ele>
        <time>2017-03-27T11:09:18Z</time>
      </trkpt>
      <trkpt lat="45.92827" lon="4.74103">
        <ele>171</ele>
        <time>2017-03-27T11:09:19Z</time>
      </trkpt>
      <trkpt lat="45.92832" lon="4.74096">
        <ele>171</ele>
        <time>2017-03-27T11:09:20Z</time>
      </trkpt>
      <trkpt lat="45.92837" lon="4.7409">
        <ele>171</ele>
        <time>2017-03-27T11:09:21Z</time>
      </trkpt>
      <trkpt lat="45.92842" lon="4.74084">
        <ele>171</ele>
        <time>2017-03-27T11:09:22Z</time>
      </trkpt>
      <trkpt lat="45.92847" lon="4.74078">
        <ele>172</ele>
        <time>2017-03-27T11:09:23Z</time>
      </trkpt>
      <trkpt lat="45.92851" lon="4.74072">
        <ele>172</ele>
        <time>2017-03-27T11:09:24Z</time>
      </trkpt>
      <trkpt lat="45.92856" lon="4.74066">
        <ele>172</ele>
        <time>2017-03-27T11:09:25Z</time>
      </trkpt>
      <trkpt lat="45.92861" lon="4.7406">
        <ele>172</ele>
        <time>2017-03-27T11:09:26Z</time>
      </trkpt>
      <trkpt lat="45.92866" lon="4.74054">
        <ele>172</ele>
        <time>2017-03-27T11:09:27Z</time>
      </trkpt>
      <trkpt lat="45.92871" lon="4.7405">
        <ele>172</ele>
        <time>2017-03-27T11:09:28Z</time>
      </trkpt>
      <trkpt lat="45.92877" lon="4.74046">
        <ele>172</ele>
        <time>2017-03-27T11:09:29Z</time>
      </trkpt>
      <trkpt lat="45.92882" lon="4.74045">
        <ele>172</ele>
        <time>2017-03-27T11:09:30Z</time>
      </trkpt>
      <trkpt lat="45.92888" lon="4.74046">
        <ele>172</ele>
        <time>2017-03-27T11:09:31Z</time>
      </trkpt>
      <trkpt lat="45.92894" lon="4.74046">
        <ele>172</ele>
        <time>2017-03-27T11:09:32Z</time>
      </trkpt>
      <trkpt lat="45.929" lon="4.74044">
        <ele>172</ele>
        <time>2017-03-27T11:09:33Z</time>
      </trkpt>
      <trkpt lat="45.92906" lon="4.7404">
        <ele>172</ele>
        <time>2017-03-27T11:09:34Z</time>
      </trkpt>
      <trkpt lat="45.92911" lon="4.74032">
        <ele>172</ele>
        <time>2017-03-27T11:09:35Z</time>
      </trkpt>
      <trkpt lat="45.92914" lon="4.74024">
        <ele>172</ele>
        <time>2017-03-27T11:09:36Z</time>
      </trkpt>
      <trkpt lat="45.92915" lon="4.74014">
        <ele>172</ele>
        <time>2017-03-27T11:09:37Z</time>
      </trkpt>
      <trkpt lat="45.92915" lon="4.74005">
        <ele>172</ele>
        <time>2017-03-27T11:09:38Z</time>
      </trkpt>
      <trkpt lat="45.92913" lon="4.73996">
        <ele>172</ele>
        <time>2017-03-27T11:09:39Z</time>
      </trkpt>
      <trkpt lat="45.9291" lon="4.73989">
        <ele>172</ele>
        <time>2017-03-27T11:09:40Z</time>
      </trkpt>
      <trkpt lat="45.92906" lon="4.73984">
        <ele>172</ele>
        <time>2017-03-27T11:09:41Z</time>
      </trkpt>
      <trkpt lat="45.92902" lon="4.7398">
        <ele>172</ele>
        <time>2017-03-27T11:09:42Z</time>
      </trkpt>
      <trkpt lat="45.92897" lon="4.73975">
        <ele>172</ele>
        <time>2017-03-27T11:09:43Z</time>
      </trkpt>
      <trkpt lat="45.92893" lon="4.7397">
        <ele>172</ele>
        <time>2017-03-27T11:09:44Z</time>
      </trkpt>
      <trkpt lat="45.9289" lon="4.73963">
        <ele>172</ele>
        <time>2017-03-27T11:09:45Z</time>
      </trkpt>
      <trkpt lat="45.92888" lon="4.73956">
        <ele>172</ele>
        <time>2017-03-27T11:09:46Z</time>
      </trkpt>
      <trkpt lat="45.92888" lon="4.73947">
        <ele>172</ele>
        <time>2017-03-27T11:09:47Z</time>
      </trkpt>
      <trkpt lat="45.92888" lon="4.73938">
        <ele>172</ele>
        <time>2017-03-27T11:09:48Z</time>
      </trkpt>
      <trkpt lat="45.92886" lon="4.73929">
        <ele>172</ele>
        <time>2017-03-27T11:09:49Z</time>
      </trkpt>
      <trkpt lat="45.92885" lon="4.7392">
        <ele>172</ele>
        <time>2017-03-27T11:09:50Z</time>
      </trkpt>
      <trkpt lat="45.92884" lon="4.73911">
        <ele>173</ele>
        <time>2017-03-27T11:09:51Z</time>
      </trkpt>
      <trkpt lat="45.92882" lon="4.73901">
        <ele>173</ele>
        <time>2017-03-27T11:09:52Z</time>
      </trkpt>
      <trkpt lat="45.9288" lon="4.73891">
        <ele>173</ele>
        <time>2017-03-27T11:09:53Z</time>
      </trkpt>
      <trkpt lat="45.92878" lon="4.73882">
        <ele>173</ele>
        <time>2017-03-27T11:09:54Z</time>
      </trkpt>
      <trkpt lat="45.92876" lon="4.73872">
        <ele>173</ele>
        <time>2017-03-27T11:09:55Z</time>
      </trkpt>
      <trkpt lat="45.92873" lon="4.73862">
        <ele>173</ele>
        <time>2017-03-27T11:09:56Z</time>
      </trkpt>
      <trkpt lat="45.92871" lon="4.73853">
        <ele>173</ele>
        <time>2017-03-27T11:09:57Z</time>
      </trkpt>
      <trkpt lat="45.9287" lon="4.73844">
        <ele>173</ele>
        <time>2017-03-27T11:09:58Z</time>
      </trkpt>
      <trkpt lat="45.92868" lon="4.73836">
        <ele>173</ele>
        <time>2017-03-27T11:09:59Z</time>
      </trkpt>
      <trkpt lat="45.92865" lon="4.73829">
        <ele>173</ele>
        <time>2017-03-27T11:10:00Z</time>
      </trkpt>
      <trkpt lat="45.92863" lon="4.73821">
        <ele>173</ele>
        <time>2017-03-27T11:10:01Z</time>
      </trkpt>
      <trkpt lat="45.92863" lon="4.73814">
        <ele>173</ele>
        <time>2017-03-27T11:10:02Z</time>
      </trkpt>
      <trkpt lat="45.92861" lon="4.73807">
        <ele>173</ele>
        <time>2017-03-27T11:10:03Z</time>
      </trkpt>
      <trkpt lat="45.92858" lon="4.73799">
        <ele>173</ele>
        <time>2017-03-27T11:10:04Z</time>
      </trkpt>
      <trkpt lat="45.92854" lon="4.73793">
        <ele>173</ele>
        <time>2017-03-27T11:10:05Z</time>
      </trkpt>
      <trkpt lat="45.92849" lon="4.73787">
        <ele>173</ele>
        <time>2017-03-27T11:10:06Z</time>
      </trkpt>
      <trkpt lat="45.92844" lon="4.73783">
        <ele>173</ele>
        <time>2017-03-27T11:10:07Z</time>
      </trkpt>
      <trkpt lat="45.92838" lon="4.73779">
        <ele>172</ele>
        <time>2017-03-27T11:10:08Z</time>
      </trkpt>
      <trkpt lat="45.92833" lon="4.73775">
        <ele>173</ele>
        <time>2017-03-27T11:10:09Z</time>
      </trkpt>
      <trkpt lat="45.92828" lon="4.73772">
        <ele>173</ele>
        <time>2017-03-27T11:10:10Z</time>
      </trkpt>
      <trkpt lat="45.92823" lon="4.73769">
        <ele>173</ele>
        <time>2017-03-27T11:10:11Z</time>
      </trkpt>
      <trkpt lat="45.92818" lon="4.73767">
        <ele>173</ele>
        <time>2017-03-27T11:10:12Z</time>
      </trkpt>
      <trkpt lat="45.92813" lon="4.73764">
        <ele>173</ele>
        <time>2017-03-27T11:10:13Z</time>
      </trkpt>
      <trkpt lat="45.92809" lon="4.73761">
        <ele>173</ele>
        <time>2017-03-27T11:10:14Z</time>
      </trkpt>
      <trkpt lat="45.92805" lon="4.73758">
        <ele>173</ele>
        <time>2017-03-27T11:10:15Z</time>
      </trkpt>
      <trkpt lat="45.928" lon="4.73756">
        <ele>173</ele>
        <time>2017-03-27T11:10:16Z</time>
      </trkpt>
      <trkpt lat="45.92795" lon="4.73754">
        <ele>173</ele>
        <time>2017-03-27T11:10:17Z</time>
      </trkpt>
      <trkpt lat="45.92791" lon="4.73752">
        <ele>173</ele>
        <time>2017-03-27T11:10:18Z</time>
      </trkpt>
      <trkpt lat="45.92785" lon="4.73744">
        <ele>172</ele>
        <time>2017-03-27T11:10:20Z</time>
      </trkpt>
      <trkpt lat="45.92782" lon="4.73739">
        <ele>172</ele>
        <time>2017-03-27T11:10:21Z</time>
      </trkpt>
      <trkpt lat="45.92776" lon="4.73732">
        <ele>172</ele>
        <time>2017-03-27T11:10:23Z</time>
      </trkpt>
      <trkpt lat="45.92771" lon="4.7373">
        <ele>172</ele>
        <time>2017-03-27T11:10:24Z</time>
      </trkpt>
      <trkpt lat="45.92766" lon="4.73729">
        <ele>172</ele>
        <time>2017-03-27T11:10:25Z</time>
      </trkpt>
      <trkpt lat="45.92761" lon="4.73728">
        <ele>172</ele>
        <time>2017-03-27T11:10:26Z</time>
      </trkpt>
      <trkpt lat="45.92753" lon="4.73727">
        <ele>172</ele>
        <time>2017-03-27T11:10:28Z</time>
      </trkpt>
      <trkpt lat="45.92749" lon="4.73726">
        <ele>173</ele>
        <time>2017-03-27T11:10:29Z</time>
      </trkpt>
      <trkpt lat="45.92745" lon="4.73725">
        <ele>173</ele>
        <time>2017-03-27T11:10:30Z</time>
      </trkpt>
      <trkpt lat="45.9274" lon="4.73724">
        <ele>173</ele>
        <time>2017-03-27T11:10:31Z</time>
      </trkpt>
      <trkpt lat="45.92735" lon="4.73723">
        <ele>173</ele>
        <time>2017-03-27T11:10:32Z</time>
      </trkpt>
      <trkpt lat="45.92729" lon="4.73722">
        <ele>173</ele>
        <time>2017-03-27T11:10:33Z</time>
      </trkpt>
      <trkpt lat="45.92724" lon="4.7372">
        <ele>173</ele>
        <time>2017-03-27T11:10:34Z</time>
      </trkpt>
      <trkpt lat="45.92719" lon="4.73719">
        <ele>173</ele>
        <time>2017-03-27T11:10:35Z</time>
      </trkpt>
      <trkpt lat="45.92711" lon="4.73716">
        <ele>173</ele>
        <time>2017-03-27T11:10:37Z</time>
      </trkpt>
      <trkpt lat="45.92707" lon="4.73715">
        <ele>173</ele>
        <time>2017-03-27T11:10:38Z</time>
      </trkpt>
      <trkpt lat="45.92698" lon="4.73711">
        <ele>173</ele>
        <time>2017-03-27T11:10:40Z</time>
      </trkpt>
      <trkpt lat="45.92694" lon="4.7371">
        <ele>173</ele>
        <time>2017-03-27T11:10:41Z</time>
      </trkpt>
      <trkpt lat="45.92689" lon="4.73709">
        <ele>173</ele>
        <time>2017-03-27T11:10:42Z</time>
      </trkpt>
      <trkpt lat="45.92684" lon="4.73707">
        <ele>173</ele>
        <time>2017-03-27T11:10:43Z</time>
      </trkpt>
      <trkpt lat="45.92679" lon="4.73705">
        <ele>173</ele>
        <time>2017-03-27T11:10:44Z</time>
      </trkpt>
      <trkpt lat="45.92674" lon="4.73702">
        <ele>174</ele>
        <time>2017-03-27T11:10:45Z</time>
      </trkpt>
      <trkpt lat="45.92669" lon="4.73699">
        <ele>174</ele>
        <time>2017-03-27T11:10:46Z</time>
      </trkpt>
      <trkpt lat="45.92664" lon="4.73696">
        <ele>173</ele>
        <time>2017-03-27T11:10:47Z</time>
      </trkpt>
      <trkpt lat="45.92659" lon="4.73692">
        <ele>173</ele>
        <time>2017-03-27T11:10:48Z</time>
      </trkpt>
      <trkpt lat="45.92655" lon="4.73688">
        <ele>173</ele>
        <time>2017-03-27T11:10:49Z</time>
      </trkpt>
      <trkpt lat="45.92651" lon="4.73684">
        <ele>173</ele>
        <time>2017-03-27T11:10:50Z</time>
      </trkpt>
      <trkpt lat="45.92647" lon="4.7368">
        <ele>173</ele>
        <time>2017-03-27T11:10:51Z</time>
      </trkpt>
      <trkpt lat="45.92641" lon="4.73671">
        <ele>173</ele>
        <time>2017-03-27T11:10:53Z</time>
      </trkpt>
      <trkpt lat="45.92638" lon="4.73666">
        <ele>173</ele>
        <time>2017-03-27T11:10:54Z</time>
      </trkpt>
      <trkpt lat="45.92636" lon="4.7366">
        <ele>173</ele>
        <time>2017-03-27T11:10:55Z</time>
      </trkpt>
      <trkpt lat="45.92633" lon="4.73654">
        <ele>173</ele>
        <time>2017-03-27T11:10:56Z</time>
      </trkpt>
      <trkpt lat="45.92631" lon="4.73649">
        <ele>173</ele>
        <time>2017-03-27T11:10:57Z</time>
      </trkpt>
      <trkpt lat="45.92629" lon="4.73643">
        <ele>173</ele>
        <time>2017-03-27T11:10:58Z</time>
      </trkpt>
      <trkpt lat="45.92626" lon="4.73637">
        <ele>173</ele>
        <time>2017-03-27T11:10:59Z</time>
      </trkpt>
      <trkpt lat="45.92623" lon="4.73632">
        <ele>173</ele>
        <time>2017-03-27T11:11:00Z</time>
      </trkpt>
      <trkpt lat="45.92619" lon="4.73627">
        <ele>173</ele>
        <time>2017-03-27T11:11:01Z</time>
      </trkpt>
      <trkpt lat="45.92614" lon="4.73624">
        <ele>173</ele>
        <time>2017-03-27T11:11:02Z</time>
      </trkpt>
      <trkpt lat="45.92608" lon="4.73622">
        <ele>173</ele>
        <time>2017-03-27T11:11:03Z</time>
      </trkpt>
      <trkpt lat="45.926" lon="4.73621">
        <ele>173</ele>
        <time>2017-03-27T11:11:04Z</time>
      </trkpt>
      <trkpt lat="45.92594" lon="4.7362">
        <ele>173</ele>
        <time>2017-03-27T11:11:05Z</time>
      </trkpt>
      <trkpt lat="45.92591" lon="4.7362">
        <ele>173</ele>
        <time>2017-03-27T11:11:06Z</time>
      </trkpt>
      <trkpt lat="45.92582" lon="4.7362">
        <ele>173</ele>
        <time>2017-03-27T11:11:08Z</time>
      </trkpt>
      <trkpt lat="45.92578" lon="4.73622">
        <ele>173</ele>
        <time>2017-03-27T11:11:09Z</time>
      </trkpt>
      <trkpt lat="45.92574" lon="4.73624">
        <ele>173</ele>
        <time>2017-03-27T11:11:10Z</time>
      </trkpt>
      <trkpt lat="45.92569" lon="4.73625">
        <ele>173</ele>
        <time>2017-03-27T11:11:11Z</time>
      </trkpt>
      <trkpt lat="45.92564" lon="4.73625">
        <ele>173</ele>
        <time>2017-03-27T11:11:12Z</time>
      </trkpt>
      <trkpt lat="45.92559" lon="4.73627">
        <ele>173</ele>
        <time>2017-03-27T11:11:13Z</time>
      </trkpt>
      <trkpt lat="45.92553" lon="4.73629">
        <ele>173</ele>
        <time>2017-03-27T11:11:14Z</time>
      </trkpt>
      <trkpt lat="45.92548" lon="4.7363">
        <ele>173</ele>
        <time>2017-03-27T11:11:15Z</time>
      </trkpt>
      <trkpt lat="45.92542" lon="4.73631">
        <ele>173</ele>
        <time>2017-03-27T11:11:16Z</time>
      </trkpt>
      <trkpt lat="45.92538" lon="4.73633">
        <ele>173</ele>
        <time>2017-03-27T11:11:17Z</time>
      </trkpt>
      <trkpt lat="45.92532" lon="4.73633">
        <ele>173</ele>
        <time>2017-03-27T11:11:18Z</time>
      </trkpt>
      <trkpt lat="45.92528" lon="4.73633">
        <ele>173</ele>
        <time>2017-03-27T11:11:19Z</time>
      </trkpt>
      <trkpt lat="45.92519" lon="4.73634">
        <ele>173</ele>
        <time>2017-03-27T11:11:21Z</time>
      </trkpt>
      <trkpt lat="45.92515" lon="4.73634">
        <ele>173</ele>
        <time>2017-03-27T11:11:22Z</time>
      </trkpt>
      <trkpt lat="45.92508" lon="4.73634">
        <ele>173</ele>
        <time>2017-03-27T11:11:24Z</time>
      </trkpt>
      <trkpt lat="45.92503" lon="4.73634">
        <ele>174</ele>
        <time>2017-03-27T11:11:25Z</time>
      </trkpt>
      <trkpt lat="45.92494" lon="4.73635">
        <ele>174</ele>
        <time>2017-03-27T11:11:27Z</time>
      </trkpt>
      <trkpt lat="45.9249" lon="4.73636">
        <ele>174</ele>
        <time>2017-03-27T11:11:28Z</time>
      </trkpt>
      <trkpt lat="45.92481" lon="4.73636">
        <ele>174</ele>
        <time>2017-03-27T11:11:30Z</time>
      </trkpt>
      <trkpt lat="45.92477" lon="4.73636">
        <ele>174</ele>
        <time>2017-03-27T11:11:31Z</time>
      </trkpt>
      <trkpt lat="45.92469" lon="4.73641">
        <ele>174</ele>
        <time>2017-03-27T11:11:33Z</time>
      </trkpt>
      <trkpt lat="45.92467" lon="4.73645">
        <ele>174</ele>
        <time>2017-03-27T11:11:34Z</time>
      </trkpt>
      <trkpt lat="45.92464" lon="4.73656">
        <ele>174</ele>
        <time>2017-03-27T11:11:36Z</time>
      </trkpt>
      <trkpt lat="45.92463" lon="4.73663">
        <ele>174</ele>
        <time>2017-03-27T11:11:37Z</time>
      </trkpt>
      <trkpt lat="45.92462" lon="4.73673">
        <ele>174</ele>
        <time>2017-03-27T11:11:39Z</time>
      </trkpt>
      <trkpt lat="45.92461" lon="4.73679">
        <ele>174</ele>
        <time>2017-03-27T11:11:40Z</time>
      </trkpt>
      <trkpt lat="45.9246" lon="4.73689">
        <ele>174</ele>
        <time>2017-03-27T11:11:42Z</time>
      </trkpt>
      <trkpt lat="45.92459" lon="4.73693">
        <ele>174</ele>
        <time>2017-03-27T11:11:43Z</time>
      </trkpt>
      <trkpt lat="45.92457" lon="4.73703">
        <ele>174</ele>
        <time>2017-03-27T11:11:46Z</time>
      </trkpt>
      <trkpt lat="45.92457" lon="4.73705">
        <ele>174</ele>
        <time>2017-03-27T11:11:47Z</time>
      </trkpt>
      <trkpt lat="45.92456" lon="4.73707">
        <ele>174</ele>
        <time>2017-03-27T11:11:48Z</time>
      </trkpt>
      <trkpt lat="45.92457" lon="4.73708">
        <ele>174</ele>
        <time>2017-03-27T11:11:49Z</time>
      </trkpt>
      <trkpt lat="45.92457" lon="4.73709">
        <ele>174</ele>
        <time>2017-03-27T11:12:00Z</time>
      </trkpt>
      <trkpt lat="45.92456" lon="4.73708">
        <ele>174</ele>
        <time>2017-03-27T11:12:01Z</time>
      </trkpt>
      <trkpt lat="45.92455" lon="4.73707">
        <ele>174</ele>
        <time>2017-03-27T11:12:21.211Z</time>
      </trkpt>
    </trkseg>
  </trk>
</gpx>